<?xml version="1.0" encoding="UTF-8"?>
<gpx version="1.1" creator="https://www.youtrack.es" xsi:schemaLocation="http://www.topografix.com/GPX/1/1 http://www.topografix.com/GPX/1/1/gpx.xsd http://www.garmin.com/xmlschemas/GpxExtensions/v3 http://www.garmin.com/xmlschemas/GpxExtensionsv3.xsd http://www.garmin.com/xmlschemas/TrackPointExtension/v1 http://www.garmin.com/xmlschemas/TrackPointExtensionv1.xsd" xmlns:gpxtpx="http://www.garmin.com/xmlschemas/TrackPointExtension/v1" xmlns:gpxx="http://www.garmin.com/xmlschemas/GpxExtensions/v3" xmlns:xsi="http://www.w3.org/2001/XMLSchema-instance">
  <metadata>
    <link href="https://www.youtrack.es">
      <text>YouTrack.es</text>
    </link>
    <time>2026-05-08T05:11:12Z</time>
  </metadata>
  <trk>
    <src>https://www.youtrack.es</src>
    <link href="https://www.youtrack.es/ruta/24043-biozgztelporcebollera">
      <text>YouTrack.es</text>
    </link>
    <trkseg>
      <trkpt lat="42.109743" lon="-2.674470">
        <ele>1042.7</ele>
        <time>2021-07-02T18:48:26.000Z</time>
      </trkpt>
      <trkpt lat="42.109743" lon="-2.674470">
        <ele>1042.7</ele>
        <time>2021-07-02T18:48:27.000Z</time>
      </trkpt>
      <trkpt lat="42.109743" lon="-2.674477">
        <ele>1043.0</ele>
        <time>2021-07-02T18:49:24.000Z</time>
      </trkpt>
      <trkpt lat="42.109743" lon="-2.674477">
        <ele>1043.0</ele>
        <time>2021-07-02T18:49:24.000Z</time>
      </trkpt>
      <trkpt lat="42.109780" lon="-2.674503">
        <ele>1043.0</ele>
        <time>2021-07-02T18:49:30.000Z</time>
      </trkpt>
      <trkpt lat="42.109782" lon="-2.674507">
        <ele>1042.5</ele>
        <time>2021-07-02T18:49:46.000Z</time>
      </trkpt>
      <trkpt lat="42.109782" lon="-2.674507">
        <ele>1042.4</ele>
        <time>2021-07-02T18:49:47.000Z</time>
      </trkpt>
      <trkpt lat="42.109783" lon="-2.674507">
        <ele>1042.2</ele>
        <time>2021-07-02T18:50:12.000Z</time>
      </trkpt>
      <trkpt lat="42.109783" lon="-2.674507">
        <ele>1042.3</ele>
        <time>2021-07-02T18:50:13.000Z</time>
      </trkpt>
      <trkpt lat="42.109782" lon="-2.674512">
        <ele>1042.2</ele>
        <time>2021-07-02T18:50:40.000Z</time>
      </trkpt>
      <trkpt lat="42.109782" lon="-2.674513">
        <ele>1042.9</ele>
        <time>2021-07-02T18:50:43.000Z</time>
      </trkpt>
      <trkpt lat="42.109783" lon="-2.674515">
        <ele>1042.6</ele>
        <time>2021-07-02T18:51:35.000Z</time>
      </trkpt>
      <trkpt lat="42.109783" lon="-2.674515">
        <ele>1042.5</ele>
        <time>2021-07-02T18:51:36.000Z</time>
      </trkpt>
      <trkpt lat="42.109785" lon="-2.674518">
        <ele>1042.3</ele>
        <time>2021-07-02T18:51:42.000Z</time>
      </trkpt>
      <trkpt lat="42.109785" lon="-2.674518">
        <ele>1042.4</ele>
        <time>2021-07-02T18:51:43.000Z</time>
      </trkpt>
      <trkpt lat="42.109787" lon="-2.674520">
        <ele>1042.5</ele>
        <time>2021-07-02T18:52:46.000Z</time>
      </trkpt>
      <trkpt lat="42.109787" lon="-2.674520">
        <ele>1042.7</ele>
        <time>2021-07-02T18:52:47.000Z</time>
      </trkpt>
      <trkpt lat="42.109787" lon="-2.674512">
        <ele>1041.9</ele>
        <time>2021-07-02T18:53:40.000Z</time>
      </trkpt>
      <trkpt lat="42.109785" lon="-2.674503">
        <ele>1035.6</ele>
        <time>2021-07-02T18:53:42.000Z</time>
      </trkpt>
      <trkpt lat="42.109787" lon="-2.674503">
        <ele>1042.0</ele>
        <time>2021-07-02T18:53:45.000Z</time>
      </trkpt>
      <trkpt lat="42.109787" lon="-2.674503">
        <ele>1042.1</ele>
        <time>2021-07-02T18:53:46.000Z</time>
      </trkpt>
      <trkpt lat="42.109788" lon="-2.674510">
        <ele>1043.0</ele>
        <time>2021-07-02T18:54:16.000Z</time>
      </trkpt>
      <trkpt lat="42.109855" lon="-2.674568">
        <ele>1042.4</ele>
        <time>2021-07-02T18:54:29.000Z</time>
      </trkpt>
      <trkpt lat="42.109857" lon="-2.674568">
        <ele>1043.0</ele>
        <time>2021-07-02T18:54:38.000Z</time>
      </trkpt>
      <trkpt lat="42.109865" lon="-2.674572">
        <ele>1042.5</ele>
        <time>2021-07-02T18:54:41.000Z</time>
      </trkpt>
      <trkpt lat="42.109873" lon="-2.674570">
        <ele>1040.3</ele>
        <time>2021-07-02T18:54:43.000Z</time>
      </trkpt>
      <trkpt lat="42.109972" lon="-2.674518">
        <ele>1043.3</ele>
        <time>2021-07-02T18:54:49.000Z</time>
      </trkpt>
      <trkpt lat="42.110070" lon="-2.674483">
        <ele>1041.3</ele>
        <time>2021-07-02T18:54:53.000Z</time>
      </trkpt>
      <trkpt lat="42.110138" lon="-2.674567">
        <ele>1041.3</ele>
        <time>2021-07-02T18:54:59.000Z</time>
      </trkpt>
      <trkpt lat="42.110145" lon="-2.674615">
        <ele>1036.6</ele>
        <time>2021-07-02T18:55:05.000Z</time>
      </trkpt>
      <trkpt lat="42.110143" lon="-2.674615">
        <ele>1042.2</ele>
        <time>2021-07-02T18:55:07.000Z</time>
      </trkpt>
      <trkpt lat="42.110142" lon="-2.674613">
        <ele>1042.9</ele>
        <time>2021-07-02T18:55:09.000Z</time>
      </trkpt>
      <trkpt lat="42.110143" lon="-2.674613">
        <ele>1047.5</ele>
        <time>2021-07-02T18:55:20.000Z</time>
      </trkpt>
      <trkpt lat="42.110143" lon="-2.674613">
        <ele>1054.6</ele>
        <time>2021-07-02T18:55:21.000Z</time>
      </trkpt>
      <trkpt lat="42.110145" lon="-2.674610">
        <ele>1041.4</ele>
        <time>2021-07-02T18:56:01.000Z</time>
      </trkpt>
      <trkpt lat="42.110145" lon="-2.674610">
        <ele>1041.5</ele>
        <time>2021-07-02T18:56:02.000Z</time>
      </trkpt>
      <trkpt lat="42.110147" lon="-2.674607">
        <ele>1041.5</ele>
        <time>2021-07-02T18:56:04.000Z</time>
      </trkpt>
      <trkpt lat="42.110147" lon="-2.674607">
        <ele>1041.5</ele>
        <time>2021-07-02T18:56:05.000Z</time>
      </trkpt>
      <trkpt lat="42.110148" lon="-2.674605">
        <ele>1041.4</ele>
        <time>2021-07-02T18:56:27.000Z</time>
      </trkpt>
      <trkpt lat="42.110148" lon="-2.674605">
        <ele>1041.4</ele>
        <time>2021-07-02T18:56:28.000Z</time>
      </trkpt>
      <trkpt lat="42.110147" lon="-2.674600">
        <ele>1041.0</ele>
        <time>2021-07-02T18:57:30.000Z</time>
      </trkpt>
      <trkpt lat="42.110147" lon="-2.674600">
        <ele>1041.0</ele>
        <time>2021-07-02T18:57:31.000Z</time>
      </trkpt>
      <trkpt lat="42.110148" lon="-2.674598">
        <ele>1041.2</ele>
        <time>2021-07-02T18:58:16.000Z</time>
      </trkpt>
      <trkpt lat="42.110158" lon="-2.674545">
        <ele>1040.3</ele>
        <time>2021-07-02T18:58:25.000Z</time>
      </trkpt>
      <trkpt lat="42.110155" lon="-2.674540">
        <ele>1040.6</ele>
        <time>2021-07-02T18:58:26.000Z</time>
      </trkpt>
      <trkpt lat="42.110135" lon="-2.674510">
        <ele>1041.0</ele>
        <time>2021-07-02T18:58:32.000Z</time>
      </trkpt>
      <trkpt lat="42.110133" lon="-2.674505">
        <ele>1040.3</ele>
        <time>2021-07-02T18:58:34.000Z</time>
      </trkpt>
      <trkpt lat="42.110052" lon="-2.674435">
        <ele>1041.2</ele>
        <time>2021-07-02T18:58:43.000Z</time>
      </trkpt>
      <trkpt lat="42.109962" lon="-2.674488">
        <ele>1042.2</ele>
        <time>2021-07-02T18:58:49.000Z</time>
      </trkpt>
      <trkpt lat="42.109957" lon="-2.674490">
        <ele>1041.5</ele>
        <time>2021-07-02T18:58:51.000Z</time>
      </trkpt>
      <trkpt lat="42.109955" lon="-2.674492">
        <ele>1041.9</ele>
        <time>2021-07-02T18:59:03.000Z</time>
      </trkpt>
      <trkpt lat="42.109965" lon="-2.674408">
        <ele>1042.3</ele>
        <time>2021-07-02T18:59:15.000Z</time>
      </trkpt>
      <trkpt lat="42.109963" lon="-2.674410">
        <ele>1042.2</ele>
        <time>2021-07-02T19:01:36.000Z</time>
      </trkpt>
      <trkpt lat="42.109963" lon="-2.674410">
        <ele>1042.2</ele>
        <time>2021-07-02T19:01:37.000Z</time>
      </trkpt>
      <trkpt lat="42.109965" lon="-2.674412">
        <ele>1040.8</ele>
        <time>2021-07-02T19:12:29.000Z</time>
      </trkpt>
      <trkpt lat="42.109958" lon="-2.674430">
        <ele>1040.7</ele>
        <time>2021-07-02T19:12:35.000Z</time>
      </trkpt>
      <trkpt lat="42.109957" lon="-2.674430">
        <ele>1040.7</ele>
        <time>2021-07-02T19:12:40.000Z</time>
      </trkpt>
      <trkpt lat="42.109957" lon="-2.674430">
        <ele>1040.6</ele>
        <time>2021-07-02T19:12:41.000Z</time>
      </trkpt>
      <trkpt lat="42.109955" lon="-2.674428">
        <ele>1041.2</ele>
        <time>2021-07-02T19:12:46.000Z</time>
      </trkpt>
      <trkpt lat="42.109955" lon="-2.674428">
        <ele>1041.2</ele>
        <time>2021-07-02T19:12:47.000Z</time>
      </trkpt>
      <trkpt lat="42.109957" lon="-2.674430">
        <ele>1041.1</ele>
        <time>2021-07-02T19:13:25.000Z</time>
      </trkpt>
      <trkpt lat="42.109957" lon="-2.674432">
        <ele>1041.1</ele>
        <time>2021-07-02T19:13:26.000Z</time>
      </trkpt>
      <trkpt lat="42.109957" lon="-2.674435">
        <ele>1041.0</ele>
        <time>2021-07-02T19:13:39.000Z</time>
      </trkpt>
      <trkpt lat="42.109957" lon="-2.674435">
        <ele>1041.2</ele>
        <time>2021-07-02T19:13:40.000Z</time>
      </trkpt>
      <trkpt lat="42.109958" lon="-2.674437">
        <ele>1041.7</ele>
        <time>2021-07-02T19:14:03.000Z</time>
      </trkpt>
      <trkpt lat="42.109958" lon="-2.674438">
        <ele>1041.5</ele>
        <time>2021-07-02T19:14:04.000Z</time>
      </trkpt>
      <trkpt lat="42.109960" lon="-2.674442">
        <ele>1040.7</ele>
        <time>2021-07-02T19:14:05.000Z</time>
      </trkpt>
      <trkpt lat="42.109880" lon="-2.674498">
        <ele>1041.0</ele>
        <time>2021-07-02T19:14:17.000Z</time>
      </trkpt>
      <trkpt lat="42.109832" lon="-2.674510">
        <ele>1041.0</ele>
        <time>2021-07-02T19:14:24.000Z</time>
      </trkpt>
      <trkpt lat="42.109830" lon="-2.674507">
        <ele>1040.7</ele>
        <time>2021-07-02T19:14:26.000Z</time>
      </trkpt>
      <trkpt lat="42.109830" lon="-2.674507">
        <ele>1040.7</ele>
        <time>2021-07-02T19:14:27.000Z</time>
      </trkpt>
      <trkpt lat="42.109828" lon="-2.674507">
        <ele>1041.6</ele>
        <time>2021-07-02T19:14:30.000Z</time>
      </trkpt>
      <trkpt lat="42.109828" lon="-2.674507">
        <ele>1041.6</ele>
        <time>2021-07-02T19:14:31.000Z</time>
      </trkpt>
      <trkpt lat="42.109830" lon="-2.674508">
        <ele>1041.4</ele>
        <time>2021-07-02T19:14:32.000Z</time>
      </trkpt>
      <trkpt lat="42.109830" lon="-2.674507">
        <ele>1041.2</ele>
        <time>2021-07-02T19:14:33.000Z</time>
      </trkpt>
      <trkpt lat="42.109832" lon="-2.674508">
        <ele>1041.2</ele>
        <time>2021-07-02T19:16:34.000Z</time>
      </trkpt>
      <trkpt lat="42.109832" lon="-2.674508">
        <ele>1041.1</ele>
        <time>2021-07-02T19:16:35.000Z</time>
      </trkpt>
      <trkpt lat="42.109830" lon="-2.674512">
        <ele>1040.7</ele>
        <time>2021-07-02T19:20:51.000Z</time>
      </trkpt>
      <trkpt lat="42.109830" lon="-2.674512">
        <ele>1040.7</ele>
        <time>2021-07-02T19:20:52.000Z</time>
      </trkpt>
      <trkpt lat="42.109828" lon="-2.674517">
        <ele>1040.2</ele>
        <time>2021-07-02T19:22:49.000Z</time>
      </trkpt>
      <trkpt lat="42.109813" lon="-2.674537">
        <ele>1039.8</ele>
        <time>2021-07-02T19:22:54.000Z</time>
      </trkpt>
      <trkpt lat="42.109810" lon="-2.674535">
        <ele>1039.9</ele>
        <time>2021-07-02T19:23:01.000Z</time>
      </trkpt>
      <trkpt lat="42.109810" lon="-2.674535">
        <ele>1039.7</ele>
        <time>2021-07-02T19:23:02.000Z</time>
      </trkpt>
      <trkpt lat="42.109807" lon="-2.674533">
        <ele>1039.5</ele>
        <time>2021-07-02T19:23:03.000Z</time>
      </trkpt>
      <trkpt lat="42.109805" lon="-2.674532">
        <ele>1039.9</ele>
        <time>2021-07-02T19:23:05.000Z</time>
      </trkpt>
      <trkpt lat="42.109807" lon="-2.674527">
        <ele>1040.1</ele>
        <time>2021-07-02T19:23:06.000Z</time>
      </trkpt>
      <trkpt lat="42.109805" lon="-2.674528">
        <ele>1039.3</ele>
        <time>2021-07-02T19:23:08.000Z</time>
      </trkpt>
      <trkpt lat="42.109805" lon="-2.674532">
        <ele>1039.0</ele>
        <time>2021-07-02T19:23:09.000Z</time>
      </trkpt>
      <trkpt lat="42.109807" lon="-2.674535">
        <ele>1039.6</ele>
        <time>2021-07-02T19:23:12.000Z</time>
      </trkpt>
      <trkpt lat="42.109802" lon="-2.674537">
        <ele>1039.6</ele>
        <time>2021-07-02T19:23:16.000Z</time>
      </trkpt>
      <trkpt lat="42.109702" lon="-2.674570">
        <ele>1039.8</ele>
        <time>2021-07-02T19:23:23.000Z</time>
      </trkpt>
      <trkpt lat="42.109648" lon="-2.674463">
        <ele>1040.9</ele>
        <time>2021-07-02T19:23:28.000Z</time>
      </trkpt>
      <trkpt lat="42.109653" lon="-2.674340">
        <ele>1040.2</ele>
        <time>2021-07-02T19:23:33.000Z</time>
      </trkpt>
      <trkpt lat="42.109675" lon="-2.674202">
        <ele>1041.0</ele>
        <time>2021-07-02T19:23:41.000Z</time>
      </trkpt>
      <trkpt lat="42.109690" lon="-2.674068">
        <ele>1041.0</ele>
        <time>2021-07-02T19:23:46.000Z</time>
      </trkpt>
      <trkpt lat="42.109603" lon="-2.674007">
        <ele>1041.3</ele>
        <time>2021-07-02T19:23:51.000Z</time>
      </trkpt>
      <trkpt lat="42.109497" lon="-2.673963">
        <ele>1041.4</ele>
        <time>2021-07-02T19:23:56.000Z</time>
      </trkpt>
      <trkpt lat="42.109390" lon="-2.673940">
        <ele>1041.6</ele>
        <time>2021-07-02T19:24:01.000Z</time>
      </trkpt>
      <trkpt lat="42.109292" lon="-2.673913">
        <ele>1041.6</ele>
        <time>2021-07-02T19:24:06.000Z</time>
      </trkpt>
      <trkpt lat="42.109205" lon="-2.673873">
        <ele>1042.5</ele>
        <time>2021-07-02T19:24:10.000Z</time>
      </trkpt>
      <trkpt lat="42.109118" lon="-2.673827">
        <ele>1042.5</ele>
        <time>2021-07-02T19:24:14.000Z</time>
      </trkpt>
      <trkpt lat="42.109027" lon="-2.673788">
        <ele>1042.8</ele>
        <time>2021-07-02T19:24:18.000Z</time>
      </trkpt>
      <trkpt lat="42.108943" lon="-2.673742">
        <ele>1043.3</ele>
        <time>2021-07-02T19:24:22.000Z</time>
      </trkpt>
      <trkpt lat="42.108840" lon="-2.673695">
        <ele>1043.4</ele>
        <time>2021-07-02T19:24:27.000Z</time>
      </trkpt>
      <trkpt lat="42.108733" lon="-2.673647">
        <ele>1043.8</ele>
        <time>2021-07-02T19:24:32.000Z</time>
      </trkpt>
      <trkpt lat="42.108627" lon="-2.673603">
        <ele>1044.3</ele>
        <time>2021-07-02T19:24:37.000Z</time>
      </trkpt>
      <trkpt lat="42.108523" lon="-2.673553">
        <ele>1044.8</ele>
        <time>2021-07-02T19:24:42.000Z</time>
      </trkpt>
      <trkpt lat="42.108417" lon="-2.673505">
        <ele>1045.5</ele>
        <time>2021-07-02T19:24:47.000Z</time>
      </trkpt>
      <trkpt lat="42.108328" lon="-2.673468">
        <ele>1045.8</ele>
        <time>2021-07-02T19:24:51.000Z</time>
      </trkpt>
      <trkpt lat="42.108238" lon="-2.673430">
        <ele>1046.2</ele>
        <time>2021-07-02T19:24:55.000Z</time>
      </trkpt>
      <trkpt lat="42.108142" lon="-2.673385">
        <ele>1046.8</ele>
        <time>2021-07-02T19:24:59.000Z</time>
      </trkpt>
      <trkpt lat="42.108038" lon="-2.673345">
        <ele>1046.9</ele>
        <time>2021-07-02T19:25:03.000Z</time>
      </trkpt>
      <trkpt lat="42.107950" lon="-2.673310">
        <ele>1046.8</ele>
        <time>2021-07-02T19:25:07.000Z</time>
      </trkpt>
      <trkpt lat="42.108012" lon="-2.673337">
        <ele>1048.4</ele>
        <time>2021-07-02T19:25:15.000Z</time>
      </trkpt>
      <trkpt lat="42.108012" lon="-2.673342">
        <ele>1047.1</ele>
        <time>2021-07-02T19:25:16.000Z</time>
      </trkpt>
      <trkpt lat="42.108012" lon="-2.673347">
        <ele>1046.6</ele>
        <time>2021-07-02T19:25:19.000Z</time>
      </trkpt>
      <trkpt lat="42.108010" lon="-2.673342">
        <ele>1046.4</ele>
        <time>2021-07-02T19:25:21.000Z</time>
      </trkpt>
      <trkpt lat="42.107922" lon="-2.673293">
        <ele>1046.9</ele>
        <time>2021-07-02T19:25:27.000Z</time>
      </trkpt>
      <trkpt lat="42.107817" lon="-2.673262">
        <ele>1047.3</ele>
        <time>2021-07-02T19:25:30.000Z</time>
      </trkpt>
      <trkpt lat="42.107688" lon="-2.673230">
        <ele>1047.5</ele>
        <time>2021-07-02T19:25:33.000Z</time>
      </trkpt>
      <trkpt lat="42.107603" lon="-2.673177">
        <ele>1046.2</ele>
        <time>2021-07-02T19:25:35.000Z</time>
      </trkpt>
      <trkpt lat="42.107520" lon="-2.673103">
        <ele>1046.2</ele>
        <time>2021-07-02T19:25:37.000Z</time>
      </trkpt>
      <trkpt lat="42.107453" lon="-2.673003">
        <ele>1046.1</ele>
        <time>2021-07-02T19:25:39.000Z</time>
      </trkpt>
      <trkpt lat="42.107402" lon="-2.672897">
        <ele>1046.2</ele>
        <time>2021-07-02T19:25:41.000Z</time>
      </trkpt>
      <trkpt lat="42.107353" lon="-2.672793">
        <ele>1045.9</ele>
        <time>2021-07-02T19:25:43.000Z</time>
      </trkpt>
      <trkpt lat="42.107278" lon="-2.672652">
        <ele>1046.1</ele>
        <time>2021-07-02T19:25:46.000Z</time>
      </trkpt>
      <trkpt lat="42.107200" lon="-2.672548">
        <ele>1047.0</ele>
        <time>2021-07-02T19:25:49.000Z</time>
      </trkpt>
      <trkpt lat="42.107118" lon="-2.672457">
        <ele>1047.1</ele>
        <time>2021-07-02T19:25:52.000Z</time>
      </trkpt>
      <trkpt lat="42.107033" lon="-2.672377">
        <ele>1047.9</ele>
        <time>2021-07-02T19:25:55.000Z</time>
      </trkpt>
      <trkpt lat="42.106947" lon="-2.672310">
        <ele>1047.2</ele>
        <time>2021-07-02T19:25:58.000Z</time>
      </trkpt>
      <trkpt lat="42.106863" lon="-2.672242">
        <ele>1048.2</ele>
        <time>2021-07-02T19:26:01.000Z</time>
      </trkpt>
      <trkpt lat="42.106775" lon="-2.672175">
        <ele>1048.3</ele>
        <time>2021-07-02T19:26:04.000Z</time>
      </trkpt>
      <trkpt lat="42.106678" lon="-2.672118">
        <ele>1047.5</ele>
        <time>2021-07-02T19:26:07.000Z</time>
      </trkpt>
      <trkpt lat="42.106578" lon="-2.672070">
        <ele>1048.2</ele>
        <time>2021-07-02T19:26:10.000Z</time>
      </trkpt>
      <trkpt lat="42.106482" lon="-2.672035">
        <ele>1048.9</ele>
        <time>2021-07-02T19:26:13.000Z</time>
      </trkpt>
      <trkpt lat="42.106385" lon="-2.672008">
        <ele>1048.6</ele>
        <time>2021-07-02T19:26:16.000Z</time>
      </trkpt>
      <trkpt lat="42.106268" lon="-2.672005">
        <ele>1049.4</ele>
        <time>2021-07-02T19:26:20.000Z</time>
      </trkpt>
      <trkpt lat="42.106157" lon="-2.672042">
        <ele>1049.4</ele>
        <time>2021-07-02T19:26:24.000Z</time>
      </trkpt>
      <trkpt lat="42.106068" lon="-2.672093">
        <ele>1050.6</ele>
        <time>2021-07-02T19:26:28.000Z</time>
      </trkpt>
      <trkpt lat="42.105970" lon="-2.672145">
        <ele>1051.0</ele>
        <time>2021-07-02T19:26:34.000Z</time>
      </trkpt>
      <trkpt lat="42.105898" lon="-2.672238">
        <ele>1052.1</ele>
        <time>2021-07-02T19:26:39.000Z</time>
      </trkpt>
      <trkpt lat="42.105818" lon="-2.672303">
        <ele>1052.8</ele>
        <time>2021-07-02T19:26:44.000Z</time>
      </trkpt>
      <trkpt lat="42.105720" lon="-2.672382">
        <ele>1053.7</ele>
        <time>2021-07-02T19:26:49.000Z</time>
      </trkpt>
      <trkpt lat="42.105637" lon="-2.672465">
        <ele>1054.1</ele>
        <time>2021-07-02T19:26:53.000Z</time>
      </trkpt>
      <trkpt lat="42.105555" lon="-2.672555">
        <ele>1054.9</ele>
        <time>2021-07-02T19:26:57.000Z</time>
      </trkpt>
      <trkpt lat="42.105467" lon="-2.672625">
        <ele>1055.1</ele>
        <time>2021-07-02T19:27:01.000Z</time>
      </trkpt>
      <trkpt lat="42.105355" lon="-2.672668">
        <ele>1055.2</ele>
        <time>2021-07-02T19:27:05.000Z</time>
      </trkpt>
      <trkpt lat="42.105247" lon="-2.672688">
        <ele>1055.4</ele>
        <time>2021-07-02T19:27:09.000Z</time>
      </trkpt>
      <trkpt lat="42.105157" lon="-2.672700">
        <ele>1055.8</ele>
        <time>2021-07-02T19:27:12.000Z</time>
      </trkpt>
      <trkpt lat="42.105040" lon="-2.672712">
        <ele>1055.4</ele>
        <time>2021-07-02T19:27:16.000Z</time>
      </trkpt>
      <trkpt lat="42.104950" lon="-2.672713">
        <ele>1055.6</ele>
        <time>2021-07-02T19:27:19.000Z</time>
      </trkpt>
      <trkpt lat="42.104833" lon="-2.672713">
        <ele>1055.6</ele>
        <time>2021-07-02T19:27:23.000Z</time>
      </trkpt>
      <trkpt lat="42.104715" lon="-2.672708">
        <ele>1055.5</ele>
        <time>2021-07-02T19:27:27.000Z</time>
      </trkpt>
      <trkpt lat="42.104625" lon="-2.672693">
        <ele>1056.1</ele>
        <time>2021-07-02T19:27:30.000Z</time>
      </trkpt>
      <trkpt lat="42.104512" lon="-2.672675">
        <ele>1056.2</ele>
        <time>2021-07-02T19:27:34.000Z</time>
      </trkpt>
      <trkpt lat="42.104405" lon="-2.672647">
        <ele>1057.0</ele>
        <time>2021-07-02T19:27:38.000Z</time>
      </trkpt>
      <trkpt lat="42.104298" lon="-2.672623">
        <ele>1057.7</ele>
        <time>2021-07-02T19:27:42.000Z</time>
      </trkpt>
      <trkpt lat="42.104200" lon="-2.672610">
        <ele>1058.0</ele>
        <time>2021-07-02T19:27:46.000Z</time>
      </trkpt>
      <trkpt lat="42.104098" lon="-2.672608">
        <ele>1058.3</ele>
        <time>2021-07-02T19:27:50.000Z</time>
      </trkpt>
      <trkpt lat="42.104007" lon="-2.672612">
        <ele>1058.5</ele>
        <time>2021-07-02T19:27:54.000Z</time>
      </trkpt>
      <trkpt lat="42.103913" lon="-2.672623">
        <ele>1059.0</ele>
        <time>2021-07-02T19:27:58.000Z</time>
      </trkpt>
      <trkpt lat="42.103822" lon="-2.672622">
        <ele>1059.3</ele>
        <time>2021-07-02T19:28:02.000Z</time>
      </trkpt>
      <trkpt lat="42.103717" lon="-2.672627">
        <ele>1059.8</ele>
        <time>2021-07-02T19:28:07.000Z</time>
      </trkpt>
      <trkpt lat="42.103615" lon="-2.672620">
        <ele>1060.4</ele>
        <time>2021-07-02T19:28:12.000Z</time>
      </trkpt>
      <trkpt lat="42.103523" lon="-2.672608">
        <ele>1060.7</ele>
        <time>2021-07-02T19:28:17.000Z</time>
      </trkpt>
      <trkpt lat="42.103425" lon="-2.672585">
        <ele>1061.2</ele>
        <time>2021-07-02T19:28:22.000Z</time>
      </trkpt>
      <trkpt lat="42.103328" lon="-2.672560">
        <ele>1062.4</ele>
        <time>2021-07-02T19:28:27.000Z</time>
      </trkpt>
      <trkpt lat="42.103227" lon="-2.672532">
        <ele>1063.0</ele>
        <time>2021-07-02T19:28:32.000Z</time>
      </trkpt>
      <trkpt lat="42.103118" lon="-2.672502">
        <ele>1063.4</ele>
        <time>2021-07-02T19:28:37.000Z</time>
      </trkpt>
      <trkpt lat="42.103008" lon="-2.672477">
        <ele>1064.3</ele>
        <time>2021-07-02T19:28:42.000Z</time>
      </trkpt>
      <trkpt lat="42.102917" lon="-2.672465">
        <ele>1064.1</ele>
        <time>2021-07-02T19:28:46.000Z</time>
      </trkpt>
      <trkpt lat="42.102823" lon="-2.672458">
        <ele>1064.6</ele>
        <time>2021-07-02T19:28:50.000Z</time>
      </trkpt>
      <trkpt lat="42.102725" lon="-2.672468">
        <ele>1064.6</ele>
        <time>2021-07-02T19:28:54.000Z</time>
      </trkpt>
      <trkpt lat="42.102627" lon="-2.672492">
        <ele>1065.1</ele>
        <time>2021-07-02T19:28:58.000Z</time>
      </trkpt>
      <trkpt lat="42.102537" lon="-2.672538">
        <ele>1065.3</ele>
        <time>2021-07-02T19:29:02.000Z</time>
      </trkpt>
      <trkpt lat="42.102448" lon="-2.672595">
        <ele>1065.8</ele>
        <time>2021-07-02T19:29:06.000Z</time>
      </trkpt>
      <trkpt lat="42.102357" lon="-2.672658">
        <ele>1066.0</ele>
        <time>2021-07-02T19:29:10.000Z</time>
      </trkpt>
      <trkpt lat="42.102267" lon="-2.672710">
        <ele>1066.2</ele>
        <time>2021-07-02T19:29:14.000Z</time>
      </trkpt>
      <trkpt lat="42.102168" lon="-2.672755">
        <ele>1066.4</ele>
        <time>2021-07-02T19:29:18.000Z</time>
      </trkpt>
      <trkpt lat="42.102070" lon="-2.672802">
        <ele>1066.6</ele>
        <time>2021-07-02T19:29:22.000Z</time>
      </trkpt>
      <trkpt lat="42.101972" lon="-2.672843">
        <ele>1066.8</ele>
        <time>2021-07-02T19:29:26.000Z</time>
      </trkpt>
      <trkpt lat="42.101868" lon="-2.672877">
        <ele>1067.1</ele>
        <time>2021-07-02T19:29:30.000Z</time>
      </trkpt>
      <trkpt lat="42.101763" lon="-2.672893">
        <ele>1067.3</ele>
        <time>2021-07-02T19:29:34.000Z</time>
      </trkpt>
      <trkpt lat="42.101665" lon="-2.672890">
        <ele>1066.8</ele>
        <time>2021-07-02T19:29:38.000Z</time>
      </trkpt>
      <trkpt lat="42.101565" lon="-2.672873">
        <ele>1067.1</ele>
        <time>2021-07-02T19:29:42.000Z</time>
      </trkpt>
      <trkpt lat="42.101445" lon="-2.672865">
        <ele>1066.6</ele>
        <time>2021-07-02T19:29:46.000Z</time>
      </trkpt>
      <trkpt lat="42.101347" lon="-2.672880">
        <ele>1066.1</ele>
        <time>2021-07-02T19:29:49.000Z</time>
      </trkpt>
      <trkpt lat="42.101228" lon="-2.672925">
        <ele>1066.1</ele>
        <time>2021-07-02T19:29:52.000Z</time>
      </trkpt>
      <trkpt lat="42.101142" lon="-2.672978">
        <ele>1066.0</ele>
        <time>2021-07-02T19:29:54.000Z</time>
      </trkpt>
      <trkpt lat="42.101048" lon="-2.673033">
        <ele>1066.0</ele>
        <time>2021-07-02T19:29:56.000Z</time>
      </trkpt>
      <trkpt lat="42.100948" lon="-2.673092">
        <ele>1065.8</ele>
        <time>2021-07-02T19:29:58.000Z</time>
      </trkpt>
      <trkpt lat="42.100848" lon="-2.673145">
        <ele>1064.6</ele>
        <time>2021-07-02T19:30:00.000Z</time>
      </trkpt>
      <trkpt lat="42.100750" lon="-2.673187">
        <ele>1063.7</ele>
        <time>2021-07-02T19:30:02.000Z</time>
      </trkpt>
      <trkpt lat="42.100652" lon="-2.673210">
        <ele>1064.8</ele>
        <time>2021-07-02T19:30:04.000Z</time>
      </trkpt>
      <trkpt lat="42.100560" lon="-2.673213">
        <ele>1064.8</ele>
        <time>2021-07-02T19:30:06.000Z</time>
      </trkpt>
      <trkpt lat="42.100430" lon="-2.673173">
        <ele>1064.6</ele>
        <time>2021-07-02T19:30:09.000Z</time>
      </trkpt>
      <trkpt lat="42.100318" lon="-2.673102">
        <ele>1064.6</ele>
        <time>2021-07-02T19:30:12.000Z</time>
      </trkpt>
      <trkpt lat="42.100217" lon="-2.673038">
        <ele>1065.4</ele>
        <time>2021-07-02T19:30:15.000Z</time>
      </trkpt>
      <trkpt lat="42.100118" lon="-2.672990">
        <ele>1066.1</ele>
        <time>2021-07-02T19:30:18.000Z</time>
      </trkpt>
      <trkpt lat="42.100023" lon="-2.672970">
        <ele>1066.1</ele>
        <time>2021-07-02T19:30:21.000Z</time>
      </trkpt>
      <trkpt lat="42.099928" lon="-2.672970">
        <ele>1066.3</ele>
        <time>2021-07-02T19:30:24.000Z</time>
      </trkpt>
      <trkpt lat="42.099827" lon="-2.672965">
        <ele>1066.5</ele>
        <time>2021-07-02T19:30:27.000Z</time>
      </trkpt>
      <trkpt lat="42.099727" lon="-2.672962">
        <ele>1066.8</ele>
        <time>2021-07-02T19:30:30.000Z</time>
      </trkpt>
      <trkpt lat="42.099632" lon="-2.672952">
        <ele>1066.8</ele>
        <time>2021-07-02T19:30:33.000Z</time>
      </trkpt>
      <trkpt lat="42.099533" lon="-2.672952">
        <ele>1065.9</ele>
        <time>2021-07-02T19:30:36.000Z</time>
      </trkpt>
      <trkpt lat="42.099430" lon="-2.672953">
        <ele>1066.6</ele>
        <time>2021-07-02T19:30:39.000Z</time>
      </trkpt>
      <trkpt lat="42.099325" lon="-2.672970">
        <ele>1066.8</ele>
        <time>2021-07-02T19:30:42.000Z</time>
      </trkpt>
      <trkpt lat="42.099220" lon="-2.672967">
        <ele>1067.5</ele>
        <time>2021-07-02T19:30:45.000Z</time>
      </trkpt>
      <trkpt lat="42.099123" lon="-2.672972">
        <ele>1067.3</ele>
        <time>2021-07-02T19:30:48.000Z</time>
      </trkpt>
      <trkpt lat="42.099023" lon="-2.672980">
        <ele>1067.6</ele>
        <time>2021-07-02T19:30:51.000Z</time>
      </trkpt>
      <trkpt lat="42.098922" lon="-2.672985">
        <ele>1067.6</ele>
        <time>2021-07-02T19:30:54.000Z</time>
      </trkpt>
      <trkpt lat="42.098820" lon="-2.672998">
        <ele>1067.3</ele>
        <time>2021-07-02T19:30:57.000Z</time>
      </trkpt>
      <trkpt lat="42.098722" lon="-2.673022">
        <ele>1067.4</ele>
        <time>2021-07-02T19:31:00.000Z</time>
      </trkpt>
      <trkpt lat="42.098625" lon="-2.673052">
        <ele>1068.4</ele>
        <time>2021-07-02T19:31:03.000Z</time>
      </trkpt>
      <trkpt lat="42.098528" lon="-2.673087">
        <ele>1068.4</ele>
        <time>2021-07-02T19:31:06.000Z</time>
      </trkpt>
      <trkpt lat="42.098433" lon="-2.673135">
        <ele>1069.2</ele>
        <time>2021-07-02T19:31:09.000Z</time>
      </trkpt>
      <trkpt lat="42.098342" lon="-2.673187">
        <ele>1068.6</ele>
        <time>2021-07-02T19:31:12.000Z</time>
      </trkpt>
      <trkpt lat="42.098243" lon="-2.673242">
        <ele>1068.6</ele>
        <time>2021-07-02T19:31:15.000Z</time>
      </trkpt>
      <trkpt lat="42.098157" lon="-2.673310">
        <ele>1069.3</ele>
        <time>2021-07-02T19:31:18.000Z</time>
      </trkpt>
      <trkpt lat="42.098080" lon="-2.673392">
        <ele>1069.2</ele>
        <time>2021-07-02T19:31:21.000Z</time>
      </trkpt>
      <trkpt lat="42.097987" lon="-2.673485">
        <ele>1070.5</ele>
        <time>2021-07-02T19:31:25.000Z</time>
      </trkpt>
      <trkpt lat="42.097898" lon="-2.673588">
        <ele>1069.8</ele>
        <time>2021-07-02T19:31:29.000Z</time>
      </trkpt>
      <trkpt lat="42.097833" lon="-2.673677">
        <ele>1070.1</ele>
        <time>2021-07-02T19:31:32.000Z</time>
      </trkpt>
      <trkpt lat="42.097763" lon="-2.673757">
        <ele>1071.1</ele>
        <time>2021-07-02T19:31:35.000Z</time>
      </trkpt>
      <trkpt lat="42.097687" lon="-2.673867">
        <ele>1070.9</ele>
        <time>2021-07-02T19:31:39.000Z</time>
      </trkpt>
      <trkpt lat="42.097608" lon="-2.673958">
        <ele>1071.1</ele>
        <time>2021-07-02T19:31:43.000Z</time>
      </trkpt>
      <trkpt lat="42.097527" lon="-2.674048">
        <ele>1072.2</ele>
        <time>2021-07-02T19:31:47.000Z</time>
      </trkpt>
      <trkpt lat="42.097460" lon="-2.674160">
        <ele>1072.8</ele>
        <time>2021-07-02T19:31:51.000Z</time>
      </trkpt>
      <trkpt lat="42.097398" lon="-2.674262">
        <ele>1073.6</ele>
        <time>2021-07-02T19:31:55.000Z</time>
      </trkpt>
      <trkpt lat="42.097345" lon="-2.674373">
        <ele>1074.2</ele>
        <time>2021-07-02T19:31:59.000Z</time>
      </trkpt>
      <trkpt lat="42.097260" lon="-2.674477">
        <ele>1075.0</ele>
        <time>2021-07-02T19:32:03.000Z</time>
      </trkpt>
      <trkpt lat="42.097180" lon="-2.674553">
        <ele>1075.7</ele>
        <time>2021-07-02T19:32:06.000Z</time>
      </trkpt>
      <trkpt lat="42.097095" lon="-2.674623">
        <ele>1075.4</ele>
        <time>2021-07-02T19:32:09.000Z</time>
      </trkpt>
      <trkpt lat="42.097008" lon="-2.674682">
        <ele>1075.4</ele>
        <time>2021-07-02T19:32:12.000Z</time>
      </trkpt>
      <trkpt lat="42.096923" lon="-2.674735">
        <ele>1075.5</ele>
        <time>2021-07-02T19:32:15.000Z</time>
      </trkpt>
      <trkpt lat="42.096837" lon="-2.674778">
        <ele>1075.6</ele>
        <time>2021-07-02T19:32:18.000Z</time>
      </trkpt>
      <trkpt lat="42.096725" lon="-2.674843">
        <ele>1076.8</ele>
        <time>2021-07-02T19:32:22.000Z</time>
      </trkpt>
      <trkpt lat="42.096613" lon="-2.674895">
        <ele>1076.6</ele>
        <time>2021-07-02T19:32:26.000Z</time>
      </trkpt>
      <trkpt lat="42.096507" lon="-2.674957">
        <ele>1076.7</ele>
        <time>2021-07-02T19:32:30.000Z</time>
      </trkpt>
      <trkpt lat="42.096423" lon="-2.675003">
        <ele>1077.5</ele>
        <time>2021-07-02T19:32:33.000Z</time>
      </trkpt>
      <trkpt lat="42.096323" lon="-2.675063">
        <ele>1077.6</ele>
        <time>2021-07-02T19:32:37.000Z</time>
      </trkpt>
      <trkpt lat="42.096225" lon="-2.675127">
        <ele>1078.1</ele>
        <time>2021-07-02T19:32:41.000Z</time>
      </trkpt>
      <trkpt lat="42.096120" lon="-2.675188">
        <ele>1079.2</ele>
        <time>2021-07-02T19:32:45.000Z</time>
      </trkpt>
      <trkpt lat="42.096017" lon="-2.675247">
        <ele>1079.4</ele>
        <time>2021-07-02T19:32:49.000Z</time>
      </trkpt>
      <trkpt lat="42.095915" lon="-2.675313">
        <ele>1079.9</ele>
        <time>2021-07-02T19:32:53.000Z</time>
      </trkpt>
      <trkpt lat="42.095808" lon="-2.675385">
        <ele>1079.6</ele>
        <time>2021-07-02T19:32:57.000Z</time>
      </trkpt>
      <trkpt lat="42.095727" lon="-2.675437">
        <ele>1079.9</ele>
        <time>2021-07-02T19:33:00.000Z</time>
      </trkpt>
      <trkpt lat="42.095640" lon="-2.675477">
        <ele>1079.8</ele>
        <time>2021-07-02T19:33:03.000Z</time>
      </trkpt>
      <trkpt lat="42.095525" lon="-2.675522">
        <ele>1080.6</ele>
        <time>2021-07-02T19:33:07.000Z</time>
      </trkpt>
      <trkpt lat="42.095410" lon="-2.675560">
        <ele>1080.8</ele>
        <time>2021-07-02T19:33:11.000Z</time>
      </trkpt>
      <trkpt lat="42.095297" lon="-2.675600">
        <ele>1081.2</ele>
        <time>2021-07-02T19:33:15.000Z</time>
      </trkpt>
      <trkpt lat="42.095197" lon="-2.675643">
        <ele>1080.1</ele>
        <time>2021-07-02T19:33:19.000Z</time>
      </trkpt>
      <trkpt lat="42.095085" lon="-2.675687">
        <ele>1084.0</ele>
        <time>2021-07-02T19:33:23.000Z</time>
      </trkpt>
      <trkpt lat="42.094967" lon="-2.675712">
        <ele>1081.1</ele>
        <time>2021-07-02T19:33:27.000Z</time>
      </trkpt>
      <trkpt lat="42.094850" lon="-2.675722">
        <ele>1080.9</ele>
        <time>2021-07-02T19:33:31.000Z</time>
      </trkpt>
      <trkpt lat="42.094748" lon="-2.675720">
        <ele>1082.1</ele>
        <time>2021-07-02T19:33:34.000Z</time>
      </trkpt>
      <trkpt lat="42.094648" lon="-2.675728">
        <ele>1081.1</ele>
        <time>2021-07-02T19:33:37.000Z</time>
      </trkpt>
      <trkpt lat="42.094547" lon="-2.675735">
        <ele>1081.8</ele>
        <time>2021-07-02T19:33:40.000Z</time>
      </trkpt>
      <trkpt lat="42.094448" lon="-2.675757">
        <ele>1081.6</ele>
        <time>2021-07-02T19:33:43.000Z</time>
      </trkpt>
      <trkpt lat="42.094350" lon="-2.675777">
        <ele>1082.4</ele>
        <time>2021-07-02T19:33:46.000Z</time>
      </trkpt>
      <trkpt lat="42.094250" lon="-2.675780">
        <ele>1082.8</ele>
        <time>2021-07-02T19:33:49.000Z</time>
      </trkpt>
      <trkpt lat="42.094155" lon="-2.675772">
        <ele>1081.1</ele>
        <time>2021-07-02T19:33:52.000Z</time>
      </trkpt>
      <trkpt lat="42.094037" lon="-2.675757">
        <ele>1086.0</ele>
        <time>2021-07-02T19:33:56.000Z</time>
      </trkpt>
      <trkpt lat="42.093920" lon="-2.675713">
        <ele>1083.9</ele>
        <time>2021-07-02T19:34:00.000Z</time>
      </trkpt>
      <trkpt lat="42.093812" lon="-2.675663">
        <ele>1083.9</ele>
        <time>2021-07-02T19:34:04.000Z</time>
      </trkpt>
      <trkpt lat="42.093707" lon="-2.675625">
        <ele>1085.1</ele>
        <time>2021-07-02T19:34:08.000Z</time>
      </trkpt>
      <trkpt lat="42.093598" lon="-2.675585">
        <ele>1085.1</ele>
        <time>2021-07-02T19:34:12.000Z</time>
      </trkpt>
      <trkpt lat="42.093483" lon="-2.675550">
        <ele>1085.7</ele>
        <time>2021-07-02T19:34:16.000Z</time>
      </trkpt>
      <trkpt lat="42.093373" lon="-2.675520">
        <ele>1086.4</ele>
        <time>2021-07-02T19:34:20.000Z</time>
      </trkpt>
      <trkpt lat="42.093267" lon="-2.675500">
        <ele>1087.0</ele>
        <time>2021-07-02T19:34:24.000Z</time>
      </trkpt>
      <trkpt lat="42.093163" lon="-2.675492">
        <ele>1087.6</ele>
        <time>2021-07-02T19:34:28.000Z</time>
      </trkpt>
      <trkpt lat="42.093053" lon="-2.675518">
        <ele>1088.0</ele>
        <time>2021-07-02T19:34:32.000Z</time>
      </trkpt>
      <trkpt lat="42.092965" lon="-2.675555">
        <ele>1088.3</ele>
        <time>2021-07-02T19:34:35.000Z</time>
      </trkpt>
      <trkpt lat="42.092875" lon="-2.675610">
        <ele>1088.5</ele>
        <time>2021-07-02T19:34:38.000Z</time>
      </trkpt>
      <trkpt lat="42.092783" lon="-2.675675">
        <ele>1087.6</ele>
        <time>2021-07-02T19:34:41.000Z</time>
      </trkpt>
      <trkpt lat="42.092675" lon="-2.675737">
        <ele>1088.1</ele>
        <time>2021-07-02T19:34:44.000Z</time>
      </trkpt>
      <trkpt lat="42.092553" lon="-2.675792">
        <ele>1087.2</ele>
        <time>2021-07-02T19:34:47.000Z</time>
      </trkpt>
      <trkpt lat="42.092453" lon="-2.675782">
        <ele>1086.7</ele>
        <time>2021-07-02T19:34:49.000Z</time>
      </trkpt>
      <trkpt lat="42.092358" lon="-2.675737">
        <ele>1086.9</ele>
        <time>2021-07-02T19:34:51.000Z</time>
      </trkpt>
      <trkpt lat="42.092265" lon="-2.675677">
        <ele>1087.2</ele>
        <time>2021-07-02T19:34:53.000Z</time>
      </trkpt>
      <trkpt lat="42.092167" lon="-2.675625">
        <ele>1086.4</ele>
        <time>2021-07-02T19:34:55.000Z</time>
      </trkpt>
      <trkpt lat="42.092075" lon="-2.675567">
        <ele>1085.3</ele>
        <time>2021-07-02T19:34:57.000Z</time>
      </trkpt>
      <trkpt lat="42.091988" lon="-2.675498">
        <ele>1086.6</ele>
        <time>2021-07-02T19:34:59.000Z</time>
      </trkpt>
      <trkpt lat="42.091908" lon="-2.675437">
        <ele>1086.3</ele>
        <time>2021-07-02T19:35:01.000Z</time>
      </trkpt>
      <trkpt lat="42.091827" lon="-2.675378">
        <ele>1085.8</ele>
        <time>2021-07-02T19:35:03.000Z</time>
      </trkpt>
      <trkpt lat="42.091738" lon="-2.675338">
        <ele>1086.8</ele>
        <time>2021-07-02T19:35:05.000Z</time>
      </trkpt>
      <trkpt lat="42.091647" lon="-2.675325">
        <ele>1087.0</ele>
        <time>2021-07-02T19:35:07.000Z</time>
      </trkpt>
      <trkpt lat="42.091525" lon="-2.675360">
        <ele>1087.2</ele>
        <time>2021-07-02T19:35:10.000Z</time>
      </trkpt>
      <trkpt lat="42.091417" lon="-2.675433">
        <ele>1087.1</ele>
        <time>2021-07-02T19:35:13.000Z</time>
      </trkpt>
      <trkpt lat="42.091315" lon="-2.675498">
        <ele>1087.6</ele>
        <time>2021-07-02T19:35:16.000Z</time>
      </trkpt>
      <trkpt lat="42.091208" lon="-2.675548">
        <ele>1088.3</ele>
        <time>2021-07-02T19:35:19.000Z</time>
      </trkpt>
      <trkpt lat="42.091107" lon="-2.675583">
        <ele>1087.6</ele>
        <time>2021-07-02T19:35:22.000Z</time>
      </trkpt>
      <trkpt lat="42.091007" lon="-2.675603">
        <ele>1088.8</ele>
        <time>2021-07-02T19:35:25.000Z</time>
      </trkpt>
      <trkpt lat="42.090903" lon="-2.675603">
        <ele>1088.5</ele>
        <time>2021-07-02T19:35:28.000Z</time>
      </trkpt>
      <trkpt lat="42.090795" lon="-2.675598">
        <ele>1088.8</ele>
        <time>2021-07-02T19:35:31.000Z</time>
      </trkpt>
      <trkpt lat="42.090695" lon="-2.675580">
        <ele>1089.5</ele>
        <time>2021-07-02T19:35:34.000Z</time>
      </trkpt>
      <trkpt lat="42.090597" lon="-2.675553">
        <ele>1089.2</ele>
        <time>2021-07-02T19:35:37.000Z</time>
      </trkpt>
      <trkpt lat="42.090502" lon="-2.675502">
        <ele>1089.9</ele>
        <time>2021-07-02T19:35:40.000Z</time>
      </trkpt>
      <trkpt lat="42.090413" lon="-2.675432">
        <ele>1089.3</ele>
        <time>2021-07-02T19:35:43.000Z</time>
      </trkpt>
      <trkpt lat="42.090335" lon="-2.675365">
        <ele>1089.9</ele>
        <time>2021-07-02T19:35:46.000Z</time>
      </trkpt>
      <trkpt lat="42.090235" lon="-2.675298">
        <ele>1090.3</ele>
        <time>2021-07-02T19:35:50.000Z</time>
      </trkpt>
      <trkpt lat="42.090142" lon="-2.675270">
        <ele>1091.6</ele>
        <time>2021-07-02T19:35:54.000Z</time>
      </trkpt>
      <trkpt lat="42.090052" lon="-2.675278">
        <ele>1092.1</ele>
        <time>2021-07-02T19:35:58.000Z</time>
      </trkpt>
      <trkpt lat="42.089960" lon="-2.675300">
        <ele>1093.1</ele>
        <time>2021-07-02T19:36:02.000Z</time>
      </trkpt>
      <trkpt lat="42.089880" lon="-2.675360">
        <ele>1093.9</ele>
        <time>2021-07-02T19:36:06.000Z</time>
      </trkpt>
      <trkpt lat="42.089782" lon="-2.675433">
        <ele>1094.4</ele>
        <time>2021-07-02T19:36:11.000Z</time>
      </trkpt>
      <trkpt lat="42.089700" lon="-2.675497">
        <ele>1094.4</ele>
        <time>2021-07-02T19:36:15.000Z</time>
      </trkpt>
      <trkpt lat="42.089613" lon="-2.675550">
        <ele>1095.3</ele>
        <time>2021-07-02T19:36:19.000Z</time>
      </trkpt>
      <trkpt lat="42.089517" lon="-2.675585">
        <ele>1096.0</ele>
        <time>2021-07-02T19:36:23.000Z</time>
      </trkpt>
      <trkpt lat="42.089427" lon="-2.675595">
        <ele>1095.7</ele>
        <time>2021-07-02T19:36:26.000Z</time>
      </trkpt>
      <trkpt lat="42.089315" lon="-2.675605">
        <ele>1094.7</ele>
        <time>2021-07-02T19:36:29.000Z</time>
      </trkpt>
      <trkpt lat="42.089183" lon="-2.675607">
        <ele>1094.6</ele>
        <time>2021-07-02T19:36:32.000Z</time>
      </trkpt>
      <trkpt lat="42.089083" lon="-2.675612">
        <ele>1094.5</ele>
        <time>2021-07-02T19:36:34.000Z</time>
      </trkpt>
      <trkpt lat="42.088980" lon="-2.675623">
        <ele>1093.7</ele>
        <time>2021-07-02T19:36:36.000Z</time>
      </trkpt>
      <trkpt lat="42.088875" lon="-2.675633">
        <ele>1094.4</ele>
        <time>2021-07-02T19:36:38.000Z</time>
      </trkpt>
      <trkpt lat="42.088775" lon="-2.675645">
        <ele>1092.8</ele>
        <time>2021-07-02T19:36:40.000Z</time>
      </trkpt>
      <trkpt lat="42.088682" lon="-2.675657">
        <ele>1094.0</ele>
        <time>2021-07-02T19:36:42.000Z</time>
      </trkpt>
      <trkpt lat="42.088560" lon="-2.675667">
        <ele>1094.0</ele>
        <time>2021-07-02T19:36:45.000Z</time>
      </trkpt>
      <trkpt lat="42.088452" lon="-2.675673">
        <ele>1095.3</ele>
        <time>2021-07-02T19:36:48.000Z</time>
      </trkpt>
      <trkpt lat="42.088348" lon="-2.675692">
        <ele>1095.0</ele>
        <time>2021-07-02T19:36:51.000Z</time>
      </trkpt>
      <trkpt lat="42.088248" lon="-2.675708">
        <ele>1095.2</ele>
        <time>2021-07-02T19:36:54.000Z</time>
      </trkpt>
      <trkpt lat="42.088153" lon="-2.675718">
        <ele>1095.9</ele>
        <time>2021-07-02T19:36:57.000Z</time>
      </trkpt>
      <trkpt lat="42.088063" lon="-2.675718">
        <ele>1095.9</ele>
        <time>2021-07-02T19:37:00.000Z</time>
      </trkpt>
      <trkpt lat="42.087967" lon="-2.675723">
        <ele>1095.6</ele>
        <time>2021-07-02T19:37:03.000Z</time>
      </trkpt>
      <trkpt lat="42.087875" lon="-2.675742">
        <ele>1096.0</ele>
        <time>2021-07-02T19:37:06.000Z</time>
      </trkpt>
      <trkpt lat="42.087785" lon="-2.675767">
        <ele>1097.0</ele>
        <time>2021-07-02T19:37:09.000Z</time>
      </trkpt>
      <trkpt lat="42.087695" lon="-2.675788">
        <ele>1096.7</ele>
        <time>2021-07-02T19:37:12.000Z</time>
      </trkpt>
      <trkpt lat="42.087605" lon="-2.675802">
        <ele>1096.9</ele>
        <time>2021-07-02T19:37:15.000Z</time>
      </trkpt>
      <trkpt lat="42.087487" lon="-2.675807">
        <ele>1097.5</ele>
        <time>2021-07-02T19:37:19.000Z</time>
      </trkpt>
      <trkpt lat="42.087393" lon="-2.675795">
        <ele>1098.0</ele>
        <time>2021-07-02T19:37:22.000Z</time>
      </trkpt>
      <trkpt lat="42.087300" lon="-2.675778">
        <ele>1097.7</ele>
        <time>2021-07-02T19:37:25.000Z</time>
      </trkpt>
      <trkpt lat="42.087205" lon="-2.675775">
        <ele>1097.6</ele>
        <time>2021-07-02T19:37:28.000Z</time>
      </trkpt>
      <trkpt lat="42.087107" lon="-2.675775">
        <ele>1098.2</ele>
        <time>2021-07-02T19:37:31.000Z</time>
      </trkpt>
      <trkpt lat="42.087008" lon="-2.675790">
        <ele>1098.1</ele>
        <time>2021-07-02T19:37:34.000Z</time>
      </trkpt>
      <trkpt lat="42.086912" lon="-2.675817">
        <ele>1098.8</ele>
        <time>2021-07-02T19:37:37.000Z</time>
      </trkpt>
      <trkpt lat="42.086818" lon="-2.675843">
        <ele>1098.5</ele>
        <time>2021-07-02T19:37:40.000Z</time>
      </trkpt>
      <trkpt lat="42.086723" lon="-2.675875">
        <ele>1099.2</ele>
        <time>2021-07-02T19:37:43.000Z</time>
      </trkpt>
      <trkpt lat="42.086633" lon="-2.675910">
        <ele>1099.6</ele>
        <time>2021-07-02T19:37:46.000Z</time>
      </trkpt>
      <trkpt lat="42.086513" lon="-2.675942">
        <ele>1099.6</ele>
        <time>2021-07-02T19:37:50.000Z</time>
      </trkpt>
      <trkpt lat="42.086418" lon="-2.675958">
        <ele>1099.9</ele>
        <time>2021-07-02T19:37:53.000Z</time>
      </trkpt>
      <trkpt lat="42.086298" lon="-2.675953">
        <ele>1100.2</ele>
        <time>2021-07-02T19:37:57.000Z</time>
      </trkpt>
      <trkpt lat="42.086207" lon="-2.675943">
        <ele>1100.5</ele>
        <time>2021-07-02T19:38:00.000Z</time>
      </trkpt>
      <trkpt lat="42.086112" lon="-2.675942">
        <ele>1100.2</ele>
        <time>2021-07-02T19:38:03.000Z</time>
      </trkpt>
      <trkpt lat="42.086003" lon="-2.675932">
        <ele>1100.4</ele>
        <time>2021-07-02T19:38:06.000Z</time>
      </trkpt>
      <trkpt lat="42.085893" lon="-2.675908">
        <ele>1100.6</ele>
        <time>2021-07-02T19:38:09.000Z</time>
      </trkpt>
      <trkpt lat="42.085780" lon="-2.675883">
        <ele>1101.0</ele>
        <time>2021-07-02T19:38:12.000Z</time>
      </trkpt>
      <trkpt lat="42.085667" lon="-2.675862">
        <ele>1101.4</ele>
        <time>2021-07-02T19:38:15.000Z</time>
      </trkpt>
      <trkpt lat="42.085558" lon="-2.675838">
        <ele>1101.5</ele>
        <time>2021-07-02T19:38:18.000Z</time>
      </trkpt>
      <trkpt lat="42.085448" lon="-2.675817">
        <ele>1101.9</ele>
        <time>2021-07-02T19:38:21.000Z</time>
      </trkpt>
      <trkpt lat="42.085337" lon="-2.675808">
        <ele>1102.1</ele>
        <time>2021-07-02T19:38:24.000Z</time>
      </trkpt>
      <trkpt lat="42.085232" lon="-2.675820">
        <ele>1102.6</ele>
        <time>2021-07-02T19:38:27.000Z</time>
      </trkpt>
      <trkpt lat="42.085138" lon="-2.675853">
        <ele>1102.3</ele>
        <time>2021-07-02T19:38:30.000Z</time>
      </trkpt>
      <trkpt lat="42.085050" lon="-2.675898">
        <ele>1102.9</ele>
        <time>2021-07-02T19:38:33.000Z</time>
      </trkpt>
      <trkpt lat="42.084960" lon="-2.675933">
        <ele>1103.5</ele>
        <time>2021-07-02T19:38:36.000Z</time>
      </trkpt>
      <trkpt lat="42.084868" lon="-2.675962">
        <ele>1104.1</ele>
        <time>2021-07-02T19:38:39.000Z</time>
      </trkpt>
      <trkpt lat="42.084778" lon="-2.676007">
        <ele>1103.9</ele>
        <time>2021-07-02T19:38:42.000Z</time>
      </trkpt>
      <trkpt lat="42.084693" lon="-2.676055">
        <ele>1103.6</ele>
        <time>2021-07-02T19:38:45.000Z</time>
      </trkpt>
      <trkpt lat="42.084605" lon="-2.676097">
        <ele>1104.2</ele>
        <time>2021-07-02T19:38:48.000Z</time>
      </trkpt>
      <trkpt lat="42.084498" lon="-2.676153">
        <ele>1105.1</ele>
        <time>2021-07-02T19:38:52.000Z</time>
      </trkpt>
      <trkpt lat="42.084403" lon="-2.676198">
        <ele>1105.9</ele>
        <time>2021-07-02T19:38:56.000Z</time>
      </trkpt>
      <trkpt lat="42.084310" lon="-2.676255">
        <ele>1106.1</ele>
        <time>2021-07-02T19:39:00.000Z</time>
      </trkpt>
      <trkpt lat="42.084200" lon="-2.676308">
        <ele>1106.9</ele>
        <time>2021-07-02T19:39:04.000Z</time>
      </trkpt>
      <trkpt lat="42.084120" lon="-2.676365">
        <ele>1106.3</ele>
        <time>2021-07-02T19:39:07.000Z</time>
      </trkpt>
      <trkpt lat="42.084012" lon="-2.676417">
        <ele>1106.6</ele>
        <time>2021-07-02T19:39:11.000Z</time>
      </trkpt>
      <trkpt lat="42.083918" lon="-2.676457">
        <ele>1106.7</ele>
        <time>2021-07-02T19:39:14.000Z</time>
      </trkpt>
      <trkpt lat="42.083830" lon="-2.676507">
        <ele>1106.7</ele>
        <time>2021-07-02T19:39:17.000Z</time>
      </trkpt>
      <trkpt lat="42.083742" lon="-2.676553">
        <ele>1106.6</ele>
        <time>2021-07-02T19:39:20.000Z</time>
      </trkpt>
      <trkpt lat="42.083638" lon="-2.676600">
        <ele>1107.1</ele>
        <time>2021-07-02T19:39:23.000Z</time>
      </trkpt>
      <trkpt lat="42.083553" lon="-2.676645">
        <ele>1107.1</ele>
        <time>2021-07-02T19:39:26.000Z</time>
      </trkpt>
      <trkpt lat="42.083453" lon="-2.676707">
        <ele>1107.5</ele>
        <time>2021-07-02T19:39:30.000Z</time>
      </trkpt>
      <trkpt lat="42.083375" lon="-2.676807">
        <ele>1108.1</ele>
        <time>2021-07-02T19:39:35.000Z</time>
      </trkpt>
      <trkpt lat="42.083300" lon="-2.676913">
        <ele>1109.1</ele>
        <time>2021-07-02T19:39:40.000Z</time>
      </trkpt>
      <trkpt lat="42.083215" lon="-2.676997">
        <ele>1109.9</ele>
        <time>2021-07-02T19:39:45.000Z</time>
      </trkpt>
      <trkpt lat="42.083133" lon="-2.677055">
        <ele>1110.5</ele>
        <time>2021-07-02T19:39:49.000Z</time>
      </trkpt>
      <trkpt lat="42.083048" lon="-2.677100">
        <ele>1111.1</ele>
        <time>2021-07-02T19:39:53.000Z</time>
      </trkpt>
      <trkpt lat="42.082960" lon="-2.677133">
        <ele>1112.2</ele>
        <time>2021-07-02T19:39:57.000Z</time>
      </trkpt>
      <trkpt lat="42.082872" lon="-2.677170">
        <ele>1112.7</ele>
        <time>2021-07-02T19:40:01.000Z</time>
      </trkpt>
      <trkpt lat="42.082770" lon="-2.677223">
        <ele>1113.6</ele>
        <time>2021-07-02T19:40:06.000Z</time>
      </trkpt>
      <trkpt lat="42.082665" lon="-2.677233">
        <ele>1115.0</ele>
        <time>2021-07-02T19:40:11.000Z</time>
      </trkpt>
      <trkpt lat="42.082570" lon="-2.677238">
        <ele>1115.2</ele>
        <time>2021-07-02T19:40:16.000Z</time>
      </trkpt>
      <trkpt lat="42.082470" lon="-2.677225">
        <ele>1116.5</ele>
        <time>2021-07-02T19:40:21.000Z</time>
      </trkpt>
      <trkpt lat="42.082365" lon="-2.677220">
        <ele>1117.0</ele>
        <time>2021-07-02T19:40:26.000Z</time>
      </trkpt>
      <trkpt lat="42.082255" lon="-2.677212">
        <ele>1117.3</ele>
        <time>2021-07-02T19:40:31.000Z</time>
      </trkpt>
      <trkpt lat="42.082162" lon="-2.677200">
        <ele>1118.0</ele>
        <time>2021-07-02T19:40:35.000Z</time>
      </trkpt>
      <trkpt lat="42.082063" lon="-2.677185">
        <ele>1118.3</ele>
        <time>2021-07-02T19:40:39.000Z</time>
      </trkpt>
      <trkpt lat="42.081968" lon="-2.677172">
        <ele>1118.4</ele>
        <time>2021-07-02T19:40:43.000Z</time>
      </trkpt>
      <trkpt lat="42.081875" lon="-2.677158">
        <ele>1118.8</ele>
        <time>2021-07-02T19:40:47.000Z</time>
      </trkpt>
      <trkpt lat="42.081775" lon="-2.677140">
        <ele>1119.2</ele>
        <time>2021-07-02T19:40:51.000Z</time>
      </trkpt>
      <trkpt lat="42.081675" lon="-2.677123">
        <ele>1119.8</ele>
        <time>2021-07-02T19:40:55.000Z</time>
      </trkpt>
      <trkpt lat="42.081575" lon="-2.677115">
        <ele>1120.0</ele>
        <time>2021-07-02T19:40:59.000Z</time>
      </trkpt>
      <trkpt lat="42.081475" lon="-2.677108">
        <ele>1120.0</ele>
        <time>2021-07-02T19:41:03.000Z</time>
      </trkpt>
      <trkpt lat="42.081368" lon="-2.677083">
        <ele>1120.5</ele>
        <time>2021-07-02T19:41:07.000Z</time>
      </trkpt>
      <trkpt lat="42.081260" lon="-2.677077">
        <ele>1120.5</ele>
        <time>2021-07-02T19:41:11.000Z</time>
      </trkpt>
      <trkpt lat="42.081142" lon="-2.677098">
        <ele>1120.8</ele>
        <time>2021-07-02T19:41:15.000Z</time>
      </trkpt>
      <trkpt lat="42.081032" lon="-2.677137">
        <ele>1120.0</ele>
        <time>2021-07-02T19:41:18.000Z</time>
      </trkpt>
      <trkpt lat="42.080905" lon="-2.677207">
        <ele>1118.9</ele>
        <time>2021-07-02T19:41:21.000Z</time>
      </trkpt>
      <trkpt lat="42.080815" lon="-2.677257">
        <ele>1120.0</ele>
        <time>2021-07-02T19:41:23.000Z</time>
      </trkpt>
      <trkpt lat="42.080723" lon="-2.677307">
        <ele>1119.8</ele>
        <time>2021-07-02T19:41:25.000Z</time>
      </trkpt>
      <trkpt lat="42.080632" lon="-2.677345">
        <ele>1119.4</ele>
        <time>2021-07-02T19:41:27.000Z</time>
      </trkpt>
      <trkpt lat="42.080538" lon="-2.677358">
        <ele>1118.1</ele>
        <time>2021-07-02T19:41:29.000Z</time>
      </trkpt>
      <trkpt lat="42.080438" lon="-2.677355">
        <ele>1119.2</ele>
        <time>2021-07-02T19:41:31.000Z</time>
      </trkpt>
      <trkpt lat="42.080343" lon="-2.677345">
        <ele>1118.7</ele>
        <time>2021-07-02T19:41:33.000Z</time>
      </trkpt>
      <trkpt lat="42.080212" lon="-2.677325">
        <ele>1118.9</ele>
        <time>2021-07-02T19:41:36.000Z</time>
      </trkpt>
      <trkpt lat="42.080098" lon="-2.677282">
        <ele>1117.8</ele>
        <time>2021-07-02T19:41:39.000Z</time>
      </trkpt>
      <trkpt lat="42.080003" lon="-2.677237">
        <ele>1118.3</ele>
        <time>2021-07-02T19:41:42.000Z</time>
      </trkpt>
      <trkpt lat="42.079905" lon="-2.677208">
        <ele>1118.6</ele>
        <time>2021-07-02T19:41:45.000Z</time>
      </trkpt>
      <trkpt lat="42.079813" lon="-2.677178">
        <ele>1119.6</ele>
        <time>2021-07-02T19:41:48.000Z</time>
      </trkpt>
      <trkpt lat="42.079697" lon="-2.677155">
        <ele>1120.1</ele>
        <time>2021-07-02T19:41:52.000Z</time>
      </trkpt>
      <trkpt lat="42.079582" lon="-2.677145">
        <ele>1119.9</ele>
        <time>2021-07-02T19:41:56.000Z</time>
      </trkpt>
      <trkpt lat="42.079475" lon="-2.677150">
        <ele>1120.8</ele>
        <time>2021-07-02T19:42:00.000Z</time>
      </trkpt>
      <trkpt lat="42.079370" lon="-2.677167">
        <ele>1121.0</ele>
        <time>2021-07-02T19:42:04.000Z</time>
      </trkpt>
      <trkpt lat="42.079272" lon="-2.677192">
        <ele>1121.7</ele>
        <time>2021-07-02T19:42:08.000Z</time>
      </trkpt>
      <trkpt lat="42.079177" lon="-2.677233">
        <ele>1122.4</ele>
        <time>2021-07-02T19:42:12.000Z</time>
      </trkpt>
      <trkpt lat="42.079088" lon="-2.677293">
        <ele>1122.8</ele>
        <time>2021-07-02T19:42:16.000Z</time>
      </trkpt>
      <trkpt lat="42.078997" lon="-2.677340">
        <ele>1123.6</ele>
        <time>2021-07-02T19:42:20.000Z</time>
      </trkpt>
      <trkpt lat="42.078897" lon="-2.677378">
        <ele>1123.8</ele>
        <time>2021-07-02T19:42:24.000Z</time>
      </trkpt>
      <trkpt lat="42.078783" lon="-2.677408">
        <ele>1123.9</ele>
        <time>2021-07-02T19:42:28.000Z</time>
      </trkpt>
      <trkpt lat="42.078668" lon="-2.677430">
        <ele>1124.1</ele>
        <time>2021-07-02T19:42:32.000Z</time>
      </trkpt>
      <trkpt lat="42.078553" lon="-2.677460">
        <ele>1124.0</ele>
        <time>2021-07-02T19:42:36.000Z</time>
      </trkpt>
      <trkpt lat="42.078440" lon="-2.677503">
        <ele>1123.8</ele>
        <time>2021-07-02T19:42:40.000Z</time>
      </trkpt>
      <trkpt lat="42.078355" lon="-2.677547">
        <ele>1124.7</ele>
        <time>2021-07-02T19:42:43.000Z</time>
      </trkpt>
      <trkpt lat="42.078265" lon="-2.677600">
        <ele>1123.9</ele>
        <time>2021-07-02T19:42:46.000Z</time>
      </trkpt>
      <trkpt lat="42.078167" lon="-2.677645">
        <ele>1124.2</ele>
        <time>2021-07-02T19:42:49.000Z</time>
      </trkpt>
      <trkpt lat="42.078062" lon="-2.677663">
        <ele>1124.2</ele>
        <time>2021-07-02T19:42:52.000Z</time>
      </trkpt>
      <trkpt lat="42.077952" lon="-2.677652">
        <ele>1123.4</ele>
        <time>2021-07-02T19:42:55.000Z</time>
      </trkpt>
      <trkpt lat="42.077848" lon="-2.677628">
        <ele>1125.9</ele>
        <time>2021-07-02T19:42:58.000Z</time>
      </trkpt>
      <trkpt lat="42.077745" lon="-2.677595">
        <ele>1124.4</ele>
        <time>2021-07-02T19:43:01.000Z</time>
      </trkpt>
      <trkpt lat="42.077638" lon="-2.677565">
        <ele>1124.3</ele>
        <time>2021-07-02T19:43:04.000Z</time>
      </trkpt>
      <trkpt lat="42.077528" lon="-2.677537">
        <ele>1124.4</ele>
        <time>2021-07-02T19:43:07.000Z</time>
      </trkpt>
      <trkpt lat="42.077415" lon="-2.677505">
        <ele>1124.2</ele>
        <time>2021-07-02T19:43:10.000Z</time>
      </trkpt>
      <trkpt lat="42.077308" lon="-2.677487">
        <ele>1124.2</ele>
        <time>2021-07-02T19:43:13.000Z</time>
      </trkpt>
      <trkpt lat="42.077205" lon="-2.677482">
        <ele>1123.9</ele>
        <time>2021-07-02T19:43:16.000Z</time>
      </trkpt>
      <trkpt lat="42.077107" lon="-2.677495">
        <ele>1123.7</ele>
        <time>2021-07-02T19:43:19.000Z</time>
      </trkpt>
      <trkpt lat="42.077015" lon="-2.677527">
        <ele>1125.6</ele>
        <time>2021-07-02T19:43:22.000Z</time>
      </trkpt>
      <trkpt lat="42.076928" lon="-2.677567">
        <ele>1124.4</ele>
        <time>2021-07-02T19:43:25.000Z</time>
      </trkpt>
      <trkpt lat="42.076822" lon="-2.677622">
        <ele>1125.7</ele>
        <time>2021-07-02T19:43:29.000Z</time>
      </trkpt>
      <trkpt lat="42.076723" lon="-2.677677">
        <ele>1125.8</ele>
        <time>2021-07-02T19:43:33.000Z</time>
      </trkpt>
      <trkpt lat="42.076618" lon="-2.677735">
        <ele>1126.4</ele>
        <time>2021-07-02T19:43:37.000Z</time>
      </trkpt>
      <trkpt lat="42.076535" lon="-2.677783">
        <ele>1126.3</ele>
        <time>2021-07-02T19:43:40.000Z</time>
      </trkpt>
      <trkpt lat="42.076450" lon="-2.677830">
        <ele>1126.9</ele>
        <time>2021-07-02T19:43:43.000Z</time>
      </trkpt>
      <trkpt lat="42.076360" lon="-2.677877">
        <ele>1127.0</ele>
        <time>2021-07-02T19:43:46.000Z</time>
      </trkpt>
      <trkpt lat="42.076268" lon="-2.677928">
        <ele>1127.2</ele>
        <time>2021-07-02T19:43:49.000Z</time>
      </trkpt>
      <trkpt lat="42.076180" lon="-2.677982">
        <ele>1127.3</ele>
        <time>2021-07-02T19:43:52.000Z</time>
      </trkpt>
      <trkpt lat="42.076088" lon="-2.678030">
        <ele>1126.7</ele>
        <time>2021-07-02T19:43:55.000Z</time>
      </trkpt>
      <trkpt lat="42.076000" lon="-2.678075">
        <ele>1127.2</ele>
        <time>2021-07-02T19:43:58.000Z</time>
      </trkpt>
      <trkpt lat="42.075890" lon="-2.678130">
        <ele>1127.9</ele>
        <time>2021-07-02T19:44:02.000Z</time>
      </trkpt>
      <trkpt lat="42.075785" lon="-2.678193">
        <ele>1127.8</ele>
        <time>2021-07-02T19:44:06.000Z</time>
      </trkpt>
      <trkpt lat="42.075677" lon="-2.678250">
        <ele>1128.5</ele>
        <time>2021-07-02T19:44:10.000Z</time>
      </trkpt>
      <trkpt lat="42.075592" lon="-2.678298">
        <ele>1129.3</ele>
        <time>2021-07-02T19:44:13.000Z</time>
      </trkpt>
      <trkpt lat="42.075507" lon="-2.678342">
        <ele>1129.8</ele>
        <time>2021-07-02T19:44:16.000Z</time>
      </trkpt>
      <trkpt lat="42.075397" lon="-2.678398">
        <ele>1130.6</ele>
        <time>2021-07-02T19:44:20.000Z</time>
      </trkpt>
      <trkpt lat="42.075295" lon="-2.678460">
        <ele>1130.8</ele>
        <time>2021-07-02T19:44:24.000Z</time>
      </trkpt>
      <trkpt lat="42.075190" lon="-2.678532">
        <ele>1131.5</ele>
        <time>2021-07-02T19:44:28.000Z</time>
      </trkpt>
      <trkpt lat="42.075112" lon="-2.678595">
        <ele>1130.9</ele>
        <time>2021-07-02T19:44:31.000Z</time>
      </trkpt>
      <trkpt lat="42.075033" lon="-2.678665">
        <ele>1131.5</ele>
        <time>2021-07-02T19:44:34.000Z</time>
      </trkpt>
      <trkpt lat="42.074955" lon="-2.678730">
        <ele>1131.7</ele>
        <time>2021-07-02T19:44:37.000Z</time>
      </trkpt>
      <trkpt lat="42.074875" lon="-2.678792">
        <ele>1132.9</ele>
        <time>2021-07-02T19:44:40.000Z</time>
      </trkpt>
      <trkpt lat="42.074798" lon="-2.678862">
        <ele>1132.2</ele>
        <time>2021-07-02T19:44:43.000Z</time>
      </trkpt>
      <trkpt lat="42.074718" lon="-2.678925">
        <ele>1132.1</ele>
        <time>2021-07-02T19:44:46.000Z</time>
      </trkpt>
      <trkpt lat="42.074642" lon="-2.678995">
        <ele>1132.5</ele>
        <time>2021-07-02T19:44:49.000Z</time>
      </trkpt>
      <trkpt lat="42.074565" lon="-2.679062">
        <ele>1132.6</ele>
        <time>2021-07-02T19:44:52.000Z</time>
      </trkpt>
      <trkpt lat="42.074488" lon="-2.679128">
        <ele>1132.9</ele>
        <time>2021-07-02T19:44:55.000Z</time>
      </trkpt>
      <trkpt lat="42.074390" lon="-2.679210">
        <ele>1133.2</ele>
        <time>2021-07-02T19:44:59.000Z</time>
      </trkpt>
      <trkpt lat="42.074292" lon="-2.679293">
        <ele>1134.0</ele>
        <time>2021-07-02T19:45:03.000Z</time>
      </trkpt>
      <trkpt lat="42.074197" lon="-2.679383">
        <ele>1133.6</ele>
        <time>2021-07-02T19:45:07.000Z</time>
      </trkpt>
      <trkpt lat="42.074103" lon="-2.679468">
        <ele>1134.5</ele>
        <time>2021-07-02T19:45:11.000Z</time>
      </trkpt>
      <trkpt lat="42.074008" lon="-2.679548">
        <ele>1134.9</ele>
        <time>2021-07-02T19:45:15.000Z</time>
      </trkpt>
      <trkpt lat="42.073915" lon="-2.679630">
        <ele>1135.1</ele>
        <time>2021-07-02T19:45:19.000Z</time>
      </trkpt>
      <trkpt lat="42.073818" lon="-2.679717">
        <ele>1135.0</ele>
        <time>2021-07-02T19:45:23.000Z</time>
      </trkpt>
      <trkpt lat="42.073740" lon="-2.679782">
        <ele>1135.9</ele>
        <time>2021-07-02T19:45:26.000Z</time>
      </trkpt>
      <trkpt lat="42.073642" lon="-2.679858">
        <ele>1136.3</ele>
        <time>2021-07-02T19:45:30.000Z</time>
      </trkpt>
      <trkpt lat="42.073540" lon="-2.679922">
        <ele>1136.6</ele>
        <time>2021-07-02T19:45:34.000Z</time>
      </trkpt>
      <trkpt lat="42.073432" lon="-2.679960">
        <ele>1136.8</ele>
        <time>2021-07-02T19:45:38.000Z</time>
      </trkpt>
      <trkpt lat="42.073318" lon="-2.680002">
        <ele>1137.2</ele>
        <time>2021-07-02T19:45:42.000Z</time>
      </trkpt>
      <trkpt lat="42.073203" lon="-2.680048">
        <ele>1136.9</ele>
        <time>2021-07-02T19:45:46.000Z</time>
      </trkpt>
      <trkpt lat="42.073113" lon="-2.680083">
        <ele>1137.4</ele>
        <time>2021-07-02T19:45:49.000Z</time>
      </trkpt>
      <trkpt lat="42.073025" lon="-2.680117">
        <ele>1138.1</ele>
        <time>2021-07-02T19:45:52.000Z</time>
      </trkpt>
      <trkpt lat="42.072910" lon="-2.680155">
        <ele>1137.5</ele>
        <time>2021-07-02T19:45:56.000Z</time>
      </trkpt>
      <trkpt lat="42.072793" lon="-2.680192">
        <ele>1138.9</ele>
        <time>2021-07-02T19:46:00.000Z</time>
      </trkpt>
      <trkpt lat="42.072703" lon="-2.680220">
        <ele>1137.9</ele>
        <time>2021-07-02T19:46:03.000Z</time>
      </trkpt>
      <trkpt lat="42.072593" lon="-2.680262">
        <ele>1138.2</ele>
        <time>2021-07-02T19:46:07.000Z</time>
      </trkpt>
      <trkpt lat="42.072500" lon="-2.680325">
        <ele>1138.5</ele>
        <time>2021-07-02T19:46:11.000Z</time>
      </trkpt>
      <trkpt lat="42.072412" lon="-2.680393">
        <ele>1138.7</ele>
        <time>2021-07-02T19:46:15.000Z</time>
      </trkpt>
      <trkpt lat="42.072328" lon="-2.680465">
        <ele>1139.3</ele>
        <time>2021-07-02T19:46:19.000Z</time>
      </trkpt>
      <trkpt lat="42.072242" lon="-2.680545">
        <ele>1139.8</ele>
        <time>2021-07-02T19:46:23.000Z</time>
      </trkpt>
      <trkpt lat="42.072155" lon="-2.680628">
        <ele>1139.6</ele>
        <time>2021-07-02T19:46:27.000Z</time>
      </trkpt>
      <trkpt lat="42.072068" lon="-2.680718">
        <ele>1140.0</ele>
        <time>2021-07-02T19:46:31.000Z</time>
      </trkpt>
      <trkpt lat="42.071985" lon="-2.680817">
        <ele>1140.7</ele>
        <time>2021-07-02T19:46:35.000Z</time>
      </trkpt>
      <trkpt lat="42.071905" lon="-2.680912">
        <ele>1141.2</ele>
        <time>2021-07-02T19:46:39.000Z</time>
      </trkpt>
      <trkpt lat="42.071825" lon="-2.681012">
        <ele>1141.2</ele>
        <time>2021-07-02T19:46:43.000Z</time>
      </trkpt>
      <trkpt lat="42.071742" lon="-2.681117">
        <ele>1141.5</ele>
        <time>2021-07-02T19:46:47.000Z</time>
      </trkpt>
      <trkpt lat="42.071657" lon="-2.681220">
        <ele>1142.2</ele>
        <time>2021-07-02T19:46:51.000Z</time>
      </trkpt>
      <trkpt lat="42.071573" lon="-2.681328">
        <ele>1142.4</ele>
        <time>2021-07-02T19:46:55.000Z</time>
      </trkpt>
      <trkpt lat="42.071490" lon="-2.681435">
        <ele>1142.8</ele>
        <time>2021-07-02T19:46:59.000Z</time>
      </trkpt>
      <trkpt lat="42.071410" lon="-2.681547">
        <ele>1142.8</ele>
        <time>2021-07-02T19:47:03.000Z</time>
      </trkpt>
      <trkpt lat="42.071328" lon="-2.681653">
        <ele>1142.9</ele>
        <time>2021-07-02T19:47:07.000Z</time>
      </trkpt>
      <trkpt lat="42.071245" lon="-2.681765">
        <ele>1143.0</ele>
        <time>2021-07-02T19:47:11.000Z</time>
      </trkpt>
      <trkpt lat="42.071160" lon="-2.681868">
        <ele>1143.6</ele>
        <time>2021-07-02T19:47:15.000Z</time>
      </trkpt>
      <trkpt lat="42.071077" lon="-2.681973">
        <ele>1143.8</ele>
        <time>2021-07-02T19:47:19.000Z</time>
      </trkpt>
      <trkpt lat="42.070993" lon="-2.682083">
        <ele>1143.8</ele>
        <time>2021-07-02T19:47:23.000Z</time>
      </trkpt>
      <trkpt lat="42.070928" lon="-2.682170">
        <ele>1143.7</ele>
        <time>2021-07-02T19:47:26.000Z</time>
      </trkpt>
      <trkpt lat="42.070865" lon="-2.682257">
        <ele>1144.0</ele>
        <time>2021-07-02T19:47:29.000Z</time>
      </trkpt>
      <trkpt lat="42.070780" lon="-2.682370">
        <ele>1144.5</ele>
        <time>2021-07-02T19:47:33.000Z</time>
      </trkpt>
      <trkpt lat="42.070695" lon="-2.682480">
        <ele>1144.9</ele>
        <time>2021-07-02T19:47:37.000Z</time>
      </trkpt>
      <trkpt lat="42.070612" lon="-2.682590">
        <ele>1145.0</ele>
        <time>2021-07-02T19:47:41.000Z</time>
      </trkpt>
      <trkpt lat="42.070548" lon="-2.682680">
        <ele>1145.3</ele>
        <time>2021-07-02T19:47:44.000Z</time>
      </trkpt>
      <trkpt lat="42.070487" lon="-2.682772">
        <ele>1145.2</ele>
        <time>2021-07-02T19:47:47.000Z</time>
      </trkpt>
      <trkpt lat="42.070415" lon="-2.682887">
        <ele>1146.3</ele>
        <time>2021-07-02T19:47:51.000Z</time>
      </trkpt>
      <trkpt lat="42.070347" lon="-2.683000">
        <ele>1146.6</ele>
        <time>2021-07-02T19:47:55.000Z</time>
      </trkpt>
      <trkpt lat="42.070280" lon="-2.683117">
        <ele>1147.2</ele>
        <time>2021-07-02T19:47:59.000Z</time>
      </trkpt>
      <trkpt lat="42.070217" lon="-2.683233">
        <ele>1147.7</ele>
        <time>2021-07-02T19:48:03.000Z</time>
      </trkpt>
      <trkpt lat="42.070153" lon="-2.683347">
        <ele>1148.3</ele>
        <time>2021-07-02T19:48:07.000Z</time>
      </trkpt>
      <trkpt lat="42.070088" lon="-2.683465">
        <ele>1148.9</ele>
        <time>2021-07-02T19:48:11.000Z</time>
      </trkpt>
      <trkpt lat="42.070025" lon="-2.683588">
        <ele>1148.2</ele>
        <time>2021-07-02T19:48:15.000Z</time>
      </trkpt>
      <trkpt lat="42.069960" lon="-2.683703">
        <ele>1149.0</ele>
        <time>2021-07-02T19:48:19.000Z</time>
      </trkpt>
      <trkpt lat="42.069888" lon="-2.683813">
        <ele>1150.2</ele>
        <time>2021-07-02T19:48:23.000Z</time>
      </trkpt>
      <trkpt lat="42.069802" lon="-2.683903">
        <ele>1149.3</ele>
        <time>2021-07-02T19:48:27.000Z</time>
      </trkpt>
      <trkpt lat="42.069710" lon="-2.683977">
        <ele>1149.3</ele>
        <time>2021-07-02T19:48:31.000Z</time>
      </trkpt>
      <trkpt lat="42.069600" lon="-2.684042">
        <ele>1149.5</ele>
        <time>2021-07-02T19:48:35.000Z</time>
      </trkpt>
      <trkpt lat="42.069515" lon="-2.684085">
        <ele>1148.9</ele>
        <time>2021-07-02T19:48:38.000Z</time>
      </trkpt>
      <trkpt lat="42.069413" lon="-2.684135">
        <ele>1150.0</ele>
        <time>2021-07-02T19:48:42.000Z</time>
      </trkpt>
      <trkpt lat="42.069377" lon="-2.684153">
        <ele>1150.2</ele>
        <time>2021-07-02T19:48:46.000Z</time>
      </trkpt>
      <trkpt lat="42.069375" lon="-2.684153">
        <ele>1149.7</ele>
        <time>2021-07-02T19:49:33.000Z</time>
      </trkpt>
      <trkpt lat="42.069375" lon="-2.684153">
        <ele>1149.7</ele>
        <time>2021-07-02T19:49:34.000Z</time>
      </trkpt>
      <trkpt lat="42.069377" lon="-2.684153">
        <ele>1148.5</ele>
        <time>2021-07-02T19:49:40.000Z</time>
      </trkpt>
      <trkpt lat="42.069375" lon="-2.684155">
        <ele>1149.9</ele>
        <time>2021-07-02T19:49:42.000Z</time>
      </trkpt>
      <trkpt lat="42.069373" lon="-2.684158">
        <ele>1150.4</ele>
        <time>2021-07-02T19:50:51.000Z</time>
      </trkpt>
      <trkpt lat="42.069438" lon="-2.684102">
        <ele>1149.1</ele>
        <time>2021-07-02T19:51:04.000Z</time>
      </trkpt>
      <trkpt lat="42.069440" lon="-2.684103">
        <ele>1149.2</ele>
        <time>2021-07-02T19:51:28.000Z</time>
      </trkpt>
      <trkpt lat="42.069440" lon="-2.684103">
        <ele>1149.1</ele>
        <time>2021-07-02T19:51:29.000Z</time>
      </trkpt>
      <trkpt lat="42.069442" lon="-2.684103">
        <ele>1149.2</ele>
        <time>2021-07-02T19:52:20.000Z</time>
      </trkpt>
      <trkpt lat="42.069442" lon="-2.684103">
        <ele>1149.2</ele>
        <time>2021-07-02T19:52:21.000Z</time>
      </trkpt>
      <trkpt lat="42.069443" lon="-2.684107">
        <ele>1148.7</ele>
        <time>2021-07-02T19:53:26.000Z</time>
      </trkpt>
      <trkpt lat="42.069443" lon="-2.684107">
        <ele>1148.7</ele>
        <time>2021-07-02T19:53:27.000Z</time>
      </trkpt>
      <trkpt lat="42.069442" lon="-2.684107">
        <ele>1148.7</ele>
        <time>2021-07-02T19:53:47.000Z</time>
      </trkpt>
      <trkpt lat="42.069442" lon="-2.684107">
        <ele>1148.8</ele>
        <time>2021-07-02T19:53:48.000Z</time>
      </trkpt>
      <trkpt lat="42.069443" lon="-2.684107">
        <ele>1148.7</ele>
        <time>2021-07-02T19:53:56.000Z</time>
      </trkpt>
      <trkpt lat="42.069443" lon="-2.684107">
        <ele>1148.7</ele>
        <time>2021-07-02T19:53:57.000Z</time>
      </trkpt>
      <trkpt lat="42.069442" lon="-2.684107">
        <ele>1148.7</ele>
        <time>2021-07-02T19:54:08.000Z</time>
      </trkpt>
      <trkpt lat="42.069442" lon="-2.684108">
        <ele>1148.9</ele>
        <time>2021-07-02T19:54:09.000Z</time>
      </trkpt>
      <trkpt lat="42.069443" lon="-2.684113">
        <ele>1149.1</ele>
        <time>2021-07-02T19:54:12.000Z</time>
      </trkpt>
      <trkpt lat="42.069350" lon="-2.684147">
        <ele>1148.7</ele>
        <time>2021-07-02T19:54:22.000Z</time>
      </trkpt>
      <trkpt lat="42.069248" lon="-2.684178">
        <ele>1149.8</ele>
        <time>2021-07-02T19:54:27.000Z</time>
      </trkpt>
      <trkpt lat="42.069162" lon="-2.684213">
        <ele>1149.0</ele>
        <time>2021-07-02T19:54:31.000Z</time>
      </trkpt>
      <trkpt lat="42.069080" lon="-2.684267">
        <ele>1150.2</ele>
        <time>2021-07-02T19:54:35.000Z</time>
      </trkpt>
      <trkpt lat="42.068998" lon="-2.684332">
        <ele>1150.4</ele>
        <time>2021-07-02T19:54:39.000Z</time>
      </trkpt>
      <trkpt lat="42.068912" lon="-2.684385">
        <ele>1150.8</ele>
        <time>2021-07-02T19:54:43.000Z</time>
      </trkpt>
      <trkpt lat="42.068828" lon="-2.684455">
        <ele>1151.2</ele>
        <time>2021-07-02T19:54:47.000Z</time>
      </trkpt>
      <trkpt lat="42.068743" lon="-2.684513">
        <ele>1151.5</ele>
        <time>2021-07-02T19:54:51.000Z</time>
      </trkpt>
      <trkpt lat="42.068657" lon="-2.684577">
        <ele>1152.2</ele>
        <time>2021-07-02T19:54:55.000Z</time>
      </trkpt>
      <trkpt lat="42.068570" lon="-2.684647">
        <ele>1152.4</ele>
        <time>2021-07-02T19:54:59.000Z</time>
      </trkpt>
      <trkpt lat="42.068485" lon="-2.684713">
        <ele>1152.7</ele>
        <time>2021-07-02T19:55:03.000Z</time>
      </trkpt>
      <trkpt lat="42.068397" lon="-2.684780">
        <ele>1152.7</ele>
        <time>2021-07-02T19:55:07.000Z</time>
      </trkpt>
      <trkpt lat="42.068302" lon="-2.684832">
        <ele>1152.9</ele>
        <time>2021-07-02T19:55:11.000Z</time>
      </trkpt>
      <trkpt lat="42.068207" lon="-2.684888">
        <ele>1152.9</ele>
        <time>2021-07-02T19:55:15.000Z</time>
      </trkpt>
      <trkpt lat="42.068107" lon="-2.684945">
        <ele>1153.6</ele>
        <time>2021-07-02T19:55:20.000Z</time>
      </trkpt>
      <trkpt lat="42.068007" lon="-2.685008">
        <ele>1153.9</ele>
        <time>2021-07-02T19:55:25.000Z</time>
      </trkpt>
      <trkpt lat="42.067910" lon="-2.685065">
        <ele>1154.4</ele>
        <time>2021-07-02T19:55:30.000Z</time>
      </trkpt>
      <trkpt lat="42.067808" lon="-2.685130">
        <ele>1154.7</ele>
        <time>2021-07-02T19:55:35.000Z</time>
      </trkpt>
      <trkpt lat="42.067723" lon="-2.685187">
        <ele>1155.4</ele>
        <time>2021-07-02T19:55:39.000Z</time>
      </trkpt>
      <trkpt lat="42.067630" lon="-2.685235">
        <ele>1154.6</ele>
        <time>2021-07-02T19:55:43.000Z</time>
      </trkpt>
      <trkpt lat="42.067518" lon="-2.685223">
        <ele>1155.0</ele>
        <time>2021-07-02T19:55:47.000Z</time>
      </trkpt>
      <trkpt lat="42.067433" lon="-2.685170">
        <ele>1154.9</ele>
        <time>2021-07-02T19:55:50.000Z</time>
      </trkpt>
      <trkpt lat="42.067347" lon="-2.685077">
        <ele>1155.0</ele>
        <time>2021-07-02T19:55:54.000Z</time>
      </trkpt>
      <trkpt lat="42.067250" lon="-2.685040">
        <ele>1154.7</ele>
        <time>2021-07-02T19:55:58.000Z</time>
      </trkpt>
      <trkpt lat="42.067163" lon="-2.685085">
        <ele>1155.8</ele>
        <time>2021-07-02T19:56:02.000Z</time>
      </trkpt>
      <trkpt lat="42.067063" lon="-2.685143">
        <ele>1155.8</ele>
        <time>2021-07-02T19:56:07.000Z</time>
      </trkpt>
      <trkpt lat="42.066975" lon="-2.685190">
        <ele>1156.3</ele>
        <time>2021-07-02T19:56:11.000Z</time>
      </trkpt>
      <trkpt lat="42.066867" lon="-2.685232">
        <ele>1156.0</ele>
        <time>2021-07-02T19:56:16.000Z</time>
      </trkpt>
      <trkpt lat="42.066760" lon="-2.685270">
        <ele>1156.5</ele>
        <time>2021-07-02T19:56:20.000Z</time>
      </trkpt>
      <trkpt lat="42.066680" lon="-2.685332">
        <ele>1156.6</ele>
        <time>2021-07-02T19:56:24.000Z</time>
      </trkpt>
      <trkpt lat="42.066598" lon="-2.685392">
        <ele>1157.4</ele>
        <time>2021-07-02T19:56:28.000Z</time>
      </trkpt>
      <trkpt lat="42.066515" lon="-2.685450">
        <ele>1157.7</ele>
        <time>2021-07-02T19:56:33.000Z</time>
      </trkpt>
      <trkpt lat="42.066435" lon="-2.685543">
        <ele>1158.7</ele>
        <time>2021-07-02T19:56:39.000Z</time>
      </trkpt>
      <trkpt lat="42.066348" lon="-2.685597">
        <ele>1159.3</ele>
        <time>2021-07-02T19:56:44.000Z</time>
      </trkpt>
      <trkpt lat="42.066268" lon="-2.685665">
        <ele>1160.1</ele>
        <time>2021-07-02T19:56:49.000Z</time>
      </trkpt>
      <trkpt lat="42.066163" lon="-2.685720">
        <ele>1161.4</ele>
        <time>2021-07-02T19:56:54.000Z</time>
      </trkpt>
      <trkpt lat="42.066080" lon="-2.685777">
        <ele>1162.0</ele>
        <time>2021-07-02T19:56:57.000Z</time>
      </trkpt>
      <trkpt lat="42.065988" lon="-2.685882">
        <ele>1162.3</ele>
        <time>2021-07-02T19:57:02.000Z</time>
      </trkpt>
      <trkpt lat="42.065903" lon="-2.685937">
        <ele>1163.1</ele>
        <time>2021-07-02T19:57:06.000Z</time>
      </trkpt>
      <trkpt lat="42.065803" lon="-2.685977">
        <ele>1163.8</ele>
        <time>2021-07-02T19:57:10.000Z</time>
      </trkpt>
      <trkpt lat="42.065703" lon="-2.686013">
        <ele>1164.2</ele>
        <time>2021-07-02T19:57:15.000Z</time>
      </trkpt>
      <trkpt lat="42.065608" lon="-2.686062">
        <ele>1165.1</ele>
        <time>2021-07-02T19:57:20.000Z</time>
      </trkpt>
      <trkpt lat="42.065518" lon="-2.686105">
        <ele>1165.8</ele>
        <time>2021-07-02T19:57:25.000Z</time>
      </trkpt>
      <trkpt lat="42.065432" lon="-2.686147">
        <ele>1166.2</ele>
        <time>2021-07-02T19:57:28.000Z</time>
      </trkpt>
      <trkpt lat="42.065320" lon="-2.686198">
        <ele>1166.9</ele>
        <time>2021-07-02T19:57:32.000Z</time>
      </trkpt>
      <trkpt lat="42.065223" lon="-2.686250">
        <ele>1167.1</ele>
        <time>2021-07-02T19:57:36.000Z</time>
      </trkpt>
      <trkpt lat="42.065142" lon="-2.686322">
        <ele>1167.6</ele>
        <time>2021-07-02T19:57:41.000Z</time>
      </trkpt>
      <trkpt lat="42.065038" lon="-2.686357">
        <ele>1168.8</ele>
        <time>2021-07-02T19:57:46.000Z</time>
      </trkpt>
      <trkpt lat="42.064952" lon="-2.686402">
        <ele>1169.5</ele>
        <time>2021-07-02T19:57:51.000Z</time>
      </trkpt>
      <trkpt lat="42.064850" lon="-2.686430">
        <ele>1170.7</ele>
        <time>2021-07-02T19:57:57.000Z</time>
      </trkpt>
      <trkpt lat="42.064760" lon="-2.686467">
        <ele>1171.5</ele>
        <time>2021-07-02T19:58:03.000Z</time>
      </trkpt>
      <trkpt lat="42.064677" lon="-2.686520">
        <ele>1172.4</ele>
        <time>2021-07-02T19:58:08.000Z</time>
      </trkpt>
      <trkpt lat="42.064588" lon="-2.686592">
        <ele>1173.8</ele>
        <time>2021-07-02T19:58:14.000Z</time>
      </trkpt>
      <trkpt lat="42.064515" lon="-2.686673">
        <ele>1175.0</ele>
        <time>2021-07-02T19:58:21.000Z</time>
      </trkpt>
      <trkpt lat="42.064448" lon="-2.686767">
        <ele>1176.6</ele>
        <time>2021-07-02T19:58:28.000Z</time>
      </trkpt>
      <trkpt lat="42.064380" lon="-2.686847">
        <ele>1177.4</ele>
        <time>2021-07-02T19:58:34.000Z</time>
      </trkpt>
      <trkpt lat="42.064323" lon="-2.686942">
        <ele>1178.2</ele>
        <time>2021-07-02T19:58:40.000Z</time>
      </trkpt>
      <trkpt lat="42.064265" lon="-2.687042">
        <ele>1179.4</ele>
        <time>2021-07-02T19:58:47.000Z</time>
      </trkpt>
      <trkpt lat="42.064183" lon="-2.687112">
        <ele>1180.3</ele>
        <time>2021-07-02T19:58:54.000Z</time>
      </trkpt>
      <trkpt lat="42.064108" lon="-2.687198">
        <ele>1181.1</ele>
        <time>2021-07-02T19:59:01.000Z</time>
      </trkpt>
      <trkpt lat="42.064032" lon="-2.687267">
        <ele>1181.6</ele>
        <time>2021-07-02T19:59:07.000Z</time>
      </trkpt>
      <trkpt lat="42.063943" lon="-2.687335">
        <ele>1182.5</ele>
        <time>2021-07-02T19:59:14.000Z</time>
      </trkpt>
      <trkpt lat="42.063855" lon="-2.687402">
        <ele>1186.1</ele>
        <time>2021-07-02T19:59:21.000Z</time>
      </trkpt>
      <trkpt lat="42.063782" lon="-2.687473">
        <ele>1184.4</ele>
        <time>2021-07-02T19:59:27.000Z</time>
      </trkpt>
      <trkpt lat="42.063698" lon="-2.687522">
        <ele>1185.3</ele>
        <time>2021-07-02T19:59:33.000Z</time>
      </trkpt>
      <trkpt lat="42.063613" lon="-2.687567">
        <ele>1185.9</ele>
        <time>2021-07-02T19:59:39.000Z</time>
      </trkpt>
      <trkpt lat="42.063513" lon="-2.687615">
        <ele>1186.7</ele>
        <time>2021-07-02T19:59:46.000Z</time>
      </trkpt>
      <trkpt lat="42.063423" lon="-2.687625">
        <ele>1187.3</ele>
        <time>2021-07-02T19:59:51.000Z</time>
      </trkpt>
      <trkpt lat="42.063318" lon="-2.687638">
        <ele>1188.4</ele>
        <time>2021-07-02T19:59:58.000Z</time>
      </trkpt>
      <trkpt lat="42.063223" lon="-2.687628">
        <ele>1189.2</ele>
        <time>2021-07-02T20:00:04.000Z</time>
      </trkpt>
      <trkpt lat="42.063127" lon="-2.687622">
        <ele>1190.1</ele>
        <time>2021-07-02T20:00:10.000Z</time>
      </trkpt>
      <trkpt lat="42.063033" lon="-2.687617">
        <ele>1190.7</ele>
        <time>2021-07-02T20:00:16.000Z</time>
      </trkpt>
      <trkpt lat="42.062928" lon="-2.687618">
        <ele>1192.1</ele>
        <time>2021-07-02T20:00:23.000Z</time>
      </trkpt>
      <trkpt lat="42.062833" lon="-2.687613">
        <ele>1192.6</ele>
        <time>2021-07-02T20:00:29.000Z</time>
      </trkpt>
      <trkpt lat="42.062742" lon="-2.687602">
        <ele>1193.2</ele>
        <time>2021-07-02T20:00:35.000Z</time>
      </trkpt>
      <trkpt lat="42.062647" lon="-2.687625">
        <ele>1194.2</ele>
        <time>2021-07-02T20:00:41.000Z</time>
      </trkpt>
      <trkpt lat="42.062553" lon="-2.687640">
        <ele>1194.9</ele>
        <time>2021-07-02T20:00:47.000Z</time>
      </trkpt>
      <trkpt lat="42.062445" lon="-2.687637">
        <ele>1195.5</ele>
        <time>2021-07-02T20:00:55.000Z</time>
      </trkpt>
      <trkpt lat="42.062343" lon="-2.687668">
        <ele>1196.4</ele>
        <time>2021-07-02T20:01:03.000Z</time>
      </trkpt>
      <trkpt lat="42.062247" lon="-2.687687">
        <ele>1197.2</ele>
        <time>2021-07-02T20:01:09.000Z</time>
      </trkpt>
      <trkpt lat="42.062148" lon="-2.687703">
        <ele>1198.2</ele>
        <time>2021-07-02T20:01:15.000Z</time>
      </trkpt>
      <trkpt lat="42.062060" lon="-2.687732">
        <ele>1198.1</ele>
        <time>2021-07-02T20:01:21.000Z</time>
      </trkpt>
      <trkpt lat="42.061957" lon="-2.687753">
        <ele>1200.3</ele>
        <time>2021-07-02T20:01:27.000Z</time>
      </trkpt>
      <trkpt lat="42.061862" lon="-2.687772">
        <ele>1201.4</ele>
        <time>2021-07-02T20:01:34.000Z</time>
      </trkpt>
      <trkpt lat="42.061763" lon="-2.687808">
        <ele>1202.9</ele>
        <time>2021-07-02T20:01:41.000Z</time>
      </trkpt>
      <trkpt lat="42.061672" lon="-2.687828">
        <ele>1203.4</ele>
        <time>2021-07-02T20:01:47.000Z</time>
      </trkpt>
      <trkpt lat="42.061565" lon="-2.687827">
        <ele>1204.9</ele>
        <time>2021-07-02T20:01:54.000Z</time>
      </trkpt>
      <trkpt lat="42.061465" lon="-2.687845">
        <ele>1205.8</ele>
        <time>2021-07-02T20:02:02.000Z</time>
      </trkpt>
      <trkpt lat="42.061375" lon="-2.687872">
        <ele>1207.2</ele>
        <time>2021-07-02T20:02:09.000Z</time>
      </trkpt>
      <trkpt lat="42.061285" lon="-2.687885">
        <ele>1207.8</ele>
        <time>2021-07-02T20:02:15.000Z</time>
      </trkpt>
      <trkpt lat="42.061192" lon="-2.687910">
        <ele>1209.4</ele>
        <time>2021-07-02T20:02:22.000Z</time>
      </trkpt>
      <trkpt lat="42.061100" lon="-2.687912">
        <ele>1210.2</ele>
        <time>2021-07-02T20:02:28.000Z</time>
      </trkpt>
      <trkpt lat="42.061008" lon="-2.687917">
        <ele>1210.9</ele>
        <time>2021-07-02T20:02:34.000Z</time>
      </trkpt>
      <trkpt lat="42.060918" lon="-2.687915">
        <ele>1212.0</ele>
        <time>2021-07-02T20:02:40.000Z</time>
      </trkpt>
      <trkpt lat="42.060820" lon="-2.687910">
        <ele>1212.9</ele>
        <time>2021-07-02T20:02:48.000Z</time>
      </trkpt>
      <trkpt lat="42.060722" lon="-2.687892">
        <ele>1214.3</ele>
        <time>2021-07-02T20:02:54.000Z</time>
      </trkpt>
      <trkpt lat="42.060622" lon="-2.687910">
        <ele>1215.0</ele>
        <time>2021-07-02T20:03:00.000Z</time>
      </trkpt>
      <trkpt lat="42.060527" lon="-2.687940">
        <ele>1215.8</ele>
        <time>2021-07-02T20:03:09.000Z</time>
      </trkpt>
      <trkpt lat="42.060428" lon="-2.688017">
        <ele>1216.3</ele>
        <time>2021-07-02T20:03:15.000Z</time>
      </trkpt>
      <trkpt lat="42.060332" lon="-2.688078">
        <ele>1216.9</ele>
        <time>2021-07-02T20:03:20.000Z</time>
      </trkpt>
      <trkpt lat="42.060245" lon="-2.688140">
        <ele>1217.1</ele>
        <time>2021-07-02T20:03:26.000Z</time>
      </trkpt>
      <trkpt lat="42.060157" lon="-2.688205">
        <ele>1217.7</ele>
        <time>2021-07-02T20:03:32.000Z</time>
      </trkpt>
      <trkpt lat="42.060053" lon="-2.688258">
        <ele>1218.0</ele>
        <time>2021-07-02T20:03:38.000Z</time>
      </trkpt>
      <trkpt lat="42.059958" lon="-2.688298">
        <ele>1218.3</ele>
        <time>2021-07-02T20:03:43.000Z</time>
      </trkpt>
      <trkpt lat="42.059895" lon="-2.688390">
        <ele>1219.1</ele>
        <time>2021-07-02T20:03:50.000Z</time>
      </trkpt>
      <trkpt lat="42.059800" lon="-2.688452">
        <ele>1219.8</ele>
        <time>2021-07-02T20:03:57.000Z</time>
      </trkpt>
      <trkpt lat="42.059700" lon="-2.688507">
        <ele>1220.3</ele>
        <time>2021-07-02T20:04:02.000Z</time>
      </trkpt>
      <trkpt lat="42.059620" lon="-2.688582">
        <ele>1221.0</ele>
        <time>2021-07-02T20:04:08.000Z</time>
      </trkpt>
      <trkpt lat="42.059545" lon="-2.688663">
        <ele>1221.3</ele>
        <time>2021-07-02T20:04:15.000Z</time>
      </trkpt>
      <trkpt lat="42.059472" lon="-2.688742">
        <ele>1221.9</ele>
        <time>2021-07-02T20:04:21.000Z</time>
      </trkpt>
      <trkpt lat="42.059400" lon="-2.688845">
        <ele>1222.6</ele>
        <time>2021-07-02T20:04:27.000Z</time>
      </trkpt>
      <trkpt lat="42.059318" lon="-2.688915">
        <ele>1223.1</ele>
        <time>2021-07-02T20:04:33.000Z</time>
      </trkpt>
      <trkpt lat="42.059243" lon="-2.689003">
        <ele>1224.0</ele>
        <time>2021-07-02T20:04:39.000Z</time>
      </trkpt>
      <trkpt lat="42.059167" lon="-2.689102">
        <ele>1225.2</ele>
        <time>2021-07-02T20:04:46.000Z</time>
      </trkpt>
      <trkpt lat="42.059097" lon="-2.689192">
        <ele>1226.0</ele>
        <time>2021-07-02T20:04:52.000Z</time>
      </trkpt>
      <trkpt lat="42.059017" lon="-2.689265">
        <ele>1226.5</ele>
        <time>2021-07-02T20:04:58.000Z</time>
      </trkpt>
      <trkpt lat="42.058922" lon="-2.689330">
        <ele>1227.6</ele>
        <time>2021-07-02T20:05:05.000Z</time>
      </trkpt>
      <trkpt lat="42.058833" lon="-2.689398">
        <ele>1228.8</ele>
        <time>2021-07-02T20:05:12.000Z</time>
      </trkpt>
      <trkpt lat="42.058745" lon="-2.689432">
        <ele>1229.6</ele>
        <time>2021-07-02T20:05:18.000Z</time>
      </trkpt>
      <trkpt lat="42.058667" lon="-2.689500">
        <ele>1230.9</ele>
        <time>2021-07-02T20:05:25.000Z</time>
      </trkpt>
      <trkpt lat="42.058573" lon="-2.689563">
        <ele>1231.1</ele>
        <time>2021-07-02T20:05:31.000Z</time>
      </trkpt>
      <trkpt lat="42.058485" lon="-2.689632">
        <ele>1232.1</ele>
        <time>2021-07-02T20:05:38.000Z</time>
      </trkpt>
      <trkpt lat="42.058390" lon="-2.689667">
        <ele>1232.9</ele>
        <time>2021-07-02T20:05:44.000Z</time>
      </trkpt>
      <trkpt lat="42.058287" lon="-2.689670">
        <ele>1233.5</ele>
        <time>2021-07-02T20:05:50.000Z</time>
      </trkpt>
      <trkpt lat="42.058195" lon="-2.689668">
        <ele>1233.8</ele>
        <time>2021-07-02T20:05:56.000Z</time>
      </trkpt>
      <trkpt lat="42.058097" lon="-2.689667">
        <ele>1234.7</ele>
        <time>2021-07-02T20:06:02.000Z</time>
      </trkpt>
      <trkpt lat="42.057993" lon="-2.689657">
        <ele>1235.6</ele>
        <time>2021-07-02T20:06:08.000Z</time>
      </trkpt>
      <trkpt lat="42.057895" lon="-2.689663">
        <ele>1236.5</ele>
        <time>2021-07-02T20:06:14.000Z</time>
      </trkpt>
      <trkpt lat="42.057798" lon="-2.689643">
        <ele>1236.8</ele>
        <time>2021-07-02T20:06:20.000Z</time>
      </trkpt>
      <trkpt lat="42.057708" lon="-2.689627">
        <ele>1237.9</ele>
        <time>2021-07-02T20:06:26.000Z</time>
      </trkpt>
      <trkpt lat="42.057610" lon="-2.689618">
        <ele>1239.1</ele>
        <time>2021-07-02T20:06:33.000Z</time>
      </trkpt>
      <trkpt lat="42.057515" lon="-2.689617">
        <ele>1239.5</ele>
        <time>2021-07-02T20:06:39.000Z</time>
      </trkpt>
      <trkpt lat="42.057425" lon="-2.689618">
        <ele>1240.2</ele>
        <time>2021-07-02T20:06:45.000Z</time>
      </trkpt>
      <trkpt lat="42.057320" lon="-2.689602">
        <ele>1241.1</ele>
        <time>2021-07-02T20:06:52.000Z</time>
      </trkpt>
      <trkpt lat="42.057230" lon="-2.689603">
        <ele>1242.1</ele>
        <time>2021-07-02T20:06:58.000Z</time>
      </trkpt>
      <trkpt lat="42.057140" lon="-2.689568">
        <ele>1242.6</ele>
        <time>2021-07-02T20:07:04.000Z</time>
      </trkpt>
      <trkpt lat="42.057055" lon="-2.689520">
        <ele>1243.1</ele>
        <time>2021-07-02T20:07:11.000Z</time>
      </trkpt>
      <trkpt lat="42.056960" lon="-2.689478">
        <ele>1244.4</ele>
        <time>2021-07-02T20:07:17.000Z</time>
      </trkpt>
      <trkpt lat="42.056865" lon="-2.689432">
        <ele>1245.4</ele>
        <time>2021-07-02T20:07:24.000Z</time>
      </trkpt>
      <trkpt lat="42.056773" lon="-2.689410">
        <ele>1246.2</ele>
        <time>2021-07-02T20:07:30.000Z</time>
      </trkpt>
      <trkpt lat="42.056682" lon="-2.689392">
        <ele>1246.8</ele>
        <time>2021-07-02T20:07:36.000Z</time>
      </trkpt>
      <trkpt lat="42.056598" lon="-2.689343">
        <ele>1248.1</ele>
        <time>2021-07-02T20:07:42.000Z</time>
      </trkpt>
      <trkpt lat="42.056500" lon="-2.689312">
        <ele>1249.5</ele>
        <time>2021-07-02T20:07:49.000Z</time>
      </trkpt>
      <trkpt lat="42.056412" lon="-2.689267">
        <ele>1250.1</ele>
        <time>2021-07-02T20:07:55.000Z</time>
      </trkpt>
      <trkpt lat="42.056307" lon="-2.689220">
        <ele>1251.2</ele>
        <time>2021-07-02T20:08:02.000Z</time>
      </trkpt>
      <trkpt lat="42.056212" lon="-2.689172">
        <ele>1251.9</ele>
        <time>2021-07-02T20:08:09.000Z</time>
      </trkpt>
      <trkpt lat="42.056115" lon="-2.689125">
        <ele>1253.0</ele>
        <time>2021-07-02T20:08:15.000Z</time>
      </trkpt>
      <trkpt lat="42.056023" lon="-2.689107">
        <ele>1253.9</ele>
        <time>2021-07-02T20:08:21.000Z</time>
      </trkpt>
      <trkpt lat="42.055938" lon="-2.689037">
        <ele>1254.9</ele>
        <time>2021-07-02T20:08:27.000Z</time>
      </trkpt>
      <trkpt lat="42.055932" lon="-2.688903">
        <ele>1255.7</ele>
        <time>2021-07-02T20:08:35.000Z</time>
      </trkpt>
      <trkpt lat="42.056027" lon="-2.688897">
        <ele>1256.7</ele>
        <time>2021-07-02T20:08:41.000Z</time>
      </trkpt>
      <trkpt lat="42.056133" lon="-2.688912">
        <ele>1256.7</ele>
        <time>2021-07-02T20:08:47.000Z</time>
      </trkpt>
      <trkpt lat="42.056223" lon="-2.688932">
        <ele>1257.3</ele>
        <time>2021-07-02T20:08:52.000Z</time>
      </trkpt>
      <trkpt lat="42.056317" lon="-2.688972">
        <ele>1258.1</ele>
        <time>2021-07-02T20:08:58.000Z</time>
      </trkpt>
      <trkpt lat="42.056410" lon="-2.689002">
        <ele>1258.6</ele>
        <time>2021-07-02T20:09:04.000Z</time>
      </trkpt>
      <trkpt lat="42.056500" lon="-2.689010">
        <ele>1259.1</ele>
        <time>2021-07-02T20:09:10.000Z</time>
      </trkpt>
      <trkpt lat="42.056598" lon="-2.689017">
        <ele>1260.2</ele>
        <time>2021-07-02T20:09:16.000Z</time>
      </trkpt>
      <trkpt lat="42.056703" lon="-2.689025">
        <ele>1261.0</ele>
        <time>2021-07-02T20:09:22.000Z</time>
      </trkpt>
      <trkpt lat="42.056805" lon="-2.689037">
        <ele>1261.7</ele>
        <time>2021-07-02T20:09:28.000Z</time>
      </trkpt>
      <trkpt lat="42.056903" lon="-2.689032">
        <ele>1261.6</ele>
        <time>2021-07-02T20:09:34.000Z</time>
      </trkpt>
      <trkpt lat="42.056980" lon="-2.688955">
        <ele>1262.1</ele>
        <time>2021-07-02T20:09:40.000Z</time>
      </trkpt>
      <trkpt lat="42.056928" lon="-2.688852">
        <ele>1263.1</ele>
        <time>2021-07-02T20:09:47.000Z</time>
      </trkpt>
      <trkpt lat="42.056832" lon="-2.688835">
        <ele>1264.4</ele>
        <time>2021-07-02T20:09:53.000Z</time>
      </trkpt>
      <trkpt lat="42.056742" lon="-2.688800">
        <ele>1264.9</ele>
        <time>2021-07-02T20:09:59.000Z</time>
      </trkpt>
      <trkpt lat="42.056638" lon="-2.688765">
        <ele>1265.8</ele>
        <time>2021-07-02T20:10:05.000Z</time>
      </trkpt>
      <trkpt lat="42.056543" lon="-2.688718">
        <ele>1266.4</ele>
        <time>2021-07-02T20:10:12.000Z</time>
      </trkpt>
      <trkpt lat="42.056458" lon="-2.688678">
        <ele>1266.9</ele>
        <time>2021-07-02T20:10:17.000Z</time>
      </trkpt>
      <trkpt lat="42.056363" lon="-2.688613">
        <ele>1267.0</ele>
        <time>2021-07-02T20:10:22.000Z</time>
      </trkpt>
      <trkpt lat="42.056275" lon="-2.688573">
        <ele>1267.5</ele>
        <time>2021-07-02T20:10:27.000Z</time>
      </trkpt>
      <trkpt lat="42.056170" lon="-2.688552">
        <ele>1267.7</ele>
        <time>2021-07-02T20:10:32.000Z</time>
      </trkpt>
      <trkpt lat="42.056067" lon="-2.688528">
        <ele>1268.2</ele>
        <time>2021-07-02T20:10:37.000Z</time>
      </trkpt>
      <trkpt lat="42.055967" lon="-2.688527">
        <ele>1270.2</ele>
        <time>2021-07-02T20:10:43.000Z</time>
      </trkpt>
      <trkpt lat="42.055865" lon="-2.688525">
        <ele>1270.9</ele>
        <time>2021-07-02T20:10:49.000Z</time>
      </trkpt>
      <trkpt lat="42.055772" lon="-2.688517">
        <ele>1271.9</ele>
        <time>2021-07-02T20:10:55.000Z</time>
      </trkpt>
      <trkpt lat="42.055670" lon="-2.688500">
        <ele>1272.9</ele>
        <time>2021-07-02T20:11:01.000Z</time>
      </trkpt>
      <trkpt lat="42.055573" lon="-2.688458">
        <ele>1273.8</ele>
        <time>2021-07-02T20:11:07.000Z</time>
      </trkpt>
      <trkpt lat="42.055478" lon="-2.688438">
        <ele>1274.8</ele>
        <time>2021-07-02T20:11:13.000Z</time>
      </trkpt>
      <trkpt lat="42.055385" lon="-2.688450">
        <ele>1275.7</ele>
        <time>2021-07-02T20:11:19.000Z</time>
      </trkpt>
      <trkpt lat="42.055285" lon="-2.688448">
        <ele>1276.7</ele>
        <time>2021-07-02T20:11:25.000Z</time>
      </trkpt>
      <trkpt lat="42.055202" lon="-2.688395">
        <ele>1277.6</ele>
        <time>2021-07-02T20:11:31.000Z</time>
      </trkpt>
      <trkpt lat="42.055098" lon="-2.688372">
        <ele>1277.7</ele>
        <time>2021-07-02T20:11:37.000Z</time>
      </trkpt>
      <trkpt lat="42.054995" lon="-2.688337">
        <ele>1278.6</ele>
        <time>2021-07-02T20:11:43.000Z</time>
      </trkpt>
      <trkpt lat="42.054892" lon="-2.688307">
        <ele>1279.8</ele>
        <time>2021-07-02T20:11:49.000Z</time>
      </trkpt>
      <trkpt lat="42.054793" lon="-2.688287">
        <ele>1280.1</ele>
        <time>2021-07-02T20:11:55.000Z</time>
      </trkpt>
      <trkpt lat="42.054693" lon="-2.688267">
        <ele>1281.3</ele>
        <time>2021-07-02T20:12:01.000Z</time>
      </trkpt>
      <trkpt lat="42.054592" lon="-2.688230">
        <ele>1282.0</ele>
        <time>2021-07-02T20:12:07.000Z</time>
      </trkpt>
      <trkpt lat="42.054490" lon="-2.688200">
        <ele>1282.9</ele>
        <time>2021-07-02T20:12:13.000Z</time>
      </trkpt>
      <trkpt lat="42.054393" lon="-2.688153">
        <ele>1283.9</ele>
        <time>2021-07-02T20:12:19.000Z</time>
      </trkpt>
      <trkpt lat="42.054297" lon="-2.688132">
        <ele>1284.3</ele>
        <time>2021-07-02T20:12:25.000Z</time>
      </trkpt>
      <trkpt lat="42.054200" lon="-2.688093">
        <ele>1285.0</ele>
        <time>2021-07-02T20:12:31.000Z</time>
      </trkpt>
      <trkpt lat="42.054110" lon="-2.688055">
        <ele>1285.5</ele>
        <time>2021-07-02T20:12:36.000Z</time>
      </trkpt>
      <trkpt lat="42.054018" lon="-2.688028">
        <ele>1285.7</ele>
        <time>2021-07-02T20:12:41.000Z</time>
      </trkpt>
      <trkpt lat="42.053928" lon="-2.687997">
        <ele>1286.2</ele>
        <time>2021-07-02T20:12:46.000Z</time>
      </trkpt>
      <trkpt lat="42.053835" lon="-2.687963">
        <ele>1286.9</ele>
        <time>2021-07-02T20:12:51.000Z</time>
      </trkpt>
      <trkpt lat="42.053743" lon="-2.687935">
        <ele>1287.2</ele>
        <time>2021-07-02T20:12:56.000Z</time>
      </trkpt>
      <trkpt lat="42.053648" lon="-2.687928">
        <ele>1287.8</ele>
        <time>2021-07-02T20:13:01.000Z</time>
      </trkpt>
      <trkpt lat="42.053542" lon="-2.687922">
        <ele>1288.6</ele>
        <time>2021-07-02T20:13:07.000Z</time>
      </trkpt>
      <trkpt lat="42.053452" lon="-2.687900">
        <ele>1288.7</ele>
        <time>2021-07-02T20:13:12.000Z</time>
      </trkpt>
      <trkpt lat="42.053348" lon="-2.687883">
        <ele>1289.6</ele>
        <time>2021-07-02T20:13:18.000Z</time>
      </trkpt>
      <trkpt lat="42.053243" lon="-2.687860">
        <ele>1290.5</ele>
        <time>2021-07-02T20:13:24.000Z</time>
      </trkpt>
      <trkpt lat="42.053152" lon="-2.687852">
        <ele>1290.6</ele>
        <time>2021-07-02T20:13:29.000Z</time>
      </trkpt>
      <trkpt lat="42.053063" lon="-2.687827">
        <ele>1291.3</ele>
        <time>2021-07-02T20:13:34.000Z</time>
      </trkpt>
      <trkpt lat="42.052973" lon="-2.687807">
        <ele>1291.5</ele>
        <time>2021-07-02T20:13:39.000Z</time>
      </trkpt>
      <trkpt lat="42.052883" lon="-2.687792">
        <ele>1292.1</ele>
        <time>2021-07-02T20:13:44.000Z</time>
      </trkpt>
      <trkpt lat="42.052790" lon="-2.687767">
        <ele>1292.3</ele>
        <time>2021-07-02T20:13:49.000Z</time>
      </trkpt>
      <trkpt lat="42.052700" lon="-2.687743">
        <ele>1292.5</ele>
        <time>2021-07-02T20:13:54.000Z</time>
      </trkpt>
      <trkpt lat="42.052595" lon="-2.687717">
        <ele>1293.1</ele>
        <time>2021-07-02T20:14:00.000Z</time>
      </trkpt>
      <trkpt lat="42.052507" lon="-2.687682">
        <ele>1293.7</ele>
        <time>2021-07-02T20:14:05.000Z</time>
      </trkpt>
      <trkpt lat="42.052410" lon="-2.687623">
        <ele>1294.7</ele>
        <time>2021-07-02T20:14:11.000Z</time>
      </trkpt>
      <trkpt lat="42.052317" lon="-2.687560">
        <ele>1295.4</ele>
        <time>2021-07-02T20:14:17.000Z</time>
      </trkpt>
      <trkpt lat="42.052235" lon="-2.687493">
        <ele>1296.5</ele>
        <time>2021-07-02T20:14:23.000Z</time>
      </trkpt>
      <trkpt lat="42.052148" lon="-2.687427">
        <ele>1297.4</ele>
        <time>2021-07-02T20:14:29.000Z</time>
      </trkpt>
      <trkpt lat="42.052068" lon="-2.687342">
        <ele>1298.9</ele>
        <time>2021-07-02T20:14:36.000Z</time>
      </trkpt>
      <trkpt lat="42.051998" lon="-2.687238">
        <ele>1299.9</ele>
        <time>2021-07-02T20:14:43.000Z</time>
      </trkpt>
      <trkpt lat="42.051937" lon="-2.687123">
        <ele>1300.6</ele>
        <time>2021-07-02T20:14:49.000Z</time>
      </trkpt>
      <trkpt lat="42.051887" lon="-2.687022">
        <ele>1301.8</ele>
        <time>2021-07-02T20:14:55.000Z</time>
      </trkpt>
      <trkpt lat="42.051822" lon="-2.686923">
        <ele>1302.8</ele>
        <time>2021-07-02T20:15:01.000Z</time>
      </trkpt>
      <trkpt lat="42.051762" lon="-2.686810">
        <ele>1303.8</ele>
        <time>2021-07-02T20:15:08.000Z</time>
      </trkpt>
      <trkpt lat="42.051722" lon="-2.686682">
        <ele>1304.9</ele>
        <time>2021-07-02T20:15:16.000Z</time>
      </trkpt>
      <trkpt lat="42.051667" lon="-2.686565">
        <ele>1306.0</ele>
        <time>2021-07-02T20:15:23.000Z</time>
      </trkpt>
      <trkpt lat="42.051623" lon="-2.686450">
        <ele>1307.3</ele>
        <time>2021-07-02T20:15:30.000Z</time>
      </trkpt>
      <trkpt lat="42.051563" lon="-2.686335">
        <ele>1308.3</ele>
        <time>2021-07-02T20:15:37.000Z</time>
      </trkpt>
      <trkpt lat="42.051510" lon="-2.686228">
        <ele>1309.6</ele>
        <time>2021-07-02T20:15:44.000Z</time>
      </trkpt>
      <trkpt lat="42.051460" lon="-2.686123">
        <ele>1310.3</ele>
        <time>2021-07-02T20:15:50.000Z</time>
      </trkpt>
      <trkpt lat="42.051415" lon="-2.686012">
        <ele>1311.6</ele>
        <time>2021-07-02T20:15:56.000Z</time>
      </trkpt>
      <trkpt lat="42.051360" lon="-2.685915">
        <ele>1312.3</ele>
        <time>2021-07-02T20:16:02.000Z</time>
      </trkpt>
      <trkpt lat="42.051292" lon="-2.685835">
        <ele>1313.3</ele>
        <time>2021-07-02T20:16:08.000Z</time>
      </trkpt>
      <trkpt lat="42.051202" lon="-2.685808">
        <ele>1314.0</ele>
        <time>2021-07-02T20:16:14.000Z</time>
      </trkpt>
      <trkpt lat="42.051105" lon="-2.685848">
        <ele>1314.9</ele>
        <time>2021-07-02T20:16:21.000Z</time>
      </trkpt>
      <trkpt lat="42.051028" lon="-2.685935">
        <ele>1315.4</ele>
        <time>2021-07-02T20:16:27.000Z</time>
      </trkpt>
      <trkpt lat="42.050940" lon="-2.686002">
        <ele>1316.1</ele>
        <time>2021-07-02T20:16:34.000Z</time>
      </trkpt>
      <trkpt lat="42.050842" lon="-2.686035">
        <ele>1317.7</ele>
        <time>2021-07-02T20:16:41.000Z</time>
      </trkpt>
      <trkpt lat="42.050767" lon="-2.686107">
        <ele>1317.9</ele>
        <time>2021-07-02T20:16:50.000Z</time>
      </trkpt>
      <trkpt lat="42.050697" lon="-2.686188">
        <ele>1318.8</ele>
        <time>2021-07-02T20:16:57.000Z</time>
      </trkpt>
      <trkpt lat="42.050613" lon="-2.686260">
        <ele>1319.7</ele>
        <time>2021-07-02T20:17:04.000Z</time>
      </trkpt>
      <trkpt lat="42.050548" lon="-2.686370">
        <ele>1320.0</ele>
        <time>2021-07-02T20:17:11.000Z</time>
      </trkpt>
      <trkpt lat="42.050468" lon="-2.686442">
        <ele>1321.1</ele>
        <time>2021-07-02T20:17:18.000Z</time>
      </trkpt>
      <trkpt lat="42.050377" lon="-2.686477">
        <ele>1321.9</ele>
        <time>2021-07-02T20:17:25.000Z</time>
      </trkpt>
      <trkpt lat="42.050277" lon="-2.686493">
        <ele>1323.0</ele>
        <time>2021-07-02T20:17:32.000Z</time>
      </trkpt>
      <trkpt lat="42.050180" lon="-2.686488">
        <ele>1324.4</ele>
        <time>2021-07-02T20:17:39.000Z</time>
      </trkpt>
      <trkpt lat="42.050087" lon="-2.686462">
        <ele>1325.4</ele>
        <time>2021-07-02T20:17:46.000Z</time>
      </trkpt>
      <trkpt lat="42.049993" lon="-2.686415">
        <ele>1326.2</ele>
        <time>2021-07-02T20:17:53.000Z</time>
      </trkpt>
      <trkpt lat="42.049902" lon="-2.686357">
        <ele>1327.3</ele>
        <time>2021-07-02T20:18:00.000Z</time>
      </trkpt>
      <trkpt lat="42.049817" lon="-2.686307">
        <ele>1328.3</ele>
        <time>2021-07-02T20:18:07.000Z</time>
      </trkpt>
      <trkpt lat="42.049728" lon="-2.686257">
        <ele>1329.1</ele>
        <time>2021-07-02T20:18:14.000Z</time>
      </trkpt>
      <trkpt lat="42.049647" lon="-2.686205">
        <ele>1330.3</ele>
        <time>2021-07-02T20:18:21.000Z</time>
      </trkpt>
      <trkpt lat="42.049557" lon="-2.686140">
        <ele>1331.7</ele>
        <time>2021-07-02T20:18:29.000Z</time>
      </trkpt>
      <trkpt lat="42.049470" lon="-2.686068">
        <ele>1332.4</ele>
        <time>2021-07-02T20:18:37.000Z</time>
      </trkpt>
      <trkpt lat="42.049382" lon="-2.685995">
        <ele>1333.5</ele>
        <time>2021-07-02T20:18:45.000Z</time>
      </trkpt>
      <trkpt lat="42.049305" lon="-2.685918">
        <ele>1334.9</ele>
        <time>2021-07-02T20:18:53.000Z</time>
      </trkpt>
      <trkpt lat="42.049223" lon="-2.685852">
        <ele>1336.0</ele>
        <time>2021-07-02T20:19:01.000Z</time>
      </trkpt>
      <trkpt lat="42.049138" lon="-2.685790">
        <ele>1337.0</ele>
        <time>2021-07-02T20:19:10.000Z</time>
      </trkpt>
      <trkpt lat="42.049060" lon="-2.685718">
        <ele>1337.8</ele>
        <time>2021-07-02T20:19:17.000Z</time>
      </trkpt>
      <trkpt lat="42.048975" lon="-2.685642">
        <ele>1338.9</ele>
        <time>2021-07-02T20:19:26.000Z</time>
      </trkpt>
      <trkpt lat="42.048880" lon="-2.685587">
        <ele>1340.3</ele>
        <time>2021-07-02T20:19:34.000Z</time>
      </trkpt>
      <trkpt lat="42.048797" lon="-2.685520">
        <ele>1341.4</ele>
        <time>2021-07-02T20:19:42.000Z</time>
      </trkpt>
      <trkpt lat="42.048708" lon="-2.685457">
        <ele>1343.1</ele>
        <time>2021-07-02T20:19:50.000Z</time>
      </trkpt>
      <trkpt lat="42.048615" lon="-2.685427">
        <ele>1343.3</ele>
        <time>2021-07-02T20:19:58.000Z</time>
      </trkpt>
      <trkpt lat="42.048538" lon="-2.685355">
        <ele>1344.6</ele>
        <time>2021-07-02T20:20:06.000Z</time>
      </trkpt>
      <trkpt lat="42.048460" lon="-2.685287">
        <ele>1345.9</ele>
        <time>2021-07-02T20:20:14.000Z</time>
      </trkpt>
      <trkpt lat="42.048370" lon="-2.685250">
        <ele>1347.7</ele>
        <time>2021-07-02T20:20:22.000Z</time>
      </trkpt>
      <trkpt lat="42.048288" lon="-2.685180">
        <ele>1348.3</ele>
        <time>2021-07-02T20:20:30.000Z</time>
      </trkpt>
      <trkpt lat="42.048192" lon="-2.685147">
        <ele>1349.0</ele>
        <time>2021-07-02T20:20:38.000Z</time>
      </trkpt>
      <trkpt lat="42.048118" lon="-2.685073">
        <ele>1350.2</ele>
        <time>2021-07-02T20:20:45.000Z</time>
      </trkpt>
      <trkpt lat="42.048032" lon="-2.685033">
        <ele>1351.1</ele>
        <time>2021-07-02T20:20:52.000Z</time>
      </trkpt>
      <trkpt lat="42.047947" lon="-2.684977">
        <ele>1352.4</ele>
        <time>2021-07-02T20:21:00.000Z</time>
      </trkpt>
      <trkpt lat="42.047857" lon="-2.684922">
        <ele>1353.0</ele>
        <time>2021-07-02T20:21:08.000Z</time>
      </trkpt>
      <trkpt lat="42.047775" lon="-2.684860">
        <ele>1354.1</ele>
        <time>2021-07-02T20:21:16.000Z</time>
      </trkpt>
      <trkpt lat="42.047700" lon="-2.684780">
        <ele>1355.5</ele>
        <time>2021-07-02T20:21:24.000Z</time>
      </trkpt>
      <trkpt lat="42.047617" lon="-2.684728">
        <ele>1355.9</ele>
        <time>2021-07-02T20:21:31.000Z</time>
      </trkpt>
      <trkpt lat="42.047540" lon="-2.684637">
        <ele>1357.2</ele>
        <time>2021-07-02T20:21:39.000Z</time>
      </trkpt>
      <trkpt lat="42.047458" lon="-2.684558">
        <ele>1357.9</ele>
        <time>2021-07-02T20:21:47.000Z</time>
      </trkpt>
      <trkpt lat="42.047372" lon="-2.684503">
        <ele>1358.7</ele>
        <time>2021-07-02T20:21:54.000Z</time>
      </trkpt>
      <trkpt lat="42.047307" lon="-2.684412">
        <ele>1359.8</ele>
        <time>2021-07-02T20:22:01.000Z</time>
      </trkpt>
      <trkpt lat="42.047247" lon="-2.684312">
        <ele>1360.7</ele>
        <time>2021-07-02T20:22:08.000Z</time>
      </trkpt>
      <trkpt lat="42.047190" lon="-2.684207">
        <ele>1361.5</ele>
        <time>2021-07-02T20:22:15.000Z</time>
      </trkpt>
      <trkpt lat="42.047137" lon="-2.684100">
        <ele>1362.6</ele>
        <time>2021-07-02T20:22:22.000Z</time>
      </trkpt>
      <trkpt lat="42.047077" lon="-2.683997">
        <ele>1363.7</ele>
        <time>2021-07-02T20:22:29.000Z</time>
      </trkpt>
      <trkpt lat="42.047012" lon="-2.683902">
        <ele>1364.4</ele>
        <time>2021-07-02T20:22:36.000Z</time>
      </trkpt>
      <trkpt lat="42.046972" lon="-2.683783">
        <ele>1365.3</ele>
        <time>2021-07-02T20:22:43.000Z</time>
      </trkpt>
      <trkpt lat="42.046925" lon="-2.683670">
        <ele>1366.9</ele>
        <time>2021-07-02T20:22:50.000Z</time>
      </trkpt>
      <trkpt lat="42.046867" lon="-2.683560">
        <ele>1367.6</ele>
        <time>2021-07-02T20:22:57.000Z</time>
      </trkpt>
      <trkpt lat="42.046805" lon="-2.683455">
        <ele>1369.0</ele>
        <time>2021-07-02T20:23:04.000Z</time>
      </trkpt>
      <trkpt lat="42.046752" lon="-2.683357">
        <ele>1369.8</ele>
        <time>2021-07-02T20:23:10.000Z</time>
      </trkpt>
      <trkpt lat="42.046680" lon="-2.683272">
        <ele>1370.6</ele>
        <time>2021-07-02T20:23:17.000Z</time>
      </trkpt>
      <trkpt lat="42.046607" lon="-2.683178">
        <ele>1371.8</ele>
        <time>2021-07-02T20:23:24.000Z</time>
      </trkpt>
      <trkpt lat="42.046550" lon="-2.683070">
        <ele>1372.4</ele>
        <time>2021-07-02T20:23:31.000Z</time>
      </trkpt>
      <trkpt lat="42.046468" lon="-2.682988">
        <ele>1373.3</ele>
        <time>2021-07-02T20:23:38.000Z</time>
      </trkpt>
      <trkpt lat="42.046423" lon="-2.682877">
        <ele>1373.9</ele>
        <time>2021-07-02T20:23:44.000Z</time>
      </trkpt>
      <trkpt lat="42.046395" lon="-2.682755">
        <ele>1374.7</ele>
        <time>2021-07-02T20:23:50.000Z</time>
      </trkpt>
      <trkpt lat="42.046335" lon="-2.682662">
        <ele>1375.3</ele>
        <time>2021-07-02T20:23:58.000Z</time>
      </trkpt>
      <trkpt lat="42.046337" lon="-2.682663">
        <ele>1375.1</ele>
        <time>2021-07-02T20:24:00.000Z</time>
      </trkpt>
      <trkpt lat="42.046333" lon="-2.682662">
        <ele>1376.0</ele>
        <time>2021-07-02T20:24:23.000Z</time>
      </trkpt>
      <trkpt lat="42.046362" lon="-2.682533">
        <ele>1375.5</ele>
        <time>2021-07-02T20:24:32.000Z</time>
      </trkpt>
      <trkpt lat="42.046348" lon="-2.682450">
        <ele>1375.7</ele>
        <time>2021-07-02T20:24:43.000Z</time>
      </trkpt>
      <trkpt lat="42.046347" lon="-2.682450">
        <ele>1375.7</ele>
        <time>2021-07-02T20:24:56.000Z</time>
      </trkpt>
      <trkpt lat="42.046347" lon="-2.682450">
        <ele>1375.7</ele>
        <time>2021-07-02T20:24:57.000Z</time>
      </trkpt>
      <trkpt lat="42.046348" lon="-2.682447">
        <ele>1375.8</ele>
        <time>2021-07-02T20:26:33.000Z</time>
      </trkpt>
      <trkpt lat="42.046348" lon="-2.682447">
        <ele>1376.0</ele>
        <time>2021-07-02T20:26:34.000Z</time>
      </trkpt>
      <trkpt lat="42.046352" lon="-2.682447">
        <ele>1375.3</ele>
        <time>2021-07-02T20:27:08.000Z</time>
      </trkpt>
      <trkpt lat="42.046363" lon="-2.682443">
        <ele>1375.8</ele>
        <time>2021-07-02T20:27:13.000Z</time>
      </trkpt>
      <trkpt lat="42.046365" lon="-2.682443">
        <ele>1376.0</ele>
        <time>2021-07-02T20:27:18.000Z</time>
      </trkpt>
      <trkpt lat="42.046365" lon="-2.682443">
        <ele>1375.9</ele>
        <time>2021-07-02T20:27:19.000Z</time>
      </trkpt>
      <trkpt lat="42.046367" lon="-2.682437">
        <ele>1374.9</ele>
        <time>2021-07-02T20:27:57.000Z</time>
      </trkpt>
      <trkpt lat="42.046438" lon="-2.682360">
        <ele>1376.3</ele>
        <time>2021-07-02T20:28:04.000Z</time>
      </trkpt>
      <trkpt lat="42.046495" lon="-2.682263">
        <ele>1376.8</ele>
        <time>2021-07-02T20:28:10.000Z</time>
      </trkpt>
      <trkpt lat="42.046560" lon="-2.682168">
        <ele>1377.2</ele>
        <time>2021-07-02T20:28:16.000Z</time>
      </trkpt>
      <trkpt lat="42.046632" lon="-2.682075">
        <ele>1377.5</ele>
        <time>2021-07-02T20:28:22.000Z</time>
      </trkpt>
      <trkpt lat="42.046712" lon="-2.681985">
        <ele>1378.2</ele>
        <time>2021-07-02T20:28:28.000Z</time>
      </trkpt>
      <trkpt lat="42.046783" lon="-2.681892">
        <ele>1378.2</ele>
        <time>2021-07-02T20:28:34.000Z</time>
      </trkpt>
      <trkpt lat="42.046865" lon="-2.681797">
        <ele>1379.0</ele>
        <time>2021-07-02T20:28:40.000Z</time>
      </trkpt>
      <trkpt lat="42.046932" lon="-2.681692">
        <ele>1379.2</ele>
        <time>2021-07-02T20:28:46.000Z</time>
      </trkpt>
      <trkpt lat="42.046998" lon="-2.681582">
        <ele>1380.1</ele>
        <time>2021-07-02T20:28:52.000Z</time>
      </trkpt>
      <trkpt lat="42.047058" lon="-2.681463">
        <ele>1380.5</ele>
        <time>2021-07-02T20:28:58.000Z</time>
      </trkpt>
      <trkpt lat="42.047110" lon="-2.681340">
        <ele>1381.0</ele>
        <time>2021-07-02T20:29:04.000Z</time>
      </trkpt>
      <trkpt lat="42.047153" lon="-2.681213">
        <ele>1381.7</ele>
        <time>2021-07-02T20:29:10.000Z</time>
      </trkpt>
      <trkpt lat="42.047193" lon="-2.681090">
        <ele>1382.2</ele>
        <time>2021-07-02T20:29:16.000Z</time>
      </trkpt>
      <trkpt lat="42.047238" lon="-2.680958">
        <ele>1382.8</ele>
        <time>2021-07-02T20:29:22.000Z</time>
      </trkpt>
      <trkpt lat="42.047278" lon="-2.680828">
        <ele>1383.6</ele>
        <time>2021-07-02T20:29:28.000Z</time>
      </trkpt>
      <trkpt lat="42.047313" lon="-2.680697">
        <ele>1384.1</ele>
        <time>2021-07-02T20:29:34.000Z</time>
      </trkpt>
      <trkpt lat="42.047342" lon="-2.680570">
        <ele>1385.0</ele>
        <time>2021-07-02T20:29:40.000Z</time>
      </trkpt>
      <trkpt lat="42.047365" lon="-2.680433">
        <ele>1385.5</ele>
        <time>2021-07-02T20:29:46.000Z</time>
      </trkpt>
      <trkpt lat="42.047382" lon="-2.680298">
        <ele>1386.1</ele>
        <time>2021-07-02T20:29:52.000Z</time>
      </trkpt>
      <trkpt lat="42.047403" lon="-2.680178">
        <ele>1386.6</ele>
        <time>2021-07-02T20:29:57.000Z</time>
      </trkpt>
      <trkpt lat="42.047410" lon="-2.680053">
        <ele>1386.9</ele>
        <time>2021-07-02T20:30:02.000Z</time>
      </trkpt>
      <trkpt lat="42.047418" lon="-2.679928">
        <ele>1387.5</ele>
        <time>2021-07-02T20:30:07.000Z</time>
      </trkpt>
      <trkpt lat="42.047427" lon="-2.679805">
        <ele>1387.7</ele>
        <time>2021-07-02T20:30:12.000Z</time>
      </trkpt>
      <trkpt lat="42.047428" lon="-2.679678">
        <ele>1388.0</ele>
        <time>2021-07-02T20:30:17.000Z</time>
      </trkpt>
      <trkpt lat="42.047427" lon="-2.679555">
        <ele>1388.1</ele>
        <time>2021-07-02T20:30:22.000Z</time>
      </trkpt>
      <trkpt lat="42.047422" lon="-2.679432">
        <ele>1388.2</ele>
        <time>2021-07-02T20:30:27.000Z</time>
      </trkpt>
      <trkpt lat="42.047407" lon="-2.679307">
        <ele>1388.6</ele>
        <time>2021-07-02T20:30:32.000Z</time>
      </trkpt>
      <trkpt lat="42.047375" lon="-2.679188">
        <ele>1389.2</ele>
        <time>2021-07-02T20:30:37.000Z</time>
      </trkpt>
      <trkpt lat="42.047373" lon="-2.679057">
        <ele>1389.5</ele>
        <time>2021-07-02T20:30:42.000Z</time>
      </trkpt>
      <trkpt lat="42.047367" lon="-2.678932">
        <ele>1390.0</ele>
        <time>2021-07-02T20:30:47.000Z</time>
      </trkpt>
      <trkpt lat="42.047355" lon="-2.678792">
        <ele>1390.3</ele>
        <time>2021-07-02T20:30:53.000Z</time>
      </trkpt>
      <trkpt lat="42.047343" lon="-2.678657">
        <ele>1390.5</ele>
        <time>2021-07-02T20:30:59.000Z</time>
      </trkpt>
      <trkpt lat="42.047332" lon="-2.678528">
        <ele>1391.0</ele>
        <time>2021-07-02T20:31:04.000Z</time>
      </trkpt>
      <trkpt lat="42.047318" lon="-2.678403">
        <ele>1391.1</ele>
        <time>2021-07-02T20:31:09.000Z</time>
      </trkpt>
      <trkpt lat="42.047302" lon="-2.678272">
        <ele>1391.3</ele>
        <time>2021-07-02T20:31:14.000Z</time>
      </trkpt>
      <trkpt lat="42.047280" lon="-2.678152">
        <ele>1391.7</ele>
        <time>2021-07-02T20:31:19.000Z</time>
      </trkpt>
      <trkpt lat="42.047262" lon="-2.678017">
        <ele>1392.0</ele>
        <time>2021-07-02T20:31:25.000Z</time>
      </trkpt>
      <trkpt lat="42.047245" lon="-2.677895">
        <ele>1392.3</ele>
        <time>2021-07-02T20:31:31.000Z</time>
      </trkpt>
      <trkpt lat="42.047212" lon="-2.677775">
        <ele>1392.4</ele>
        <time>2021-07-02T20:31:37.000Z</time>
      </trkpt>
      <trkpt lat="42.047203" lon="-2.677647">
        <ele>1393.5</ele>
        <time>2021-07-02T20:31:44.000Z</time>
      </trkpt>
      <trkpt lat="42.047210" lon="-2.677632">
        <ele>1393.1</ele>
        <time>2021-07-02T20:31:49.000Z</time>
      </trkpt>
      <trkpt lat="42.047212" lon="-2.677632">
        <ele>1393.1</ele>
        <time>2021-07-02T20:31:50.000Z</time>
      </trkpt>
      <trkpt lat="42.047210" lon="-2.677632">
        <ele>1392.9</ele>
        <time>2021-07-02T20:31:52.000Z</time>
      </trkpt>
      <trkpt lat="42.047213" lon="-2.677630">
        <ele>1393.0</ele>
        <time>2021-07-02T20:31:53.000Z</time>
      </trkpt>
      <trkpt lat="42.047215" lon="-2.677630">
        <ele>1393.1</ele>
        <time>2021-07-02T20:31:55.000Z</time>
      </trkpt>
      <trkpt lat="42.047217" lon="-2.677632">
        <ele>1393.0</ele>
        <time>2021-07-02T20:31:57.000Z</time>
      </trkpt>
      <trkpt lat="42.047217" lon="-2.677632">
        <ele>1393.1</ele>
        <time>2021-07-02T20:31:58.000Z</time>
      </trkpt>
      <trkpt lat="42.047218" lon="-2.677632">
        <ele>1393.1</ele>
        <time>2021-07-02T20:32:02.000Z</time>
      </trkpt>
      <trkpt lat="42.047218" lon="-2.677632">
        <ele>1393.3</ele>
        <time>2021-07-02T20:32:03.000Z</time>
      </trkpt>
      <trkpt lat="42.047220" lon="-2.677632">
        <ele>1393.3</ele>
        <time>2021-07-02T20:32:04.000Z</time>
      </trkpt>
      <trkpt lat="42.047220" lon="-2.677632">
        <ele>1393.3</ele>
        <time>2021-07-02T20:32:05.000Z</time>
      </trkpt>
      <trkpt lat="42.047218" lon="-2.677632">
        <ele>1392.5</ele>
        <time>2021-07-02T20:32:26.000Z</time>
      </trkpt>
      <trkpt lat="42.047218" lon="-2.677632">
        <ele>1392.5</ele>
        <time>2021-07-02T20:32:27.000Z</time>
      </trkpt>
      <trkpt lat="42.047220" lon="-2.677633">
        <ele>1393.3</ele>
        <time>2021-07-02T20:32:30.000Z</time>
      </trkpt>
      <trkpt lat="42.047192" lon="-2.677512">
        <ele>1394.3</ele>
        <time>2021-07-02T20:32:37.000Z</time>
      </trkpt>
      <trkpt lat="42.047120" lon="-2.677433">
        <ele>1394.7</ele>
        <time>2021-07-02T20:32:43.000Z</time>
      </trkpt>
      <trkpt lat="42.047015" lon="-2.677460">
        <ele>1395.5</ele>
        <time>2021-07-02T20:32:49.000Z</time>
      </trkpt>
      <trkpt lat="42.046923" lon="-2.677502">
        <ele>1395.7</ele>
        <time>2021-07-02T20:32:54.000Z</time>
      </trkpt>
      <trkpt lat="42.046832" lon="-2.677542">
        <ele>1395.9</ele>
        <time>2021-07-02T20:32:59.000Z</time>
      </trkpt>
      <trkpt lat="42.046742" lon="-2.677593">
        <ele>1396.7</ele>
        <time>2021-07-02T20:33:04.000Z</time>
      </trkpt>
      <trkpt lat="42.046663" lon="-2.677655">
        <ele>1397.6</ele>
        <time>2021-07-02T20:33:09.000Z</time>
      </trkpt>
      <trkpt lat="42.046575" lon="-2.677728">
        <ele>1398.7</ele>
        <time>2021-07-02T20:33:15.000Z</time>
      </trkpt>
      <trkpt lat="42.046493" lon="-2.677807">
        <ele>1399.4</ele>
        <time>2021-07-02T20:33:21.000Z</time>
      </trkpt>
      <trkpt lat="42.046427" lon="-2.677908">
        <ele>1400.8</ele>
        <time>2021-07-02T20:33:27.000Z</time>
      </trkpt>
      <trkpt lat="42.046353" lon="-2.677988">
        <ele>1401.3</ele>
        <time>2021-07-02T20:33:33.000Z</time>
      </trkpt>
      <trkpt lat="42.046278" lon="-2.678090">
        <ele>1402.0</ele>
        <time>2021-07-02T20:33:39.000Z</time>
      </trkpt>
      <trkpt lat="42.046218" lon="-2.678207">
        <ele>1402.7</ele>
        <time>2021-07-02T20:33:45.000Z</time>
      </trkpt>
      <trkpt lat="42.046157" lon="-2.678325">
        <ele>1403.2</ele>
        <time>2021-07-02T20:33:51.000Z</time>
      </trkpt>
      <trkpt lat="42.046087" lon="-2.678425">
        <ele>1404.4</ele>
        <time>2021-07-02T20:33:57.000Z</time>
      </trkpt>
      <trkpt lat="42.046003" lon="-2.678500">
        <ele>1404.6</ele>
        <time>2021-07-02T20:34:03.000Z</time>
      </trkpt>
      <trkpt lat="42.045910" lon="-2.678560">
        <ele>1406.3</ele>
        <time>2021-07-02T20:34:09.000Z</time>
      </trkpt>
      <trkpt lat="42.045825" lon="-2.678623">
        <ele>1407.5</ele>
        <time>2021-07-02T20:34:15.000Z</time>
      </trkpt>
      <trkpt lat="42.045732" lon="-2.678672">
        <ele>1408.1</ele>
        <time>2021-07-02T20:34:21.000Z</time>
      </trkpt>
      <trkpt lat="42.045630" lon="-2.678692">
        <ele>1409.0</ele>
        <time>2021-07-02T20:34:27.000Z</time>
      </trkpt>
      <trkpt lat="42.045527" lon="-2.678693">
        <ele>1409.9</ele>
        <time>2021-07-02T20:34:33.000Z</time>
      </trkpt>
      <trkpt lat="42.045422" lon="-2.678697">
        <ele>1411.1</ele>
        <time>2021-07-02T20:34:39.000Z</time>
      </trkpt>
      <trkpt lat="42.045330" lon="-2.678718">
        <ele>1412.3</ele>
        <time>2021-07-02T20:34:44.000Z</time>
      </trkpt>
      <trkpt lat="42.045240" lon="-2.678738">
        <ele>1412.6</ele>
        <time>2021-07-02T20:34:50.000Z</time>
      </trkpt>
      <trkpt lat="42.045147" lon="-2.678728">
        <ele>1413.3</ele>
        <time>2021-07-02T20:34:57.000Z</time>
      </trkpt>
      <trkpt lat="42.045048" lon="-2.678692">
        <ele>1415.2</ele>
        <time>2021-07-02T20:35:06.000Z</time>
      </trkpt>
      <trkpt lat="42.044962" lon="-2.678653">
        <ele>1416.2</ele>
        <time>2021-07-02T20:35:14.000Z</time>
      </trkpt>
      <trkpt lat="42.044882" lon="-2.678597">
        <ele>1416.6</ele>
        <time>2021-07-02T20:35:21.000Z</time>
      </trkpt>
      <trkpt lat="42.044803" lon="-2.678517">
        <ele>1418.2</ele>
        <time>2021-07-02T20:35:29.000Z</time>
      </trkpt>
      <trkpt lat="42.044762" lon="-2.678403">
        <ele>1418.9</ele>
        <time>2021-07-02T20:35:36.000Z</time>
      </trkpt>
      <trkpt lat="42.044757" lon="-2.678272">
        <ele>1421.1</ele>
        <time>2021-07-02T20:35:43.000Z</time>
      </trkpt>
      <trkpt lat="42.044712" lon="-2.678153">
        <ele>1421.2</ele>
        <time>2021-07-02T20:35:50.000Z</time>
      </trkpt>
      <trkpt lat="42.044655" lon="-2.678055">
        <ele>1420.7</ele>
        <time>2021-07-02T20:35:57.000Z</time>
      </trkpt>
      <trkpt lat="42.044623" lon="-2.677922">
        <ele>1421.8</ele>
        <time>2021-07-02T20:36:04.000Z</time>
      </trkpt>
      <trkpt lat="42.044553" lon="-2.677833">
        <ele>1422.4</ele>
        <time>2021-07-02T20:36:10.000Z</time>
      </trkpt>
      <trkpt lat="42.044467" lon="-2.677767">
        <ele>1422.7</ele>
        <time>2021-07-02T20:36:16.000Z</time>
      </trkpt>
      <trkpt lat="42.044387" lon="-2.677700">
        <ele>1423.4</ele>
        <time>2021-07-02T20:36:22.000Z</time>
      </trkpt>
      <trkpt lat="42.044323" lon="-2.677602">
        <ele>1424.7</ele>
        <time>2021-07-02T20:36:29.000Z</time>
      </trkpt>
      <trkpt lat="42.044242" lon="-2.677542">
        <ele>1424.8</ele>
        <time>2021-07-02T20:36:36.000Z</time>
      </trkpt>
      <trkpt lat="42.044165" lon="-2.677475">
        <ele>1426.0</ele>
        <time>2021-07-02T20:36:42.000Z</time>
      </trkpt>
      <trkpt lat="42.044077" lon="-2.677410">
        <ele>1427.1</ele>
        <time>2021-07-02T20:36:49.000Z</time>
      </trkpt>
      <trkpt lat="42.043992" lon="-2.677342">
        <ele>1427.0</ele>
        <time>2021-07-02T20:36:56.000Z</time>
      </trkpt>
      <trkpt lat="42.043902" lon="-2.677298">
        <ele>1427.9</ele>
        <time>2021-07-02T20:37:03.000Z</time>
      </trkpt>
      <trkpt lat="42.043830" lon="-2.677200">
        <ele>1428.7</ele>
        <time>2021-07-02T20:37:10.000Z</time>
      </trkpt>
      <trkpt lat="42.043755" lon="-2.677112">
        <ele>1429.1</ele>
        <time>2021-07-02T20:37:16.000Z</time>
      </trkpt>
      <trkpt lat="42.043683" lon="-2.677015">
        <ele>1430.1</ele>
        <time>2021-07-02T20:37:23.000Z</time>
      </trkpt>
      <trkpt lat="42.043610" lon="-2.676927">
        <ele>1431.1</ele>
        <time>2021-07-02T20:37:30.000Z</time>
      </trkpt>
      <trkpt lat="42.043542" lon="-2.676825">
        <ele>1432.1</ele>
        <time>2021-07-02T20:37:37.000Z</time>
      </trkpt>
      <trkpt lat="42.043487" lon="-2.676720">
        <ele>1431.9</ele>
        <time>2021-07-02T20:37:44.000Z</time>
      </trkpt>
      <trkpt lat="42.043412" lon="-2.676648">
        <ele>1432.6</ele>
        <time>2021-07-02T20:37:51.000Z</time>
      </trkpt>
      <trkpt lat="42.043348" lon="-2.676535">
        <ele>1432.9</ele>
        <time>2021-07-02T20:37:58.000Z</time>
      </trkpt>
      <trkpt lat="42.043252" lon="-2.676487">
        <ele>1434.0</ele>
        <time>2021-07-02T20:38:05.000Z</time>
      </trkpt>
      <trkpt lat="42.043150" lon="-2.676468">
        <ele>1434.6</ele>
        <time>2021-07-02T20:38:12.000Z</time>
      </trkpt>
      <trkpt lat="42.043058" lon="-2.676495">
        <ele>1435.5</ele>
        <time>2021-07-02T20:38:19.000Z</time>
      </trkpt>
      <trkpt lat="42.042967" lon="-2.676548">
        <ele>1435.9</ele>
        <time>2021-07-02T20:38:28.000Z</time>
      </trkpt>
      <trkpt lat="42.042872" lon="-2.676563">
        <ele>1437.0</ele>
        <time>2021-07-02T20:38:36.000Z</time>
      </trkpt>
      <trkpt lat="42.042802" lon="-2.676657">
        <ele>1437.6</ele>
        <time>2021-07-02T20:38:44.000Z</time>
      </trkpt>
      <trkpt lat="42.042738" lon="-2.676745">
        <ele>1438.5</ele>
        <time>2021-07-02T20:38:52.000Z</time>
      </trkpt>
      <trkpt lat="42.042698" lon="-2.676862">
        <ele>1439.9</ele>
        <time>2021-07-02T20:39:00.000Z</time>
      </trkpt>
      <trkpt lat="42.042677" lon="-2.676995">
        <ele>1440.5</ele>
        <time>2021-07-02T20:39:09.000Z</time>
      </trkpt>
      <trkpt lat="42.042658" lon="-2.677123">
        <ele>1441.9</ele>
        <time>2021-07-02T20:39:17.000Z</time>
      </trkpt>
      <trkpt lat="42.042600" lon="-2.677228">
        <ele>1442.3</ele>
        <time>2021-07-02T20:39:24.000Z</time>
      </trkpt>
      <trkpt lat="42.042565" lon="-2.677347">
        <ele>1443.1</ele>
        <time>2021-07-02T20:39:31.000Z</time>
      </trkpt>
      <trkpt lat="42.042533" lon="-2.677465">
        <ele>1444.0</ele>
        <time>2021-07-02T20:39:38.000Z</time>
      </trkpt>
      <trkpt lat="42.042497" lon="-2.677588">
        <ele>1444.7</ele>
        <time>2021-07-02T20:39:45.000Z</time>
      </trkpt>
      <trkpt lat="42.042465" lon="-2.677712">
        <ele>1445.4</ele>
        <time>2021-07-02T20:39:52.000Z</time>
      </trkpt>
      <trkpt lat="42.042430" lon="-2.677843">
        <ele>1446.4</ele>
        <time>2021-07-02T20:39:59.000Z</time>
      </trkpt>
      <trkpt lat="42.042418" lon="-2.677978">
        <ele>1447.2</ele>
        <time>2021-07-02T20:40:06.000Z</time>
      </trkpt>
      <trkpt lat="42.042413" lon="-2.678103">
        <ele>1448.4</ele>
        <time>2021-07-02T20:40:12.000Z</time>
      </trkpt>
      <trkpt lat="42.042412" lon="-2.678237">
        <ele>1448.7</ele>
        <time>2021-07-02T20:40:19.000Z</time>
      </trkpt>
      <trkpt lat="42.042412" lon="-2.678372">
        <ele>1449.7</ele>
        <time>2021-07-02T20:40:26.000Z</time>
      </trkpt>
      <trkpt lat="42.042408" lon="-2.678512">
        <ele>1450.6</ele>
        <time>2021-07-02T20:40:33.000Z</time>
      </trkpt>
      <trkpt lat="42.042413" lon="-2.678652">
        <ele>1451.1</ele>
        <time>2021-07-02T20:40:40.000Z</time>
      </trkpt>
      <trkpt lat="42.042410" lon="-2.678773">
        <ele>1451.9</ele>
        <time>2021-07-02T20:40:46.000Z</time>
      </trkpt>
      <trkpt lat="42.042410" lon="-2.678913">
        <ele>1452.7</ele>
        <time>2021-07-02T20:40:53.000Z</time>
      </trkpt>
      <trkpt lat="42.042403" lon="-2.679035">
        <ele>1453.0</ele>
        <time>2021-07-02T20:40:59.000Z</time>
      </trkpt>
      <trkpt lat="42.042395" lon="-2.679173">
        <ele>1453.9</ele>
        <time>2021-07-02T20:41:06.000Z</time>
      </trkpt>
      <trkpt lat="42.042387" lon="-2.679297">
        <ele>1454.5</ele>
        <time>2021-07-02T20:41:12.000Z</time>
      </trkpt>
      <trkpt lat="42.042378" lon="-2.679435">
        <ele>1455.2</ele>
        <time>2021-07-02T20:41:19.000Z</time>
      </trkpt>
      <trkpt lat="42.042365" lon="-2.679572">
        <ele>1455.7</ele>
        <time>2021-07-02T20:41:26.000Z</time>
      </trkpt>
      <trkpt lat="42.042360" lon="-2.679708">
        <ele>1456.5</ele>
        <time>2021-07-02T20:41:33.000Z</time>
      </trkpt>
      <trkpt lat="42.042348" lon="-2.679833">
        <ele>1457.4</ele>
        <time>2021-07-02T20:41:40.000Z</time>
      </trkpt>
      <trkpt lat="42.042333" lon="-2.679965">
        <ele>1458.3</ele>
        <time>2021-07-02T20:41:47.000Z</time>
      </trkpt>
      <trkpt lat="42.042320" lon="-2.680095">
        <ele>1459.0</ele>
        <time>2021-07-02T20:41:54.000Z</time>
      </trkpt>
      <trkpt lat="42.042295" lon="-2.680225">
        <ele>1460.5</ele>
        <time>2021-07-02T20:42:01.000Z</time>
      </trkpt>
      <trkpt lat="42.042252" lon="-2.680345">
        <ele>1461.2</ele>
        <time>2021-07-02T20:42:08.000Z</time>
      </trkpt>
      <trkpt lat="42.042180" lon="-2.680432">
        <ele>1462.3</ele>
        <time>2021-07-02T20:42:15.000Z</time>
      </trkpt>
      <trkpt lat="42.042093" lon="-2.680492">
        <ele>1463.0</ele>
        <time>2021-07-02T20:42:22.000Z</time>
      </trkpt>
      <trkpt lat="42.041993" lon="-2.680500">
        <ele>1464.4</ele>
        <time>2021-07-02T20:42:29.000Z</time>
      </trkpt>
      <trkpt lat="42.041893" lon="-2.680477">
        <ele>1464.7</ele>
        <time>2021-07-02T20:42:36.000Z</time>
      </trkpt>
      <trkpt lat="42.041795" lon="-2.680462">
        <ele>1465.7</ele>
        <time>2021-07-02T20:42:43.000Z</time>
      </trkpt>
      <trkpt lat="42.041705" lon="-2.680452">
        <ele>1466.6</ele>
        <time>2021-07-02T20:42:50.000Z</time>
      </trkpt>
      <trkpt lat="42.041617" lon="-2.680417">
        <ele>1466.8</ele>
        <time>2021-07-02T20:42:57.000Z</time>
      </trkpt>
      <trkpt lat="42.041527" lon="-2.680403">
        <ele>1467.2</ele>
        <time>2021-07-02T20:43:03.000Z</time>
      </trkpt>
      <trkpt lat="42.041438" lon="-2.680373">
        <ele>1467.9</ele>
        <time>2021-07-02T20:43:09.000Z</time>
      </trkpt>
      <trkpt lat="42.041345" lon="-2.680333">
        <ele>1468.8</ele>
        <time>2021-07-02T20:43:16.000Z</time>
      </trkpt>
      <trkpt lat="42.041250" lon="-2.680295">
        <ele>1469.5</ele>
        <time>2021-07-02T20:43:23.000Z</time>
      </trkpt>
      <trkpt lat="42.041162" lon="-2.680258">
        <ele>1470.0</ele>
        <time>2021-07-02T20:43:29.000Z</time>
      </trkpt>
      <trkpt lat="42.041072" lon="-2.680208">
        <ele>1470.9</ele>
        <time>2021-07-02T20:43:35.000Z</time>
      </trkpt>
      <trkpt lat="42.040987" lon="-2.680165">
        <ele>1470.7</ele>
        <time>2021-07-02T20:43:41.000Z</time>
      </trkpt>
      <trkpt lat="42.040902" lon="-2.680118">
        <ele>1472.1</ele>
        <time>2021-07-02T20:43:47.000Z</time>
      </trkpt>
      <trkpt lat="42.040810" lon="-2.680055">
        <ele>1472.6</ele>
        <time>2021-07-02T20:43:54.000Z</time>
      </trkpt>
      <trkpt lat="42.040725" lon="-2.680002">
        <ele>1473.3</ele>
        <time>2021-07-02T20:44:01.000Z</time>
      </trkpt>
      <trkpt lat="42.040645" lon="-2.679923">
        <ele>1474.6</ele>
        <time>2021-07-02T20:44:08.000Z</time>
      </trkpt>
      <trkpt lat="42.040565" lon="-2.679842">
        <ele>1475.7</ele>
        <time>2021-07-02T20:44:15.000Z</time>
      </trkpt>
      <trkpt lat="42.040497" lon="-2.679753">
        <ele>1476.3</ele>
        <time>2021-07-02T20:44:22.000Z</time>
      </trkpt>
      <trkpt lat="42.040442" lon="-2.679655">
        <ele>1477.6</ele>
        <time>2021-07-02T20:44:29.000Z</time>
      </trkpt>
      <trkpt lat="42.040392" lon="-2.679548">
        <ele>1478.6</ele>
        <time>2021-07-02T20:44:36.000Z</time>
      </trkpt>
      <trkpt lat="42.040345" lon="-2.679432">
        <ele>1479.6</ele>
        <time>2021-07-02T20:44:43.000Z</time>
      </trkpt>
      <trkpt lat="42.040318" lon="-2.679300">
        <ele>1480.0</ele>
        <time>2021-07-02T20:44:50.000Z</time>
      </trkpt>
      <trkpt lat="42.040302" lon="-2.679165">
        <ele>1480.1</ele>
        <time>2021-07-02T20:44:57.000Z</time>
      </trkpt>
      <trkpt lat="42.040302" lon="-2.679042">
        <ele>1480.3</ele>
        <time>2021-07-02T20:45:03.000Z</time>
      </trkpt>
      <trkpt lat="42.040293" lon="-2.678913">
        <ele>1480.7</ele>
        <time>2021-07-02T20:45:09.000Z</time>
      </trkpt>
      <trkpt lat="42.040297" lon="-2.678782">
        <ele>1481.3</ele>
        <time>2021-07-02T20:45:16.000Z</time>
      </trkpt>
      <trkpt lat="42.040310" lon="-2.678742">
        <ele>1481.8</ele>
        <time>2021-07-02T20:45:21.000Z</time>
      </trkpt>
      <trkpt lat="42.040312" lon="-2.678742">
        <ele>1481.4</ele>
        <time>2021-07-02T20:45:22.000Z</time>
      </trkpt>
      <trkpt lat="42.040312" lon="-2.678742">
        <ele>1481.6</ele>
        <time>2021-07-02T20:45:23.000Z</time>
      </trkpt>
      <trkpt lat="42.040313" lon="-2.678740">
        <ele>1481.3</ele>
        <time>2021-07-02T20:45:29.000Z</time>
      </trkpt>
      <trkpt lat="42.040308" lon="-2.678607">
        <ele>1481.8</ele>
        <time>2021-07-02T20:45:37.000Z</time>
      </trkpt>
      <trkpt lat="42.040315" lon="-2.678478">
        <ele>1482.3</ele>
        <time>2021-07-02T20:45:43.000Z</time>
      </trkpt>
      <trkpt lat="42.040317" lon="-2.678357">
        <ele>1482.7</ele>
        <time>2021-07-02T20:45:49.000Z</time>
      </trkpt>
      <trkpt lat="42.040313" lon="-2.678222">
        <ele>1482.8</ele>
        <time>2021-07-02T20:45:56.000Z</time>
      </trkpt>
      <trkpt lat="42.040320" lon="-2.678100">
        <ele>1483.3</ele>
        <time>2021-07-02T20:46:02.000Z</time>
      </trkpt>
      <trkpt lat="42.040318" lon="-2.677960">
        <ele>1484.3</ele>
        <time>2021-07-02T20:46:09.000Z</time>
      </trkpt>
      <trkpt lat="42.040313" lon="-2.677828">
        <ele>1485.1</ele>
        <time>2021-07-02T20:46:15.000Z</time>
      </trkpt>
      <trkpt lat="42.040308" lon="-2.677702">
        <ele>1485.4</ele>
        <time>2021-07-02T20:46:21.000Z</time>
      </trkpt>
      <trkpt lat="42.040307" lon="-2.677578">
        <ele>1486.5</ele>
        <time>2021-07-02T20:46:27.000Z</time>
      </trkpt>
      <trkpt lat="42.040287" lon="-2.677455">
        <ele>1487.1</ele>
        <time>2021-07-02T20:46:33.000Z</time>
      </trkpt>
      <trkpt lat="42.040267" lon="-2.677317">
        <ele>1487.9</ele>
        <time>2021-07-02T20:46:40.000Z</time>
      </trkpt>
      <trkpt lat="42.040257" lon="-2.677265">
        <ele>1488.6</ele>
        <time>2021-07-02T20:46:46.000Z</time>
      </trkpt>
      <trkpt lat="42.040255" lon="-2.677263">
        <ele>1487.5</ele>
        <time>2021-07-02T20:46:49.000Z</time>
      </trkpt>
      <trkpt lat="42.040203" lon="-2.677145">
        <ele>1488.7</ele>
        <time>2021-07-02T20:46:56.000Z</time>
      </trkpt>
      <trkpt lat="42.040152" lon="-2.677040">
        <ele>1489.2</ele>
        <time>2021-07-02T20:47:01.000Z</time>
      </trkpt>
      <trkpt lat="42.040082" lon="-2.676932">
        <ele>1489.3</ele>
        <time>2021-07-02T20:47:07.000Z</time>
      </trkpt>
      <trkpt lat="42.040005" lon="-2.676830">
        <ele>1490.3</ele>
        <time>2021-07-02T20:47:13.000Z</time>
      </trkpt>
      <trkpt lat="42.039937" lon="-2.676743">
        <ele>1490.8</ele>
        <time>2021-07-02T20:47:18.000Z</time>
      </trkpt>
      <trkpt lat="42.039855" lon="-2.676667">
        <ele>1491.3</ele>
        <time>2021-07-02T20:47:23.000Z</time>
      </trkpt>
      <trkpt lat="42.039777" lon="-2.676590">
        <ele>1491.3</ele>
        <time>2021-07-02T20:47:28.000Z</time>
      </trkpt>
      <trkpt lat="42.039687" lon="-2.676510">
        <ele>1492.0</ele>
        <time>2021-07-02T20:47:34.000Z</time>
      </trkpt>
      <trkpt lat="42.039607" lon="-2.676450">
        <ele>1492.5</ele>
        <time>2021-07-02T20:47:39.000Z</time>
      </trkpt>
      <trkpt lat="42.039527" lon="-2.676390">
        <ele>1492.7</ele>
        <time>2021-07-02T20:47:44.000Z</time>
      </trkpt>
      <trkpt lat="42.039435" lon="-2.676345">
        <ele>1493.2</ele>
        <time>2021-07-02T20:47:49.000Z</time>
      </trkpt>
      <trkpt lat="42.039342" lon="-2.676312">
        <ele>1493.6</ele>
        <time>2021-07-02T20:47:54.000Z</time>
      </trkpt>
      <trkpt lat="42.039235" lon="-2.676302">
        <ele>1494.4</ele>
        <time>2021-07-02T20:48:00.000Z</time>
      </trkpt>
      <trkpt lat="42.039143" lon="-2.676297">
        <ele>1495.5</ele>
        <time>2021-07-02T20:48:05.000Z</time>
      </trkpt>
      <trkpt lat="42.039037" lon="-2.676303">
        <ele>1495.8</ele>
        <time>2021-07-02T20:48:11.000Z</time>
      </trkpt>
      <trkpt lat="42.038933" lon="-2.676307">
        <ele>1496.7</ele>
        <time>2021-07-02T20:48:17.000Z</time>
      </trkpt>
      <trkpt lat="42.038843" lon="-2.676312">
        <ele>1497.5</ele>
        <time>2021-07-02T20:48:22.000Z</time>
      </trkpt>
      <trkpt lat="42.038738" lon="-2.676325">
        <ele>1498.1</ele>
        <time>2021-07-02T20:48:28.000Z</time>
      </trkpt>
      <trkpt lat="42.038635" lon="-2.676363">
        <ele>1498.9</ele>
        <time>2021-07-02T20:48:34.000Z</time>
      </trkpt>
      <trkpt lat="42.038528" lon="-2.676383">
        <ele>1499.7</ele>
        <time>2021-07-02T20:48:40.000Z</time>
      </trkpt>
      <trkpt lat="42.038437" lon="-2.676397">
        <ele>1500.6</ele>
        <time>2021-07-02T20:48:45.000Z</time>
      </trkpt>
      <trkpt lat="42.038347" lon="-2.676398">
        <ele>1501.2</ele>
        <time>2021-07-02T20:48:50.000Z</time>
      </trkpt>
      <trkpt lat="42.038250" lon="-2.676382">
        <ele>1501.4</ele>
        <time>2021-07-02T20:48:55.000Z</time>
      </trkpt>
      <trkpt lat="42.038160" lon="-2.676355">
        <ele>1501.6</ele>
        <time>2021-07-02T20:49:00.000Z</time>
      </trkpt>
      <trkpt lat="42.038067" lon="-2.676318">
        <ele>1501.9</ele>
        <time>2021-07-02T20:49:05.000Z</time>
      </trkpt>
      <trkpt lat="42.037980" lon="-2.676262">
        <ele>1502.2</ele>
        <time>2021-07-02T20:49:10.000Z</time>
      </trkpt>
      <trkpt lat="42.037902" lon="-2.676202">
        <ele>1502.4</ele>
        <time>2021-07-02T20:49:15.000Z</time>
      </trkpt>
      <trkpt lat="42.037817" lon="-2.676122">
        <ele>1502.8</ele>
        <time>2021-07-02T20:49:21.000Z</time>
      </trkpt>
      <trkpt lat="42.037737" lon="-2.676038">
        <ele>1503.3</ele>
        <time>2021-07-02T20:49:27.000Z</time>
      </trkpt>
      <trkpt lat="42.037677" lon="-2.675945">
        <ele>1504.3</ele>
        <time>2021-07-02T20:49:33.000Z</time>
      </trkpt>
      <trkpt lat="42.037627" lon="-2.675833">
        <ele>1504.6</ele>
        <time>2021-07-02T20:49:39.000Z</time>
      </trkpt>
      <trkpt lat="42.037577" lon="-2.675707">
        <ele>1504.8</ele>
        <time>2021-07-02T20:49:46.000Z</time>
      </trkpt>
      <trkpt lat="42.037535" lon="-2.675582">
        <ele>1505.5</ele>
        <time>2021-07-02T20:49:52.000Z</time>
      </trkpt>
      <trkpt lat="42.037495" lon="-2.675468">
        <ele>1506.6</ele>
        <time>2021-07-02T20:49:58.000Z</time>
      </trkpt>
      <trkpt lat="42.037450" lon="-2.675358">
        <ele>1507.1</ele>
        <time>2021-07-02T20:50:04.000Z</time>
      </trkpt>
      <trkpt lat="42.037410" lon="-2.675248">
        <ele>1507.6</ele>
        <time>2021-07-02T20:50:10.000Z</time>
      </trkpt>
      <trkpt lat="42.037357" lon="-2.675128">
        <ele>1508.3</ele>
        <time>2021-07-02T20:50:16.000Z</time>
      </trkpt>
      <trkpt lat="42.037312" lon="-2.675018">
        <ele>1508.6</ele>
        <time>2021-07-02T20:50:22.000Z</time>
      </trkpt>
      <trkpt lat="42.037267" lon="-2.674908">
        <ele>1509.1</ele>
        <time>2021-07-02T20:50:28.000Z</time>
      </trkpt>
      <trkpt lat="42.037213" lon="-2.674795">
        <ele>1510.3</ele>
        <time>2021-07-02T20:50:34.000Z</time>
      </trkpt>
      <trkpt lat="42.037168" lon="-2.674683">
        <ele>1510.7</ele>
        <time>2021-07-02T20:50:40.000Z</time>
      </trkpt>
      <trkpt lat="42.037130" lon="-2.674560">
        <ele>1511.3</ele>
        <time>2021-07-02T20:50:46.000Z</time>
      </trkpt>
      <trkpt lat="42.037087" lon="-2.674448">
        <ele>1511.7</ele>
        <time>2021-07-02T20:50:52.000Z</time>
      </trkpt>
      <trkpt lat="42.037045" lon="-2.674332">
        <ele>1512.2</ele>
        <time>2021-07-02T20:50:58.000Z</time>
      </trkpt>
      <trkpt lat="42.037007" lon="-2.674253">
        <ele>1513.0</ele>
        <time>2021-07-02T20:51:06.000Z</time>
      </trkpt>
      <trkpt lat="42.037003" lon="-2.674245">
        <ele>1513.7</ele>
        <time>2021-07-02T20:51:07.000Z</time>
      </trkpt>
      <trkpt lat="42.036957" lon="-2.674138">
        <ele>1514.4</ele>
        <time>2021-07-02T20:51:15.000Z</time>
      </trkpt>
      <trkpt lat="42.036955" lon="-2.674133">
        <ele>1513.8</ele>
        <time>2021-07-02T20:51:17.000Z</time>
      </trkpt>
      <trkpt lat="42.036957" lon="-2.674132">
        <ele>1513.8</ele>
        <time>2021-07-02T20:51:18.000Z</time>
      </trkpt>
      <trkpt lat="42.036957" lon="-2.674133">
        <ele>1513.5</ele>
        <time>2021-07-02T20:51:21.000Z</time>
      </trkpt>
      <trkpt lat="42.036955" lon="-2.674128">
        <ele>1513.9</ele>
        <time>2021-07-02T20:51:23.000Z</time>
      </trkpt>
      <trkpt lat="42.036958" lon="-2.674125">
        <ele>1514.3</ele>
        <time>2021-07-02T20:51:26.000Z</time>
      </trkpt>
      <trkpt lat="42.036960" lon="-2.674118">
        <ele>1514.8</ele>
        <time>2021-07-02T20:52:31.000Z</time>
      </trkpt>
      <trkpt lat="42.036960" lon="-2.674118">
        <ele>1514.7</ele>
        <time>2021-07-02T20:52:32.000Z</time>
      </trkpt>
      <trkpt lat="42.036958" lon="-2.674113">
        <ele>1515.1</ele>
        <time>2021-07-02T20:52:34.000Z</time>
      </trkpt>
      <trkpt lat="42.036932" lon="-2.674123">
        <ele>1515.0</ele>
        <time>2021-07-02T20:52:40.000Z</time>
      </trkpt>
      <trkpt lat="42.036928" lon="-2.674125">
        <ele>1516.2</ele>
        <time>2021-07-02T20:53:12.000Z</time>
      </trkpt>
      <trkpt lat="42.036927" lon="-2.674122">
        <ele>1532.0</ele>
        <time>2021-07-02T20:53:15.000Z</time>
      </trkpt>
      <trkpt lat="42.036925" lon="-2.674122">
        <ele>1515.5</ele>
        <time>2021-07-02T20:53:55.000Z</time>
      </trkpt>
      <trkpt lat="42.036925" lon="-2.674122">
        <ele>1515.3</ele>
        <time>2021-07-02T20:53:56.000Z</time>
      </trkpt>
      <trkpt lat="42.036923" lon="-2.674120">
        <ele>1516.3</ele>
        <time>2021-07-02T20:55:03.000Z</time>
      </trkpt>
      <trkpt lat="42.036920" lon="-2.674120">
        <ele>1516.3</ele>
        <time>2021-07-02T20:55:06.000Z</time>
      </trkpt>
      <trkpt lat="42.036918" lon="-2.674120">
        <ele>1518.1</ele>
        <time>2021-07-02T20:56:50.000Z</time>
      </trkpt>
      <trkpt lat="42.036918" lon="-2.674120">
        <ele>1518.0</ele>
        <time>2021-07-02T20:56:51.000Z</time>
      </trkpt>
      <trkpt lat="42.036917" lon="-2.674120">
        <ele>1518.6</ele>
        <time>2021-07-02T20:57:39.000Z</time>
      </trkpt>
      <trkpt lat="42.036917" lon="-2.674120">
        <ele>1518.7</ele>
        <time>2021-07-02T20:57:40.000Z</time>
      </trkpt>
      <trkpt lat="42.036915" lon="-2.674120">
        <ele>1520.0</ele>
        <time>2021-07-02T20:58:44.000Z</time>
      </trkpt>
      <trkpt lat="42.036915" lon="-2.674120">
        <ele>1519.9</ele>
        <time>2021-07-02T20:58:45.000Z</time>
      </trkpt>
      <trkpt lat="42.036913" lon="-2.674120">
        <ele>1507.6</ele>
        <time>2021-07-02T20:59:08.000Z</time>
      </trkpt>
      <trkpt lat="42.036920" lon="-2.674117">
        <ele>1518.7</ele>
        <time>2021-07-02T20:59:12.000Z</time>
      </trkpt>
      <trkpt lat="42.036918" lon="-2.674118">
        <ele>1519.9</ele>
        <time>2021-07-02T20:59:13.000Z</time>
      </trkpt>
      <trkpt lat="42.036920" lon="-2.674122">
        <ele>1520.6</ele>
        <time>2021-07-02T20:59:15.000Z</time>
      </trkpt>
      <trkpt lat="42.036923" lon="-2.674123">
        <ele>1520.8</ele>
        <time>2021-07-02T20:59:20.000Z</time>
      </trkpt>
      <trkpt lat="42.036930" lon="-2.674130">
        <ele>1521.1</ele>
        <time>2021-07-02T20:59:23.000Z</time>
      </trkpt>
      <trkpt lat="42.036933" lon="-2.674137">
        <ele>1520.7</ele>
        <time>2021-07-02T20:59:24.000Z</time>
      </trkpt>
      <trkpt lat="42.036985" lon="-2.674245">
        <ele>1520.7</ele>
        <time>2021-07-02T20:59:29.000Z</time>
      </trkpt>
      <trkpt lat="42.037035" lon="-2.674348">
        <ele>1520.3</ele>
        <time>2021-07-02T20:59:32.000Z</time>
      </trkpt>
      <trkpt lat="42.037078" lon="-2.674472">
        <ele>1520.2</ele>
        <time>2021-07-02T20:59:35.000Z</time>
      </trkpt>
      <trkpt lat="42.037132" lon="-2.674607">
        <ele>1519.3</ele>
        <time>2021-07-02T20:59:38.000Z</time>
      </trkpt>
      <trkpt lat="42.037187" lon="-2.674753">
        <ele>1519.2</ele>
        <time>2021-07-02T20:59:41.000Z</time>
      </trkpt>
      <trkpt lat="42.037240" lon="-2.674895">
        <ele>1518.7</ele>
        <time>2021-07-02T20:59:44.000Z</time>
      </trkpt>
      <trkpt lat="42.037288" lon="-2.675018">
        <ele>1518.1</ele>
        <time>2021-07-02T20:59:47.000Z</time>
      </trkpt>
      <trkpt lat="42.037335" lon="-2.675123">
        <ele>1517.5</ele>
        <time>2021-07-02T20:59:50.000Z</time>
      </trkpt>
      <trkpt lat="42.037385" lon="-2.675252">
        <ele>1516.8</ele>
        <time>2021-07-02T20:59:55.000Z</time>
      </trkpt>
      <trkpt lat="42.037445" lon="-2.675383">
        <ele>1516.2</ele>
        <time>2021-07-02T21:00:00.000Z</time>
      </trkpt>
      <trkpt lat="42.037502" lon="-2.675512">
        <ele>1515.3</ele>
        <time>2021-07-02T21:00:04.000Z</time>
      </trkpt>
      <trkpt lat="42.037558" lon="-2.675638">
        <ele>1515.3</ele>
        <time>2021-07-02T21:00:08.000Z</time>
      </trkpt>
      <trkpt lat="42.037602" lon="-2.675750">
        <ele>1514.9</ele>
        <time>2021-07-02T21:00:11.000Z</time>
      </trkpt>
      <trkpt lat="42.037657" lon="-2.675873">
        <ele>1514.4</ele>
        <time>2021-07-02T21:00:15.000Z</time>
      </trkpt>
      <trkpt lat="42.037702" lon="-2.675982">
        <ele>1514.0</ele>
        <time>2021-07-02T21:00:19.000Z</time>
      </trkpt>
      <trkpt lat="42.037775" lon="-2.676090">
        <ele>1513.6</ele>
        <time>2021-07-02T21:00:24.000Z</time>
      </trkpt>
      <trkpt lat="42.037853" lon="-2.676175">
        <ele>1513.3</ele>
        <time>2021-07-02T21:00:30.000Z</time>
      </trkpt>
      <trkpt lat="42.037930" lon="-2.676247">
        <ele>1512.9</ele>
        <time>2021-07-02T21:00:37.000Z</time>
      </trkpt>
      <trkpt lat="42.037935" lon="-2.676252">
        <ele>1512.9</ele>
        <time>2021-07-02T21:00:40.000Z</time>
      </trkpt>
      <trkpt lat="42.037938" lon="-2.676252">
        <ele>1513.1</ele>
        <time>2021-07-02T21:00:51.000Z</time>
      </trkpt>
      <trkpt lat="42.038030" lon="-2.676302">
        <ele>1512.6</ele>
        <time>2021-07-02T21:00:59.000Z</time>
      </trkpt>
      <trkpt lat="42.038115" lon="-2.676353">
        <ele>1513.0</ele>
        <time>2021-07-02T21:01:06.000Z</time>
      </trkpt>
      <trkpt lat="42.038208" lon="-2.676393">
        <ele>1513.2</ele>
        <time>2021-07-02T21:01:14.000Z</time>
      </trkpt>
      <trkpt lat="42.038322" lon="-2.676407">
        <ele>1512.4</ele>
        <time>2021-07-02T21:01:19.000Z</time>
      </trkpt>
      <trkpt lat="42.038423" lon="-2.676403">
        <ele>1512.0</ele>
        <time>2021-07-02T21:01:23.000Z</time>
      </trkpt>
      <trkpt lat="42.038522" lon="-2.676402">
        <ele>1511.7</ele>
        <time>2021-07-02T21:01:29.000Z</time>
      </trkpt>
      <trkpt lat="42.038550" lon="-2.676438">
        <ele>1511.2</ele>
        <time>2021-07-02T21:01:35.000Z</time>
      </trkpt>
      <trkpt lat="42.038552" lon="-2.676442">
        <ele>1511.6</ele>
        <time>2021-07-02T21:01:47.000Z</time>
      </trkpt>
      <trkpt lat="42.038557" lon="-2.676445">
        <ele>1511.7</ele>
        <time>2021-07-02T21:01:51.000Z</time>
      </trkpt>
      <trkpt lat="42.038553" lon="-2.676452">
        <ele>1525.1</ele>
        <time>2021-07-02T21:01:55.000Z</time>
      </trkpt>
      <trkpt lat="42.038550" lon="-2.676455">
        <ele>1524.1</ele>
        <time>2021-07-02T21:01:58.000Z</time>
      </trkpt>
      <trkpt lat="42.038548" lon="-2.676458">
        <ele>1513.3</ele>
        <time>2021-07-02T21:01:59.000Z</time>
      </trkpt>
      <trkpt lat="42.038548" lon="-2.676458">
        <ele>1509.8</ele>
        <time>2021-07-02T21:02:00.000Z</time>
      </trkpt>
      <trkpt lat="42.038547" lon="-2.676462">
        <ele>1511.3</ele>
        <time>2021-07-02T21:02:30.000Z</time>
      </trkpt>
      <trkpt lat="42.038547" lon="-2.676462">
        <ele>1511.5</ele>
        <time>2021-07-02T21:02:31.000Z</time>
      </trkpt>
      <trkpt lat="42.038545" lon="-2.676465">
        <ele>1511.9</ele>
        <time>2021-07-02T21:03:05.000Z</time>
      </trkpt>
      <trkpt lat="42.038545" lon="-2.676465">
        <ele>1512.0</ele>
        <time>2021-07-02T21:03:06.000Z</time>
      </trkpt>
      <trkpt lat="42.038543" lon="-2.676467">
        <ele>1513.1</ele>
        <time>2021-07-02T21:04:19.000Z</time>
      </trkpt>
      <trkpt lat="42.038543" lon="-2.676467">
        <ele>1513.3</ele>
        <time>2021-07-02T21:04:20.000Z</time>
      </trkpt>
      <trkpt lat="42.038542" lon="-2.676468">
        <ele>1516.5</ele>
        <time>2021-07-02T21:08:17.000Z</time>
      </trkpt>
      <trkpt lat="42.038542" lon="-2.676468">
        <ele>1516.4</ele>
        <time>2021-07-02T21:08:18.000Z</time>
      </trkpt>
      <trkpt lat="42.038540" lon="-2.676470">
        <ele>1518.0</ele>
        <time>2021-07-02T21:10:00.000Z</time>
      </trkpt>
      <trkpt lat="42.038540" lon="-2.676470">
        <ele>1518.0</ele>
        <time>2021-07-02T21:10:01.000Z</time>
      </trkpt>
      <trkpt lat="42.038538" lon="-2.676470">
        <ele>1520.1</ele>
        <time>2021-07-02T21:12:22.000Z</time>
      </trkpt>
      <trkpt lat="42.038538" lon="-2.676470">
        <ele>1520.1</ele>
        <time>2021-07-02T21:12:23.000Z</time>
      </trkpt>
      <trkpt lat="42.038538" lon="-2.676463">
        <ele>1506.2</ele>
        <time>2021-07-02T21:13:41.000Z</time>
      </trkpt>
      <trkpt lat="42.038538" lon="-2.676463">
        <ele>1512.5</ele>
        <time>2021-07-02T21:13:42.000Z</time>
      </trkpt>
      <trkpt lat="42.038537" lon="-2.676463">
        <ele>1518.2</ele>
        <time>2021-07-02T21:13:43.000Z</time>
      </trkpt>
      <trkpt lat="42.038458" lon="-2.676398">
        <ele>1522.7</ele>
        <time>2021-07-02T21:13:59.000Z</time>
      </trkpt>
      <trkpt lat="42.038377" lon="-2.676398">
        <ele>1523.3</ele>
        <time>2021-07-02T21:14:10.000Z</time>
      </trkpt>
      <trkpt lat="42.038372" lon="-2.676398">
        <ele>1523.4</ele>
        <time>2021-07-02T21:14:15.000Z</time>
      </trkpt>
      <trkpt lat="42.038270" lon="-2.676382">
        <ele>1524.0</ele>
        <time>2021-07-02T21:14:21.000Z</time>
      </trkpt>
      <trkpt lat="42.038182" lon="-2.676348">
        <ele>1524.0</ele>
        <time>2021-07-02T21:14:25.000Z</time>
      </trkpt>
      <trkpt lat="42.038090" lon="-2.676297">
        <ele>1525.0</ele>
        <time>2021-07-02T21:14:29.000Z</time>
      </trkpt>
      <trkpt lat="42.037998" lon="-2.676247">
        <ele>1524.4</ele>
        <time>2021-07-02T21:14:33.000Z</time>
      </trkpt>
      <trkpt lat="42.037915" lon="-2.676193">
        <ele>1524.5</ele>
        <time>2021-07-02T21:14:37.000Z</time>
      </trkpt>
      <trkpt lat="42.037828" lon="-2.676107">
        <ele>1524.8</ele>
        <time>2021-07-02T21:14:42.000Z</time>
      </trkpt>
      <trkpt lat="42.037748" lon="-2.676010">
        <ele>1525.7</ele>
        <time>2021-07-02T21:14:47.000Z</time>
      </trkpt>
      <trkpt lat="42.037683" lon="-2.675893">
        <ele>1525.9</ele>
        <time>2021-07-02T21:14:52.000Z</time>
      </trkpt>
      <trkpt lat="42.037627" lon="-2.675773">
        <ele>1526.1</ele>
        <time>2021-07-02T21:14:57.000Z</time>
      </trkpt>
      <trkpt lat="42.037580" lon="-2.675643">
        <ele>1526.6</ele>
        <time>2021-07-02T21:15:02.000Z</time>
      </trkpt>
      <trkpt lat="42.037532" lon="-2.675520">
        <ele>1527.5</ele>
        <time>2021-07-02T21:15:07.000Z</time>
      </trkpt>
      <trkpt lat="42.037485" lon="-2.675395">
        <ele>1528.1</ele>
        <time>2021-07-02T21:15:12.000Z</time>
      </trkpt>
      <trkpt lat="42.037443" lon="-2.675278">
        <ele>1528.7</ele>
        <time>2021-07-02T21:15:17.000Z</time>
      </trkpt>
      <trkpt lat="42.037398" lon="-2.675170">
        <ele>1528.7</ele>
        <time>2021-07-02T21:15:22.000Z</time>
      </trkpt>
      <trkpt lat="42.037350" lon="-2.675065">
        <ele>1529.5</ele>
        <time>2021-07-02T21:15:27.000Z</time>
      </trkpt>
      <trkpt lat="42.037302" lon="-2.674937">
        <ele>1530.6</ele>
        <time>2021-07-02T21:15:33.000Z</time>
      </trkpt>
      <trkpt lat="42.037250" lon="-2.674817">
        <ele>1530.8</ele>
        <time>2021-07-02T21:15:39.000Z</time>
      </trkpt>
      <trkpt lat="42.037208" lon="-2.674685">
        <ele>1531.3</ele>
        <time>2021-07-02T21:15:45.000Z</time>
      </trkpt>
      <trkpt lat="42.037157" lon="-2.674567">
        <ele>1531.7</ele>
        <time>2021-07-02T21:15:51.000Z</time>
      </trkpt>
      <trkpt lat="42.037110" lon="-2.674460">
        <ele>1532.4</ele>
        <time>2021-07-02T21:15:56.000Z</time>
      </trkpt>
      <trkpt lat="42.037060" lon="-2.674347">
        <ele>1532.9</ele>
        <time>2021-07-02T21:16:01.000Z</time>
      </trkpt>
      <trkpt lat="42.037008" lon="-2.674245">
        <ele>1533.3</ele>
        <time>2021-07-02T21:16:06.000Z</time>
      </trkpt>
      <trkpt lat="42.036955" lon="-2.674118">
        <ele>1533.9</ele>
        <time>2021-07-02T21:16:12.000Z</time>
      </trkpt>
      <trkpt lat="42.036902" lon="-2.674018">
        <ele>1534.4</ele>
        <time>2021-07-02T21:16:17.000Z</time>
      </trkpt>
      <trkpt lat="42.036840" lon="-2.673923">
        <ele>1534.7</ele>
        <time>2021-07-02T21:16:22.000Z</time>
      </trkpt>
      <trkpt lat="42.036775" lon="-2.673812">
        <ele>1535.3</ele>
        <time>2021-07-02T21:16:28.000Z</time>
      </trkpt>
      <trkpt lat="42.036700" lon="-2.673717">
        <ele>1536.1</ele>
        <time>2021-07-02T21:16:34.000Z</time>
      </trkpt>
      <trkpt lat="42.036625" lon="-2.673620">
        <ele>1536.6</ele>
        <time>2021-07-02T21:16:40.000Z</time>
      </trkpt>
      <trkpt lat="42.036558" lon="-2.673532">
        <ele>1536.9</ele>
        <time>2021-07-02T21:16:45.000Z</time>
      </trkpt>
      <trkpt lat="42.036482" lon="-2.673442">
        <ele>1537.2</ele>
        <time>2021-07-02T21:16:50.000Z</time>
      </trkpt>
      <trkpt lat="42.036402" lon="-2.673360">
        <ele>1537.6</ele>
        <time>2021-07-02T21:16:55.000Z</time>
      </trkpt>
      <trkpt lat="42.036317" lon="-2.673287">
        <ele>1538.3</ele>
        <time>2021-07-02T21:17:00.000Z</time>
      </trkpt>
      <trkpt lat="42.036228" lon="-2.673218">
        <ele>1538.6</ele>
        <time>2021-07-02T21:17:05.000Z</time>
      </trkpt>
      <trkpt lat="42.036132" lon="-2.673162">
        <ele>1538.8</ele>
        <time>2021-07-02T21:17:10.000Z</time>
      </trkpt>
      <trkpt lat="42.036035" lon="-2.673115">
        <ele>1539.4</ele>
        <time>2021-07-02T21:17:15.000Z</time>
      </trkpt>
      <trkpt lat="42.035935" lon="-2.673087">
        <ele>1539.6</ele>
        <time>2021-07-02T21:17:20.000Z</time>
      </trkpt>
      <trkpt lat="42.035830" lon="-2.673067">
        <ele>1539.8</ele>
        <time>2021-07-02T21:17:26.000Z</time>
      </trkpt>
      <trkpt lat="42.035733" lon="-2.673078">
        <ele>1540.3</ele>
        <time>2021-07-02T21:17:31.000Z</time>
      </trkpt>
      <trkpt lat="42.035650" lon="-2.673127">
        <ele>1540.5</ele>
        <time>2021-07-02T21:17:36.000Z</time>
      </trkpt>
      <trkpt lat="42.035582" lon="-2.673218">
        <ele>1541.7</ele>
        <time>2021-07-02T21:17:42.000Z</time>
      </trkpt>
      <trkpt lat="42.035522" lon="-2.673322">
        <ele>1542.0</ele>
        <time>2021-07-02T21:17:47.000Z</time>
      </trkpt>
      <trkpt lat="42.035462" lon="-2.673427">
        <ele>1542.7</ele>
        <time>2021-07-02T21:17:52.000Z</time>
      </trkpt>
      <trkpt lat="42.035410" lon="-2.673533">
        <ele>1543.2</ele>
        <time>2021-07-02T21:17:57.000Z</time>
      </trkpt>
      <trkpt lat="42.035368" lon="-2.673650">
        <ele>1543.3</ele>
        <time>2021-07-02T21:18:02.000Z</time>
      </trkpt>
      <trkpt lat="42.035322" lon="-2.673773">
        <ele>1543.8</ele>
        <time>2021-07-02T21:18:07.000Z</time>
      </trkpt>
      <trkpt lat="42.035268" lon="-2.673892">
        <ele>1544.3</ele>
        <time>2021-07-02T21:18:12.000Z</time>
      </trkpt>
      <trkpt lat="42.035210" lon="-2.674007">
        <ele>1544.9</ele>
        <time>2021-07-02T21:18:17.000Z</time>
      </trkpt>
      <trkpt lat="42.035130" lon="-2.674095">
        <ele>1544.5</ele>
        <time>2021-07-02T21:18:22.000Z</time>
      </trkpt>
      <trkpt lat="42.035052" lon="-2.674193">
        <ele>1545.2</ele>
        <time>2021-07-02T21:18:27.000Z</time>
      </trkpt>
      <trkpt lat="42.034972" lon="-2.674278">
        <ele>1545.8</ele>
        <time>2021-07-02T21:18:32.000Z</time>
      </trkpt>
      <trkpt lat="42.034892" lon="-2.674365">
        <ele>1546.2</ele>
        <time>2021-07-02T21:18:37.000Z</time>
      </trkpt>
      <trkpt lat="42.034808" lon="-2.674443">
        <ele>1547.0</ele>
        <time>2021-07-02T21:18:42.000Z</time>
      </trkpt>
      <trkpt lat="42.034720" lon="-2.674523">
        <ele>1547.6</ele>
        <time>2021-07-02T21:18:47.000Z</time>
      </trkpt>
      <trkpt lat="42.034635" lon="-2.674607">
        <ele>1547.7</ele>
        <time>2021-07-02T21:18:52.000Z</time>
      </trkpt>
      <trkpt lat="42.034562" lon="-2.674700">
        <ele>1548.0</ele>
        <time>2021-07-02T21:18:57.000Z</time>
      </trkpt>
      <trkpt lat="42.034495" lon="-2.674792">
        <ele>1548.3</ele>
        <time>2021-07-02T21:19:02.000Z</time>
      </trkpt>
      <trkpt lat="42.034430" lon="-2.674893">
        <ele>1548.9</ele>
        <time>2021-07-02T21:19:07.000Z</time>
      </trkpt>
      <trkpt lat="42.034373" lon="-2.675005">
        <ele>1549.5</ele>
        <time>2021-07-02T21:19:12.000Z</time>
      </trkpt>
      <trkpt lat="42.034313" lon="-2.675117">
        <ele>1549.9</ele>
        <time>2021-07-02T21:19:17.000Z</time>
      </trkpt>
      <trkpt lat="42.034247" lon="-2.675218">
        <ele>1550.2</ele>
        <time>2021-07-02T21:19:22.000Z</time>
      </trkpt>
      <trkpt lat="42.034158" lon="-2.675313">
        <ele>1550.8</ele>
        <time>2021-07-02T21:19:27.000Z</time>
      </trkpt>
      <trkpt lat="42.034082" lon="-2.675397">
        <ele>1551.1</ele>
        <time>2021-07-02T21:19:31.000Z</time>
      </trkpt>
      <trkpt lat="42.034002" lon="-2.675478">
        <ele>1551.1</ele>
        <time>2021-07-02T21:19:35.000Z</time>
      </trkpt>
      <trkpt lat="42.033933" lon="-2.675565">
        <ele>1551.4</ele>
        <time>2021-07-02T21:19:39.000Z</time>
      </trkpt>
      <trkpt lat="42.033880" lon="-2.675672">
        <ele>1551.6</ele>
        <time>2021-07-02T21:19:43.000Z</time>
      </trkpt>
      <trkpt lat="42.033852" lon="-2.675795">
        <ele>1551.7</ele>
        <time>2021-07-02T21:19:47.000Z</time>
      </trkpt>
      <trkpt lat="42.033840" lon="-2.675928">
        <ele>1552.7</ele>
        <time>2021-07-02T21:19:51.000Z</time>
      </trkpt>
      <trkpt lat="42.033842" lon="-2.676068">
        <ele>1552.4</ele>
        <time>2021-07-02T21:19:55.000Z</time>
      </trkpt>
      <trkpt lat="42.033852" lon="-2.676193">
        <ele>1552.7</ele>
        <time>2021-07-02T21:19:59.000Z</time>
      </trkpt>
      <trkpt lat="42.033862" lon="-2.676328">
        <ele>1553.4</ele>
        <time>2021-07-02T21:20:04.000Z</time>
      </trkpt>
      <trkpt lat="42.033882" lon="-2.676465">
        <ele>1553.7</ele>
        <time>2021-07-02T21:20:09.000Z</time>
      </trkpt>
      <trkpt lat="42.033903" lon="-2.676593">
        <ele>1554.6</ele>
        <time>2021-07-02T21:20:14.000Z</time>
      </trkpt>
      <trkpt lat="42.033923" lon="-2.676725">
        <ele>1555.6</ele>
        <time>2021-07-02T21:20:19.000Z</time>
      </trkpt>
      <trkpt lat="42.033940" lon="-2.676865">
        <ele>1555.8</ele>
        <time>2021-07-02T21:20:24.000Z</time>
      </trkpt>
      <trkpt lat="42.033952" lon="-2.677003">
        <ele>1556.5</ele>
        <time>2021-07-02T21:20:29.000Z</time>
      </trkpt>
      <trkpt lat="42.033952" lon="-2.677138">
        <ele>1557.1</ele>
        <time>2021-07-02T21:20:34.000Z</time>
      </trkpt>
      <trkpt lat="42.033948" lon="-2.677283">
        <ele>1557.2</ele>
        <time>2021-07-02T21:20:39.000Z</time>
      </trkpt>
      <trkpt lat="42.033933" lon="-2.677403">
        <ele>1558.0</ele>
        <time>2021-07-02T21:20:43.000Z</time>
      </trkpt>
      <trkpt lat="42.033930" lon="-2.677548">
        <ele>1558.1</ele>
        <time>2021-07-02T21:20:48.000Z</time>
      </trkpt>
      <trkpt lat="42.033917" lon="-2.677690">
        <ele>1558.8</ele>
        <time>2021-07-02T21:20:53.000Z</time>
      </trkpt>
      <trkpt lat="42.033900" lon="-2.677830">
        <ele>1559.0</ele>
        <time>2021-07-02T21:20:58.000Z</time>
      </trkpt>
      <trkpt lat="42.033895" lon="-2.677968">
        <ele>1559.6</ele>
        <time>2021-07-02T21:21:03.000Z</time>
      </trkpt>
      <trkpt lat="42.033887" lon="-2.678112">
        <ele>1559.6</ele>
        <time>2021-07-02T21:21:08.000Z</time>
      </trkpt>
      <trkpt lat="42.033873" lon="-2.678260">
        <ele>1560.5</ele>
        <time>2021-07-02T21:21:13.000Z</time>
      </trkpt>
      <trkpt lat="42.033860" lon="-2.678408">
        <ele>1560.8</ele>
        <time>2021-07-02T21:21:18.000Z</time>
      </trkpt>
      <trkpt lat="42.033843" lon="-2.678552">
        <ele>1561.3</ele>
        <time>2021-07-02T21:21:23.000Z</time>
      </trkpt>
      <trkpt lat="42.033818" lon="-2.678685">
        <ele>1561.8</ele>
        <time>2021-07-02T21:21:28.000Z</time>
      </trkpt>
      <trkpt lat="42.033798" lon="-2.678815">
        <ele>1562.2</ele>
        <time>2021-07-02T21:21:33.000Z</time>
      </trkpt>
      <trkpt lat="42.033773" lon="-2.678940">
        <ele>1562.8</ele>
        <time>2021-07-02T21:21:38.000Z</time>
      </trkpt>
      <trkpt lat="42.033738" lon="-2.679052">
        <ele>1563.4</ele>
        <time>2021-07-02T21:21:43.000Z</time>
      </trkpt>
      <trkpt lat="42.033687" lon="-2.679177">
        <ele>1564.1</ele>
        <time>2021-07-02T21:21:49.000Z</time>
      </trkpt>
      <trkpt lat="42.033620" lon="-2.679292">
        <ele>1564.1</ele>
        <time>2021-07-02T21:21:55.000Z</time>
      </trkpt>
      <trkpt lat="42.033548" lon="-2.679383">
        <ele>1565.4</ele>
        <time>2021-07-02T21:22:00.000Z</time>
      </trkpt>
      <trkpt lat="42.033463" lon="-2.679457">
        <ele>1565.5</ele>
        <time>2021-07-02T21:22:05.000Z</time>
      </trkpt>
      <trkpt lat="42.033375" lon="-2.679517">
        <ele>1565.6</ele>
        <time>2021-07-02T21:22:10.000Z</time>
      </trkpt>
      <trkpt lat="42.033280" lon="-2.679575">
        <ele>1566.1</ele>
        <time>2021-07-02T21:22:15.000Z</time>
      </trkpt>
      <trkpt lat="42.033177" lon="-2.679628">
        <ele>1566.0</ele>
        <time>2021-07-02T21:22:20.000Z</time>
      </trkpt>
      <trkpt lat="42.033090" lon="-2.679662">
        <ele>1566.1</ele>
        <time>2021-07-02T21:22:24.000Z</time>
      </trkpt>
      <trkpt lat="42.032993" lon="-2.679722">
        <ele>1566.5</ele>
        <time>2021-07-02T21:22:29.000Z</time>
      </trkpt>
      <trkpt lat="42.032895" lon="-2.679770">
        <ele>1567.3</ele>
        <time>2021-07-02T21:22:34.000Z</time>
      </trkpt>
      <trkpt lat="42.032795" lon="-2.679827">
        <ele>1567.5</ele>
        <time>2021-07-02T21:22:39.000Z</time>
      </trkpt>
      <trkpt lat="42.032697" lon="-2.679878">
        <ele>1568.3</ele>
        <time>2021-07-02T21:22:44.000Z</time>
      </trkpt>
      <trkpt lat="42.032593" lon="-2.679923">
        <ele>1568.7</ele>
        <time>2021-07-02T21:22:49.000Z</time>
      </trkpt>
      <trkpt lat="42.032495" lon="-2.679985">
        <ele>1568.6</ele>
        <time>2021-07-02T21:22:54.000Z</time>
      </trkpt>
      <trkpt lat="42.032407" lon="-2.680022">
        <ele>1569.2</ele>
        <time>2021-07-02T21:22:58.000Z</time>
      </trkpt>
      <trkpt lat="42.032302" lon="-2.680067">
        <ele>1569.8</ele>
        <time>2021-07-02T21:23:03.000Z</time>
      </trkpt>
      <trkpt lat="42.032202" lon="-2.680102">
        <ele>1569.6</ele>
        <time>2021-07-02T21:23:08.000Z</time>
      </trkpt>
      <trkpt lat="42.032105" lon="-2.680142">
        <ele>1571.4</ele>
        <time>2021-07-02T21:23:13.000Z</time>
      </trkpt>
      <trkpt lat="42.032007" lon="-2.680178">
        <ele>1571.7</ele>
        <time>2021-07-02T21:23:18.000Z</time>
      </trkpt>
      <trkpt lat="42.031902" lon="-2.680207">
        <ele>1571.9</ele>
        <time>2021-07-02T21:23:23.000Z</time>
      </trkpt>
      <trkpt lat="42.031790" lon="-2.680217">
        <ele>1572.0</ele>
        <time>2021-07-02T21:23:28.000Z</time>
      </trkpt>
      <trkpt lat="42.031682" lon="-2.680222">
        <ele>1572.3</ele>
        <time>2021-07-02T21:23:33.000Z</time>
      </trkpt>
      <trkpt lat="42.031575" lon="-2.680228">
        <ele>1572.9</ele>
        <time>2021-07-02T21:23:38.000Z</time>
      </trkpt>
      <trkpt lat="42.031472" lon="-2.680210">
        <ele>1576.0</ele>
        <time>2021-07-02T21:23:43.000Z</time>
      </trkpt>
      <trkpt lat="42.031367" lon="-2.680185">
        <ele>1574.4</ele>
        <time>2021-07-02T21:23:48.000Z</time>
      </trkpt>
      <trkpt lat="42.031277" lon="-2.680157">
        <ele>1574.4</ele>
        <time>2021-07-02T21:23:52.000Z</time>
      </trkpt>
      <trkpt lat="42.031180" lon="-2.680115">
        <ele>1574.4</ele>
        <time>2021-07-02T21:23:56.000Z</time>
      </trkpt>
      <trkpt lat="42.031083" lon="-2.680068">
        <ele>1574.4</ele>
        <time>2021-07-02T21:24:00.000Z</time>
      </trkpt>
      <trkpt lat="42.030990" lon="-2.680025">
        <ele>1575.4</ele>
        <time>2021-07-02T21:24:04.000Z</time>
      </trkpt>
      <trkpt lat="42.030893" lon="-2.679980">
        <ele>1575.0</ele>
        <time>2021-07-02T21:24:08.000Z</time>
      </trkpt>
      <trkpt lat="42.030790" lon="-2.679933">
        <ele>1576.0</ele>
        <time>2021-07-02T21:24:12.000Z</time>
      </trkpt>
      <trkpt lat="42.030687" lon="-2.679892">
        <ele>1575.4</ele>
        <time>2021-07-02T21:24:16.000Z</time>
      </trkpt>
      <trkpt lat="42.030585" lon="-2.679847">
        <ele>1576.3</ele>
        <time>2021-07-02T21:24:20.000Z</time>
      </trkpt>
      <trkpt lat="42.030487" lon="-2.679777">
        <ele>1576.1</ele>
        <time>2021-07-02T21:24:25.000Z</time>
      </trkpt>
      <trkpt lat="42.030402" lon="-2.679698">
        <ele>1577.2</ele>
        <time>2021-07-02T21:24:30.000Z</time>
      </trkpt>
      <trkpt lat="42.030328" lon="-2.679613">
        <ele>1578.1</ele>
        <time>2021-07-02T21:24:35.000Z</time>
      </trkpt>
      <trkpt lat="42.030255" lon="-2.679518">
        <ele>1578.4</ele>
        <time>2021-07-02T21:24:40.000Z</time>
      </trkpt>
      <trkpt lat="42.030192" lon="-2.679412">
        <ele>1578.8</ele>
        <time>2021-07-02T21:24:45.000Z</time>
      </trkpt>
      <trkpt lat="42.030140" lon="-2.679302">
        <ele>1579.3</ele>
        <time>2021-07-02T21:24:50.000Z</time>
      </trkpt>
      <trkpt lat="42.030092" lon="-2.679178">
        <ele>1579.9</ele>
        <time>2021-07-02T21:24:55.000Z</time>
      </trkpt>
      <trkpt lat="42.030042" lon="-2.679053">
        <ele>1580.4</ele>
        <time>2021-07-02T21:25:00.000Z</time>
      </trkpt>
      <trkpt lat="42.029985" lon="-2.678932">
        <ele>1580.7</ele>
        <time>2021-07-02T21:25:05.000Z</time>
      </trkpt>
      <trkpt lat="42.029925" lon="-2.678810">
        <ele>1581.3</ele>
        <time>2021-07-02T21:25:10.000Z</time>
      </trkpt>
      <trkpt lat="42.029867" lon="-2.678693">
        <ele>1581.7</ele>
        <time>2021-07-02T21:25:15.000Z</time>
      </trkpt>
      <trkpt lat="42.029822" lon="-2.678585">
        <ele>1581.6</ele>
        <time>2021-07-02T21:25:20.000Z</time>
      </trkpt>
      <trkpt lat="42.029770" lon="-2.678472">
        <ele>1583.2</ele>
        <time>2021-07-02T21:25:25.000Z</time>
      </trkpt>
      <trkpt lat="42.029717" lon="-2.678362">
        <ele>1583.6</ele>
        <time>2021-07-02T21:25:30.000Z</time>
      </trkpt>
      <trkpt lat="42.029660" lon="-2.678245">
        <ele>1584.2</ele>
        <time>2021-07-02T21:25:35.000Z</time>
      </trkpt>
      <trkpt lat="42.029615" lon="-2.678132">
        <ele>1584.2</ele>
        <time>2021-07-02T21:25:40.000Z</time>
      </trkpt>
      <trkpt lat="42.029570" lon="-2.678002">
        <ele>1585.2</ele>
        <time>2021-07-02T21:25:46.000Z</time>
      </trkpt>
      <trkpt lat="42.029522" lon="-2.677883">
        <ele>1586.7</ele>
        <time>2021-07-02T21:25:52.000Z</time>
      </trkpt>
      <trkpt lat="42.029483" lon="-2.677760">
        <ele>1587.7</ele>
        <time>2021-07-02T21:25:58.000Z</time>
      </trkpt>
      <trkpt lat="42.029432" lon="-2.677645">
        <ele>1588.8</ele>
        <time>2021-07-02T21:26:04.000Z</time>
      </trkpt>
      <trkpt lat="42.029378" lon="-2.677545">
        <ele>1588.3</ele>
        <time>2021-07-02T21:26:09.000Z</time>
      </trkpt>
      <trkpt lat="42.029322" lon="-2.677447">
        <ele>1588.4</ele>
        <time>2021-07-02T21:26:14.000Z</time>
      </trkpt>
      <trkpt lat="42.029263" lon="-2.677345">
        <ele>1589.1</ele>
        <time>2021-07-02T21:26:19.000Z</time>
      </trkpt>
      <trkpt lat="42.029195" lon="-2.677230">
        <ele>1589.5</ele>
        <time>2021-07-02T21:26:25.000Z</time>
      </trkpt>
      <trkpt lat="42.029133" lon="-2.677137">
        <ele>1589.9</ele>
        <time>2021-07-02T21:26:30.000Z</time>
      </trkpt>
      <trkpt lat="42.029068" lon="-2.677048">
        <ele>1590.0</ele>
        <time>2021-07-02T21:26:35.000Z</time>
      </trkpt>
      <trkpt lat="42.028995" lon="-2.676958">
        <ele>1590.7</ele>
        <time>2021-07-02T21:26:40.000Z</time>
      </trkpt>
      <trkpt lat="42.028913" lon="-2.676863">
        <ele>1590.9</ele>
        <time>2021-07-02T21:26:45.000Z</time>
      </trkpt>
      <trkpt lat="42.028833" lon="-2.676765">
        <ele>1591.6</ele>
        <time>2021-07-02T21:26:50.000Z</time>
      </trkpt>
      <trkpt lat="42.028748" lon="-2.676672">
        <ele>1591.4</ele>
        <time>2021-07-02T21:26:55.000Z</time>
      </trkpt>
      <trkpt lat="42.028662" lon="-2.676593">
        <ele>1591.5</ele>
        <time>2021-07-02T21:27:00.000Z</time>
      </trkpt>
      <trkpt lat="42.028583" lon="-2.676512">
        <ele>1592.4</ele>
        <time>2021-07-02T21:27:05.000Z</time>
      </trkpt>
      <trkpt lat="42.028502" lon="-2.676435">
        <ele>1592.4</ele>
        <time>2021-07-02T21:27:10.000Z</time>
      </trkpt>
      <trkpt lat="42.028418" lon="-2.676360">
        <ele>1592.9</ele>
        <time>2021-07-02T21:27:15.000Z</time>
      </trkpt>
      <trkpt lat="42.028328" lon="-2.676287">
        <ele>1593.9</ele>
        <time>2021-07-02T21:27:21.000Z</time>
      </trkpt>
      <trkpt lat="42.028252" lon="-2.676218">
        <ele>1594.0</ele>
        <time>2021-07-02T21:27:26.000Z</time>
      </trkpt>
      <trkpt lat="42.028175" lon="-2.676152">
        <ele>1595.2</ele>
        <time>2021-07-02T21:27:31.000Z</time>
      </trkpt>
      <trkpt lat="42.028087" lon="-2.676072">
        <ele>1594.8</ele>
        <time>2021-07-02T21:27:37.000Z</time>
      </trkpt>
      <trkpt lat="42.028007" lon="-2.676000">
        <ele>1595.2</ele>
        <time>2021-07-02T21:27:42.000Z</time>
      </trkpt>
      <trkpt lat="42.027918" lon="-2.675922">
        <ele>1596.3</ele>
        <time>2021-07-02T21:27:48.000Z</time>
      </trkpt>
      <trkpt lat="42.027835" lon="-2.675842">
        <ele>1596.7</ele>
        <time>2021-07-02T21:27:53.000Z</time>
      </trkpt>
      <trkpt lat="42.027760" lon="-2.675773">
        <ele>1596.4</ele>
        <time>2021-07-02T21:27:57.000Z</time>
      </trkpt>
      <trkpt lat="42.027688" lon="-2.675693">
        <ele>1596.4</ele>
        <time>2021-07-02T21:28:01.000Z</time>
      </trkpt>
      <trkpt lat="42.027615" lon="-2.675608">
        <ele>1596.5</ele>
        <time>2021-07-02T21:28:05.000Z</time>
      </trkpt>
      <trkpt lat="42.027542" lon="-2.675502">
        <ele>1597.7</ele>
        <time>2021-07-02T21:28:10.000Z</time>
      </trkpt>
      <trkpt lat="42.027478" lon="-2.675390">
        <ele>1597.9</ele>
        <time>2021-07-02T21:28:15.000Z</time>
      </trkpt>
      <trkpt lat="42.027417" lon="-2.675270">
        <ele>1597.7</ele>
        <time>2021-07-02T21:28:20.000Z</time>
      </trkpt>
      <trkpt lat="42.027362" lon="-2.675153">
        <ele>1598.3</ele>
        <time>2021-07-02T21:28:25.000Z</time>
      </trkpt>
      <trkpt lat="42.027305" lon="-2.675033">
        <ele>1598.8</ele>
        <time>2021-07-02T21:28:30.000Z</time>
      </trkpt>
      <trkpt lat="42.027248" lon="-2.674912">
        <ele>1598.2</ele>
        <time>2021-07-02T21:28:35.000Z</time>
      </trkpt>
      <trkpt lat="42.027190" lon="-2.674792">
        <ele>1598.7</ele>
        <time>2021-07-02T21:28:40.000Z</time>
      </trkpt>
      <trkpt lat="42.027132" lon="-2.674682">
        <ele>1599.3</ele>
        <time>2021-07-02T21:28:45.000Z</time>
      </trkpt>
      <trkpt lat="42.027065" lon="-2.674575">
        <ele>1599.6</ele>
        <time>2021-07-02T21:28:50.000Z</time>
      </trkpt>
      <trkpt lat="42.026990" lon="-2.674478">
        <ele>1600.1</ele>
        <time>2021-07-02T21:28:55.000Z</time>
      </trkpt>
      <trkpt lat="42.026897" lon="-2.674418">
        <ele>1600.5</ele>
        <time>2021-07-02T21:29:00.000Z</time>
      </trkpt>
      <trkpt lat="42.026783" lon="-2.674418">
        <ele>1601.0</ele>
        <time>2021-07-02T21:29:05.000Z</time>
      </trkpt>
      <trkpt lat="42.026692" lon="-2.674448">
        <ele>1601.5</ele>
        <time>2021-07-02T21:29:09.000Z</time>
      </trkpt>
      <trkpt lat="42.026590" lon="-2.674488">
        <ele>1602.1</ele>
        <time>2021-07-02T21:29:14.000Z</time>
      </trkpt>
      <trkpt lat="42.026490" lon="-2.674533">
        <ele>1602.6</ele>
        <time>2021-07-02T21:29:19.000Z</time>
      </trkpt>
      <trkpt lat="42.026402" lon="-2.674570">
        <ele>1602.3</ele>
        <time>2021-07-02T21:29:23.000Z</time>
      </trkpt>
      <trkpt lat="42.026310" lon="-2.674607">
        <ele>1602.7</ele>
        <time>2021-07-02T21:29:27.000Z</time>
      </trkpt>
      <trkpt lat="42.026217" lon="-2.674642">
        <ele>1603.5</ele>
        <time>2021-07-02T21:29:31.000Z</time>
      </trkpt>
      <trkpt lat="42.026125" lon="-2.674672">
        <ele>1602.3</ele>
        <time>2021-07-02T21:29:35.000Z</time>
      </trkpt>
      <trkpt lat="42.026020" lon="-2.674725">
        <ele>1603.5</ele>
        <time>2021-07-02T21:29:40.000Z</time>
      </trkpt>
      <trkpt lat="42.025920" lon="-2.674777">
        <ele>1603.5</ele>
        <time>2021-07-02T21:29:45.000Z</time>
      </trkpt>
      <trkpt lat="42.025820" lon="-2.674825">
        <ele>1604.1</ele>
        <time>2021-07-02T21:29:50.000Z</time>
      </trkpt>
      <trkpt lat="42.025722" lon="-2.674868">
        <ele>1604.1</ele>
        <time>2021-07-02T21:29:55.000Z</time>
      </trkpt>
      <trkpt lat="42.025623" lon="-2.674893">
        <ele>1605.1</ele>
        <time>2021-07-02T21:30:00.000Z</time>
      </trkpt>
      <trkpt lat="42.025543" lon="-2.674902">
        <ele>1604.6</ele>
        <time>2021-07-02T21:30:07.000Z</time>
      </trkpt>
      <trkpt lat="42.025542" lon="-2.674895">
        <ele>1604.0</ele>
        <time>2021-07-02T21:30:47.000Z</time>
      </trkpt>
      <trkpt lat="42.025542" lon="-2.674895">
        <ele>1604.6</ele>
        <time>2021-07-02T21:30:48.000Z</time>
      </trkpt>
      <trkpt lat="42.025537" lon="-2.674890">
        <ele>1604.0</ele>
        <time>2021-07-02T21:31:15.000Z</time>
      </trkpt>
      <trkpt lat="42.025443" lon="-2.674895">
        <ele>1604.8</ele>
        <time>2021-07-02T21:31:20.000Z</time>
      </trkpt>
      <trkpt lat="42.025327" lon="-2.674897">
        <ele>1604.1</ele>
        <time>2021-07-02T21:31:24.000Z</time>
      </trkpt>
      <trkpt lat="42.025233" lon="-2.674897">
        <ele>1604.2</ele>
        <time>2021-07-02T21:31:27.000Z</time>
      </trkpt>
      <trkpt lat="42.025133" lon="-2.674882">
        <ele>1604.0</ele>
        <time>2021-07-02T21:31:31.000Z</time>
      </trkpt>
      <trkpt lat="42.025042" lon="-2.674848">
        <ele>1605.2</ele>
        <time>2021-07-02T21:31:35.000Z</time>
      </trkpt>
      <trkpt lat="42.024937" lon="-2.674803">
        <ele>1605.3</ele>
        <time>2021-07-02T21:31:40.000Z</time>
      </trkpt>
      <trkpt lat="42.024843" lon="-2.674767">
        <ele>1605.8</ele>
        <time>2021-07-02T21:31:44.000Z</time>
      </trkpt>
      <trkpt lat="42.024757" lon="-2.674727">
        <ele>1606.0</ele>
        <time>2021-07-02T21:31:48.000Z</time>
      </trkpt>
      <trkpt lat="42.024652" lon="-2.674668">
        <ele>1606.0</ele>
        <time>2021-07-02T21:31:53.000Z</time>
      </trkpt>
      <trkpt lat="42.024557" lon="-2.674618">
        <ele>1607.3</ele>
        <time>2021-07-02T21:31:57.000Z</time>
      </trkpt>
      <trkpt lat="42.024467" lon="-2.674567">
        <ele>1607.2</ele>
        <time>2021-07-02T21:32:01.000Z</time>
      </trkpt>
      <trkpt lat="42.024380" lon="-2.674517">
        <ele>1607.0</ele>
        <time>2021-07-02T21:32:06.000Z</time>
      </trkpt>
      <trkpt lat="42.024297" lon="-2.674467">
        <ele>1607.9</ele>
        <time>2021-07-02T21:32:12.000Z</time>
      </trkpt>
      <trkpt lat="42.024200" lon="-2.674400">
        <ele>1608.9</ele>
        <time>2021-07-02T21:32:18.000Z</time>
      </trkpt>
      <trkpt lat="42.024117" lon="-2.674337">
        <ele>1609.0</ele>
        <time>2021-07-02T21:32:23.000Z</time>
      </trkpt>
      <trkpt lat="42.024032" lon="-2.674267">
        <ele>1609.2</ele>
        <time>2021-07-02T21:32:28.000Z</time>
      </trkpt>
      <trkpt lat="42.023950" lon="-2.674193">
        <ele>1609.8</ele>
        <time>2021-07-02T21:32:33.000Z</time>
      </trkpt>
      <trkpt lat="42.023868" lon="-2.674120">
        <ele>1610.1</ele>
        <time>2021-07-02T21:32:38.000Z</time>
      </trkpt>
      <trkpt lat="42.023790" lon="-2.674033">
        <ele>1610.6</ele>
        <time>2021-07-02T21:32:43.000Z</time>
      </trkpt>
      <trkpt lat="42.023702" lon="-2.673945">
        <ele>1610.6</ele>
        <time>2021-07-02T21:32:48.000Z</time>
      </trkpt>
      <trkpt lat="42.023620" lon="-2.673875">
        <ele>1611.0</ele>
        <time>2021-07-02T21:32:53.000Z</time>
      </trkpt>
      <trkpt lat="42.023545" lon="-2.673800">
        <ele>1611.2</ele>
        <time>2021-07-02T21:32:58.000Z</time>
      </trkpt>
      <trkpt lat="42.023472" lon="-2.673715">
        <ele>1611.5</ele>
        <time>2021-07-02T21:33:03.000Z</time>
      </trkpt>
      <trkpt lat="42.023407" lon="-2.673618">
        <ele>1611.7</ele>
        <time>2021-07-02T21:33:08.000Z</time>
      </trkpt>
      <trkpt lat="42.023338" lon="-2.673518">
        <ele>1612.7</ele>
        <time>2021-07-02T21:33:13.000Z</time>
      </trkpt>
      <trkpt lat="42.023275" lon="-2.673417">
        <ele>1612.4</ele>
        <time>2021-07-02T21:33:18.000Z</time>
      </trkpt>
      <trkpt lat="42.023212" lon="-2.673327">
        <ele>1613.2</ele>
        <time>2021-07-02T21:33:23.000Z</time>
      </trkpt>
      <trkpt lat="42.023153" lon="-2.673233">
        <ele>1613.3</ele>
        <time>2021-07-02T21:33:28.000Z</time>
      </trkpt>
      <trkpt lat="42.023092" lon="-2.673143">
        <ele>1613.5</ele>
        <time>2021-07-02T21:33:33.000Z</time>
      </trkpt>
      <trkpt lat="42.023027" lon="-2.673035">
        <ele>1614.1</ele>
        <time>2021-07-02T21:33:39.000Z</time>
      </trkpt>
      <trkpt lat="42.022953" lon="-2.672937">
        <ele>1614.2</ele>
        <time>2021-07-02T21:33:45.000Z</time>
      </trkpt>
      <trkpt lat="42.022892" lon="-2.672845">
        <ele>1614.6</ele>
        <time>2021-07-02T21:33:50.000Z</time>
      </trkpt>
      <trkpt lat="42.022823" lon="-2.672750">
        <ele>1614.7</ele>
        <time>2021-07-02T21:33:55.000Z</time>
      </trkpt>
      <trkpt lat="42.022753" lon="-2.672658">
        <ele>1615.2</ele>
        <time>2021-07-02T21:34:00.000Z</time>
      </trkpt>
      <trkpt lat="42.022672" lon="-2.672563">
        <ele>1615.4</ele>
        <time>2021-07-02T21:34:05.000Z</time>
      </trkpt>
      <trkpt lat="42.022595" lon="-2.672473">
        <ele>1615.7</ele>
        <time>2021-07-02T21:34:10.000Z</time>
      </trkpt>
      <trkpt lat="42.022515" lon="-2.672388">
        <ele>1616.0</ele>
        <time>2021-07-02T21:34:15.000Z</time>
      </trkpt>
      <trkpt lat="42.022423" lon="-2.672305">
        <ele>1615.8</ele>
        <time>2021-07-02T21:34:20.000Z</time>
      </trkpt>
      <trkpt lat="42.022340" lon="-2.672247">
        <ele>1616.0</ele>
        <time>2021-07-02T21:34:25.000Z</time>
      </trkpt>
      <trkpt lat="42.022255" lon="-2.672188">
        <ele>1616.4</ele>
        <time>2021-07-02T21:34:30.000Z</time>
      </trkpt>
      <trkpt lat="42.022177" lon="-2.672123">
        <ele>1616.2</ele>
        <time>2021-07-02T21:34:35.000Z</time>
      </trkpt>
      <trkpt lat="42.022100" lon="-2.672053">
        <ele>1617.2</ele>
        <time>2021-07-02T21:34:40.000Z</time>
      </trkpt>
      <trkpt lat="42.022023" lon="-2.671967">
        <ele>1616.8</ele>
        <time>2021-07-02T21:34:45.000Z</time>
      </trkpt>
      <trkpt lat="42.021952" lon="-2.671863">
        <ele>1617.6</ele>
        <time>2021-07-02T21:34:50.000Z</time>
      </trkpt>
      <trkpt lat="42.021890" lon="-2.671768">
        <ele>1618.0</ele>
        <time>2021-07-02T21:34:55.000Z</time>
      </trkpt>
      <trkpt lat="42.021825" lon="-2.671680">
        <ele>1618.3</ele>
        <time>2021-07-02T21:35:00.000Z</time>
      </trkpt>
      <trkpt lat="42.021755" lon="-2.671570">
        <ele>1619.2</ele>
        <time>2021-07-02T21:35:06.000Z</time>
      </trkpt>
      <trkpt lat="42.021692" lon="-2.671468">
        <ele>1619.8</ele>
        <time>2021-07-02T21:35:11.000Z</time>
      </trkpt>
      <trkpt lat="42.021627" lon="-2.671352">
        <ele>1619.7</ele>
        <time>2021-07-02T21:35:17.000Z</time>
      </trkpt>
      <trkpt lat="42.021568" lon="-2.671242">
        <ele>1620.0</ele>
        <time>2021-07-02T21:35:23.000Z</time>
      </trkpt>
      <trkpt lat="42.021505" lon="-2.671132">
        <ele>1621.5</ele>
        <time>2021-07-02T21:35:29.000Z</time>
      </trkpt>
      <trkpt lat="42.021435" lon="-2.671043">
        <ele>1622.1</ele>
        <time>2021-07-02T21:35:35.000Z</time>
      </trkpt>
      <trkpt lat="42.021332" lon="-2.671037">
        <ele>1622.9</ele>
        <time>2021-07-02T21:35:42.000Z</time>
      </trkpt>
      <trkpt lat="42.021262" lon="-2.671132">
        <ele>1623.2</ele>
        <time>2021-07-02T21:35:47.000Z</time>
      </trkpt>
      <trkpt lat="42.021227" lon="-2.671258">
        <ele>1623.3</ele>
        <time>2021-07-02T21:35:52.000Z</time>
      </trkpt>
      <trkpt lat="42.021210" lon="-2.671398">
        <ele>1623.4</ele>
        <time>2021-07-02T21:35:58.000Z</time>
      </trkpt>
      <trkpt lat="42.021195" lon="-2.671530">
        <ele>1624.1</ele>
        <time>2021-07-02T21:36:04.000Z</time>
      </trkpt>
      <trkpt lat="42.021192" lon="-2.671668">
        <ele>1625.3</ele>
        <time>2021-07-02T21:36:10.000Z</time>
      </trkpt>
      <trkpt lat="42.021195" lon="-2.671812">
        <ele>1624.7</ele>
        <time>2021-07-02T21:36:16.000Z</time>
      </trkpt>
      <trkpt lat="42.021193" lon="-2.671935">
        <ele>1625.7</ele>
        <time>2021-07-02T21:36:21.000Z</time>
      </trkpt>
      <trkpt lat="42.021193" lon="-2.672067">
        <ele>1626.1</ele>
        <time>2021-07-02T21:36:27.000Z</time>
      </trkpt>
      <trkpt lat="42.021197" lon="-2.672197">
        <ele>1626.4</ele>
        <time>2021-07-02T21:36:33.000Z</time>
      </trkpt>
      <trkpt lat="42.021192" lon="-2.672318">
        <ele>1626.9</ele>
        <time>2021-07-02T21:36:38.000Z</time>
      </trkpt>
      <trkpt lat="42.021190" lon="-2.672450">
        <ele>1628.2</ele>
        <time>2021-07-02T21:36:43.000Z</time>
      </trkpt>
      <trkpt lat="42.021197" lon="-2.672583">
        <ele>1627.4</ele>
        <time>2021-07-02T21:36:48.000Z</time>
      </trkpt>
      <trkpt lat="42.021202" lon="-2.672728">
        <ele>1628.6</ele>
        <time>2021-07-02T21:36:53.000Z</time>
      </trkpt>
      <trkpt lat="42.021205" lon="-2.672858">
        <ele>1627.5</ele>
        <time>2021-07-02T21:36:58.000Z</time>
      </trkpt>
      <trkpt lat="42.021205" lon="-2.673002">
        <ele>1628.0</ele>
        <time>2021-07-02T21:37:03.000Z</time>
      </trkpt>
      <trkpt lat="42.021197" lon="-2.673135">
        <ele>1626.2</ele>
        <time>2021-07-02T21:37:07.000Z</time>
      </trkpt>
      <trkpt lat="42.021187" lon="-2.673285">
        <ele>1627.8</ele>
        <time>2021-07-02T21:37:12.000Z</time>
      </trkpt>
      <trkpt lat="42.021180" lon="-2.673428">
        <ele>1627.9</ele>
        <time>2021-07-02T21:37:17.000Z</time>
      </trkpt>
      <trkpt lat="42.021185" lon="-2.673550">
        <ele>1628.1</ele>
        <time>2021-07-02T21:37:21.000Z</time>
      </trkpt>
      <trkpt lat="42.021177" lon="-2.673693">
        <ele>1628.7</ele>
        <time>2021-07-02T21:37:26.000Z</time>
      </trkpt>
      <trkpt lat="42.021163" lon="-2.673827">
        <ele>1629.8</ele>
        <time>2021-07-02T21:37:31.000Z</time>
      </trkpt>
      <trkpt lat="42.021150" lon="-2.673950">
        <ele>1629.8</ele>
        <time>2021-07-02T21:37:36.000Z</time>
      </trkpt>
      <trkpt lat="42.021145" lon="-2.674073">
        <ele>1628.9</ele>
        <time>2021-07-02T21:37:41.000Z</time>
      </trkpt>
      <trkpt lat="42.021127" lon="-2.674195">
        <ele>1630.2</ele>
        <time>2021-07-02T21:37:46.000Z</time>
      </trkpt>
      <trkpt lat="42.021120" lon="-2.674328">
        <ele>1630.4</ele>
        <time>2021-07-02T21:37:51.000Z</time>
      </trkpt>
      <trkpt lat="42.021110" lon="-2.674455">
        <ele>1630.5</ele>
        <time>2021-07-02T21:37:56.000Z</time>
      </trkpt>
      <trkpt lat="42.021102" lon="-2.674588">
        <ele>1630.4</ele>
        <time>2021-07-02T21:38:01.000Z</time>
      </trkpt>
      <trkpt lat="42.021097" lon="-2.674722">
        <ele>1630.6</ele>
        <time>2021-07-02T21:38:06.000Z</time>
      </trkpt>
      <trkpt lat="42.021093" lon="-2.674848">
        <ele>1631.3</ele>
        <time>2021-07-02T21:38:11.000Z</time>
      </trkpt>
      <trkpt lat="42.021090" lon="-2.674975">
        <ele>1632.4</ele>
        <time>2021-07-02T21:38:16.000Z</time>
      </trkpt>
      <trkpt lat="42.021078" lon="-2.675102">
        <ele>1631.4</ele>
        <time>2021-07-02T21:38:21.000Z</time>
      </trkpt>
      <trkpt lat="42.021075" lon="-2.675233">
        <ele>1631.9</ele>
        <time>2021-07-02T21:38:26.000Z</time>
      </trkpt>
      <trkpt lat="42.021075" lon="-2.675368">
        <ele>1633.3</ele>
        <time>2021-07-02T21:38:31.000Z</time>
      </trkpt>
      <trkpt lat="42.021080" lon="-2.675505">
        <ele>1632.9</ele>
        <time>2021-07-02T21:38:36.000Z</time>
      </trkpt>
      <trkpt lat="42.021070" lon="-2.675630">
        <ele>1633.6</ele>
        <time>2021-07-02T21:38:41.000Z</time>
      </trkpt>
      <trkpt lat="42.021070" lon="-2.675757">
        <ele>1633.6</ele>
        <time>2021-07-02T21:38:46.000Z</time>
      </trkpt>
      <trkpt lat="42.021065" lon="-2.675897">
        <ele>1633.8</ele>
        <time>2021-07-02T21:38:52.000Z</time>
      </trkpt>
      <trkpt lat="42.021045" lon="-2.676020">
        <ele>1635.3</ele>
        <time>2021-07-02T21:38:57.000Z</time>
      </trkpt>
      <trkpt lat="42.021043" lon="-2.676150">
        <ele>1634.9</ele>
        <time>2021-07-02T21:39:02.000Z</time>
      </trkpt>
      <trkpt lat="42.021047" lon="-2.676275">
        <ele>1635.7</ele>
        <time>2021-07-02T21:39:07.000Z</time>
      </trkpt>
      <trkpt lat="42.021040" lon="-2.676398">
        <ele>1637.1</ele>
        <time>2021-07-02T21:39:12.000Z</time>
      </trkpt>
      <trkpt lat="42.021053" lon="-2.676537">
        <ele>1636.8</ele>
        <time>2021-07-02T21:39:18.000Z</time>
      </trkpt>
      <trkpt lat="42.021067" lon="-2.676660">
        <ele>1637.1</ele>
        <time>2021-07-02T21:39:23.000Z</time>
      </trkpt>
      <trkpt lat="42.021080" lon="-2.676783">
        <ele>1637.7</ele>
        <time>2021-07-02T21:39:28.000Z</time>
      </trkpt>
      <trkpt lat="42.021103" lon="-2.676903">
        <ele>1637.7</ele>
        <time>2021-07-02T21:39:33.000Z</time>
      </trkpt>
      <trkpt lat="42.021130" lon="-2.677025">
        <ele>1637.1</ele>
        <time>2021-07-02T21:39:38.000Z</time>
      </trkpt>
      <trkpt lat="42.021157" lon="-2.677143">
        <ele>1637.8</ele>
        <time>2021-07-02T21:39:43.000Z</time>
      </trkpt>
      <trkpt lat="42.021188" lon="-2.677260">
        <ele>1637.9</ele>
        <time>2021-07-02T21:39:48.000Z</time>
      </trkpt>
      <trkpt lat="42.021210" lon="-2.677378">
        <ele>1638.3</ele>
        <time>2021-07-02T21:39:53.000Z</time>
      </trkpt>
      <trkpt lat="42.021247" lon="-2.677505">
        <ele>1638.8</ele>
        <time>2021-07-02T21:39:59.000Z</time>
      </trkpt>
      <trkpt lat="42.021273" lon="-2.677643">
        <ele>1639.6</ele>
        <time>2021-07-02T21:40:05.000Z</time>
      </trkpt>
      <trkpt lat="42.021305" lon="-2.677775">
        <ele>1639.8</ele>
        <time>2021-07-02T21:40:11.000Z</time>
      </trkpt>
      <trkpt lat="42.021340" lon="-2.677887">
        <ele>1640.7</ele>
        <time>2021-07-02T21:40:16.000Z</time>
      </trkpt>
      <trkpt lat="42.021378" lon="-2.678018">
        <ele>1640.5</ele>
        <time>2021-07-02T21:40:22.000Z</time>
      </trkpt>
      <trkpt lat="42.021408" lon="-2.678138">
        <ele>1641.0</ele>
        <time>2021-07-02T21:40:27.000Z</time>
      </trkpt>
      <trkpt lat="42.021437" lon="-2.678262">
        <ele>1641.9</ele>
        <time>2021-07-02T21:40:32.000Z</time>
      </trkpt>
      <trkpt lat="42.021462" lon="-2.678400">
        <ele>1642.0</ele>
        <time>2021-07-02T21:40:38.000Z</time>
      </trkpt>
      <trkpt lat="42.021505" lon="-2.678528">
        <ele>1643.1</ele>
        <time>2021-07-02T21:40:44.000Z</time>
      </trkpt>
      <trkpt lat="42.021547" lon="-2.678645">
        <ele>1643.1</ele>
        <time>2021-07-02T21:40:50.000Z</time>
      </trkpt>
      <trkpt lat="42.021583" lon="-2.678770">
        <ele>1643.9</ele>
        <time>2021-07-02T21:40:56.000Z</time>
      </trkpt>
      <trkpt lat="42.021627" lon="-2.678882">
        <ele>1644.3</ele>
        <time>2021-07-02T21:41:01.000Z</time>
      </trkpt>
      <trkpt lat="42.021660" lon="-2.679000">
        <ele>1644.8</ele>
        <time>2021-07-02T21:41:06.000Z</time>
      </trkpt>
      <trkpt lat="42.021693" lon="-2.679125">
        <ele>1644.9</ele>
        <time>2021-07-02T21:41:12.000Z</time>
      </trkpt>
      <trkpt lat="42.021722" lon="-2.679243">
        <ele>1645.1</ele>
        <time>2021-07-02T21:41:18.000Z</time>
      </trkpt>
      <trkpt lat="42.021725" lon="-2.679253">
        <ele>1644.5</ele>
        <time>2021-07-02T21:41:21.000Z</time>
      </trkpt>
      <trkpt lat="42.021725" lon="-2.679258">
        <ele>1644.6</ele>
        <time>2021-07-02T21:41:34.000Z</time>
      </trkpt>
      <trkpt lat="42.021725" lon="-2.679263">
        <ele>1644.7</ele>
        <time>2021-07-02T21:41:37.000Z</time>
      </trkpt>
      <trkpt lat="42.021727" lon="-2.679268">
        <ele>1644.7</ele>
        <time>2021-07-02T21:41:39.000Z</time>
      </trkpt>
      <trkpt lat="42.021733" lon="-2.679285">
        <ele>1644.8</ele>
        <time>2021-07-02T21:41:42.000Z</time>
      </trkpt>
      <trkpt lat="42.021735" lon="-2.679288">
        <ele>1644.1</ele>
        <time>2021-07-02T21:41:46.000Z</time>
      </trkpt>
      <trkpt lat="42.021790" lon="-2.679393">
        <ele>1642.6</ele>
        <time>2021-07-02T21:41:55.000Z</time>
      </trkpt>
      <trkpt lat="42.021845" lon="-2.679453">
        <ele>1641.7</ele>
        <time>2021-07-02T21:42:04.000Z</time>
      </trkpt>
      <trkpt lat="42.021848" lon="-2.679455">
        <ele>1641.8</ele>
        <time>2021-07-02T21:42:07.000Z</time>
      </trkpt>
      <trkpt lat="42.021865" lon="-2.679482">
        <ele>1641.5</ele>
        <time>2021-07-02T21:42:11.000Z</time>
      </trkpt>
      <trkpt lat="42.021868" lon="-2.679492">
        <ele>1641.7</ele>
        <time>2021-07-02T21:42:24.000Z</time>
      </trkpt>
      <trkpt lat="42.021947" lon="-2.679558">
        <ele>1638.7</ele>
        <time>2021-07-02T21:42:32.000Z</time>
      </trkpt>
      <trkpt lat="42.022000" lon="-2.679597">
        <ele>1637.5</ele>
        <time>2021-07-02T21:42:41.000Z</time>
      </trkpt>
      <trkpt lat="42.022002" lon="-2.679598">
        <ele>1637.7</ele>
        <time>2021-07-02T21:42:45.000Z</time>
      </trkpt>
      <trkpt lat="42.022017" lon="-2.679615">
        <ele>1638.0</ele>
        <time>2021-07-02T21:42:51.000Z</time>
      </trkpt>
      <trkpt lat="42.022017" lon="-2.679620">
        <ele>1636.7</ele>
        <time>2021-07-02T21:42:59.000Z</time>
      </trkpt>
      <trkpt lat="42.022017" lon="-2.679632">
        <ele>1637.4</ele>
        <time>2021-07-02T21:43:02.000Z</time>
      </trkpt>
      <trkpt lat="42.022018" lon="-2.679635">
        <ele>1636.6</ele>
        <time>2021-07-02T21:43:32.000Z</time>
      </trkpt>
      <trkpt lat="42.022018" lon="-2.679635">
        <ele>1636.5</ele>
        <time>2021-07-02T21:43:33.000Z</time>
      </trkpt>
      <trkpt lat="42.022017" lon="-2.679638">
        <ele>1642.9</ele>
        <time>2021-07-02T21:43:37.000Z</time>
      </trkpt>
      <trkpt lat="42.022015" lon="-2.679640">
        <ele>1652.4</ele>
        <time>2021-07-02T21:43:39.000Z</time>
      </trkpt>
      <trkpt lat="42.022017" lon="-2.679645">
        <ele>1635.0</ele>
        <time>2021-07-02T21:47:58.000Z</time>
      </trkpt>
      <trkpt lat="42.022017" lon="-2.679645">
        <ele>1635.0</ele>
        <time>2021-07-02T21:47:59.000Z</time>
      </trkpt>
      <trkpt lat="42.022020" lon="-2.679648">
        <ele>1613.8</ele>
        <time>2021-07-02T21:48:10.000Z</time>
      </trkpt>
      <trkpt lat="42.022002" lon="-2.679715">
        <ele>1635.4</ele>
        <time>2021-07-02T21:48:21.000Z</time>
      </trkpt>
      <trkpt lat="42.022000" lon="-2.679718">
        <ele>1635.1</ele>
        <time>2021-07-02T21:48:31.000Z</time>
      </trkpt>
      <trkpt lat="42.021982" lon="-2.679802">
        <ele>1633.3</ele>
        <time>2021-07-02T21:48:43.000Z</time>
      </trkpt>
      <trkpt lat="42.021987" lon="-2.679800">
        <ele>1633.1</ele>
        <time>2021-07-02T21:48:44.000Z</time>
      </trkpt>
      <trkpt lat="42.021987" lon="-2.679798">
        <ele>1633.1</ele>
        <time>2021-07-02T21:48:45.000Z</time>
      </trkpt>
      <trkpt lat="42.021988" lon="-2.679798">
        <ele>1633.4</ele>
        <time>2021-07-02T21:48:48.000Z</time>
      </trkpt>
      <trkpt lat="42.021988" lon="-2.679798">
        <ele>1633.5</ele>
        <time>2021-07-02T21:48:49.000Z</time>
      </trkpt>
      <trkpt lat="42.021987" lon="-2.679798">
        <ele>1633.5</ele>
        <time>2021-07-02T21:48:59.000Z</time>
      </trkpt>
      <trkpt lat="42.021987" lon="-2.679798">
        <ele>1633.4</ele>
        <time>2021-07-02T21:49:00.000Z</time>
      </trkpt>
      <trkpt lat="42.021985" lon="-2.679797">
        <ele>1633.1</ele>
        <time>2021-07-02T21:50:04.000Z</time>
      </trkpt>
      <trkpt lat="42.021985" lon="-2.679797">
        <ele>1633.0</ele>
        <time>2021-07-02T21:50:07.000Z</time>
      </trkpt>
      <trkpt lat="42.021987" lon="-2.679798">
        <ele>1634.6</ele>
        <time>2021-07-02T21:50:26.000Z</time>
      </trkpt>
      <trkpt lat="42.022020" lon="-2.679795">
        <ele>1633.0</ele>
        <time>2021-07-02T21:50:37.000Z</time>
      </trkpt>
      <trkpt lat="42.022020" lon="-2.679790">
        <ele>1633.4</ele>
        <time>2021-07-02T21:50:53.000Z</time>
      </trkpt>
      <trkpt lat="42.022047" lon="-2.679683">
        <ele>1635.1</ele>
        <time>2021-07-02T21:51:09.000Z</time>
      </trkpt>
      <trkpt lat="42.022047" lon="-2.679678">
        <ele>1634.9</ele>
        <time>2021-07-02T21:51:18.000Z</time>
      </trkpt>
      <trkpt lat="42.022047" lon="-2.679675">
        <ele>1634.9</ele>
        <time>2021-07-02T21:51:20.000Z</time>
      </trkpt>
      <trkpt lat="42.022047" lon="-2.679670">
        <ele>1635.4</ele>
        <time>2021-07-02T21:51:23.000Z</time>
      </trkpt>
      <trkpt lat="42.022033" lon="-2.679640">
        <ele>1636.1</ele>
        <time>2021-07-02T21:51:29.000Z</time>
      </trkpt>
      <trkpt lat="42.022032" lon="-2.679638">
        <ele>1636.4</ele>
        <time>2021-07-02T21:51:33.000Z</time>
      </trkpt>
      <trkpt lat="42.022032" lon="-2.679638">
        <ele>1636.1</ele>
        <time>2021-07-02T21:51:34.000Z</time>
      </trkpt>
      <trkpt lat="42.022025" lon="-2.679635">
        <ele>1635.8</ele>
        <time>2021-07-02T21:51:37.000Z</time>
      </trkpt>
      <trkpt lat="42.021963" lon="-2.679538">
        <ele>1637.7</ele>
        <time>2021-07-02T21:51:53.000Z</time>
      </trkpt>
      <trkpt lat="42.021948" lon="-2.679515">
        <ele>1638.7</ele>
        <time>2021-07-02T21:51:58.000Z</time>
      </trkpt>
      <trkpt lat="42.021947" lon="-2.679512">
        <ele>1638.6</ele>
        <time>2021-07-02T21:52:00.000Z</time>
      </trkpt>
      <trkpt lat="42.021938" lon="-2.679502">
        <ele>1639.1</ele>
        <time>2021-07-02T21:52:03.000Z</time>
      </trkpt>
      <trkpt lat="42.021937" lon="-2.679498">
        <ele>1639.2</ele>
        <time>2021-07-02T21:52:12.000Z</time>
      </trkpt>
      <trkpt lat="42.021910" lon="-2.679447">
        <ele>1640.1</ele>
        <time>2021-07-02T21:52:20.000Z</time>
      </trkpt>
      <trkpt lat="42.021908" lon="-2.679445">
        <ele>1640.0</ele>
        <time>2021-07-02T21:52:22.000Z</time>
      </trkpt>
      <trkpt lat="42.021855" lon="-2.679352">
        <ele>1642.1</ele>
        <time>2021-07-02T21:52:37.000Z</time>
      </trkpt>
      <trkpt lat="42.021853" lon="-2.679348">
        <ele>1642.1</ele>
        <time>2021-07-02T21:52:51.000Z</time>
      </trkpt>
      <trkpt lat="42.021818" lon="-2.679253">
        <ele>1642.7</ele>
        <time>2021-07-02T21:53:05.000Z</time>
      </trkpt>
      <trkpt lat="42.021815" lon="-2.679240">
        <ele>1642.9</ele>
        <time>2021-07-02T21:53:37.000Z</time>
      </trkpt>
      <trkpt lat="42.021813" lon="-2.679233">
        <ele>1642.9</ele>
        <time>2021-07-02T21:53:39.000Z</time>
      </trkpt>
      <trkpt lat="42.021813" lon="-2.679230">
        <ele>1642.7</ele>
        <time>2021-07-02T21:53:53.000Z</time>
      </trkpt>
      <trkpt lat="42.021818" lon="-2.679225">
        <ele>1657.8</ele>
        <time>2021-07-02T21:53:57.000Z</time>
      </trkpt>
      <trkpt lat="42.021822" lon="-2.679227">
        <ele>1663.9</ele>
        <time>2021-07-02T21:53:58.000Z</time>
      </trkpt>
      <trkpt lat="42.021820" lon="-2.679227">
        <ele>1648.3</ele>
        <time>2021-07-02T21:54:00.000Z</time>
      </trkpt>
      <trkpt lat="42.021818" lon="-2.679227">
        <ele>1642.0</ele>
        <time>2021-07-02T21:54:48.000Z</time>
      </trkpt>
      <trkpt lat="42.021818" lon="-2.679227">
        <ele>1642.0</ele>
        <time>2021-07-02T21:54:49.000Z</time>
      </trkpt>
      <trkpt lat="42.021817" lon="-2.679225">
        <ele>1642.2</ele>
        <time>2021-07-02T21:58:05.000Z</time>
      </trkpt>
      <trkpt lat="42.021817" lon="-2.679225">
        <ele>1642.0</ele>
        <time>2021-07-02T21:58:06.000Z</time>
      </trkpt>
      <trkpt lat="42.021818" lon="-2.679227">
        <ele>1645.9</ele>
        <time>2021-07-02T22:09:36.000Z</time>
      </trkpt>
      <trkpt lat="42.021818" lon="-2.679227">
        <ele>1645.9</ele>
        <time>2021-07-02T22:09:37.000Z</time>
      </trkpt>
      <trkpt lat="42.021817" lon="-2.679230">
        <ele>1649.4</ele>
        <time>2021-07-02T22:16:58.000Z</time>
      </trkpt>
      <trkpt lat="42.021817" lon="-2.679230">
        <ele>1649.5</ele>
        <time>2021-07-02T22:16:59.000Z</time>
      </trkpt>
      <trkpt lat="42.021818" lon="-2.679227">
        <ele>1635.4</ele>
        <time>2021-07-02T22:21:29.000Z</time>
      </trkpt>
      <trkpt lat="42.021818" lon="-2.679222">
        <ele>1642.9</ele>
        <time>2021-07-02T22:21:31.000Z</time>
      </trkpt>
      <trkpt lat="42.021817" lon="-2.679227">
        <ele>1652.1</ele>
        <time>2021-07-02T22:21:46.000Z</time>
      </trkpt>
      <trkpt lat="42.021802" lon="-2.679228">
        <ele>1660.9</ele>
        <time>2021-07-02T22:21:52.000Z</time>
      </trkpt>
      <trkpt lat="42.021800" lon="-2.679230">
        <ele>1654.7</ele>
        <time>2021-07-02T22:22:32.000Z</time>
      </trkpt>
      <trkpt lat="42.021815" lon="-2.679217">
        <ele>1651.7</ele>
        <time>2021-07-02T22:22:42.000Z</time>
      </trkpt>
      <trkpt lat="42.021813" lon="-2.679220">
        <ele>1652.4</ele>
        <time>2021-07-02T22:22:44.000Z</time>
      </trkpt>
      <trkpt lat="42.021817" lon="-2.679205">
        <ele>1652.2</ele>
        <time>2021-07-02T22:22:49.000Z</time>
      </trkpt>
      <trkpt lat="42.021818" lon="-2.679208">
        <ele>1652.2</ele>
        <time>2021-07-02T22:22:50.000Z</time>
      </trkpt>
      <trkpt lat="42.021817" lon="-2.679215">
        <ele>1652.3</ele>
        <time>2021-07-02T22:22:53.000Z</time>
      </trkpt>
      <trkpt lat="42.021818" lon="-2.679212">
        <ele>1652.2</ele>
        <time>2021-07-02T22:22:54.000Z</time>
      </trkpt>
      <trkpt lat="42.021818" lon="-2.679213">
        <ele>1652.1</ele>
        <time>2021-07-02T22:22:55.000Z</time>
      </trkpt>
      <trkpt lat="42.021820" lon="-2.679215">
        <ele>1652.0</ele>
        <time>2021-07-02T22:22:56.000Z</time>
      </trkpt>
      <trkpt lat="42.021820" lon="-2.679227">
        <ele>1652.2</ele>
        <time>2021-07-02T22:23:00.000Z</time>
      </trkpt>
      <trkpt lat="42.021818" lon="-2.679230">
        <ele>1652.2</ele>
        <time>2021-07-02T22:23:02.000Z</time>
      </trkpt>
      <trkpt lat="42.021818" lon="-2.679228">
        <ele>1652.8</ele>
        <time>2021-07-02T22:23:06.000Z</time>
      </trkpt>
      <trkpt lat="42.021822" lon="-2.679217">
        <ele>1652.1</ele>
        <time>2021-07-02T22:23:08.000Z</time>
      </trkpt>
      <trkpt lat="42.021833" lon="-2.679223">
        <ele>1650.8</ele>
        <time>2021-07-02T22:23:23.000Z</time>
      </trkpt>
      <trkpt lat="42.021832" lon="-2.679225">
        <ele>1651.0</ele>
        <time>2021-07-02T22:23:24.000Z</time>
      </trkpt>
      <trkpt lat="42.021832" lon="-2.679223">
        <ele>1651.6</ele>
        <time>2021-07-02T22:23:25.000Z</time>
      </trkpt>
      <trkpt lat="42.021835" lon="-2.679220">
        <ele>1653.0</ele>
        <time>2021-07-02T22:23:26.000Z</time>
      </trkpt>
      <trkpt lat="42.021840" lon="-2.679212">
        <ele>1651.2</ele>
        <time>2021-07-02T22:23:30.000Z</time>
      </trkpt>
      <trkpt lat="42.021838" lon="-2.679215">
        <ele>1652.0</ele>
        <time>2021-07-02T22:23:31.000Z</time>
      </trkpt>
      <trkpt lat="42.021810" lon="-2.679243">
        <ele>1652.5</ele>
        <time>2021-07-02T22:23:38.000Z</time>
      </trkpt>
      <trkpt lat="42.021808" lon="-2.679242">
        <ele>1652.1</ele>
        <time>2021-07-02T22:23:40.000Z</time>
      </trkpt>
      <trkpt lat="42.021783" lon="-2.679223">
        <ele>1651.4</ele>
        <time>2021-07-02T22:23:48.000Z</time>
      </trkpt>
      <trkpt lat="42.021785" lon="-2.679217">
        <ele>1652.4</ele>
        <time>2021-07-02T22:23:49.000Z</time>
      </trkpt>
      <trkpt lat="42.021795" lon="-2.679222">
        <ele>1652.8</ele>
        <time>2021-07-02T22:23:55.000Z</time>
      </trkpt>
      <trkpt lat="42.021792" lon="-2.679225">
        <ele>1652.4</ele>
        <time>2021-07-02T22:24:00.000Z</time>
      </trkpt>
      <trkpt lat="42.021792" lon="-2.679223">
        <ele>1652.5</ele>
        <time>2021-07-02T22:24:01.000Z</time>
      </trkpt>
      <trkpt lat="42.021792" lon="-2.679220">
        <ele>1652.8</ele>
        <time>2021-07-02T22:24:02.000Z</time>
      </trkpt>
      <trkpt lat="42.021810" lon="-2.679210">
        <ele>1654.4</ele>
        <time>2021-07-02T22:24:23.000Z</time>
      </trkpt>
      <trkpt lat="42.021812" lon="-2.679220">
        <ele>1653.0</ele>
        <time>2021-07-02T22:26:07.000Z</time>
      </trkpt>
      <trkpt lat="42.021812" lon="-2.679220">
        <ele>1652.8</ele>
        <time>2021-07-02T22:26:08.000Z</time>
      </trkpt>
      <trkpt lat="42.021810" lon="-2.679228">
        <ele>1654.5</ele>
        <time>2021-07-02T22:29:20.000Z</time>
      </trkpt>
      <trkpt lat="42.021810" lon="-2.679228">
        <ele>1654.8</ele>
        <time>2021-07-02T22:29:21.000Z</time>
      </trkpt>
      <trkpt lat="42.021812" lon="-2.679232">
        <ele>1655.8</ele>
        <time>2021-07-02T22:32:11.000Z</time>
      </trkpt>
      <trkpt lat="42.021812" lon="-2.679232">
        <ele>1655.8</ele>
        <time>2021-07-02T22:32:12.000Z</time>
      </trkpt>
      <trkpt lat="42.021810" lon="-2.679233">
        <ele>1656.0</ele>
        <time>2021-07-02T22:33:28.000Z</time>
      </trkpt>
      <trkpt lat="42.021810" lon="-2.679233">
        <ele>1656.0</ele>
        <time>2021-07-02T22:33:29.000Z</time>
      </trkpt>
      <trkpt lat="42.021808" lon="-2.679235">
        <ele>1656.3</ele>
        <time>2021-07-02T22:34:58.000Z</time>
      </trkpt>
      <trkpt lat="42.021808" lon="-2.679235">
        <ele>1656.3</ele>
        <time>2021-07-02T22:34:59.000Z</time>
      </trkpt>
      <trkpt lat="42.021807" lon="-2.679240">
        <ele>1656.1</ele>
        <time>2021-07-02T22:44:40.000Z</time>
      </trkpt>
      <trkpt lat="42.021807" lon="-2.679240">
        <ele>1656.0</ele>
        <time>2021-07-02T22:44:41.000Z</time>
      </trkpt>
      <trkpt lat="42.021808" lon="-2.679240">
        <ele>1655.7</ele>
        <time>2021-07-02T22:45:09.000Z</time>
      </trkpt>
      <trkpt lat="42.021808" lon="-2.679240">
        <ele>1655.7</ele>
        <time>2021-07-02T22:45:10.000Z</time>
      </trkpt>
      <trkpt lat="42.021807" lon="-2.679240">
        <ele>1656.1</ele>
        <time>2021-07-02T22:45:12.000Z</time>
      </trkpt>
      <trkpt lat="42.021808" lon="-2.679240">
        <ele>1656.0</ele>
        <time>2021-07-02T22:45:14.000Z</time>
      </trkpt>
      <trkpt lat="42.021807" lon="-2.679240">
        <ele>1655.9</ele>
        <time>2021-07-02T22:45:18.000Z</time>
      </trkpt>
      <trkpt lat="42.021807" lon="-2.679242">
        <ele>1656.2</ele>
        <time>2021-07-02T22:45:19.000Z</time>
      </trkpt>
      <trkpt lat="42.021808" lon="-2.679242">
        <ele>1656.0</ele>
        <time>2021-07-02T22:45:29.000Z</time>
      </trkpt>
      <trkpt lat="42.021808" lon="-2.679242">
        <ele>1656.1</ele>
        <time>2021-07-02T22:45:30.000Z</time>
      </trkpt>
      <trkpt lat="42.021807" lon="-2.679242">
        <ele>1656.2</ele>
        <time>2021-07-02T22:45:57.000Z</time>
      </trkpt>
      <trkpt lat="42.021807" lon="-2.679242">
        <ele>1656.0</ele>
        <time>2021-07-02T22:45:58.000Z</time>
      </trkpt>
      <trkpt lat="42.021808" lon="-2.679243">
        <ele>1656.5</ele>
        <time>2021-07-02T22:47:05.000Z</time>
      </trkpt>
      <trkpt lat="42.021808" lon="-2.679243">
        <ele>1656.4</ele>
        <time>2021-07-02T22:47:06.000Z</time>
      </trkpt>
      <trkpt lat="42.021810" lon="-2.679243">
        <ele>1656.3</ele>
        <time>2021-07-02T22:59:51.000Z</time>
      </trkpt>
      <trkpt lat="42.021810" lon="-2.679243">
        <ele>1656.3</ele>
        <time>2021-07-02T22:59:52.000Z</time>
      </trkpt>
      <trkpt lat="42.021808" lon="-2.679245">
        <ele>1656.5</ele>
        <time>2021-07-02T23:03:19.000Z</time>
      </trkpt>
      <trkpt lat="42.021808" lon="-2.679245">
        <ele>1656.6</ele>
        <time>2021-07-02T23:03:20.000Z</time>
      </trkpt>
      <trkpt lat="42.021807" lon="-2.679247">
        <ele>1656.7</ele>
        <time>2021-07-02T23:05:14.000Z</time>
      </trkpt>
      <trkpt lat="42.021807" lon="-2.679248">
        <ele>1656.7</ele>
        <time>2021-07-02T23:05:15.000Z</time>
      </trkpt>
      <trkpt lat="42.021808" lon="-2.679247">
        <ele>1648.3</ele>
        <time>2021-07-02T23:05:35.000Z</time>
      </trkpt>
      <trkpt lat="42.021808" lon="-2.679245">
        <ele>1654.5</ele>
        <time>2021-07-02T23:05:36.000Z</time>
      </trkpt>
      <trkpt lat="42.021810" lon="-2.679243">
        <ele>1660.3</ele>
        <time>2021-07-02T23:05:37.000Z</time>
      </trkpt>
      <trkpt lat="42.021815" lon="-2.679237">
        <ele>1657.1</ele>
        <time>2021-07-02T23:05:54.000Z</time>
      </trkpt>
      <trkpt lat="42.021813" lon="-2.679238">
        <ele>1657.1</ele>
        <time>2021-07-02T23:05:55.000Z</time>
      </trkpt>
      <trkpt lat="42.021827" lon="-2.679235">
        <ele>1656.5</ele>
        <time>2021-07-02T23:06:00.000Z</time>
      </trkpt>
      <trkpt lat="42.021828" lon="-2.679233">
        <ele>1656.5</ele>
        <time>2021-07-02T23:06:01.000Z</time>
      </trkpt>
      <trkpt lat="42.021827" lon="-2.679233">
        <ele>1656.8</ele>
        <time>2021-07-02T23:06:04.000Z</time>
      </trkpt>
      <trkpt lat="42.021825" lon="-2.679232">
        <ele>1656.8</ele>
        <time>2021-07-02T23:06:05.000Z</time>
      </trkpt>
      <trkpt lat="42.021795" lon="-2.679258">
        <ele>1656.9</ele>
        <time>2021-07-02T23:06:14.000Z</time>
      </trkpt>
      <trkpt lat="42.021790" lon="-2.679255">
        <ele>1656.8</ele>
        <time>2021-07-02T23:06:16.000Z</time>
      </trkpt>
      <trkpt lat="42.021790" lon="-2.679253">
        <ele>1657.3</ele>
        <time>2021-07-02T23:06:17.000Z</time>
      </trkpt>
      <trkpt lat="42.021788" lon="-2.679253">
        <ele>1657.0</ele>
        <time>2021-07-02T23:06:19.000Z</time>
      </trkpt>
      <trkpt lat="42.021788" lon="-2.679253">
        <ele>1656.7</ele>
        <time>2021-07-02T23:06:20.000Z</time>
      </trkpt>
      <trkpt lat="42.021790" lon="-2.679253">
        <ele>1656.9</ele>
        <time>2021-07-02T23:06:28.000Z</time>
      </trkpt>
      <trkpt lat="42.021790" lon="-2.679253">
        <ele>1656.5</ele>
        <time>2021-07-02T23:06:29.000Z</time>
      </trkpt>
      <trkpt lat="42.021795" lon="-2.679260">
        <ele>1656.3</ele>
        <time>2021-07-02T23:06:31.000Z</time>
      </trkpt>
      <trkpt lat="42.021795" lon="-2.679260">
        <ele>1656.2</ele>
        <time>2021-07-02T23:06:32.000Z</time>
      </trkpt>
      <trkpt lat="42.021793" lon="-2.679262">
        <ele>1656.1</ele>
        <time>2021-07-02T23:06:33.000Z</time>
      </trkpt>
      <trkpt lat="42.021795" lon="-2.679260">
        <ele>1657.0</ele>
        <time>2021-07-02T23:06:35.000Z</time>
      </trkpt>
      <trkpt lat="42.021793" lon="-2.679258">
        <ele>1657.3</ele>
        <time>2021-07-02T23:06:39.000Z</time>
      </trkpt>
      <trkpt lat="42.021795" lon="-2.679258">
        <ele>1657.2</ele>
        <time>2021-07-02T23:06:41.000Z</time>
      </trkpt>
      <trkpt lat="42.021793" lon="-2.679257">
        <ele>1655.9</ele>
        <time>2021-07-02T23:06:44.000Z</time>
      </trkpt>
      <trkpt lat="42.021793" lon="-2.679257">
        <ele>1654.8</ele>
        <time>2021-07-02T23:06:45.000Z</time>
      </trkpt>
      <trkpt lat="42.021793" lon="-2.679257">
        <ele>1654.7</ele>
        <time>2021-07-02T23:06:46.000Z</time>
      </trkpt>
      <trkpt lat="42.021687" lon="-2.679320">
        <ele>1655.6</ele>
        <time>2021-07-03T06:38:24.000Z</time>
      </trkpt>
      <trkpt lat="42.021687" lon="-2.679320">
        <ele>1656.5</ele>
        <time>2021-07-03T06:38:25.000Z</time>
      </trkpt>
      <trkpt lat="42.021688" lon="-2.679320">
        <ele>1656.4</ele>
        <time>2021-07-03T06:38:39.000Z</time>
      </trkpt>
      <trkpt lat="42.021688" lon="-2.679320">
        <ele>1656.5</ele>
        <time>2021-07-03T06:38:40.000Z</time>
      </trkpt>
      <trkpt lat="42.021685" lon="-2.679322">
        <ele>1650.8</ele>
        <time>2021-07-03T06:38:59.000Z</time>
      </trkpt>
      <trkpt lat="42.021597" lon="-2.679385">
        <ele>1655.6</ele>
        <time>2021-07-03T06:39:07.000Z</time>
      </trkpt>
      <trkpt lat="42.021505" lon="-2.679438">
        <ele>1656.3</ele>
        <time>2021-07-03T06:39:16.000Z</time>
      </trkpt>
      <trkpt lat="42.021505" lon="-2.679438">
        <ele>1656.3</ele>
        <time>2021-07-03T06:39:16.000Z</time>
      </trkpt>
      <trkpt lat="42.021405" lon="-2.679463">
        <ele>1657.8</ele>
        <time>2021-07-03T06:39:24.000Z</time>
      </trkpt>
      <trkpt lat="42.021312" lon="-2.679487">
        <ele>1656.5</ele>
        <time>2021-07-03T06:39:31.000Z</time>
      </trkpt>
      <trkpt lat="42.021220" lon="-2.679508">
        <ele>1657.0</ele>
        <time>2021-07-03T06:39:36.000Z</time>
      </trkpt>
      <trkpt lat="42.021122" lon="-2.679532">
        <ele>1658.3</ele>
        <time>2021-07-03T06:39:41.000Z</time>
      </trkpt>
      <trkpt lat="42.021028" lon="-2.679543">
        <ele>1657.2</ele>
        <time>2021-07-03T06:39:45.000Z</time>
      </trkpt>
      <trkpt lat="42.020915" lon="-2.679547">
        <ele>1655.7</ele>
        <time>2021-07-03T06:39:49.000Z</time>
      </trkpt>
      <trkpt lat="42.020803" lon="-2.679555">
        <ele>1655.3</ele>
        <time>2021-07-03T06:39:53.000Z</time>
      </trkpt>
      <trkpt lat="42.020688" lon="-2.679548">
        <ele>1655.1</ele>
        <time>2021-07-03T06:39:57.000Z</time>
      </trkpt>
      <trkpt lat="42.020575" lon="-2.679553">
        <ele>1654.8</ele>
        <time>2021-07-03T06:40:01.000Z</time>
      </trkpt>
      <trkpt lat="42.020477" lon="-2.679548">
        <ele>1656.4</ele>
        <time>2021-07-03T06:40:04.000Z</time>
      </trkpt>
      <trkpt lat="42.020370" lon="-2.679542">
        <ele>1654.6</ele>
        <time>2021-07-03T06:40:07.000Z</time>
      </trkpt>
      <trkpt lat="42.020250" lon="-2.679528">
        <ele>1653.7</ele>
        <time>2021-07-03T06:40:10.000Z</time>
      </trkpt>
      <trkpt lat="42.020125" lon="-2.679518">
        <ele>1654.3</ele>
        <time>2021-07-03T06:40:13.000Z</time>
      </trkpt>
      <trkpt lat="42.020010" lon="-2.679522">
        <ele>1653.4</ele>
        <time>2021-07-03T06:40:16.000Z</time>
      </trkpt>
      <trkpt lat="42.019908" lon="-2.679517">
        <ele>1653.8</ele>
        <time>2021-07-03T06:40:19.000Z</time>
      </trkpt>
      <trkpt lat="42.019802" lon="-2.679503">
        <ele>1654.0</ele>
        <time>2021-07-03T06:40:23.000Z</time>
      </trkpt>
      <trkpt lat="42.019683" lon="-2.679493">
        <ele>1653.9</ele>
        <time>2021-07-03T06:40:27.000Z</time>
      </trkpt>
      <trkpt lat="42.019573" lon="-2.679487">
        <ele>1653.7</ele>
        <time>2021-07-03T06:40:31.000Z</time>
      </trkpt>
      <trkpt lat="42.019477" lon="-2.679487">
        <ele>1653.6</ele>
        <time>2021-07-03T06:40:34.000Z</time>
      </trkpt>
      <trkpt lat="42.019382" lon="-2.679500">
        <ele>1654.5</ele>
        <time>2021-07-03T06:40:37.000Z</time>
      </trkpt>
      <trkpt lat="42.019287" lon="-2.679502">
        <ele>1650.2</ele>
        <time>2021-07-03T06:40:40.000Z</time>
      </trkpt>
      <trkpt lat="42.019190" lon="-2.679492">
        <ele>1653.4</ele>
        <time>2021-07-03T06:40:43.000Z</time>
      </trkpt>
      <trkpt lat="42.019098" lon="-2.679480">
        <ele>1654.2</ele>
        <time>2021-07-03T06:40:46.000Z</time>
      </trkpt>
      <trkpt lat="42.019005" lon="-2.679473">
        <ele>1653.0</ele>
        <time>2021-07-03T06:40:49.000Z</time>
      </trkpt>
      <trkpt lat="42.018915" lon="-2.679475">
        <ele>1652.9</ele>
        <time>2021-07-03T06:40:52.000Z</time>
      </trkpt>
      <trkpt lat="42.018820" lon="-2.679475">
        <ele>1653.9</ele>
        <time>2021-07-03T06:40:55.000Z</time>
      </trkpt>
      <trkpt lat="42.018720" lon="-2.679468">
        <ele>1654.2</ele>
        <time>2021-07-03T06:40:58.000Z</time>
      </trkpt>
      <trkpt lat="42.018625" lon="-2.679470">
        <ele>1654.1</ele>
        <time>2021-07-03T06:41:01.000Z</time>
      </trkpt>
      <trkpt lat="42.018528" lon="-2.679478">
        <ele>1651.7</ele>
        <time>2021-07-03T06:41:04.000Z</time>
      </trkpt>
      <trkpt lat="42.018418" lon="-2.679487">
        <ele>1652.2</ele>
        <time>2021-07-03T06:41:07.000Z</time>
      </trkpt>
      <trkpt lat="42.018307" lon="-2.679502">
        <ele>1653.3</ele>
        <time>2021-07-03T06:41:10.000Z</time>
      </trkpt>
      <trkpt lat="42.018200" lon="-2.679517">
        <ele>1651.1</ele>
        <time>2021-07-03T06:41:13.000Z</time>
      </trkpt>
      <trkpt lat="42.018095" lon="-2.679533">
        <ele>1654.1</ele>
        <time>2021-07-03T06:41:16.000Z</time>
      </trkpt>
      <trkpt lat="42.018002" lon="-2.679548">
        <ele>1650.7</ele>
        <time>2021-07-03T06:41:19.000Z</time>
      </trkpt>
      <trkpt lat="42.017893" lon="-2.679580">
        <ele>1651.4</ele>
        <time>2021-07-03T06:41:23.000Z</time>
      </trkpt>
      <trkpt lat="42.017783" lon="-2.679615">
        <ele>1650.8</ele>
        <time>2021-07-03T06:41:28.000Z</time>
      </trkpt>
      <trkpt lat="42.017692" lon="-2.679638">
        <ele>1653.0</ele>
        <time>2021-07-03T06:41:32.000Z</time>
      </trkpt>
      <trkpt lat="42.017602" lon="-2.679660">
        <ele>1652.6</ele>
        <time>2021-07-03T06:41:36.000Z</time>
      </trkpt>
      <trkpt lat="42.017495" lon="-2.679693">
        <ele>1653.0</ele>
        <time>2021-07-03T06:41:41.000Z</time>
      </trkpt>
      <trkpt lat="42.017400" lon="-2.679720">
        <ele>1653.0</ele>
        <time>2021-07-03T06:41:45.000Z</time>
      </trkpt>
      <trkpt lat="42.017312" lon="-2.679760">
        <ele>1652.2</ele>
        <time>2021-07-03T06:41:49.000Z</time>
      </trkpt>
      <trkpt lat="42.017217" lon="-2.679803">
        <ele>1652.3</ele>
        <time>2021-07-03T06:41:53.000Z</time>
      </trkpt>
      <trkpt lat="42.017120" lon="-2.679840">
        <ele>1655.8</ele>
        <time>2021-07-03T06:41:57.000Z</time>
      </trkpt>
      <trkpt lat="42.017023" lon="-2.679875">
        <ele>1652.6</ele>
        <time>2021-07-03T06:42:01.000Z</time>
      </trkpt>
      <trkpt lat="42.016925" lon="-2.679927">
        <ele>1652.0</ele>
        <time>2021-07-03T06:42:05.000Z</time>
      </trkpt>
      <trkpt lat="42.016822" lon="-2.679960">
        <ele>1652.0</ele>
        <time>2021-07-03T06:42:09.000Z</time>
      </trkpt>
      <trkpt lat="42.016727" lon="-2.680003">
        <ele>1652.8</ele>
        <time>2021-07-03T06:42:13.000Z</time>
      </trkpt>
      <trkpt lat="42.016625" lon="-2.680043">
        <ele>1650.3</ele>
        <time>2021-07-03T06:42:17.000Z</time>
      </trkpt>
      <trkpt lat="42.016517" lon="-2.680072">
        <ele>1650.9</ele>
        <time>2021-07-03T06:42:21.000Z</time>
      </trkpt>
      <trkpt lat="42.016412" lon="-2.680107">
        <ele>1650.9</ele>
        <time>2021-07-03T06:42:25.000Z</time>
      </trkpt>
      <trkpt lat="42.016298" lon="-2.680142">
        <ele>1652.6</ele>
        <time>2021-07-03T06:42:29.000Z</time>
      </trkpt>
      <trkpt lat="42.016203" lon="-2.680160">
        <ele>1652.8</ele>
        <time>2021-07-03T06:42:32.000Z</time>
      </trkpt>
      <trkpt lat="42.016092" lon="-2.680173">
        <ele>1649.3</ele>
        <time>2021-07-03T06:42:36.000Z</time>
      </trkpt>
      <trkpt lat="42.015997" lon="-2.680175">
        <ele>1648.5</ele>
        <time>2021-07-03T06:42:39.000Z</time>
      </trkpt>
      <trkpt lat="42.015898" lon="-2.680182">
        <ele>1651.7</ele>
        <time>2021-07-03T06:42:42.000Z</time>
      </trkpt>
      <trkpt lat="42.015802" lon="-2.680188">
        <ele>1654.1</ele>
        <time>2021-07-03T06:42:45.000Z</time>
      </trkpt>
      <trkpt lat="42.015687" lon="-2.680210">
        <ele>1648.5</ele>
        <time>2021-07-03T06:42:49.000Z</time>
      </trkpt>
      <trkpt lat="42.015582" lon="-2.680233">
        <ele>1649.7</ele>
        <time>2021-07-03T06:42:53.000Z</time>
      </trkpt>
      <trkpt lat="42.015475" lon="-2.680252">
        <ele>1651.8</ele>
        <time>2021-07-03T06:42:57.000Z</time>
      </trkpt>
      <trkpt lat="42.015367" lon="-2.680278">
        <ele>1651.5</ele>
        <time>2021-07-03T06:43:01.000Z</time>
      </trkpt>
      <trkpt lat="42.015262" lon="-2.680325">
        <ele>1651.5</ele>
        <time>2021-07-03T06:43:05.000Z</time>
      </trkpt>
      <trkpt lat="42.015155" lon="-2.680368">
        <ele>1650.7</ele>
        <time>2021-07-03T06:43:09.000Z</time>
      </trkpt>
      <trkpt lat="42.015057" lon="-2.680407">
        <ele>1653.6</ele>
        <time>2021-07-03T06:43:13.000Z</time>
      </trkpt>
      <trkpt lat="42.014958" lon="-2.680442">
        <ele>1653.2</ele>
        <time>2021-07-03T06:43:17.000Z</time>
      </trkpt>
      <trkpt lat="42.014867" lon="-2.680470">
        <ele>1653.9</ele>
        <time>2021-07-03T06:43:21.000Z</time>
      </trkpt>
      <trkpt lat="42.014762" lon="-2.680507">
        <ele>1652.3</ele>
        <time>2021-07-03T06:43:25.000Z</time>
      </trkpt>
      <trkpt lat="42.014663" lon="-2.680550">
        <ele>1653.4</ele>
        <time>2021-07-03T06:43:29.000Z</time>
      </trkpt>
      <trkpt lat="42.014563" lon="-2.680607">
        <ele>1653.1</ele>
        <time>2021-07-03T06:43:33.000Z</time>
      </trkpt>
      <trkpt lat="42.014473" lon="-2.680672">
        <ele>1652.6</ele>
        <time>2021-07-03T06:43:37.000Z</time>
      </trkpt>
      <trkpt lat="42.014377" lon="-2.680732">
        <ele>1653.0</ele>
        <time>2021-07-03T06:43:41.000Z</time>
      </trkpt>
      <trkpt lat="42.014277" lon="-2.680775">
        <ele>1653.3</ele>
        <time>2021-07-03T06:43:44.000Z</time>
      </trkpt>
      <trkpt lat="42.014185" lon="-2.680792">
        <ele>1651.6</ele>
        <time>2021-07-03T06:43:46.000Z</time>
      </trkpt>
      <trkpt lat="42.014092" lon="-2.680807">
        <ele>1651.4</ele>
        <time>2021-07-03T06:43:48.000Z</time>
      </trkpt>
      <trkpt lat="42.013985" lon="-2.680820">
        <ele>1651.3</ele>
        <time>2021-07-03T06:43:50.000Z</time>
      </trkpt>
      <trkpt lat="42.013877" lon="-2.680820">
        <ele>1648.8</ele>
        <time>2021-07-03T06:43:52.000Z</time>
      </trkpt>
      <trkpt lat="42.013768" lon="-2.680815">
        <ele>1648.6</ele>
        <time>2021-07-03T06:43:54.000Z</time>
      </trkpt>
      <trkpt lat="42.013680" lon="-2.680850">
        <ele>1652.8</ele>
        <time>2021-07-03T06:43:56.000Z</time>
      </trkpt>
      <trkpt lat="42.013617" lon="-2.680958">
        <ele>1649.5</ele>
        <time>2021-07-03T06:43:59.000Z</time>
      </trkpt>
      <trkpt lat="42.013618" lon="-2.681102">
        <ele>1652.4</ele>
        <time>2021-07-03T06:44:03.000Z</time>
      </trkpt>
      <trkpt lat="42.013657" lon="-2.681233">
        <ele>1652.3</ele>
        <time>2021-07-03T06:44:07.000Z</time>
      </trkpt>
      <trkpt lat="42.013717" lon="-2.681340">
        <ele>1649.5</ele>
        <time>2021-07-03T06:44:11.000Z</time>
      </trkpt>
      <trkpt lat="42.013785" lon="-2.681432">
        <ele>1656.6</ele>
        <time>2021-07-03T06:44:15.000Z</time>
      </trkpt>
      <trkpt lat="42.013870" lon="-2.681520">
        <ele>1656.8</ele>
        <time>2021-07-03T06:44:21.000Z</time>
      </trkpt>
      <trkpt lat="42.013962" lon="-2.681588">
        <ele>1653.7</ele>
        <time>2021-07-03T06:44:27.000Z</time>
      </trkpt>
      <trkpt lat="42.014038" lon="-2.681663">
        <ele>1652.5</ele>
        <time>2021-07-03T06:44:33.000Z</time>
      </trkpt>
      <trkpt lat="42.014133" lon="-2.681725">
        <ele>1655.5</ele>
        <time>2021-07-03T06:44:39.000Z</time>
      </trkpt>
      <trkpt lat="42.014227" lon="-2.681773">
        <ele>1657.0</ele>
        <time>2021-07-03T06:44:44.000Z</time>
      </trkpt>
      <trkpt lat="42.014317" lon="-2.681828">
        <ele>1657.2</ele>
        <time>2021-07-03T06:44:49.000Z</time>
      </trkpt>
      <trkpt lat="42.014422" lon="-2.681880">
        <ele>1657.5</ele>
        <time>2021-07-03T06:44:54.000Z</time>
      </trkpt>
      <trkpt lat="42.014512" lon="-2.681928">
        <ele>1657.2</ele>
        <time>2021-07-03T06:44:58.000Z</time>
      </trkpt>
      <trkpt lat="42.014607" lon="-2.681998">
        <ele>1657.4</ele>
        <time>2021-07-03T06:45:03.000Z</time>
      </trkpt>
      <trkpt lat="42.014688" lon="-2.682052">
        <ele>1656.7</ele>
        <time>2021-07-03T06:45:07.000Z</time>
      </trkpt>
      <trkpt lat="42.014782" lon="-2.682098">
        <ele>1658.5</ele>
        <time>2021-07-03T06:45:11.000Z</time>
      </trkpt>
      <trkpt lat="42.014882" lon="-2.682158">
        <ele>1660.1</ele>
        <time>2021-07-03T06:45:16.000Z</time>
      </trkpt>
      <trkpt lat="42.014980" lon="-2.682213">
        <ele>1658.6</ele>
        <time>2021-07-03T06:45:21.000Z</time>
      </trkpt>
      <trkpt lat="42.015075" lon="-2.682277">
        <ele>1658.4</ele>
        <time>2021-07-03T06:45:26.000Z</time>
      </trkpt>
      <trkpt lat="42.015168" lon="-2.682333">
        <ele>1657.5</ele>
        <time>2021-07-03T06:45:31.000Z</time>
      </trkpt>
      <trkpt lat="42.015263" lon="-2.682385">
        <ele>1660.0</ele>
        <time>2021-07-03T06:45:36.000Z</time>
      </trkpt>
      <trkpt lat="42.015352" lon="-2.682450">
        <ele>1659.9</ele>
        <time>2021-07-03T06:45:41.000Z</time>
      </trkpt>
      <trkpt lat="42.015452" lon="-2.682515">
        <ele>1661.4</ele>
        <time>2021-07-03T06:45:46.000Z</time>
      </trkpt>
      <trkpt lat="42.015542" lon="-2.682568">
        <ele>1660.4</ele>
        <time>2021-07-03T06:45:50.000Z</time>
      </trkpt>
      <trkpt lat="42.015628" lon="-2.682622">
        <ele>1662.4</ele>
        <time>2021-07-03T06:45:54.000Z</time>
      </trkpt>
      <trkpt lat="42.015723" lon="-2.682688">
        <ele>1660.4</ele>
        <time>2021-07-03T06:45:59.000Z</time>
      </trkpt>
      <trkpt lat="42.015812" lon="-2.682768">
        <ele>1661.9</ele>
        <time>2021-07-03T06:46:04.000Z</time>
      </trkpt>
      <trkpt lat="42.015893" lon="-2.682827">
        <ele>1662.9</ele>
        <time>2021-07-03T06:46:08.000Z</time>
      </trkpt>
      <trkpt lat="42.015983" lon="-2.682888">
        <ele>1663.3</ele>
        <time>2021-07-03T06:46:12.000Z</time>
      </trkpt>
      <trkpt lat="42.016075" lon="-2.682955">
        <ele>1661.1</ele>
        <time>2021-07-03T06:46:16.000Z</time>
      </trkpt>
      <trkpt lat="42.016173" lon="-2.683022">
        <ele>1664.0</ele>
        <time>2021-07-03T06:46:20.000Z</time>
      </trkpt>
      <trkpt lat="42.016263" lon="-2.683092">
        <ele>1661.9</ele>
        <time>2021-07-03T06:46:24.000Z</time>
      </trkpt>
      <trkpt lat="42.016355" lon="-2.683162">
        <ele>1662.3</ele>
        <time>2021-07-03T06:46:28.000Z</time>
      </trkpt>
      <trkpt lat="42.016445" lon="-2.683235">
        <ele>1662.3</ele>
        <time>2021-07-03T06:46:32.000Z</time>
      </trkpt>
      <trkpt lat="42.016518" lon="-2.683317">
        <ele>1662.2</ele>
        <time>2021-07-03T06:46:36.000Z</time>
      </trkpt>
      <trkpt lat="42.016588" lon="-2.683420">
        <ele>1662.2</ele>
        <time>2021-07-03T06:46:40.000Z</time>
      </trkpt>
      <trkpt lat="42.016647" lon="-2.683547">
        <ele>1662.2</ele>
        <time>2021-07-03T06:46:44.000Z</time>
      </trkpt>
      <trkpt lat="42.016695" lon="-2.683682">
        <ele>1664.9</ele>
        <time>2021-07-03T06:46:48.000Z</time>
      </trkpt>
      <trkpt lat="42.016728" lon="-2.683808">
        <ele>1663.8</ele>
        <time>2021-07-03T06:46:52.000Z</time>
      </trkpt>
      <trkpt lat="42.016743" lon="-2.683933">
        <ele>1664.8</ele>
        <time>2021-07-03T06:46:56.000Z</time>
      </trkpt>
      <trkpt lat="42.016718" lon="-2.684057">
        <ele>1664.4</ele>
        <time>2021-07-03T06:47:00.000Z</time>
      </trkpt>
      <trkpt lat="42.016640" lon="-2.684172">
        <ele>1664.4</ele>
        <time>2021-07-03T06:47:04.000Z</time>
      </trkpt>
      <trkpt lat="42.016558" lon="-2.684277">
        <ele>1665.5</ele>
        <time>2021-07-03T06:47:08.000Z</time>
      </trkpt>
      <trkpt lat="42.016483" lon="-2.684348">
        <ele>1663.0</ele>
        <time>2021-07-03T06:47:11.000Z</time>
      </trkpt>
      <trkpt lat="42.016407" lon="-2.684423">
        <ele>1661.7</ele>
        <time>2021-07-03T06:47:14.000Z</time>
      </trkpt>
      <trkpt lat="42.016335" lon="-2.684497">
        <ele>1662.7</ele>
        <time>2021-07-03T06:47:17.000Z</time>
      </trkpt>
      <trkpt lat="42.016238" lon="-2.684593">
        <ele>1662.0</ele>
        <time>2021-07-03T06:47:21.000Z</time>
      </trkpt>
      <trkpt lat="42.016167" lon="-2.684675">
        <ele>1663.7</ele>
        <time>2021-07-03T06:47:24.000Z</time>
      </trkpt>
      <trkpt lat="42.016080" lon="-2.684757">
        <ele>1662.2</ele>
        <time>2021-07-03T06:47:27.000Z</time>
      </trkpt>
      <trkpt lat="42.015982" lon="-2.684840">
        <ele>1664.2</ele>
        <time>2021-07-03T06:47:30.000Z</time>
      </trkpt>
      <trkpt lat="42.015882" lon="-2.684915">
        <ele>1663.3</ele>
        <time>2021-07-03T06:47:33.000Z</time>
      </trkpt>
      <trkpt lat="42.015787" lon="-2.684982">
        <ele>1661.6</ele>
        <time>2021-07-03T06:47:36.000Z</time>
      </trkpt>
      <trkpt lat="42.015707" lon="-2.685052">
        <ele>1660.8</ele>
        <time>2021-07-03T06:47:39.000Z</time>
      </trkpt>
      <trkpt lat="42.015618" lon="-2.685123">
        <ele>1663.0</ele>
        <time>2021-07-03T06:47:43.000Z</time>
      </trkpt>
      <trkpt lat="42.015533" lon="-2.685188">
        <ele>1663.2</ele>
        <time>2021-07-03T06:47:47.000Z</time>
      </trkpt>
      <trkpt lat="42.015445" lon="-2.685270">
        <ele>1665.2</ele>
        <time>2021-07-03T06:47:52.000Z</time>
      </trkpt>
      <trkpt lat="42.015365" lon="-2.685362">
        <ele>1664.9</ele>
        <time>2021-07-03T06:47:57.000Z</time>
      </trkpt>
      <trkpt lat="42.015310" lon="-2.685460">
        <ele>1661.8</ele>
        <time>2021-07-03T06:48:02.000Z</time>
      </trkpt>
      <trkpt lat="42.015300" lon="-2.685597">
        <ele>1666.8</ele>
        <time>2021-07-03T06:48:07.000Z</time>
      </trkpt>
      <trkpt lat="42.015333" lon="-2.685738">
        <ele>1668.3</ele>
        <time>2021-07-03T06:48:12.000Z</time>
      </trkpt>
      <trkpt lat="42.015380" lon="-2.685847">
        <ele>1665.8</ele>
        <time>2021-07-03T06:48:16.000Z</time>
      </trkpt>
      <trkpt lat="42.015463" lon="-2.685918">
        <ele>1671.1</ele>
        <time>2021-07-03T06:48:22.000Z</time>
      </trkpt>
      <trkpt lat="42.015507" lon="-2.685927">
        <ele>1671.6</ele>
        <time>2021-07-03T06:48:28.000Z</time>
      </trkpt>
      <trkpt lat="42.015508" lon="-2.685927">
        <ele>1669.6</ele>
        <time>2021-07-03T06:48:42.000Z</time>
      </trkpt>
      <trkpt lat="42.015512" lon="-2.685928">
        <ele>1668.5</ele>
        <time>2021-07-03T06:48:44.000Z</time>
      </trkpt>
      <trkpt lat="42.015515" lon="-2.685933">
        <ele>1655.5</ele>
        <time>2021-07-03T06:48:48.000Z</time>
      </trkpt>
      <trkpt lat="42.015593" lon="-2.686038">
        <ele>1667.0</ele>
        <time>2021-07-03T06:48:53.000Z</time>
      </trkpt>
      <trkpt lat="42.015673" lon="-2.686123">
        <ele>1670.0</ele>
        <time>2021-07-03T06:48:56.000Z</time>
      </trkpt>
      <trkpt lat="42.015787" lon="-2.686215">
        <ele>1667.0</ele>
        <time>2021-07-03T06:48:59.000Z</time>
      </trkpt>
      <trkpt lat="42.015883" lon="-2.686275">
        <ele>1667.1</ele>
        <time>2021-07-03T06:49:01.000Z</time>
      </trkpt>
      <trkpt lat="42.015985" lon="-2.686330">
        <ele>1666.8</ele>
        <time>2021-07-03T06:49:03.000Z</time>
      </trkpt>
      <trkpt lat="42.016085" lon="-2.686375">
        <ele>1667.1</ele>
        <time>2021-07-03T06:49:05.000Z</time>
      </trkpt>
      <trkpt lat="42.016190" lon="-2.686420">
        <ele>1666.5</ele>
        <time>2021-07-03T06:49:08.000Z</time>
      </trkpt>
      <trkpt lat="42.016240" lon="-2.686458">
        <ele>1664.8</ele>
        <time>2021-07-03T06:49:16.000Z</time>
      </trkpt>
      <trkpt lat="42.016238" lon="-2.686462">
        <ele>1664.0</ele>
        <time>2021-07-03T06:49:20.000Z</time>
      </trkpt>
      <trkpt lat="42.016238" lon="-2.686462">
        <ele>1664.1</ele>
        <time>2021-07-03T06:49:21.000Z</time>
      </trkpt>
      <trkpt lat="42.016240" lon="-2.686465">
        <ele>1666.3</ele>
        <time>2021-07-03T06:49:48.000Z</time>
      </trkpt>
      <trkpt lat="42.016240" lon="-2.686465">
        <ele>1666.2</ele>
        <time>2021-07-03T06:49:49.000Z</time>
      </trkpt>
      <trkpt lat="42.016238" lon="-2.686465">
        <ele>1665.6</ele>
        <time>2021-07-03T06:49:54.000Z</time>
      </trkpt>
      <trkpt lat="42.016238" lon="-2.686465">
        <ele>1666.0</ele>
        <time>2021-07-03T06:49:55.000Z</time>
      </trkpt>
      <trkpt lat="42.016240" lon="-2.686465">
        <ele>1661.5</ele>
        <time>2021-07-03T06:49:59.000Z</time>
      </trkpt>
      <trkpt lat="42.016242" lon="-2.686463">
        <ele>1666.0</ele>
        <time>2021-07-03T06:50:01.000Z</time>
      </trkpt>
      <trkpt lat="42.016240" lon="-2.686465">
        <ele>1666.4</ele>
        <time>2021-07-03T06:50:21.000Z</time>
      </trkpt>
      <trkpt lat="42.016240" lon="-2.686465">
        <ele>1666.4</ele>
        <time>2021-07-03T06:50:22.000Z</time>
      </trkpt>
      <trkpt lat="42.016242" lon="-2.686465">
        <ele>1666.5</ele>
        <time>2021-07-03T06:50:26.000Z</time>
      </trkpt>
      <trkpt lat="42.016242" lon="-2.686465">
        <ele>1666.6</ele>
        <time>2021-07-03T06:50:27.000Z</time>
      </trkpt>
      <trkpt lat="42.016248" lon="-2.686467">
        <ele>1666.3</ele>
        <time>2021-07-03T06:50:33.000Z</time>
      </trkpt>
      <trkpt lat="42.016358" lon="-2.686508">
        <ele>1666.5</ele>
        <time>2021-07-03T06:50:38.000Z</time>
      </trkpt>
      <trkpt lat="42.016458" lon="-2.686520">
        <ele>1666.3</ele>
        <time>2021-07-03T06:50:41.000Z</time>
      </trkpt>
      <trkpt lat="42.016548" lon="-2.686533">
        <ele>1665.2</ele>
        <time>2021-07-03T06:50:44.000Z</time>
      </trkpt>
      <trkpt lat="42.016653" lon="-2.686550">
        <ele>1665.9</ele>
        <time>2021-07-03T06:50:47.000Z</time>
      </trkpt>
      <trkpt lat="42.016745" lon="-2.686547">
        <ele>1665.5</ele>
        <time>2021-07-03T06:50:49.000Z</time>
      </trkpt>
      <trkpt lat="42.016855" lon="-2.686563">
        <ele>1666.0</ele>
        <time>2021-07-03T06:50:52.000Z</time>
      </trkpt>
      <trkpt lat="42.016982" lon="-2.686583">
        <ele>1664.3</ele>
        <time>2021-07-03T06:50:55.000Z</time>
      </trkpt>
      <trkpt lat="42.017072" lon="-2.686595">
        <ele>1663.7</ele>
        <time>2021-07-03T06:50:57.000Z</time>
      </trkpt>
      <trkpt lat="42.017172" lon="-2.686612">
        <ele>1663.9</ele>
        <time>2021-07-03T06:50:59.000Z</time>
      </trkpt>
      <trkpt lat="42.017263" lon="-2.686640">
        <ele>1663.8</ele>
        <time>2021-07-03T06:51:01.000Z</time>
      </trkpt>
      <trkpt lat="42.017362" lon="-2.686663">
        <ele>1663.5</ele>
        <time>2021-07-03T06:51:03.000Z</time>
      </trkpt>
      <trkpt lat="42.017470" lon="-2.686675">
        <ele>1662.3</ele>
        <time>2021-07-03T06:51:05.000Z</time>
      </trkpt>
      <trkpt lat="42.017570" lon="-2.686687">
        <ele>1661.6</ele>
        <time>2021-07-03T06:51:07.000Z</time>
      </trkpt>
      <trkpt lat="42.017673" lon="-2.686705">
        <ele>1661.9</ele>
        <time>2021-07-03T06:51:09.000Z</time>
      </trkpt>
      <trkpt lat="42.017792" lon="-2.686720">
        <ele>1660.3</ele>
        <time>2021-07-03T06:51:11.000Z</time>
      </trkpt>
      <trkpt lat="42.017913" lon="-2.686735">
        <ele>1659.5</ele>
        <time>2021-07-03T06:51:13.000Z</time>
      </trkpt>
      <trkpt lat="42.018035" lon="-2.686740">
        <ele>1659.9</ele>
        <time>2021-07-03T06:51:15.000Z</time>
      </trkpt>
      <trkpt lat="42.018160" lon="-2.686727">
        <ele>1660.3</ele>
        <time>2021-07-03T06:51:17.000Z</time>
      </trkpt>
      <trkpt lat="42.018287" lon="-2.686698">
        <ele>1659.8</ele>
        <time>2021-07-03T06:51:19.000Z</time>
      </trkpt>
      <trkpt lat="42.018420" lon="-2.686663">
        <ele>1656.6</ele>
        <time>2021-07-03T06:51:21.000Z</time>
      </trkpt>
      <trkpt lat="42.018552" lon="-2.686630">
        <ele>1656.5</ele>
        <time>2021-07-03T06:51:23.000Z</time>
      </trkpt>
      <trkpt lat="42.018685" lon="-2.686595">
        <ele>1656.5</ele>
        <time>2021-07-03T06:51:25.000Z</time>
      </trkpt>
      <trkpt lat="42.018818" lon="-2.686565">
        <ele>1656.2</ele>
        <time>2021-07-03T06:51:27.000Z</time>
      </trkpt>
      <trkpt lat="42.018943" lon="-2.686538">
        <ele>1655.3</ele>
        <time>2021-07-03T06:51:29.000Z</time>
      </trkpt>
      <trkpt lat="42.019065" lon="-2.686517">
        <ele>1654.9</ele>
        <time>2021-07-03T06:51:31.000Z</time>
      </trkpt>
      <trkpt lat="42.019180" lon="-2.686485">
        <ele>1655.1</ele>
        <time>2021-07-03T06:51:33.000Z</time>
      </trkpt>
      <trkpt lat="42.019288" lon="-2.686450">
        <ele>1655.2</ele>
        <time>2021-07-03T06:51:35.000Z</time>
      </trkpt>
      <trkpt lat="42.019392" lon="-2.686423">
        <ele>1655.9</ele>
        <time>2021-07-03T06:51:37.000Z</time>
      </trkpt>
      <trkpt lat="42.019492" lon="-2.686403">
        <ele>1655.3</ele>
        <time>2021-07-03T06:51:39.000Z</time>
      </trkpt>
      <trkpt lat="42.019592" lon="-2.686390">
        <ele>1655.1</ele>
        <time>2021-07-03T06:51:41.000Z</time>
      </trkpt>
      <trkpt lat="42.019690" lon="-2.686383">
        <ele>1653.9</ele>
        <time>2021-07-03T06:51:43.000Z</time>
      </trkpt>
      <trkpt lat="42.019793" lon="-2.686393">
        <ele>1654.7</ele>
        <time>2021-07-03T06:51:45.000Z</time>
      </trkpt>
      <trkpt lat="42.019907" lon="-2.686407">
        <ele>1654.9</ele>
        <time>2021-07-03T06:51:47.000Z</time>
      </trkpt>
      <trkpt lat="42.020018" lon="-2.686432">
        <ele>1653.8</ele>
        <time>2021-07-03T06:51:49.000Z</time>
      </trkpt>
      <trkpt lat="42.020132" lon="-2.686470">
        <ele>1652.7</ele>
        <time>2021-07-03T06:51:51.000Z</time>
      </trkpt>
      <trkpt lat="42.020253" lon="-2.686513">
        <ele>1651.2</ele>
        <time>2021-07-03T06:51:53.000Z</time>
      </trkpt>
      <trkpt lat="42.020373" lon="-2.686568">
        <ele>1652.2</ele>
        <time>2021-07-03T06:51:55.000Z</time>
      </trkpt>
      <trkpt lat="42.020495" lon="-2.686627">
        <ele>1652.6</ele>
        <time>2021-07-03T06:51:57.000Z</time>
      </trkpt>
      <trkpt lat="42.020610" lon="-2.686695">
        <ele>1652.1</ele>
        <time>2021-07-03T06:51:59.000Z</time>
      </trkpt>
      <trkpt lat="42.020725" lon="-2.686767">
        <ele>1652.0</ele>
        <time>2021-07-03T06:52:01.000Z</time>
      </trkpt>
      <trkpt lat="42.020842" lon="-2.686838">
        <ele>1652.1</ele>
        <time>2021-07-03T06:52:03.000Z</time>
      </trkpt>
      <trkpt lat="42.020943" lon="-2.686915">
        <ele>1650.3</ele>
        <time>2021-07-03T06:52:05.000Z</time>
      </trkpt>
      <trkpt lat="42.021047" lon="-2.686985">
        <ele>1650.1</ele>
        <time>2021-07-03T06:52:07.000Z</time>
      </trkpt>
      <trkpt lat="42.021155" lon="-2.687057">
        <ele>1648.4</ele>
        <time>2021-07-03T06:52:09.000Z</time>
      </trkpt>
      <trkpt lat="42.021262" lon="-2.687123">
        <ele>1649.7</ele>
        <time>2021-07-03T06:52:11.000Z</time>
      </trkpt>
      <trkpt lat="42.021365" lon="-2.687200">
        <ele>1648.2</ele>
        <time>2021-07-03T06:52:13.000Z</time>
      </trkpt>
      <trkpt lat="42.021472" lon="-2.687288">
        <ele>1647.3</ele>
        <time>2021-07-03T06:52:15.000Z</time>
      </trkpt>
      <trkpt lat="42.021595" lon="-2.687400">
        <ele>1645.6</ele>
        <time>2021-07-03T06:52:17.000Z</time>
      </trkpt>
      <trkpt lat="42.021722" lon="-2.687533">
        <ele>1643.7</ele>
        <time>2021-07-03T06:52:19.000Z</time>
      </trkpt>
      <trkpt lat="42.021842" lon="-2.687658">
        <ele>1643.2</ele>
        <time>2021-07-03T06:52:21.000Z</time>
      </trkpt>
      <trkpt lat="42.021942" lon="-2.687770">
        <ele>1643.0</ele>
        <time>2021-07-03T06:52:23.000Z</time>
      </trkpt>
      <trkpt lat="42.022023" lon="-2.687852">
        <ele>1644.3</ele>
        <time>2021-07-03T06:52:25.000Z</time>
      </trkpt>
      <trkpt lat="42.022138" lon="-2.687920">
        <ele>1645.8</ele>
        <time>2021-07-03T06:52:28.000Z</time>
      </trkpt>
      <trkpt lat="42.022253" lon="-2.687945">
        <ele>1645.5</ele>
        <time>2021-07-03T06:52:31.000Z</time>
      </trkpt>
      <trkpt lat="42.022372" lon="-2.687970">
        <ele>1646.1</ele>
        <time>2021-07-03T06:52:34.000Z</time>
      </trkpt>
      <trkpt lat="42.022490" lon="-2.688012">
        <ele>1645.5</ele>
        <time>2021-07-03T06:52:37.000Z</time>
      </trkpt>
      <trkpt lat="42.022612" lon="-2.688073">
        <ele>1644.8</ele>
        <time>2021-07-03T06:52:40.000Z</time>
      </trkpt>
      <trkpt lat="42.022723" lon="-2.688142">
        <ele>1646.0</ele>
        <time>2021-07-03T06:52:43.000Z</time>
      </trkpt>
      <trkpt lat="42.022818" lon="-2.688232">
        <ele>1646.0</ele>
        <time>2021-07-03T06:52:46.000Z</time>
      </trkpt>
      <trkpt lat="42.022893" lon="-2.688343">
        <ele>1646.7</ele>
        <time>2021-07-03T06:52:49.000Z</time>
      </trkpt>
      <trkpt lat="42.022952" lon="-2.688485">
        <ele>1647.0</ele>
        <time>2021-07-03T06:52:52.000Z</time>
      </trkpt>
      <trkpt lat="42.022988" lon="-2.688640">
        <ele>1647.9</ele>
        <time>2021-07-03T06:52:55.000Z</time>
      </trkpt>
      <trkpt lat="42.022993" lon="-2.688802">
        <ele>1646.9</ele>
        <time>2021-07-03T06:52:58.000Z</time>
      </trkpt>
      <trkpt lat="42.022983" lon="-2.688965">
        <ele>1646.2</ele>
        <time>2021-07-03T06:53:01.000Z</time>
      </trkpt>
      <trkpt lat="42.022947" lon="-2.689130">
        <ele>1646.1</ele>
        <time>2021-07-03T06:53:04.000Z</time>
      </trkpt>
      <trkpt lat="42.022900" lon="-2.689285">
        <ele>1646.0</ele>
        <time>2021-07-03T06:53:07.000Z</time>
      </trkpt>
      <trkpt lat="42.022852" lon="-2.689460">
        <ele>1646.0</ele>
        <time>2021-07-03T06:53:10.000Z</time>
      </trkpt>
      <trkpt lat="42.022822" lon="-2.689580">
        <ele>1646.2</ele>
        <time>2021-07-03T06:53:12.000Z</time>
      </trkpt>
      <trkpt lat="42.022785" lon="-2.689705">
        <ele>1645.7</ele>
        <time>2021-07-03T06:53:14.000Z</time>
      </trkpt>
      <trkpt lat="42.022738" lon="-2.689825">
        <ele>1645.6</ele>
        <time>2021-07-03T06:53:16.000Z</time>
      </trkpt>
      <trkpt lat="42.022693" lon="-2.689947">
        <ele>1645.4</ele>
        <time>2021-07-03T06:53:18.000Z</time>
      </trkpt>
      <trkpt lat="42.022653" lon="-2.690088">
        <ele>1645.4</ele>
        <time>2021-07-03T06:53:20.000Z</time>
      </trkpt>
      <trkpt lat="42.022615" lon="-2.690230">
        <ele>1645.1</ele>
        <time>2021-07-03T06:53:22.000Z</time>
      </trkpt>
      <trkpt lat="42.022570" lon="-2.690370">
        <ele>1643.6</ele>
        <time>2021-07-03T06:53:24.000Z</time>
      </trkpt>
      <trkpt lat="42.022525" lon="-2.690523">
        <ele>1644.4</ele>
        <time>2021-07-03T06:53:26.000Z</time>
      </trkpt>
      <trkpt lat="42.022478" lon="-2.690677">
        <ele>1644.3</ele>
        <time>2021-07-03T06:53:28.000Z</time>
      </trkpt>
      <trkpt lat="42.022443" lon="-2.690818">
        <ele>1642.4</ele>
        <time>2021-07-03T06:53:30.000Z</time>
      </trkpt>
      <trkpt lat="42.022402" lon="-2.690965">
        <ele>1641.8</ele>
        <time>2021-07-03T06:53:32.000Z</time>
      </trkpt>
      <trkpt lat="42.022353" lon="-2.691118">
        <ele>1640.7</ele>
        <time>2021-07-03T06:53:34.000Z</time>
      </trkpt>
      <trkpt lat="42.022310" lon="-2.691270">
        <ele>1640.5</ele>
        <time>2021-07-03T06:53:36.000Z</time>
      </trkpt>
      <trkpt lat="42.022272" lon="-2.691420">
        <ele>1640.5</ele>
        <time>2021-07-03T06:53:38.000Z</time>
      </trkpt>
      <trkpt lat="42.022237" lon="-2.691555">
        <ele>1640.8</ele>
        <time>2021-07-03T06:53:40.000Z</time>
      </trkpt>
      <trkpt lat="42.022207" lon="-2.691675">
        <ele>1640.5</ele>
        <time>2021-07-03T06:53:42.000Z</time>
      </trkpt>
      <trkpt lat="42.022162" lon="-2.691780">
        <ele>1641.0</ele>
        <time>2021-07-03T06:53:44.000Z</time>
      </trkpt>
      <trkpt lat="42.022092" lon="-2.691925">
        <ele>1641.0</ele>
        <time>2021-07-03T06:53:47.000Z</time>
      </trkpt>
      <trkpt lat="42.022027" lon="-2.692058">
        <ele>1640.8</ele>
        <time>2021-07-03T06:53:50.000Z</time>
      </trkpt>
      <trkpt lat="42.021953" lon="-2.692187">
        <ele>1641.2</ele>
        <time>2021-07-03T06:53:53.000Z</time>
      </trkpt>
      <trkpt lat="42.021863" lon="-2.692285">
        <ele>1641.0</ele>
        <time>2021-07-03T06:53:55.000Z</time>
      </trkpt>
      <trkpt lat="42.021775" lon="-2.692375">
        <ele>1640.0</ele>
        <time>2021-07-03T06:53:57.000Z</time>
      </trkpt>
      <trkpt lat="42.021680" lon="-2.692467">
        <ele>1639.7</ele>
        <time>2021-07-03T06:53:59.000Z</time>
      </trkpt>
      <trkpt lat="42.021585" lon="-2.692567">
        <ele>1639.7</ele>
        <time>2021-07-03T06:54:01.000Z</time>
      </trkpt>
      <trkpt lat="42.021485" lon="-2.692675">
        <ele>1639.2</ele>
        <time>2021-07-03T06:54:03.000Z</time>
      </trkpt>
      <trkpt lat="42.021390" lon="-2.692785">
        <ele>1637.9</ele>
        <time>2021-07-03T06:54:05.000Z</time>
      </trkpt>
      <trkpt lat="42.021298" lon="-2.692897">
        <ele>1636.9</ele>
        <time>2021-07-03T06:54:07.000Z</time>
      </trkpt>
      <trkpt lat="42.021200" lon="-2.693015">
        <ele>1636.5</ele>
        <time>2021-07-03T06:54:09.000Z</time>
      </trkpt>
      <trkpt lat="42.021097" lon="-2.693127">
        <ele>1637.6</ele>
        <time>2021-07-03T06:54:11.000Z</time>
      </trkpt>
      <trkpt lat="42.021005" lon="-2.693238">
        <ele>1637.9</ele>
        <time>2021-07-03T06:54:13.000Z</time>
      </trkpt>
      <trkpt lat="42.020922" lon="-2.693333">
        <ele>1637.8</ele>
        <time>2021-07-03T06:54:15.000Z</time>
      </trkpt>
      <trkpt lat="42.020842" lon="-2.693402">
        <ele>1637.0</ele>
        <time>2021-07-03T06:54:17.000Z</time>
      </trkpt>
      <trkpt lat="42.020762" lon="-2.693458">
        <ele>1636.8</ele>
        <time>2021-07-03T06:54:19.000Z</time>
      </trkpt>
      <trkpt lat="42.020678" lon="-2.693518">
        <ele>1636.9</ele>
        <time>2021-07-03T06:54:21.000Z</time>
      </trkpt>
      <trkpt lat="42.020613" lon="-2.693613">
        <ele>1636.7</ele>
        <time>2021-07-03T06:54:23.000Z</time>
      </trkpt>
      <trkpt lat="42.020607" lon="-2.693757">
        <ele>1636.9</ele>
        <time>2021-07-03T06:54:25.000Z</time>
      </trkpt>
      <trkpt lat="42.020662" lon="-2.693877">
        <ele>1636.6</ele>
        <time>2021-07-03T06:54:27.000Z</time>
      </trkpt>
      <trkpt lat="42.020745" lon="-2.693943">
        <ele>1635.8</ele>
        <time>2021-07-03T06:54:29.000Z</time>
      </trkpt>
      <trkpt lat="42.020855" lon="-2.693935">
        <ele>1634.8</ele>
        <time>2021-07-03T06:54:31.000Z</time>
      </trkpt>
      <trkpt lat="42.020982" lon="-2.693882">
        <ele>1633.2</ele>
        <time>2021-07-03T06:54:33.000Z</time>
      </trkpt>
      <trkpt lat="42.021103" lon="-2.693840">
        <ele>1634.0</ele>
        <time>2021-07-03T06:54:35.000Z</time>
      </trkpt>
      <trkpt lat="42.021245" lon="-2.693800">
        <ele>1634.6</ele>
        <time>2021-07-03T06:54:37.000Z</time>
      </trkpt>
      <trkpt lat="42.021397" lon="-2.693752">
        <ele>1634.2</ele>
        <time>2021-07-03T06:54:39.000Z</time>
      </trkpt>
      <trkpt lat="42.021540" lon="-2.693703">
        <ele>1632.4</ele>
        <time>2021-07-03T06:54:41.000Z</time>
      </trkpt>
      <trkpt lat="42.021662" lon="-2.693672">
        <ele>1631.7</ele>
        <time>2021-07-03T06:54:43.000Z</time>
      </trkpt>
      <trkpt lat="42.021787" lon="-2.693643">
        <ele>1632.0</ele>
        <time>2021-07-03T06:54:45.000Z</time>
      </trkpt>
      <trkpt lat="42.021913" lon="-2.693625">
        <ele>1630.3</ele>
        <time>2021-07-03T06:54:47.000Z</time>
      </trkpt>
      <trkpt lat="42.022035" lon="-2.693615">
        <ele>1631.9</ele>
        <time>2021-07-03T06:54:49.000Z</time>
      </trkpt>
      <trkpt lat="42.022160" lon="-2.693602">
        <ele>1632.3</ele>
        <time>2021-07-03T06:54:51.000Z</time>
      </trkpt>
      <trkpt lat="42.022288" lon="-2.693577">
        <ele>1630.6</ele>
        <time>2021-07-03T06:54:53.000Z</time>
      </trkpt>
      <trkpt lat="42.022413" lon="-2.693555">
        <ele>1631.6</ele>
        <time>2021-07-03T06:54:55.000Z</time>
      </trkpt>
      <trkpt lat="42.022535" lon="-2.693543">
        <ele>1629.6</ele>
        <time>2021-07-03T06:54:57.000Z</time>
      </trkpt>
      <trkpt lat="42.022642" lon="-2.693525">
        <ele>1630.0</ele>
        <time>2021-07-03T06:54:59.000Z</time>
      </trkpt>
      <trkpt lat="42.022743" lon="-2.693505">
        <ele>1628.6</ele>
        <time>2021-07-03T06:55:01.000Z</time>
      </trkpt>
      <trkpt lat="42.022838" lon="-2.693482">
        <ele>1628.6</ele>
        <time>2021-07-03T06:55:03.000Z</time>
      </trkpt>
      <trkpt lat="42.022967" lon="-2.693442">
        <ele>1629.9</ele>
        <time>2021-07-03T06:55:06.000Z</time>
      </trkpt>
      <trkpt lat="42.023062" lon="-2.693423">
        <ele>1630.2</ele>
        <time>2021-07-03T06:55:08.000Z</time>
      </trkpt>
      <trkpt lat="42.023162" lon="-2.693410">
        <ele>1630.5</ele>
        <time>2021-07-03T06:55:10.000Z</time>
      </trkpt>
      <trkpt lat="42.023268" lon="-2.693397">
        <ele>1630.6</ele>
        <time>2021-07-03T06:55:12.000Z</time>
      </trkpt>
      <trkpt lat="42.023377" lon="-2.693380">
        <ele>1630.5</ele>
        <time>2021-07-03T06:55:14.000Z</time>
      </trkpt>
      <trkpt lat="42.023478" lon="-2.693363">
        <ele>1630.5</ele>
        <time>2021-07-03T06:55:16.000Z</time>
      </trkpt>
      <trkpt lat="42.023583" lon="-2.693355">
        <ele>1630.6</ele>
        <time>2021-07-03T06:55:18.000Z</time>
      </trkpt>
      <trkpt lat="42.023685" lon="-2.693380">
        <ele>1628.1</ele>
        <time>2021-07-03T06:55:20.000Z</time>
      </trkpt>
      <trkpt lat="42.023790" lon="-2.693445">
        <ele>1628.2</ele>
        <time>2021-07-03T06:55:22.000Z</time>
      </trkpt>
      <trkpt lat="42.023897" lon="-2.693533">
        <ele>1628.0</ele>
        <time>2021-07-03T06:55:24.000Z</time>
      </trkpt>
      <trkpt lat="42.024012" lon="-2.693610">
        <ele>1626.8</ele>
        <time>2021-07-03T06:55:26.000Z</time>
      </trkpt>
      <trkpt lat="42.024125" lon="-2.693673">
        <ele>1625.8</ele>
        <time>2021-07-03T06:55:28.000Z</time>
      </trkpt>
      <trkpt lat="42.024227" lon="-2.693728">
        <ele>1626.5</ele>
        <time>2021-07-03T06:55:30.000Z</time>
      </trkpt>
      <trkpt lat="42.024322" lon="-2.693780">
        <ele>1627.2</ele>
        <time>2021-07-03T06:55:32.000Z</time>
      </trkpt>
      <trkpt lat="42.024410" lon="-2.693835">
        <ele>1627.0</ele>
        <time>2021-07-03T06:55:34.000Z</time>
      </trkpt>
      <trkpt lat="42.024505" lon="-2.693883">
        <ele>1626.7</ele>
        <time>2021-07-03T06:55:36.000Z</time>
      </trkpt>
      <trkpt lat="42.024602" lon="-2.693925">
        <ele>1626.1</ele>
        <time>2021-07-03T06:55:38.000Z</time>
      </trkpt>
      <trkpt lat="42.024705" lon="-2.693962">
        <ele>1626.6</ele>
        <time>2021-07-03T06:55:40.000Z</time>
      </trkpt>
      <trkpt lat="42.024797" lon="-2.693995">
        <ele>1626.9</ele>
        <time>2021-07-03T06:55:42.000Z</time>
      </trkpt>
      <trkpt lat="42.024927" lon="-2.694042">
        <ele>1626.6</ele>
        <time>2021-07-03T06:55:45.000Z</time>
      </trkpt>
      <trkpt lat="42.025025" lon="-2.694005">
        <ele>1626.6</ele>
        <time>2021-07-03T06:55:47.000Z</time>
      </trkpt>
      <trkpt lat="42.025098" lon="-2.693897">
        <ele>1626.2</ele>
        <time>2021-07-03T06:55:49.000Z</time>
      </trkpt>
      <trkpt lat="42.025155" lon="-2.693757">
        <ele>1625.1</ele>
        <time>2021-07-03T06:55:51.000Z</time>
      </trkpt>
      <trkpt lat="42.025188" lon="-2.693620">
        <ele>1624.5</ele>
        <time>2021-07-03T06:55:53.000Z</time>
      </trkpt>
      <trkpt lat="42.025225" lon="-2.693502">
        <ele>1624.8</ele>
        <time>2021-07-03T06:55:55.000Z</time>
      </trkpt>
      <trkpt lat="42.025293" lon="-2.693373">
        <ele>1625.4</ele>
        <time>2021-07-03T06:55:58.000Z</time>
      </trkpt>
      <trkpt lat="42.025375" lon="-2.693262">
        <ele>1626.2</ele>
        <time>2021-07-03T06:56:01.000Z</time>
      </trkpt>
      <trkpt lat="42.025477" lon="-2.693138">
        <ele>1625.7</ele>
        <time>2021-07-03T06:56:04.000Z</time>
      </trkpt>
      <trkpt lat="42.025560" lon="-2.693050">
        <ele>1624.7</ele>
        <time>2021-07-03T06:56:06.000Z</time>
      </trkpt>
      <trkpt lat="42.025648" lon="-2.692973">
        <ele>1623.9</ele>
        <time>2021-07-03T06:56:08.000Z</time>
      </trkpt>
      <trkpt lat="42.025737" lon="-2.692923">
        <ele>1623.5</ele>
        <time>2021-07-03T06:56:10.000Z</time>
      </trkpt>
      <trkpt lat="42.025842" lon="-2.692893">
        <ele>1624.4</ele>
        <time>2021-07-03T06:56:12.000Z</time>
      </trkpt>
      <trkpt lat="42.025948" lon="-2.692865">
        <ele>1622.5</ele>
        <time>2021-07-03T06:56:14.000Z</time>
      </trkpt>
      <trkpt lat="42.026055" lon="-2.692822">
        <ele>1622.9</ele>
        <time>2021-07-03T06:56:16.000Z</time>
      </trkpt>
      <trkpt lat="42.026162" lon="-2.692762">
        <ele>1622.7</ele>
        <time>2021-07-03T06:56:18.000Z</time>
      </trkpt>
      <trkpt lat="42.026277" lon="-2.692678">
        <ele>1620.8</ele>
        <time>2021-07-03T06:56:20.000Z</time>
      </trkpt>
      <trkpt lat="42.026393" lon="-2.692590">
        <ele>1621.2</ele>
        <time>2021-07-03T06:56:22.000Z</time>
      </trkpt>
      <trkpt lat="42.026497" lon="-2.692488">
        <ele>1621.5</ele>
        <time>2021-07-03T06:56:24.000Z</time>
      </trkpt>
      <trkpt lat="42.026578" lon="-2.692387">
        <ele>1620.7</ele>
        <time>2021-07-03T06:56:26.000Z</time>
      </trkpt>
      <trkpt lat="42.026650" lon="-2.692292">
        <ele>1621.0</ele>
        <time>2021-07-03T06:56:28.000Z</time>
      </trkpt>
      <trkpt lat="42.026750" lon="-2.692177">
        <ele>1621.2</ele>
        <time>2021-07-03T06:56:31.000Z</time>
      </trkpt>
      <trkpt lat="42.026833" lon="-2.692060">
        <ele>1622.1</ele>
        <time>2021-07-03T06:56:34.000Z</time>
      </trkpt>
      <trkpt lat="42.026918" lon="-2.691923">
        <ele>1621.2</ele>
        <time>2021-07-03T06:56:37.000Z</time>
      </trkpt>
      <trkpt lat="42.026977" lon="-2.691828">
        <ele>1620.8</ele>
        <time>2021-07-03T06:56:39.000Z</time>
      </trkpt>
      <trkpt lat="42.027032" lon="-2.691730">
        <ele>1618.9</ele>
        <time>2021-07-03T06:56:41.000Z</time>
      </trkpt>
      <trkpt lat="42.027100" lon="-2.691627">
        <ele>1618.9</ele>
        <time>2021-07-03T06:56:43.000Z</time>
      </trkpt>
      <trkpt lat="42.027180" lon="-2.691527">
        <ele>1620.8</ele>
        <time>2021-07-03T06:56:45.000Z</time>
      </trkpt>
      <trkpt lat="42.027258" lon="-2.691428">
        <ele>1619.2</ele>
        <time>2021-07-03T06:56:47.000Z</time>
      </trkpt>
      <trkpt lat="42.027342" lon="-2.691333">
        <ele>1617.5</ele>
        <time>2021-07-03T06:56:49.000Z</time>
      </trkpt>
      <trkpt lat="42.027420" lon="-2.691242">
        <ele>1621.0</ele>
        <time>2021-07-03T06:56:51.000Z</time>
      </trkpt>
      <trkpt lat="42.027482" lon="-2.691152">
        <ele>1619.6</ele>
        <time>2021-07-03T06:56:53.000Z</time>
      </trkpt>
      <trkpt lat="42.027538" lon="-2.691053">
        <ele>1618.0</ele>
        <time>2021-07-03T06:56:55.000Z</time>
      </trkpt>
      <trkpt lat="42.027590" lon="-2.690948">
        <ele>1618.4</ele>
        <time>2021-07-03T06:56:57.000Z</time>
      </trkpt>
      <trkpt lat="42.027647" lon="-2.690852">
        <ele>1618.6</ele>
        <time>2021-07-03T06:56:59.000Z</time>
      </trkpt>
      <trkpt lat="42.027710" lon="-2.690703">
        <ele>1618.2</ele>
        <time>2021-07-03T06:57:02.000Z</time>
      </trkpt>
      <trkpt lat="42.027762" lon="-2.690602">
        <ele>1618.6</ele>
        <time>2021-07-03T06:57:04.000Z</time>
      </trkpt>
      <trkpt lat="42.027830" lon="-2.690455">
        <ele>1619.3</ele>
        <time>2021-07-03T06:57:07.000Z</time>
      </trkpt>
      <trkpt lat="42.027877" lon="-2.690350">
        <ele>1618.0</ele>
        <time>2021-07-03T06:57:09.000Z</time>
      </trkpt>
      <trkpt lat="42.027932" lon="-2.690193">
        <ele>1616.6</ele>
        <time>2021-07-03T06:57:12.000Z</time>
      </trkpt>
      <trkpt lat="42.027998" lon="-2.690052">
        <ele>1617.7</ele>
        <time>2021-07-03T06:57:15.000Z</time>
      </trkpt>
      <trkpt lat="42.028057" lon="-2.689913">
        <ele>1618.1</ele>
        <time>2021-07-03T06:57:18.000Z</time>
      </trkpt>
      <trkpt lat="42.028122" lon="-2.689775">
        <ele>1618.2</ele>
        <time>2021-07-03T06:57:21.000Z</time>
      </trkpt>
      <trkpt lat="42.028162" lon="-2.689663">
        <ele>1616.9</ele>
        <time>2021-07-03T06:57:23.000Z</time>
      </trkpt>
      <trkpt lat="42.028193" lon="-2.689548">
        <ele>1615.7</ele>
        <time>2021-07-03T06:57:25.000Z</time>
      </trkpt>
      <trkpt lat="42.028228" lon="-2.689432">
        <ele>1615.5</ele>
        <time>2021-07-03T06:57:27.000Z</time>
      </trkpt>
      <trkpt lat="42.028275" lon="-2.689322">
        <ele>1616.5</ele>
        <time>2021-07-03T06:57:29.000Z</time>
      </trkpt>
      <trkpt lat="42.028323" lon="-2.689200">
        <ele>1615.8</ele>
        <time>2021-07-03T06:57:31.000Z</time>
      </trkpt>
      <trkpt lat="42.028370" lon="-2.689078">
        <ele>1615.4</ele>
        <time>2021-07-03T06:57:33.000Z</time>
      </trkpt>
      <trkpt lat="42.028420" lon="-2.688957">
        <ele>1614.9</ele>
        <time>2021-07-03T06:57:35.000Z</time>
      </trkpt>
      <trkpt lat="42.028478" lon="-2.688832">
        <ele>1614.5</ele>
        <time>2021-07-03T06:57:37.000Z</time>
      </trkpt>
      <trkpt lat="42.028535" lon="-2.688710">
        <ele>1614.7</ele>
        <time>2021-07-03T06:57:39.000Z</time>
      </trkpt>
      <trkpt lat="42.028595" lon="-2.688603">
        <ele>1615.6</ele>
        <time>2021-07-03T06:57:41.000Z</time>
      </trkpt>
      <trkpt lat="42.028677" lon="-2.688473">
        <ele>1613.3</ele>
        <time>2021-07-03T06:57:44.000Z</time>
      </trkpt>
      <trkpt lat="42.028758" lon="-2.688375">
        <ele>1613.2</ele>
        <time>2021-07-03T06:57:47.000Z</time>
      </trkpt>
      <trkpt lat="42.028848" lon="-2.688297">
        <ele>1614.1</ele>
        <time>2021-07-03T06:57:50.000Z</time>
      </trkpt>
      <trkpt lat="42.028950" lon="-2.688250">
        <ele>1614.7</ele>
        <time>2021-07-03T06:57:53.000Z</time>
      </trkpt>
      <trkpt lat="42.029057" lon="-2.688237">
        <ele>1614.6</ele>
        <time>2021-07-03T06:57:56.000Z</time>
      </trkpt>
      <trkpt lat="42.029183" lon="-2.688280">
        <ele>1612.9</ele>
        <time>2021-07-03T06:57:59.000Z</time>
      </trkpt>
      <trkpt lat="42.029268" lon="-2.688352">
        <ele>1613.3</ele>
        <time>2021-07-03T06:58:01.000Z</time>
      </trkpt>
      <trkpt lat="42.029345" lon="-2.688437">
        <ele>1612.8</ele>
        <time>2021-07-03T06:58:03.000Z</time>
      </trkpt>
      <trkpt lat="42.029417" lon="-2.688527">
        <ele>1612.5</ele>
        <time>2021-07-03T06:58:05.000Z</time>
      </trkpt>
      <trkpt lat="42.029510" lon="-2.688640">
        <ele>1612.7</ele>
        <time>2021-07-03T06:58:08.000Z</time>
      </trkpt>
      <trkpt lat="42.029587" lon="-2.688737">
        <ele>1611.9</ele>
        <time>2021-07-03T06:58:11.000Z</time>
      </trkpt>
      <trkpt lat="42.029672" lon="-2.688823">
        <ele>1612.3</ele>
        <time>2021-07-03T06:58:14.000Z</time>
      </trkpt>
      <trkpt lat="42.029758" lon="-2.688907">
        <ele>1612.0</ele>
        <time>2021-07-03T06:58:17.000Z</time>
      </trkpt>
      <trkpt lat="42.029850" lon="-2.688980">
        <ele>1612.3</ele>
        <time>2021-07-03T06:58:20.000Z</time>
      </trkpt>
      <trkpt lat="42.029963" lon="-2.689057">
        <ele>1611.4</ele>
        <time>2021-07-03T06:58:23.000Z</time>
      </trkpt>
      <trkpt lat="42.030052" lon="-2.689102">
        <ele>1610.5</ele>
        <time>2021-07-03T06:58:25.000Z</time>
      </trkpt>
      <trkpt lat="42.030153" lon="-2.689138">
        <ele>1609.2</ele>
        <time>2021-07-03T06:58:27.000Z</time>
      </trkpt>
      <trkpt lat="42.030272" lon="-2.689173">
        <ele>1608.6</ele>
        <time>2021-07-03T06:58:29.000Z</time>
      </trkpt>
      <trkpt lat="42.030407" lon="-2.689222">
        <ele>1606.7</ele>
        <time>2021-07-03T06:58:31.000Z</time>
      </trkpt>
      <trkpt lat="42.030552" lon="-2.689278">
        <ele>1606.8</ele>
        <time>2021-07-03T06:58:33.000Z</time>
      </trkpt>
      <trkpt lat="42.030683" lon="-2.689355">
        <ele>1607.5</ele>
        <time>2021-07-03T06:58:35.000Z</time>
      </trkpt>
      <trkpt lat="42.030787" lon="-2.689430">
        <ele>1605.9</ele>
        <time>2021-07-03T06:58:37.000Z</time>
      </trkpt>
      <trkpt lat="42.030862" lon="-2.689508">
        <ele>1606.4</ele>
        <time>2021-07-03T06:58:39.000Z</time>
      </trkpt>
      <trkpt lat="42.030945" lon="-2.689638">
        <ele>1607.4</ele>
        <time>2021-07-03T06:58:42.000Z</time>
      </trkpt>
      <trkpt lat="42.031000" lon="-2.689782">
        <ele>1608.2</ele>
        <time>2021-07-03T06:58:45.000Z</time>
      </trkpt>
      <trkpt lat="42.031037" lon="-2.689923">
        <ele>1608.3</ele>
        <time>2021-07-03T06:58:48.000Z</time>
      </trkpt>
      <trkpt lat="42.031072" lon="-2.690068">
        <ele>1607.9</ele>
        <time>2021-07-03T06:58:51.000Z</time>
      </trkpt>
      <trkpt lat="42.031102" lon="-2.690207">
        <ele>1607.9</ele>
        <time>2021-07-03T06:58:54.000Z</time>
      </trkpt>
      <trkpt lat="42.031118" lon="-2.690358">
        <ele>1608.8</ele>
        <time>2021-07-03T06:58:57.000Z</time>
      </trkpt>
      <trkpt lat="42.031132" lon="-2.690537">
        <ele>1607.6</ele>
        <time>2021-07-03T06:59:00.000Z</time>
      </trkpt>
      <trkpt lat="42.031153" lon="-2.690662">
        <ele>1607.8</ele>
        <time>2021-07-03T06:59:02.000Z</time>
      </trkpt>
      <trkpt lat="42.031183" lon="-2.690788">
        <ele>1607.3</ele>
        <time>2021-07-03T06:59:04.000Z</time>
      </trkpt>
      <trkpt lat="42.031202" lon="-2.690918">
        <ele>1606.9</ele>
        <time>2021-07-03T06:59:06.000Z</time>
      </trkpt>
      <trkpt lat="42.031223" lon="-2.691050">
        <ele>1606.3</ele>
        <time>2021-07-03T06:59:08.000Z</time>
      </trkpt>
      <trkpt lat="42.031252" lon="-2.691182">
        <ele>1605.7</ele>
        <time>2021-07-03T06:59:10.000Z</time>
      </trkpt>
      <trkpt lat="42.031290" lon="-2.691317">
        <ele>1605.6</ele>
        <time>2021-07-03T06:59:12.000Z</time>
      </trkpt>
      <trkpt lat="42.031317" lon="-2.691460">
        <ele>1605.5</ele>
        <time>2021-07-03T06:59:14.000Z</time>
      </trkpt>
      <trkpt lat="42.031337" lon="-2.691602">
        <ele>1605.2</ele>
        <time>2021-07-03T06:59:16.000Z</time>
      </trkpt>
      <trkpt lat="42.031352" lon="-2.691740">
        <ele>1604.9</ele>
        <time>2021-07-03T06:59:18.000Z</time>
      </trkpt>
      <trkpt lat="42.031377" lon="-2.691878">
        <ele>1604.7</ele>
        <time>2021-07-03T06:59:20.000Z</time>
      </trkpt>
      <trkpt lat="42.031410" lon="-2.692017">
        <ele>1603.9</ele>
        <time>2021-07-03T06:59:22.000Z</time>
      </trkpt>
      <trkpt lat="42.031460" lon="-2.692147">
        <ele>1604.5</ele>
        <time>2021-07-03T06:59:24.000Z</time>
      </trkpt>
      <trkpt lat="42.031505" lon="-2.692275">
        <ele>1603.3</ele>
        <time>2021-07-03T06:59:26.000Z</time>
      </trkpt>
      <trkpt lat="42.031552" lon="-2.692397">
        <ele>1602.4</ele>
        <time>2021-07-03T06:59:28.000Z</time>
      </trkpt>
      <trkpt lat="42.031588" lon="-2.692515">
        <ele>1602.8</ele>
        <time>2021-07-03T06:59:30.000Z</time>
      </trkpt>
      <trkpt lat="42.031628" lon="-2.692637">
        <ele>1603.6</ele>
        <time>2021-07-03T06:59:32.000Z</time>
      </trkpt>
      <trkpt lat="42.031677" lon="-2.692760">
        <ele>1603.6</ele>
        <time>2021-07-03T06:59:34.000Z</time>
      </trkpt>
      <trkpt lat="42.031735" lon="-2.692882">
        <ele>1602.1</ele>
        <time>2021-07-03T06:59:36.000Z</time>
      </trkpt>
      <trkpt lat="42.031797" lon="-2.693003">
        <ele>1601.8</ele>
        <time>2021-07-03T06:59:38.000Z</time>
      </trkpt>
      <trkpt lat="42.031870" lon="-2.693118">
        <ele>1602.1</ele>
        <time>2021-07-03T06:59:40.000Z</time>
      </trkpt>
      <trkpt lat="42.031938" lon="-2.693240">
        <ele>1601.2</ele>
        <time>2021-07-03T06:59:42.000Z</time>
      </trkpt>
      <trkpt lat="42.032018" lon="-2.693355">
        <ele>1600.7</ele>
        <time>2021-07-03T06:59:44.000Z</time>
      </trkpt>
      <trkpt lat="42.032097" lon="-2.693465">
        <ele>1600.4</ele>
        <time>2021-07-03T06:59:46.000Z</time>
      </trkpt>
      <trkpt lat="42.032175" lon="-2.693567">
        <ele>1600.5</ele>
        <time>2021-07-03T06:59:48.000Z</time>
      </trkpt>
      <trkpt lat="42.032252" lon="-2.693660">
        <ele>1600.6</ele>
        <time>2021-07-03T06:59:50.000Z</time>
      </trkpt>
      <trkpt lat="42.032313" lon="-2.693762">
        <ele>1601.0</ele>
        <time>2021-07-03T06:59:52.000Z</time>
      </trkpt>
      <trkpt lat="42.032363" lon="-2.693872">
        <ele>1600.8</ele>
        <time>2021-07-03T06:59:54.000Z</time>
      </trkpt>
      <trkpt lat="42.032407" lon="-2.693987">
        <ele>1600.5</ele>
        <time>2021-07-03T06:59:56.000Z</time>
      </trkpt>
      <trkpt lat="42.032440" lon="-2.694105">
        <ele>1599.9</ele>
        <time>2021-07-03T06:59:58.000Z</time>
      </trkpt>
      <trkpt lat="42.032473" lon="-2.694220">
        <ele>1599.6</ele>
        <time>2021-07-03T07:00:00.000Z</time>
      </trkpt>
      <trkpt lat="42.032587" lon="-2.694275">
        <ele>1599.0</ele>
        <time>2021-07-03T07:00:03.000Z</time>
      </trkpt>
      <trkpt lat="42.032712" lon="-2.694213">
        <ele>1598.9</ele>
        <time>2021-07-03T07:00:05.000Z</time>
      </trkpt>
      <trkpt lat="42.032820" lon="-2.694138">
        <ele>1598.6</ele>
        <time>2021-07-03T07:00:07.000Z</time>
      </trkpt>
      <trkpt lat="42.032910" lon="-2.694068">
        <ele>1600.2</ele>
        <time>2021-07-03T07:00:10.000Z</time>
      </trkpt>
      <trkpt lat="42.033018" lon="-2.694000">
        <ele>1597.9</ele>
        <time>2021-07-03T07:00:13.000Z</time>
      </trkpt>
      <trkpt lat="42.033123" lon="-2.693938">
        <ele>1598.2</ele>
        <time>2021-07-03T07:00:15.000Z</time>
      </trkpt>
      <trkpt lat="42.033223" lon="-2.693857">
        <ele>1598.1</ele>
        <time>2021-07-03T07:00:17.000Z</time>
      </trkpt>
      <trkpt lat="42.033312" lon="-2.693770">
        <ele>1597.8</ele>
        <time>2021-07-03T07:00:19.000Z</time>
      </trkpt>
      <trkpt lat="42.033387" lon="-2.693698">
        <ele>1597.4</ele>
        <time>2021-07-03T07:00:21.000Z</time>
      </trkpt>
      <trkpt lat="42.033463" lon="-2.693632">
        <ele>1597.3</ele>
        <time>2021-07-03T07:00:23.000Z</time>
      </trkpt>
      <trkpt lat="42.033550" lon="-2.693567">
        <ele>1597.1</ele>
        <time>2021-07-03T07:00:25.000Z</time>
      </trkpt>
      <trkpt lat="42.033643" lon="-2.693503">
        <ele>1597.0</ele>
        <time>2021-07-03T07:00:27.000Z</time>
      </trkpt>
      <trkpt lat="42.033737" lon="-2.693435">
        <ele>1596.6</ele>
        <time>2021-07-03T07:00:29.000Z</time>
      </trkpt>
      <trkpt lat="42.033837" lon="-2.693363">
        <ele>1595.6</ele>
        <time>2021-07-03T07:00:31.000Z</time>
      </trkpt>
      <trkpt lat="42.033940" lon="-2.693292">
        <ele>1594.9</ele>
        <time>2021-07-03T07:00:33.000Z</time>
      </trkpt>
      <trkpt lat="42.034047" lon="-2.693242">
        <ele>1594.8</ele>
        <time>2021-07-03T07:00:35.000Z</time>
      </trkpt>
      <trkpt lat="42.034147" lon="-2.693215">
        <ele>1592.5</ele>
        <time>2021-07-03T07:00:37.000Z</time>
      </trkpt>
      <trkpt lat="42.034262" lon="-2.693193">
        <ele>1592.1</ele>
        <time>2021-07-03T07:00:39.000Z</time>
      </trkpt>
      <trkpt lat="42.034380" lon="-2.693168">
        <ele>1593.2</ele>
        <time>2021-07-03T07:00:41.000Z</time>
      </trkpt>
      <trkpt lat="42.034478" lon="-2.693135">
        <ele>1593.8</ele>
        <time>2021-07-03T07:00:43.000Z</time>
      </trkpt>
      <trkpt lat="42.034583" lon="-2.693038">
        <ele>1593.2</ele>
        <time>2021-07-03T07:00:46.000Z</time>
      </trkpt>
      <trkpt lat="42.034672" lon="-2.692923">
        <ele>1594.1</ele>
        <time>2021-07-03T07:00:49.000Z</time>
      </trkpt>
      <trkpt lat="42.034742" lon="-2.692805">
        <ele>1593.8</ele>
        <time>2021-07-03T07:00:52.000Z</time>
      </trkpt>
      <trkpt lat="42.034830" lon="-2.692692">
        <ele>1594.6</ele>
        <time>2021-07-03T07:00:55.000Z</time>
      </trkpt>
      <trkpt lat="42.034953" lon="-2.692607">
        <ele>1593.4</ele>
        <time>2021-07-03T07:00:58.000Z</time>
      </trkpt>
      <trkpt lat="42.035048" lon="-2.692552">
        <ele>1594.1</ele>
        <time>2021-07-03T07:01:00.000Z</time>
      </trkpt>
      <trkpt lat="42.035130" lon="-2.692478">
        <ele>1593.6</ele>
        <time>2021-07-03T07:01:02.000Z</time>
      </trkpt>
      <trkpt lat="42.035210" lon="-2.692392">
        <ele>1592.7</ele>
        <time>2021-07-03T07:01:04.000Z</time>
      </trkpt>
      <trkpt lat="42.035285" lon="-2.692303">
        <ele>1593.2</ele>
        <time>2021-07-03T07:01:06.000Z</time>
      </trkpt>
      <trkpt lat="42.035355" lon="-2.692225">
        <ele>1592.4</ele>
        <time>2021-07-03T07:01:08.000Z</time>
      </trkpt>
      <trkpt lat="42.035450" lon="-2.692113">
        <ele>1591.9</ele>
        <time>2021-07-03T07:01:11.000Z</time>
      </trkpt>
      <trkpt lat="42.035537" lon="-2.692022">
        <ele>1592.7</ele>
        <time>2021-07-03T07:01:14.000Z</time>
      </trkpt>
      <trkpt lat="42.035620" lon="-2.691957">
        <ele>1592.8</ele>
        <time>2021-07-03T07:01:17.000Z</time>
      </trkpt>
      <trkpt lat="42.035708" lon="-2.691892">
        <ele>1594.2</ele>
        <time>2021-07-03T07:01:20.000Z</time>
      </trkpt>
      <trkpt lat="42.035802" lon="-2.691805">
        <ele>1593.1</ele>
        <time>2021-07-03T07:01:24.000Z</time>
      </trkpt>
      <trkpt lat="42.035932" lon="-2.691735">
        <ele>1593.8</ele>
        <time>2021-07-03T07:01:27.000Z</time>
      </trkpt>
      <trkpt lat="42.036023" lon="-2.691683">
        <ele>1593.3</ele>
        <time>2021-07-03T07:01:29.000Z</time>
      </trkpt>
      <trkpt lat="42.036110" lon="-2.691627">
        <ele>1592.8</ele>
        <time>2021-07-03T07:01:31.000Z</time>
      </trkpt>
      <trkpt lat="42.036200" lon="-2.691568">
        <ele>1592.1</ele>
        <time>2021-07-03T07:01:33.000Z</time>
      </trkpt>
      <trkpt lat="42.036303" lon="-2.691507">
        <ele>1592.6</ele>
        <time>2021-07-03T07:01:35.000Z</time>
      </trkpt>
      <trkpt lat="42.036410" lon="-2.691447">
        <ele>1591.8</ele>
        <time>2021-07-03T07:01:37.000Z</time>
      </trkpt>
      <trkpt lat="42.036532" lon="-2.691382">
        <ele>1590.5</ele>
        <time>2021-07-03T07:01:39.000Z</time>
      </trkpt>
      <trkpt lat="42.036633" lon="-2.691335">
        <ele>1591.5</ele>
        <time>2021-07-03T07:01:41.000Z</time>
      </trkpt>
      <trkpt lat="42.036725" lon="-2.691295">
        <ele>1591.4</ele>
        <time>2021-07-03T07:01:43.000Z</time>
      </trkpt>
      <trkpt lat="42.036818" lon="-2.691268">
        <ele>1590.7</ele>
        <time>2021-07-03T07:01:45.000Z</time>
      </trkpt>
      <trkpt lat="42.036950" lon="-2.691285">
        <ele>1589.8</ele>
        <time>2021-07-03T07:01:48.000Z</time>
      </trkpt>
      <trkpt lat="42.037040" lon="-2.691342">
        <ele>1589.5</ele>
        <time>2021-07-03T07:01:50.000Z</time>
      </trkpt>
      <trkpt lat="42.037122" lon="-2.691412">
        <ele>1590.2</ele>
        <time>2021-07-03T07:01:52.000Z</time>
      </trkpt>
      <trkpt lat="42.037203" lon="-2.691482">
        <ele>1590.6</ele>
        <time>2021-07-03T07:01:54.000Z</time>
      </trkpt>
      <trkpt lat="42.037277" lon="-2.691553">
        <ele>1590.4</ele>
        <time>2021-07-03T07:01:56.000Z</time>
      </trkpt>
      <trkpt lat="42.037360" lon="-2.691690">
        <ele>1589.5</ele>
        <time>2021-07-03T07:01:59.000Z</time>
      </trkpt>
      <trkpt lat="42.037402" lon="-2.691805">
        <ele>1588.6</ele>
        <time>2021-07-03T07:02:01.000Z</time>
      </trkpt>
      <trkpt lat="42.037425" lon="-2.691943">
        <ele>1588.7</ele>
        <time>2021-07-03T07:02:03.000Z</time>
      </trkpt>
      <trkpt lat="42.037440" lon="-2.692073">
        <ele>1587.7</ele>
        <time>2021-07-03T07:02:05.000Z</time>
      </trkpt>
      <trkpt lat="42.037467" lon="-2.692200">
        <ele>1586.8</ele>
        <time>2021-07-03T07:02:07.000Z</time>
      </trkpt>
      <trkpt lat="42.037497" lon="-2.692333">
        <ele>1586.7</ele>
        <time>2021-07-03T07:02:09.000Z</time>
      </trkpt>
      <trkpt lat="42.037513" lon="-2.692475">
        <ele>1587.0</ele>
        <time>2021-07-03T07:02:11.000Z</time>
      </trkpt>
      <trkpt lat="42.037535" lon="-2.692615">
        <ele>1586.7</ele>
        <time>2021-07-03T07:02:13.000Z</time>
      </trkpt>
      <trkpt lat="42.037557" lon="-2.692752">
        <ele>1586.2</ele>
        <time>2021-07-03T07:02:15.000Z</time>
      </trkpt>
      <trkpt lat="42.037573" lon="-2.692888">
        <ele>1585.8</ele>
        <time>2021-07-03T07:02:17.000Z</time>
      </trkpt>
      <trkpt lat="42.037588" lon="-2.693028">
        <ele>1585.9</ele>
        <time>2021-07-03T07:02:19.000Z</time>
      </trkpt>
      <trkpt lat="42.037607" lon="-2.693162">
        <ele>1586.4</ele>
        <time>2021-07-03T07:02:21.000Z</time>
      </trkpt>
      <trkpt lat="42.037632" lon="-2.693290">
        <ele>1585.6</ele>
        <time>2021-07-03T07:02:23.000Z</time>
      </trkpt>
      <trkpt lat="42.037663" lon="-2.693413">
        <ele>1585.8</ele>
        <time>2021-07-03T07:02:25.000Z</time>
      </trkpt>
      <trkpt lat="42.037698" lon="-2.693535">
        <ele>1584.9</ele>
        <time>2021-07-03T07:02:27.000Z</time>
      </trkpt>
      <trkpt lat="42.037733" lon="-2.693650">
        <ele>1585.4</ele>
        <time>2021-07-03T07:02:29.000Z</time>
      </trkpt>
      <trkpt lat="42.037767" lon="-2.693765">
        <ele>1585.8</ele>
        <time>2021-07-03T07:02:31.000Z</time>
      </trkpt>
      <trkpt lat="42.037798" lon="-2.693882">
        <ele>1585.8</ele>
        <time>2021-07-03T07:02:33.000Z</time>
      </trkpt>
      <trkpt lat="42.037843" lon="-2.693995">
        <ele>1584.8</ele>
        <time>2021-07-03T07:02:35.000Z</time>
      </trkpt>
      <trkpt lat="42.037908" lon="-2.694100">
        <ele>1584.6</ele>
        <time>2021-07-03T07:02:37.000Z</time>
      </trkpt>
      <trkpt lat="42.037998" lon="-2.694188">
        <ele>1584.1</ele>
        <time>2021-07-03T07:02:39.000Z</time>
      </trkpt>
      <trkpt lat="42.038087" lon="-2.694260">
        <ele>1584.2</ele>
        <time>2021-07-03T07:02:41.000Z</time>
      </trkpt>
      <trkpt lat="42.038173" lon="-2.694315">
        <ele>1583.7</ele>
        <time>2021-07-03T07:02:43.000Z</time>
      </trkpt>
      <trkpt lat="42.038262" lon="-2.694352">
        <ele>1583.9</ele>
        <time>2021-07-03T07:02:45.000Z</time>
      </trkpt>
      <trkpt lat="42.038350" lon="-2.694382">
        <ele>1583.9</ele>
        <time>2021-07-03T07:02:47.000Z</time>
      </trkpt>
      <trkpt lat="42.038442" lon="-2.694403">
        <ele>1583.7</ele>
        <time>2021-07-03T07:02:49.000Z</time>
      </trkpt>
      <trkpt lat="42.038538" lon="-2.694425">
        <ele>1582.4</ele>
        <time>2021-07-03T07:02:51.000Z</time>
      </trkpt>
      <trkpt lat="42.038632" lon="-2.694445">
        <ele>1583.1</ele>
        <time>2021-07-03T07:02:53.000Z</time>
      </trkpt>
      <trkpt lat="42.038725" lon="-2.694453">
        <ele>1582.9</ele>
        <time>2021-07-03T07:02:55.000Z</time>
      </trkpt>
      <trkpt lat="42.038818" lon="-2.694450">
        <ele>1583.0</ele>
        <time>2021-07-03T07:02:57.000Z</time>
      </trkpt>
      <trkpt lat="42.038908" lon="-2.694448">
        <ele>1582.8</ele>
        <time>2021-07-03T07:02:59.000Z</time>
      </trkpt>
      <trkpt lat="42.039000" lon="-2.694437">
        <ele>1580.9</ele>
        <time>2021-07-03T07:03:01.000Z</time>
      </trkpt>
      <trkpt lat="42.039092" lon="-2.694433">
        <ele>1580.5</ele>
        <time>2021-07-03T07:03:03.000Z</time>
      </trkpt>
      <trkpt lat="42.039193" lon="-2.694433">
        <ele>1581.0</ele>
        <time>2021-07-03T07:03:05.000Z</time>
      </trkpt>
      <trkpt lat="42.039292" lon="-2.694447">
        <ele>1581.2</ele>
        <time>2021-07-03T07:03:07.000Z</time>
      </trkpt>
      <trkpt lat="42.039405" lon="-2.694468">
        <ele>1580.7</ele>
        <time>2021-07-03T07:03:09.000Z</time>
      </trkpt>
      <trkpt lat="42.039507" lon="-2.694512">
        <ele>1580.7</ele>
        <time>2021-07-03T07:03:11.000Z</time>
      </trkpt>
      <trkpt lat="42.039595" lon="-2.694570">
        <ele>1582.3</ele>
        <time>2021-07-03T07:03:13.000Z</time>
      </trkpt>
      <trkpt lat="42.039700" lon="-2.694668">
        <ele>1579.4</ele>
        <time>2021-07-03T07:03:16.000Z</time>
      </trkpt>
      <trkpt lat="42.039797" lon="-2.694802">
        <ele>1579.9</ele>
        <time>2021-07-03T07:03:19.000Z</time>
      </trkpt>
      <trkpt lat="42.039857" lon="-2.694900">
        <ele>1580.0</ele>
        <time>2021-07-03T07:03:21.000Z</time>
      </trkpt>
      <trkpt lat="42.039920" lon="-2.695002">
        <ele>1579.0</ele>
        <time>2021-07-03T07:03:23.000Z</time>
      </trkpt>
      <trkpt lat="42.039988" lon="-2.695108">
        <ele>1578.7</ele>
        <time>2021-07-03T07:03:25.000Z</time>
      </trkpt>
      <trkpt lat="42.040058" lon="-2.695215">
        <ele>1578.9</ele>
        <time>2021-07-03T07:03:27.000Z</time>
      </trkpt>
      <trkpt lat="42.040125" lon="-2.695315">
        <ele>1577.8</ele>
        <time>2021-07-03T07:03:29.000Z</time>
      </trkpt>
      <trkpt lat="42.040182" lon="-2.695420">
        <ele>1578.8</ele>
        <time>2021-07-03T07:03:31.000Z</time>
      </trkpt>
      <trkpt lat="42.040230" lon="-2.695530">
        <ele>1579.0</ele>
        <time>2021-07-03T07:03:33.000Z</time>
      </trkpt>
      <trkpt lat="42.040273" lon="-2.695652">
        <ele>1577.6</ele>
        <time>2021-07-03T07:03:35.000Z</time>
      </trkpt>
      <trkpt lat="42.040317" lon="-2.695787">
        <ele>1576.5</ele>
        <time>2021-07-03T07:03:37.000Z</time>
      </trkpt>
      <trkpt lat="42.040352" lon="-2.695917">
        <ele>1576.2</ele>
        <time>2021-07-03T07:03:39.000Z</time>
      </trkpt>
      <trkpt lat="42.040382" lon="-2.696050">
        <ele>1576.6</ele>
        <time>2021-07-03T07:03:41.000Z</time>
      </trkpt>
      <trkpt lat="42.040410" lon="-2.696180">
        <ele>1576.8</ele>
        <time>2021-07-03T07:03:43.000Z</time>
      </trkpt>
      <trkpt lat="42.040432" lon="-2.696313">
        <ele>1575.6</ele>
        <time>2021-07-03T07:03:45.000Z</time>
      </trkpt>
      <trkpt lat="42.040445" lon="-2.696445">
        <ele>1575.1</ele>
        <time>2021-07-03T07:03:47.000Z</time>
      </trkpt>
      <trkpt lat="42.040457" lon="-2.696573">
        <ele>1575.8</ele>
        <time>2021-07-03T07:03:49.000Z</time>
      </trkpt>
      <trkpt lat="42.040450" lon="-2.696715">
        <ele>1575.5</ele>
        <time>2021-07-03T07:03:51.000Z</time>
      </trkpt>
      <trkpt lat="42.040430" lon="-2.696858">
        <ele>1574.4</ele>
        <time>2021-07-03T07:03:53.000Z</time>
      </trkpt>
      <trkpt lat="42.040405" lon="-2.696995">
        <ele>1574.8</ele>
        <time>2021-07-03T07:03:55.000Z</time>
      </trkpt>
      <trkpt lat="42.040385" lon="-2.697132">
        <ele>1574.9</ele>
        <time>2021-07-03T07:03:57.000Z</time>
      </trkpt>
      <trkpt lat="42.040360" lon="-2.697265">
        <ele>1574.2</ele>
        <time>2021-07-03T07:03:59.000Z</time>
      </trkpt>
      <trkpt lat="42.040328" lon="-2.697397">
        <ele>1573.6</ele>
        <time>2021-07-03T07:04:01.000Z</time>
      </trkpt>
      <trkpt lat="42.040293" lon="-2.697527">
        <ele>1573.9</ele>
        <time>2021-07-03T07:04:03.000Z</time>
      </trkpt>
      <trkpt lat="42.040257" lon="-2.697653">
        <ele>1573.6</ele>
        <time>2021-07-03T07:04:05.000Z</time>
      </trkpt>
      <trkpt lat="42.040218" lon="-2.697777">
        <ele>1573.1</ele>
        <time>2021-07-03T07:04:07.000Z</time>
      </trkpt>
      <trkpt lat="42.040175" lon="-2.697895">
        <ele>1572.7</ele>
        <time>2021-07-03T07:04:09.000Z</time>
      </trkpt>
      <trkpt lat="42.040130" lon="-2.698012">
        <ele>1572.8</ele>
        <time>2021-07-03T07:04:11.000Z</time>
      </trkpt>
      <trkpt lat="42.040078" lon="-2.698125">
        <ele>1572.9</ele>
        <time>2021-07-03T07:04:13.000Z</time>
      </trkpt>
      <trkpt lat="42.040005" lon="-2.698283">
        <ele>1572.6</ele>
        <time>2021-07-03T07:04:16.000Z</time>
      </trkpt>
      <trkpt lat="42.039952" lon="-2.698433">
        <ele>1572.5</ele>
        <time>2021-07-03T07:04:19.000Z</time>
      </trkpt>
      <trkpt lat="42.039917" lon="-2.698582">
        <ele>1572.5</ele>
        <time>2021-07-03T07:04:22.000Z</time>
      </trkpt>
      <trkpt lat="42.039880" lon="-2.698738">
        <ele>1572.5</ele>
        <time>2021-07-03T07:04:25.000Z</time>
      </trkpt>
      <trkpt lat="42.039845" lon="-2.698852">
        <ele>1572.3</ele>
        <time>2021-07-03T07:04:27.000Z</time>
      </trkpt>
      <trkpt lat="42.039788" lon="-2.698970">
        <ele>1572.7</ele>
        <time>2021-07-03T07:04:29.000Z</time>
      </trkpt>
      <trkpt lat="42.039745" lon="-2.699078">
        <ele>1571.6</ele>
        <time>2021-07-03T07:04:31.000Z</time>
      </trkpt>
      <trkpt lat="42.039705" lon="-2.699187">
        <ele>1571.4</ele>
        <time>2021-07-03T07:04:33.000Z</time>
      </trkpt>
      <trkpt lat="42.039640" lon="-2.699302">
        <ele>1570.5</ele>
        <time>2021-07-03T07:04:35.000Z</time>
      </trkpt>
      <trkpt lat="42.039588" lon="-2.699410">
        <ele>1570.1</ele>
        <time>2021-07-03T07:04:37.000Z</time>
      </trkpt>
      <trkpt lat="42.039538" lon="-2.699520">
        <ele>1570.0</ele>
        <time>2021-07-03T07:04:39.000Z</time>
      </trkpt>
      <trkpt lat="42.039477" lon="-2.699628">
        <ele>1569.6</ele>
        <time>2021-07-03T07:04:41.000Z</time>
      </trkpt>
      <trkpt lat="42.039405" lon="-2.699747">
        <ele>1570.0</ele>
        <time>2021-07-03T07:04:43.000Z</time>
      </trkpt>
      <trkpt lat="42.039332" lon="-2.699875">
        <ele>1568.6</ele>
        <time>2021-07-03T07:04:45.000Z</time>
      </trkpt>
      <trkpt lat="42.039257" lon="-2.700012">
        <ele>1567.7</ele>
        <time>2021-07-03T07:04:47.000Z</time>
      </trkpt>
      <trkpt lat="42.039182" lon="-2.700152">
        <ele>1566.4</ele>
        <time>2021-07-03T07:04:49.000Z</time>
      </trkpt>
      <trkpt lat="42.039115" lon="-2.700293">
        <ele>1567.0</ele>
        <time>2021-07-03T07:04:51.000Z</time>
      </trkpt>
      <trkpt lat="42.039058" lon="-2.700440">
        <ele>1566.6</ele>
        <time>2021-07-03T07:04:53.000Z</time>
      </trkpt>
      <trkpt lat="42.038998" lon="-2.700582">
        <ele>1567.5</ele>
        <time>2021-07-03T07:04:55.000Z</time>
      </trkpt>
      <trkpt lat="42.038947" lon="-2.700715">
        <ele>1567.5</ele>
        <time>2021-07-03T07:04:57.000Z</time>
      </trkpt>
      <trkpt lat="42.038895" lon="-2.700833">
        <ele>1566.3</ele>
        <time>2021-07-03T07:04:59.000Z</time>
      </trkpt>
      <trkpt lat="42.038843" lon="-2.700962">
        <ele>1566.6</ele>
        <time>2021-07-03T07:05:01.000Z</time>
      </trkpt>
      <trkpt lat="42.038790" lon="-2.701088">
        <ele>1566.7</ele>
        <time>2021-07-03T07:05:03.000Z</time>
      </trkpt>
      <trkpt lat="42.038747" lon="-2.701203">
        <ele>1566.6</ele>
        <time>2021-07-03T07:05:05.000Z</time>
      </trkpt>
      <trkpt lat="42.038703" lon="-2.701310">
        <ele>1566.9</ele>
        <time>2021-07-03T07:05:07.000Z</time>
      </trkpt>
      <trkpt lat="42.038642" lon="-2.701462">
        <ele>1566.8</ele>
        <time>2021-07-03T07:05:10.000Z</time>
      </trkpt>
      <trkpt lat="42.038592" lon="-2.701563">
        <ele>1567.1</ele>
        <time>2021-07-03T07:05:12.000Z</time>
      </trkpt>
      <trkpt lat="42.038542" lon="-2.701673">
        <ele>1566.8</ele>
        <time>2021-07-03T07:05:14.000Z</time>
      </trkpt>
      <trkpt lat="42.038488" lon="-2.701783">
        <ele>1566.5</ele>
        <time>2021-07-03T07:05:16.000Z</time>
      </trkpt>
      <trkpt lat="42.038432" lon="-2.701892">
        <ele>1565.9</ele>
        <time>2021-07-03T07:05:18.000Z</time>
      </trkpt>
      <trkpt lat="42.038373" lon="-2.702005">
        <ele>1565.9</ele>
        <time>2021-07-03T07:05:20.000Z</time>
      </trkpt>
      <trkpt lat="42.038320" lon="-2.702120">
        <ele>1565.8</ele>
        <time>2021-07-03T07:05:22.000Z</time>
      </trkpt>
      <trkpt lat="42.038265" lon="-2.702240">
        <ele>1565.8</ele>
        <time>2021-07-03T07:05:24.000Z</time>
      </trkpt>
      <trkpt lat="42.038208" lon="-2.702357">
        <ele>1565.6</ele>
        <time>2021-07-03T07:05:26.000Z</time>
      </trkpt>
      <trkpt lat="42.038138" lon="-2.702467">
        <ele>1564.7</ele>
        <time>2021-07-03T07:05:28.000Z</time>
      </trkpt>
      <trkpt lat="42.038072" lon="-2.702583">
        <ele>1564.4</ele>
        <time>2021-07-03T07:05:30.000Z</time>
      </trkpt>
      <trkpt lat="42.038008" lon="-2.702685">
        <ele>1563.8</ele>
        <time>2021-07-03T07:05:32.000Z</time>
      </trkpt>
      <trkpt lat="42.037943" lon="-2.702790">
        <ele>1563.7</ele>
        <time>2021-07-03T07:05:35.000Z</time>
      </trkpt>
      <trkpt lat="42.037878" lon="-2.702887">
        <ele>1563.8</ele>
        <time>2021-07-03T07:05:38.000Z</time>
      </trkpt>
      <trkpt lat="42.037843" lon="-2.703033">
        <ele>1564.2</ele>
        <time>2021-07-03T07:05:41.000Z</time>
      </trkpt>
      <trkpt lat="42.037878" lon="-2.703192">
        <ele>1561.4</ele>
        <time>2021-07-03T07:05:44.000Z</time>
      </trkpt>
      <trkpt lat="42.037953" lon="-2.703310">
        <ele>1563.0</ele>
        <time>2021-07-03T07:05:47.000Z</time>
      </trkpt>
      <trkpt lat="42.038053" lon="-2.703422">
        <ele>1564.0</ele>
        <time>2021-07-03T07:05:50.000Z</time>
      </trkpt>
      <trkpt lat="42.038125" lon="-2.703500">
        <ele>1562.8</ele>
        <time>2021-07-03T07:05:52.000Z</time>
      </trkpt>
      <trkpt lat="42.038223" lon="-2.703618">
        <ele>1562.2</ele>
        <time>2021-07-03T07:05:55.000Z</time>
      </trkpt>
      <trkpt lat="42.038302" lon="-2.703702">
        <ele>1561.2</ele>
        <time>2021-07-03T07:05:57.000Z</time>
      </trkpt>
      <trkpt lat="42.038387" lon="-2.703780">
        <ele>1562.3</ele>
        <time>2021-07-03T07:05:59.000Z</time>
      </trkpt>
      <trkpt lat="42.038457" lon="-2.703857">
        <ele>1561.4</ele>
        <time>2021-07-03T07:06:01.000Z</time>
      </trkpt>
      <trkpt lat="42.038562" lon="-2.703945">
        <ele>1561.1</ele>
        <time>2021-07-03T07:06:04.000Z</time>
      </trkpt>
      <trkpt lat="42.038672" lon="-2.704012">
        <ele>1560.5</ele>
        <time>2021-07-03T07:06:07.000Z</time>
      </trkpt>
      <trkpt lat="42.038803" lon="-2.704052">
        <ele>1560.2</ele>
        <time>2021-07-03T07:06:10.000Z</time>
      </trkpt>
      <trkpt lat="42.038922" lon="-2.704058">
        <ele>1560.3</ele>
        <time>2021-07-03T07:06:13.000Z</time>
      </trkpt>
      <trkpt lat="42.038935" lon="-2.704060">
        <ele>1558.7</ele>
        <time>2021-07-03T07:06:16.000Z</time>
      </trkpt>
      <trkpt lat="42.038937" lon="-2.704060">
        <ele>1559.0</ele>
        <time>2021-07-03T07:06:38.000Z</time>
      </trkpt>
      <trkpt lat="42.039050" lon="-2.704112">
        <ele>1559.4</ele>
        <time>2021-07-03T07:06:43.000Z</time>
      </trkpt>
      <trkpt lat="42.039152" lon="-2.704140">
        <ele>1559.6</ele>
        <time>2021-07-03T07:06:46.000Z</time>
      </trkpt>
      <trkpt lat="42.039262" lon="-2.704172">
        <ele>1559.4</ele>
        <time>2021-07-03T07:06:49.000Z</time>
      </trkpt>
      <trkpt lat="42.039375" lon="-2.704205">
        <ele>1558.8</ele>
        <time>2021-07-03T07:06:52.000Z</time>
      </trkpt>
      <trkpt lat="42.039493" lon="-2.704240">
        <ele>1559.3</ele>
        <time>2021-07-03T07:06:55.000Z</time>
      </trkpt>
      <trkpt lat="42.039602" lon="-2.704270">
        <ele>1560.3</ele>
        <time>2021-07-03T07:06:58.000Z</time>
      </trkpt>
      <trkpt lat="42.039697" lon="-2.704307">
        <ele>1558.9</ele>
        <time>2021-07-03T07:07:01.000Z</time>
      </trkpt>
      <trkpt lat="42.039792" lon="-2.704338">
        <ele>1559.7</ele>
        <time>2021-07-03T07:07:04.000Z</time>
      </trkpt>
      <trkpt lat="42.039905" lon="-2.704355">
        <ele>1560.2</ele>
        <time>2021-07-03T07:07:07.000Z</time>
      </trkpt>
      <trkpt lat="42.040025" lon="-2.704340">
        <ele>1559.3</ele>
        <time>2021-07-03T07:07:10.000Z</time>
      </trkpt>
      <trkpt lat="42.040150" lon="-2.704308">
        <ele>1558.7</ele>
        <time>2021-07-03T07:07:13.000Z</time>
      </trkpt>
      <trkpt lat="42.040285" lon="-2.704287">
        <ele>1557.6</ele>
        <time>2021-07-03T07:07:16.000Z</time>
      </trkpt>
      <trkpt lat="42.040392" lon="-2.704265">
        <ele>1558.6</ele>
        <time>2021-07-03T07:07:18.000Z</time>
      </trkpt>
      <trkpt lat="42.040507" lon="-2.704233">
        <ele>1558.0</ele>
        <time>2021-07-03T07:07:20.000Z</time>
      </trkpt>
      <trkpt lat="42.040635" lon="-2.704207">
        <ele>1558.1</ele>
        <time>2021-07-03T07:07:22.000Z</time>
      </trkpt>
      <trkpt lat="42.040752" lon="-2.704180">
        <ele>1558.6</ele>
        <time>2021-07-03T07:07:24.000Z</time>
      </trkpt>
      <trkpt lat="42.040855" lon="-2.704158">
        <ele>1557.9</ele>
        <time>2021-07-03T07:07:26.000Z</time>
      </trkpt>
      <trkpt lat="42.040967" lon="-2.704133">
        <ele>1557.8</ele>
        <time>2021-07-03T07:07:28.000Z</time>
      </trkpt>
      <trkpt lat="42.041072" lon="-2.704105">
        <ele>1556.4</ele>
        <time>2021-07-03T07:07:30.000Z</time>
      </trkpt>
      <trkpt lat="42.041175" lon="-2.704087">
        <ele>1556.0</ele>
        <time>2021-07-03T07:07:32.000Z</time>
      </trkpt>
      <trkpt lat="42.041283" lon="-2.704077">
        <ele>1555.7</ele>
        <time>2021-07-03T07:07:34.000Z</time>
      </trkpt>
      <trkpt lat="42.041383" lon="-2.704075">
        <ele>1556.0</ele>
        <time>2021-07-03T07:07:36.000Z</time>
      </trkpt>
      <trkpt lat="42.041505" lon="-2.704073">
        <ele>1555.4</ele>
        <time>2021-07-03T07:07:39.000Z</time>
      </trkpt>
      <trkpt lat="42.041633" lon="-2.704092">
        <ele>1555.5</ele>
        <time>2021-07-03T07:07:42.000Z</time>
      </trkpt>
      <trkpt lat="42.041727" lon="-2.704117">
        <ele>1554.7</ele>
        <time>2021-07-03T07:07:44.000Z</time>
      </trkpt>
      <trkpt lat="42.041818" lon="-2.704152">
        <ele>1554.6</ele>
        <time>2021-07-03T07:07:46.000Z</time>
      </trkpt>
      <trkpt lat="42.041910" lon="-2.704188">
        <ele>1554.6</ele>
        <time>2021-07-03T07:07:48.000Z</time>
      </trkpt>
      <trkpt lat="42.041997" lon="-2.704235">
        <ele>1553.0</ele>
        <time>2021-07-03T07:07:50.000Z</time>
      </trkpt>
      <trkpt lat="42.042105" lon="-2.704322">
        <ele>1553.8</ele>
        <time>2021-07-03T07:07:53.000Z</time>
      </trkpt>
      <trkpt lat="42.042190" lon="-2.704427">
        <ele>1553.8</ele>
        <time>2021-07-03T07:07:56.000Z</time>
      </trkpt>
      <trkpt lat="42.042248" lon="-2.704555">
        <ele>1554.2</ele>
        <time>2021-07-03T07:07:59.000Z</time>
      </trkpt>
      <trkpt lat="42.042315" lon="-2.704685">
        <ele>1553.2</ele>
        <time>2021-07-03T07:08:03.000Z</time>
      </trkpt>
      <trkpt lat="42.042342" lon="-2.704767">
        <ele>1552.9</ele>
        <time>2021-07-03T07:08:09.000Z</time>
      </trkpt>
      <trkpt lat="42.042340" lon="-2.704768">
        <ele>1553.6</ele>
        <time>2021-07-03T07:08:22.000Z</time>
      </trkpt>
      <trkpt lat="42.042342" lon="-2.704768">
        <ele>1553.5</ele>
        <time>2021-07-03T07:08:24.000Z</time>
      </trkpt>
      <trkpt lat="42.042347" lon="-2.704770">
        <ele>1553.5</ele>
        <time>2021-07-03T07:08:27.000Z</time>
      </trkpt>
      <trkpt lat="42.042352" lon="-2.704772">
        <ele>1553.5</ele>
        <time>2021-07-03T07:08:30.000Z</time>
      </trkpt>
      <trkpt lat="42.042350" lon="-2.704772">
        <ele>1553.4</ele>
        <time>2021-07-03T07:08:36.000Z</time>
      </trkpt>
      <trkpt lat="42.042350" lon="-2.704772">
        <ele>1553.6</ele>
        <time>2021-07-03T07:08:37.000Z</time>
      </trkpt>
      <trkpt lat="42.042352" lon="-2.704772">
        <ele>1553.7</ele>
        <time>2021-07-03T07:08:43.000Z</time>
      </trkpt>
      <trkpt lat="42.042352" lon="-2.704772">
        <ele>1553.5</ele>
        <time>2021-07-03T07:08:44.000Z</time>
      </trkpt>
      <trkpt lat="42.042352" lon="-2.704783">
        <ele>1553.6</ele>
        <time>2021-07-03T07:09:05.000Z</time>
      </trkpt>
      <trkpt lat="42.042348" lon="-2.704937">
        <ele>1553.0</ele>
        <time>2021-07-03T07:09:10.000Z</time>
      </trkpt>
      <trkpt lat="42.042335" lon="-2.705088">
        <ele>1551.8</ele>
        <time>2021-07-03T07:09:13.000Z</time>
      </trkpt>
      <trkpt lat="42.042323" lon="-2.705245">
        <ele>1551.1</ele>
        <time>2021-07-03T07:09:16.000Z</time>
      </trkpt>
      <trkpt lat="42.042288" lon="-2.705418">
        <ele>1550.8</ele>
        <time>2021-07-03T07:09:19.000Z</time>
      </trkpt>
      <trkpt lat="42.042258" lon="-2.705545">
        <ele>1551.0</ele>
        <time>2021-07-03T07:09:21.000Z</time>
      </trkpt>
      <trkpt lat="42.042220" lon="-2.705713">
        <ele>1549.9</ele>
        <time>2021-07-03T07:09:24.000Z</time>
      </trkpt>
      <trkpt lat="42.042177" lon="-2.705872">
        <ele>1550.1</ele>
        <time>2021-07-03T07:09:27.000Z</time>
      </trkpt>
      <trkpt lat="42.042130" lon="-2.706003">
        <ele>1549.7</ele>
        <time>2021-07-03T07:09:30.000Z</time>
      </trkpt>
      <trkpt lat="42.042115" lon="-2.706140">
        <ele>1551.1</ele>
        <time>2021-07-03T07:09:37.000Z</time>
      </trkpt>
      <trkpt lat="42.042118" lon="-2.706295">
        <ele>1549.4</ele>
        <time>2021-07-03T07:09:42.000Z</time>
      </trkpt>
      <trkpt lat="42.042107" lon="-2.706437">
        <ele>1549.0</ele>
        <time>2021-07-03T07:09:46.000Z</time>
      </trkpt>
      <trkpt lat="42.042107" lon="-2.706435">
        <ele>1549.2</ele>
        <time>2021-07-03T07:09:47.000Z</time>
      </trkpt>
      <trkpt lat="42.042105" lon="-2.706437">
        <ele>1548.9</ele>
        <time>2021-07-03T07:09:51.000Z</time>
      </trkpt>
      <trkpt lat="42.042102" lon="-2.706453">
        <ele>1548.8</ele>
        <time>2021-07-03T07:09:55.000Z</time>
      </trkpt>
      <trkpt lat="42.042100" lon="-2.706457">
        <ele>1548.6</ele>
        <time>2021-07-03T07:10:01.000Z</time>
      </trkpt>
      <trkpt lat="42.042100" lon="-2.706457">
        <ele>1549.0</ele>
        <time>2021-07-03T07:10:02.000Z</time>
      </trkpt>
      <trkpt lat="42.042100" lon="-2.706465">
        <ele>1548.6</ele>
        <time>2021-07-03T07:10:07.000Z</time>
      </trkpt>
      <trkpt lat="42.042102" lon="-2.706590">
        <ele>1548.3</ele>
        <time>2021-07-03T07:10:12.000Z</time>
      </trkpt>
      <trkpt lat="42.042082" lon="-2.706735">
        <ele>1548.6</ele>
        <time>2021-07-03T07:10:16.000Z</time>
      </trkpt>
      <trkpt lat="42.042065" lon="-2.706870">
        <ele>1549.0</ele>
        <time>2021-07-03T07:10:19.000Z</time>
      </trkpt>
      <trkpt lat="42.042032" lon="-2.707030">
        <ele>1548.4</ele>
        <time>2021-07-03T07:10:22.000Z</time>
      </trkpt>
      <trkpt lat="42.041987" lon="-2.707197">
        <ele>1548.5</ele>
        <time>2021-07-03T07:10:25.000Z</time>
      </trkpt>
      <trkpt lat="42.041953" lon="-2.707370">
        <ele>1547.3</ele>
        <time>2021-07-03T07:10:28.000Z</time>
      </trkpt>
      <trkpt lat="42.041923" lon="-2.707533">
        <ele>1548.3</ele>
        <time>2021-07-03T07:10:31.000Z</time>
      </trkpt>
      <trkpt lat="42.041882" lon="-2.707702">
        <ele>1548.7</ele>
        <time>2021-07-03T07:10:34.000Z</time>
      </trkpt>
      <trkpt lat="42.041860" lon="-2.707835">
        <ele>1548.6</ele>
        <time>2021-07-03T07:10:36.000Z</time>
      </trkpt>
      <trkpt lat="42.041843" lon="-2.707957">
        <ele>1548.2</ele>
        <time>2021-07-03T07:10:38.000Z</time>
      </trkpt>
      <trkpt lat="42.041822" lon="-2.708077">
        <ele>1547.8</ele>
        <time>2021-07-03T07:10:40.000Z</time>
      </trkpt>
      <trkpt lat="42.041785" lon="-2.708223">
        <ele>1547.5</ele>
        <time>2021-07-03T07:10:42.000Z</time>
      </trkpt>
      <trkpt lat="42.041750" lon="-2.708355">
        <ele>1546.9</ele>
        <time>2021-07-03T07:10:44.000Z</time>
      </trkpt>
      <trkpt lat="42.041722" lon="-2.708475">
        <ele>1547.2</ele>
        <time>2021-07-03T07:10:46.000Z</time>
      </trkpt>
      <trkpt lat="42.041700" lon="-2.708603">
        <ele>1548.1</ele>
        <time>2021-07-03T07:10:48.000Z</time>
      </trkpt>
      <trkpt lat="42.041658" lon="-2.708747">
        <ele>1549.0</ele>
        <time>2021-07-03T07:10:50.000Z</time>
      </trkpt>
      <trkpt lat="42.041617" lon="-2.708898">
        <ele>1547.5</ele>
        <time>2021-07-03T07:10:52.000Z</time>
      </trkpt>
      <trkpt lat="42.041575" lon="-2.709037">
        <ele>1545.7</ele>
        <time>2021-07-03T07:10:54.000Z</time>
      </trkpt>
      <trkpt lat="42.041528" lon="-2.709187">
        <ele>1545.3</ele>
        <time>2021-07-03T07:10:56.000Z</time>
      </trkpt>
      <trkpt lat="42.041490" lon="-2.709342">
        <ele>1545.5</ele>
        <time>2021-07-03T07:10:58.000Z</time>
      </trkpt>
      <trkpt lat="42.041458" lon="-2.709495">
        <ele>1546.0</ele>
        <time>2021-07-03T07:11:00.000Z</time>
      </trkpt>
      <trkpt lat="42.041418" lon="-2.709655">
        <ele>1544.8</ele>
        <time>2021-07-03T07:11:02.000Z</time>
      </trkpt>
      <trkpt lat="42.041373" lon="-2.709797">
        <ele>1545.0</ele>
        <time>2021-07-03T07:11:04.000Z</time>
      </trkpt>
      <trkpt lat="42.041335" lon="-2.709943">
        <ele>1544.9</ele>
        <time>2021-07-03T07:11:06.000Z</time>
      </trkpt>
      <trkpt lat="42.041298" lon="-2.710080">
        <ele>1545.0</ele>
        <time>2021-07-03T07:11:08.000Z</time>
      </trkpt>
      <trkpt lat="42.041263" lon="-2.710230">
        <ele>1543.7</ele>
        <time>2021-07-03T07:11:10.000Z</time>
      </trkpt>
      <trkpt lat="42.041230" lon="-2.710370">
        <ele>1542.7</ele>
        <time>2021-07-03T07:11:12.000Z</time>
      </trkpt>
      <trkpt lat="42.041195" lon="-2.710492">
        <ele>1543.4</ele>
        <time>2021-07-03T07:11:14.000Z</time>
      </trkpt>
      <trkpt lat="42.041127" lon="-2.710653">
        <ele>1542.8</ele>
        <time>2021-07-03T07:11:17.000Z</time>
      </trkpt>
      <trkpt lat="42.041082" lon="-2.710812">
        <ele>1542.4</ele>
        <time>2021-07-03T07:11:20.000Z</time>
      </trkpt>
      <trkpt lat="42.041047" lon="-2.710987">
        <ele>1542.2</ele>
        <time>2021-07-03T07:11:23.000Z</time>
      </trkpt>
      <trkpt lat="42.041023" lon="-2.711123">
        <ele>1542.4</ele>
        <time>2021-07-03T07:11:25.000Z</time>
      </trkpt>
      <trkpt lat="42.040998" lon="-2.711253">
        <ele>1541.9</ele>
        <time>2021-07-03T07:11:27.000Z</time>
      </trkpt>
      <trkpt lat="42.040958" lon="-2.711427">
        <ele>1541.6</ele>
        <time>2021-07-03T07:11:30.000Z</time>
      </trkpt>
      <trkpt lat="42.040905" lon="-2.711588">
        <ele>1540.3</ele>
        <time>2021-07-03T07:11:33.000Z</time>
      </trkpt>
      <trkpt lat="42.040853" lon="-2.711695">
        <ele>1540.0</ele>
        <time>2021-07-03T07:11:35.000Z</time>
      </trkpt>
      <trkpt lat="42.040798" lon="-2.711798">
        <ele>1540.2</ele>
        <time>2021-07-03T07:11:37.000Z</time>
      </trkpt>
      <trkpt lat="42.040757" lon="-2.711945">
        <ele>1540.1</ele>
        <time>2021-07-03T07:11:40.000Z</time>
      </trkpt>
      <trkpt lat="42.040770" lon="-2.712098">
        <ele>1539.7</ele>
        <time>2021-07-03T07:11:43.000Z</time>
      </trkpt>
      <trkpt lat="42.040810" lon="-2.712240">
        <ele>1540.2</ele>
        <time>2021-07-03T07:11:46.000Z</time>
      </trkpt>
      <trkpt lat="42.040848" lon="-2.712352">
        <ele>1541.0</ele>
        <time>2021-07-03T07:11:49.000Z</time>
      </trkpt>
      <trkpt lat="42.040915" lon="-2.712453">
        <ele>1541.2</ele>
        <time>2021-07-03T07:11:52.000Z</time>
      </trkpt>
      <trkpt lat="42.040980" lon="-2.712552">
        <ele>1540.5</ele>
        <time>2021-07-03T07:11:55.000Z</time>
      </trkpt>
      <trkpt lat="42.041048" lon="-2.712655">
        <ele>1541.9</ele>
        <time>2021-07-03T07:11:59.000Z</time>
      </trkpt>
      <trkpt lat="42.041103" lon="-2.712765">
        <ele>1540.9</ele>
        <time>2021-07-03T07:12:02.000Z</time>
      </trkpt>
      <trkpt lat="42.041172" lon="-2.712895">
        <ele>1541.3</ele>
        <time>2021-07-03T07:12:05.000Z</time>
      </trkpt>
      <trkpt lat="42.041252" lon="-2.713002">
        <ele>1540.8</ele>
        <time>2021-07-03T07:12:08.000Z</time>
      </trkpt>
      <trkpt lat="42.041333" lon="-2.713108">
        <ele>1541.1</ele>
        <time>2021-07-03T07:12:11.000Z</time>
      </trkpt>
      <trkpt lat="42.041423" lon="-2.713210">
        <ele>1540.8</ele>
        <time>2021-07-03T07:12:14.000Z</time>
      </trkpt>
      <trkpt lat="42.041527" lon="-2.713303">
        <ele>1541.5</ele>
        <time>2021-07-03T07:12:17.000Z</time>
      </trkpt>
      <trkpt lat="42.041648" lon="-2.713383">
        <ele>1540.1</ele>
        <time>2021-07-03T07:12:20.000Z</time>
      </trkpt>
      <trkpt lat="42.041732" lon="-2.713450">
        <ele>1540.0</ele>
        <time>2021-07-03T07:12:22.000Z</time>
      </trkpt>
      <trkpt lat="42.041817" lon="-2.713513">
        <ele>1540.1</ele>
        <time>2021-07-03T07:12:24.000Z</time>
      </trkpt>
      <trkpt lat="42.041925" lon="-2.713603">
        <ele>1538.5</ele>
        <time>2021-07-03T07:12:27.000Z</time>
      </trkpt>
      <trkpt lat="42.042023" lon="-2.713695">
        <ele>1538.6</ele>
        <time>2021-07-03T07:12:30.000Z</time>
      </trkpt>
      <trkpt lat="42.042120" lon="-2.713788">
        <ele>1538.8</ele>
        <time>2021-07-03T07:12:33.000Z</time>
      </trkpt>
      <trkpt lat="42.042212" lon="-2.713858">
        <ele>1538.3</ele>
        <time>2021-07-03T07:12:36.000Z</time>
      </trkpt>
      <trkpt lat="42.042292" lon="-2.713963">
        <ele>1537.9</ele>
        <time>2021-07-03T07:12:39.000Z</time>
      </trkpt>
      <trkpt lat="42.042367" lon="-2.714100">
        <ele>1537.5</ele>
        <time>2021-07-03T07:12:42.000Z</time>
      </trkpt>
      <trkpt lat="42.042427" lon="-2.714262">
        <ele>1537.7</ele>
        <time>2021-07-03T07:12:45.000Z</time>
      </trkpt>
      <trkpt lat="42.042465" lon="-2.714378">
        <ele>1537.1</ele>
        <time>2021-07-03T07:12:47.000Z</time>
      </trkpt>
      <trkpt lat="42.042510" lon="-2.714543">
        <ele>1537.5</ele>
        <time>2021-07-03T07:12:50.000Z</time>
      </trkpt>
      <trkpt lat="42.042540" lon="-2.714663">
        <ele>1537.3</ele>
        <time>2021-07-03T07:12:52.000Z</time>
      </trkpt>
      <trkpt lat="42.042573" lon="-2.714788">
        <ele>1536.5</ele>
        <time>2021-07-03T07:12:54.000Z</time>
      </trkpt>
      <trkpt lat="42.042603" lon="-2.714927">
        <ele>1536.1</ele>
        <time>2021-07-03T07:12:56.000Z</time>
      </trkpt>
      <trkpt lat="42.042643" lon="-2.715067">
        <ele>1536.0</ele>
        <time>2021-07-03T07:12:58.000Z</time>
      </trkpt>
      <trkpt lat="42.042683" lon="-2.715207">
        <ele>1535.0</ele>
        <time>2021-07-03T07:13:00.000Z</time>
      </trkpt>
      <trkpt lat="42.042720" lon="-2.715345">
        <ele>1535.1</ele>
        <time>2021-07-03T07:13:02.000Z</time>
      </trkpt>
      <trkpt lat="42.042755" lon="-2.715482">
        <ele>1534.8</ele>
        <time>2021-07-03T07:13:04.000Z</time>
      </trkpt>
      <trkpt lat="42.042792" lon="-2.715613">
        <ele>1534.8</ele>
        <time>2021-07-03T07:13:06.000Z</time>
      </trkpt>
      <trkpt lat="42.042825" lon="-2.715738">
        <ele>1534.2</ele>
        <time>2021-07-03T07:13:08.000Z</time>
      </trkpt>
      <trkpt lat="42.042860" lon="-2.715867">
        <ele>1534.2</ele>
        <time>2021-07-03T07:13:10.000Z</time>
      </trkpt>
      <trkpt lat="42.042893" lon="-2.716000">
        <ele>1532.7</ele>
        <time>2021-07-03T07:13:12.000Z</time>
      </trkpt>
      <trkpt lat="42.042922" lon="-2.716127">
        <ele>1532.4</ele>
        <time>2021-07-03T07:13:14.000Z</time>
      </trkpt>
      <trkpt lat="42.042952" lon="-2.716262">
        <ele>1532.9</ele>
        <time>2021-07-03T07:13:16.000Z</time>
      </trkpt>
      <trkpt lat="42.042980" lon="-2.716392">
        <ele>1532.0</ele>
        <time>2021-07-03T07:13:18.000Z</time>
      </trkpt>
      <trkpt lat="42.043007" lon="-2.716517">
        <ele>1529.4</ele>
        <time>2021-07-03T07:13:20.000Z</time>
      </trkpt>
      <trkpt lat="42.043052" lon="-2.716678">
        <ele>1531.7</ele>
        <time>2021-07-03T07:13:23.000Z</time>
      </trkpt>
      <trkpt lat="42.043100" lon="-2.716830">
        <ele>1530.2</ele>
        <time>2021-07-03T07:13:26.000Z</time>
      </trkpt>
      <trkpt lat="42.043132" lon="-2.716995">
        <ele>1531.8</ele>
        <time>2021-07-03T07:13:29.000Z</time>
      </trkpt>
      <trkpt lat="42.043147" lon="-2.717155">
        <ele>1532.1</ele>
        <time>2021-07-03T07:13:32.000Z</time>
      </trkpt>
      <trkpt lat="42.043168" lon="-2.717323">
        <ele>1532.5</ele>
        <time>2021-07-03T07:13:35.000Z</time>
      </trkpt>
      <trkpt lat="42.043190" lon="-2.717497">
        <ele>1531.6</ele>
        <time>2021-07-03T07:13:38.000Z</time>
      </trkpt>
      <trkpt lat="42.043207" lon="-2.717675">
        <ele>1530.6</ele>
        <time>2021-07-03T07:13:41.000Z</time>
      </trkpt>
      <trkpt lat="42.043207" lon="-2.717797">
        <ele>1529.7</ele>
        <time>2021-07-03T07:13:43.000Z</time>
      </trkpt>
      <trkpt lat="42.043212" lon="-2.717975">
        <ele>1530.5</ele>
        <time>2021-07-03T07:13:46.000Z</time>
      </trkpt>
      <trkpt lat="42.043210" lon="-2.718142">
        <ele>1530.8</ele>
        <time>2021-07-03T07:13:49.000Z</time>
      </trkpt>
      <trkpt lat="42.043205" lon="-2.718285">
        <ele>1530.0</ele>
        <time>2021-07-03T07:13:52.000Z</time>
      </trkpt>
      <trkpt lat="42.043225" lon="-2.718442">
        <ele>1530.0</ele>
        <time>2021-07-03T07:13:56.000Z</time>
      </trkpt>
      <trkpt lat="42.043233" lon="-2.718587">
        <ele>1531.5</ele>
        <time>2021-07-03T07:13:59.000Z</time>
      </trkpt>
      <trkpt lat="42.043233" lon="-2.718717">
        <ele>1529.0</ele>
        <time>2021-07-03T07:14:02.000Z</time>
      </trkpt>
      <trkpt lat="42.043225" lon="-2.718872">
        <ele>1529.9</ele>
        <time>2021-07-03T07:14:05.000Z</time>
      </trkpt>
      <trkpt lat="42.043222" lon="-2.719033">
        <ele>1528.8</ele>
        <time>2021-07-03T07:14:08.000Z</time>
      </trkpt>
      <trkpt lat="42.043228" lon="-2.719158">
        <ele>1528.1</ele>
        <time>2021-07-03T07:14:10.000Z</time>
      </trkpt>
      <trkpt lat="42.043228" lon="-2.719323">
        <ele>1528.0</ele>
        <time>2021-07-03T07:14:13.000Z</time>
      </trkpt>
      <trkpt lat="42.043203" lon="-2.719512">
        <ele>1525.9</ele>
        <time>2021-07-03T07:14:16.000Z</time>
      </trkpt>
      <trkpt lat="42.043177" lon="-2.719652">
        <ele>1528.5</ele>
        <time>2021-07-03T07:14:18.000Z</time>
      </trkpt>
      <trkpt lat="42.043162" lon="-2.719798">
        <ele>1528.5</ele>
        <time>2021-07-03T07:14:20.000Z</time>
      </trkpt>
      <trkpt lat="42.043143" lon="-2.719922">
        <ele>1527.2</ele>
        <time>2021-07-03T07:14:22.000Z</time>
      </trkpt>
      <trkpt lat="42.043103" lon="-2.720102">
        <ele>1527.7</ele>
        <time>2021-07-03T07:14:25.000Z</time>
      </trkpt>
      <trkpt lat="42.043058" lon="-2.720237">
        <ele>1526.3</ele>
        <time>2021-07-03T07:14:27.000Z</time>
      </trkpt>
      <trkpt lat="42.043007" lon="-2.720357">
        <ele>1525.6</ele>
        <time>2021-07-03T07:14:29.000Z</time>
      </trkpt>
      <trkpt lat="42.042948" lon="-2.720473">
        <ele>1525.6</ele>
        <time>2021-07-03T07:14:31.000Z</time>
      </trkpt>
      <trkpt lat="42.042880" lon="-2.720608">
        <ele>1526.0</ele>
        <time>2021-07-03T07:14:34.000Z</time>
      </trkpt>
      <trkpt lat="42.042805" lon="-2.720760">
        <ele>1526.2</ele>
        <time>2021-07-03T07:14:37.000Z</time>
      </trkpt>
      <trkpt lat="42.042733" lon="-2.720903">
        <ele>1526.4</ele>
        <time>2021-07-03T07:14:40.000Z</time>
      </trkpt>
      <trkpt lat="42.042643" lon="-2.721020">
        <ele>1525.6</ele>
        <time>2021-07-03T07:14:43.000Z</time>
      </trkpt>
      <trkpt lat="42.042558" lon="-2.721135">
        <ele>1524.9</ele>
        <time>2021-07-03T07:14:46.000Z</time>
      </trkpt>
      <trkpt lat="42.042457" lon="-2.721245">
        <ele>1523.6</ele>
        <time>2021-07-03T07:14:49.000Z</time>
      </trkpt>
      <trkpt lat="42.042387" lon="-2.721337">
        <ele>1523.0</ele>
        <time>2021-07-03T07:14:51.000Z</time>
      </trkpt>
      <trkpt lat="42.042313" lon="-2.721425">
        <ele>1523.8</ele>
        <time>2021-07-03T07:14:53.000Z</time>
      </trkpt>
      <trkpt lat="42.042250" lon="-2.721512">
        <ele>1523.2</ele>
        <time>2021-07-03T07:14:55.000Z</time>
      </trkpt>
      <trkpt lat="42.042155" lon="-2.721627">
        <ele>1523.4</ele>
        <time>2021-07-03T07:14:58.000Z</time>
      </trkpt>
      <trkpt lat="42.042043" lon="-2.721727">
        <ele>1522.9</ele>
        <time>2021-07-03T07:15:01.000Z</time>
      </trkpt>
      <trkpt lat="42.041947" lon="-2.721845">
        <ele>1523.7</ele>
        <time>2021-07-03T07:15:04.000Z</time>
      </trkpt>
      <trkpt lat="42.041868" lon="-2.721973">
        <ele>1523.8</ele>
        <time>2021-07-03T07:15:07.000Z</time>
      </trkpt>
      <trkpt lat="42.041782" lon="-2.722095">
        <ele>1523.0</ele>
        <time>2021-07-03T07:15:10.000Z</time>
      </trkpt>
      <trkpt lat="42.041710" lon="-2.722168">
        <ele>1522.8</ele>
        <time>2021-07-03T07:15:12.000Z</time>
      </trkpt>
      <trkpt lat="42.041633" lon="-2.722237">
        <ele>1523.1</ele>
        <time>2021-07-03T07:15:14.000Z</time>
      </trkpt>
      <trkpt lat="42.041522" lon="-2.722335">
        <ele>1522.4</ele>
        <time>2021-07-03T07:15:17.000Z</time>
      </trkpt>
      <trkpt lat="42.041437" lon="-2.722405">
        <ele>1523.3</ele>
        <time>2021-07-03T07:15:19.000Z</time>
      </trkpt>
      <trkpt lat="42.041363" lon="-2.722483">
        <ele>1523.7</ele>
        <time>2021-07-03T07:15:21.000Z</time>
      </trkpt>
      <trkpt lat="42.041260" lon="-2.722592">
        <ele>1520.2</ele>
        <time>2021-07-03T07:15:24.000Z</time>
      </trkpt>
      <trkpt lat="42.041182" lon="-2.722673">
        <ele>1520.7</ele>
        <time>2021-07-03T07:15:26.000Z</time>
      </trkpt>
      <trkpt lat="42.041103" lon="-2.722758">
        <ele>1521.6</ele>
        <time>2021-07-03T07:15:28.000Z</time>
      </trkpt>
      <trkpt lat="42.041020" lon="-2.722840">
        <ele>1520.9</ele>
        <time>2021-07-03T07:15:30.000Z</time>
      </trkpt>
      <trkpt lat="42.040933" lon="-2.722908">
        <ele>1520.2</ele>
        <time>2021-07-03T07:15:32.000Z</time>
      </trkpt>
      <trkpt lat="42.040852" lon="-2.722978">
        <ele>1520.6</ele>
        <time>2021-07-03T07:15:34.000Z</time>
      </trkpt>
      <trkpt lat="42.040738" lon="-2.723078">
        <ele>1520.7</ele>
        <time>2021-07-03T07:15:37.000Z</time>
      </trkpt>
      <trkpt lat="42.040623" lon="-2.723170">
        <ele>1520.7</ele>
        <time>2021-07-03T07:15:40.000Z</time>
      </trkpt>
      <trkpt lat="42.040540" lon="-2.723235">
        <ele>1520.3</ele>
        <time>2021-07-03T07:15:42.000Z</time>
      </trkpt>
      <trkpt lat="42.040458" lon="-2.723300">
        <ele>1519.9</ele>
        <time>2021-07-03T07:15:44.000Z</time>
      </trkpt>
      <trkpt lat="42.040378" lon="-2.723363">
        <ele>1520.0</ele>
        <time>2021-07-03T07:15:46.000Z</time>
      </trkpt>
      <trkpt lat="42.040278" lon="-2.723423">
        <ele>1519.8</ele>
        <time>2021-07-03T07:15:48.000Z</time>
      </trkpt>
      <trkpt lat="42.040172" lon="-2.723477">
        <ele>1519.0</ele>
        <time>2021-07-03T07:15:50.000Z</time>
      </trkpt>
      <trkpt lat="42.040065" lon="-2.723525">
        <ele>1518.9</ele>
        <time>2021-07-03T07:15:52.000Z</time>
      </trkpt>
      <trkpt lat="42.039965" lon="-2.723575">
        <ele>1518.6</ele>
        <time>2021-07-03T07:15:54.000Z</time>
      </trkpt>
      <trkpt lat="42.039868" lon="-2.723615">
        <ele>1519.0</ele>
        <time>2021-07-03T07:15:56.000Z</time>
      </trkpt>
      <trkpt lat="42.039770" lon="-2.723650">
        <ele>1518.7</ele>
        <time>2021-07-03T07:15:58.000Z</time>
      </trkpt>
      <trkpt lat="42.039675" lon="-2.723682">
        <ele>1518.1</ele>
        <time>2021-07-03T07:16:00.000Z</time>
      </trkpt>
      <trkpt lat="42.039583" lon="-2.723717">
        <ele>1517.9</ele>
        <time>2021-07-03T07:16:02.000Z</time>
      </trkpt>
      <trkpt lat="42.039492" lon="-2.723750">
        <ele>1517.4</ele>
        <time>2021-07-03T07:16:04.000Z</time>
      </trkpt>
      <trkpt lat="42.039402" lon="-2.723790">
        <ele>1517.3</ele>
        <time>2021-07-03T07:16:06.000Z</time>
      </trkpt>
      <trkpt lat="42.039312" lon="-2.723820">
        <ele>1518.1</ele>
        <time>2021-07-03T07:16:08.000Z</time>
      </trkpt>
      <trkpt lat="42.039213" lon="-2.723825">
        <ele>1516.6</ele>
        <time>2021-07-03T07:16:10.000Z</time>
      </trkpt>
      <trkpt lat="42.039088" lon="-2.723827">
        <ele>1516.5</ele>
        <time>2021-07-03T07:16:13.000Z</time>
      </trkpt>
      <trkpt lat="42.038978" lon="-2.723805">
        <ele>1517.0</ele>
        <time>2021-07-03T07:16:16.000Z</time>
      </trkpt>
      <trkpt lat="42.038872" lon="-2.723768">
        <ele>1516.5</ele>
        <time>2021-07-03T07:16:19.000Z</time>
      </trkpt>
      <trkpt lat="42.038760" lon="-2.723732">
        <ele>1515.6</ele>
        <time>2021-07-03T07:16:22.000Z</time>
      </trkpt>
      <trkpt lat="42.038663" lon="-2.723713">
        <ele>1516.3</ele>
        <time>2021-07-03T07:16:25.000Z</time>
      </trkpt>
      <trkpt lat="42.038553" lon="-2.723740">
        <ele>1515.9</ele>
        <time>2021-07-03T07:16:29.000Z</time>
      </trkpt>
      <trkpt lat="42.038440" lon="-2.723767">
        <ele>1516.2</ele>
        <time>2021-07-03T07:16:33.000Z</time>
      </trkpt>
      <trkpt lat="42.038345" lon="-2.723782">
        <ele>1515.1</ele>
        <time>2021-07-03T07:16:36.000Z</time>
      </trkpt>
      <trkpt lat="42.038252" lon="-2.723787">
        <ele>1515.4</ele>
        <time>2021-07-03T07:16:39.000Z</time>
      </trkpt>
      <trkpt lat="42.038158" lon="-2.723797">
        <ele>1514.6</ele>
        <time>2021-07-03T07:16:42.000Z</time>
      </trkpt>
      <trkpt lat="42.038058" lon="-2.723790">
        <ele>1515.2</ele>
        <time>2021-07-03T07:16:45.000Z</time>
      </trkpt>
      <trkpt lat="42.037963" lon="-2.723778">
        <ele>1515.0</ele>
        <time>2021-07-03T07:16:48.000Z</time>
      </trkpt>
      <trkpt lat="42.037872" lon="-2.723733">
        <ele>1515.0</ele>
        <time>2021-07-03T07:16:51.000Z</time>
      </trkpt>
      <trkpt lat="42.037770" lon="-2.723652">
        <ele>1513.9</ele>
        <time>2021-07-03T07:16:54.000Z</time>
      </trkpt>
      <trkpt lat="42.037668" lon="-2.723583">
        <ele>1512.7</ele>
        <time>2021-07-03T07:16:57.000Z</time>
      </trkpt>
      <trkpt lat="42.037557" lon="-2.723567">
        <ele>1513.9</ele>
        <time>2021-07-03T07:17:01.000Z</time>
      </trkpt>
      <trkpt lat="42.037453" lon="-2.723598">
        <ele>1513.5</ele>
        <time>2021-07-03T07:17:05.000Z</time>
      </trkpt>
      <trkpt lat="42.037382" lon="-2.723675">
        <ele>1513.9</ele>
        <time>2021-07-03T07:17:09.000Z</time>
      </trkpt>
      <trkpt lat="42.037317" lon="-2.723797">
        <ele>1513.9</ele>
        <time>2021-07-03T07:17:14.000Z</time>
      </trkpt>
      <trkpt lat="42.037253" lon="-2.723887">
        <ele>1512.9</ele>
        <time>2021-07-03T07:17:17.000Z</time>
      </trkpt>
      <trkpt lat="42.037162" lon="-2.723953">
        <ele>1513.4</ele>
        <time>2021-07-03T07:17:20.000Z</time>
      </trkpt>
      <trkpt lat="42.037077" lon="-2.724005">
        <ele>1513.1</ele>
        <time>2021-07-03T07:17:23.000Z</time>
      </trkpt>
      <trkpt lat="42.036990" lon="-2.724052">
        <ele>1512.9</ele>
        <time>2021-07-03T07:17:26.000Z</time>
      </trkpt>
      <trkpt lat="42.036907" lon="-2.724107">
        <ele>1513.5</ele>
        <time>2021-07-03T07:17:29.000Z</time>
      </trkpt>
      <trkpt lat="42.036817" lon="-2.724147">
        <ele>1513.9</ele>
        <time>2021-07-03T07:17:32.000Z</time>
      </trkpt>
      <trkpt lat="42.036730" lon="-2.724202">
        <ele>1513.6</ele>
        <time>2021-07-03T07:17:35.000Z</time>
      </trkpt>
      <trkpt lat="42.036633" lon="-2.724245">
        <ele>1513.7</ele>
        <time>2021-07-03T07:17:38.000Z</time>
      </trkpt>
      <trkpt lat="42.036542" lon="-2.724295">
        <ele>1513.9</ele>
        <time>2021-07-03T07:17:41.000Z</time>
      </trkpt>
      <trkpt lat="42.036442" lon="-2.724335">
        <ele>1513.5</ele>
        <time>2021-07-03T07:17:44.000Z</time>
      </trkpt>
      <trkpt lat="42.036340" lon="-2.724368">
        <ele>1513.3</ele>
        <time>2021-07-03T07:17:47.000Z</time>
      </trkpt>
      <trkpt lat="42.036250" lon="-2.724377">
        <ele>1512.6</ele>
        <time>2021-07-03T07:17:49.000Z</time>
      </trkpt>
      <trkpt lat="42.036148" lon="-2.724373">
        <ele>1511.9</ele>
        <time>2021-07-03T07:17:51.000Z</time>
      </trkpt>
      <trkpt lat="42.036055" lon="-2.724370">
        <ele>1511.9</ele>
        <time>2021-07-03T07:17:53.000Z</time>
      </trkpt>
      <trkpt lat="42.035927" lon="-2.724350">
        <ele>1512.1</ele>
        <time>2021-07-03T07:17:56.000Z</time>
      </trkpt>
      <trkpt lat="42.035803" lon="-2.724300">
        <ele>1511.5</ele>
        <time>2021-07-03T07:17:59.000Z</time>
      </trkpt>
      <trkpt lat="42.035680" lon="-2.724260">
        <ele>1511.9</ele>
        <time>2021-07-03T07:18:02.000Z</time>
      </trkpt>
      <trkpt lat="42.035577" lon="-2.724205">
        <ele>1511.0</ele>
        <time>2021-07-03T07:18:05.000Z</time>
      </trkpt>
      <trkpt lat="42.035490" lon="-2.724163">
        <ele>1510.9</ele>
        <time>2021-07-03T07:18:07.000Z</time>
      </trkpt>
      <trkpt lat="42.035387" lon="-2.724092">
        <ele>1510.8</ele>
        <time>2021-07-03T07:18:09.000Z</time>
      </trkpt>
      <trkpt lat="42.035293" lon="-2.724032">
        <ele>1509.2</ele>
        <time>2021-07-03T07:18:11.000Z</time>
      </trkpt>
      <trkpt lat="42.035197" lon="-2.723982">
        <ele>1509.9</ele>
        <time>2021-07-03T07:18:13.000Z</time>
      </trkpt>
      <trkpt lat="42.035110" lon="-2.723940">
        <ele>1509.0</ele>
        <time>2021-07-03T07:18:15.000Z</time>
      </trkpt>
      <trkpt lat="42.035023" lon="-2.723902">
        <ele>1511.0</ele>
        <time>2021-07-03T07:18:17.000Z</time>
      </trkpt>
      <trkpt lat="42.034902" lon="-2.723848">
        <ele>1510.2</ele>
        <time>2021-07-03T07:18:20.000Z</time>
      </trkpt>
      <trkpt lat="42.034795" lon="-2.723793">
        <ele>1510.4</ele>
        <time>2021-07-03T07:18:23.000Z</time>
      </trkpt>
      <trkpt lat="42.034697" lon="-2.723745">
        <ele>1510.3</ele>
        <time>2021-07-03T07:18:26.000Z</time>
      </trkpt>
      <trkpt lat="42.034612" lon="-2.723690">
        <ele>1511.1</ele>
        <time>2021-07-03T07:18:29.000Z</time>
      </trkpt>
      <trkpt lat="42.034527" lon="-2.723618">
        <ele>1511.4</ele>
        <time>2021-07-03T07:18:32.000Z</time>
      </trkpt>
      <trkpt lat="42.034455" lon="-2.723537">
        <ele>1510.4</ele>
        <time>2021-07-03T07:18:35.000Z</time>
      </trkpt>
      <trkpt lat="42.034375" lon="-2.723443">
        <ele>1511.5</ele>
        <time>2021-07-03T07:18:38.000Z</time>
      </trkpt>
      <trkpt lat="42.034282" lon="-2.723343">
        <ele>1512.2</ele>
        <time>2021-07-03T07:18:42.000Z</time>
      </trkpt>
      <trkpt lat="42.034215" lon="-2.723227">
        <ele>1512.5</ele>
        <time>2021-07-03T07:18:46.000Z</time>
      </trkpt>
      <trkpt lat="42.034157" lon="-2.723127">
        <ele>1513.1</ele>
        <time>2021-07-03T07:18:50.000Z</time>
      </trkpt>
      <trkpt lat="42.034073" lon="-2.723033">
        <ele>1514.1</ele>
        <time>2021-07-03T07:18:54.000Z</time>
      </trkpt>
      <trkpt lat="42.033998" lon="-2.722917">
        <ele>1514.3</ele>
        <time>2021-07-03T07:18:58.000Z</time>
      </trkpt>
      <trkpt lat="42.033920" lon="-2.722808">
        <ele>1515.0</ele>
        <time>2021-07-03T07:19:02.000Z</time>
      </trkpt>
      <trkpt lat="42.033855" lon="-2.722697">
        <ele>1515.3</ele>
        <time>2021-07-03T07:19:06.000Z</time>
      </trkpt>
      <trkpt lat="42.033793" lon="-2.722597">
        <ele>1515.6</ele>
        <time>2021-07-03T07:19:10.000Z</time>
      </trkpt>
      <trkpt lat="42.033720" lon="-2.722510">
        <ele>1515.7</ele>
        <time>2021-07-03T07:19:14.000Z</time>
      </trkpt>
      <trkpt lat="42.033630" lon="-2.722425">
        <ele>1516.5</ele>
        <time>2021-07-03T07:19:18.000Z</time>
      </trkpt>
      <trkpt lat="42.033538" lon="-2.722347">
        <ele>1516.7</ele>
        <time>2021-07-03T07:19:22.000Z</time>
      </trkpt>
      <trkpt lat="42.033443" lon="-2.722272">
        <ele>1516.2</ele>
        <time>2021-07-03T07:19:26.000Z</time>
      </trkpt>
      <trkpt lat="42.033340" lon="-2.722208">
        <ele>1516.9</ele>
        <time>2021-07-03T07:19:30.000Z</time>
      </trkpt>
      <trkpt lat="42.033240" lon="-2.722132">
        <ele>1517.0</ele>
        <time>2021-07-03T07:19:34.000Z</time>
      </trkpt>
      <trkpt lat="42.033145" lon="-2.722058">
        <ele>1516.9</ele>
        <time>2021-07-03T07:19:38.000Z</time>
      </trkpt>
      <trkpt lat="42.033063" lon="-2.721993">
        <ele>1517.8</ele>
        <time>2021-07-03T07:19:42.000Z</time>
      </trkpt>
      <trkpt lat="42.032982" lon="-2.721932">
        <ele>1517.9</ele>
        <time>2021-07-03T07:19:46.000Z</time>
      </trkpt>
      <trkpt lat="42.032878" lon="-2.721893">
        <ele>1518.3</ele>
        <time>2021-07-03T07:19:51.000Z</time>
      </trkpt>
      <trkpt lat="42.032797" lon="-2.721820">
        <ele>1519.0</ele>
        <time>2021-07-03T07:19:55.000Z</time>
      </trkpt>
      <trkpt lat="42.032707" lon="-2.721732">
        <ele>1519.9</ele>
        <time>2021-07-03T07:19:59.000Z</time>
      </trkpt>
      <trkpt lat="42.032645" lon="-2.721598">
        <ele>1520.1</ele>
        <time>2021-07-03T07:20:03.000Z</time>
      </trkpt>
      <trkpt lat="42.032597" lon="-2.721483">
        <ele>1519.7</ele>
        <time>2021-07-03T07:20:06.000Z</time>
      </trkpt>
      <trkpt lat="42.032540" lon="-2.721360">
        <ele>1519.5</ele>
        <time>2021-07-03T07:20:09.000Z</time>
      </trkpt>
      <trkpt lat="42.032478" lon="-2.721233">
        <ele>1518.0</ele>
        <time>2021-07-03T07:20:12.000Z</time>
      </trkpt>
      <trkpt lat="42.032408" lon="-2.721120">
        <ele>1518.3</ele>
        <time>2021-07-03T07:20:15.000Z</time>
      </trkpt>
      <trkpt lat="42.032335" lon="-2.721017">
        <ele>1518.5</ele>
        <time>2021-07-03T07:20:18.000Z</time>
      </trkpt>
      <trkpt lat="42.032270" lon="-2.720917">
        <ele>1518.7</ele>
        <time>2021-07-03T07:20:21.000Z</time>
      </trkpt>
      <trkpt lat="42.032188" lon="-2.720822">
        <ele>1519.7</ele>
        <time>2021-07-03T07:20:25.000Z</time>
      </trkpt>
      <trkpt lat="42.032123" lon="-2.720705">
        <ele>1520.9</ele>
        <time>2021-07-03T07:20:31.000Z</time>
      </trkpt>
      <trkpt lat="42.032050" lon="-2.720615">
        <ele>1520.0</ele>
        <time>2021-07-03T07:20:37.000Z</time>
      </trkpt>
      <trkpt lat="42.031958" lon="-2.720618">
        <ele>1520.4</ele>
        <time>2021-07-03T07:20:42.000Z</time>
      </trkpt>
      <trkpt lat="42.031877" lon="-2.720700">
        <ele>1521.6</ele>
        <time>2021-07-03T07:20:46.000Z</time>
      </trkpt>
      <trkpt lat="42.031855" lon="-2.720830">
        <ele>1521.1</ele>
        <time>2021-07-03T07:20:50.000Z</time>
      </trkpt>
      <trkpt lat="42.031868" lon="-2.720952">
        <ele>1521.5</ele>
        <time>2021-07-03T07:20:54.000Z</time>
      </trkpt>
      <trkpt lat="42.031922" lon="-2.721082">
        <ele>1521.9</ele>
        <time>2021-07-03T07:20:59.000Z</time>
      </trkpt>
      <trkpt lat="42.031947" lon="-2.721218">
        <ele>1522.2</ele>
        <time>2021-07-03T07:21:04.000Z</time>
      </trkpt>
      <trkpt lat="42.031952" lon="-2.721357">
        <ele>1522.2</ele>
        <time>2021-07-03T07:21:09.000Z</time>
      </trkpt>
      <trkpt lat="42.031950" lon="-2.721493">
        <ele>1522.6</ele>
        <time>2021-07-03T07:21:14.000Z</time>
      </trkpt>
      <trkpt lat="42.031963" lon="-2.721623">
        <ele>1524.0</ele>
        <time>2021-07-03T07:21:18.000Z</time>
      </trkpt>
      <trkpt lat="42.031963" lon="-2.721775">
        <ele>1523.1</ele>
        <time>2021-07-03T07:21:22.000Z</time>
      </trkpt>
      <trkpt lat="42.031970" lon="-2.721908">
        <ele>1523.6</ele>
        <time>2021-07-03T07:21:26.000Z</time>
      </trkpt>
      <trkpt lat="42.031988" lon="-2.722033">
        <ele>1524.1</ele>
        <time>2021-07-03T07:21:30.000Z</time>
      </trkpt>
      <trkpt lat="42.032007" lon="-2.722162">
        <ele>1524.0</ele>
        <time>2021-07-03T07:21:34.000Z</time>
      </trkpt>
      <trkpt lat="42.032018" lon="-2.722307">
        <ele>1525.4</ele>
        <time>2021-07-03T07:21:39.000Z</time>
      </trkpt>
      <trkpt lat="42.032043" lon="-2.722450">
        <ele>1525.9</ele>
        <time>2021-07-03T07:21:44.000Z</time>
      </trkpt>
      <trkpt lat="42.032068" lon="-2.722597">
        <ele>1526.6</ele>
        <time>2021-07-03T07:21:49.000Z</time>
      </trkpt>
      <trkpt lat="42.032107" lon="-2.722733">
        <ele>1527.1</ele>
        <time>2021-07-03T07:21:54.000Z</time>
      </trkpt>
      <trkpt lat="42.032143" lon="-2.722870">
        <ele>1527.4</ele>
        <time>2021-07-03T07:21:59.000Z</time>
      </trkpt>
      <trkpt lat="42.032180" lon="-2.723003">
        <ele>1527.9</ele>
        <time>2021-07-03T07:22:04.000Z</time>
      </trkpt>
      <trkpt lat="42.032223" lon="-2.723122">
        <ele>1527.6</ele>
        <time>2021-07-03T07:22:08.000Z</time>
      </trkpt>
      <trkpt lat="42.032265" lon="-2.723263">
        <ele>1528.7</ele>
        <time>2021-07-03T07:22:13.000Z</time>
      </trkpt>
      <trkpt lat="42.032287" lon="-2.723392">
        <ele>1528.4</ele>
        <time>2021-07-03T07:22:17.000Z</time>
      </trkpt>
      <trkpt lat="42.032313" lon="-2.723512">
        <ele>1528.5</ele>
        <time>2021-07-03T07:22:21.000Z</time>
      </trkpt>
      <trkpt lat="42.032338" lon="-2.723632">
        <ele>1529.1</ele>
        <time>2021-07-03T07:22:25.000Z</time>
      </trkpt>
      <trkpt lat="42.032387" lon="-2.723757">
        <ele>1530.1</ele>
        <time>2021-07-03T07:22:30.000Z</time>
      </trkpt>
      <trkpt lat="42.032437" lon="-2.723885">
        <ele>1530.3</ele>
        <time>2021-07-03T07:22:35.000Z</time>
      </trkpt>
      <trkpt lat="42.032495" lon="-2.723998">
        <ele>1530.9</ele>
        <time>2021-07-03T07:22:40.000Z</time>
      </trkpt>
      <trkpt lat="42.032548" lon="-2.724103">
        <ele>1531.1</ele>
        <time>2021-07-03T07:22:45.000Z</time>
      </trkpt>
      <trkpt lat="42.032595" lon="-2.724217">
        <ele>1532.4</ele>
        <time>2021-07-03T07:22:50.000Z</time>
      </trkpt>
      <trkpt lat="42.032642" lon="-2.724345">
        <ele>1533.1</ele>
        <time>2021-07-03T07:22:56.000Z</time>
      </trkpt>
      <trkpt lat="42.032665" lon="-2.724468">
        <ele>1533.5</ele>
        <time>2021-07-03T07:23:00.000Z</time>
      </trkpt>
      <trkpt lat="42.032653" lon="-2.724598">
        <ele>1533.9</ele>
        <time>2021-07-03T07:23:05.000Z</time>
      </trkpt>
      <trkpt lat="42.032600" lon="-2.724703">
        <ele>1534.5</ele>
        <time>2021-07-03T07:23:10.000Z</time>
      </trkpt>
      <trkpt lat="42.032533" lon="-2.724807">
        <ele>1534.5</ele>
        <time>2021-07-03T07:23:15.000Z</time>
      </trkpt>
      <trkpt lat="42.032480" lon="-2.724922">
        <ele>1534.9</ele>
        <time>2021-07-03T07:23:20.000Z</time>
      </trkpt>
      <trkpt lat="42.032455" lon="-2.725043">
        <ele>1535.5</ele>
        <time>2021-07-03T07:23:25.000Z</time>
      </trkpt>
      <trkpt lat="42.032458" lon="-2.725173">
        <ele>1536.2</ele>
        <time>2021-07-03T07:23:30.000Z</time>
      </trkpt>
      <trkpt lat="42.032455" lon="-2.725310">
        <ele>1536.7</ele>
        <time>2021-07-03T07:23:35.000Z</time>
      </trkpt>
      <trkpt lat="42.032448" lon="-2.725437">
        <ele>1537.4</ele>
        <time>2021-07-03T07:23:40.000Z</time>
      </trkpt>
      <trkpt lat="42.032428" lon="-2.725562">
        <ele>1537.7</ele>
        <time>2021-07-03T07:23:45.000Z</time>
      </trkpt>
      <trkpt lat="42.032390" lon="-2.725678">
        <ele>1538.0</ele>
        <time>2021-07-03T07:23:50.000Z</time>
      </trkpt>
      <trkpt lat="42.032335" lon="-2.725805">
        <ele>1538.8</ele>
        <time>2021-07-03T07:23:57.000Z</time>
      </trkpt>
      <trkpt lat="42.032277" lon="-2.725903">
        <ele>1539.3</ele>
        <time>2021-07-03T07:24:01.000Z</time>
      </trkpt>
      <trkpt lat="42.032208" lon="-2.726000">
        <ele>1539.2</ele>
        <time>2021-07-03T07:24:06.000Z</time>
      </trkpt>
      <trkpt lat="42.032145" lon="-2.726115">
        <ele>1539.3</ele>
        <time>2021-07-03T07:24:11.000Z</time>
      </trkpt>
      <trkpt lat="42.032062" lon="-2.726198">
        <ele>1540.0</ele>
        <time>2021-07-03T07:24:16.000Z</time>
      </trkpt>
      <trkpt lat="42.031970" lon="-2.726255">
        <ele>1540.8</ele>
        <time>2021-07-03T07:24:21.000Z</time>
      </trkpt>
      <trkpt lat="42.031907" lon="-2.726373">
        <ele>1540.4</ele>
        <time>2021-07-03T07:24:25.000Z</time>
      </trkpt>
      <trkpt lat="42.031820" lon="-2.726455">
        <ele>1540.5</ele>
        <time>2021-07-03T07:24:29.000Z</time>
      </trkpt>
      <trkpt lat="42.031722" lon="-2.726525">
        <ele>1540.8</ele>
        <time>2021-07-03T07:24:33.000Z</time>
      </trkpt>
      <trkpt lat="42.031618" lon="-2.726572">
        <ele>1540.6</ele>
        <time>2021-07-03T07:24:37.000Z</time>
      </trkpt>
      <trkpt lat="42.031530" lon="-2.726627">
        <ele>1541.6</ele>
        <time>2021-07-03T07:24:41.000Z</time>
      </trkpt>
      <trkpt lat="42.031437" lon="-2.726673">
        <ele>1541.7</ele>
        <time>2021-07-03T07:24:45.000Z</time>
      </trkpt>
      <trkpt lat="42.031342" lon="-2.726732">
        <ele>1542.4</ele>
        <time>2021-07-03T07:24:49.000Z</time>
      </trkpt>
      <trkpt lat="42.031255" lon="-2.726790">
        <ele>1543.2</ele>
        <time>2021-07-03T07:24:53.000Z</time>
      </trkpt>
      <trkpt lat="42.031167" lon="-2.726857">
        <ele>1542.9</ele>
        <time>2021-07-03T07:24:58.000Z</time>
      </trkpt>
      <trkpt lat="42.031068" lon="-2.726893">
        <ele>1543.8</ele>
        <time>2021-07-03T07:25:04.000Z</time>
      </trkpt>
      <trkpt lat="42.030972" lon="-2.726955">
        <ele>1544.6</ele>
        <time>2021-07-03T07:25:10.000Z</time>
      </trkpt>
      <trkpt lat="42.030887" lon="-2.727053">
        <ele>1545.9</ele>
        <time>2021-07-03T07:25:16.000Z</time>
      </trkpt>
      <trkpt lat="42.030860" lon="-2.727188">
        <ele>1546.3</ele>
        <time>2021-07-03T07:25:21.000Z</time>
      </trkpt>
      <trkpt lat="42.030875" lon="-2.727320">
        <ele>1546.7</ele>
        <time>2021-07-03T07:25:26.000Z</time>
      </trkpt>
      <trkpt lat="42.030883" lon="-2.727453">
        <ele>1548.0</ele>
        <time>2021-07-03T07:25:32.000Z</time>
      </trkpt>
      <trkpt lat="42.030883" lon="-2.727595">
        <ele>1548.4</ele>
        <time>2021-07-03T07:25:38.000Z</time>
      </trkpt>
      <trkpt lat="42.030905" lon="-2.727720">
        <ele>1549.1</ele>
        <time>2021-07-03T07:25:44.000Z</time>
      </trkpt>
      <trkpt lat="42.030867" lon="-2.727837">
        <ele>1549.2</ele>
        <time>2021-07-03T07:25:51.000Z</time>
      </trkpt>
      <trkpt lat="42.030785" lon="-2.727897">
        <ele>1549.7</ele>
        <time>2021-07-03T07:25:57.000Z</time>
      </trkpt>
      <trkpt lat="42.030687" lon="-2.727922">
        <ele>1550.1</ele>
        <time>2021-07-03T07:26:03.000Z</time>
      </trkpt>
      <trkpt lat="42.030597" lon="-2.727965">
        <ele>1550.9</ele>
        <time>2021-07-03T07:26:09.000Z</time>
      </trkpt>
      <trkpt lat="42.030495" lon="-2.727998">
        <ele>1551.4</ele>
        <time>2021-07-03T07:26:15.000Z</time>
      </trkpt>
      <trkpt lat="42.030398" lon="-2.728015">
        <ele>1552.1</ele>
        <time>2021-07-03T07:26:20.000Z</time>
      </trkpt>
      <trkpt lat="42.030307" lon="-2.728010">
        <ele>1552.4</ele>
        <time>2021-07-03T07:26:25.000Z</time>
      </trkpt>
      <trkpt lat="42.030217" lon="-2.728027">
        <ele>1553.2</ele>
        <time>2021-07-03T07:26:32.000Z</time>
      </trkpt>
      <trkpt lat="42.030110" lon="-2.728032">
        <ele>1554.1</ele>
        <time>2021-07-03T07:26:38.000Z</time>
      </trkpt>
      <trkpt lat="42.030015" lon="-2.728050">
        <ele>1555.1</ele>
        <time>2021-07-03T07:26:45.000Z</time>
      </trkpt>
      <trkpt lat="42.029927" lon="-2.728027">
        <ele>1555.2</ele>
        <time>2021-07-03T07:26:50.000Z</time>
      </trkpt>
      <trkpt lat="42.029830" lon="-2.728010">
        <ele>1555.5</ele>
        <time>2021-07-03T07:26:54.000Z</time>
      </trkpt>
      <trkpt lat="42.029742" lon="-2.727985">
        <ele>1555.7</ele>
        <time>2021-07-03T07:26:59.000Z</time>
      </trkpt>
      <trkpt lat="42.029653" lon="-2.727957">
        <ele>1556.4</ele>
        <time>2021-07-03T07:27:04.000Z</time>
      </trkpt>
      <trkpt lat="42.029560" lon="-2.727940">
        <ele>1557.6</ele>
        <time>2021-07-03T07:27:10.000Z</time>
      </trkpt>
      <trkpt lat="42.029453" lon="-2.727933">
        <ele>1557.4</ele>
        <time>2021-07-03T07:27:16.000Z</time>
      </trkpt>
      <trkpt lat="42.029362" lon="-2.727913">
        <ele>1558.2</ele>
        <time>2021-07-03T07:27:20.000Z</time>
      </trkpt>
      <trkpt lat="42.029262" lon="-2.727882">
        <ele>1558.5</ele>
        <time>2021-07-03T07:27:26.000Z</time>
      </trkpt>
      <trkpt lat="42.029172" lon="-2.727843">
        <ele>1558.9</ele>
        <time>2021-07-03T07:27:32.000Z</time>
      </trkpt>
      <trkpt lat="42.029080" lon="-2.727800">
        <ele>1559.9</ele>
        <time>2021-07-03T07:27:39.000Z</time>
      </trkpt>
      <trkpt lat="42.028990" lon="-2.727802">
        <ele>1561.0</ele>
        <time>2021-07-03T07:27:46.000Z</time>
      </trkpt>
      <trkpt lat="42.028890" lon="-2.727820">
        <ele>1561.6</ele>
        <time>2021-07-03T07:27:52.000Z</time>
      </trkpt>
      <trkpt lat="42.028783" lon="-2.727830">
        <ele>1562.5</ele>
        <time>2021-07-03T07:27:59.000Z</time>
      </trkpt>
      <trkpt lat="42.028683" lon="-2.727838">
        <ele>1563.2</ele>
        <time>2021-07-03T07:28:05.000Z</time>
      </trkpt>
      <trkpt lat="42.028592" lon="-2.727850">
        <ele>1564.4</ele>
        <time>2021-07-03T07:28:11.000Z</time>
      </trkpt>
      <trkpt lat="42.028490" lon="-2.727865">
        <ele>1565.3</ele>
        <time>2021-07-03T07:28:18.000Z</time>
      </trkpt>
      <trkpt lat="42.028398" lon="-2.727855">
        <ele>1565.6</ele>
        <time>2021-07-03T07:28:24.000Z</time>
      </trkpt>
      <trkpt lat="42.028298" lon="-2.727828">
        <ele>1566.7</ele>
        <time>2021-07-03T07:28:31.000Z</time>
      </trkpt>
      <trkpt lat="42.028208" lon="-2.727775">
        <ele>1567.3</ele>
        <time>2021-07-03T07:28:38.000Z</time>
      </trkpt>
      <trkpt lat="42.028110" lon="-2.727747">
        <ele>1568.6</ele>
        <time>2021-07-03T07:28:46.000Z</time>
      </trkpt>
      <trkpt lat="42.028033" lon="-2.727830">
        <ele>1569.9</ele>
        <time>2021-07-03T07:28:54.000Z</time>
      </trkpt>
      <trkpt lat="42.028052" lon="-2.727953">
        <ele>1571.2</ele>
        <time>2021-07-03T07:29:01.000Z</time>
      </trkpt>
      <trkpt lat="42.028078" lon="-2.728077">
        <ele>1571.5</ele>
        <time>2021-07-03T07:29:07.000Z</time>
      </trkpt>
      <trkpt lat="42.028135" lon="-2.728198">
        <ele>1572.2</ele>
        <time>2021-07-03T07:29:13.000Z</time>
      </trkpt>
      <trkpt lat="42.028193" lon="-2.728305">
        <ele>1572.9</ele>
        <time>2021-07-03T07:29:19.000Z</time>
      </trkpt>
      <trkpt lat="42.028253" lon="-2.728417">
        <ele>1573.1</ele>
        <time>2021-07-03T07:29:26.000Z</time>
      </trkpt>
      <trkpt lat="42.028320" lon="-2.728515">
        <ele>1574.1</ele>
        <time>2021-07-03T07:29:33.000Z</time>
      </trkpt>
      <trkpt lat="42.028393" lon="-2.728613">
        <ele>1575.4</ele>
        <time>2021-07-03T07:29:40.000Z</time>
      </trkpt>
      <trkpt lat="42.028487" lon="-2.728678">
        <ele>1576.8</ele>
        <time>2021-07-03T07:29:48.000Z</time>
      </trkpt>
      <trkpt lat="42.028545" lon="-2.728783">
        <ele>1577.3</ele>
        <time>2021-07-03T07:29:55.000Z</time>
      </trkpt>
      <trkpt lat="42.028598" lon="-2.728887">
        <ele>1578.2</ele>
        <time>2021-07-03T07:30:01.000Z</time>
      </trkpt>
      <trkpt lat="42.028620" lon="-2.729008">
        <ele>1579.0</ele>
        <time>2021-07-03T07:30:07.000Z</time>
      </trkpt>
      <trkpt lat="42.028578" lon="-2.729128">
        <ele>1580.1</ele>
        <time>2021-07-03T07:30:14.000Z</time>
      </trkpt>
      <trkpt lat="42.028565" lon="-2.729257">
        <ele>1580.2</ele>
        <time>2021-07-03T07:30:20.000Z</time>
      </trkpt>
      <trkpt lat="42.028508" lon="-2.729375">
        <ele>1580.3</ele>
        <time>2021-07-03T07:30:27.000Z</time>
      </trkpt>
      <trkpt lat="42.028432" lon="-2.729460">
        <ele>1580.9</ele>
        <time>2021-07-03T07:30:33.000Z</time>
      </trkpt>
      <trkpt lat="42.028380" lon="-2.729578">
        <ele>1581.2</ele>
        <time>2021-07-03T07:30:38.000Z</time>
      </trkpt>
      <trkpt lat="42.028345" lon="-2.729698">
        <ele>1582.7</ele>
        <time>2021-07-03T07:30:45.000Z</time>
      </trkpt>
      <trkpt lat="42.028303" lon="-2.729807">
        <ele>1583.5</ele>
        <time>2021-07-03T07:30:51.000Z</time>
      </trkpt>
      <trkpt lat="42.028275" lon="-2.729932">
        <ele>1584.0</ele>
        <time>2021-07-03T07:30:57.000Z</time>
      </trkpt>
      <trkpt lat="42.028225" lon="-2.730035">
        <ele>1585.5</ele>
        <time>2021-07-03T07:31:04.000Z</time>
      </trkpt>
      <trkpt lat="42.028178" lon="-2.730140">
        <ele>1586.6</ele>
        <time>2021-07-03T07:31:10.000Z</time>
      </trkpt>
      <trkpt lat="42.028117" lon="-2.730237">
        <ele>1587.7</ele>
        <time>2021-07-03T07:31:16.000Z</time>
      </trkpt>
      <trkpt lat="42.028043" lon="-2.730317">
        <ele>1588.0</ele>
        <time>2021-07-03T07:31:22.000Z</time>
      </trkpt>
      <trkpt lat="42.027980" lon="-2.730412">
        <ele>1588.7</ele>
        <time>2021-07-03T07:31:27.000Z</time>
      </trkpt>
      <trkpt lat="42.027903" lon="-2.730493">
        <ele>1589.4</ele>
        <time>2021-07-03T07:31:33.000Z</time>
      </trkpt>
      <trkpt lat="42.027830" lon="-2.730563">
        <ele>1590.6</ele>
        <time>2021-07-03T07:31:40.000Z</time>
      </trkpt>
      <trkpt lat="42.027750" lon="-2.730647">
        <ele>1591.3</ele>
        <time>2021-07-03T07:31:48.000Z</time>
      </trkpt>
      <trkpt lat="42.027675" lon="-2.730733">
        <ele>1591.8</ele>
        <time>2021-07-03T07:31:56.000Z</time>
      </trkpt>
      <trkpt lat="42.027622" lon="-2.730850">
        <ele>1593.2</ele>
        <time>2021-07-03T07:32:03.000Z</time>
      </trkpt>
      <trkpt lat="42.027595" lon="-2.730978">
        <ele>1593.1</ele>
        <time>2021-07-03T07:32:09.000Z</time>
      </trkpt>
      <trkpt lat="42.027567" lon="-2.731095">
        <ele>1594.7</ele>
        <time>2021-07-03T07:32:15.000Z</time>
      </trkpt>
      <trkpt lat="42.027540" lon="-2.731223">
        <ele>1596.1</ele>
        <time>2021-07-03T07:32:22.000Z</time>
      </trkpt>
      <trkpt lat="42.027495" lon="-2.731338">
        <ele>1597.1</ele>
        <time>2021-07-03T07:32:28.000Z</time>
      </trkpt>
      <trkpt lat="42.027443" lon="-2.731458">
        <ele>1597.4</ele>
        <time>2021-07-03T07:32:35.000Z</time>
      </trkpt>
      <trkpt lat="42.027397" lon="-2.731573">
        <ele>1598.2</ele>
        <time>2021-07-03T07:32:43.000Z</time>
      </trkpt>
      <trkpt lat="42.027348" lon="-2.731680">
        <ele>1598.7</ele>
        <time>2021-07-03T07:32:50.000Z</time>
      </trkpt>
      <trkpt lat="42.027313" lon="-2.731798">
        <ele>1599.8</ele>
        <time>2021-07-03T07:32:58.000Z</time>
      </trkpt>
      <trkpt lat="42.027257" lon="-2.731915">
        <ele>1600.3</ele>
        <time>2021-07-03T07:33:05.000Z</time>
      </trkpt>
      <trkpt lat="42.027208" lon="-2.732018">
        <ele>1600.8</ele>
        <time>2021-07-03T07:33:12.000Z</time>
      </trkpt>
      <trkpt lat="42.027168" lon="-2.732133">
        <ele>1602.0</ele>
        <time>2021-07-03T07:33:19.000Z</time>
      </trkpt>
      <trkpt lat="42.027113" lon="-2.732240">
        <ele>1603.0</ele>
        <time>2021-07-03T07:33:26.000Z</time>
      </trkpt>
      <trkpt lat="42.027050" lon="-2.732340">
        <ele>1603.5</ele>
        <time>2021-07-03T07:33:33.000Z</time>
      </trkpt>
      <trkpt lat="42.026983" lon="-2.732443">
        <ele>1604.8</ele>
        <time>2021-07-03T07:33:41.000Z</time>
      </trkpt>
      <trkpt lat="42.026915" lon="-2.732528">
        <ele>1605.6</ele>
        <time>2021-07-03T07:33:48.000Z</time>
      </trkpt>
      <trkpt lat="42.026840" lon="-2.732602">
        <ele>1606.5</ele>
        <time>2021-07-03T07:33:55.000Z</time>
      </trkpt>
      <trkpt lat="42.026768" lon="-2.732678">
        <ele>1607.3</ele>
        <time>2021-07-03T07:34:02.000Z</time>
      </trkpt>
      <trkpt lat="42.026693" lon="-2.732753">
        <ele>1608.1</ele>
        <time>2021-07-03T07:34:09.000Z</time>
      </trkpt>
      <trkpt lat="42.026615" lon="-2.732825">
        <ele>1608.8</ele>
        <time>2021-07-03T07:34:16.000Z</time>
      </trkpt>
      <trkpt lat="42.026535" lon="-2.732893">
        <ele>1609.4</ele>
        <time>2021-07-03T07:34:23.000Z</time>
      </trkpt>
      <trkpt lat="42.026440" lon="-2.732940">
        <ele>1610.3</ele>
        <time>2021-07-03T07:34:31.000Z</time>
      </trkpt>
      <trkpt lat="42.026385" lon="-2.732985">
        <ele>1610.7</ele>
        <time>2021-07-03T07:34:38.000Z</time>
      </trkpt>
      <trkpt lat="42.026383" lon="-2.732985">
        <ele>1611.5</ele>
        <time>2021-07-03T07:34:44.000Z</time>
      </trkpt>
      <trkpt lat="42.026395" lon="-2.733110">
        <ele>1610.2</ele>
        <time>2021-07-03T07:34:53.000Z</time>
      </trkpt>
      <trkpt lat="42.026403" lon="-2.733193">
        <ele>1610.2</ele>
        <time>2021-07-03T07:35:02.000Z</time>
      </trkpt>
      <trkpt lat="42.026405" lon="-2.733193">
        <ele>1609.4</ele>
        <time>2021-07-03T07:35:03.000Z</time>
      </trkpt>
      <trkpt lat="42.026405" lon="-2.733195">
        <ele>1608.8</ele>
        <time>2021-07-03T07:35:04.000Z</time>
      </trkpt>
      <trkpt lat="42.026407" lon="-2.733195">
        <ele>1608.4</ele>
        <time>2021-07-03T07:35:16.000Z</time>
      </trkpt>
      <trkpt lat="42.026407" lon="-2.733195">
        <ele>1608.5</ele>
        <time>2021-07-03T07:35:17.000Z</time>
      </trkpt>
      <trkpt lat="42.026408" lon="-2.733205">
        <ele>1607.5</ele>
        <time>2021-07-03T07:37:14.000Z</time>
      </trkpt>
      <trkpt lat="42.026393" lon="-2.733085">
        <ele>1610.5</ele>
        <time>2021-07-03T07:37:33.000Z</time>
      </trkpt>
      <trkpt lat="42.026395" lon="-2.733040">
        <ele>1609.8</ele>
        <time>2021-07-03T07:37:41.000Z</time>
      </trkpt>
      <trkpt lat="42.026395" lon="-2.733037">
        <ele>1611.5</ele>
        <time>2021-07-03T07:37:45.000Z</time>
      </trkpt>
      <trkpt lat="42.026387" lon="-2.733028">
        <ele>1611.7</ele>
        <time>2021-07-03T07:37:53.000Z</time>
      </trkpt>
      <trkpt lat="42.026385" lon="-2.733028">
        <ele>1610.0</ele>
        <time>2021-07-03T07:38:28.000Z</time>
      </trkpt>
      <trkpt lat="42.026392" lon="-2.733038">
        <ele>1611.0</ele>
        <time>2021-07-03T07:38:32.000Z</time>
      </trkpt>
      <trkpt lat="42.026393" lon="-2.733040">
        <ele>1614.7</ele>
        <time>2021-07-03T07:38:42.000Z</time>
      </trkpt>
      <trkpt lat="42.026393" lon="-2.733038">
        <ele>1613.3</ele>
        <time>2021-07-03T07:38:43.000Z</time>
      </trkpt>
      <trkpt lat="42.026390" lon="-2.733035">
        <ele>1612.0</ele>
        <time>2021-07-03T07:38:44.000Z</time>
      </trkpt>
      <trkpt lat="42.026353" lon="-2.732973">
        <ele>1611.6</ele>
        <time>2021-07-03T07:38:58.000Z</time>
      </trkpt>
      <trkpt lat="42.026352" lon="-2.732973">
        <ele>1611.2</ele>
        <time>2021-07-03T07:39:00.000Z</time>
      </trkpt>
      <trkpt lat="42.026352" lon="-2.732973">
        <ele>1611.2</ele>
        <time>2021-07-03T07:39:01.000Z</time>
      </trkpt>
      <trkpt lat="42.026353" lon="-2.732975">
        <ele>1611.5</ele>
        <time>2021-07-03T07:39:03.000Z</time>
      </trkpt>
      <trkpt lat="42.026350" lon="-2.732977">
        <ele>1611.1</ele>
        <time>2021-07-03T07:39:06.000Z</time>
      </trkpt>
      <trkpt lat="42.026350" lon="-2.732973">
        <ele>1610.2</ele>
        <time>2021-07-03T07:39:07.000Z</time>
      </trkpt>
      <trkpt lat="42.026350" lon="-2.732975">
        <ele>1610.0</ele>
        <time>2021-07-03T07:39:08.000Z</time>
      </trkpt>
      <trkpt lat="42.026353" lon="-2.732977">
        <ele>1610.8</ele>
        <time>2021-07-03T07:39:09.000Z</time>
      </trkpt>
      <trkpt lat="42.026353" lon="-2.732977">
        <ele>1611.2</ele>
        <time>2021-07-03T07:39:10.000Z</time>
      </trkpt>
      <trkpt lat="42.026355" lon="-2.732978">
        <ele>1610.9</ele>
        <time>2021-07-03T07:39:44.000Z</time>
      </trkpt>
      <trkpt lat="42.026357" lon="-2.732980">
        <ele>1610.8</ele>
        <time>2021-07-03T07:39:46.000Z</time>
      </trkpt>
      <trkpt lat="42.026358" lon="-2.732982">
        <ele>1612.1</ele>
        <time>2021-07-03T07:40:29.000Z</time>
      </trkpt>
      <trkpt lat="42.026362" lon="-2.732982">
        <ele>1612.0</ele>
        <time>2021-07-03T07:40:31.000Z</time>
      </trkpt>
      <trkpt lat="42.026363" lon="-2.732982">
        <ele>1611.4</ele>
        <time>2021-07-03T07:40:32.000Z</time>
      </trkpt>
      <trkpt lat="42.026363" lon="-2.732983">
        <ele>1611.4</ele>
        <time>2021-07-03T07:40:33.000Z</time>
      </trkpt>
      <trkpt lat="42.026363" lon="-2.732980">
        <ele>1611.5</ele>
        <time>2021-07-03T07:40:34.000Z</time>
      </trkpt>
      <trkpt lat="42.026352" lon="-2.732990">
        <ele>1612.1</ele>
        <time>2021-07-03T07:40:47.000Z</time>
      </trkpt>
      <trkpt lat="42.026350" lon="-2.732987">
        <ele>1612.1</ele>
        <time>2021-07-03T07:40:48.000Z</time>
      </trkpt>
      <trkpt lat="42.026345" lon="-2.733003">
        <ele>1612.4</ele>
        <time>2021-07-03T07:40:53.000Z</time>
      </trkpt>
      <trkpt lat="42.026347" lon="-2.733000">
        <ele>1612.3</ele>
        <time>2021-07-03T07:41:00.000Z</time>
      </trkpt>
      <trkpt lat="42.026343" lon="-2.732967">
        <ele>1612.0</ele>
        <time>2021-07-03T07:41:07.000Z</time>
      </trkpt>
      <trkpt lat="42.026345" lon="-2.732968">
        <ele>1612.1</ele>
        <time>2021-07-03T07:41:08.000Z</time>
      </trkpt>
      <trkpt lat="42.026345" lon="-2.732967">
        <ele>1612.0</ele>
        <time>2021-07-03T07:41:09.000Z</time>
      </trkpt>
      <trkpt lat="42.026343" lon="-2.732978">
        <ele>1612.3</ele>
        <time>2021-07-03T07:41:16.000Z</time>
      </trkpt>
      <trkpt lat="42.026350" lon="-2.732992">
        <ele>1612.3</ele>
        <time>2021-07-03T07:41:25.000Z</time>
      </trkpt>
      <trkpt lat="42.026352" lon="-2.732992">
        <ele>1612.2</ele>
        <time>2021-07-03T07:41:31.000Z</time>
      </trkpt>
      <trkpt lat="42.026352" lon="-2.732993">
        <ele>1612.1</ele>
        <time>2021-07-03T07:41:32.000Z</time>
      </trkpt>
      <trkpt lat="42.026350" lon="-2.732995">
        <ele>1612.2</ele>
        <time>2021-07-03T07:41:33.000Z</time>
      </trkpt>
      <trkpt lat="42.026347" lon="-2.732998">
        <ele>1612.5</ele>
        <time>2021-07-03T07:41:36.000Z</time>
      </trkpt>
      <trkpt lat="42.026348" lon="-2.732993">
        <ele>1612.5</ele>
        <time>2021-07-03T07:41:37.000Z</time>
      </trkpt>
      <trkpt lat="42.026347" lon="-2.732997">
        <ele>1612.2</ele>
        <time>2021-07-03T07:41:42.000Z</time>
      </trkpt>
      <trkpt lat="42.026347" lon="-2.732992">
        <ele>1612.5</ele>
        <time>2021-07-03T07:41:44.000Z</time>
      </trkpt>
      <trkpt lat="42.026347" lon="-2.732987">
        <ele>1612.5</ele>
        <time>2021-07-03T07:41:46.000Z</time>
      </trkpt>
      <trkpt lat="42.026348" lon="-2.732987">
        <ele>1612.3</ele>
        <time>2021-07-03T07:41:49.000Z</time>
      </trkpt>
      <trkpt lat="42.026343" lon="-2.732977">
        <ele>1612.3</ele>
        <time>2021-07-03T07:41:57.000Z</time>
      </trkpt>
      <trkpt lat="42.026345" lon="-2.732977">
        <ele>1612.3</ele>
        <time>2021-07-03T07:42:01.000Z</time>
      </trkpt>
      <trkpt lat="42.026342" lon="-2.733000">
        <ele>1612.6</ele>
        <time>2021-07-03T07:42:05.000Z</time>
      </trkpt>
      <trkpt lat="42.026343" lon="-2.732998">
        <ele>1612.7</ele>
        <time>2021-07-03T07:42:20.000Z</time>
      </trkpt>
      <trkpt lat="42.026343" lon="-2.732998">
        <ele>1612.8</ele>
        <time>2021-07-03T07:42:21.000Z</time>
      </trkpt>
      <trkpt lat="42.026345" lon="-2.732995">
        <ele>1613.0</ele>
        <time>2021-07-03T07:42:23.000Z</time>
      </trkpt>
      <trkpt lat="42.026347" lon="-2.732995">
        <ele>1612.9</ele>
        <time>2021-07-03T07:42:25.000Z</time>
      </trkpt>
      <trkpt lat="42.026345" lon="-2.732997">
        <ele>1613.5</ele>
        <time>2021-07-03T07:43:08.000Z</time>
      </trkpt>
      <trkpt lat="42.026345" lon="-2.732997">
        <ele>1613.3</ele>
        <time>2021-07-03T07:43:09.000Z</time>
      </trkpt>
      <trkpt lat="42.026342" lon="-2.733005">
        <ele>1613.4</ele>
        <time>2021-07-03T07:43:10.000Z</time>
      </trkpt>
      <trkpt lat="42.026342" lon="-2.733007">
        <ele>1614.1</ele>
        <time>2021-07-03T07:43:12.000Z</time>
      </trkpt>
      <trkpt lat="42.026343" lon="-2.733005">
        <ele>1614.9</ele>
        <time>2021-07-03T07:44:01.000Z</time>
      </trkpt>
      <trkpt lat="42.026327" lon="-2.733063">
        <ele>1614.9</ele>
        <time>2021-07-03T07:44:08.000Z</time>
      </trkpt>
      <trkpt lat="42.026325" lon="-2.733063">
        <ele>1614.8</ele>
        <time>2021-07-03T07:44:17.000Z</time>
      </trkpt>
      <trkpt lat="42.026325" lon="-2.733063">
        <ele>1614.7</ele>
        <time>2021-07-03T07:44:18.000Z</time>
      </trkpt>
      <trkpt lat="42.026327" lon="-2.733058">
        <ele>1614.5</ele>
        <time>2021-07-03T07:44:23.000Z</time>
      </trkpt>
      <trkpt lat="42.026330" lon="-2.733048">
        <ele>1614.9</ele>
        <time>2021-07-03T07:44:25.000Z</time>
      </trkpt>
      <trkpt lat="42.026332" lon="-2.733047">
        <ele>1614.5</ele>
        <time>2021-07-03T07:44:36.000Z</time>
      </trkpt>
      <trkpt lat="42.026332" lon="-2.733047">
        <ele>1614.8</ele>
        <time>2021-07-03T07:44:37.000Z</time>
      </trkpt>
      <trkpt lat="42.026333" lon="-2.733045">
        <ele>1615.1</ele>
        <time>2021-07-03T07:45:02.000Z</time>
      </trkpt>
      <trkpt lat="42.026335" lon="-2.733042">
        <ele>1615.1</ele>
        <time>2021-07-03T07:45:04.000Z</time>
      </trkpt>
      <trkpt lat="42.026335" lon="-2.733038">
        <ele>1614.9</ele>
        <time>2021-07-03T07:45:43.000Z</time>
      </trkpt>
      <trkpt lat="42.026337" lon="-2.733030">
        <ele>1614.7</ele>
        <time>2021-07-03T07:45:45.000Z</time>
      </trkpt>
      <trkpt lat="42.026335" lon="-2.733032">
        <ele>1615.0</ele>
        <time>2021-07-03T07:45:49.000Z</time>
      </trkpt>
      <trkpt lat="42.026335" lon="-2.733032">
        <ele>1614.9</ele>
        <time>2021-07-03T07:45:50.000Z</time>
      </trkpt>
      <trkpt lat="42.026333" lon="-2.733033">
        <ele>1615.3</ele>
        <time>2021-07-03T07:46:05.000Z</time>
      </trkpt>
      <trkpt lat="42.026332" lon="-2.733033">
        <ele>1615.2</ele>
        <time>2021-07-03T07:46:07.000Z</time>
      </trkpt>
      <trkpt lat="42.026332" lon="-2.733033">
        <ele>1615.6</ele>
        <time>2021-07-03T07:46:16.000Z</time>
      </trkpt>
      <trkpt lat="42.026332" lon="-2.733033">
        <ele>1615.6</ele>
        <time>2021-07-03T07:46:16.000Z</time>
      </trkpt>
      <trkpt lat="42.026332" lon="-2.733033">
        <ele>1615.6</ele>
        <time>2021-07-03T07:46:17.000Z</time>
      </trkpt>
      <trkpt lat="42.026333" lon="-2.733028">
        <ele>1614.8</ele>
        <time>2021-07-03T07:46:28.000Z</time>
      </trkpt>
      <trkpt lat="42.026327" lon="-2.733002">
        <ele>1614.9</ele>
        <time>2021-07-03T07:46:35.000Z</time>
      </trkpt>
      <trkpt lat="42.026327" lon="-2.733007">
        <ele>1615.5</ele>
        <time>2021-07-03T07:47:31.000Z</time>
      </trkpt>
      <trkpt lat="42.026333" lon="-2.733028">
        <ele>1615.4</ele>
        <time>2021-07-03T07:47:36.000Z</time>
      </trkpt>
      <trkpt lat="42.026332" lon="-2.733030">
        <ele>1615.4</ele>
        <time>2021-07-03T07:48:27.000Z</time>
      </trkpt>
      <trkpt lat="42.026332" lon="-2.733030">
        <ele>1615.3</ele>
        <time>2021-07-03T07:48:28.000Z</time>
      </trkpt>
      <trkpt lat="42.026333" lon="-2.733028">
        <ele>1615.2</ele>
        <time>2021-07-03T07:48:53.000Z</time>
      </trkpt>
      <trkpt lat="42.026337" lon="-2.733015">
        <ele>1615.0</ele>
        <time>2021-07-03T07:48:58.000Z</time>
      </trkpt>
      <trkpt lat="42.026335" lon="-2.733015">
        <ele>1614.7</ele>
        <time>2021-07-03T07:48:59.000Z</time>
      </trkpt>
      <trkpt lat="42.026332" lon="-2.733017">
        <ele>1615.1</ele>
        <time>2021-07-03T07:49:02.000Z</time>
      </trkpt>
      <trkpt lat="42.026333" lon="-2.733018">
        <ele>1615.2</ele>
        <time>2021-07-03T07:50:07.000Z</time>
      </trkpt>
      <trkpt lat="42.026355" lon="-2.733023">
        <ele>1615.6</ele>
        <time>2021-07-03T07:50:15.000Z</time>
      </trkpt>
      <trkpt lat="42.026362" lon="-2.733020">
        <ele>1615.9</ele>
        <time>2021-07-03T07:50:16.000Z</time>
      </trkpt>
      <trkpt lat="42.026373" lon="-2.733047">
        <ele>1620.6</ele>
        <time>2021-07-03T07:50:31.000Z</time>
      </trkpt>
      <trkpt lat="42.026373" lon="-2.733042">
        <ele>1614.7</ele>
        <time>2021-07-03T07:50:35.000Z</time>
      </trkpt>
      <trkpt lat="42.026375" lon="-2.733042">
        <ele>1614.7</ele>
        <time>2021-07-03T07:50:37.000Z</time>
      </trkpt>
      <trkpt lat="42.026373" lon="-2.733047">
        <ele>1614.7</ele>
        <time>2021-07-03T07:50:39.000Z</time>
      </trkpt>
      <trkpt lat="42.026333" lon="-2.733072">
        <ele>1615.0</ele>
        <time>2021-07-03T07:50:48.000Z</time>
      </trkpt>
      <trkpt lat="42.026335" lon="-2.733072">
        <ele>1609.6</ele>
        <time>2021-07-03T07:51:11.000Z</time>
      </trkpt>
      <trkpt lat="42.026335" lon="-2.733072">
        <ele>1610.9</ele>
        <time>2021-07-03T07:51:12.000Z</time>
      </trkpt>
      <trkpt lat="42.026340" lon="-2.733063">
        <ele>1620.5</ele>
        <time>2021-07-03T07:51:18.000Z</time>
      </trkpt>
      <trkpt lat="42.026352" lon="-2.733038">
        <ele>1602.5</ele>
        <time>2021-07-03T07:51:20.000Z</time>
      </trkpt>
      <trkpt lat="42.026353" lon="-2.733035">
        <ele>1601.6</ele>
        <time>2021-07-03T07:51:21.000Z</time>
      </trkpt>
      <trkpt lat="42.026358" lon="-2.733033">
        <ele>1614.0</ele>
        <time>2021-07-03T07:51:23.000Z</time>
      </trkpt>
      <trkpt lat="42.026360" lon="-2.733032">
        <ele>1616.7</ele>
        <time>2021-07-03T07:51:27.000Z</time>
      </trkpt>
      <trkpt lat="42.026360" lon="-2.733033">
        <ele>1618.4</ele>
        <time>2021-07-03T07:51:28.000Z</time>
      </trkpt>
      <trkpt lat="42.026357" lon="-2.733042">
        <ele>1616.5</ele>
        <time>2021-07-03T07:51:29.000Z</time>
      </trkpt>
      <trkpt lat="42.026357" lon="-2.733042">
        <ele>1614.0</ele>
        <time>2021-07-03T07:51:30.000Z</time>
      </trkpt>
      <trkpt lat="42.026352" lon="-2.733047">
        <ele>1612.0</ele>
        <time>2021-07-03T07:52:23.000Z</time>
      </trkpt>
      <trkpt lat="42.026352" lon="-2.733057">
        <ele>1611.4</ele>
        <time>2021-07-03T07:52:26.000Z</time>
      </trkpt>
      <trkpt lat="42.026355" lon="-2.733048">
        <ele>1619.0</ele>
        <time>2021-07-03T07:52:32.000Z</time>
      </trkpt>
      <trkpt lat="42.026355" lon="-2.733042">
        <ele>1631.1</ele>
        <time>2021-07-03T07:52:34.000Z</time>
      </trkpt>
      <trkpt lat="42.026357" lon="-2.733042">
        <ele>1613.2</ele>
        <time>2021-07-03T07:52:45.000Z</time>
      </trkpt>
      <trkpt lat="42.026357" lon="-2.733042">
        <ele>1613.2</ele>
        <time>2021-07-03T07:52:46.000Z</time>
      </trkpt>
      <trkpt lat="42.026363" lon="-2.733040">
        <ele>1612.9</ele>
        <time>2021-07-03T07:53:10.000Z</time>
      </trkpt>
      <trkpt lat="42.026363" lon="-2.733040">
        <ele>1612.9</ele>
        <time>2021-07-03T07:53:11.000Z</time>
      </trkpt>
      <trkpt lat="42.026365" lon="-2.733037">
        <ele>1612.7</ele>
        <time>2021-07-03T07:53:37.000Z</time>
      </trkpt>
      <trkpt lat="42.026365" lon="-2.733037">
        <ele>1612.4</ele>
        <time>2021-07-03T07:53:38.000Z</time>
      </trkpt>
      <trkpt lat="42.026367" lon="-2.733033">
        <ele>1613.0</ele>
        <time>2021-07-03T07:54:22.000Z</time>
      </trkpt>
      <trkpt lat="42.026367" lon="-2.733035">
        <ele>1612.9</ele>
        <time>2021-07-03T07:54:23.000Z</time>
      </trkpt>
      <trkpt lat="42.026368" lon="-2.733033">
        <ele>1612.7</ele>
        <time>2021-07-03T07:54:38.000Z</time>
      </trkpt>
      <trkpt lat="42.026368" lon="-2.733033">
        <ele>1612.7</ele>
        <time>2021-07-03T07:54:39.000Z</time>
      </trkpt>
      <trkpt lat="42.026370" lon="-2.733032">
        <ele>1613.1</ele>
        <time>2021-07-03T07:55:20.000Z</time>
      </trkpt>
      <trkpt lat="42.026370" lon="-2.733032">
        <ele>1613.2</ele>
        <time>2021-07-03T07:55:21.000Z</time>
      </trkpt>
      <trkpt lat="42.026372" lon="-2.733030">
        <ele>1613.8</ele>
        <time>2021-07-03T07:56:51.000Z</time>
      </trkpt>
      <trkpt lat="42.026372" lon="-2.733030">
        <ele>1614.0</ele>
        <time>2021-07-03T07:56:52.000Z</time>
      </trkpt>
      <trkpt lat="42.026373" lon="-2.733028">
        <ele>1614.1</ele>
        <time>2021-07-03T07:58:19.000Z</time>
      </trkpt>
      <trkpt lat="42.026373" lon="-2.733027">
        <ele>1614.2</ele>
        <time>2021-07-03T07:58:20.000Z</time>
      </trkpt>
      <trkpt lat="42.026375" lon="-2.733025">
        <ele>1613.9</ele>
        <time>2021-07-03T07:59:55.000Z</time>
      </trkpt>
      <trkpt lat="42.026375" lon="-2.733025">
        <ele>1614.1</ele>
        <time>2021-07-03T07:59:56.000Z</time>
      </trkpt>
      <trkpt lat="42.026377" lon="-2.733022">
        <ele>1613.6</ele>
        <time>2021-07-03T08:01:47.000Z</time>
      </trkpt>
      <trkpt lat="42.026377" lon="-2.733022">
        <ele>1613.6</ele>
        <time>2021-07-03T08:01:48.000Z</time>
      </trkpt>
      <trkpt lat="42.026375" lon="-2.733023">
        <ele>1598.4</ele>
        <time>2021-07-03T08:02:45.000Z</time>
      </trkpt>
      <trkpt lat="42.026372" lon="-2.733022">
        <ele>1611.3</ele>
        <time>2021-07-03T08:02:47.000Z</time>
      </trkpt>
      <trkpt lat="42.026373" lon="-2.733018">
        <ele>1613.7</ele>
        <time>2021-07-03T08:02:48.000Z</time>
      </trkpt>
      <trkpt lat="42.026373" lon="-2.733018">
        <ele>1614.3</ele>
        <time>2021-07-03T08:02:49.000Z</time>
      </trkpt>
      <trkpt lat="42.026375" lon="-2.733020">
        <ele>1615.6</ele>
        <time>2021-07-03T08:03:42.000Z</time>
      </trkpt>
      <trkpt lat="42.026375" lon="-2.733020">
        <ele>1615.5</ele>
        <time>2021-07-03T08:03:43.000Z</time>
      </trkpt>
      <trkpt lat="42.026373" lon="-2.733020">
        <ele>1614.9</ele>
        <time>2021-07-03T08:04:12.000Z</time>
      </trkpt>
      <trkpt lat="42.026340" lon="-2.732990">
        <ele>1614.6</ele>
        <time>2021-07-03T08:04:23.000Z</time>
      </trkpt>
      <trkpt lat="42.026342" lon="-2.732992">
        <ele>1615.5</ele>
        <time>2021-07-03T08:04:32.000Z</time>
      </trkpt>
      <trkpt lat="42.026343" lon="-2.732992">
        <ele>1615.5</ele>
        <time>2021-07-03T08:04:34.000Z</time>
      </trkpt>
      <trkpt lat="42.026342" lon="-2.732993">
        <ele>1614.6</ele>
        <time>2021-07-03T08:04:36.000Z</time>
      </trkpt>
      <trkpt lat="42.026342" lon="-2.732993">
        <ele>1614.6</ele>
        <time>2021-07-03T08:04:37.000Z</time>
      </trkpt>
      <trkpt lat="42.026343" lon="-2.732993">
        <ele>1615.1</ele>
        <time>2021-07-03T08:04:44.000Z</time>
      </trkpt>
      <trkpt lat="42.026343" lon="-2.732993">
        <ele>1614.9</ele>
        <time>2021-07-03T08:04:45.000Z</time>
      </trkpt>
      <trkpt lat="42.026340" lon="-2.733000">
        <ele>1615.1</ele>
        <time>2021-07-03T08:04:49.000Z</time>
      </trkpt>
      <trkpt lat="42.026285" lon="-2.733107">
        <ele>1616.5</ele>
        <time>2021-07-03T08:04:56.000Z</time>
      </trkpt>
      <trkpt lat="42.026227" lon="-2.733222">
        <ele>1616.6</ele>
        <time>2021-07-03T08:05:03.000Z</time>
      </trkpt>
      <trkpt lat="42.026158" lon="-2.733305">
        <ele>1616.6</ele>
        <time>2021-07-03T08:05:09.000Z</time>
      </trkpt>
      <trkpt lat="42.026082" lon="-2.733397">
        <ele>1617.2</ele>
        <time>2021-07-03T08:05:16.000Z</time>
      </trkpt>
      <trkpt lat="42.026018" lon="-2.733492">
        <ele>1618.0</ele>
        <time>2021-07-03T08:05:23.000Z</time>
      </trkpt>
      <trkpt lat="42.025953" lon="-2.733593">
        <ele>1617.8</ele>
        <time>2021-07-03T08:05:31.000Z</time>
      </trkpt>
      <trkpt lat="42.025900" lon="-2.733710">
        <ele>1619.5</ele>
        <time>2021-07-03T08:05:39.000Z</time>
      </trkpt>
      <trkpt lat="42.025863" lon="-2.733823">
        <ele>1620.2</ele>
        <time>2021-07-03T08:05:46.000Z</time>
      </trkpt>
      <trkpt lat="42.025842" lon="-2.733947">
        <ele>1622.5</ele>
        <time>2021-07-03T08:05:54.000Z</time>
      </trkpt>
      <trkpt lat="42.025848" lon="-2.734070">
        <ele>1623.4</ele>
        <time>2021-07-03T08:06:01.000Z</time>
      </trkpt>
      <trkpt lat="42.025878" lon="-2.734195">
        <ele>1624.3</ele>
        <time>2021-07-03T08:06:10.000Z</time>
      </trkpt>
      <trkpt lat="42.025872" lon="-2.734330">
        <ele>1624.3</ele>
        <time>2021-07-03T08:06:17.000Z</time>
      </trkpt>
      <trkpt lat="42.025902" lon="-2.734463">
        <ele>1625.5</ele>
        <time>2021-07-03T08:06:26.000Z</time>
      </trkpt>
      <trkpt lat="42.025892" lon="-2.734587">
        <ele>1626.8</ele>
        <time>2021-07-03T08:06:34.000Z</time>
      </trkpt>
      <trkpt lat="42.025922" lon="-2.734712">
        <ele>1627.3</ele>
        <time>2021-07-03T08:06:44.000Z</time>
      </trkpt>
      <trkpt lat="42.025947" lon="-2.734838">
        <ele>1629.1</ele>
        <time>2021-07-03T08:06:53.000Z</time>
      </trkpt>
      <trkpt lat="42.025967" lon="-2.734958">
        <ele>1629.6</ele>
        <time>2021-07-03T08:07:01.000Z</time>
      </trkpt>
      <trkpt lat="42.025950" lon="-2.735090">
        <ele>1630.5</ele>
        <time>2021-07-03T08:07:09.000Z</time>
      </trkpt>
      <trkpt lat="42.025917" lon="-2.735218">
        <ele>1631.7</ele>
        <time>2021-07-03T08:07:17.000Z</time>
      </trkpt>
      <trkpt lat="42.025897" lon="-2.735345">
        <ele>1631.6</ele>
        <time>2021-07-03T08:07:26.000Z</time>
      </trkpt>
      <trkpt lat="42.025865" lon="-2.735462">
        <ele>1633.1</ele>
        <time>2021-07-03T08:07:35.000Z</time>
      </trkpt>
      <trkpt lat="42.025835" lon="-2.735588">
        <ele>1633.8</ele>
        <time>2021-07-03T08:07:44.000Z</time>
      </trkpt>
      <trkpt lat="42.025763" lon="-2.735670">
        <ele>1634.9</ele>
        <time>2021-07-03T08:07:54.000Z</time>
      </trkpt>
      <trkpt lat="42.025675" lon="-2.735728">
        <ele>1635.4</ele>
        <time>2021-07-03T08:08:04.000Z</time>
      </trkpt>
      <trkpt lat="42.025583" lon="-2.735763">
        <ele>1636.2</ele>
        <time>2021-07-03T08:08:12.000Z</time>
      </trkpt>
      <trkpt lat="42.025493" lon="-2.735797">
        <ele>1636.4</ele>
        <time>2021-07-03T08:08:20.000Z</time>
      </trkpt>
      <trkpt lat="42.025403" lon="-2.735827">
        <ele>1637.9</ele>
        <time>2021-07-03T08:08:28.000Z</time>
      </trkpt>
      <trkpt lat="42.025312" lon="-2.735857">
        <ele>1639.6</ele>
        <time>2021-07-03T08:08:36.000Z</time>
      </trkpt>
      <trkpt lat="42.025218" lon="-2.735902">
        <ele>1640.4</ele>
        <time>2021-07-03T08:08:45.000Z</time>
      </trkpt>
      <trkpt lat="42.025130" lon="-2.735940">
        <ele>1641.5</ele>
        <time>2021-07-03T08:08:53.000Z</time>
      </trkpt>
      <trkpt lat="42.025035" lon="-2.735975">
        <ele>1642.8</ele>
        <time>2021-07-03T08:09:01.000Z</time>
      </trkpt>
      <trkpt lat="42.024940" lon="-2.736002">
        <ele>1643.1</ele>
        <time>2021-07-03T08:09:10.000Z</time>
      </trkpt>
      <trkpt lat="42.024843" lon="-2.736007">
        <ele>1645.2</ele>
        <time>2021-07-03T08:09:19.000Z</time>
      </trkpt>
      <trkpt lat="42.024743" lon="-2.735995">
        <ele>1646.4</ele>
        <time>2021-07-03T08:09:28.000Z</time>
      </trkpt>
      <trkpt lat="42.024645" lon="-2.735992">
        <ele>1646.9</ele>
        <time>2021-07-03T08:09:36.000Z</time>
      </trkpt>
      <trkpt lat="42.024555" lon="-2.735992">
        <ele>1647.6</ele>
        <time>2021-07-03T08:09:43.000Z</time>
      </trkpt>
      <trkpt lat="42.024460" lon="-2.735980">
        <ele>1648.2</ele>
        <time>2021-07-03T08:09:51.000Z</time>
      </trkpt>
      <trkpt lat="42.024368" lon="-2.735953">
        <ele>1647.9</ele>
        <time>2021-07-03T08:09:59.000Z</time>
      </trkpt>
      <trkpt lat="42.024278" lon="-2.735945">
        <ele>1649.2</ele>
        <time>2021-07-03T08:10:07.000Z</time>
      </trkpt>
      <trkpt lat="42.024187" lon="-2.735945">
        <ele>1651.0</ele>
        <time>2021-07-03T08:10:15.000Z</time>
      </trkpt>
      <trkpt lat="42.024090" lon="-2.735953">
        <ele>1650.9</ele>
        <time>2021-07-03T08:10:24.000Z</time>
      </trkpt>
      <trkpt lat="42.024018" lon="-2.736028">
        <ele>1653.0</ele>
        <time>2021-07-03T08:10:31.000Z</time>
      </trkpt>
      <trkpt lat="42.023968" lon="-2.736137">
        <ele>1652.7</ele>
        <time>2021-07-03T08:10:39.000Z</time>
      </trkpt>
      <trkpt lat="42.023975" lon="-2.736267">
        <ele>1653.5</ele>
        <time>2021-07-03T08:10:47.000Z</time>
      </trkpt>
      <trkpt lat="42.024050" lon="-2.736347">
        <ele>1654.3</ele>
        <time>2021-07-03T08:10:55.000Z</time>
      </trkpt>
      <trkpt lat="42.024135" lon="-2.736397">
        <ele>1656.1</ele>
        <time>2021-07-03T08:11:03.000Z</time>
      </trkpt>
      <trkpt lat="42.024222" lon="-2.736455">
        <ele>1656.4</ele>
        <time>2021-07-03T08:11:11.000Z</time>
      </trkpt>
      <trkpt lat="42.024300" lon="-2.736530">
        <ele>1656.2</ele>
        <time>2021-07-03T08:11:19.000Z</time>
      </trkpt>
      <trkpt lat="42.024383" lon="-2.736597">
        <ele>1656.9</ele>
        <time>2021-07-03T08:11:27.000Z</time>
      </trkpt>
      <trkpt lat="42.024465" lon="-2.736670">
        <ele>1657.7</ele>
        <time>2021-07-03T08:11:35.000Z</time>
      </trkpt>
      <trkpt lat="42.024537" lon="-2.736752">
        <ele>1659.9</ele>
        <time>2021-07-03T08:11:43.000Z</time>
      </trkpt>
      <trkpt lat="42.024618" lon="-2.736828">
        <ele>1659.8</ele>
        <time>2021-07-03T08:11:51.000Z</time>
      </trkpt>
      <trkpt lat="42.024700" lon="-2.736888">
        <ele>1661.5</ele>
        <time>2021-07-03T08:11:59.000Z</time>
      </trkpt>
      <trkpt lat="42.024780" lon="-2.736965">
        <ele>1663.4</ele>
        <time>2021-07-03T08:12:07.000Z</time>
      </trkpt>
      <trkpt lat="42.024860" lon="-2.737042">
        <ele>1664.7</ele>
        <time>2021-07-03T08:12:15.000Z</time>
      </trkpt>
      <trkpt lat="42.024872" lon="-2.737168">
        <ele>1664.7</ele>
        <time>2021-07-03T08:12:23.000Z</time>
      </trkpt>
      <trkpt lat="42.024810" lon="-2.737268">
        <ele>1665.5</ele>
        <time>2021-07-03T08:12:30.000Z</time>
      </trkpt>
      <trkpt lat="42.024745" lon="-2.737363">
        <ele>1666.0</ele>
        <time>2021-07-03T08:12:37.000Z</time>
      </trkpt>
      <trkpt lat="42.024710" lon="-2.737460">
        <ele>1666.2</ele>
        <time>2021-07-03T08:12:46.000Z</time>
      </trkpt>
      <trkpt lat="42.024710" lon="-2.737463">
        <ele>1665.9</ele>
        <time>2021-07-03T08:12:52.000Z</time>
      </trkpt>
      <trkpt lat="42.024710" lon="-2.737463">
        <ele>1665.8</ele>
        <time>2021-07-03T08:12:53.000Z</time>
      </trkpt>
      <trkpt lat="42.024710" lon="-2.737467">
        <ele>1665.8</ele>
        <time>2021-07-03T08:12:59.000Z</time>
      </trkpt>
      <trkpt lat="42.024705" lon="-2.737477">
        <ele>1665.3</ele>
        <time>2021-07-03T08:13:04.000Z</time>
      </trkpt>
      <trkpt lat="42.024708" lon="-2.737475">
        <ele>1665.7</ele>
        <time>2021-07-03T08:13:08.000Z</time>
      </trkpt>
      <trkpt lat="42.024708" lon="-2.737475">
        <ele>1665.9</ele>
        <time>2021-07-03T08:13:09.000Z</time>
      </trkpt>
      <trkpt lat="42.024707" lon="-2.737475">
        <ele>1666.0</ele>
        <time>2021-07-03T08:13:10.000Z</time>
      </trkpt>
      <trkpt lat="42.024707" lon="-2.737475">
        <ele>1666.0</ele>
        <time>2021-07-03T08:13:11.000Z</time>
      </trkpt>
      <trkpt lat="42.024708" lon="-2.737475">
        <ele>1666.2</ele>
        <time>2021-07-03T08:13:13.000Z</time>
      </trkpt>
      <trkpt lat="42.024645" lon="-2.737565">
        <ele>1666.8</ele>
        <time>2021-07-03T08:13:20.000Z</time>
      </trkpt>
      <trkpt lat="42.024573" lon="-2.737648">
        <ele>1667.7</ele>
        <time>2021-07-03T08:13:27.000Z</time>
      </trkpt>
      <trkpt lat="42.024495" lon="-2.737738">
        <ele>1667.5</ele>
        <time>2021-07-03T08:13:33.000Z</time>
      </trkpt>
      <trkpt lat="42.024410" lon="-2.737812">
        <ele>1668.4</ele>
        <time>2021-07-03T08:13:39.000Z</time>
      </trkpt>
      <trkpt lat="42.024337" lon="-2.737888">
        <ele>1668.6</ele>
        <time>2021-07-03T08:13:44.000Z</time>
      </trkpt>
      <trkpt lat="42.024257" lon="-2.737978">
        <ele>1668.9</ele>
        <time>2021-07-03T08:13:50.000Z</time>
      </trkpt>
      <trkpt lat="42.024185" lon="-2.738063">
        <ele>1669.7</ele>
        <time>2021-07-03T08:13:56.000Z</time>
      </trkpt>
      <trkpt lat="42.024135" lon="-2.738172">
        <ele>1669.9</ele>
        <time>2021-07-03T08:14:02.000Z</time>
      </trkpt>
      <trkpt lat="42.024083" lon="-2.738283">
        <ele>1670.7</ele>
        <time>2021-07-03T08:14:09.000Z</time>
      </trkpt>
      <trkpt lat="42.024020" lon="-2.738397">
        <ele>1671.9</ele>
        <time>2021-07-03T08:14:14.000Z</time>
      </trkpt>
      <trkpt lat="42.023968" lon="-2.738505">
        <ele>1672.2</ele>
        <time>2021-07-03T08:14:19.000Z</time>
      </trkpt>
      <trkpt lat="42.023943" lon="-2.738625">
        <ele>1673.6</ele>
        <time>2021-07-03T08:14:25.000Z</time>
      </trkpt>
      <trkpt lat="42.023920" lon="-2.738762">
        <ele>1674.5</ele>
        <time>2021-07-03T08:14:31.000Z</time>
      </trkpt>
      <trkpt lat="42.023910" lon="-2.738898">
        <ele>1674.9</ele>
        <time>2021-07-03T08:14:36.000Z</time>
      </trkpt>
      <trkpt lat="42.023883" lon="-2.739037">
        <ele>1674.3</ele>
        <time>2021-07-03T08:14:43.000Z</time>
      </trkpt>
      <trkpt lat="42.023895" lon="-2.739162">
        <ele>1675.1</ele>
        <time>2021-07-03T08:14:49.000Z</time>
      </trkpt>
      <trkpt lat="42.023933" lon="-2.739272">
        <ele>1676.4</ele>
        <time>2021-07-03T08:14:54.000Z</time>
      </trkpt>
      <trkpt lat="42.023982" lon="-2.739375">
        <ele>1678.0</ele>
        <time>2021-07-03T08:15:01.000Z</time>
      </trkpt>
      <trkpt lat="42.023978" lon="-2.739497">
        <ele>1677.4</ele>
        <time>2021-07-03T08:15:06.000Z</time>
      </trkpt>
      <trkpt lat="42.023997" lon="-2.739628">
        <ele>1678.4</ele>
        <time>2021-07-03T08:15:13.000Z</time>
      </trkpt>
      <trkpt lat="42.023987" lon="-2.739765">
        <ele>1678.2</ele>
        <time>2021-07-03T08:15:19.000Z</time>
      </trkpt>
      <trkpt lat="42.023973" lon="-2.739907">
        <ele>1678.5</ele>
        <time>2021-07-03T08:15:25.000Z</time>
      </trkpt>
      <trkpt lat="42.023963" lon="-2.740043">
        <ele>1680.5</ele>
        <time>2021-07-03T08:15:31.000Z</time>
      </trkpt>
      <trkpt lat="42.023990" lon="-2.740178">
        <ele>1679.7</ele>
        <time>2021-07-03T08:15:38.000Z</time>
      </trkpt>
      <trkpt lat="42.024005" lon="-2.740298">
        <ele>1680.8</ele>
        <time>2021-07-03T08:15:44.000Z</time>
      </trkpt>
      <trkpt lat="42.023998" lon="-2.740423">
        <ele>1681.9</ele>
        <time>2021-07-03T08:15:52.000Z</time>
      </trkpt>
      <trkpt lat="42.023997" lon="-2.740552">
        <ele>1682.7</ele>
        <time>2021-07-03T08:15:59.000Z</time>
      </trkpt>
      <trkpt lat="42.023990" lon="-2.740673">
        <ele>1684.2</ele>
        <time>2021-07-03T08:16:05.000Z</time>
      </trkpt>
      <trkpt lat="42.023963" lon="-2.740792">
        <ele>1684.1</ele>
        <time>2021-07-03T08:16:11.000Z</time>
      </trkpt>
      <trkpt lat="42.023952" lon="-2.740915">
        <ele>1682.8</ele>
        <time>2021-07-03T08:16:17.000Z</time>
      </trkpt>
      <trkpt lat="42.024032" lon="-2.740973">
        <ele>1684.7</ele>
        <time>2021-07-03T08:16:24.000Z</time>
      </trkpt>
      <trkpt lat="42.024125" lon="-2.740998">
        <ele>1685.9</ele>
        <time>2021-07-03T08:16:30.000Z</time>
      </trkpt>
      <trkpt lat="42.024232" lon="-2.741008">
        <ele>1686.8</ele>
        <time>2021-07-03T08:16:36.000Z</time>
      </trkpt>
      <trkpt lat="42.024330" lon="-2.741048">
        <ele>1686.6</ele>
        <time>2021-07-03T08:16:42.000Z</time>
      </trkpt>
      <trkpt lat="42.024428" lon="-2.741075">
        <ele>1687.2</ele>
        <time>2021-07-03T08:16:48.000Z</time>
      </trkpt>
      <trkpt lat="42.024510" lon="-2.741152">
        <ele>1689.5</ele>
        <time>2021-07-03T08:16:55.000Z</time>
      </trkpt>
      <trkpt lat="42.024568" lon="-2.741268">
        <ele>1687.2</ele>
        <time>2021-07-03T08:17:01.000Z</time>
      </trkpt>
      <trkpt lat="42.024635" lon="-2.741365">
        <ele>1689.4</ele>
        <time>2021-07-03T08:17:07.000Z</time>
      </trkpt>
      <trkpt lat="42.024683" lon="-2.741483">
        <ele>1689.8</ele>
        <time>2021-07-03T08:17:13.000Z</time>
      </trkpt>
      <trkpt lat="42.024733" lon="-2.741592">
        <ele>1689.8</ele>
        <time>2021-07-03T08:17:19.000Z</time>
      </trkpt>
      <trkpt lat="42.024783" lon="-2.741708">
        <ele>1690.9</ele>
        <time>2021-07-03T08:17:26.000Z</time>
      </trkpt>
      <trkpt lat="42.024842" lon="-2.741815">
        <ele>1691.7</ele>
        <time>2021-07-03T08:17:33.000Z</time>
      </trkpt>
      <trkpt lat="42.024898" lon="-2.741928">
        <ele>1692.5</ele>
        <time>2021-07-03T08:17:40.000Z</time>
      </trkpt>
      <trkpt lat="42.024957" lon="-2.742037">
        <ele>1693.7</ele>
        <time>2021-07-03T08:17:47.000Z</time>
      </trkpt>
      <trkpt lat="42.025000" lon="-2.742153">
        <ele>1694.2</ele>
        <time>2021-07-03T08:17:54.000Z</time>
      </trkpt>
      <trkpt lat="42.025088" lon="-2.742182">
        <ele>1693.5</ele>
        <time>2021-07-03T08:18:01.000Z</time>
      </trkpt>
      <trkpt lat="42.025163" lon="-2.742098">
        <ele>1695.1</ele>
        <time>2021-07-03T08:18:08.000Z</time>
      </trkpt>
      <trkpt lat="42.025235" lon="-2.742023">
        <ele>1694.6</ele>
        <time>2021-07-03T08:18:13.000Z</time>
      </trkpt>
      <trkpt lat="42.025325" lon="-2.741933">
        <ele>1695.0</ele>
        <time>2021-07-03T08:18:18.000Z</time>
      </trkpt>
      <trkpt lat="42.025413" lon="-2.741858">
        <ele>1695.0</ele>
        <time>2021-07-03T08:18:24.000Z</time>
      </trkpt>
      <trkpt lat="42.025502" lon="-2.741793">
        <ele>1696.0</ele>
        <time>2021-07-03T08:18:31.000Z</time>
      </trkpt>
      <trkpt lat="42.025582" lon="-2.741722">
        <ele>1698.0</ele>
        <time>2021-07-03T08:18:38.000Z</time>
      </trkpt>
      <trkpt lat="42.025663" lon="-2.741665">
        <ele>1697.9</ele>
        <time>2021-07-03T08:18:45.000Z</time>
      </trkpt>
      <trkpt lat="42.025737" lon="-2.741575">
        <ele>1698.0</ele>
        <time>2021-07-03T08:18:53.000Z</time>
      </trkpt>
      <trkpt lat="42.025808" lon="-2.741502">
        <ele>1700.0</ele>
        <time>2021-07-03T08:19:00.000Z</time>
      </trkpt>
      <trkpt lat="42.025895" lon="-2.741430">
        <ele>1701.1</ele>
        <time>2021-07-03T08:19:08.000Z</time>
      </trkpt>
      <trkpt lat="42.025980" lon="-2.741353">
        <ele>1701.2</ele>
        <time>2021-07-03T08:19:17.000Z</time>
      </trkpt>
      <trkpt lat="42.026065" lon="-2.741285">
        <ele>1702.5</ele>
        <time>2021-07-03T08:19:25.000Z</time>
      </trkpt>
      <trkpt lat="42.026142" lon="-2.741217">
        <ele>1702.9</ele>
        <time>2021-07-03T08:19:32.000Z</time>
      </trkpt>
      <trkpt lat="42.026223" lon="-2.741137">
        <ele>1703.8</ele>
        <time>2021-07-03T08:19:40.000Z</time>
      </trkpt>
      <trkpt lat="42.026302" lon="-2.741055">
        <ele>1704.5</ele>
        <time>2021-07-03T08:19:48.000Z</time>
      </trkpt>
      <trkpt lat="42.026373" lon="-2.740982">
        <ele>1705.4</ele>
        <time>2021-07-03T08:19:55.000Z</time>
      </trkpt>
      <trkpt lat="42.026418" lon="-2.740875">
        <ele>1706.2</ele>
        <time>2021-07-03T08:20:02.000Z</time>
      </trkpt>
      <trkpt lat="42.026492" lon="-2.740782">
        <ele>1707.7</ele>
        <time>2021-07-03T08:20:10.000Z</time>
      </trkpt>
      <trkpt lat="42.026563" lon="-2.740707">
        <ele>1709.2</ele>
        <time>2021-07-03T08:20:17.000Z</time>
      </trkpt>
      <trkpt lat="42.026638" lon="-2.740627">
        <ele>1709.6</ele>
        <time>2021-07-03T08:20:25.000Z</time>
      </trkpt>
      <trkpt lat="42.026693" lon="-2.740528">
        <ele>1710.3</ele>
        <time>2021-07-03T08:20:33.000Z</time>
      </trkpt>
      <trkpt lat="42.026758" lon="-2.740433">
        <ele>1711.2</ele>
        <time>2021-07-03T08:20:41.000Z</time>
      </trkpt>
      <trkpt lat="42.026822" lon="-2.740342">
        <ele>1712.6</ele>
        <time>2021-07-03T08:20:49.000Z</time>
      </trkpt>
      <trkpt lat="42.026915" lon="-2.740355">
        <ele>1713.8</ele>
        <time>2021-07-03T08:20:59.000Z</time>
      </trkpt>
      <trkpt lat="42.026888" lon="-2.740488">
        <ele>1713.8</ele>
        <time>2021-07-03T08:21:08.000Z</time>
      </trkpt>
      <trkpt lat="42.026833" lon="-2.740605">
        <ele>1716.0</ele>
        <time>2021-07-03T08:21:16.000Z</time>
      </trkpt>
      <trkpt lat="42.026787" lon="-2.740723">
        <ele>1716.9</ele>
        <time>2021-07-03T08:21:24.000Z</time>
      </trkpt>
      <trkpt lat="42.026738" lon="-2.740837">
        <ele>1716.7</ele>
        <time>2021-07-03T08:21:32.000Z</time>
      </trkpt>
      <trkpt lat="42.026688" lon="-2.740955">
        <ele>1718.5</ele>
        <time>2021-07-03T08:21:41.000Z</time>
      </trkpt>
      <trkpt lat="42.026632" lon="-2.741058">
        <ele>1720.2</ele>
        <time>2021-07-03T08:21:50.000Z</time>
      </trkpt>
      <trkpt lat="42.026600" lon="-2.741175">
        <ele>1721.4</ele>
        <time>2021-07-03T08:21:59.000Z</time>
      </trkpt>
      <trkpt lat="42.026553" lon="-2.741285">
        <ele>1722.2</ele>
        <time>2021-07-03T08:22:07.000Z</time>
      </trkpt>
      <trkpt lat="42.026503" lon="-2.741398">
        <ele>1722.4</ele>
        <time>2021-07-03T08:22:15.000Z</time>
      </trkpt>
      <trkpt lat="42.026455" lon="-2.741515">
        <ele>1723.4</ele>
        <time>2021-07-03T08:22:23.000Z</time>
      </trkpt>
      <trkpt lat="42.026407" lon="-2.741635">
        <ele>1724.9</ele>
        <time>2021-07-03T08:22:31.000Z</time>
      </trkpt>
      <trkpt lat="42.026363" lon="-2.741743">
        <ele>1725.4</ele>
        <time>2021-07-03T08:22:38.000Z</time>
      </trkpt>
      <trkpt lat="42.026300" lon="-2.741848">
        <ele>1726.2</ele>
        <time>2021-07-03T08:22:45.000Z</time>
      </trkpt>
      <trkpt lat="42.026253" lon="-2.741953">
        <ele>1727.2</ele>
        <time>2021-07-03T08:22:52.000Z</time>
      </trkpt>
      <trkpt lat="42.026208" lon="-2.742072">
        <ele>1727.1</ele>
        <time>2021-07-03T08:23:00.000Z</time>
      </trkpt>
      <trkpt lat="42.026155" lon="-2.742187">
        <ele>1728.8</ele>
        <time>2021-07-03T08:23:08.000Z</time>
      </trkpt>
      <trkpt lat="42.026115" lon="-2.742312">
        <ele>1729.7</ele>
        <time>2021-07-03T08:23:16.000Z</time>
      </trkpt>
      <trkpt lat="42.026072" lon="-2.742437">
        <ele>1730.2</ele>
        <time>2021-07-03T08:23:23.000Z</time>
      </trkpt>
      <trkpt lat="42.026033" lon="-2.742552">
        <ele>1730.6</ele>
        <time>2021-07-03T08:23:30.000Z</time>
      </trkpt>
      <trkpt lat="42.025990" lon="-2.742670">
        <ele>1731.6</ele>
        <time>2021-07-03T08:23:37.000Z</time>
      </trkpt>
      <trkpt lat="42.025957" lon="-2.742790">
        <ele>1731.5</ele>
        <time>2021-07-03T08:23:44.000Z</time>
      </trkpt>
      <trkpt lat="42.025965" lon="-2.742915">
        <ele>1732.0</ele>
        <time>2021-07-03T08:23:51.000Z</time>
      </trkpt>
      <trkpt lat="42.026032" lon="-2.743010">
        <ele>1731.9</ele>
        <time>2021-07-03T08:23:58.000Z</time>
      </trkpt>
      <trkpt lat="42.026130" lon="-2.742987">
        <ele>1731.7</ele>
        <time>2021-07-03T08:24:04.000Z</time>
      </trkpt>
      <trkpt lat="42.026213" lon="-2.742912">
        <ele>1731.6</ele>
        <time>2021-07-03T08:24:10.000Z</time>
      </trkpt>
      <trkpt lat="42.026295" lon="-2.742825">
        <ele>1731.8</ele>
        <time>2021-07-03T08:24:16.000Z</time>
      </trkpt>
      <trkpt lat="42.026395" lon="-2.742778">
        <ele>1731.5</ele>
        <time>2021-07-03T08:24:22.000Z</time>
      </trkpt>
      <trkpt lat="42.026480" lon="-2.742818">
        <ele>1732.1</ele>
        <time>2021-07-03T08:24:28.000Z</time>
      </trkpt>
      <trkpt lat="42.026550" lon="-2.742920">
        <ele>1733.0</ele>
        <time>2021-07-03T08:24:36.000Z</time>
      </trkpt>
      <trkpt lat="42.026560" lon="-2.743048">
        <ele>1734.2</ele>
        <time>2021-07-03T08:24:42.000Z</time>
      </trkpt>
      <trkpt lat="42.026547" lon="-2.743172">
        <ele>1734.4</ele>
        <time>2021-07-03T08:24:48.000Z</time>
      </trkpt>
      <trkpt lat="42.026513" lon="-2.743300">
        <ele>1736.7</ele>
        <time>2021-07-03T08:24:56.000Z</time>
      </trkpt>
      <trkpt lat="42.026473" lon="-2.743423">
        <ele>1735.4</ele>
        <time>2021-07-03T08:25:03.000Z</time>
      </trkpt>
      <trkpt lat="42.026438" lon="-2.743548">
        <ele>1737.0</ele>
        <time>2021-07-03T08:25:10.000Z</time>
      </trkpt>
      <trkpt lat="42.026420" lon="-2.743672">
        <ele>1737.9</ele>
        <time>2021-07-03T08:25:18.000Z</time>
      </trkpt>
      <trkpt lat="42.026403" lon="-2.743805">
        <ele>1738.4</ele>
        <time>2021-07-03T08:25:27.000Z</time>
      </trkpt>
      <trkpt lat="42.026360" lon="-2.743923">
        <ele>1739.7</ele>
        <time>2021-07-03T08:25:34.000Z</time>
      </trkpt>
      <trkpt lat="42.026317" lon="-2.744032">
        <ele>1740.4</ele>
        <time>2021-07-03T08:25:40.000Z</time>
      </trkpt>
      <trkpt lat="42.026285" lon="-2.744157">
        <ele>1740.4</ele>
        <time>2021-07-03T08:25:47.000Z</time>
      </trkpt>
      <trkpt lat="42.026260" lon="-2.744283">
        <ele>1741.2</ele>
        <time>2021-07-03T08:25:54.000Z</time>
      </trkpt>
      <trkpt lat="42.026222" lon="-2.744407">
        <ele>1742.8</ele>
        <time>2021-07-03T08:26:01.000Z</time>
      </trkpt>
      <trkpt lat="42.026177" lon="-2.744530">
        <ele>1743.1</ele>
        <time>2021-07-03T08:26:08.000Z</time>
      </trkpt>
      <trkpt lat="42.026132" lon="-2.744648">
        <ele>1743.3</ele>
        <time>2021-07-03T08:26:17.000Z</time>
      </trkpt>
      <trkpt lat="42.026117" lon="-2.744783">
        <ele>1744.0</ele>
        <time>2021-07-03T08:26:26.000Z</time>
      </trkpt>
      <trkpt lat="42.026077" lon="-2.744908">
        <ele>1746.4</ele>
        <time>2021-07-03T08:26:34.000Z</time>
      </trkpt>
      <trkpt lat="42.026020" lon="-2.745012">
        <ele>1745.7</ele>
        <time>2021-07-03T08:26:42.000Z</time>
      </trkpt>
      <trkpt lat="42.025977" lon="-2.745120">
        <ele>1747.9</ele>
        <time>2021-07-03T08:26:51.000Z</time>
      </trkpt>
      <trkpt lat="42.025962" lon="-2.745258">
        <ele>1749.4</ele>
        <time>2021-07-03T08:26:59.000Z</time>
      </trkpt>
      <trkpt lat="42.026045" lon="-2.745322">
        <ele>1749.6</ele>
        <time>2021-07-03T08:27:07.000Z</time>
      </trkpt>
      <trkpt lat="42.026092" lon="-2.745215">
        <ele>1749.5</ele>
        <time>2021-07-03T08:27:14.000Z</time>
      </trkpt>
      <trkpt lat="42.026145" lon="-2.745103">
        <ele>1749.5</ele>
        <time>2021-07-03T08:27:21.000Z</time>
      </trkpt>
      <trkpt lat="42.026200" lon="-2.744992">
        <ele>1749.7</ele>
        <time>2021-07-03T08:27:28.000Z</time>
      </trkpt>
      <trkpt lat="42.026267" lon="-2.744887">
        <ele>1751.8</ele>
        <time>2021-07-03T08:27:35.000Z</time>
      </trkpt>
      <trkpt lat="42.026333" lon="-2.744790">
        <ele>1751.5</ele>
        <time>2021-07-03T08:27:42.000Z</time>
      </trkpt>
      <trkpt lat="42.026397" lon="-2.744697">
        <ele>1752.5</ele>
        <time>2021-07-03T08:27:49.000Z</time>
      </trkpt>
      <trkpt lat="42.026462" lon="-2.744598">
        <ele>1753.3</ele>
        <time>2021-07-03T08:27:56.000Z</time>
      </trkpt>
      <trkpt lat="42.026533" lon="-2.744518">
        <ele>1754.2</ele>
        <time>2021-07-03T08:28:03.000Z</time>
      </trkpt>
      <trkpt lat="42.026603" lon="-2.744435">
        <ele>1754.2</ele>
        <time>2021-07-03T08:28:10.000Z</time>
      </trkpt>
      <trkpt lat="42.026675" lon="-2.744353">
        <ele>1755.8</ele>
        <time>2021-07-03T08:28:17.000Z</time>
      </trkpt>
      <trkpt lat="42.026747" lon="-2.744278">
        <ele>1755.7</ele>
        <time>2021-07-03T08:28:23.000Z</time>
      </trkpt>
      <trkpt lat="42.026808" lon="-2.744190">
        <ele>1756.5</ele>
        <time>2021-07-03T08:28:29.000Z</time>
      </trkpt>
      <trkpt lat="42.026880" lon="-2.744093">
        <ele>1756.9</ele>
        <time>2021-07-03T08:28:36.000Z</time>
      </trkpt>
      <trkpt lat="42.026940" lon="-2.743988">
        <ele>1757.8</ele>
        <time>2021-07-03T08:28:43.000Z</time>
      </trkpt>
      <trkpt lat="42.027005" lon="-2.743892">
        <ele>1758.7</ele>
        <time>2021-07-03T08:28:50.000Z</time>
      </trkpt>
      <trkpt lat="42.027058" lon="-2.743780">
        <ele>1759.0</ele>
        <time>2021-07-03T08:28:57.000Z</time>
      </trkpt>
      <trkpt lat="42.027125" lon="-2.743695">
        <ele>1759.8</ele>
        <time>2021-07-03T08:29:04.000Z</time>
      </trkpt>
      <trkpt lat="42.027182" lon="-2.743583">
        <ele>1760.4</ele>
        <time>2021-07-03T08:29:12.000Z</time>
      </trkpt>
      <trkpt lat="42.027193" lon="-2.743562">
        <ele>1760.1</ele>
        <time>2021-07-03T08:29:15.000Z</time>
      </trkpt>
      <trkpt lat="42.027195" lon="-2.743562">
        <ele>1760.9</ele>
        <time>2021-07-03T08:29:34.000Z</time>
      </trkpt>
      <trkpt lat="42.027195" lon="-2.743562">
        <ele>1760.9</ele>
        <time>2021-07-03T08:29:35.000Z</time>
      </trkpt>
      <trkpt lat="42.027197" lon="-2.743562">
        <ele>1760.5</ele>
        <time>2021-07-03T08:29:48.000Z</time>
      </trkpt>
      <trkpt lat="42.027272" lon="-2.743468">
        <ele>1760.6</ele>
        <time>2021-07-03T08:29:55.000Z</time>
      </trkpt>
      <trkpt lat="42.027347" lon="-2.743375">
        <ele>1762.1</ele>
        <time>2021-07-03T08:30:00.000Z</time>
      </trkpt>
      <trkpt lat="42.027408" lon="-2.743278">
        <ele>1761.6</ele>
        <time>2021-07-03T08:30:05.000Z</time>
      </trkpt>
      <trkpt lat="42.027468" lon="-2.743162">
        <ele>1763.1</ele>
        <time>2021-07-03T08:30:11.000Z</time>
      </trkpt>
      <trkpt lat="42.027517" lon="-2.743058">
        <ele>1763.1</ele>
        <time>2021-07-03T08:30:16.000Z</time>
      </trkpt>
      <trkpt lat="42.027570" lon="-2.742955">
        <ele>1765.1</ele>
        <time>2021-07-03T08:30:22.000Z</time>
      </trkpt>
      <trkpt lat="42.027625" lon="-2.742853">
        <ele>1764.7</ele>
        <time>2021-07-03T08:30:28.000Z</time>
      </trkpt>
      <trkpt lat="42.027692" lon="-2.742760">
        <ele>1764.9</ele>
        <time>2021-07-03T08:30:34.000Z</time>
      </trkpt>
      <trkpt lat="42.027730" lon="-2.742648">
        <ele>1766.4</ele>
        <time>2021-07-03T08:30:40.000Z</time>
      </trkpt>
      <trkpt lat="42.027780" lon="-2.742527">
        <ele>1767.0</ele>
        <time>2021-07-03T08:30:47.000Z</time>
      </trkpt>
      <trkpt lat="42.027828" lon="-2.742408">
        <ele>1768.1</ele>
        <time>2021-07-03T08:30:54.000Z</time>
      </trkpt>
      <trkpt lat="42.027872" lon="-2.742300">
        <ele>1768.0</ele>
        <time>2021-07-03T08:31:01.000Z</time>
      </trkpt>
      <trkpt lat="42.027917" lon="-2.742195">
        <ele>1768.0</ele>
        <time>2021-07-03T08:31:08.000Z</time>
      </trkpt>
      <trkpt lat="42.027973" lon="-2.742087">
        <ele>1770.0</ele>
        <time>2021-07-03T08:31:15.000Z</time>
      </trkpt>
      <trkpt lat="42.028023" lon="-2.741968">
        <ele>1769.5</ele>
        <time>2021-07-03T08:31:23.000Z</time>
      </trkpt>
      <trkpt lat="42.028070" lon="-2.741862">
        <ele>1770.9</ele>
        <time>2021-07-03T08:31:30.000Z</time>
      </trkpt>
      <trkpt lat="42.028113" lon="-2.741755">
        <ele>1770.9</ele>
        <time>2021-07-03T08:31:37.000Z</time>
      </trkpt>
      <trkpt lat="42.028165" lon="-2.741652">
        <ele>1771.9</ele>
        <time>2021-07-03T08:31:44.000Z</time>
      </trkpt>
      <trkpt lat="42.028227" lon="-2.741552">
        <ele>1774.0</ele>
        <time>2021-07-03T08:31:51.000Z</time>
      </trkpt>
      <trkpt lat="42.028283" lon="-2.741457">
        <ele>1773.8</ele>
        <time>2021-07-03T08:31:57.000Z</time>
      </trkpt>
      <trkpt lat="42.028342" lon="-2.741343">
        <ele>1775.9</ele>
        <time>2021-07-03T08:32:04.000Z</time>
      </trkpt>
      <trkpt lat="42.028390" lon="-2.741220">
        <ele>1776.9</ele>
        <time>2021-07-03T08:32:11.000Z</time>
      </trkpt>
      <trkpt lat="42.028448" lon="-2.741108">
        <ele>1776.2</ele>
        <time>2021-07-03T08:32:18.000Z</time>
      </trkpt>
      <trkpt lat="42.028513" lon="-2.741018">
        <ele>1777.0</ele>
        <time>2021-07-03T08:32:25.000Z</time>
      </trkpt>
      <trkpt lat="42.028565" lon="-2.740913">
        <ele>1778.8</ele>
        <time>2021-07-03T08:32:32.000Z</time>
      </trkpt>
      <trkpt lat="42.028613" lon="-2.740808">
        <ele>1778.2</ele>
        <time>2021-07-03T08:32:38.000Z</time>
      </trkpt>
      <trkpt lat="42.028672" lon="-2.740693">
        <ele>1778.2</ele>
        <time>2021-07-03T08:32:45.000Z</time>
      </trkpt>
      <trkpt lat="42.028715" lon="-2.740583">
        <ele>1778.7</ele>
        <time>2021-07-03T08:32:52.000Z</time>
      </trkpt>
      <trkpt lat="42.028765" lon="-2.740472">
        <ele>1780.1</ele>
        <time>2021-07-03T08:32:59.000Z</time>
      </trkpt>
      <trkpt lat="42.028803" lon="-2.740350">
        <ele>1781.3</ele>
        <time>2021-07-03T08:33:06.000Z</time>
      </trkpt>
      <trkpt lat="42.028850" lon="-2.740230">
        <ele>1781.9</ele>
        <time>2021-07-03T08:33:13.000Z</time>
      </trkpt>
      <trkpt lat="42.028908" lon="-2.740125">
        <ele>1783.8</ele>
        <time>2021-07-03T08:33:20.000Z</time>
      </trkpt>
      <trkpt lat="42.028977" lon="-2.740040">
        <ele>1783.7</ele>
        <time>2021-07-03T08:33:27.000Z</time>
      </trkpt>
      <trkpt lat="42.029012" lon="-2.740152">
        <ele>1785.3</ele>
        <time>2021-07-03T08:33:36.000Z</time>
      </trkpt>
      <trkpt lat="42.028947" lon="-2.740243">
        <ele>1783.9</ele>
        <time>2021-07-03T08:33:42.000Z</time>
      </trkpt>
      <trkpt lat="42.028900" lon="-2.740365">
        <ele>1786.1</ele>
        <time>2021-07-03T08:33:48.000Z</time>
      </trkpt>
      <trkpt lat="42.028877" lon="-2.740488">
        <ele>1786.4</ele>
        <time>2021-07-03T08:33:54.000Z</time>
      </trkpt>
      <trkpt lat="42.028860" lon="-2.740617">
        <ele>1787.5</ele>
        <time>2021-07-03T08:34:01.000Z</time>
      </trkpt>
      <trkpt lat="42.028847" lon="-2.740747">
        <ele>1787.7</ele>
        <time>2021-07-03T08:34:09.000Z</time>
      </trkpt>
      <trkpt lat="42.028835" lon="-2.740875">
        <ele>1789.5</ele>
        <time>2021-07-03T08:34:16.000Z</time>
      </trkpt>
      <trkpt lat="42.028827" lon="-2.741007">
        <ele>1789.1</ele>
        <time>2021-07-03T08:34:22.000Z</time>
      </trkpt>
      <trkpt lat="42.028820" lon="-2.741133">
        <ele>1789.7</ele>
        <time>2021-07-03T08:34:29.000Z</time>
      </trkpt>
      <trkpt lat="42.028797" lon="-2.741253">
        <ele>1791.0</ele>
        <time>2021-07-03T08:34:35.000Z</time>
      </trkpt>
      <trkpt lat="42.028767" lon="-2.741378">
        <ele>1792.4</ele>
        <time>2021-07-03T08:34:41.000Z</time>
      </trkpt>
      <trkpt lat="42.028742" lon="-2.741520">
        <ele>1790.3</ele>
        <time>2021-07-03T08:34:48.000Z</time>
      </trkpt>
      <trkpt lat="42.028725" lon="-2.741650">
        <ele>1792.2</ele>
        <time>2021-07-03T08:34:54.000Z</time>
      </trkpt>
      <trkpt lat="42.028708" lon="-2.741787">
        <ele>1792.0</ele>
        <time>2021-07-03T08:35:01.000Z</time>
      </trkpt>
      <trkpt lat="42.028695" lon="-2.741917">
        <ele>1791.8</ele>
        <time>2021-07-03T08:35:08.000Z</time>
      </trkpt>
      <trkpt lat="42.028665" lon="-2.742035">
        <ele>1794.0</ele>
        <time>2021-07-03T08:35:15.000Z</time>
      </trkpt>
      <trkpt lat="42.028635" lon="-2.742158">
        <ele>1795.3</ele>
        <time>2021-07-03T08:35:22.000Z</time>
      </trkpt>
      <trkpt lat="42.028617" lon="-2.742295">
        <ele>1794.8</ele>
        <time>2021-07-03T08:35:30.000Z</time>
      </trkpt>
      <trkpt lat="42.028595" lon="-2.742418">
        <ele>1797.2</ele>
        <time>2021-07-03T08:35:37.000Z</time>
      </trkpt>
      <trkpt lat="42.028570" lon="-2.742545">
        <ele>1797.4</ele>
        <time>2021-07-03T08:35:44.000Z</time>
      </trkpt>
      <trkpt lat="42.028548" lon="-2.742670">
        <ele>1796.1</ele>
        <time>2021-07-03T08:35:50.000Z</time>
      </trkpt>
      <trkpt lat="42.028530" lon="-2.742790">
        <ele>1797.0</ele>
        <time>2021-07-03T08:35:56.000Z</time>
      </trkpt>
      <trkpt lat="42.028512" lon="-2.742913">
        <ele>1798.3</ele>
        <time>2021-07-03T08:36:02.000Z</time>
      </trkpt>
      <trkpt lat="42.028490" lon="-2.743052">
        <ele>1800.2</ele>
        <time>2021-07-03T08:36:08.000Z</time>
      </trkpt>
      <trkpt lat="42.028468" lon="-2.743177">
        <ele>1800.4</ele>
        <time>2021-07-03T08:36:14.000Z</time>
      </trkpt>
      <trkpt lat="42.028453" lon="-2.743303">
        <ele>1800.9</ele>
        <time>2021-07-03T08:36:20.000Z</time>
      </trkpt>
      <trkpt lat="42.028437" lon="-2.743430">
        <ele>1800.3</ele>
        <time>2021-07-03T08:36:26.000Z</time>
      </trkpt>
      <trkpt lat="42.028418" lon="-2.743553">
        <ele>1800.9</ele>
        <time>2021-07-03T08:36:32.000Z</time>
      </trkpt>
      <trkpt lat="42.028397" lon="-2.743688">
        <ele>1801.1</ele>
        <time>2021-07-03T08:36:39.000Z</time>
      </trkpt>
      <trkpt lat="42.028375" lon="-2.743812">
        <ele>1802.3</ele>
        <time>2021-07-03T08:36:45.000Z</time>
      </trkpt>
      <trkpt lat="42.028345" lon="-2.743930">
        <ele>1802.3</ele>
        <time>2021-07-03T08:36:51.000Z</time>
      </trkpt>
      <trkpt lat="42.028335" lon="-2.744058">
        <ele>1803.8</ele>
        <time>2021-07-03T08:36:59.000Z</time>
      </trkpt>
      <trkpt lat="42.028298" lon="-2.744178">
        <ele>1805.9</ele>
        <time>2021-07-03T08:37:06.000Z</time>
      </trkpt>
      <trkpt lat="42.028262" lon="-2.744293">
        <ele>1805.7</ele>
        <time>2021-07-03T08:37:12.000Z</time>
      </trkpt>
      <trkpt lat="42.028225" lon="-2.744407">
        <ele>1805.8</ele>
        <time>2021-07-03T08:37:18.000Z</time>
      </trkpt>
      <trkpt lat="42.028180" lon="-2.744528">
        <ele>1806.6</ele>
        <time>2021-07-03T08:37:25.000Z</time>
      </trkpt>
      <trkpt lat="42.028135" lon="-2.744652">
        <ele>1806.7</ele>
        <time>2021-07-03T08:37:32.000Z</time>
      </trkpt>
      <trkpt lat="42.028088" lon="-2.744768">
        <ele>1806.9</ele>
        <time>2021-07-03T08:37:38.000Z</time>
      </trkpt>
      <trkpt lat="42.028042" lon="-2.744878">
        <ele>1808.7</ele>
        <time>2021-07-03T08:37:44.000Z</time>
      </trkpt>
      <trkpt lat="42.027987" lon="-2.744988">
        <ele>1809.4</ele>
        <time>2021-07-03T08:37:51.000Z</time>
      </trkpt>
      <trkpt lat="42.027917" lon="-2.745083">
        <ele>1809.9</ele>
        <time>2021-07-03T08:37:58.000Z</time>
      </trkpt>
      <trkpt lat="42.027868" lon="-2.745187">
        <ele>1809.7</ele>
        <time>2021-07-03T08:38:05.000Z</time>
      </trkpt>
      <trkpt lat="42.027823" lon="-2.745303">
        <ele>1810.9</ele>
        <time>2021-07-03T08:38:11.000Z</time>
      </trkpt>
      <trkpt lat="42.027762" lon="-2.745418">
        <ele>1811.8</ele>
        <time>2021-07-03T08:38:18.000Z</time>
      </trkpt>
      <trkpt lat="42.027700" lon="-2.745527">
        <ele>1811.6</ele>
        <time>2021-07-03T08:38:25.000Z</time>
      </trkpt>
      <trkpt lat="42.027653" lon="-2.745637">
        <ele>1814.2</ele>
        <time>2021-07-03T08:38:33.000Z</time>
      </trkpt>
      <trkpt lat="42.027608" lon="-2.745752">
        <ele>1813.8</ele>
        <time>2021-07-03T08:38:40.000Z</time>
      </trkpt>
      <trkpt lat="42.027560" lon="-2.745870">
        <ele>1814.3</ele>
        <time>2021-07-03T08:38:46.000Z</time>
      </trkpt>
      <trkpt lat="42.027512" lon="-2.745978">
        <ele>1814.9</ele>
        <time>2021-07-03T08:38:52.000Z</time>
      </trkpt>
      <trkpt lat="42.027455" lon="-2.746088">
        <ele>1814.6</ele>
        <time>2021-07-03T08:38:59.000Z</time>
      </trkpt>
      <trkpt lat="42.027402" lon="-2.746208">
        <ele>1817.1</ele>
        <time>2021-07-03T08:39:06.000Z</time>
      </trkpt>
      <trkpt lat="42.027337" lon="-2.746308">
        <ele>1816.9</ele>
        <time>2021-07-03T08:39:13.000Z</time>
      </trkpt>
      <trkpt lat="42.027280" lon="-2.746418">
        <ele>1816.8</ele>
        <time>2021-07-03T08:39:21.000Z</time>
      </trkpt>
      <trkpt lat="42.027223" lon="-2.746517">
        <ele>1818.9</ele>
        <time>2021-07-03T08:39:28.000Z</time>
      </trkpt>
      <trkpt lat="42.027162" lon="-2.746622">
        <ele>1820.4</ele>
        <time>2021-07-03T08:39:34.000Z</time>
      </trkpt>
      <trkpt lat="42.027107" lon="-2.746728">
        <ele>1819.0</ele>
        <time>2021-07-03T08:39:41.000Z</time>
      </trkpt>
      <trkpt lat="42.027065" lon="-2.746852">
        <ele>1821.8</ele>
        <time>2021-07-03T08:39:49.000Z</time>
      </trkpt>
      <trkpt lat="42.027028" lon="-2.746965">
        <ele>1822.2</ele>
        <time>2021-07-03T08:39:56.000Z</time>
      </trkpt>
      <trkpt lat="42.026965" lon="-2.747080">
        <ele>1822.7</ele>
        <time>2021-07-03T08:40:02.000Z</time>
      </trkpt>
      <trkpt lat="42.026927" lon="-2.747202">
        <ele>1823.1</ele>
        <time>2021-07-03T08:40:09.000Z</time>
      </trkpt>
      <trkpt lat="42.026887" lon="-2.747312">
        <ele>1823.7</ele>
        <time>2021-07-03T08:40:15.000Z</time>
      </trkpt>
      <trkpt lat="42.026825" lon="-2.747425">
        <ele>1823.2</ele>
        <time>2021-07-03T08:40:21.000Z</time>
      </trkpt>
      <trkpt lat="42.026770" lon="-2.747543">
        <ele>1823.8</ele>
        <time>2021-07-03T08:40:27.000Z</time>
      </trkpt>
      <trkpt lat="42.026700" lon="-2.747637">
        <ele>1824.3</ele>
        <time>2021-07-03T08:40:33.000Z</time>
      </trkpt>
      <trkpt lat="42.026635" lon="-2.747728">
        <ele>1826.1</ele>
        <time>2021-07-03T08:40:39.000Z</time>
      </trkpt>
      <trkpt lat="42.026577" lon="-2.747822">
        <ele>1827.0</ele>
        <time>2021-07-03T08:40:45.000Z</time>
      </trkpt>
      <trkpt lat="42.026505" lon="-2.747923">
        <ele>1828.1</ele>
        <time>2021-07-03T08:40:52.000Z</time>
      </trkpt>
      <trkpt lat="42.026442" lon="-2.748017">
        <ele>1828.6</ele>
        <time>2021-07-03T08:40:58.000Z</time>
      </trkpt>
      <trkpt lat="42.026370" lon="-2.748103">
        <ele>1828.4</ele>
        <time>2021-07-03T08:41:04.000Z</time>
      </trkpt>
      <trkpt lat="42.026308" lon="-2.748192">
        <ele>1828.9</ele>
        <time>2021-07-03T08:41:10.000Z</time>
      </trkpt>
      <trkpt lat="42.026250" lon="-2.748285">
        <ele>1828.9</ele>
        <time>2021-07-03T08:41:16.000Z</time>
      </trkpt>
      <trkpt lat="42.026187" lon="-2.748387">
        <ele>1829.7</ele>
        <time>2021-07-03T08:41:23.000Z</time>
      </trkpt>
      <trkpt lat="42.026123" lon="-2.748500">
        <ele>1830.6</ele>
        <time>2021-07-03T08:41:29.000Z</time>
      </trkpt>
      <trkpt lat="42.026052" lon="-2.748585">
        <ele>1830.8</ele>
        <time>2021-07-03T08:41:35.000Z</time>
      </trkpt>
      <trkpt lat="42.025977" lon="-2.748668">
        <ele>1831.7</ele>
        <time>2021-07-03T08:41:41.000Z</time>
      </trkpt>
      <trkpt lat="42.025898" lon="-2.748762">
        <ele>1831.3</ele>
        <time>2021-07-03T08:41:47.000Z</time>
      </trkpt>
      <trkpt lat="42.025823" lon="-2.748850">
        <ele>1832.6</ele>
        <time>2021-07-03T08:41:53.000Z</time>
      </trkpt>
      <trkpt lat="42.025757" lon="-2.748935">
        <ele>1832.8</ele>
        <time>2021-07-03T08:41:59.000Z</time>
      </trkpt>
      <trkpt lat="42.025702" lon="-2.749038">
        <ele>1833.8</ele>
        <time>2021-07-03T08:42:06.000Z</time>
      </trkpt>
      <trkpt lat="42.025685" lon="-2.749077">
        <ele>1833.7</ele>
        <time>2021-07-03T08:42:15.000Z</time>
      </trkpt>
      <trkpt lat="42.025683" lon="-2.749077">
        <ele>1833.0</ele>
        <time>2021-07-03T08:42:21.000Z</time>
      </trkpt>
      <trkpt lat="42.025683" lon="-2.749077">
        <ele>1833.4</ele>
        <time>2021-07-03T08:42:22.000Z</time>
      </trkpt>
      <trkpt lat="42.025682" lon="-2.749077">
        <ele>1833.8</ele>
        <time>2021-07-03T08:42:36.000Z</time>
      </trkpt>
      <trkpt lat="42.025635" lon="-2.749108">
        <ele>1834.4</ele>
        <time>2021-07-03T08:42:48.000Z</time>
      </trkpt>
      <trkpt lat="42.025638" lon="-2.749110">
        <ele>1834.6</ele>
        <time>2021-07-03T08:42:49.000Z</time>
      </trkpt>
      <trkpt lat="42.025638" lon="-2.749118">
        <ele>1834.5</ele>
        <time>2021-07-03T08:42:52.000Z</time>
      </trkpt>
      <trkpt lat="42.025637" lon="-2.749120">
        <ele>1834.2</ele>
        <time>2021-07-03T08:42:54.000Z</time>
      </trkpt>
      <trkpt lat="42.025635" lon="-2.749122">
        <ele>1834.3</ele>
        <time>2021-07-03T08:42:56.000Z</time>
      </trkpt>
      <trkpt lat="42.025637" lon="-2.749120">
        <ele>1834.6</ele>
        <time>2021-07-03T08:43:05.000Z</time>
      </trkpt>
      <trkpt lat="42.025637" lon="-2.749120">
        <ele>1834.5</ele>
        <time>2021-07-03T08:43:06.000Z</time>
      </trkpt>
      <trkpt lat="42.025638" lon="-2.749120">
        <ele>1833.9</ele>
        <time>2021-07-03T08:44:22.000Z</time>
      </trkpt>
      <trkpt lat="42.025638" lon="-2.749122">
        <ele>1833.8</ele>
        <time>2021-07-03T08:44:23.000Z</time>
      </trkpt>
      <trkpt lat="42.025640" lon="-2.749120">
        <ele>1834.2</ele>
        <time>2021-07-03T08:45:18.000Z</time>
      </trkpt>
      <trkpt lat="42.025640" lon="-2.749120">
        <ele>1834.3</ele>
        <time>2021-07-03T08:45:19.000Z</time>
      </trkpt>
      <trkpt lat="42.025642" lon="-2.749120">
        <ele>1834.3</ele>
        <time>2021-07-03T08:46:19.000Z</time>
      </trkpt>
      <trkpt lat="42.025642" lon="-2.749120">
        <ele>1834.4</ele>
        <time>2021-07-03T08:46:20.000Z</time>
      </trkpt>
      <trkpt lat="42.025640" lon="-2.749122">
        <ele>1832.3</ele>
        <time>2021-07-03T08:49:04.000Z</time>
      </trkpt>
      <trkpt lat="42.025640" lon="-2.749122">
        <ele>1832.3</ele>
        <time>2021-07-03T08:49:05.000Z</time>
      </trkpt>
      <trkpt lat="42.025642" lon="-2.749122">
        <ele>1832.4</ele>
        <time>2021-07-03T08:49:58.000Z</time>
      </trkpt>
      <trkpt lat="42.025642" lon="-2.749122">
        <ele>1832.3</ele>
        <time>2021-07-03T08:49:59.000Z</time>
      </trkpt>
      <trkpt lat="42.025643" lon="-2.749122">
        <ele>1832.7</ele>
        <time>2021-07-03T08:50:38.000Z</time>
      </trkpt>
      <trkpt lat="42.025643" lon="-2.749122">
        <ele>1832.4</ele>
        <time>2021-07-03T08:50:39.000Z</time>
      </trkpt>
      <trkpt lat="42.025645" lon="-2.749122">
        <ele>1833.4</ele>
        <time>2021-07-03T08:51:21.000Z</time>
      </trkpt>
      <trkpt lat="42.025645" lon="-2.749122">
        <ele>1833.3</ele>
        <time>2021-07-03T08:51:22.000Z</time>
      </trkpt>
      <trkpt lat="42.025647" lon="-2.749120">
        <ele>1833.2</ele>
        <time>2021-07-03T08:52:00.000Z</time>
      </trkpt>
      <trkpt lat="42.025647" lon="-2.749120">
        <ele>1833.2</ele>
        <time>2021-07-03T08:52:01.000Z</time>
      </trkpt>
      <trkpt lat="42.025648" lon="-2.749118">
        <ele>1832.7</ele>
        <time>2021-07-03T08:53:52.000Z</time>
      </trkpt>
      <trkpt lat="42.025648" lon="-2.749118">
        <ele>1832.9</ele>
        <time>2021-07-03T08:53:53.000Z</time>
      </trkpt>
      <trkpt lat="42.025650" lon="-2.749118">
        <ele>1832.3</ele>
        <time>2021-07-03T08:54:58.000Z</time>
      </trkpt>
      <trkpt lat="42.025650" lon="-2.749118">
        <ele>1832.3</ele>
        <time>2021-07-03T08:54:59.000Z</time>
      </trkpt>
      <trkpt lat="42.025648" lon="-2.749117">
        <ele>1832.8</ele>
        <time>2021-07-03T08:57:02.000Z</time>
      </trkpt>
      <trkpt lat="42.025648" lon="-2.749117">
        <ele>1832.6</ele>
        <time>2021-07-03T08:57:03.000Z</time>
      </trkpt>
      <trkpt lat="42.025650" lon="-2.749120">
        <ele>1832.2</ele>
        <time>2021-07-03T08:59:55.000Z</time>
      </trkpt>
      <trkpt lat="42.025650" lon="-2.749120">
        <ele>1832.3</ele>
        <time>2021-07-03T08:59:56.000Z</time>
      </trkpt>
      <trkpt lat="42.025652" lon="-2.749120">
        <ele>1831.9</ele>
        <time>2021-07-03T09:00:05.000Z</time>
      </trkpt>
      <trkpt lat="42.025652" lon="-2.749120">
        <ele>1832.0</ele>
        <time>2021-07-03T09:00:06.000Z</time>
      </trkpt>
      <trkpt lat="42.025653" lon="-2.749118">
        <ele>1833.2</ele>
        <time>2021-07-03T09:02:16.000Z</time>
      </trkpt>
      <trkpt lat="42.025653" lon="-2.749118">
        <ele>1833.2</ele>
        <time>2021-07-03T09:02:17.000Z</time>
      </trkpt>
      <trkpt lat="42.025652" lon="-2.749118">
        <ele>1833.2</ele>
        <time>2021-07-03T09:03:26.000Z</time>
      </trkpt>
      <trkpt lat="42.025652" lon="-2.749118">
        <ele>1833.4</ele>
        <time>2021-07-03T09:03:27.000Z</time>
      </trkpt>
      <trkpt lat="42.025650" lon="-2.749118">
        <ele>1831.8</ele>
        <time>2021-07-03T09:04:52.000Z</time>
      </trkpt>
      <trkpt lat="42.025650" lon="-2.749118">
        <ele>1831.6</ele>
        <time>2021-07-03T09:04:53.000Z</time>
      </trkpt>
      <trkpt lat="42.025652" lon="-2.749117">
        <ele>1833.0</ele>
        <time>2021-07-03T09:07:25.000Z</time>
      </trkpt>
      <trkpt lat="42.025652" lon="-2.749117">
        <ele>1833.2</ele>
        <time>2021-07-03T09:07:26.000Z</time>
      </trkpt>
      <trkpt lat="42.025655" lon="-2.749113">
        <ele>1832.7</ele>
        <time>2021-07-03T09:07:36.000Z</time>
      </trkpt>
      <trkpt lat="42.025655" lon="-2.749113">
        <ele>1832.7</ele>
        <time>2021-07-03T09:07:37.000Z</time>
      </trkpt>
      <trkpt lat="42.025653" lon="-2.749113">
        <ele>1832.2</ele>
        <time>2021-07-03T09:08:53.000Z</time>
      </trkpt>
      <trkpt lat="42.025653" lon="-2.749113">
        <ele>1832.3</ele>
        <time>2021-07-03T09:08:54.000Z</time>
      </trkpt>
      <trkpt lat="42.025655" lon="-2.749115">
        <ele>1832.3</ele>
        <time>2021-07-03T09:11:07.000Z</time>
      </trkpt>
      <trkpt lat="42.025655" lon="-2.749115">
        <ele>1831.8</ele>
        <time>2021-07-03T09:11:08.000Z</time>
      </trkpt>
      <trkpt lat="42.025657" lon="-2.749115">
        <ele>1832.7</ele>
        <time>2021-07-03T09:11:55.000Z</time>
      </trkpt>
      <trkpt lat="42.025657" lon="-2.749115">
        <ele>1832.6</ele>
        <time>2021-07-03T09:11:56.000Z</time>
      </trkpt>
      <trkpt lat="42.025658" lon="-2.749115">
        <ele>1828.5</ele>
        <time>2021-07-03T09:12:10.000Z</time>
      </trkpt>
      <trkpt lat="42.025658" lon="-2.749115">
        <ele>1830.6</ele>
        <time>2021-07-03T09:12:11.000Z</time>
      </trkpt>
      <trkpt lat="42.025660" lon="-2.749117">
        <ele>1832.3</ele>
        <time>2021-07-03T09:12:26.000Z</time>
      </trkpt>
      <trkpt lat="42.025660" lon="-2.749117">
        <ele>1832.5</ele>
        <time>2021-07-03T09:12:27.000Z</time>
      </trkpt>
      <trkpt lat="42.025660" lon="-2.749120">
        <ele>1833.8</ele>
        <time>2021-07-03T09:12:49.000Z</time>
      </trkpt>
      <trkpt lat="42.025662" lon="-2.749130">
        <ele>1832.1</ele>
        <time>2021-07-03T09:12:53.000Z</time>
      </trkpt>
      <trkpt lat="42.025663" lon="-2.749135">
        <ele>1831.9</ele>
        <time>2021-07-03T09:13:25.000Z</time>
      </trkpt>
      <trkpt lat="42.025665" lon="-2.749137">
        <ele>1834.8</ele>
        <time>2021-07-03T09:13:27.000Z</time>
      </trkpt>
      <trkpt lat="42.025667" lon="-2.749138">
        <ele>1833.2</ele>
        <time>2021-07-03T09:13:28.000Z</time>
      </trkpt>
      <trkpt lat="42.025667" lon="-2.749140">
        <ele>1830.4</ele>
        <time>2021-07-03T09:13:29.000Z</time>
      </trkpt>
      <trkpt lat="42.025668" lon="-2.749140">
        <ele>1832.1</ele>
        <time>2021-07-03T09:13:35.000Z</time>
      </trkpt>
      <trkpt lat="42.025668" lon="-2.749140">
        <ele>1832.1</ele>
        <time>2021-07-03T09:13:36.000Z</time>
      </trkpt>
      <trkpt lat="42.025673" lon="-2.749147">
        <ele>1832.4</ele>
        <time>2021-07-03T09:13:56.000Z</time>
      </trkpt>
      <trkpt lat="42.025683" lon="-2.749195">
        <ele>1833.1</ele>
        <time>2021-07-03T09:14:03.000Z</time>
      </trkpt>
      <trkpt lat="42.025682" lon="-2.749195">
        <ele>1832.4</ele>
        <time>2021-07-03T09:14:08.000Z</time>
      </trkpt>
      <trkpt lat="42.025682" lon="-2.749195">
        <ele>1832.5</ele>
        <time>2021-07-03T09:14:09.000Z</time>
      </trkpt>
      <trkpt lat="42.025682" lon="-2.749200">
        <ele>1832.9</ele>
        <time>2021-07-03T09:14:41.000Z</time>
      </trkpt>
      <trkpt lat="42.025688" lon="-2.749328">
        <ele>1833.2</ele>
        <time>2021-07-03T09:14:51.000Z</time>
      </trkpt>
      <trkpt lat="42.025738" lon="-2.749440">
        <ele>1835.7</ele>
        <time>2021-07-03T09:15:06.000Z</time>
      </trkpt>
      <trkpt lat="42.025788" lon="-2.749548">
        <ele>1836.0</ele>
        <time>2021-07-03T09:15:17.000Z</time>
      </trkpt>
      <trkpt lat="42.025822" lon="-2.749637">
        <ele>1837.8</ele>
        <time>2021-07-03T09:15:28.000Z</time>
      </trkpt>
      <trkpt lat="42.025823" lon="-2.749643">
        <ele>1838.0</ele>
        <time>2021-07-03T09:15:41.000Z</time>
      </trkpt>
      <trkpt lat="42.025843" lon="-2.749772">
        <ele>1838.4</ele>
        <time>2021-07-03T09:15:53.000Z</time>
      </trkpt>
      <trkpt lat="42.025845" lon="-2.749858">
        <ele>1841.0</ele>
        <time>2021-07-03T09:16:03.000Z</time>
      </trkpt>
      <trkpt lat="42.025845" lon="-2.749867">
        <ele>1839.6</ele>
        <time>2021-07-03T09:16:46.000Z</time>
      </trkpt>
      <trkpt lat="42.025863" lon="-2.749988">
        <ele>1842.9</ele>
        <time>2021-07-03T09:16:59.000Z</time>
      </trkpt>
      <trkpt lat="42.025893" lon="-2.750107">
        <ele>1847.3</ele>
        <time>2021-07-03T09:17:12.000Z</time>
      </trkpt>
      <trkpt lat="42.025930" lon="-2.750218">
        <ele>1848.6</ele>
        <time>2021-07-03T09:17:25.000Z</time>
      </trkpt>
      <trkpt lat="42.025945" lon="-2.750295">
        <ele>1850.1</ele>
        <time>2021-07-03T09:17:38.000Z</time>
      </trkpt>
      <trkpt lat="42.025945" lon="-2.750303">
        <ele>1849.5</ele>
        <time>2021-07-03T09:17:41.000Z</time>
      </trkpt>
      <trkpt lat="42.025955" lon="-2.750352">
        <ele>1851.1</ele>
        <time>2021-07-03T09:17:48.000Z</time>
      </trkpt>
      <trkpt lat="42.025957" lon="-2.750353">
        <ele>1851.1</ele>
        <time>2021-07-03T09:17:49.000Z</time>
      </trkpt>
      <trkpt lat="42.025982" lon="-2.750472">
        <ele>1851.4</ele>
        <time>2021-07-03T09:18:02.000Z</time>
      </trkpt>
      <trkpt lat="42.026042" lon="-2.750563">
        <ele>1853.7</ele>
        <time>2021-07-03T09:18:17.000Z</time>
      </trkpt>
      <trkpt lat="42.026077" lon="-2.750610">
        <ele>1854.3</ele>
        <time>2021-07-03T09:18:28.000Z</time>
      </trkpt>
      <trkpt lat="42.026078" lon="-2.750613">
        <ele>1855.1</ele>
        <time>2021-07-03T09:18:33.000Z</time>
      </trkpt>
      <trkpt lat="42.026150" lon="-2.750688">
        <ele>1856.2</ele>
        <time>2021-07-03T09:18:45.000Z</time>
      </trkpt>
      <trkpt lat="42.026215" lon="-2.750778">
        <ele>1859.3</ele>
        <time>2021-07-03T09:18:57.000Z</time>
      </trkpt>
      <trkpt lat="42.026272" lon="-2.750873">
        <ele>1859.5</ele>
        <time>2021-07-03T09:19:09.000Z</time>
      </trkpt>
      <trkpt lat="42.026313" lon="-2.750988">
        <ele>1861.6</ele>
        <time>2021-07-03T09:19:23.000Z</time>
      </trkpt>
      <trkpt lat="42.026323" lon="-2.751115">
        <ele>1863.2</ele>
        <time>2021-07-03T09:19:38.000Z</time>
      </trkpt>
      <trkpt lat="42.026327" lon="-2.751237">
        <ele>1864.7</ele>
        <time>2021-07-03T09:19:52.000Z</time>
      </trkpt>
      <trkpt lat="42.026330" lon="-2.751255">
        <ele>1865.3</ele>
        <time>2021-07-03T09:19:55.000Z</time>
      </trkpt>
      <trkpt lat="42.026328" lon="-2.751257">
        <ele>1865.7</ele>
        <time>2021-07-03T09:20:07.000Z</time>
      </trkpt>
      <trkpt lat="42.026323" lon="-2.751390">
        <ele>1865.7</ele>
        <time>2021-07-03T09:20:20.000Z</time>
      </trkpt>
      <trkpt lat="42.026322" lon="-2.751512">
        <ele>1867.8</ele>
        <time>2021-07-03T09:20:31.000Z</time>
      </trkpt>
      <trkpt lat="42.026347" lon="-2.751635">
        <ele>1869.5</ele>
        <time>2021-07-03T09:20:43.000Z</time>
      </trkpt>
      <trkpt lat="42.026333" lon="-2.751757">
        <ele>1871.6</ele>
        <time>2021-07-03T09:20:58.000Z</time>
      </trkpt>
      <trkpt lat="42.026315" lon="-2.751840">
        <ele>1872.5</ele>
        <time>2021-07-03T09:21:10.000Z</time>
      </trkpt>
      <trkpt lat="42.026313" lon="-2.751847">
        <ele>1872.7</ele>
        <time>2021-07-03T09:21:11.000Z</time>
      </trkpt>
      <trkpt lat="42.026250" lon="-2.751945">
        <ele>1873.8</ele>
        <time>2021-07-03T09:21:18.000Z</time>
      </trkpt>
      <trkpt lat="42.026188" lon="-2.752055">
        <ele>1872.9</ele>
        <time>2021-07-03T09:21:26.000Z</time>
      </trkpt>
      <trkpt lat="42.026135" lon="-2.752157">
        <ele>1874.3</ele>
        <time>2021-07-03T09:21:34.000Z</time>
      </trkpt>
      <trkpt lat="42.026073" lon="-2.752245">
        <ele>1875.2</ele>
        <time>2021-07-03T09:21:42.000Z</time>
      </trkpt>
      <trkpt lat="42.026002" lon="-2.752327">
        <ele>1876.0</ele>
        <time>2021-07-03T09:21:52.000Z</time>
      </trkpt>
      <trkpt lat="42.025923" lon="-2.752400">
        <ele>1878.5</ele>
        <time>2021-07-03T09:22:00.000Z</time>
      </trkpt>
      <trkpt lat="42.025862" lon="-2.752490">
        <ele>1878.4</ele>
        <time>2021-07-03T09:22:08.000Z</time>
      </trkpt>
      <trkpt lat="42.025787" lon="-2.752562">
        <ele>1881.9</ele>
        <time>2021-07-03T09:22:16.000Z</time>
      </trkpt>
      <trkpt lat="42.025718" lon="-2.752660">
        <ele>1881.4</ele>
        <time>2021-07-03T09:22:25.000Z</time>
      </trkpt>
      <trkpt lat="42.025652" lon="-2.752748">
        <ele>1882.3</ele>
        <time>2021-07-03T09:22:33.000Z</time>
      </trkpt>
      <trkpt lat="42.025617" lon="-2.752828">
        <ele>1885.2</ele>
        <time>2021-07-03T09:22:44.000Z</time>
      </trkpt>
      <trkpt lat="42.025617" lon="-2.752832">
        <ele>1882.7</ele>
        <time>2021-07-03T09:22:51.000Z</time>
      </trkpt>
      <trkpt lat="42.025598" lon="-2.752820">
        <ele>1883.0</ele>
        <time>2021-07-03T09:23:00.000Z</time>
      </trkpt>
      <trkpt lat="42.025600" lon="-2.752820">
        <ele>1882.0</ele>
        <time>2021-07-03T09:25:59.000Z</time>
      </trkpt>
      <trkpt lat="42.025600" lon="-2.752820">
        <ele>1882.5</ele>
        <time>2021-07-03T09:26:00.000Z</time>
      </trkpt>
      <trkpt lat="42.025602" lon="-2.752820">
        <ele>1881.6</ele>
        <time>2021-07-03T09:27:44.000Z</time>
      </trkpt>
      <trkpt lat="42.025622" lon="-2.752808">
        <ele>1881.4</ele>
        <time>2021-07-03T09:27:50.000Z</time>
      </trkpt>
      <trkpt lat="42.025623" lon="-2.752808">
        <ele>1882.4</ele>
        <time>2021-07-03T09:27:57.000Z</time>
      </trkpt>
      <trkpt lat="42.025623" lon="-2.752808">
        <ele>1882.2</ele>
        <time>2021-07-03T09:27:58.000Z</time>
      </trkpt>
      <trkpt lat="42.025627" lon="-2.752812">
        <ele>1885.2</ele>
        <time>2021-07-03T09:28:01.000Z</time>
      </trkpt>
      <trkpt lat="42.025628" lon="-2.752813">
        <ele>1884.0</ele>
        <time>2021-07-03T09:28:03.000Z</time>
      </trkpt>
      <trkpt lat="42.025630" lon="-2.752813">
        <ele>1880.2</ele>
        <time>2021-07-03T09:28:10.000Z</time>
      </trkpt>
      <trkpt lat="42.025632" lon="-2.752807">
        <ele>1881.5</ele>
        <time>2021-07-03T09:28:15.000Z</time>
      </trkpt>
      <trkpt lat="42.025633" lon="-2.752807">
        <ele>1882.0</ele>
        <time>2021-07-03T09:28:20.000Z</time>
      </trkpt>
      <trkpt lat="42.025633" lon="-2.752807">
        <ele>1882.0</ele>
        <time>2021-07-03T09:28:21.000Z</time>
      </trkpt>
      <trkpt lat="42.025632" lon="-2.752807">
        <ele>1881.8</ele>
        <time>2021-07-03T09:28:31.000Z</time>
      </trkpt>
      <trkpt lat="42.025633" lon="-2.752803">
        <ele>1882.0</ele>
        <time>2021-07-03T09:28:33.000Z</time>
      </trkpt>
      <trkpt lat="42.025635" lon="-2.752803">
        <ele>1881.7</ele>
        <time>2021-07-03T09:28:37.000Z</time>
      </trkpt>
      <trkpt lat="42.025732" lon="-2.752788">
        <ele>1883.5</ele>
        <time>2021-07-03T09:28:47.000Z</time>
      </trkpt>
      <trkpt lat="42.025750" lon="-2.752785">
        <ele>1882.1</ele>
        <time>2021-07-03T09:28:53.000Z</time>
      </trkpt>
      <trkpt lat="42.025748" lon="-2.752785">
        <ele>1882.9</ele>
        <time>2021-07-03T09:28:57.000Z</time>
      </trkpt>
      <trkpt lat="42.025838" lon="-2.752762">
        <ele>1883.7</ele>
        <time>2021-07-03T09:29:06.000Z</time>
      </trkpt>
      <trkpt lat="42.025933" lon="-2.752782">
        <ele>1885.8</ele>
        <time>2021-07-03T09:29:15.000Z</time>
      </trkpt>
      <trkpt lat="42.026025" lon="-2.752838">
        <ele>1888.0</ele>
        <time>2021-07-03T09:29:26.000Z</time>
      </trkpt>
      <trkpt lat="42.026053" lon="-2.752862">
        <ele>1887.2</ele>
        <time>2021-07-03T09:29:31.000Z</time>
      </trkpt>
      <trkpt lat="42.026057" lon="-2.752868">
        <ele>1887.1</ele>
        <time>2021-07-03T09:29:40.000Z</time>
      </trkpt>
      <trkpt lat="42.026052" lon="-2.752913">
        <ele>1888.2</ele>
        <time>2021-07-03T09:29:47.000Z</time>
      </trkpt>
      <trkpt lat="42.026050" lon="-2.752913">
        <ele>1888.1</ele>
        <time>2021-07-03T09:29:50.000Z</time>
      </trkpt>
      <trkpt lat="42.026050" lon="-2.752913">
        <ele>1888.3</ele>
        <time>2021-07-03T09:29:51.000Z</time>
      </trkpt>
      <trkpt lat="42.026048" lon="-2.752918">
        <ele>1888.8</ele>
        <time>2021-07-03T09:29:53.000Z</time>
      </trkpt>
      <trkpt lat="42.026002" lon="-2.753033">
        <ele>1889.2</ele>
        <time>2021-07-03T09:30:04.000Z</time>
      </trkpt>
      <trkpt lat="42.025922" lon="-2.753105">
        <ele>1891.0</ele>
        <time>2021-07-03T09:30:15.000Z</time>
      </trkpt>
      <trkpt lat="42.025872" lon="-2.753160">
        <ele>1892.7</ele>
        <time>2021-07-03T09:30:25.000Z</time>
      </trkpt>
      <trkpt lat="42.025868" lon="-2.753165">
        <ele>1893.4</ele>
        <time>2021-07-03T09:30:26.000Z</time>
      </trkpt>
      <trkpt lat="42.025835" lon="-2.753215">
        <ele>1893.7</ele>
        <time>2021-07-03T09:30:36.000Z</time>
      </trkpt>
      <trkpt lat="42.025833" lon="-2.753215">
        <ele>1893.6</ele>
        <time>2021-07-03T09:30:41.000Z</time>
      </trkpt>
      <trkpt lat="42.025783" lon="-2.753317">
        <ele>1895.3</ele>
        <time>2021-07-03T09:30:54.000Z</time>
      </trkpt>
      <trkpt lat="42.025782" lon="-2.753343">
        <ele>1895.7</ele>
        <time>2021-07-03T09:30:58.000Z</time>
      </trkpt>
      <trkpt lat="42.025780" lon="-2.753343">
        <ele>1896.1</ele>
        <time>2021-07-03T09:31:05.000Z</time>
      </trkpt>
      <trkpt lat="42.025780" lon="-2.753343">
        <ele>1896.1</ele>
        <time>2021-07-03T09:31:06.000Z</time>
      </trkpt>
      <trkpt lat="42.025778" lon="-2.753350">
        <ele>1896.2</ele>
        <time>2021-07-03T09:31:18.000Z</time>
      </trkpt>
      <trkpt lat="42.025830" lon="-2.753453">
        <ele>1897.8</ele>
        <time>2021-07-03T09:31:33.000Z</time>
      </trkpt>
      <trkpt lat="42.025858" lon="-2.753480">
        <ele>1898.5</ele>
        <time>2021-07-03T09:31:41.000Z</time>
      </trkpt>
      <trkpt lat="42.025860" lon="-2.753480">
        <ele>1898.4</ele>
        <time>2021-07-03T09:31:45.000Z</time>
      </trkpt>
      <trkpt lat="42.025860" lon="-2.753480">
        <ele>1898.5</ele>
        <time>2021-07-03T09:31:46.000Z</time>
      </trkpt>
      <trkpt lat="42.025858" lon="-2.753480">
        <ele>1898.4</ele>
        <time>2021-07-03T09:31:49.000Z</time>
      </trkpt>
      <trkpt lat="42.025858" lon="-2.753480">
        <ele>1898.6</ele>
        <time>2021-07-03T09:31:50.000Z</time>
      </trkpt>
      <trkpt lat="42.025862" lon="-2.753480">
        <ele>1901.5</ele>
        <time>2021-07-03T09:31:55.000Z</time>
      </trkpt>
      <trkpt lat="42.025940" lon="-2.753542">
        <ele>1899.3</ele>
        <time>2021-07-03T09:32:06.000Z</time>
      </trkpt>
      <trkpt lat="42.026022" lon="-2.753613">
        <ele>1901.5</ele>
        <time>2021-07-03T09:32:18.000Z</time>
      </trkpt>
      <trkpt lat="42.026108" lon="-2.753657">
        <ele>1902.2</ele>
        <time>2021-07-03T09:32:28.000Z</time>
      </trkpt>
      <trkpt lat="42.026107" lon="-2.753658">
        <ele>1902.3</ele>
        <time>2021-07-03T09:32:30.000Z</time>
      </trkpt>
      <trkpt lat="42.026108" lon="-2.753658">
        <ele>1902.4</ele>
        <time>2021-07-03T09:32:32.000Z</time>
      </trkpt>
      <trkpt lat="42.026197" lon="-2.753615">
        <ele>1903.6</ele>
        <time>2021-07-03T09:32:44.000Z</time>
      </trkpt>
      <trkpt lat="42.026222" lon="-2.753595">
        <ele>1904.4</ele>
        <time>2021-07-03T09:32:51.000Z</time>
      </trkpt>
      <trkpt lat="42.026223" lon="-2.753595">
        <ele>1904.4</ele>
        <time>2021-07-03T09:32:52.000Z</time>
      </trkpt>
      <trkpt lat="42.026223" lon="-2.753595">
        <ele>1904.5</ele>
        <time>2021-07-03T09:32:53.000Z</time>
      </trkpt>
      <trkpt lat="42.026228" lon="-2.753590">
        <ele>1904.3</ele>
        <time>2021-07-03T09:33:01.000Z</time>
      </trkpt>
      <trkpt lat="42.026307" lon="-2.753593">
        <ele>1906.9</ele>
        <time>2021-07-03T09:33:18.000Z</time>
      </trkpt>
      <trkpt lat="42.026308" lon="-2.753593">
        <ele>1907.0</ele>
        <time>2021-07-03T09:33:19.000Z</time>
      </trkpt>
      <trkpt lat="42.026308" lon="-2.753593">
        <ele>1906.9</ele>
        <time>2021-07-03T09:33:20.000Z</time>
      </trkpt>
      <trkpt lat="42.026313" lon="-2.753590">
        <ele>1906.6</ele>
        <time>2021-07-03T09:33:24.000Z</time>
      </trkpt>
      <trkpt lat="42.026330" lon="-2.753582">
        <ele>1908.2</ele>
        <time>2021-07-03T09:33:29.000Z</time>
      </trkpt>
      <trkpt lat="42.026333" lon="-2.753578">
        <ele>1908.5</ele>
        <time>2021-07-03T09:33:31.000Z</time>
      </trkpt>
      <trkpt lat="42.026370" lon="-2.753590">
        <ele>1909.1</ele>
        <time>2021-07-03T09:33:41.000Z</time>
      </trkpt>
      <trkpt lat="42.026372" lon="-2.753590">
        <ele>1909.1</ele>
        <time>2021-07-03T09:34:01.000Z</time>
      </trkpt>
      <trkpt lat="42.026432" lon="-2.753598">
        <ele>1910.2</ele>
        <time>2021-07-03T09:34:15.000Z</time>
      </trkpt>
      <trkpt lat="42.026433" lon="-2.753598">
        <ele>1910.5</ele>
        <time>2021-07-03T09:34:21.000Z</time>
      </trkpt>
      <trkpt lat="42.026432" lon="-2.753598">
        <ele>1910.7</ele>
        <time>2021-07-03T09:34:23.000Z</time>
      </trkpt>
      <trkpt lat="42.026435" lon="-2.753597">
        <ele>1911.8</ele>
        <time>2021-07-03T09:34:26.000Z</time>
      </trkpt>
      <trkpt lat="42.026518" lon="-2.753635">
        <ele>1914.9</ele>
        <time>2021-07-03T09:34:42.000Z</time>
      </trkpt>
      <trkpt lat="42.026522" lon="-2.753635">
        <ele>1915.1</ele>
        <time>2021-07-03T09:34:51.000Z</time>
      </trkpt>
      <trkpt lat="42.026557" lon="-2.753643">
        <ele>1916.2</ele>
        <time>2021-07-03T09:34:59.000Z</time>
      </trkpt>
      <trkpt lat="42.026560" lon="-2.753643">
        <ele>1916.3</ele>
        <time>2021-07-03T09:35:01.000Z</time>
      </trkpt>
      <trkpt lat="42.026602" lon="-2.753672">
        <ele>1916.9</ele>
        <time>2021-07-03T09:35:10.000Z</time>
      </trkpt>
      <trkpt lat="42.026600" lon="-2.753672">
        <ele>1916.8</ele>
        <time>2021-07-03T09:35:13.000Z</time>
      </trkpt>
      <trkpt lat="42.026600" lon="-2.753672">
        <ele>1916.8</ele>
        <time>2021-07-03T09:35:14.000Z</time>
      </trkpt>
      <trkpt lat="42.026602" lon="-2.753675">
        <ele>1917.3</ele>
        <time>2021-07-03T09:35:29.000Z</time>
      </trkpt>
      <trkpt lat="42.026610" lon="-2.753685">
        <ele>1917.2</ele>
        <time>2021-07-03T09:35:32.000Z</time>
      </trkpt>
      <trkpt lat="42.026613" lon="-2.753688">
        <ele>1917.3</ele>
        <time>2021-07-03T09:35:39.000Z</time>
      </trkpt>
      <trkpt lat="42.026690" lon="-2.753755">
        <ele>1919.4</ele>
        <time>2021-07-03T09:35:56.000Z</time>
      </trkpt>
      <trkpt lat="42.026733" lon="-2.753795">
        <ele>1920.8</ele>
        <time>2021-07-03T09:36:07.000Z</time>
      </trkpt>
      <trkpt lat="42.026733" lon="-2.753798">
        <ele>1921.4</ele>
        <time>2021-07-03T09:36:26.000Z</time>
      </trkpt>
      <trkpt lat="42.026763" lon="-2.753810">
        <ele>1921.9</ele>
        <time>2021-07-03T09:36:33.000Z</time>
      </trkpt>
      <trkpt lat="42.026770" lon="-2.753813">
        <ele>1922.3</ele>
        <time>2021-07-03T09:36:42.000Z</time>
      </trkpt>
      <trkpt lat="42.026860" lon="-2.753835">
        <ele>1923.9</ele>
        <time>2021-07-03T09:36:56.000Z</time>
      </trkpt>
      <trkpt lat="42.026905" lon="-2.753820">
        <ele>1925.3</ele>
        <time>2021-07-03T09:37:08.000Z</time>
      </trkpt>
      <trkpt lat="42.026907" lon="-2.753818">
        <ele>1925.7</ele>
        <time>2021-07-03T09:37:14.000Z</time>
      </trkpt>
      <trkpt lat="42.026912" lon="-2.753822">
        <ele>1926.0</ele>
        <time>2021-07-03T09:37:18.000Z</time>
      </trkpt>
      <trkpt lat="42.026913" lon="-2.753823">
        <ele>1925.7</ele>
        <time>2021-07-03T09:37:21.000Z</time>
      </trkpt>
      <trkpt lat="42.026913" lon="-2.753823">
        <ele>1926.0</ele>
        <time>2021-07-03T09:37:22.000Z</time>
      </trkpt>
      <trkpt lat="42.026912" lon="-2.753822">
        <ele>1925.9</ele>
        <time>2021-07-03T09:37:24.000Z</time>
      </trkpt>
      <trkpt lat="42.026935" lon="-2.753868">
        <ele>1927.0</ele>
        <time>2021-07-03T09:37:36.000Z</time>
      </trkpt>
      <trkpt lat="42.026937" lon="-2.753875">
        <ele>1927.2</ele>
        <time>2021-07-03T09:37:37.000Z</time>
      </trkpt>
      <trkpt lat="42.026988" lon="-2.753958">
        <ele>1929.4</ele>
        <time>2021-07-03T09:37:51.000Z</time>
      </trkpt>
      <trkpt lat="42.026990" lon="-2.753962">
        <ele>1930.1</ele>
        <time>2021-07-03T09:37:59.000Z</time>
      </trkpt>
      <trkpt lat="42.027057" lon="-2.754058">
        <ele>1930.8</ele>
        <time>2021-07-03T09:38:11.000Z</time>
      </trkpt>
      <trkpt lat="42.027122" lon="-2.754147">
        <ele>1932.8</ele>
        <time>2021-07-03T09:38:23.000Z</time>
      </trkpt>
      <trkpt lat="42.027150" lon="-2.754183">
        <ele>1933.6</ele>
        <time>2021-07-03T09:38:30.000Z</time>
      </trkpt>
      <trkpt lat="42.027153" lon="-2.754192">
        <ele>1933.9</ele>
        <time>2021-07-03T09:38:35.000Z</time>
      </trkpt>
      <trkpt lat="42.027192" lon="-2.754307">
        <ele>1935.2</ele>
        <time>2021-07-03T09:38:47.000Z</time>
      </trkpt>
      <trkpt lat="42.027193" lon="-2.754310">
        <ele>1935.9</ele>
        <time>2021-07-03T09:38:49.000Z</time>
      </trkpt>
      <trkpt lat="42.027195" lon="-2.754315">
        <ele>1936.0</ele>
        <time>2021-07-03T09:38:55.000Z</time>
      </trkpt>
      <trkpt lat="42.027167" lon="-2.754432">
        <ele>1936.6</ele>
        <time>2021-07-03T09:39:06.000Z</time>
      </trkpt>
      <trkpt lat="42.027163" lon="-2.754555">
        <ele>1937.5</ele>
        <time>2021-07-03T09:39:16.000Z</time>
      </trkpt>
      <trkpt lat="42.027160" lon="-2.754683">
        <ele>1939.7</ele>
        <time>2021-07-03T09:39:30.000Z</time>
      </trkpt>
      <trkpt lat="42.027143" lon="-2.754740">
        <ele>1940.8</ele>
        <time>2021-07-03T09:39:39.000Z</time>
      </trkpt>
      <trkpt lat="42.027142" lon="-2.754742">
        <ele>1940.9</ele>
        <time>2021-07-03T09:39:42.000Z</time>
      </trkpt>
      <trkpt lat="42.027092" lon="-2.754852">
        <ele>1943.0</ele>
        <time>2021-07-03T09:39:56.000Z</time>
      </trkpt>
      <trkpt lat="42.027078" lon="-2.754972">
        <ele>1943.8</ele>
        <time>2021-07-03T09:40:08.000Z</time>
      </trkpt>
      <trkpt lat="42.027083" lon="-2.755012">
        <ele>1945.4</ele>
        <time>2021-07-03T09:40:13.000Z</time>
      </trkpt>
      <trkpt lat="42.027085" lon="-2.755018">
        <ele>1945.6</ele>
        <time>2021-07-03T09:40:15.000Z</time>
      </trkpt>
      <trkpt lat="42.027085" lon="-2.755017">
        <ele>1945.5</ele>
        <time>2021-07-03T09:40:16.000Z</time>
      </trkpt>
      <trkpt lat="42.027085" lon="-2.755023">
        <ele>1945.2</ele>
        <time>2021-07-03T09:40:35.000Z</time>
      </trkpt>
      <trkpt lat="42.027112" lon="-2.755108">
        <ele>1946.8</ele>
        <time>2021-07-03T09:40:51.000Z</time>
      </trkpt>
      <trkpt lat="42.027113" lon="-2.755110">
        <ele>1947.0</ele>
        <time>2021-07-03T09:40:52.000Z</time>
      </trkpt>
      <trkpt lat="42.027130" lon="-2.755230">
        <ele>1949.0</ele>
        <time>2021-07-03T09:41:05.000Z</time>
      </trkpt>
      <trkpt lat="42.027125" lon="-2.755357">
        <ele>1949.5</ele>
        <time>2021-07-03T09:41:17.000Z</time>
      </trkpt>
      <trkpt lat="42.027117" lon="-2.755478">
        <ele>1949.5</ele>
        <time>2021-07-03T09:41:30.000Z</time>
      </trkpt>
      <trkpt lat="42.027103" lon="-2.755542">
        <ele>1950.1</ele>
        <time>2021-07-03T09:41:39.000Z</time>
      </trkpt>
      <trkpt lat="42.027105" lon="-2.755543">
        <ele>1950.1</ele>
        <time>2021-07-03T09:41:41.000Z</time>
      </trkpt>
      <trkpt lat="42.027105" lon="-2.755543">
        <ele>1949.9</ele>
        <time>2021-07-03T09:41:42.000Z</time>
      </trkpt>
      <trkpt lat="42.027102" lon="-2.755550">
        <ele>1949.8</ele>
        <time>2021-07-03T09:41:51.000Z</time>
      </trkpt>
      <trkpt lat="42.027057" lon="-2.755587">
        <ele>1950.4</ele>
        <time>2021-07-03T09:42:00.000Z</time>
      </trkpt>
      <trkpt lat="42.027060" lon="-2.755588">
        <ele>1950.4</ele>
        <time>2021-07-03T09:42:02.000Z</time>
      </trkpt>
      <trkpt lat="42.027068" lon="-2.755605">
        <ele>1950.5</ele>
        <time>2021-07-03T09:42:07.000Z</time>
      </trkpt>
      <trkpt lat="42.027070" lon="-2.755613">
        <ele>1951.0</ele>
        <time>2021-07-03T09:42:11.000Z</time>
      </trkpt>
      <trkpt lat="42.027075" lon="-2.755630">
        <ele>1951.2</ele>
        <time>2021-07-03T09:42:14.000Z</time>
      </trkpt>
      <trkpt lat="42.027077" lon="-2.755635">
        <ele>1951.1</ele>
        <time>2021-07-03T09:42:16.000Z</time>
      </trkpt>
      <trkpt lat="42.027077" lon="-2.755655">
        <ele>1953.1</ele>
        <time>2021-07-03T09:42:22.000Z</time>
      </trkpt>
      <trkpt lat="42.027075" lon="-2.755655">
        <ele>1951.2</ele>
        <time>2021-07-03T09:43:31.000Z</time>
      </trkpt>
      <trkpt lat="42.027075" lon="-2.755655">
        <ele>1951.2</ele>
        <time>2021-07-03T09:43:32.000Z</time>
      </trkpt>
      <trkpt lat="42.027077" lon="-2.755657">
        <ele>1950.1</ele>
        <time>2021-07-03T09:44:56.000Z</time>
      </trkpt>
      <trkpt lat="42.027077" lon="-2.755657">
        <ele>1950.2</ele>
        <time>2021-07-03T09:44:57.000Z</time>
      </trkpt>
      <trkpt lat="42.027078" lon="-2.755657">
        <ele>1949.2</ele>
        <time>2021-07-03T09:45:22.000Z</time>
      </trkpt>
      <trkpt lat="42.027122" lon="-2.755697">
        <ele>1951.0</ele>
        <time>2021-07-03T09:45:35.000Z</time>
      </trkpt>
      <trkpt lat="42.027125" lon="-2.755700">
        <ele>1950.8</ele>
        <time>2021-07-03T09:45:39.000Z</time>
      </trkpt>
      <trkpt lat="42.027192" lon="-2.755793">
        <ele>1953.4</ele>
        <time>2021-07-03T09:45:56.000Z</time>
      </trkpt>
      <trkpt lat="42.027210" lon="-2.755822">
        <ele>1954.4</ele>
        <time>2021-07-03T09:46:04.000Z</time>
      </trkpt>
      <trkpt lat="42.027212" lon="-2.755823">
        <ele>1954.8</ele>
        <time>2021-07-03T09:46:12.000Z</time>
      </trkpt>
      <trkpt lat="42.027217" lon="-2.755835">
        <ele>1954.9</ele>
        <time>2021-07-03T09:46:16.000Z</time>
      </trkpt>
      <trkpt lat="42.027218" lon="-2.755843">
        <ele>1955.2</ele>
        <time>2021-07-03T09:46:31.000Z</time>
      </trkpt>
      <trkpt lat="42.027273" lon="-2.755942">
        <ele>1957.1</ele>
        <time>2021-07-03T09:46:46.000Z</time>
      </trkpt>
      <trkpt lat="42.027280" lon="-2.755953">
        <ele>1957.6</ele>
        <time>2021-07-03T09:46:49.000Z</time>
      </trkpt>
      <trkpt lat="42.027282" lon="-2.755953">
        <ele>1958.1</ele>
        <time>2021-07-03T09:46:54.000Z</time>
      </trkpt>
      <trkpt lat="42.027293" lon="-2.755988">
        <ele>1958.4</ele>
        <time>2021-07-03T09:47:00.000Z</time>
      </trkpt>
      <trkpt lat="42.027297" lon="-2.755993">
        <ele>1958.6</ele>
        <time>2021-07-03T09:47:07.000Z</time>
      </trkpt>
      <trkpt lat="42.027282" lon="-2.756107">
        <ele>1960.8</ele>
        <time>2021-07-03T09:47:21.000Z</time>
      </trkpt>
      <trkpt lat="42.027282" lon="-2.756112">
        <ele>1960.9</ele>
        <time>2021-07-03T09:47:26.000Z</time>
      </trkpt>
      <trkpt lat="42.027278" lon="-2.756125">
        <ele>1961.3</ele>
        <time>2021-07-03T09:47:29.000Z</time>
      </trkpt>
      <trkpt lat="42.027278" lon="-2.756130">
        <ele>1961.4</ele>
        <time>2021-07-03T09:47:44.000Z</time>
      </trkpt>
      <trkpt lat="42.027272" lon="-2.756165">
        <ele>1962.5</ele>
        <time>2021-07-03T09:47:51.000Z</time>
      </trkpt>
      <trkpt lat="42.027273" lon="-2.756163">
        <ele>1979.2</ele>
        <time>2021-07-03T09:47:59.000Z</time>
      </trkpt>
      <trkpt lat="42.027273" lon="-2.756163">
        <ele>1973.5</ele>
        <time>2021-07-03T09:48:00.000Z</time>
      </trkpt>
      <trkpt lat="42.027272" lon="-2.756163">
        <ele>1959.9</ele>
        <time>2021-07-03T09:48:10.000Z</time>
      </trkpt>
      <trkpt lat="42.027272" lon="-2.756163">
        <ele>1960.0</ele>
        <time>2021-07-03T09:48:11.000Z</time>
      </trkpt>
      <trkpt lat="42.027270" lon="-2.756165">
        <ele>1960.7</ele>
        <time>2021-07-03T09:48:29.000Z</time>
      </trkpt>
      <trkpt lat="42.027270" lon="-2.756165">
        <ele>1960.8</ele>
        <time>2021-07-03T09:48:30.000Z</time>
      </trkpt>
      <trkpt lat="42.027267" lon="-2.756170">
        <ele>1955.2</ele>
        <time>2021-07-03T09:48:54.000Z</time>
      </trkpt>
      <trkpt lat="42.027263" lon="-2.756177">
        <ele>1957.3</ele>
        <time>2021-07-03T09:48:57.000Z</time>
      </trkpt>
      <trkpt lat="42.027262" lon="-2.756175">
        <ele>1961.3</ele>
        <time>2021-07-03T09:50:26.000Z</time>
      </trkpt>
      <trkpt lat="42.027262" lon="-2.756175">
        <ele>1961.4</ele>
        <time>2021-07-03T09:50:27.000Z</time>
      </trkpt>
      <trkpt lat="42.027263" lon="-2.756173">
        <ele>1962.5</ele>
        <time>2021-07-03T09:50:31.000Z</time>
      </trkpt>
      <trkpt lat="42.027268" lon="-2.756168">
        <ele>1962.3</ele>
        <time>2021-07-03T09:50:34.000Z</time>
      </trkpt>
      <trkpt lat="42.027267" lon="-2.756168">
        <ele>1961.1</ele>
        <time>2021-07-03T09:51:29.000Z</time>
      </trkpt>
      <trkpt lat="42.027267" lon="-2.756168">
        <ele>1961.0</ele>
        <time>2021-07-03T09:51:30.000Z</time>
      </trkpt>
      <trkpt lat="42.027265" lon="-2.756167">
        <ele>1960.9</ele>
        <time>2021-07-03T09:51:54.000Z</time>
      </trkpt>
      <trkpt lat="42.027265" lon="-2.756167">
        <ele>1960.7</ele>
        <time>2021-07-03T09:51:55.000Z</time>
      </trkpt>
      <trkpt lat="42.027263" lon="-2.756167">
        <ele>1959.4</ele>
        <time>2021-07-03T09:54:08.000Z</time>
      </trkpt>
      <trkpt lat="42.027263" lon="-2.756167">
        <ele>1959.0</ele>
        <time>2021-07-03T09:54:09.000Z</time>
      </trkpt>
      <trkpt lat="42.027265" lon="-2.756163">
        <ele>1960.8</ele>
        <time>2021-07-03T09:55:00.000Z</time>
      </trkpt>
      <trkpt lat="42.027267" lon="-2.756163">
        <ele>1960.7</ele>
        <time>2021-07-03T09:55:02.000Z</time>
      </trkpt>
      <trkpt lat="42.027263" lon="-2.756162">
        <ele>1960.3</ele>
        <time>2021-07-03T09:55:21.000Z</time>
      </trkpt>
      <trkpt lat="42.027260" lon="-2.756158">
        <ele>1960.4</ele>
        <time>2021-07-03T09:55:23.000Z</time>
      </trkpt>
      <trkpt lat="42.027258" lon="-2.756162">
        <ele>1960.0</ele>
        <time>2021-07-03T09:55:52.000Z</time>
      </trkpt>
      <trkpt lat="42.027252" lon="-2.756172">
        <ele>1960.1</ele>
        <time>2021-07-03T09:55:56.000Z</time>
      </trkpt>
      <trkpt lat="42.027245" lon="-2.756172">
        <ele>1959.9</ele>
        <time>2021-07-03T09:56:34.000Z</time>
      </trkpt>
      <trkpt lat="42.027150" lon="-2.756163">
        <ele>1959.3</ele>
        <time>2021-07-03T09:56:40.000Z</time>
      </trkpt>
      <trkpt lat="42.027055" lon="-2.756160">
        <ele>1959.1</ele>
        <time>2021-07-03T09:56:45.000Z</time>
      </trkpt>
      <trkpt lat="42.026960" lon="-2.756163">
        <ele>1957.9</ele>
        <time>2021-07-03T09:56:49.000Z</time>
      </trkpt>
      <trkpt lat="42.026942" lon="-2.756157">
        <ele>1957.4</ele>
        <time>2021-07-03T09:56:52.000Z</time>
      </trkpt>
      <trkpt lat="42.026940" lon="-2.756155">
        <ele>1960.4</ele>
        <time>2021-07-03T09:57:16.000Z</time>
      </trkpt>
      <trkpt lat="42.026940" lon="-2.756157">
        <ele>1960.4</ele>
        <time>2021-07-03T09:57:17.000Z</time>
      </trkpt>
      <trkpt lat="42.026933" lon="-2.756157">
        <ele>1959.1</ele>
        <time>2021-07-03T09:57:18.000Z</time>
      </trkpt>
      <trkpt lat="42.026828" lon="-2.756157">
        <ele>1956.7</ele>
        <time>2021-07-03T09:57:24.000Z</time>
      </trkpt>
      <trkpt lat="42.026728" lon="-2.756113">
        <ele>1958.0</ele>
        <time>2021-07-03T09:57:29.000Z</time>
      </trkpt>
      <trkpt lat="42.026622" lon="-2.756047">
        <ele>1956.9</ele>
        <time>2021-07-03T09:57:33.000Z</time>
      </trkpt>
      <trkpt lat="42.026518" lon="-2.756007">
        <ele>1956.5</ele>
        <time>2021-07-03T09:57:37.000Z</time>
      </trkpt>
      <trkpt lat="42.026425" lon="-2.755997">
        <ele>1956.0</ele>
        <time>2021-07-03T09:57:40.000Z</time>
      </trkpt>
      <trkpt lat="42.026325" lon="-2.755983">
        <ele>1955.2</ele>
        <time>2021-07-03T09:57:43.000Z</time>
      </trkpt>
      <trkpt lat="42.026228" lon="-2.755980">
        <ele>1957.1</ele>
        <time>2021-07-03T09:57:48.000Z</time>
      </trkpt>
      <trkpt lat="42.026133" lon="-2.755932">
        <ele>1957.3</ele>
        <time>2021-07-03T09:57:55.000Z</time>
      </trkpt>
      <trkpt lat="42.026040" lon="-2.755903">
        <ele>1956.1</ele>
        <time>2021-07-03T09:58:00.000Z</time>
      </trkpt>
      <trkpt lat="42.025947" lon="-2.755895">
        <ele>1957.5</ele>
        <time>2021-07-03T09:58:04.000Z</time>
      </trkpt>
      <trkpt lat="42.025840" lon="-2.755878">
        <ele>1956.7</ele>
        <time>2021-07-03T09:58:08.000Z</time>
      </trkpt>
      <trkpt lat="42.025747" lon="-2.755888">
        <ele>1956.8</ele>
        <time>2021-07-03T09:58:12.000Z</time>
      </trkpt>
      <trkpt lat="42.025652" lon="-2.755892">
        <ele>1957.0</ele>
        <time>2021-07-03T09:58:16.000Z</time>
      </trkpt>
      <trkpt lat="42.025553" lon="-2.755895">
        <ele>1957.7</ele>
        <time>2021-07-03T09:58:21.000Z</time>
      </trkpt>
      <trkpt lat="42.025460" lon="-2.755888">
        <ele>1958.4</ele>
        <time>2021-07-03T09:58:29.000Z</time>
      </trkpt>
      <trkpt lat="42.025375" lon="-2.755833">
        <ele>1960.5</ele>
        <time>2021-07-03T09:58:38.000Z</time>
      </trkpt>
      <trkpt lat="42.025285" lon="-2.755793">
        <ele>1962.2</ele>
        <time>2021-07-03T09:58:47.000Z</time>
      </trkpt>
      <trkpt lat="42.025193" lon="-2.755773">
        <ele>1962.9</ele>
        <time>2021-07-03T09:58:55.000Z</time>
      </trkpt>
      <trkpt lat="42.025095" lon="-2.755762">
        <ele>1964.2</ele>
        <time>2021-07-03T09:59:03.000Z</time>
      </trkpt>
      <trkpt lat="42.025063" lon="-2.755753">
        <ele>1964.8</ele>
        <time>2021-07-03T09:59:08.000Z</time>
      </trkpt>
      <trkpt lat="42.025060" lon="-2.755752">
        <ele>1964.9</ele>
        <time>2021-07-03T09:59:21.000Z</time>
      </trkpt>
      <trkpt lat="42.025050" lon="-2.755750">
        <ele>1965.0</ele>
        <time>2021-07-03T09:59:24.000Z</time>
      </trkpt>
      <trkpt lat="42.025048" lon="-2.755750">
        <ele>1965.2</ele>
        <time>2021-07-03T09:59:25.000Z</time>
      </trkpt>
      <trkpt lat="42.025048" lon="-2.755750">
        <ele>1965.1</ele>
        <time>2021-07-03T09:59:26.000Z</time>
      </trkpt>
      <trkpt lat="42.025045" lon="-2.755752">
        <ele>1964.8</ele>
        <time>2021-07-03T09:59:30.000Z</time>
      </trkpt>
      <trkpt lat="42.025045" lon="-2.755752">
        <ele>1964.9</ele>
        <time>2021-07-03T09:59:31.000Z</time>
      </trkpt>
      <trkpt lat="42.025040" lon="-2.755752">
        <ele>1964.9</ele>
        <time>2021-07-03T09:59:37.000Z</time>
      </trkpt>
      <trkpt lat="42.024945" lon="-2.755762">
        <ele>1965.5</ele>
        <time>2021-07-03T09:59:48.000Z</time>
      </trkpt>
      <trkpt lat="42.024850" lon="-2.755755">
        <ele>1966.3</ele>
        <time>2021-07-03T09:59:58.000Z</time>
      </trkpt>
      <trkpt lat="42.024763" lon="-2.755692">
        <ele>1968.5</ele>
        <time>2021-07-03T10:00:05.000Z</time>
      </trkpt>
      <trkpt lat="42.024667" lon="-2.755665">
        <ele>1968.7</ele>
        <time>2021-07-03T10:00:12.000Z</time>
      </trkpt>
      <trkpt lat="42.024572" lon="-2.755675">
        <ele>1969.5</ele>
        <time>2021-07-03T10:00:19.000Z</time>
      </trkpt>
      <trkpt lat="42.024475" lon="-2.755718">
        <ele>1968.4</ele>
        <time>2021-07-03T10:00:26.000Z</time>
      </trkpt>
      <trkpt lat="42.024367" lon="-2.755705">
        <ele>1967.9</ele>
        <time>2021-07-03T10:00:30.000Z</time>
      </trkpt>
      <trkpt lat="42.024277" lon="-2.755687">
        <ele>1967.4</ele>
        <time>2021-07-03T10:00:33.000Z</time>
      </trkpt>
      <trkpt lat="42.024177" lon="-2.755678">
        <ele>1968.8</ele>
        <time>2021-07-03T10:00:38.000Z</time>
      </trkpt>
      <trkpt lat="42.024078" lon="-2.755638">
        <ele>1968.6</ele>
        <time>2021-07-03T10:00:43.000Z</time>
      </trkpt>
      <trkpt lat="42.023978" lon="-2.755593">
        <ele>1969.7</ele>
        <time>2021-07-03T10:00:48.000Z</time>
      </trkpt>
      <trkpt lat="42.023872" lon="-2.755537">
        <ele>1968.9</ele>
        <time>2021-07-03T10:00:53.000Z</time>
      </trkpt>
      <trkpt lat="42.023780" lon="-2.755523">
        <ele>1968.5</ele>
        <time>2021-07-03T10:00:57.000Z</time>
      </trkpt>
      <trkpt lat="42.023692" lon="-2.755562">
        <ele>1969.6</ele>
        <time>2021-07-03T10:01:02.000Z</time>
      </trkpt>
      <trkpt lat="42.023595" lon="-2.755555">
        <ele>1970.4</ele>
        <time>2021-07-03T10:01:07.000Z</time>
      </trkpt>
      <trkpt lat="42.023492" lon="-2.755513">
        <ele>1968.2</ele>
        <time>2021-07-03T10:01:12.000Z</time>
      </trkpt>
      <trkpt lat="42.023395" lon="-2.755470">
        <ele>1967.9</ele>
        <time>2021-07-03T10:01:18.000Z</time>
      </trkpt>
      <trkpt lat="42.023307" lon="-2.755412">
        <ele>1967.9</ele>
        <time>2021-07-03T10:01:23.000Z</time>
      </trkpt>
      <trkpt lat="42.023300" lon="-2.755407">
        <ele>1967.1</ele>
        <time>2021-07-03T10:01:25.000Z</time>
      </trkpt>
      <trkpt lat="42.023302" lon="-2.755407">
        <ele>1966.0</ele>
        <time>2021-07-03T10:01:44.000Z</time>
      </trkpt>
      <trkpt lat="42.023302" lon="-2.755407">
        <ele>1966.1</ele>
        <time>2021-07-03T10:01:45.000Z</time>
      </trkpt>
      <trkpt lat="42.023303" lon="-2.755408">
        <ele>1966.5</ele>
        <time>2021-07-03T10:02:00.000Z</time>
      </trkpt>
      <trkpt lat="42.023383" lon="-2.755470">
        <ele>1967.2</ele>
        <time>2021-07-03T10:02:12.000Z</time>
      </trkpt>
      <trkpt lat="42.023470" lon="-2.755513">
        <ele>1967.7</ele>
        <time>2021-07-03T10:02:22.000Z</time>
      </trkpt>
      <trkpt lat="42.023400" lon="-2.755592">
        <ele>1968.4</ele>
        <time>2021-07-03T10:02:33.000Z</time>
      </trkpt>
      <trkpt lat="42.023362" lon="-2.755652">
        <ele>1969.3</ele>
        <time>2021-07-03T10:02:42.000Z</time>
      </trkpt>
      <trkpt lat="42.023358" lon="-2.755653">
        <ele>1969.4</ele>
        <time>2021-07-03T10:02:49.000Z</time>
      </trkpt>
      <trkpt lat="42.023267" lon="-2.755673">
        <ele>1969.0</ele>
        <time>2021-07-03T10:03:03.000Z</time>
      </trkpt>
      <trkpt lat="42.023227" lon="-2.755687">
        <ele>1968.6</ele>
        <time>2021-07-03T10:03:10.000Z</time>
      </trkpt>
      <trkpt lat="42.023225" lon="-2.755685">
        <ele>1969.2</ele>
        <time>2021-07-03T10:03:13.000Z</time>
      </trkpt>
      <trkpt lat="42.023137" lon="-2.755658">
        <ele>1968.1</ele>
        <time>2021-07-03T10:03:22.000Z</time>
      </trkpt>
      <trkpt lat="42.023047" lon="-2.755648">
        <ele>1967.2</ele>
        <time>2021-07-03T10:03:31.000Z</time>
      </trkpt>
      <trkpt lat="42.022992" lon="-2.755757">
        <ele>1966.7</ele>
        <time>2021-07-03T10:03:41.000Z</time>
      </trkpt>
      <trkpt lat="42.022908" lon="-2.755805">
        <ele>1965.2</ele>
        <time>2021-07-03T10:03:49.000Z</time>
      </trkpt>
      <trkpt lat="42.022812" lon="-2.755852">
        <ele>1964.4</ele>
        <time>2021-07-03T10:04:00.000Z</time>
      </trkpt>
      <trkpt lat="42.022712" lon="-2.755898">
        <ele>1962.5</ele>
        <time>2021-07-03T10:04:06.000Z</time>
      </trkpt>
      <trkpt lat="42.022605" lon="-2.755895">
        <ele>1960.6</ele>
        <time>2021-07-03T10:04:11.000Z</time>
      </trkpt>
      <trkpt lat="42.022515" lon="-2.755853">
        <ele>1958.9</ele>
        <time>2021-07-03T10:04:16.000Z</time>
      </trkpt>
      <trkpt lat="42.022413" lon="-2.755885">
        <ele>1955.4</ele>
        <time>2021-07-03T10:04:22.000Z</time>
      </trkpt>
      <trkpt lat="42.022360" lon="-2.756010">
        <ele>1955.1</ele>
        <time>2021-07-03T10:04:27.000Z</time>
      </trkpt>
      <trkpt lat="42.022293" lon="-2.756093">
        <ele>1954.2</ele>
        <time>2021-07-03T10:04:31.000Z</time>
      </trkpt>
      <trkpt lat="42.022213" lon="-2.756167">
        <ele>1951.8</ele>
        <time>2021-07-03T10:04:36.000Z</time>
      </trkpt>
      <trkpt lat="42.022178" lon="-2.756303">
        <ele>1949.3</ele>
        <time>2021-07-03T10:04:41.000Z</time>
      </trkpt>
      <trkpt lat="42.022207" lon="-2.756422">
        <ele>1949.1</ele>
        <time>2021-07-03T10:04:45.000Z</time>
      </trkpt>
      <trkpt lat="42.022232" lon="-2.756552">
        <ele>1948.8</ele>
        <time>2021-07-03T10:04:49.000Z</time>
      </trkpt>
      <trkpt lat="42.022270" lon="-2.756682">
        <ele>1948.3</ele>
        <time>2021-07-03T10:04:54.000Z</time>
      </trkpt>
      <trkpt lat="42.022297" lon="-2.756733">
        <ele>1947.5</ele>
        <time>2021-07-03T10:04:59.000Z</time>
      </trkpt>
      <trkpt lat="42.022298" lon="-2.756733">
        <ele>1948.0</ele>
        <time>2021-07-03T10:05:08.000Z</time>
      </trkpt>
      <trkpt lat="42.022373" lon="-2.756813">
        <ele>1947.9</ele>
        <time>2021-07-03T10:05:17.000Z</time>
      </trkpt>
      <trkpt lat="42.022432" lon="-2.756922">
        <ele>1947.9</ele>
        <time>2021-07-03T10:05:24.000Z</time>
      </trkpt>
      <trkpt lat="42.022455" lon="-2.757052">
        <ele>1946.2</ele>
        <time>2021-07-03T10:05:30.000Z</time>
      </trkpt>
      <trkpt lat="42.022403" lon="-2.757190">
        <ele>1944.2</ele>
        <time>2021-07-03T10:05:35.000Z</time>
      </trkpt>
      <trkpt lat="42.022362" lon="-2.757318">
        <ele>1942.4</ele>
        <time>2021-07-03T10:05:39.000Z</time>
      </trkpt>
      <trkpt lat="42.022352" lon="-2.757455">
        <ele>1939.7</ele>
        <time>2021-07-03T10:05:43.000Z</time>
      </trkpt>
      <trkpt lat="42.022370" lon="-2.757592">
        <ele>1938.5</ele>
        <time>2021-07-03T10:05:47.000Z</time>
      </trkpt>
      <trkpt lat="42.022375" lon="-2.757722">
        <ele>1937.4</ele>
        <time>2021-07-03T10:05:51.000Z</time>
      </trkpt>
      <trkpt lat="42.022387" lon="-2.757865">
        <ele>1935.6</ele>
        <time>2021-07-03T10:05:55.000Z</time>
      </trkpt>
      <trkpt lat="42.022467" lon="-2.757965">
        <ele>1935.1</ele>
        <time>2021-07-03T10:06:00.000Z</time>
      </trkpt>
      <trkpt lat="42.022528" lon="-2.758057">
        <ele>1932.6</ele>
        <time>2021-07-03T10:06:04.000Z</time>
      </trkpt>
      <trkpt lat="42.022530" lon="-2.758213">
        <ele>1931.7</ele>
        <time>2021-07-03T10:06:08.000Z</time>
      </trkpt>
      <trkpt lat="42.022503" lon="-2.758295">
        <ele>1929.8</ele>
        <time>2021-07-03T10:06:14.000Z</time>
      </trkpt>
      <trkpt lat="42.022505" lon="-2.758300">
        <ele>1928.2</ele>
        <time>2021-07-03T10:06:45.000Z</time>
      </trkpt>
      <trkpt lat="42.022505" lon="-2.758300">
        <ele>1928.2</ele>
        <time>2021-07-03T10:06:46.000Z</time>
      </trkpt>
      <trkpt lat="42.022503" lon="-2.758303">
        <ele>1928.1</ele>
        <time>2021-07-03T10:06:51.000Z</time>
      </trkpt>
      <trkpt lat="42.022503" lon="-2.758303">
        <ele>1928.1</ele>
        <time>2021-07-03T10:06:52.000Z</time>
      </trkpt>
      <trkpt lat="42.022505" lon="-2.758302">
        <ele>1928.0</ele>
        <time>2021-07-03T10:06:54.000Z</time>
      </trkpt>
      <trkpt lat="42.022505" lon="-2.758302">
        <ele>1928.0</ele>
        <time>2021-07-03T10:06:55.000Z</time>
      </trkpt>
      <trkpt lat="42.022507" lon="-2.758302">
        <ele>1927.9</ele>
        <time>2021-07-03T10:07:07.000Z</time>
      </trkpt>
      <trkpt lat="42.022507" lon="-2.758302">
        <ele>1927.9</ele>
        <time>2021-07-03T10:07:08.000Z</time>
      </trkpt>
      <trkpt lat="42.022508" lon="-2.758300">
        <ele>1928.3</ele>
        <time>2021-07-03T10:07:11.000Z</time>
      </trkpt>
      <trkpt lat="42.022508" lon="-2.758302">
        <ele>1928.2</ele>
        <time>2021-07-03T10:07:12.000Z</time>
      </trkpt>
      <trkpt lat="42.022507" lon="-2.758300">
        <ele>1927.7</ele>
        <time>2021-07-03T10:07:18.000Z</time>
      </trkpt>
      <trkpt lat="42.022507" lon="-2.758298">
        <ele>1927.7</ele>
        <time>2021-07-03T10:07:19.000Z</time>
      </trkpt>
      <trkpt lat="42.022500" lon="-2.758300">
        <ele>1927.9</ele>
        <time>2021-07-03T10:07:20.000Z</time>
      </trkpt>
      <trkpt lat="42.022478" lon="-2.758300">
        <ele>1927.2</ele>
        <time>2021-07-03T10:07:31.000Z</time>
      </trkpt>
      <trkpt lat="42.022477" lon="-2.758300">
        <ele>1927.0</ele>
        <time>2021-07-03T10:07:32.000Z</time>
      </trkpt>
      <trkpt lat="42.022477" lon="-2.758300">
        <ele>1927.2</ele>
        <time>2021-07-03T10:07:33.000Z</time>
      </trkpt>
      <trkpt lat="42.022478" lon="-2.758298">
        <ele>1927.1</ele>
        <time>2021-07-03T10:08:05.000Z</time>
      </trkpt>
      <trkpt lat="42.022478" lon="-2.758298">
        <ele>1927.1</ele>
        <time>2021-07-03T10:08:06.000Z</time>
      </trkpt>
      <trkpt lat="42.022477" lon="-2.758300">
        <ele>1926.9</ele>
        <time>2021-07-03T10:08:11.000Z</time>
      </trkpt>
      <trkpt lat="42.022477" lon="-2.758443">
        <ele>1925.8</ele>
        <time>2021-07-03T10:08:19.000Z</time>
      </trkpt>
      <trkpt lat="42.022445" lon="-2.758567">
        <ele>1922.7</ele>
        <time>2021-07-03T10:08:23.000Z</time>
      </trkpt>
      <trkpt lat="42.022425" lon="-2.758703">
        <ele>1919.6</ele>
        <time>2021-07-03T10:08:27.000Z</time>
      </trkpt>
      <trkpt lat="42.022418" lon="-2.758838">
        <ele>1917.6</ele>
        <time>2021-07-03T10:08:32.000Z</time>
      </trkpt>
      <trkpt lat="42.022393" lon="-2.758978">
        <ele>1913.5</ele>
        <time>2021-07-03T10:08:38.000Z</time>
      </trkpt>
      <trkpt lat="42.022360" lon="-2.759093">
        <ele>1911.9</ele>
        <time>2021-07-03T10:08:44.000Z</time>
      </trkpt>
      <trkpt lat="42.022320" lon="-2.759225">
        <ele>1908.6</ele>
        <time>2021-07-03T10:08:49.000Z</time>
      </trkpt>
      <trkpt lat="42.022260" lon="-2.759328">
        <ele>1905.4</ele>
        <time>2021-07-03T10:08:53.000Z</time>
      </trkpt>
      <trkpt lat="42.022188" lon="-2.759425">
        <ele>1904.4</ele>
        <time>2021-07-03T10:09:00.000Z</time>
      </trkpt>
      <trkpt lat="42.022098" lon="-2.759498">
        <ele>1901.5</ele>
        <time>2021-07-03T10:09:05.000Z</time>
      </trkpt>
      <trkpt lat="42.022033" lon="-2.759602">
        <ele>1900.1</ele>
        <time>2021-07-03T10:09:09.000Z</time>
      </trkpt>
      <trkpt lat="42.021987" lon="-2.759732">
        <ele>1898.2</ele>
        <time>2021-07-03T10:09:13.000Z</time>
      </trkpt>
      <trkpt lat="42.021952" lon="-2.759878">
        <ele>1896.5</ele>
        <time>2021-07-03T10:09:17.000Z</time>
      </trkpt>
      <trkpt lat="42.021927" lon="-2.760017">
        <ele>1895.9</ele>
        <time>2021-07-03T10:09:21.000Z</time>
      </trkpt>
      <trkpt lat="42.021927" lon="-2.760148">
        <ele>1891.9</ele>
        <time>2021-07-03T10:09:25.000Z</time>
      </trkpt>
      <trkpt lat="42.021928" lon="-2.760292">
        <ele>1889.8</ele>
        <time>2021-07-03T10:09:29.000Z</time>
      </trkpt>
      <trkpt lat="42.021885" lon="-2.760410">
        <ele>1886.8</ele>
        <time>2021-07-03T10:09:33.000Z</time>
      </trkpt>
      <trkpt lat="42.021835" lon="-2.760547">
        <ele>1884.6</ele>
        <time>2021-07-03T10:09:38.000Z</time>
      </trkpt>
      <trkpt lat="42.021818" lon="-2.760678">
        <ele>1881.4</ele>
        <time>2021-07-03T10:09:42.000Z</time>
      </trkpt>
      <trkpt lat="42.021798" lon="-2.760800">
        <ele>1879.9</ele>
        <time>2021-07-03T10:09:46.000Z</time>
      </trkpt>
      <trkpt lat="42.021795" lon="-2.760928">
        <ele>1877.9</ele>
        <time>2021-07-03T10:09:50.000Z</time>
      </trkpt>
      <trkpt lat="42.021777" lon="-2.761072">
        <ele>1876.0</ele>
        <time>2021-07-03T10:09:56.000Z</time>
      </trkpt>
      <trkpt lat="42.021765" lon="-2.761195">
        <ele>1873.0</ele>
        <time>2021-07-03T10:10:02.000Z</time>
      </trkpt>
      <trkpt lat="42.021765" lon="-2.761200">
        <ele>1872.8</ele>
        <time>2021-07-03T10:10:04.000Z</time>
      </trkpt>
      <trkpt lat="42.021767" lon="-2.761200">
        <ele>1872.5</ele>
        <time>2021-07-03T10:10:08.000Z</time>
      </trkpt>
      <trkpt lat="42.021767" lon="-2.761200">
        <ele>1872.2</ele>
        <time>2021-07-03T10:10:09.000Z</time>
      </trkpt>
      <trkpt lat="42.021768" lon="-2.761197">
        <ele>1872.4</ele>
        <time>2021-07-03T10:10:27.000Z</time>
      </trkpt>
      <trkpt lat="42.021768" lon="-2.761197">
        <ele>1872.3</ele>
        <time>2021-07-03T10:10:28.000Z</time>
      </trkpt>
      <trkpt lat="42.021767" lon="-2.761197">
        <ele>1872.5</ele>
        <time>2021-07-03T10:10:40.000Z</time>
      </trkpt>
      <trkpt lat="42.021767" lon="-2.761197">
        <ele>1872.3</ele>
        <time>2021-07-03T10:10:41.000Z</time>
      </trkpt>
      <trkpt lat="42.021765" lon="-2.761198">
        <ele>1871.6</ele>
        <time>2021-07-03T10:10:43.000Z</time>
      </trkpt>
      <trkpt lat="42.021768" lon="-2.761167">
        <ele>1872.8</ele>
        <time>2021-07-03T10:10:51.000Z</time>
      </trkpt>
      <trkpt lat="42.021770" lon="-2.761162">
        <ele>1871.6</ele>
        <time>2021-07-03T10:11:52.000Z</time>
      </trkpt>
      <trkpt lat="42.021770" lon="-2.761162">
        <ele>1871.6</ele>
        <time>2021-07-03T10:11:53.000Z</time>
      </trkpt>
      <trkpt lat="42.021772" lon="-2.761158">
        <ele>1870.4</ele>
        <time>2021-07-03T10:12:06.000Z</time>
      </trkpt>
      <trkpt lat="42.021773" lon="-2.761157">
        <ele>1871.1</ele>
        <time>2021-07-03T10:12:08.000Z</time>
      </trkpt>
      <trkpt lat="42.021772" lon="-2.761157">
        <ele>1872.0</ele>
        <time>2021-07-03T10:12:14.000Z</time>
      </trkpt>
      <trkpt lat="42.021775" lon="-2.761138">
        <ele>1872.2</ele>
        <time>2021-07-03T10:12:19.000Z</time>
      </trkpt>
      <trkpt lat="42.021777" lon="-2.761138">
        <ele>1871.6</ele>
        <time>2021-07-03T10:12:21.000Z</time>
      </trkpt>
      <trkpt lat="42.021777" lon="-2.761138">
        <ele>1871.5</ele>
        <time>2021-07-03T10:12:22.000Z</time>
      </trkpt>
      <trkpt lat="42.021778" lon="-2.761138">
        <ele>1871.9</ele>
        <time>2021-07-03T10:13:13.000Z</time>
      </trkpt>
      <trkpt lat="42.021778" lon="-2.761138">
        <ele>1871.8</ele>
        <time>2021-07-03T10:13:14.000Z</time>
      </trkpt>
      <trkpt lat="42.021780" lon="-2.761137">
        <ele>1872.1</ele>
        <time>2021-07-03T10:14:01.000Z</time>
      </trkpt>
      <trkpt lat="42.021780" lon="-2.761137">
        <ele>1871.6</ele>
        <time>2021-07-03T10:14:02.000Z</time>
      </trkpt>
      <trkpt lat="42.021782" lon="-2.761138">
        <ele>1870.6</ele>
        <time>2021-07-03T10:14:12.000Z</time>
      </trkpt>
      <trkpt lat="42.021782" lon="-2.761137">
        <ele>1870.8</ele>
        <time>2021-07-03T10:14:13.000Z</time>
      </trkpt>
      <trkpt lat="42.021778" lon="-2.761133">
        <ele>1871.6</ele>
        <time>2021-07-03T10:14:14.000Z</time>
      </trkpt>
      <trkpt lat="42.021777" lon="-2.761125">
        <ele>1873.1</ele>
        <time>2021-07-03T10:14:17.000Z</time>
      </trkpt>
      <trkpt lat="42.021778" lon="-2.761125">
        <ele>1871.4</ele>
        <time>2021-07-03T10:15:13.000Z</time>
      </trkpt>
      <trkpt lat="42.021778" lon="-2.761125">
        <ele>1871.5</ele>
        <time>2021-07-03T10:15:14.000Z</time>
      </trkpt>
      <trkpt lat="42.021780" lon="-2.761122">
        <ele>1870.9</ele>
        <time>2021-07-03T10:17:04.000Z</time>
      </trkpt>
      <trkpt lat="42.021780" lon="-2.761122">
        <ele>1870.8</ele>
        <time>2021-07-03T10:17:05.000Z</time>
      </trkpt>
      <trkpt lat="42.021783" lon="-2.761125">
        <ele>1870.1</ele>
        <time>2021-07-03T10:17:44.000Z</time>
      </trkpt>
      <trkpt lat="42.021787" lon="-2.761127">
        <ele>1870.7</ele>
        <time>2021-07-03T10:17:46.000Z</time>
      </trkpt>
      <trkpt lat="42.021785" lon="-2.761127">
        <ele>1871.2</ele>
        <time>2021-07-03T10:17:51.000Z</time>
      </trkpt>
      <trkpt lat="42.021785" lon="-2.761127">
        <ele>1871.3</ele>
        <time>2021-07-03T10:17:52.000Z</time>
      </trkpt>
      <trkpt lat="42.021783" lon="-2.761128">
        <ele>1871.0</ele>
        <time>2021-07-03T10:17:58.000Z</time>
      </trkpt>
      <trkpt lat="42.021777" lon="-2.761273">
        <ele>1869.4</ele>
        <time>2021-07-03T10:18:05.000Z</time>
      </trkpt>
      <trkpt lat="42.021747" lon="-2.761388">
        <ele>1867.4</ele>
        <time>2021-07-03T10:18:09.000Z</time>
      </trkpt>
      <trkpt lat="42.021705" lon="-2.761528">
        <ele>1866.1</ele>
        <time>2021-07-03T10:18:13.000Z</time>
      </trkpt>
      <trkpt lat="42.021702" lon="-2.761652">
        <ele>1863.5</ele>
        <time>2021-07-03T10:18:17.000Z</time>
      </trkpt>
      <trkpt lat="42.021737" lon="-2.761787">
        <ele>1860.3</ele>
        <time>2021-07-03T10:18:22.000Z</time>
      </trkpt>
      <trkpt lat="42.021693" lon="-2.761897">
        <ele>1859.6</ele>
        <time>2021-07-03T10:18:26.000Z</time>
      </trkpt>
      <trkpt lat="42.021648" lon="-2.762018">
        <ele>1857.7</ele>
        <time>2021-07-03T10:18:31.000Z</time>
      </trkpt>
      <trkpt lat="42.021620" lon="-2.762158">
        <ele>1855.5</ele>
        <time>2021-07-03T10:18:36.000Z</time>
      </trkpt>
      <trkpt lat="42.021590" lon="-2.762275">
        <ele>1854.1</ele>
        <time>2021-07-03T10:18:40.000Z</time>
      </trkpt>
      <trkpt lat="42.021602" lon="-2.762425">
        <ele>1851.0</ele>
        <time>2021-07-03T10:18:45.000Z</time>
      </trkpt>
      <trkpt lat="42.021587" lon="-2.762565">
        <ele>1849.0</ele>
        <time>2021-07-03T10:18:51.000Z</time>
      </trkpt>
      <trkpt lat="42.021577" lon="-2.762690">
        <ele>1848.6</ele>
        <time>2021-07-03T10:18:55.000Z</time>
      </trkpt>
      <trkpt lat="42.021560" lon="-2.762825">
        <ele>1845.4</ele>
        <time>2021-07-03T10:19:00.000Z</time>
      </trkpt>
      <trkpt lat="42.021542" lon="-2.762977">
        <ele>1842.9</ele>
        <time>2021-07-03T10:19:05.000Z</time>
      </trkpt>
      <trkpt lat="42.021522" lon="-2.763123">
        <ele>1840.7</ele>
        <time>2021-07-03T10:19:09.000Z</time>
      </trkpt>
      <trkpt lat="42.021507" lon="-2.763278">
        <ele>1839.4</ele>
        <time>2021-07-03T10:19:13.000Z</time>
      </trkpt>
      <trkpt lat="42.021488" lon="-2.763435">
        <ele>1837.8</ele>
        <time>2021-07-03T10:19:17.000Z</time>
      </trkpt>
      <trkpt lat="42.021450" lon="-2.763563">
        <ele>1836.2</ele>
        <time>2021-07-03T10:19:21.000Z</time>
      </trkpt>
      <trkpt lat="42.021395" lon="-2.763698">
        <ele>1833.5</ele>
        <time>2021-07-03T10:19:25.000Z</time>
      </trkpt>
      <trkpt lat="42.021377" lon="-2.763848">
        <ele>1829.1</ele>
        <time>2021-07-03T10:19:29.000Z</time>
      </trkpt>
      <trkpt lat="42.021362" lon="-2.763985">
        <ele>1830.0</ele>
        <time>2021-07-03T10:19:33.000Z</time>
      </trkpt>
      <trkpt lat="42.021338" lon="-2.764112">
        <ele>1827.6</ele>
        <time>2021-07-03T10:19:37.000Z</time>
      </trkpt>
      <trkpt lat="42.021315" lon="-2.764258">
        <ele>1826.2</ele>
        <time>2021-07-03T10:19:41.000Z</time>
      </trkpt>
      <trkpt lat="42.021298" lon="-2.764417">
        <ele>1826.0</ele>
        <time>2021-07-03T10:19:45.000Z</time>
      </trkpt>
      <trkpt lat="42.021275" lon="-2.764575">
        <ele>1822.7</ele>
        <time>2021-07-03T10:19:49.000Z</time>
      </trkpt>
      <trkpt lat="42.021273" lon="-2.764697">
        <ele>1821.6</ele>
        <time>2021-07-03T10:19:52.000Z</time>
      </trkpt>
      <trkpt lat="42.021252" lon="-2.764833">
        <ele>1820.0</ele>
        <time>2021-07-03T10:19:56.000Z</time>
      </trkpt>
      <trkpt lat="42.021235" lon="-2.764965">
        <ele>1818.4</ele>
        <time>2021-07-03T10:20:00.000Z</time>
      </trkpt>
      <trkpt lat="42.021223" lon="-2.765085">
        <ele>1817.7</ele>
        <time>2021-07-03T10:20:03.000Z</time>
      </trkpt>
      <trkpt lat="42.021230" lon="-2.765232">
        <ele>1814.5</ele>
        <time>2021-07-03T10:20:07.000Z</time>
      </trkpt>
      <trkpt lat="42.021217" lon="-2.765387">
        <ele>1815.8</ele>
        <time>2021-07-03T10:20:11.000Z</time>
      </trkpt>
      <trkpt lat="42.021202" lon="-2.765543">
        <ele>1811.3</ele>
        <time>2021-07-03T10:20:15.000Z</time>
      </trkpt>
      <trkpt lat="42.021173" lon="-2.765693">
        <ele>1809.4</ele>
        <time>2021-07-03T10:20:19.000Z</time>
      </trkpt>
      <trkpt lat="42.021137" lon="-2.765827">
        <ele>1807.4</ele>
        <time>2021-07-03T10:20:23.000Z</time>
      </trkpt>
      <trkpt lat="42.021105" lon="-2.765942">
        <ele>1808.2</ele>
        <time>2021-07-03T10:20:26.000Z</time>
      </trkpt>
      <trkpt lat="42.021083" lon="-2.766067">
        <ele>1806.1</ele>
        <time>2021-07-03T10:20:29.000Z</time>
      </trkpt>
      <trkpt lat="42.021060" lon="-2.766220">
        <ele>1805.3</ele>
        <time>2021-07-03T10:20:33.000Z</time>
      </trkpt>
      <trkpt lat="42.021048" lon="-2.766362">
        <ele>1803.4</ele>
        <time>2021-07-03T10:20:36.000Z</time>
      </trkpt>
      <trkpt lat="42.021037" lon="-2.766513">
        <ele>1803.4</ele>
        <time>2021-07-03T10:20:39.000Z</time>
      </trkpt>
      <trkpt lat="42.021017" lon="-2.766637">
        <ele>1799.2</ele>
        <time>2021-07-03T10:20:42.000Z</time>
      </trkpt>
      <trkpt lat="42.020992" lon="-2.766797">
        <ele>1799.6</ele>
        <time>2021-07-03T10:20:46.000Z</time>
      </trkpt>
      <trkpt lat="42.020972" lon="-2.766917">
        <ele>1794.6</ele>
        <time>2021-07-03T10:20:49.000Z</time>
      </trkpt>
      <trkpt lat="42.020955" lon="-2.767042">
        <ele>1794.6</ele>
        <time>2021-07-03T10:20:52.000Z</time>
      </trkpt>
      <trkpt lat="42.020928" lon="-2.767193">
        <ele>1792.4</ele>
        <time>2021-07-03T10:20:56.000Z</time>
      </trkpt>
      <trkpt lat="42.020895" lon="-2.767320">
        <ele>1789.8</ele>
        <time>2021-07-03T10:21:00.000Z</time>
      </trkpt>
      <trkpt lat="42.020868" lon="-2.767447">
        <ele>1788.4</ele>
        <time>2021-07-03T10:21:04.000Z</time>
      </trkpt>
      <trkpt lat="42.020822" lon="-2.767560">
        <ele>1787.3</ele>
        <time>2021-07-03T10:21:10.000Z</time>
      </trkpt>
      <trkpt lat="42.020805" lon="-2.767682">
        <ele>1785.4</ele>
        <time>2021-07-03T10:21:15.000Z</time>
      </trkpt>
      <trkpt lat="42.020790" lon="-2.767815">
        <ele>1783.4</ele>
        <time>2021-07-03T10:21:20.000Z</time>
      </trkpt>
      <trkpt lat="42.020798" lon="-2.767922">
        <ele>1781.4</ele>
        <time>2021-07-03T10:21:26.000Z</time>
      </trkpt>
      <trkpt lat="42.020797" lon="-2.767923">
        <ele>1781.4</ele>
        <time>2021-07-03T10:21:45.000Z</time>
      </trkpt>
      <trkpt lat="42.020797" lon="-2.767923">
        <ele>1781.4</ele>
        <time>2021-07-03T10:21:46.000Z</time>
      </trkpt>
      <trkpt lat="42.020795" lon="-2.767925">
        <ele>1781.7</ele>
        <time>2021-07-03T10:21:47.000Z</time>
      </trkpt>
      <trkpt lat="42.020795" lon="-2.767925">
        <ele>1781.6</ele>
        <time>2021-07-03T10:21:48.000Z</time>
      </trkpt>
      <trkpt lat="42.020795" lon="-2.767932">
        <ele>1781.7</ele>
        <time>2021-07-03T10:22:08.000Z</time>
      </trkpt>
      <trkpt lat="42.020773" lon="-2.768083">
        <ele>1780.0</ele>
        <time>2021-07-03T10:22:13.000Z</time>
      </trkpt>
      <trkpt lat="42.020740" lon="-2.768215">
        <ele>1778.5</ele>
        <time>2021-07-03T10:22:17.000Z</time>
      </trkpt>
      <trkpt lat="42.020732" lon="-2.768340">
        <ele>1775.9</ele>
        <time>2021-07-03T10:22:21.000Z</time>
      </trkpt>
      <trkpt lat="42.020722" lon="-2.768472">
        <ele>1775.4</ele>
        <time>2021-07-03T10:22:25.000Z</time>
      </trkpt>
      <trkpt lat="42.020705" lon="-2.768600">
        <ele>1772.9</ele>
        <time>2021-07-03T10:22:29.000Z</time>
      </trkpt>
      <trkpt lat="42.020678" lon="-2.768740">
        <ele>1770.4</ele>
        <time>2021-07-03T10:22:33.000Z</time>
      </trkpt>
      <trkpt lat="42.020658" lon="-2.768880">
        <ele>1769.1</ele>
        <time>2021-07-03T10:22:38.000Z</time>
      </trkpt>
      <trkpt lat="42.020643" lon="-2.769005">
        <ele>1765.9</ele>
        <time>2021-07-03T10:22:42.000Z</time>
      </trkpt>
      <trkpt lat="42.020623" lon="-2.769143">
        <ele>1765.0</ele>
        <time>2021-07-03T10:22:46.000Z</time>
      </trkpt>
      <trkpt lat="42.020598" lon="-2.769282">
        <ele>1762.2</ele>
        <time>2021-07-03T10:22:50.000Z</time>
      </trkpt>
      <trkpt lat="42.020575" lon="-2.769422">
        <ele>1760.1</ele>
        <time>2021-07-03T10:22:54.000Z</time>
      </trkpt>
      <trkpt lat="42.020543" lon="-2.769560">
        <ele>1757.6</ele>
        <time>2021-07-03T10:22:58.000Z</time>
      </trkpt>
      <trkpt lat="42.020522" lon="-2.769682">
        <ele>1755.1</ele>
        <time>2021-07-03T10:23:03.000Z</time>
      </trkpt>
      <trkpt lat="42.020503" lon="-2.769805">
        <ele>1754.1</ele>
        <time>2021-07-03T10:23:07.000Z</time>
      </trkpt>
      <trkpt lat="42.020483" lon="-2.769925">
        <ele>1750.1</ele>
        <time>2021-07-03T10:23:12.000Z</time>
      </trkpt>
      <trkpt lat="42.020515" lon="-2.770045">
        <ele>1747.3</ele>
        <time>2021-07-03T10:23:19.000Z</time>
      </trkpt>
      <trkpt lat="42.020528" lon="-2.770085">
        <ele>1745.6</ele>
        <time>2021-07-03T10:23:23.000Z</time>
      </trkpt>
      <trkpt lat="42.020527" lon="-2.770087">
        <ele>1745.4</ele>
        <time>2021-07-03T10:23:26.000Z</time>
      </trkpt>
      <trkpt lat="42.020522" lon="-2.770092">
        <ele>1745.3</ele>
        <time>2021-07-03T10:23:29.000Z</time>
      </trkpt>
      <trkpt lat="42.020520" lon="-2.770092">
        <ele>1745.1</ele>
        <time>2021-07-03T10:23:31.000Z</time>
      </trkpt>
      <trkpt lat="42.020518" lon="-2.770082">
        <ele>1745.6</ele>
        <time>2021-07-03T10:23:34.000Z</time>
      </trkpt>
      <trkpt lat="42.020517" lon="-2.770082">
        <ele>1745.7</ele>
        <time>2021-07-03T10:23:35.000Z</time>
      </trkpt>
      <trkpt lat="42.020510" lon="-2.770213">
        <ele>1742.7</ele>
        <time>2021-07-03T10:23:46.000Z</time>
      </trkpt>
      <trkpt lat="42.020508" lon="-2.770255">
        <ele>1741.4</ele>
        <time>2021-07-03T10:23:53.000Z</time>
      </trkpt>
      <trkpt lat="42.020507" lon="-2.770265">
        <ele>1741.0</ele>
        <time>2021-07-03T10:24:03.000Z</time>
      </trkpt>
      <trkpt lat="42.020468" lon="-2.770397">
        <ele>1740.4</ele>
        <time>2021-07-03T10:24:13.000Z</time>
      </trkpt>
      <trkpt lat="42.020440" lon="-2.770523">
        <ele>1738.8</ele>
        <time>2021-07-03T10:24:16.000Z</time>
      </trkpt>
      <trkpt lat="42.020428" lon="-2.770673">
        <ele>1736.3</ele>
        <time>2021-07-03T10:24:19.000Z</time>
      </trkpt>
      <trkpt lat="42.020417" lon="-2.770817">
        <ele>1734.2</ele>
        <time>2021-07-03T10:24:22.000Z</time>
      </trkpt>
      <trkpt lat="42.020397" lon="-2.770962">
        <ele>1732.8</ele>
        <time>2021-07-03T10:24:25.000Z</time>
      </trkpt>
      <trkpt lat="42.020362" lon="-2.771095">
        <ele>1730.3</ele>
        <time>2021-07-03T10:24:28.000Z</time>
      </trkpt>
      <trkpt lat="42.020333" lon="-2.771225">
        <ele>1728.2</ele>
        <time>2021-07-03T10:24:31.000Z</time>
      </trkpt>
      <trkpt lat="42.020305" lon="-2.771367">
        <ele>1730.0</ele>
        <time>2021-07-03T10:24:34.000Z</time>
      </trkpt>
      <trkpt lat="42.020280" lon="-2.771528">
        <ele>1726.9</ele>
        <time>2021-07-03T10:24:37.000Z</time>
      </trkpt>
      <trkpt lat="42.020258" lon="-2.771682">
        <ele>1724.1</ele>
        <time>2021-07-03T10:24:40.000Z</time>
      </trkpt>
      <trkpt lat="42.020242" lon="-2.771825">
        <ele>1720.7</ele>
        <time>2021-07-03T10:24:43.000Z</time>
      </trkpt>
      <trkpt lat="42.020222" lon="-2.771967">
        <ele>1719.4</ele>
        <time>2021-07-03T10:24:46.000Z</time>
      </trkpt>
      <trkpt lat="42.020202" lon="-2.772097">
        <ele>1718.7</ele>
        <time>2021-07-03T10:24:49.000Z</time>
      </trkpt>
      <trkpt lat="42.020182" lon="-2.772245">
        <ele>1717.4</ele>
        <time>2021-07-03T10:24:52.000Z</time>
      </trkpt>
      <trkpt lat="42.020165" lon="-2.772397">
        <ele>1716.2</ele>
        <time>2021-07-03T10:24:55.000Z</time>
      </trkpt>
      <trkpt lat="42.020132" lon="-2.772558">
        <ele>1713.3</ele>
        <time>2021-07-03T10:24:58.000Z</time>
      </trkpt>
      <trkpt lat="42.020095" lon="-2.772733">
        <ele>1713.6</ele>
        <time>2021-07-03T10:25:01.000Z</time>
      </trkpt>
      <trkpt lat="42.020078" lon="-2.772855">
        <ele>1713.5</ele>
        <time>2021-07-03T10:25:03.000Z</time>
      </trkpt>
      <trkpt lat="42.020072" lon="-2.773038">
        <ele>1712.1</ele>
        <time>2021-07-03T10:25:06.000Z</time>
      </trkpt>
      <trkpt lat="42.020055" lon="-2.773180">
        <ele>1710.9</ele>
        <time>2021-07-03T10:25:08.000Z</time>
      </trkpt>
      <trkpt lat="42.020032" lon="-2.773340">
        <ele>1709.8</ele>
        <time>2021-07-03T10:25:10.000Z</time>
      </trkpt>
      <trkpt lat="42.020017" lon="-2.773493">
        <ele>1707.9</ele>
        <time>2021-07-03T10:25:12.000Z</time>
      </trkpt>
      <trkpt lat="42.020007" lon="-2.773618">
        <ele>1706.8</ele>
        <time>2021-07-03T10:25:14.000Z</time>
      </trkpt>
      <trkpt lat="42.019997" lon="-2.773742">
        <ele>1708.8</ele>
        <time>2021-07-03T10:25:16.000Z</time>
      </trkpt>
      <trkpt lat="42.019993" lon="-2.773882">
        <ele>1708.8</ele>
        <time>2021-07-03T10:25:18.000Z</time>
      </trkpt>
      <trkpt lat="42.019983" lon="-2.774023">
        <ele>1706.5</ele>
        <time>2021-07-03T10:25:20.000Z</time>
      </trkpt>
      <trkpt lat="42.019972" lon="-2.774172">
        <ele>1704.9</ele>
        <time>2021-07-03T10:25:22.000Z</time>
      </trkpt>
      <trkpt lat="42.019972" lon="-2.774310">
        <ele>1701.2</ele>
        <time>2021-07-03T10:25:24.000Z</time>
      </trkpt>
      <trkpt lat="42.019998" lon="-2.774433">
        <ele>1700.1</ele>
        <time>2021-07-03T10:25:26.000Z</time>
      </trkpt>
      <trkpt lat="42.020035" lon="-2.774582">
        <ele>1698.9</ele>
        <time>2021-07-03T10:25:29.000Z</time>
      </trkpt>
      <trkpt lat="42.020043" lon="-2.774710">
        <ele>1698.6</ele>
        <time>2021-07-03T10:25:32.000Z</time>
      </trkpt>
      <trkpt lat="42.020058" lon="-2.774830">
        <ele>1697.6</ele>
        <time>2021-07-03T10:25:35.000Z</time>
      </trkpt>
      <trkpt lat="42.020030" lon="-2.774968">
        <ele>1697.5</ele>
        <time>2021-07-03T10:25:40.000Z</time>
      </trkpt>
      <trkpt lat="42.020023" lon="-2.775083">
        <ele>1695.6</ele>
        <time>2021-07-03T10:25:45.000Z</time>
      </trkpt>
      <trkpt lat="42.020022" lon="-2.775085">
        <ele>1695.0</ele>
        <time>2021-07-03T10:25:52.000Z</time>
      </trkpt>
      <trkpt lat="42.020022" lon="-2.775085">
        <ele>1693.3</ele>
        <time>2021-07-03T10:25:53.000Z</time>
      </trkpt>
      <trkpt lat="42.020020" lon="-2.775085">
        <ele>1699.3</ele>
        <time>2021-07-03T10:25:58.000Z</time>
      </trkpt>
      <trkpt lat="42.020020" lon="-2.775085">
        <ele>1697.7</ele>
        <time>2021-07-03T10:25:59.000Z</time>
      </trkpt>
      <trkpt lat="42.020022" lon="-2.775095">
        <ele>1696.7</ele>
        <time>2021-07-03T10:26:03.000Z</time>
      </trkpt>
      <trkpt lat="42.020023" lon="-2.775267">
        <ele>1695.5</ele>
        <time>2021-07-03T10:26:08.000Z</time>
      </trkpt>
      <trkpt lat="42.020025" lon="-2.775422">
        <ele>1694.8</ele>
        <time>2021-07-03T10:26:11.000Z</time>
      </trkpt>
      <trkpt lat="42.020052" lon="-2.775585">
        <ele>1691.4</ele>
        <time>2021-07-03T10:26:14.000Z</time>
      </trkpt>
      <trkpt lat="42.020047" lon="-2.775710">
        <ele>1693.4</ele>
        <time>2021-07-03T10:26:16.000Z</time>
      </trkpt>
      <trkpt lat="42.020055" lon="-2.775848">
        <ele>1689.8</ele>
        <time>2021-07-03T10:26:18.000Z</time>
      </trkpt>
      <trkpt lat="42.020065" lon="-2.775978">
        <ele>1690.4</ele>
        <time>2021-07-03T10:26:20.000Z</time>
      </trkpt>
      <trkpt lat="42.020072" lon="-2.776100">
        <ele>1688.1</ele>
        <time>2021-07-03T10:26:22.000Z</time>
      </trkpt>
      <trkpt lat="42.020067" lon="-2.776228">
        <ele>1685.6</ele>
        <time>2021-07-03T10:26:24.000Z</time>
      </trkpt>
      <trkpt lat="42.020033" lon="-2.776393">
        <ele>1683.7</ele>
        <time>2021-07-03T10:26:27.000Z</time>
      </trkpt>
      <trkpt lat="42.020002" lon="-2.776528">
        <ele>1681.3</ele>
        <time>2021-07-03T10:26:30.000Z</time>
      </trkpt>
      <trkpt lat="42.019968" lon="-2.776647">
        <ele>1683.4</ele>
        <time>2021-07-03T10:26:33.000Z</time>
      </trkpt>
      <trkpt lat="42.019923" lon="-2.776753">
        <ele>1682.2</ele>
        <time>2021-07-03T10:26:38.000Z</time>
      </trkpt>
      <trkpt lat="42.019873" lon="-2.776865">
        <ele>1682.4</ele>
        <time>2021-07-03T10:26:44.000Z</time>
      </trkpt>
      <trkpt lat="42.019860" lon="-2.776902">
        <ele>1682.5</ele>
        <time>2021-07-03T10:26:47.000Z</time>
      </trkpt>
      <trkpt lat="42.019858" lon="-2.776903">
        <ele>1682.4</ele>
        <time>2021-07-03T10:26:49.000Z</time>
      </trkpt>
      <trkpt lat="42.019858" lon="-2.776903">
        <ele>1682.3</ele>
        <time>2021-07-03T10:26:50.000Z</time>
      </trkpt>
      <trkpt lat="42.019857" lon="-2.776908">
        <ele>1682.6</ele>
        <time>2021-07-03T10:27:19.000Z</time>
      </trkpt>
      <trkpt lat="42.019857" lon="-2.776908">
        <ele>1682.6</ele>
        <time>2021-07-03T10:27:20.000Z</time>
      </trkpt>
      <trkpt lat="42.019858" lon="-2.776910">
        <ele>1683.0</ele>
        <time>2021-07-03T10:27:24.000Z</time>
      </trkpt>
      <trkpt lat="42.019857" lon="-2.776915">
        <ele>1683.0</ele>
        <time>2021-07-03T10:27:27.000Z</time>
      </trkpt>
      <trkpt lat="42.019855" lon="-2.776917">
        <ele>1683.0</ele>
        <time>2021-07-03T10:27:28.000Z</time>
      </trkpt>
      <trkpt lat="42.019837" lon="-2.776980">
        <ele>1682.4</ele>
        <time>2021-07-03T10:27:38.000Z</time>
      </trkpt>
      <trkpt lat="42.019837" lon="-2.776988">
        <ele>1682.4</ele>
        <time>2021-07-03T10:27:40.000Z</time>
      </trkpt>
      <trkpt lat="42.019837" lon="-2.776987">
        <ele>1682.5</ele>
        <time>2021-07-03T10:27:41.000Z</time>
      </trkpt>
      <trkpt lat="42.019838" lon="-2.776988">
        <ele>1683.2</ele>
        <time>2021-07-03T10:28:27.000Z</time>
      </trkpt>
      <trkpt lat="42.019838" lon="-2.776988">
        <ele>1683.1</ele>
        <time>2021-07-03T10:28:28.000Z</time>
      </trkpt>
      <trkpt lat="42.019840" lon="-2.776987">
        <ele>1684.4</ele>
        <time>2021-07-03T10:29:34.000Z</time>
      </trkpt>
      <trkpt lat="42.019840" lon="-2.776987">
        <ele>1684.4</ele>
        <time>2021-07-03T10:29:35.000Z</time>
      </trkpt>
      <trkpt lat="42.019840" lon="-2.776992">
        <ele>1684.7</ele>
        <time>2021-07-03T10:29:52.000Z</time>
      </trkpt>
      <trkpt lat="42.019795" lon="-2.777098">
        <ele>1685.0</ele>
        <time>2021-07-03T10:30:09.000Z</time>
      </trkpt>
      <trkpt lat="42.019797" lon="-2.777113">
        <ele>1685.0</ele>
        <time>2021-07-03T10:30:11.000Z</time>
      </trkpt>
      <trkpt lat="42.019800" lon="-2.777118">
        <ele>1685.0</ele>
        <time>2021-07-03T10:30:25.000Z</time>
      </trkpt>
      <trkpt lat="42.019745" lon="-2.777240">
        <ele>1685.8</ele>
        <time>2021-07-03T10:30:34.000Z</time>
      </trkpt>
      <trkpt lat="42.019683" lon="-2.777335">
        <ele>1686.0</ele>
        <time>2021-07-03T10:30:38.000Z</time>
      </trkpt>
      <trkpt lat="42.019618" lon="-2.777457">
        <ele>1684.1</ele>
        <time>2021-07-03T10:30:42.000Z</time>
      </trkpt>
      <trkpt lat="42.019538" lon="-2.777578">
        <ele>1683.4</ele>
        <time>2021-07-03T10:30:46.000Z</time>
      </trkpt>
      <trkpt lat="42.019450" lon="-2.777690">
        <ele>1683.7</ele>
        <time>2021-07-03T10:30:49.000Z</time>
      </trkpt>
      <trkpt lat="42.019375" lon="-2.777772">
        <ele>1683.8</ele>
        <time>2021-07-03T10:30:51.000Z</time>
      </trkpt>
      <trkpt lat="42.019268" lon="-2.777848">
        <ele>1683.0</ele>
        <time>2021-07-03T10:30:54.000Z</time>
      </trkpt>
      <trkpt lat="42.019162" lon="-2.777952">
        <ele>1683.8</ele>
        <time>2021-07-03T10:30:57.000Z</time>
      </trkpt>
      <trkpt lat="42.019092" lon="-2.778095">
        <ele>1682.0</ele>
        <time>2021-07-03T10:31:00.000Z</time>
      </trkpt>
      <trkpt lat="42.019032" lon="-2.778210">
        <ele>1682.2</ele>
        <time>2021-07-03T10:31:03.000Z</time>
      </trkpt>
      <trkpt lat="42.018973" lon="-2.778350">
        <ele>1679.4</ele>
        <time>2021-07-03T10:31:06.000Z</time>
      </trkpt>
      <trkpt lat="42.018917" lon="-2.778500">
        <ele>1676.8</ele>
        <time>2021-07-03T10:31:09.000Z</time>
      </trkpt>
      <trkpt lat="42.018872" lon="-2.778645">
        <ele>1677.2</ele>
        <time>2021-07-03T10:31:12.000Z</time>
      </trkpt>
      <trkpt lat="42.018837" lon="-2.778770">
        <ele>1676.2</ele>
        <time>2021-07-03T10:31:15.000Z</time>
      </trkpt>
      <trkpt lat="42.018788" lon="-2.778912">
        <ele>1671.4</ele>
        <time>2021-07-03T10:31:19.000Z</time>
      </trkpt>
      <trkpt lat="42.018795" lon="-2.778900">
        <ele>1671.2</ele>
        <time>2021-07-03T10:31:21.000Z</time>
      </trkpt>
      <trkpt lat="42.018788" lon="-2.778917">
        <ele>1671.4</ele>
        <time>2021-07-03T10:31:22.000Z</time>
      </trkpt>
      <trkpt lat="42.018748" lon="-2.779067">
        <ele>1670.1</ele>
        <time>2021-07-03T10:31:26.000Z</time>
      </trkpt>
      <trkpt lat="42.018710" lon="-2.779213">
        <ele>1668.0</ele>
        <time>2021-07-03T10:31:29.000Z</time>
      </trkpt>
      <trkpt lat="42.018678" lon="-2.779328">
        <ele>1666.3</ele>
        <time>2021-07-03T10:31:31.000Z</time>
      </trkpt>
      <trkpt lat="42.018647" lon="-2.779460">
        <ele>1665.4</ele>
        <time>2021-07-03T10:31:33.000Z</time>
      </trkpt>
      <trkpt lat="42.018615" lon="-2.779580">
        <ele>1663.0</ele>
        <time>2021-07-03T10:31:35.000Z</time>
      </trkpt>
      <trkpt lat="42.018577" lon="-2.779725">
        <ele>1663.7</ele>
        <time>2021-07-03T10:31:38.000Z</time>
      </trkpt>
      <trkpt lat="42.018533" lon="-2.779857">
        <ele>1663.3</ele>
        <time>2021-07-03T10:31:41.000Z</time>
      </trkpt>
      <trkpt lat="42.018485" lon="-2.779995">
        <ele>1657.8</ele>
        <time>2021-07-03T10:31:44.000Z</time>
      </trkpt>
      <trkpt lat="42.018445" lon="-2.780112">
        <ele>1659.1</ele>
        <time>2021-07-03T10:31:47.000Z</time>
      </trkpt>
      <trkpt lat="42.018413" lon="-2.780227">
        <ele>1658.4</ele>
        <time>2021-07-03T10:31:50.000Z</time>
      </trkpt>
      <trkpt lat="42.018348" lon="-2.780335">
        <ele>1658.2</ele>
        <time>2021-07-03T10:31:53.000Z</time>
      </trkpt>
      <trkpt lat="42.018300" lon="-2.780457">
        <ele>1653.4</ele>
        <time>2021-07-03T10:31:56.000Z</time>
      </trkpt>
      <trkpt lat="42.018288" lon="-2.780605">
        <ele>1654.6</ele>
        <time>2021-07-03T10:31:59.000Z</time>
      </trkpt>
      <trkpt lat="42.018242" lon="-2.780740">
        <ele>1653.1</ele>
        <time>2021-07-03T10:32:04.000Z</time>
      </trkpt>
      <trkpt lat="42.018190" lon="-2.780843">
        <ele>1650.9</ele>
        <time>2021-07-03T10:32:06.000Z</time>
      </trkpt>
      <trkpt lat="42.018130" lon="-2.780987">
        <ele>1649.4</ele>
        <time>2021-07-03T10:32:09.000Z</time>
      </trkpt>
      <trkpt lat="42.018072" lon="-2.781137">
        <ele>1647.4</ele>
        <time>2021-07-03T10:32:12.000Z</time>
      </trkpt>
      <trkpt lat="42.018017" lon="-2.781300">
        <ele>1647.0</ele>
        <time>2021-07-03T10:32:15.000Z</time>
      </trkpt>
      <trkpt lat="42.017972" lon="-2.781427">
        <ele>1645.9</ele>
        <time>2021-07-03T10:32:17.000Z</time>
      </trkpt>
      <trkpt lat="42.017915" lon="-2.781553">
        <ele>1645.1</ele>
        <time>2021-07-03T10:32:19.000Z</time>
      </trkpt>
      <trkpt lat="42.017852" lon="-2.781687">
        <ele>1638.4</ele>
        <time>2021-07-03T10:32:21.000Z</time>
      </trkpt>
      <trkpt lat="42.017792" lon="-2.781810">
        <ele>1639.3</ele>
        <time>2021-07-03T10:32:23.000Z</time>
      </trkpt>
      <trkpt lat="42.017738" lon="-2.781915">
        <ele>1639.5</ele>
        <time>2021-07-03T10:32:25.000Z</time>
      </trkpt>
      <trkpt lat="42.017690" lon="-2.782020">
        <ele>1638.7</ele>
        <time>2021-07-03T10:32:27.000Z</time>
      </trkpt>
      <trkpt lat="42.017640" lon="-2.782128">
        <ele>1637.4</ele>
        <time>2021-07-03T10:32:29.000Z</time>
      </trkpt>
      <trkpt lat="42.017590" lon="-2.782230">
        <ele>1636.6</ele>
        <time>2021-07-03T10:32:31.000Z</time>
      </trkpt>
      <trkpt lat="42.017508" lon="-2.782350">
        <ele>1634.1</ele>
        <time>2021-07-03T10:32:34.000Z</time>
      </trkpt>
      <trkpt lat="42.017432" lon="-2.782448">
        <ele>1634.7</ele>
        <time>2021-07-03T10:32:37.000Z</time>
      </trkpt>
      <trkpt lat="42.017343" lon="-2.782555">
        <ele>1633.8</ele>
        <time>2021-07-03T10:32:40.000Z</time>
      </trkpt>
      <trkpt lat="42.017257" lon="-2.782680">
        <ele>1636.5</ele>
        <time>2021-07-03T10:32:43.000Z</time>
      </trkpt>
      <trkpt lat="42.017180" lon="-2.782780">
        <ele>1630.8</ele>
        <time>2021-07-03T10:32:46.000Z</time>
      </trkpt>
      <trkpt lat="42.017092" lon="-2.782905">
        <ele>1633.3</ele>
        <time>2021-07-03T10:32:49.000Z</time>
      </trkpt>
      <trkpt lat="42.017005" lon="-2.783040">
        <ele>1630.1</ele>
        <time>2021-07-03T10:32:52.000Z</time>
      </trkpt>
      <trkpt lat="42.016913" lon="-2.783155">
        <ele>1627.2</ele>
        <time>2021-07-03T10:32:55.000Z</time>
      </trkpt>
      <trkpt lat="42.016852" lon="-2.783287">
        <ele>1626.2</ele>
        <time>2021-07-03T10:32:58.000Z</time>
      </trkpt>
      <trkpt lat="42.016798" lon="-2.783420">
        <ele>1625.8</ele>
        <time>2021-07-03T10:33:01.000Z</time>
      </trkpt>
      <trkpt lat="42.016737" lon="-2.783553">
        <ele>1626.0</ele>
        <time>2021-07-03T10:33:04.000Z</time>
      </trkpt>
      <trkpt lat="42.016672" lon="-2.783642">
        <ele>1622.4</ele>
        <time>2021-07-03T10:33:07.000Z</time>
      </trkpt>
      <trkpt lat="42.016570" lon="-2.783707">
        <ele>1621.0</ele>
        <time>2021-07-03T10:33:10.000Z</time>
      </trkpt>
      <trkpt lat="42.016458" lon="-2.783775">
        <ele>1620.7</ele>
        <time>2021-07-03T10:33:13.000Z</time>
      </trkpt>
      <trkpt lat="42.016353" lon="-2.783875">
        <ele>1620.5</ele>
        <time>2021-07-03T10:33:16.000Z</time>
      </trkpt>
      <trkpt lat="42.016265" lon="-2.783947">
        <ele>1620.4</ele>
        <time>2021-07-03T10:33:18.000Z</time>
      </trkpt>
      <trkpt lat="42.016172" lon="-2.784013">
        <ele>1618.1</ele>
        <time>2021-07-03T10:33:20.000Z</time>
      </trkpt>
      <trkpt lat="42.016078" lon="-2.784068">
        <ele>1619.3</ele>
        <time>2021-07-03T10:33:22.000Z</time>
      </trkpt>
      <trkpt lat="42.015992" lon="-2.784125">
        <ele>1618.8</ele>
        <time>2021-07-03T10:33:24.000Z</time>
      </trkpt>
      <trkpt lat="42.015915" lon="-2.784197">
        <ele>1618.1</ele>
        <time>2021-07-03T10:33:26.000Z</time>
      </trkpt>
      <trkpt lat="42.015810" lon="-2.784297">
        <ele>1617.7</ele>
        <time>2021-07-03T10:33:29.000Z</time>
      </trkpt>
      <trkpt lat="42.015703" lon="-2.784348">
        <ele>1619.0</ele>
        <time>2021-07-03T10:33:32.000Z</time>
      </trkpt>
      <trkpt lat="42.015620" lon="-2.784397">
        <ele>1616.6</ele>
        <time>2021-07-03T10:33:35.000Z</time>
      </trkpt>
      <trkpt lat="42.015543" lon="-2.784480">
        <ele>1615.7</ele>
        <time>2021-07-03T10:33:38.000Z</time>
      </trkpt>
      <trkpt lat="42.015460" lon="-2.784542">
        <ele>1617.2</ele>
        <time>2021-07-03T10:33:41.000Z</time>
      </trkpt>
      <trkpt lat="42.015355" lon="-2.784605">
        <ele>1615.1</ele>
        <time>2021-07-03T10:33:45.000Z</time>
      </trkpt>
      <trkpt lat="42.015247" lon="-2.784680">
        <ele>1613.4</ele>
        <time>2021-07-03T10:33:49.000Z</time>
      </trkpt>
      <trkpt lat="42.015172" lon="-2.784748">
        <ele>1616.0</ele>
        <time>2021-07-03T10:33:52.000Z</time>
      </trkpt>
      <trkpt lat="42.015070" lon="-2.784828">
        <ele>1612.3</ele>
        <time>2021-07-03T10:33:56.000Z</time>
      </trkpt>
      <trkpt lat="42.014977" lon="-2.784888">
        <ele>1611.8</ele>
        <time>2021-07-03T10:33:59.000Z</time>
      </trkpt>
      <trkpt lat="42.014890" lon="-2.784953">
        <ele>1608.6</ele>
        <time>2021-07-03T10:34:02.000Z</time>
      </trkpt>
      <trkpt lat="42.014797" lon="-2.785023">
        <ele>1608.0</ele>
        <time>2021-07-03T10:34:06.000Z</time>
      </trkpt>
      <trkpt lat="42.014712" lon="-2.785092">
        <ele>1607.1</ele>
        <time>2021-07-03T10:34:09.000Z</time>
      </trkpt>
      <trkpt lat="42.014627" lon="-2.785143">
        <ele>1603.8</ele>
        <time>2021-07-03T10:34:12.000Z</time>
      </trkpt>
      <trkpt lat="42.014540" lon="-2.785192">
        <ele>1602.9</ele>
        <time>2021-07-03T10:34:15.000Z</time>
      </trkpt>
      <trkpt lat="42.014448" lon="-2.785243">
        <ele>1603.1</ele>
        <time>2021-07-03T10:34:18.000Z</time>
      </trkpt>
      <trkpt lat="42.014353" lon="-2.785278">
        <ele>1600.0</ele>
        <time>2021-07-03T10:34:21.000Z</time>
      </trkpt>
      <trkpt lat="42.014255" lon="-2.785305">
        <ele>1596.4</ele>
        <time>2021-07-03T10:34:24.000Z</time>
      </trkpt>
      <trkpt lat="42.014163" lon="-2.785345">
        <ele>1595.3</ele>
        <time>2021-07-03T10:34:27.000Z</time>
      </trkpt>
      <trkpt lat="42.014082" lon="-2.785397">
        <ele>1593.9</ele>
        <time>2021-07-03T10:34:30.000Z</time>
      </trkpt>
      <trkpt lat="42.013985" lon="-2.785435">
        <ele>1591.8</ele>
        <time>2021-07-03T10:34:34.000Z</time>
      </trkpt>
      <trkpt lat="42.013902" lon="-2.785485">
        <ele>1590.7</ele>
        <time>2021-07-03T10:34:37.000Z</time>
      </trkpt>
      <trkpt lat="42.013813" lon="-2.785522">
        <ele>1588.2</ele>
        <time>2021-07-03T10:34:40.000Z</time>
      </trkpt>
      <trkpt lat="42.013717" lon="-2.785542">
        <ele>1585.6</ele>
        <time>2021-07-03T10:34:44.000Z</time>
      </trkpt>
      <trkpt lat="42.013605" lon="-2.785543">
        <ele>1585.5</ele>
        <time>2021-07-03T10:34:48.000Z</time>
      </trkpt>
      <trkpt lat="42.013497" lon="-2.785562">
        <ele>1582.9</ele>
        <time>2021-07-03T10:34:52.000Z</time>
      </trkpt>
      <trkpt lat="42.013383" lon="-2.785617">
        <ele>1579.2</ele>
        <time>2021-07-03T10:34:56.000Z</time>
      </trkpt>
      <trkpt lat="42.013265" lon="-2.785638">
        <ele>1576.5</ele>
        <time>2021-07-03T10:35:00.000Z</time>
      </trkpt>
      <trkpt lat="42.013163" lon="-2.785685">
        <ele>1574.7</ele>
        <time>2021-07-03T10:35:04.000Z</time>
      </trkpt>
      <trkpt lat="42.013067" lon="-2.785745">
        <ele>1571.6</ele>
        <time>2021-07-03T10:35:09.000Z</time>
      </trkpt>
      <trkpt lat="42.012995" lon="-2.785827">
        <ele>1568.4</ele>
        <time>2021-07-03T10:35:15.000Z</time>
      </trkpt>
      <trkpt lat="42.012995" lon="-2.785822">
        <ele>1567.1</ele>
        <time>2021-07-03T10:35:19.000Z</time>
      </trkpt>
      <trkpt lat="42.012997" lon="-2.785820">
        <ele>1567.2</ele>
        <time>2021-07-03T10:35:26.000Z</time>
      </trkpt>
      <trkpt lat="42.012997" lon="-2.785820">
        <ele>1566.8</ele>
        <time>2021-07-03T10:35:27.000Z</time>
      </trkpt>
      <trkpt lat="42.012995" lon="-2.785822">
        <ele>1566.9</ele>
        <time>2021-07-03T10:35:37.000Z</time>
      </trkpt>
      <trkpt lat="42.012898" lon="-2.785853">
        <ele>1565.4</ele>
        <time>2021-07-03T10:35:44.000Z</time>
      </trkpt>
      <trkpt lat="42.012797" lon="-2.785870">
        <ele>1562.9</ele>
        <time>2021-07-03T10:35:49.000Z</time>
      </trkpt>
      <trkpt lat="42.012707" lon="-2.785897">
        <ele>1561.0</ele>
        <time>2021-07-03T10:35:53.000Z</time>
      </trkpt>
      <trkpt lat="42.012610" lon="-2.785930">
        <ele>1558.6</ele>
        <time>2021-07-03T10:35:57.000Z</time>
      </trkpt>
      <trkpt lat="42.012522" lon="-2.785973">
        <ele>1557.8</ele>
        <time>2021-07-03T10:36:01.000Z</time>
      </trkpt>
      <trkpt lat="42.012432" lon="-2.786042">
        <ele>1553.8</ele>
        <time>2021-07-03T10:36:07.000Z</time>
      </trkpt>
      <trkpt lat="42.012325" lon="-2.786077">
        <ele>1550.5</ele>
        <time>2021-07-03T10:36:12.000Z</time>
      </trkpt>
      <trkpt lat="42.012232" lon="-2.786097">
        <ele>1548.9</ele>
        <time>2021-07-03T10:36:17.000Z</time>
      </trkpt>
      <trkpt lat="42.012137" lon="-2.786127">
        <ele>1545.1</ele>
        <time>2021-07-03T10:36:22.000Z</time>
      </trkpt>
      <trkpt lat="42.012043" lon="-2.786157">
        <ele>1543.5</ele>
        <time>2021-07-03T10:36:27.000Z</time>
      </trkpt>
      <trkpt lat="42.011947" lon="-2.786197">
        <ele>1541.7</ele>
        <time>2021-07-03T10:36:32.000Z</time>
      </trkpt>
      <trkpt lat="42.011845" lon="-2.786260">
        <ele>1538.3</ele>
        <time>2021-07-03T10:36:36.000Z</time>
      </trkpt>
      <trkpt lat="42.011750" lon="-2.786323">
        <ele>1535.1</ele>
        <time>2021-07-03T10:36:41.000Z</time>
      </trkpt>
      <trkpt lat="42.011660" lon="-2.786313">
        <ele>1535.7</ele>
        <time>2021-07-03T10:36:46.000Z</time>
      </trkpt>
      <trkpt lat="42.011562" lon="-2.786362">
        <ele>1533.7</ele>
        <time>2021-07-03T10:36:50.000Z</time>
      </trkpt>
      <trkpt lat="42.011478" lon="-2.786408">
        <ele>1530.1</ele>
        <time>2021-07-03T10:36:53.000Z</time>
      </trkpt>
      <trkpt lat="42.011393" lon="-2.786450">
        <ele>1527.2</ele>
        <time>2021-07-03T10:36:56.000Z</time>
      </trkpt>
      <trkpt lat="42.011308" lon="-2.786507">
        <ele>1523.8</ele>
        <time>2021-07-03T10:36:59.000Z</time>
      </trkpt>
      <trkpt lat="42.011218" lon="-2.786565">
        <ele>1520.9</ele>
        <time>2021-07-03T10:37:02.000Z</time>
      </trkpt>
      <trkpt lat="42.011123" lon="-2.786587">
        <ele>1522.1</ele>
        <time>2021-07-03T10:37:06.000Z</time>
      </trkpt>
      <trkpt lat="42.011032" lon="-2.786583">
        <ele>1516.5</ele>
        <time>2021-07-03T10:37:10.000Z</time>
      </trkpt>
      <trkpt lat="42.010927" lon="-2.786557">
        <ele>1515.8</ele>
        <time>2021-07-03T10:37:14.000Z</time>
      </trkpt>
      <trkpt lat="42.010827" lon="-2.786537">
        <ele>1513.8</ele>
        <time>2021-07-03T10:37:18.000Z</time>
      </trkpt>
      <trkpt lat="42.010733" lon="-2.786537">
        <ele>1509.9</ele>
        <time>2021-07-03T10:37:22.000Z</time>
      </trkpt>
      <trkpt lat="42.010642" lon="-2.786512">
        <ele>1510.2</ele>
        <time>2021-07-03T10:37:26.000Z</time>
      </trkpt>
      <trkpt lat="42.010552" lon="-2.786497">
        <ele>1507.1</ele>
        <time>2021-07-03T10:37:29.000Z</time>
      </trkpt>
      <trkpt lat="42.010455" lon="-2.786500">
        <ele>1505.7</ele>
        <time>2021-07-03T10:37:32.000Z</time>
      </trkpt>
      <trkpt lat="42.010338" lon="-2.786467">
        <ele>1502.2</ele>
        <time>2021-07-03T10:37:36.000Z</time>
      </trkpt>
      <trkpt lat="42.010217" lon="-2.786438">
        <ele>1500.5</ele>
        <time>2021-07-03T10:37:40.000Z</time>
      </trkpt>
      <trkpt lat="42.010110" lon="-2.786432">
        <ele>1497.2</ele>
        <time>2021-07-03T10:37:43.000Z</time>
      </trkpt>
      <trkpt lat="42.010007" lon="-2.786418">
        <ele>1495.7</ele>
        <time>2021-07-03T10:37:46.000Z</time>
      </trkpt>
      <trkpt lat="42.009908" lon="-2.786408">
        <ele>1494.6</ele>
        <time>2021-07-03T10:37:49.000Z</time>
      </trkpt>
      <trkpt lat="42.009803" lon="-2.786432">
        <ele>1491.2</ele>
        <time>2021-07-03T10:37:52.000Z</time>
      </trkpt>
      <trkpt lat="42.009703" lon="-2.786447">
        <ele>1487.2</ele>
        <time>2021-07-03T10:37:55.000Z</time>
      </trkpt>
      <trkpt lat="42.009612" lon="-2.786432">
        <ele>1486.7</ele>
        <time>2021-07-03T10:37:58.000Z</time>
      </trkpt>
      <trkpt lat="42.009515" lon="-2.786407">
        <ele>1484.2</ele>
        <time>2021-07-03T10:38:01.000Z</time>
      </trkpt>
      <trkpt lat="42.009413" lon="-2.786402">
        <ele>1481.5</ele>
        <time>2021-07-03T10:38:04.000Z</time>
      </trkpt>
      <trkpt lat="42.009287" lon="-2.786408">
        <ele>1482.4</ele>
        <time>2021-07-03T10:38:07.000Z</time>
      </trkpt>
      <trkpt lat="42.009193" lon="-2.786460">
        <ele>1482.3</ele>
        <time>2021-07-03T10:38:09.000Z</time>
      </trkpt>
      <trkpt lat="42.009070" lon="-2.786497">
        <ele>1475.2</ele>
        <time>2021-07-03T10:38:12.000Z</time>
      </trkpt>
      <trkpt lat="42.008950" lon="-2.786460">
        <ele>1476.8</ele>
        <time>2021-07-03T10:38:15.000Z</time>
      </trkpt>
      <trkpt lat="42.008847" lon="-2.786438">
        <ele>1472.7</ele>
        <time>2021-07-03T10:38:18.000Z</time>
      </trkpt>
      <trkpt lat="42.008760" lon="-2.786405">
        <ele>1471.8</ele>
        <time>2021-07-03T10:38:25.000Z</time>
      </trkpt>
      <trkpt lat="42.008758" lon="-2.786410">
        <ele>1471.8</ele>
        <time>2021-07-03T10:38:27.000Z</time>
      </trkpt>
      <trkpt lat="42.008762" lon="-2.786412">
        <ele>1471.9</ele>
        <time>2021-07-03T10:38:34.000Z</time>
      </trkpt>
      <trkpt lat="42.008763" lon="-2.786412">
        <ele>1471.7</ele>
        <time>2021-07-03T10:38:36.000Z</time>
      </trkpt>
      <trkpt lat="42.008765" lon="-2.786413">
        <ele>1471.9</ele>
        <time>2021-07-03T10:38:48.000Z</time>
      </trkpt>
      <trkpt lat="42.008765" lon="-2.786413">
        <ele>1471.8</ele>
        <time>2021-07-03T10:38:49.000Z</time>
      </trkpt>
      <trkpt lat="42.008767" lon="-2.786413">
        <ele>1472.3</ele>
        <time>2021-07-03T10:39:02.000Z</time>
      </trkpt>
      <trkpt lat="42.008767" lon="-2.786413">
        <ele>1472.3</ele>
        <time>2021-07-03T10:39:03.000Z</time>
      </trkpt>
      <trkpt lat="42.008768" lon="-2.786413">
        <ele>1472.3</ele>
        <time>2021-07-03T10:39:24.000Z</time>
      </trkpt>
      <trkpt lat="42.008767" lon="-2.786415">
        <ele>1472.6</ele>
        <time>2021-07-03T10:39:26.000Z</time>
      </trkpt>
      <trkpt lat="42.008768" lon="-2.786417">
        <ele>1472.8</ele>
        <time>2021-07-03T10:39:28.000Z</time>
      </trkpt>
      <trkpt lat="42.008768" lon="-2.786417">
        <ele>1472.7</ele>
        <time>2021-07-03T10:39:29.000Z</time>
      </trkpt>
      <trkpt lat="42.008770" lon="-2.786418">
        <ele>1472.7</ele>
        <time>2021-07-03T10:39:31.000Z</time>
      </trkpt>
      <trkpt lat="42.008770" lon="-2.786418">
        <ele>1472.8</ele>
        <time>2021-07-03T10:39:32.000Z</time>
      </trkpt>
      <trkpt lat="42.008772" lon="-2.786418">
        <ele>1472.9</ele>
        <time>2021-07-03T10:39:41.000Z</time>
      </trkpt>
      <trkpt lat="42.008772" lon="-2.786418">
        <ele>1472.9</ele>
        <time>2021-07-03T10:39:42.000Z</time>
      </trkpt>
      <trkpt lat="42.008773" lon="-2.786418">
        <ele>1473.5</ele>
        <time>2021-07-03T10:40:16.000Z</time>
      </trkpt>
      <trkpt lat="42.008790" lon="-2.786410">
        <ele>1473.5</ele>
        <time>2021-07-03T10:40:21.000Z</time>
      </trkpt>
      <trkpt lat="42.008792" lon="-2.786415">
        <ele>1473.4</ele>
        <time>2021-07-03T10:40:22.000Z</time>
      </trkpt>
      <trkpt lat="42.008803" lon="-2.786447">
        <ele>1473.6</ele>
        <time>2021-07-03T10:40:32.000Z</time>
      </trkpt>
      <trkpt lat="42.008802" lon="-2.786448">
        <ele>1474.2</ele>
        <time>2021-07-03T10:40:55.000Z</time>
      </trkpt>
      <trkpt lat="42.008802" lon="-2.786448">
        <ele>1474.2</ele>
        <time>2021-07-03T10:40:56.000Z</time>
      </trkpt>
      <trkpt lat="42.008800" lon="-2.786448">
        <ele>1474.3</ele>
        <time>2021-07-03T10:41:07.000Z</time>
      </trkpt>
      <trkpt lat="42.008800" lon="-2.786448">
        <ele>1474.3</ele>
        <time>2021-07-03T10:41:08.000Z</time>
      </trkpt>
      <trkpt lat="42.008802" lon="-2.786450">
        <ele>1474.4</ele>
        <time>2021-07-03T10:41:31.000Z</time>
      </trkpt>
      <trkpt lat="42.008802" lon="-2.786450">
        <ele>1475.1</ele>
        <time>2021-07-03T10:41:32.000Z</time>
      </trkpt>
      <trkpt lat="42.008802" lon="-2.786455">
        <ele>1474.6</ele>
        <time>2021-07-03T10:41:38.000Z</time>
      </trkpt>
      <trkpt lat="42.008802" lon="-2.786462">
        <ele>1474.4</ele>
        <time>2021-07-03T10:41:40.000Z</time>
      </trkpt>
      <trkpt lat="42.008803" lon="-2.786462">
        <ele>1474.5</ele>
        <time>2021-07-03T10:41:41.000Z</time>
      </trkpt>
      <trkpt lat="42.008803" lon="-2.786462">
        <ele>1474.8</ele>
        <time>2021-07-03T10:41:42.000Z</time>
      </trkpt>
      <trkpt lat="42.008802" lon="-2.786468">
        <ele>1474.5</ele>
        <time>2021-07-03T10:41:55.000Z</time>
      </trkpt>
      <trkpt lat="42.008793" lon="-2.786600">
        <ele>1473.7</ele>
        <time>2021-07-03T10:42:00.000Z</time>
      </trkpt>
      <trkpt lat="42.008807" lon="-2.786723">
        <ele>1473.7</ele>
        <time>2021-07-03T10:42:03.000Z</time>
      </trkpt>
      <trkpt lat="42.008855" lon="-2.786865">
        <ele>1474.7</ele>
        <time>2021-07-03T10:42:06.000Z</time>
      </trkpt>
      <trkpt lat="42.008923" lon="-2.787002">
        <ele>1472.6</ele>
        <time>2021-07-03T10:42:09.000Z</time>
      </trkpt>
      <trkpt lat="42.008972" lon="-2.787115">
        <ele>1472.3</ele>
        <time>2021-07-03T10:42:11.000Z</time>
      </trkpt>
      <trkpt lat="42.009015" lon="-2.787243">
        <ele>1469.2</ele>
        <time>2021-07-03T10:42:13.000Z</time>
      </trkpt>
      <trkpt lat="42.009058" lon="-2.787372">
        <ele>1467.6</ele>
        <time>2021-07-03T10:42:15.000Z</time>
      </trkpt>
      <trkpt lat="42.009105" lon="-2.787498">
        <ele>1469.8</ele>
        <time>2021-07-03T10:42:17.000Z</time>
      </trkpt>
      <trkpt lat="42.009153" lon="-2.787647">
        <ele>1467.9</ele>
        <time>2021-07-03T10:42:19.000Z</time>
      </trkpt>
      <trkpt lat="42.009208" lon="-2.787813">
        <ele>1467.2</ele>
        <time>2021-07-03T10:42:21.000Z</time>
      </trkpt>
      <trkpt lat="42.009265" lon="-2.787973">
        <ele>1467.5</ele>
        <time>2021-07-03T10:42:23.000Z</time>
      </trkpt>
      <trkpt lat="42.009315" lon="-2.788132">
        <ele>1467.3</ele>
        <time>2021-07-03T10:42:25.000Z</time>
      </trkpt>
      <trkpt lat="42.009368" lon="-2.788287">
        <ele>1466.9</ele>
        <time>2021-07-03T10:42:27.000Z</time>
      </trkpt>
      <trkpt lat="42.009427" lon="-2.788432">
        <ele>1464.0</ele>
        <time>2021-07-03T10:42:29.000Z</time>
      </trkpt>
      <trkpt lat="42.009477" lon="-2.788585">
        <ele>1462.9</ele>
        <time>2021-07-03T10:42:31.000Z</time>
      </trkpt>
      <trkpt lat="42.009520" lon="-2.788743">
        <ele>1465.1</ele>
        <time>2021-07-03T10:42:33.000Z</time>
      </trkpt>
      <trkpt lat="42.009567" lon="-2.788888">
        <ele>1461.4</ele>
        <time>2021-07-03T10:42:35.000Z</time>
      </trkpt>
      <trkpt lat="42.009628" lon="-2.789012">
        <ele>1459.4</ele>
        <time>2021-07-03T10:42:37.000Z</time>
      </trkpt>
      <trkpt lat="42.009688" lon="-2.789127">
        <ele>1459.2</ele>
        <time>2021-07-03T10:42:39.000Z</time>
      </trkpt>
      <trkpt lat="42.009755" lon="-2.789238">
        <ele>1457.6</ele>
        <time>2021-07-03T10:42:41.000Z</time>
      </trkpt>
      <trkpt lat="42.009825" lon="-2.789347">
        <ele>1455.9</ele>
        <time>2021-07-03T10:42:43.000Z</time>
      </trkpt>
      <trkpt lat="42.009897" lon="-2.789425">
        <ele>1456.0</ele>
        <time>2021-07-03T10:42:45.000Z</time>
      </trkpt>
      <trkpt lat="42.009983" lon="-2.789460">
        <ele>1456.8</ele>
        <time>2021-07-03T10:42:48.000Z</time>
      </trkpt>
      <trkpt lat="42.010082" lon="-2.789478">
        <ele>1457.6</ele>
        <time>2021-07-03T10:42:54.000Z</time>
      </trkpt>
      <trkpt lat="42.010168" lon="-2.789532">
        <ele>1458.2</ele>
        <time>2021-07-03T10:43:00.000Z</time>
      </trkpt>
      <trkpt lat="42.010180" lon="-2.789513">
        <ele>1458.7</ele>
        <time>2021-07-03T10:43:11.000Z</time>
      </trkpt>
      <trkpt lat="42.010182" lon="-2.789512">
        <ele>1458.4</ele>
        <time>2021-07-03T10:43:18.000Z</time>
      </trkpt>
      <trkpt lat="42.010272" lon="-2.789538">
        <ele>1459.5</ele>
        <time>2021-07-03T10:43:24.000Z</time>
      </trkpt>
      <trkpt lat="42.010370" lon="-2.789587">
        <ele>1460.9</ele>
        <time>2021-07-03T10:43:30.000Z</time>
      </trkpt>
      <trkpt lat="42.010462" lon="-2.789618">
        <ele>1461.4</ele>
        <time>2021-07-03T10:43:36.000Z</time>
      </trkpt>
      <trkpt lat="42.010548" lon="-2.789653">
        <ele>1461.6</ele>
        <time>2021-07-03T10:43:41.000Z</time>
      </trkpt>
      <trkpt lat="42.010647" lon="-2.789693">
        <ele>1462.2</ele>
        <time>2021-07-03T10:43:46.000Z</time>
      </trkpt>
      <trkpt lat="42.010748" lon="-2.789733">
        <ele>1463.0</ele>
        <time>2021-07-03T10:43:51.000Z</time>
      </trkpt>
      <trkpt lat="42.010833" lon="-2.789783">
        <ele>1463.4</ele>
        <time>2021-07-03T10:43:55.000Z</time>
      </trkpt>
      <trkpt lat="42.010938" lon="-2.789803">
        <ele>1464.1</ele>
        <time>2021-07-03T10:44:00.000Z</time>
      </trkpt>
      <trkpt lat="42.011040" lon="-2.789835">
        <ele>1464.3</ele>
        <time>2021-07-03T10:44:04.000Z</time>
      </trkpt>
      <trkpt lat="42.011135" lon="-2.789875">
        <ele>1464.9</ele>
        <time>2021-07-03T10:44:08.000Z</time>
      </trkpt>
      <trkpt lat="42.011223" lon="-2.789920">
        <ele>1465.5</ele>
        <time>2021-07-03T10:44:12.000Z</time>
      </trkpt>
      <trkpt lat="42.011313" lon="-2.789965">
        <ele>1466.2</ele>
        <time>2021-07-03T10:44:16.000Z</time>
      </trkpt>
      <trkpt lat="42.011398" lon="-2.790010">
        <ele>1467.0</ele>
        <time>2021-07-03T10:44:20.000Z</time>
      </trkpt>
      <trkpt lat="42.011487" lon="-2.790038">
        <ele>1467.4</ele>
        <time>2021-07-03T10:44:24.000Z</time>
      </trkpt>
      <trkpt lat="42.011583" lon="-2.790095">
        <ele>1468.1</ele>
        <time>2021-07-03T10:44:29.000Z</time>
      </trkpt>
      <trkpt lat="42.011680" lon="-2.790140">
        <ele>1468.7</ele>
        <time>2021-07-03T10:44:34.000Z</time>
      </trkpt>
      <trkpt lat="42.011775" lon="-2.790177">
        <ele>1470.0</ele>
        <time>2021-07-03T10:44:39.000Z</time>
      </trkpt>
      <trkpt lat="42.011873" lon="-2.790227">
        <ele>1470.5</ele>
        <time>2021-07-03T10:44:44.000Z</time>
      </trkpt>
      <trkpt lat="42.011968" lon="-2.790273">
        <ele>1471.6</ele>
        <time>2021-07-03T10:44:49.000Z</time>
      </trkpt>
      <trkpt lat="42.012063" lon="-2.790307">
        <ele>1472.5</ele>
        <time>2021-07-03T10:44:54.000Z</time>
      </trkpt>
      <trkpt lat="42.012165" lon="-2.790343">
        <ele>1473.3</ele>
        <time>2021-07-03T10:44:59.000Z</time>
      </trkpt>
      <trkpt lat="42.012260" lon="-2.790385">
        <ele>1474.1</ele>
        <time>2021-07-03T10:45:04.000Z</time>
      </trkpt>
      <trkpt lat="42.012365" lon="-2.790402">
        <ele>1474.6</ele>
        <time>2021-07-03T10:45:09.000Z</time>
      </trkpt>
      <trkpt lat="42.012463" lon="-2.790427">
        <ele>1475.3</ele>
        <time>2021-07-03T10:45:14.000Z</time>
      </trkpt>
      <trkpt lat="42.012563" lon="-2.790460">
        <ele>1475.9</ele>
        <time>2021-07-03T10:45:19.000Z</time>
      </trkpt>
      <trkpt lat="42.012667" lon="-2.790452">
        <ele>1477.0</ele>
        <time>2021-07-03T10:45:24.000Z</time>
      </trkpt>
      <trkpt lat="42.012763" lon="-2.790463">
        <ele>1477.8</ele>
        <time>2021-07-03T10:45:29.000Z</time>
      </trkpt>
      <trkpt lat="42.012865" lon="-2.790467">
        <ele>1478.5</ele>
        <time>2021-07-03T10:45:34.000Z</time>
      </trkpt>
      <trkpt lat="42.012962" lon="-2.790463">
        <ele>1479.0</ele>
        <time>2021-07-03T10:45:39.000Z</time>
      </trkpt>
      <trkpt lat="42.013057" lon="-2.790467">
        <ele>1479.7</ele>
        <time>2021-07-03T10:45:44.000Z</time>
      </trkpt>
      <trkpt lat="42.013148" lon="-2.790460">
        <ele>1480.7</ele>
        <time>2021-07-03T10:45:49.000Z</time>
      </trkpt>
      <trkpt lat="42.013255" lon="-2.790443">
        <ele>1481.4</ele>
        <time>2021-07-03T10:45:55.000Z</time>
      </trkpt>
      <trkpt lat="42.013345" lon="-2.790420">
        <ele>1481.6</ele>
        <time>2021-07-03T10:46:00.000Z</time>
      </trkpt>
      <trkpt lat="42.013443" lon="-2.790387">
        <ele>1482.9</ele>
        <time>2021-07-03T10:46:05.000Z</time>
      </trkpt>
      <trkpt lat="42.013542" lon="-2.790352">
        <ele>1483.3</ele>
        <time>2021-07-03T10:46:10.000Z</time>
      </trkpt>
      <trkpt lat="42.013632" lon="-2.790332">
        <ele>1484.2</ele>
        <time>2021-07-03T10:46:15.000Z</time>
      </trkpt>
      <trkpt lat="42.013735" lon="-2.790300">
        <ele>1485.0</ele>
        <time>2021-07-03T10:46:21.000Z</time>
      </trkpt>
      <trkpt lat="42.013830" lon="-2.790275">
        <ele>1485.8</ele>
        <time>2021-07-03T10:46:27.000Z</time>
      </trkpt>
      <trkpt lat="42.013918" lon="-2.790228">
        <ele>1486.0</ele>
        <time>2021-07-03T10:46:32.000Z</time>
      </trkpt>
      <trkpt lat="42.014012" lon="-2.790193">
        <ele>1486.8</ele>
        <time>2021-07-03T10:46:37.000Z</time>
      </trkpt>
      <trkpt lat="42.014113" lon="-2.790170">
        <ele>1487.9</ele>
        <time>2021-07-03T10:46:43.000Z</time>
      </trkpt>
      <trkpt lat="42.014210" lon="-2.790135">
        <ele>1488.8</ele>
        <time>2021-07-03T10:46:48.000Z</time>
      </trkpt>
      <trkpt lat="42.014305" lon="-2.790112">
        <ele>1489.9</ele>
        <time>2021-07-03T10:46:53.000Z</time>
      </trkpt>
      <trkpt lat="42.014398" lon="-2.790087">
        <ele>1490.4</ele>
        <time>2021-07-03T10:46:58.000Z</time>
      </trkpt>
      <trkpt lat="42.014500" lon="-2.790072">
        <ele>1491.6</ele>
        <time>2021-07-03T10:47:04.000Z</time>
      </trkpt>
      <trkpt lat="42.014605" lon="-2.790043">
        <ele>1492.7</ele>
        <time>2021-07-03T10:47:10.000Z</time>
      </trkpt>
      <trkpt lat="42.014695" lon="-2.790008">
        <ele>1493.4</ele>
        <time>2021-07-03T10:47:15.000Z</time>
      </trkpt>
      <trkpt lat="42.014795" lon="-2.789975">
        <ele>1494.1</ele>
        <time>2021-07-03T10:47:20.000Z</time>
      </trkpt>
      <trkpt lat="42.014897" lon="-2.789953">
        <ele>1495.0</ele>
        <time>2021-07-03T10:47:26.000Z</time>
      </trkpt>
      <trkpt lat="42.014983" lon="-2.789920">
        <ele>1495.7</ele>
        <time>2021-07-03T10:47:31.000Z</time>
      </trkpt>
      <trkpt lat="42.015087" lon="-2.789883">
        <ele>1496.8</ele>
        <time>2021-07-03T10:47:37.000Z</time>
      </trkpt>
      <trkpt lat="42.015188" lon="-2.789838">
        <ele>1497.5</ele>
        <time>2021-07-03T10:47:42.000Z</time>
      </trkpt>
      <trkpt lat="42.015287" lon="-2.789790">
        <ele>1498.6</ele>
        <time>2021-07-03T10:47:47.000Z</time>
      </trkpt>
      <trkpt lat="42.015382" lon="-2.789750">
        <ele>1499.4</ele>
        <time>2021-07-03T10:47:52.000Z</time>
      </trkpt>
      <trkpt lat="42.015480" lon="-2.789713">
        <ele>1500.4</ele>
        <time>2021-07-03T10:47:57.000Z</time>
      </trkpt>
      <trkpt lat="42.015575" lon="-2.789665">
        <ele>1501.2</ele>
        <time>2021-07-03T10:48:02.000Z</time>
      </trkpt>
      <trkpt lat="42.015667" lon="-2.789643">
        <ele>1501.7</ele>
        <time>2021-07-03T10:48:07.000Z</time>
      </trkpt>
      <trkpt lat="42.015762" lon="-2.789612">
        <ele>1502.9</ele>
        <time>2021-07-03T10:48:13.000Z</time>
      </trkpt>
      <trkpt lat="42.015858" lon="-2.789588">
        <ele>1503.3</ele>
        <time>2021-07-03T10:48:19.000Z</time>
      </trkpt>
      <trkpt lat="42.015952" lon="-2.789555">
        <ele>1504.5</ele>
        <time>2021-07-03T10:48:25.000Z</time>
      </trkpt>
      <trkpt lat="42.016053" lon="-2.789520">
        <ele>1505.0</ele>
        <time>2021-07-03T10:48:31.000Z</time>
      </trkpt>
      <trkpt lat="42.016150" lon="-2.789498">
        <ele>1505.6</ele>
        <time>2021-07-03T10:48:36.000Z</time>
      </trkpt>
      <trkpt lat="42.016245" lon="-2.789473">
        <ele>1506.2</ele>
        <time>2021-07-03T10:48:42.000Z</time>
      </trkpt>
      <trkpt lat="42.016332" lon="-2.789432">
        <ele>1506.9</ele>
        <time>2021-07-03T10:48:47.000Z</time>
      </trkpt>
      <trkpt lat="42.016423" lon="-2.789375">
        <ele>1507.0</ele>
        <time>2021-07-03T10:48:52.000Z</time>
      </trkpt>
      <trkpt lat="42.016508" lon="-2.789318">
        <ele>1508.1</ele>
        <time>2021-07-03T10:48:57.000Z</time>
      </trkpt>
      <trkpt lat="42.016597" lon="-2.789242">
        <ele>1508.7</ele>
        <time>2021-07-03T10:49:03.000Z</time>
      </trkpt>
      <trkpt lat="42.016687" lon="-2.789165">
        <ele>1509.5</ele>
        <time>2021-07-03T10:49:09.000Z</time>
      </trkpt>
      <trkpt lat="42.016775" lon="-2.789092">
        <ele>1510.8</ele>
        <time>2021-07-03T10:49:15.000Z</time>
      </trkpt>
      <trkpt lat="42.016853" lon="-2.789010">
        <ele>1511.3</ele>
        <time>2021-07-03T10:49:21.000Z</time>
      </trkpt>
      <trkpt lat="42.016937" lon="-2.788933">
        <ele>1511.9</ele>
        <time>2021-07-03T10:49:27.000Z</time>
      </trkpt>
      <trkpt lat="42.017023" lon="-2.788863">
        <ele>1512.6</ele>
        <time>2021-07-03T10:49:33.000Z</time>
      </trkpt>
      <trkpt lat="42.017103" lon="-2.788787">
        <ele>1513.2</ele>
        <time>2021-07-03T10:49:39.000Z</time>
      </trkpt>
      <trkpt lat="42.017192" lon="-2.788727">
        <ele>1514.6</ele>
        <time>2021-07-03T10:49:45.000Z</time>
      </trkpt>
      <trkpt lat="42.017273" lon="-2.788645">
        <ele>1515.3</ele>
        <time>2021-07-03T10:49:51.000Z</time>
      </trkpt>
      <trkpt lat="42.017355" lon="-2.788568">
        <ele>1516.6</ele>
        <time>2021-07-03T10:49:57.000Z</time>
      </trkpt>
      <trkpt lat="42.017438" lon="-2.788492">
        <ele>1517.5</ele>
        <time>2021-07-03T10:50:03.000Z</time>
      </trkpt>
      <trkpt lat="42.017523" lon="-2.788422">
        <ele>1518.5</ele>
        <time>2021-07-03T10:50:09.000Z</time>
      </trkpt>
      <trkpt lat="42.017602" lon="-2.788338">
        <ele>1519.1</ele>
        <time>2021-07-03T10:50:15.000Z</time>
      </trkpt>
      <trkpt lat="42.017693" lon="-2.788267">
        <ele>1519.7</ele>
        <time>2021-07-03T10:50:21.000Z</time>
      </trkpt>
      <trkpt lat="42.017775" lon="-2.788192">
        <ele>1520.6</ele>
        <time>2021-07-03T10:50:27.000Z</time>
      </trkpt>
      <trkpt lat="42.017857" lon="-2.788113">
        <ele>1521.8</ele>
        <time>2021-07-03T10:50:33.000Z</time>
      </trkpt>
      <trkpt lat="42.017942" lon="-2.788033">
        <ele>1522.4</ele>
        <time>2021-07-03T10:50:39.000Z</time>
      </trkpt>
      <trkpt lat="42.018030" lon="-2.787962">
        <ele>1523.3</ele>
        <time>2021-07-03T10:50:45.000Z</time>
      </trkpt>
      <trkpt lat="42.018110" lon="-2.787865">
        <ele>1524.0</ele>
        <time>2021-07-03T10:50:51.000Z</time>
      </trkpt>
      <trkpt lat="42.018200" lon="-2.787793">
        <ele>1524.6</ele>
        <time>2021-07-03T10:50:57.000Z</time>
      </trkpt>
      <trkpt lat="42.018277" lon="-2.787710">
        <ele>1525.2</ele>
        <time>2021-07-03T10:51:03.000Z</time>
      </trkpt>
      <trkpt lat="42.018353" lon="-2.787618">
        <ele>1526.1</ele>
        <time>2021-07-03T10:51:09.000Z</time>
      </trkpt>
      <trkpt lat="42.018435" lon="-2.787533">
        <ele>1526.7</ele>
        <time>2021-07-03T10:51:15.000Z</time>
      </trkpt>
      <trkpt lat="42.018512" lon="-2.787468">
        <ele>1522.1</ele>
        <time>2021-07-03T10:51:20.000Z</time>
      </trkpt>
      <trkpt lat="42.018588" lon="-2.787382">
        <ele>1525.7</ele>
        <time>2021-07-03T10:51:26.000Z</time>
      </trkpt>
      <trkpt lat="42.018672" lon="-2.787307">
        <ele>1528.8</ele>
        <time>2021-07-03T10:51:32.000Z</time>
      </trkpt>
      <trkpt lat="42.018758" lon="-2.787228">
        <ele>1529.6</ele>
        <time>2021-07-03T10:51:38.000Z</time>
      </trkpt>
      <trkpt lat="42.018837" lon="-2.787138">
        <ele>1530.5</ele>
        <time>2021-07-03T10:51:44.000Z</time>
      </trkpt>
      <trkpt lat="42.018922" lon="-2.787058">
        <ele>1531.6</ele>
        <time>2021-07-03T10:51:50.000Z</time>
      </trkpt>
      <trkpt lat="42.018998" lon="-2.786972">
        <ele>1532.8</ele>
        <time>2021-07-03T10:51:56.000Z</time>
      </trkpt>
      <trkpt lat="42.019087" lon="-2.786892">
        <ele>1533.5</ele>
        <time>2021-07-03T10:52:02.000Z</time>
      </trkpt>
      <trkpt lat="42.019170" lon="-2.786815">
        <ele>1534.6</ele>
        <time>2021-07-03T10:52:08.000Z</time>
      </trkpt>
      <trkpt lat="42.019260" lon="-2.786742">
        <ele>1535.1</ele>
        <time>2021-07-03T10:52:14.000Z</time>
      </trkpt>
      <trkpt lat="42.019338" lon="-2.786657">
        <ele>1535.7</ele>
        <time>2021-07-03T10:52:20.000Z</time>
      </trkpt>
      <trkpt lat="42.019425" lon="-2.786588">
        <ele>1536.4</ele>
        <time>2021-07-03T10:52:26.000Z</time>
      </trkpt>
      <trkpt lat="42.019505" lon="-2.786508">
        <ele>1536.9</ele>
        <time>2021-07-03T10:52:32.000Z</time>
      </trkpt>
      <trkpt lat="42.019580" lon="-2.786415">
        <ele>1537.7</ele>
        <time>2021-07-03T10:52:38.000Z</time>
      </trkpt>
      <trkpt lat="42.019657" lon="-2.786332">
        <ele>1538.5</ele>
        <time>2021-07-03T10:52:44.000Z</time>
      </trkpt>
      <trkpt lat="42.019728" lon="-2.786242">
        <ele>1539.7</ele>
        <time>2021-07-03T10:52:50.000Z</time>
      </trkpt>
      <trkpt lat="42.019793" lon="-2.786140">
        <ele>1540.6</ele>
        <time>2021-07-03T10:52:56.000Z</time>
      </trkpt>
      <trkpt lat="42.019860" lon="-2.786042">
        <ele>1540.7</ele>
        <time>2021-07-03T10:53:02.000Z</time>
      </trkpt>
      <trkpt lat="42.019918" lon="-2.785933">
        <ele>1541.9</ele>
        <time>2021-07-03T10:53:08.000Z</time>
      </trkpt>
      <trkpt lat="42.019970" lon="-2.785815">
        <ele>1542.1</ele>
        <time>2021-07-03T10:53:14.000Z</time>
      </trkpt>
      <trkpt lat="42.020025" lon="-2.785702">
        <ele>1543.2</ele>
        <time>2021-07-03T10:53:20.000Z</time>
      </trkpt>
      <trkpt lat="42.020065" lon="-2.785580">
        <ele>1543.6</ele>
        <time>2021-07-03T10:53:26.000Z</time>
      </trkpt>
      <trkpt lat="42.020100" lon="-2.785447">
        <ele>1544.5</ele>
        <time>2021-07-03T10:53:32.000Z</time>
      </trkpt>
      <trkpt lat="42.020137" lon="-2.785318">
        <ele>1544.8</ele>
        <time>2021-07-03T10:53:38.000Z</time>
      </trkpt>
      <trkpt lat="42.020162" lon="-2.785182">
        <ele>1545.0</ele>
        <time>2021-07-03T10:53:44.000Z</time>
      </trkpt>
      <trkpt lat="42.020180" lon="-2.785055">
        <ele>1545.3</ele>
        <time>2021-07-03T10:53:49.000Z</time>
      </trkpt>
      <trkpt lat="42.020198" lon="-2.784930">
        <ele>1545.1</ele>
        <time>2021-07-03T10:53:54.000Z</time>
      </trkpt>
      <trkpt lat="42.020200" lon="-2.784807">
        <ele>1545.4</ele>
        <time>2021-07-03T10:53:59.000Z</time>
      </trkpt>
      <trkpt lat="42.020205" lon="-2.784665">
        <ele>1546.3</ele>
        <time>2021-07-03T10:54:05.000Z</time>
      </trkpt>
      <trkpt lat="42.020205" lon="-2.784527">
        <ele>1546.9</ele>
        <time>2021-07-03T10:54:11.000Z</time>
      </trkpt>
      <trkpt lat="42.020208" lon="-2.784390">
        <ele>1547.7</ele>
        <time>2021-07-03T10:54:17.000Z</time>
      </trkpt>
      <trkpt lat="42.020227" lon="-2.784253">
        <ele>1548.3</ele>
        <time>2021-07-03T10:54:23.000Z</time>
      </trkpt>
      <trkpt lat="42.020225" lon="-2.784120">
        <ele>1549.2</ele>
        <time>2021-07-03T10:54:29.000Z</time>
      </trkpt>
      <trkpt lat="42.020248" lon="-2.783990">
        <ele>1549.6</ele>
        <time>2021-07-03T10:54:35.000Z</time>
      </trkpt>
      <trkpt lat="42.020277" lon="-2.783860">
        <ele>1549.9</ele>
        <time>2021-07-03T10:54:41.000Z</time>
      </trkpt>
      <trkpt lat="42.020308" lon="-2.783732">
        <ele>1550.7</ele>
        <time>2021-07-03T10:54:47.000Z</time>
      </trkpt>
      <trkpt lat="42.020345" lon="-2.783598">
        <ele>1551.9</ele>
        <time>2021-07-03T10:54:53.000Z</time>
      </trkpt>
      <trkpt lat="42.020387" lon="-2.783465">
        <ele>1552.4</ele>
        <time>2021-07-03T10:54:59.000Z</time>
      </trkpt>
      <trkpt lat="42.020433" lon="-2.783360">
        <ele>1552.8</ele>
        <time>2021-07-03T10:55:04.000Z</time>
      </trkpt>
      <trkpt lat="42.020488" lon="-2.783237">
        <ele>1553.3</ele>
        <time>2021-07-03T10:55:10.000Z</time>
      </trkpt>
      <trkpt lat="42.020545" lon="-2.783142">
        <ele>1553.7</ele>
        <time>2021-07-03T10:55:15.000Z</time>
      </trkpt>
      <trkpt lat="42.020605" lon="-2.783050">
        <ele>1554.3</ele>
        <time>2021-07-03T10:55:20.000Z</time>
      </trkpt>
      <trkpt lat="42.020658" lon="-2.782937">
        <ele>1554.2</ele>
        <time>2021-07-03T10:55:26.000Z</time>
      </trkpt>
      <trkpt lat="42.020718" lon="-2.782837">
        <ele>1555.6</ele>
        <time>2021-07-03T10:55:32.000Z</time>
      </trkpt>
      <trkpt lat="42.020777" lon="-2.782738">
        <ele>1555.8</ele>
        <time>2021-07-03T10:55:38.000Z</time>
      </trkpt>
      <trkpt lat="42.020838" lon="-2.782647">
        <ele>1556.9</ele>
        <time>2021-07-03T10:55:44.000Z</time>
      </trkpt>
      <trkpt lat="42.020893" lon="-2.782528">
        <ele>1557.6</ele>
        <time>2021-07-03T10:55:51.000Z</time>
      </trkpt>
      <trkpt lat="42.020947" lon="-2.782428">
        <ele>1558.3</ele>
        <time>2021-07-03T10:55:57.000Z</time>
      </trkpt>
      <trkpt lat="42.021005" lon="-2.782330">
        <ele>1558.9</ele>
        <time>2021-07-03T10:56:03.000Z</time>
      </trkpt>
      <trkpt lat="42.021032" lon="-2.782238">
        <ele>1559.1</ele>
        <time>2021-07-03T10:56:10.000Z</time>
      </trkpt>
      <trkpt lat="42.021030" lon="-2.782237">
        <ele>1559.1</ele>
        <time>2021-07-03T10:56:11.000Z</time>
      </trkpt>
      <trkpt lat="42.021047" lon="-2.782178">
        <ele>1559.3</ele>
        <time>2021-07-03T10:56:20.000Z</time>
      </trkpt>
      <trkpt lat="42.021048" lon="-2.782180">
        <ele>1559.3</ele>
        <time>2021-07-03T10:56:24.000Z</time>
      </trkpt>
      <trkpt lat="42.021048" lon="-2.782180">
        <ele>1558.4</ele>
        <time>2021-07-03T10:56:25.000Z</time>
      </trkpt>
      <trkpt lat="42.021047" lon="-2.782182">
        <ele>1556.7</ele>
        <time>2021-07-03T10:59:26.000Z</time>
      </trkpt>
      <trkpt lat="42.021047" lon="-2.782182">
        <ele>1556.7</ele>
        <time>2021-07-03T10:59:27.000Z</time>
      </trkpt>
      <trkpt lat="42.021053" lon="-2.782182">
        <ele>1555.0</ele>
        <time>2021-07-03T11:01:49.000Z</time>
      </trkpt>
      <trkpt lat="42.021082" lon="-2.782170">
        <ele>1555.1</ele>
        <time>2021-07-03T11:01:56.000Z</time>
      </trkpt>
      <trkpt lat="42.021085" lon="-2.782172">
        <ele>1555.2</ele>
        <time>2021-07-03T11:02:02.000Z</time>
      </trkpt>
      <trkpt lat="42.021085" lon="-2.782172">
        <ele>1555.1</ele>
        <time>2021-07-03T11:02:05.000Z</time>
      </trkpt>
      <trkpt lat="42.021087" lon="-2.782173">
        <ele>1555.6</ele>
        <time>2021-07-03T11:02:11.000Z</time>
      </trkpt>
      <trkpt lat="42.021087" lon="-2.782173">
        <ele>1555.2</ele>
        <time>2021-07-03T11:02:12.000Z</time>
      </trkpt>
      <trkpt lat="42.021092" lon="-2.782173">
        <ele>1551.7</ele>
        <time>2021-07-03T11:02:23.000Z</time>
      </trkpt>
      <trkpt lat="42.021170" lon="-2.782083">
        <ele>1555.2</ele>
        <time>2021-07-03T11:02:30.000Z</time>
      </trkpt>
      <trkpt lat="42.021217" lon="-2.781972">
        <ele>1556.1</ele>
        <time>2021-07-03T11:02:37.000Z</time>
      </trkpt>
      <trkpt lat="42.021285" lon="-2.781892">
        <ele>1556.2</ele>
        <time>2021-07-03T11:02:43.000Z</time>
      </trkpt>
      <trkpt lat="42.021353" lon="-2.781803">
        <ele>1557.1</ele>
        <time>2021-07-03T11:02:49.000Z</time>
      </trkpt>
      <trkpt lat="42.021428" lon="-2.781712">
        <ele>1558.1</ele>
        <time>2021-07-03T11:02:55.000Z</time>
      </trkpt>
      <trkpt lat="42.021512" lon="-2.781623">
        <ele>1558.5</ele>
        <time>2021-07-03T11:03:01.000Z</time>
      </trkpt>
      <trkpt lat="42.021593" lon="-2.781540">
        <ele>1558.9</ele>
        <time>2021-07-03T11:03:07.000Z</time>
      </trkpt>
      <trkpt lat="42.021668" lon="-2.781460">
        <ele>1559.2</ele>
        <time>2021-07-03T11:03:12.000Z</time>
      </trkpt>
      <trkpt lat="42.021743" lon="-2.781383">
        <ele>1559.8</ele>
        <time>2021-07-03T11:03:17.000Z</time>
      </trkpt>
      <trkpt lat="42.021815" lon="-2.781302">
        <ele>1559.6</ele>
        <time>2021-07-03T11:03:22.000Z</time>
      </trkpt>
      <trkpt lat="42.021887" lon="-2.781200">
        <ele>1560.4</ele>
        <time>2021-07-03T11:03:28.000Z</time>
      </trkpt>
      <trkpt lat="42.021953" lon="-2.781097">
        <ele>1561.4</ele>
        <time>2021-07-03T11:03:34.000Z</time>
      </trkpt>
      <trkpt lat="42.022013" lon="-2.781000">
        <ele>1561.9</ele>
        <time>2021-07-03T11:03:40.000Z</time>
      </trkpt>
      <trkpt lat="42.022065" lon="-2.780888">
        <ele>1562.7</ele>
        <time>2021-07-03T11:03:46.000Z</time>
      </trkpt>
      <trkpt lat="42.022123" lon="-2.780783">
        <ele>1563.8</ele>
        <time>2021-07-03T11:03:53.000Z</time>
      </trkpt>
      <trkpt lat="42.022177" lon="-2.780673">
        <ele>1564.4</ele>
        <time>2021-07-03T11:04:00.000Z</time>
      </trkpt>
      <trkpt lat="42.022225" lon="-2.780562">
        <ele>1565.8</ele>
        <time>2021-07-03T11:04:07.000Z</time>
      </trkpt>
      <trkpt lat="42.022268" lon="-2.780445">
        <ele>1566.4</ele>
        <time>2021-07-03T11:04:14.000Z</time>
      </trkpt>
      <trkpt lat="42.022292" lon="-2.780325">
        <ele>1567.3</ele>
        <time>2021-07-03T11:04:20.000Z</time>
      </trkpt>
      <trkpt lat="42.022317" lon="-2.780205">
        <ele>1568.5</ele>
        <time>2021-07-03T11:04:27.000Z</time>
      </trkpt>
      <trkpt lat="42.022327" lon="-2.780072">
        <ele>1569.1</ele>
        <time>2021-07-03T11:04:34.000Z</time>
      </trkpt>
      <trkpt lat="42.022328" lon="-2.779945">
        <ele>1570.5</ele>
        <time>2021-07-03T11:04:41.000Z</time>
      </trkpt>
      <trkpt lat="42.022317" lon="-2.779807">
        <ele>1570.6</ele>
        <time>2021-07-03T11:04:48.000Z</time>
      </trkpt>
      <trkpt lat="42.022307" lon="-2.779682">
        <ele>1571.3</ele>
        <time>2021-07-03T11:04:54.000Z</time>
      </trkpt>
      <trkpt lat="42.022295" lon="-2.779555">
        <ele>1571.5</ele>
        <time>2021-07-03T11:05:00.000Z</time>
      </trkpt>
      <trkpt lat="42.022285" lon="-2.779428">
        <ele>1571.9</ele>
        <time>2021-07-03T11:05:06.000Z</time>
      </trkpt>
      <trkpt lat="42.022278" lon="-2.779297">
        <ele>1572.3</ele>
        <time>2021-07-03T11:05:12.000Z</time>
      </trkpt>
      <trkpt lat="42.022273" lon="-2.779167">
        <ele>1572.6</ele>
        <time>2021-07-03T11:05:18.000Z</time>
      </trkpt>
      <trkpt lat="42.022273" lon="-2.779037">
        <ele>1573.1</ele>
        <time>2021-07-03T11:05:24.000Z</time>
      </trkpt>
      <trkpt lat="42.022267" lon="-2.778903">
        <ele>1573.7</ele>
        <time>2021-07-03T11:05:30.000Z</time>
      </trkpt>
      <trkpt lat="42.022252" lon="-2.778775">
        <ele>1574.3</ele>
        <time>2021-07-03T11:05:36.000Z</time>
      </trkpt>
      <trkpt lat="42.022245" lon="-2.778643">
        <ele>1574.8</ele>
        <time>2021-07-03T11:05:42.000Z</time>
      </trkpt>
      <trkpt lat="42.022248" lon="-2.778507">
        <ele>1575.1</ele>
        <time>2021-07-03T11:05:48.000Z</time>
      </trkpt>
      <trkpt lat="42.022262" lon="-2.778377">
        <ele>1575.6</ele>
        <time>2021-07-03T11:05:54.000Z</time>
      </trkpt>
      <trkpt lat="42.022267" lon="-2.778248">
        <ele>1576.4</ele>
        <time>2021-07-03T11:06:00.000Z</time>
      </trkpt>
      <trkpt lat="42.022285" lon="-2.778120">
        <ele>1576.7</ele>
        <time>2021-07-03T11:06:06.000Z</time>
      </trkpt>
      <trkpt lat="42.022308" lon="-2.777990">
        <ele>1577.4</ele>
        <time>2021-07-03T11:06:12.000Z</time>
      </trkpt>
      <trkpt lat="42.022323" lon="-2.777853">
        <ele>1577.7</ele>
        <time>2021-07-03T11:06:18.000Z</time>
      </trkpt>
      <trkpt lat="42.022347" lon="-2.777725">
        <ele>1578.5</ele>
        <time>2021-07-03T11:06:24.000Z</time>
      </trkpt>
      <trkpt lat="42.022363" lon="-2.777595">
        <ele>1579.1</ele>
        <time>2021-07-03T11:06:30.000Z</time>
      </trkpt>
      <trkpt lat="42.022388" lon="-2.777458">
        <ele>1579.5</ele>
        <time>2021-07-03T11:06:36.000Z</time>
      </trkpt>
      <trkpt lat="42.022405" lon="-2.777337">
        <ele>1580.1</ele>
        <time>2021-07-03T11:06:41.000Z</time>
      </trkpt>
      <trkpt lat="42.022423" lon="-2.777198">
        <ele>1580.6</ele>
        <time>2021-07-03T11:06:47.000Z</time>
      </trkpt>
      <trkpt lat="42.022450" lon="-2.777060">
        <ele>1581.5</ele>
        <time>2021-07-03T11:06:53.000Z</time>
      </trkpt>
      <trkpt lat="42.022475" lon="-2.776925">
        <ele>1581.9</ele>
        <time>2021-07-03T11:06:59.000Z</time>
      </trkpt>
      <trkpt lat="42.022493" lon="-2.776785">
        <ele>1582.7</ele>
        <time>2021-07-03T11:07:05.000Z</time>
      </trkpt>
      <trkpt lat="42.022520" lon="-2.776647">
        <ele>1583.1</ele>
        <time>2021-07-03T11:07:11.000Z</time>
      </trkpt>
      <trkpt lat="42.022547" lon="-2.776510">
        <ele>1584.6</ele>
        <time>2021-07-03T11:07:17.000Z</time>
      </trkpt>
      <trkpt lat="42.022562" lon="-2.776373">
        <ele>1585.0</ele>
        <time>2021-07-03T11:07:23.000Z</time>
      </trkpt>
      <trkpt lat="42.022592" lon="-2.776247">
        <ele>1586.4</ele>
        <time>2021-07-03T11:07:29.000Z</time>
      </trkpt>
      <trkpt lat="42.022613" lon="-2.776123">
        <ele>1587.3</ele>
        <time>2021-07-03T11:07:35.000Z</time>
      </trkpt>
      <trkpt lat="42.022627" lon="-2.775993">
        <ele>1588.4</ele>
        <time>2021-07-03T11:07:41.000Z</time>
      </trkpt>
      <trkpt lat="42.022657" lon="-2.775868">
        <ele>1588.7</ele>
        <time>2021-07-03T11:07:47.000Z</time>
      </trkpt>
      <trkpt lat="42.022687" lon="-2.775738">
        <ele>1589.4</ele>
        <time>2021-07-03T11:07:53.000Z</time>
      </trkpt>
      <trkpt lat="42.022698" lon="-2.775605">
        <ele>1590.2</ele>
        <time>2021-07-03T11:07:59.000Z</time>
      </trkpt>
      <trkpt lat="42.022715" lon="-2.775473">
        <ele>1591.0</ele>
        <time>2021-07-03T11:08:05.000Z</time>
      </trkpt>
      <trkpt lat="42.022740" lon="-2.775345">
        <ele>1591.3</ele>
        <time>2021-07-03T11:08:11.000Z</time>
      </trkpt>
      <trkpt lat="42.022768" lon="-2.775225">
        <ele>1591.9</ele>
        <time>2021-07-03T11:08:17.000Z</time>
      </trkpt>
      <trkpt lat="42.022790" lon="-2.775100">
        <ele>1592.7</ele>
        <time>2021-07-03T11:08:23.000Z</time>
      </trkpt>
      <trkpt lat="42.022807" lon="-2.774977">
        <ele>1593.3</ele>
        <time>2021-07-03T11:08:29.000Z</time>
      </trkpt>
      <trkpt lat="42.022822" lon="-2.774853">
        <ele>1593.9</ele>
        <time>2021-07-03T11:08:35.000Z</time>
      </trkpt>
      <trkpt lat="42.022853" lon="-2.774733">
        <ele>1594.7</ele>
        <time>2021-07-03T11:08:41.000Z</time>
      </trkpt>
      <trkpt lat="42.022890" lon="-2.774613">
        <ele>1595.1</ele>
        <time>2021-07-03T11:08:47.000Z</time>
      </trkpt>
      <trkpt lat="42.022935" lon="-2.774485">
        <ele>1595.9</ele>
        <time>2021-07-03T11:08:53.000Z</time>
      </trkpt>
      <trkpt lat="42.022990" lon="-2.774377">
        <ele>1596.7</ele>
        <time>2021-07-03T11:08:58.000Z</time>
      </trkpt>
      <trkpt lat="42.023065" lon="-2.774278">
        <ele>1597.1</ele>
        <time>2021-07-03T11:09:04.000Z</time>
      </trkpt>
      <trkpt lat="42.023145" lon="-2.774198">
        <ele>1598.3</ele>
        <time>2021-07-03T11:09:10.000Z</time>
      </trkpt>
      <trkpt lat="42.023237" lon="-2.774140">
        <ele>1598.1</ele>
        <time>2021-07-03T11:09:16.000Z</time>
      </trkpt>
      <trkpt lat="42.023335" lon="-2.774103">
        <ele>1599.2</ele>
        <time>2021-07-03T11:09:22.000Z</time>
      </trkpt>
      <trkpt lat="42.023425" lon="-2.774080">
        <ele>1599.8</ele>
        <time>2021-07-03T11:09:28.000Z</time>
      </trkpt>
      <trkpt lat="42.023525" lon="-2.774095">
        <ele>1600.5</ele>
        <time>2021-07-03T11:09:34.000Z</time>
      </trkpt>
      <trkpt lat="42.023618" lon="-2.774107">
        <ele>1601.5</ele>
        <time>2021-07-03T11:09:40.000Z</time>
      </trkpt>
      <trkpt lat="42.023703" lon="-2.774147">
        <ele>1602.2</ele>
        <time>2021-07-03T11:09:46.000Z</time>
      </trkpt>
      <trkpt lat="42.023792" lon="-2.774195">
        <ele>1602.8</ele>
        <time>2021-07-03T11:09:52.000Z</time>
      </trkpt>
      <trkpt lat="42.023863" lon="-2.774282">
        <ele>1604.1</ele>
        <time>2021-07-03T11:09:58.000Z</time>
      </trkpt>
      <trkpt lat="42.023937" lon="-2.774377">
        <ele>1604.7</ele>
        <time>2021-07-03T11:10:04.000Z</time>
      </trkpt>
      <trkpt lat="42.024000" lon="-2.774475">
        <ele>1605.1</ele>
        <time>2021-07-03T11:10:10.000Z</time>
      </trkpt>
      <trkpt lat="42.024042" lon="-2.774603">
        <ele>1606.0</ele>
        <time>2021-07-03T11:10:16.000Z</time>
      </trkpt>
      <trkpt lat="42.024107" lon="-2.774717">
        <ele>1607.0</ele>
        <time>2021-07-03T11:10:22.000Z</time>
      </trkpt>
      <trkpt lat="42.024158" lon="-2.774838">
        <ele>1607.1</ele>
        <time>2021-07-03T11:10:28.000Z</time>
      </trkpt>
      <trkpt lat="42.024203" lon="-2.774945">
        <ele>1607.2</ele>
        <time>2021-07-03T11:10:33.000Z</time>
      </trkpt>
      <trkpt lat="42.024243" lon="-2.775057">
        <ele>1607.8</ele>
        <time>2021-07-03T11:10:38.000Z</time>
      </trkpt>
      <trkpt lat="42.024283" lon="-2.775175">
        <ele>1608.9</ele>
        <time>2021-07-03T11:10:43.000Z</time>
      </trkpt>
      <trkpt lat="42.024325" lon="-2.775297">
        <ele>1609.4</ele>
        <time>2021-07-03T11:10:48.000Z</time>
      </trkpt>
      <trkpt lat="42.024370" lon="-2.775415">
        <ele>1609.8</ele>
        <time>2021-07-03T11:10:53.000Z</time>
      </trkpt>
      <trkpt lat="42.024413" lon="-2.775533">
        <ele>1610.7</ele>
        <time>2021-07-03T11:10:58.000Z</time>
      </trkpt>
      <trkpt lat="42.024458" lon="-2.775648">
        <ele>1611.3</ele>
        <time>2021-07-03T11:11:03.000Z</time>
      </trkpt>
      <trkpt lat="42.024497" lon="-2.775767">
        <ele>1612.1</ele>
        <time>2021-07-03T11:11:08.000Z</time>
      </trkpt>
      <trkpt lat="42.024540" lon="-2.775878">
        <ele>1612.7</ele>
        <time>2021-07-03T11:11:13.000Z</time>
      </trkpt>
      <trkpt lat="42.024582" lon="-2.775992">
        <ele>1613.2</ele>
        <time>2021-07-03T11:11:18.000Z</time>
      </trkpt>
      <trkpt lat="42.024632" lon="-2.776120">
        <ele>1613.7</ele>
        <time>2021-07-03T11:11:24.000Z</time>
      </trkpt>
      <trkpt lat="42.024688" lon="-2.776238">
        <ele>1614.5</ele>
        <time>2021-07-03T11:11:30.000Z</time>
      </trkpt>
      <trkpt lat="42.024740" lon="-2.776363">
        <ele>1614.9</ele>
        <time>2021-07-03T11:11:36.000Z</time>
      </trkpt>
      <trkpt lat="42.024795" lon="-2.776485">
        <ele>1615.3</ele>
        <time>2021-07-03T11:11:42.000Z</time>
      </trkpt>
      <trkpt lat="42.024838" lon="-2.776592">
        <ele>1615.8</ele>
        <time>2021-07-03T11:11:47.000Z</time>
      </trkpt>
      <trkpt lat="42.024900" lon="-2.776710">
        <ele>1616.6</ele>
        <time>2021-07-03T11:11:53.000Z</time>
      </trkpt>
      <trkpt lat="42.024950" lon="-2.776818">
        <ele>1617.1</ele>
        <time>2021-07-03T11:11:58.000Z</time>
      </trkpt>
      <trkpt lat="42.025003" lon="-2.776927">
        <ele>1617.6</ele>
        <time>2021-07-03T11:12:03.000Z</time>
      </trkpt>
      <trkpt lat="42.025065" lon="-2.777030">
        <ele>1617.5</ele>
        <time>2021-07-03T11:12:08.000Z</time>
      </trkpt>
      <trkpt lat="42.025135" lon="-2.777123">
        <ele>1617.7</ele>
        <time>2021-07-03T11:12:13.000Z</time>
      </trkpt>
      <trkpt lat="42.025212" lon="-2.777210">
        <ele>1618.0</ele>
        <time>2021-07-03T11:12:18.000Z</time>
      </trkpt>
      <trkpt lat="42.025310" lon="-2.777280">
        <ele>1618.5</ele>
        <time>2021-07-03T11:12:23.000Z</time>
      </trkpt>
      <trkpt lat="42.025397" lon="-2.777317">
        <ele>1618.8</ele>
        <time>2021-07-03T11:12:27.000Z</time>
      </trkpt>
      <trkpt lat="42.025497" lon="-2.777355">
        <ele>1618.7</ele>
        <time>2021-07-03T11:12:32.000Z</time>
      </trkpt>
      <trkpt lat="42.025598" lon="-2.777383">
        <ele>1619.0</ele>
        <time>2021-07-03T11:12:37.000Z</time>
      </trkpt>
      <trkpt lat="42.025703" lon="-2.777405">
        <ele>1619.4</ele>
        <time>2021-07-03T11:12:42.000Z</time>
      </trkpt>
      <trkpt lat="42.025808" lon="-2.777427">
        <ele>1619.8</ele>
        <time>2021-07-03T11:12:47.000Z</time>
      </trkpt>
      <trkpt lat="42.025912" lon="-2.777438">
        <ele>1620.5</ele>
        <time>2021-07-03T11:12:52.000Z</time>
      </trkpt>
      <trkpt lat="42.026018" lon="-2.777433">
        <ele>1621.2</ele>
        <time>2021-07-03T11:12:57.000Z</time>
      </trkpt>
      <trkpt lat="42.026122" lon="-2.777437">
        <ele>1621.4</ele>
        <time>2021-07-03T11:13:02.000Z</time>
      </trkpt>
      <trkpt lat="42.026222" lon="-2.777430">
        <ele>1621.7</ele>
        <time>2021-07-03T11:13:07.000Z</time>
      </trkpt>
      <trkpt lat="42.026325" lon="-2.777420">
        <ele>1621.8</ele>
        <time>2021-07-03T11:13:12.000Z</time>
      </trkpt>
      <trkpt lat="42.026425" lon="-2.777400">
        <ele>1622.3</ele>
        <time>2021-07-03T11:13:17.000Z</time>
      </trkpt>
      <trkpt lat="42.026527" lon="-2.777378">
        <ele>1622.8</ele>
        <time>2021-07-03T11:13:22.000Z</time>
      </trkpt>
      <trkpt lat="42.026628" lon="-2.777357">
        <ele>1623.1</ele>
        <time>2021-07-03T11:13:27.000Z</time>
      </trkpt>
      <trkpt lat="42.026727" lon="-2.777330">
        <ele>1624.2</ele>
        <time>2021-07-03T11:13:32.000Z</time>
      </trkpt>
      <trkpt lat="42.026823" lon="-2.777300">
        <ele>1624.3</ele>
        <time>2021-07-03T11:13:37.000Z</time>
      </trkpt>
      <trkpt lat="42.026918" lon="-2.777275">
        <ele>1624.8</ele>
        <time>2021-07-03T11:13:42.000Z</time>
      </trkpt>
      <trkpt lat="42.027018" lon="-2.777240">
        <ele>1625.3</ele>
        <time>2021-07-03T11:13:47.000Z</time>
      </trkpt>
      <trkpt lat="42.027120" lon="-2.777208">
        <ele>1625.7</ele>
        <time>2021-07-03T11:13:52.000Z</time>
      </trkpt>
      <trkpt lat="42.027222" lon="-2.777188">
        <ele>1626.3</ele>
        <time>2021-07-03T11:13:57.000Z</time>
      </trkpt>
      <trkpt lat="42.027322" lon="-2.777160">
        <ele>1626.4</ele>
        <time>2021-07-03T11:14:02.000Z</time>
      </trkpt>
      <trkpt lat="42.027428" lon="-2.777135">
        <ele>1627.3</ele>
        <time>2021-07-03T11:14:07.000Z</time>
      </trkpt>
      <trkpt lat="42.027528" lon="-2.777107">
        <ele>1627.9</ele>
        <time>2021-07-03T11:14:12.000Z</time>
      </trkpt>
      <trkpt lat="42.027623" lon="-2.777083">
        <ele>1627.9</ele>
        <time>2021-07-03T11:14:17.000Z</time>
      </trkpt>
      <trkpt lat="42.027722" lon="-2.777050">
        <ele>1629.0</ele>
        <time>2021-07-03T11:14:22.000Z</time>
      </trkpt>
      <trkpt lat="42.027817" lon="-2.777022">
        <ele>1629.4</ele>
        <time>2021-07-03T11:14:27.000Z</time>
      </trkpt>
      <trkpt lat="42.027907" lon="-2.777010">
        <ele>1629.3</ele>
        <time>2021-07-03T11:14:32.000Z</time>
      </trkpt>
      <trkpt lat="42.028002" lon="-2.776997">
        <ele>1629.8</ele>
        <time>2021-07-03T11:14:37.000Z</time>
      </trkpt>
      <trkpt lat="42.028095" lon="-2.776967">
        <ele>1630.8</ele>
        <time>2021-07-03T11:14:42.000Z</time>
      </trkpt>
      <trkpt lat="42.028193" lon="-2.776948">
        <ele>1631.3</ele>
        <time>2021-07-03T11:14:47.000Z</time>
      </trkpt>
      <trkpt lat="42.028287" lon="-2.776925">
        <ele>1632.0</ele>
        <time>2021-07-03T11:14:52.000Z</time>
      </trkpt>
      <trkpt lat="42.028385" lon="-2.776938">
        <ele>1632.5</ele>
        <time>2021-07-03T11:14:58.000Z</time>
      </trkpt>
      <trkpt lat="42.028480" lon="-2.776977">
        <ele>1633.1</ele>
        <time>2021-07-03T11:15:04.000Z</time>
      </trkpt>
      <trkpt lat="42.028575" lon="-2.777027">
        <ele>1633.9</ele>
        <time>2021-07-03T11:15:11.000Z</time>
      </trkpt>
      <trkpt lat="42.028655" lon="-2.777097">
        <ele>1634.5</ele>
        <time>2021-07-03T11:15:17.000Z</time>
      </trkpt>
      <trkpt lat="42.028725" lon="-2.777183">
        <ele>1635.2</ele>
        <time>2021-07-03T11:15:23.000Z</time>
      </trkpt>
      <trkpt lat="42.028787" lon="-2.777277">
        <ele>1636.0</ele>
        <time>2021-07-03T11:15:29.000Z</time>
      </trkpt>
      <trkpt lat="42.028842" lon="-2.777377">
        <ele>1636.5</ele>
        <time>2021-07-03T11:15:35.000Z</time>
      </trkpt>
      <trkpt lat="42.028887" lon="-2.777498">
        <ele>1637.3</ele>
        <time>2021-07-03T11:15:41.000Z</time>
      </trkpt>
      <trkpt lat="42.028907" lon="-2.777623">
        <ele>1638.0</ele>
        <time>2021-07-03T11:15:47.000Z</time>
      </trkpt>
      <trkpt lat="42.028915" lon="-2.777753">
        <ele>1638.6</ele>
        <time>2021-07-03T11:15:53.000Z</time>
      </trkpt>
      <trkpt lat="42.028923" lon="-2.777882">
        <ele>1639.1</ele>
        <time>2021-07-03T11:15:59.000Z</time>
      </trkpt>
      <trkpt lat="42.028915" lon="-2.778010">
        <ele>1639.6</ele>
        <time>2021-07-03T11:16:05.000Z</time>
      </trkpt>
      <trkpt lat="42.028913" lon="-2.778147">
        <ele>1639.7</ele>
        <time>2021-07-03T11:16:11.000Z</time>
      </trkpt>
      <trkpt lat="42.028902" lon="-2.778290">
        <ele>1640.3</ele>
        <time>2021-07-03T11:16:17.000Z</time>
      </trkpt>
      <trkpt lat="42.028885" lon="-2.778413">
        <ele>1640.7</ele>
        <time>2021-07-03T11:16:22.000Z</time>
      </trkpt>
      <trkpt lat="42.028868" lon="-2.778553">
        <ele>1639.0</ele>
        <time>2021-07-03T11:16:28.000Z</time>
      </trkpt>
      <trkpt lat="42.028855" lon="-2.778687">
        <ele>1642.8</ele>
        <time>2021-07-03T11:16:34.000Z</time>
      </trkpt>
      <trkpt lat="42.028842" lon="-2.778818">
        <ele>1642.3</ele>
        <time>2021-07-03T11:16:40.000Z</time>
      </trkpt>
      <trkpt lat="42.028833" lon="-2.778952">
        <ele>1642.6</ele>
        <time>2021-07-03T11:16:46.000Z</time>
      </trkpt>
      <trkpt lat="42.028820" lon="-2.779080">
        <ele>1643.0</ele>
        <time>2021-07-03T11:16:52.000Z</time>
      </trkpt>
      <trkpt lat="42.028812" lon="-2.779210">
        <ele>1643.6</ele>
        <time>2021-07-03T11:16:58.000Z</time>
      </trkpt>
      <trkpt lat="42.028818" lon="-2.779343">
        <ele>1643.9</ele>
        <time>2021-07-03T11:17:04.000Z</time>
      </trkpt>
      <trkpt lat="42.028825" lon="-2.779487">
        <ele>1645.3</ele>
        <time>2021-07-03T11:17:10.000Z</time>
      </trkpt>
      <trkpt lat="42.028822" lon="-2.779610">
        <ele>1645.3</ele>
        <time>2021-07-03T11:17:15.000Z</time>
      </trkpt>
      <trkpt lat="42.028823" lon="-2.779745">
        <ele>1645.6</ele>
        <time>2021-07-03T11:17:21.000Z</time>
      </trkpt>
      <trkpt lat="42.028830" lon="-2.779880">
        <ele>1645.9</ele>
        <time>2021-07-03T11:17:27.000Z</time>
      </trkpt>
      <trkpt lat="42.028820" lon="-2.780013">
        <ele>1646.7</ele>
        <time>2021-07-03T11:17:33.000Z</time>
      </trkpt>
      <trkpt lat="42.028822" lon="-2.780143">
        <ele>1647.5</ele>
        <time>2021-07-03T11:17:39.000Z</time>
      </trkpt>
      <trkpt lat="42.028817" lon="-2.780275">
        <ele>1647.8</ele>
        <time>2021-07-03T11:17:45.000Z</time>
      </trkpt>
      <trkpt lat="42.028808" lon="-2.780403">
        <ele>1648.4</ele>
        <time>2021-07-03T11:17:51.000Z</time>
      </trkpt>
      <trkpt lat="42.028823" lon="-2.780533">
        <ele>1649.3</ele>
        <time>2021-07-03T11:17:57.000Z</time>
      </trkpt>
      <trkpt lat="42.028823" lon="-2.780660">
        <ele>1650.4</ele>
        <time>2021-07-03T11:18:03.000Z</time>
      </trkpt>
      <trkpt lat="42.028845" lon="-2.780782">
        <ele>1650.6</ele>
        <time>2021-07-03T11:18:09.000Z</time>
      </trkpt>
      <trkpt lat="42.028875" lon="-2.780908">
        <ele>1651.3</ele>
        <time>2021-07-03T11:18:15.000Z</time>
      </trkpt>
      <trkpt lat="42.028913" lon="-2.781027">
        <ele>1651.8</ele>
        <time>2021-07-03T11:18:21.000Z</time>
      </trkpt>
      <trkpt lat="42.028965" lon="-2.781135">
        <ele>1652.1</ele>
        <time>2021-07-03T11:18:27.000Z</time>
      </trkpt>
      <trkpt lat="42.029018" lon="-2.781233">
        <ele>1653.2</ele>
        <time>2021-07-03T11:18:33.000Z</time>
      </trkpt>
      <trkpt lat="42.029082" lon="-2.781323">
        <ele>1654.0</ele>
        <time>2021-07-03T11:18:40.000Z</time>
      </trkpt>
      <trkpt lat="42.029147" lon="-2.781425">
        <ele>1654.4</ele>
        <time>2021-07-03T11:18:47.000Z</time>
      </trkpt>
      <trkpt lat="42.029218" lon="-2.781520">
        <ele>1654.9</ele>
        <time>2021-07-03T11:18:54.000Z</time>
      </trkpt>
      <trkpt lat="42.029292" lon="-2.781607">
        <ele>1656.0</ele>
        <time>2021-07-03T11:19:01.000Z</time>
      </trkpt>
      <trkpt lat="42.029363" lon="-2.781703">
        <ele>1656.7</ele>
        <time>2021-07-03T11:19:08.000Z</time>
      </trkpt>
      <trkpt lat="42.029428" lon="-2.781790">
        <ele>1657.0</ele>
        <time>2021-07-03T11:19:14.000Z</time>
      </trkpt>
      <trkpt lat="42.029500" lon="-2.781880">
        <ele>1658.2</ele>
        <time>2021-07-03T11:19:21.000Z</time>
      </trkpt>
      <trkpt lat="42.029583" lon="-2.781963">
        <ele>1658.9</ele>
        <time>2021-07-03T11:19:28.000Z</time>
      </trkpt>
      <trkpt lat="42.029670" lon="-2.782040">
        <ele>1659.3</ele>
        <time>2021-07-03T11:19:35.000Z</time>
      </trkpt>
      <trkpt lat="42.029747" lon="-2.782120">
        <ele>1660.3</ele>
        <time>2021-07-03T11:19:42.000Z</time>
      </trkpt>
      <trkpt lat="42.029830" lon="-2.782202">
        <ele>1660.5</ele>
        <time>2021-07-03T11:19:49.000Z</time>
      </trkpt>
      <trkpt lat="42.029902" lon="-2.782277">
        <ele>1661.2</ele>
        <time>2021-07-03T11:19:55.000Z</time>
      </trkpt>
      <trkpt lat="42.029980" lon="-2.782342">
        <ele>1661.5</ele>
        <time>2021-07-03T11:20:01.000Z</time>
      </trkpt>
      <trkpt lat="42.030067" lon="-2.782387">
        <ele>1661.4</ele>
        <time>2021-07-03T11:20:07.000Z</time>
      </trkpt>
      <trkpt lat="42.030148" lon="-2.782438">
        <ele>1662.2</ele>
        <time>2021-07-03T11:20:13.000Z</time>
      </trkpt>
      <trkpt lat="42.030233" lon="-2.782487">
        <ele>1663.0</ele>
        <time>2021-07-03T11:20:19.000Z</time>
      </trkpt>
      <trkpt lat="42.030325" lon="-2.782540">
        <ele>1663.3</ele>
        <time>2021-07-03T11:20:26.000Z</time>
      </trkpt>
      <trkpt lat="42.030422" lon="-2.782590">
        <ele>1664.2</ele>
        <time>2021-07-03T11:20:33.000Z</time>
      </trkpt>
      <trkpt lat="42.030513" lon="-2.782648">
        <ele>1664.8</ele>
        <time>2021-07-03T11:20:40.000Z</time>
      </trkpt>
      <trkpt lat="42.030608" lon="-2.782673">
        <ele>1665.3</ele>
        <time>2021-07-03T11:20:46.000Z</time>
      </trkpt>
      <trkpt lat="42.030705" lon="-2.782723">
        <ele>1665.8</ele>
        <time>2021-07-03T11:20:52.000Z</time>
      </trkpt>
      <trkpt lat="42.030807" lon="-2.782757">
        <ele>1666.8</ele>
        <time>2021-07-03T11:20:58.000Z</time>
      </trkpt>
      <trkpt lat="42.030902" lon="-2.782772">
        <ele>1668.0</ele>
        <time>2021-07-03T11:21:04.000Z</time>
      </trkpt>
      <trkpt lat="42.031000" lon="-2.782758">
        <ele>1666.4</ele>
        <time>2021-07-03T11:21:10.000Z</time>
      </trkpt>
      <trkpt lat="42.031093" lon="-2.782743">
        <ele>1668.7</ele>
        <time>2021-07-03T11:21:16.000Z</time>
      </trkpt>
      <trkpt lat="42.031187" lon="-2.782697">
        <ele>1669.0</ele>
        <time>2021-07-03T11:21:22.000Z</time>
      </trkpt>
      <trkpt lat="42.031282" lon="-2.782632">
        <ele>1670.0</ele>
        <time>2021-07-03T11:21:28.000Z</time>
      </trkpt>
      <trkpt lat="42.031362" lon="-2.782573">
        <ele>1670.5</ele>
        <time>2021-07-03T11:21:33.000Z</time>
      </trkpt>
      <trkpt lat="42.031445" lon="-2.782503">
        <ele>1670.8</ele>
        <time>2021-07-03T11:21:38.000Z</time>
      </trkpt>
      <trkpt lat="42.031528" lon="-2.782442">
        <ele>1671.5</ele>
        <time>2021-07-03T11:21:43.000Z</time>
      </trkpt>
      <trkpt lat="42.031612" lon="-2.782380">
        <ele>1672.3</ele>
        <time>2021-07-03T11:21:48.000Z</time>
      </trkpt>
      <trkpt lat="42.031707" lon="-2.782332">
        <ele>1673.1</ele>
        <time>2021-07-03T11:21:53.000Z</time>
      </trkpt>
      <trkpt lat="42.031802" lon="-2.782282">
        <ele>1673.3</ele>
        <time>2021-07-03T11:21:58.000Z</time>
      </trkpt>
      <trkpt lat="42.031897" lon="-2.782252">
        <ele>1673.9</ele>
        <time>2021-07-03T11:22:03.000Z</time>
      </trkpt>
      <trkpt lat="42.031998" lon="-2.782237">
        <ele>1674.2</ele>
        <time>2021-07-03T11:22:08.000Z</time>
      </trkpt>
      <trkpt lat="42.032102" lon="-2.782235">
        <ele>1674.5</ele>
        <time>2021-07-03T11:22:13.000Z</time>
      </trkpt>
      <trkpt lat="42.032198" lon="-2.782257">
        <ele>1675.6</ele>
        <time>2021-07-03T11:22:18.000Z</time>
      </trkpt>
      <trkpt lat="42.032292" lon="-2.782297">
        <ele>1676.7</ele>
        <time>2021-07-03T11:22:23.000Z</time>
      </trkpt>
      <trkpt lat="42.032387" lon="-2.782357">
        <ele>1677.1</ele>
        <time>2021-07-03T11:22:29.000Z</time>
      </trkpt>
      <trkpt lat="42.032480" lon="-2.782423">
        <ele>1678.1</ele>
        <time>2021-07-03T11:22:35.000Z</time>
      </trkpt>
      <trkpt lat="42.032580" lon="-2.782470">
        <ele>1678.4</ele>
        <time>2021-07-03T11:22:41.000Z</time>
      </trkpt>
      <trkpt lat="42.032680" lon="-2.782520">
        <ele>1679.3</ele>
        <time>2021-07-03T11:22:47.000Z</time>
      </trkpt>
      <trkpt lat="42.032772" lon="-2.782582">
        <ele>1679.8</ele>
        <time>2021-07-03T11:22:53.000Z</time>
      </trkpt>
      <trkpt lat="42.032865" lon="-2.782650">
        <ele>1680.8</ele>
        <time>2021-07-03T11:22:59.000Z</time>
      </trkpt>
      <trkpt lat="42.032948" lon="-2.782740">
        <ele>1681.7</ele>
        <time>2021-07-03T11:23:05.000Z</time>
      </trkpt>
      <trkpt lat="42.033040" lon="-2.782805">
        <ele>1682.6</ele>
        <time>2021-07-03T11:23:11.000Z</time>
      </trkpt>
      <trkpt lat="42.033130" lon="-2.782877">
        <ele>1683.9</ele>
        <time>2021-07-03T11:23:17.000Z</time>
      </trkpt>
      <trkpt lat="42.033217" lon="-2.782950">
        <ele>1684.6</ele>
        <time>2021-07-03T11:23:23.000Z</time>
      </trkpt>
      <trkpt lat="42.033305" lon="-2.783027">
        <ele>1685.5</ele>
        <time>2021-07-03T11:23:29.000Z</time>
      </trkpt>
      <trkpt lat="42.033390" lon="-2.783108">
        <ele>1686.4</ele>
        <time>2021-07-03T11:23:35.000Z</time>
      </trkpt>
      <trkpt lat="42.033457" lon="-2.783207">
        <ele>1687.3</ele>
        <time>2021-07-03T11:23:41.000Z</time>
      </trkpt>
      <trkpt lat="42.033530" lon="-2.783290">
        <ele>1688.0</ele>
        <time>2021-07-03T11:23:47.000Z</time>
      </trkpt>
      <trkpt lat="42.033610" lon="-2.783377">
        <ele>1689.1</ele>
        <time>2021-07-03T11:23:53.000Z</time>
      </trkpt>
      <trkpt lat="42.033693" lon="-2.783452">
        <ele>1690.1</ele>
        <time>2021-07-03T11:23:59.000Z</time>
      </trkpt>
      <trkpt lat="42.033770" lon="-2.783538">
        <ele>1690.6</ele>
        <time>2021-07-03T11:24:05.000Z</time>
      </trkpt>
      <trkpt lat="42.033845" lon="-2.783630">
        <ele>1691.8</ele>
        <time>2021-07-03T11:24:11.000Z</time>
      </trkpt>
      <trkpt lat="42.033915" lon="-2.783720">
        <ele>1692.4</ele>
        <time>2021-07-03T11:24:17.000Z</time>
      </trkpt>
      <trkpt lat="42.033988" lon="-2.783813">
        <ele>1692.9</ele>
        <time>2021-07-03T11:24:23.000Z</time>
      </trkpt>
      <trkpt lat="42.034067" lon="-2.783903">
        <ele>1693.1</ele>
        <time>2021-07-03T11:24:29.000Z</time>
      </trkpt>
      <trkpt lat="42.034147" lon="-2.783990">
        <ele>1693.8</ele>
        <time>2021-07-03T11:24:35.000Z</time>
      </trkpt>
      <trkpt lat="42.034235" lon="-2.784063">
        <ele>1694.7</ele>
        <time>2021-07-03T11:24:41.000Z</time>
      </trkpt>
      <trkpt lat="42.034337" lon="-2.784105">
        <ele>1694.7</ele>
        <time>2021-07-03T11:24:47.000Z</time>
      </trkpt>
      <trkpt lat="42.034437" lon="-2.784155">
        <ele>1695.2</ele>
        <time>2021-07-03T11:24:53.000Z</time>
      </trkpt>
      <trkpt lat="42.034530" lon="-2.784223">
        <ele>1695.8</ele>
        <time>2021-07-03T11:24:59.000Z</time>
      </trkpt>
      <trkpt lat="42.034617" lon="-2.784302">
        <ele>1696.3</ele>
        <time>2021-07-03T11:25:05.000Z</time>
      </trkpt>
      <trkpt lat="42.034702" lon="-2.784372">
        <ele>1698.7</ele>
        <time>2021-07-03T11:25:11.000Z</time>
      </trkpt>
      <trkpt lat="42.034777" lon="-2.784463">
        <ele>1697.9</ele>
        <time>2021-07-03T11:25:17.000Z</time>
      </trkpt>
      <trkpt lat="42.034855" lon="-2.784543">
        <ele>1699.3</ele>
        <time>2021-07-03T11:25:23.000Z</time>
      </trkpt>
      <trkpt lat="42.034927" lon="-2.784622">
        <ele>1699.7</ele>
        <time>2021-07-03T11:25:29.000Z</time>
      </trkpt>
      <trkpt lat="42.034995" lon="-2.784727">
        <ele>1700.3</ele>
        <time>2021-07-03T11:25:36.000Z</time>
      </trkpt>
      <trkpt lat="42.035080" lon="-2.784802">
        <ele>1701.9</ele>
        <time>2021-07-03T11:25:43.000Z</time>
      </trkpt>
      <trkpt lat="42.035160" lon="-2.784883">
        <ele>1702.3</ele>
        <time>2021-07-03T11:25:50.000Z</time>
      </trkpt>
      <trkpt lat="42.035238" lon="-2.784965">
        <ele>1703.0</ele>
        <time>2021-07-03T11:25:57.000Z</time>
      </trkpt>
      <trkpt lat="42.035300" lon="-2.785053">
        <ele>1703.2</ele>
        <time>2021-07-03T11:26:04.000Z</time>
      </trkpt>
      <trkpt lat="42.035365" lon="-2.785142">
        <ele>1704.3</ele>
        <time>2021-07-03T11:26:11.000Z</time>
      </trkpt>
      <trkpt lat="42.035432" lon="-2.785225">
        <ele>1704.1</ele>
        <time>2021-07-03T11:26:18.000Z</time>
      </trkpt>
      <trkpt lat="42.035498" lon="-2.785320">
        <ele>1705.8</ele>
        <time>2021-07-03T11:26:25.000Z</time>
      </trkpt>
      <trkpt lat="42.035567" lon="-2.785410">
        <ele>1706.2</ele>
        <time>2021-07-03T11:26:32.000Z</time>
      </trkpt>
      <trkpt lat="42.035640" lon="-2.785493">
        <ele>1707.5</ele>
        <time>2021-07-03T11:26:39.000Z</time>
      </trkpt>
      <trkpt lat="42.035707" lon="-2.785577">
        <ele>1708.4</ele>
        <time>2021-07-03T11:26:46.000Z</time>
      </trkpt>
      <trkpt lat="42.035775" lon="-2.785670">
        <ele>1709.4</ele>
        <time>2021-07-03T11:26:53.000Z</time>
      </trkpt>
      <trkpt lat="42.035850" lon="-2.785760">
        <ele>1710.2</ele>
        <time>2021-07-03T11:27:00.000Z</time>
      </trkpt>
      <trkpt lat="42.035922" lon="-2.785847">
        <ele>1711.2</ele>
        <time>2021-07-03T11:27:07.000Z</time>
      </trkpt>
      <trkpt lat="42.035992" lon="-2.785933">
        <ele>1712.3</ele>
        <time>2021-07-03T11:27:14.000Z</time>
      </trkpt>
      <trkpt lat="42.036068" lon="-2.786018">
        <ele>1712.9</ele>
        <time>2021-07-03T11:27:21.000Z</time>
      </trkpt>
      <trkpt lat="42.036143" lon="-2.786102">
        <ele>1714.1</ele>
        <time>2021-07-03T11:27:28.000Z</time>
      </trkpt>
      <trkpt lat="42.036228" lon="-2.786168">
        <ele>1715.1</ele>
        <time>2021-07-03T11:27:35.000Z</time>
      </trkpt>
      <trkpt lat="42.036313" lon="-2.786213">
        <ele>1716.1</ele>
        <time>2021-07-03T11:27:42.000Z</time>
      </trkpt>
      <trkpt lat="42.036412" lon="-2.786233">
        <ele>1716.6</ele>
        <time>2021-07-03T11:27:50.000Z</time>
      </trkpt>
      <trkpt lat="42.036508" lon="-2.786227">
        <ele>1716.9</ele>
        <time>2021-07-03T11:27:58.000Z</time>
      </trkpt>
      <trkpt lat="42.036598" lon="-2.786195">
        <ele>1718.3</ele>
        <time>2021-07-03T11:28:06.000Z</time>
      </trkpt>
      <trkpt lat="42.036685" lon="-2.786138">
        <ele>1719.4</ele>
        <time>2021-07-03T11:28:14.000Z</time>
      </trkpt>
      <trkpt lat="42.036765" lon="-2.786072">
        <ele>1720.2</ele>
        <time>2021-07-03T11:28:22.000Z</time>
      </trkpt>
      <trkpt lat="42.036830" lon="-2.785980">
        <ele>1721.3</ele>
        <time>2021-07-03T11:28:30.000Z</time>
      </trkpt>
      <trkpt lat="42.036882" lon="-2.785870">
        <ele>1722.7</ele>
        <time>2021-07-03T11:28:38.000Z</time>
      </trkpt>
      <trkpt lat="42.036920" lon="-2.785755">
        <ele>1723.6</ele>
        <time>2021-07-03T11:28:46.000Z</time>
      </trkpt>
      <trkpt lat="42.036938" lon="-2.785630">
        <ele>1724.5</ele>
        <time>2021-07-03T11:28:54.000Z</time>
      </trkpt>
      <trkpt lat="42.036943" lon="-2.785505">
        <ele>1725.4</ele>
        <time>2021-07-03T11:29:02.000Z</time>
      </trkpt>
      <trkpt lat="42.036927" lon="-2.785375">
        <ele>1726.5</ele>
        <time>2021-07-03T11:29:10.000Z</time>
      </trkpt>
      <trkpt lat="42.036910" lon="-2.785247">
        <ele>1727.4</ele>
        <time>2021-07-03T11:29:18.000Z</time>
      </trkpt>
      <trkpt lat="42.036880" lon="-2.785120">
        <ele>1728.5</ele>
        <time>2021-07-03T11:29:26.000Z</time>
      </trkpt>
      <trkpt lat="42.036863" lon="-2.784995">
        <ele>1729.3</ele>
        <time>2021-07-03T11:29:34.000Z</time>
      </trkpt>
      <trkpt lat="42.036827" lon="-2.784878">
        <ele>1730.2</ele>
        <time>2021-07-03T11:29:42.000Z</time>
      </trkpt>
      <trkpt lat="42.036808" lon="-2.784757">
        <ele>1731.1</ele>
        <time>2021-07-03T11:29:50.000Z</time>
      </trkpt>
      <trkpt lat="42.036780" lon="-2.784628">
        <ele>1732.3</ele>
        <time>2021-07-03T11:29:58.000Z</time>
      </trkpt>
      <trkpt lat="42.036743" lon="-2.784507">
        <ele>1732.7</ele>
        <time>2021-07-03T11:30:06.000Z</time>
      </trkpt>
      <trkpt lat="42.036748" lon="-2.784385">
        <ele>1733.7</ele>
        <time>2021-07-03T11:30:14.000Z</time>
      </trkpt>
      <trkpt lat="42.036720" lon="-2.784267">
        <ele>1734.9</ele>
        <time>2021-07-03T11:30:22.000Z</time>
      </trkpt>
      <trkpt lat="42.036757" lon="-2.784143">
        <ele>1735.6</ele>
        <time>2021-07-03T11:30:30.000Z</time>
      </trkpt>
      <trkpt lat="42.036807" lon="-2.784025">
        <ele>1737.0</ele>
        <time>2021-07-03T11:30:39.000Z</time>
      </trkpt>
      <trkpt lat="42.036878" lon="-2.783950">
        <ele>1738.0</ele>
        <time>2021-07-03T11:30:46.000Z</time>
      </trkpt>
      <trkpt lat="42.036957" lon="-2.783885">
        <ele>1739.8</ele>
        <time>2021-07-03T11:30:53.000Z</time>
      </trkpt>
      <trkpt lat="42.037045" lon="-2.783847">
        <ele>1740.9</ele>
        <time>2021-07-03T11:31:01.000Z</time>
      </trkpt>
      <trkpt lat="42.037148" lon="-2.783835">
        <ele>1741.9</ele>
        <time>2021-07-03T11:31:09.000Z</time>
      </trkpt>
      <trkpt lat="42.037245" lon="-2.783863">
        <ele>1742.3</ele>
        <time>2021-07-03T11:31:15.000Z</time>
      </trkpt>
      <trkpt lat="42.037337" lon="-2.783898">
        <ele>1743.2</ele>
        <time>2021-07-03T11:31:21.000Z</time>
      </trkpt>
      <trkpt lat="42.037422" lon="-2.783948">
        <ele>1744.0</ele>
        <time>2021-07-03T11:31:27.000Z</time>
      </trkpt>
      <trkpt lat="42.037505" lon="-2.784000">
        <ele>1745.0</ele>
        <time>2021-07-03T11:31:33.000Z</time>
      </trkpt>
      <trkpt lat="42.037592" lon="-2.784048">
        <ele>1745.8</ele>
        <time>2021-07-03T11:31:39.000Z</time>
      </trkpt>
      <trkpt lat="42.037662" lon="-2.784130">
        <ele>1746.4</ele>
        <time>2021-07-03T11:31:45.000Z</time>
      </trkpt>
      <trkpt lat="42.037732" lon="-2.784213">
        <ele>1747.1</ele>
        <time>2021-07-03T11:31:51.000Z</time>
      </trkpt>
      <trkpt lat="42.037793" lon="-2.784303">
        <ele>1748.0</ele>
        <time>2021-07-03T11:31:57.000Z</time>
      </trkpt>
      <trkpt lat="42.037852" lon="-2.784400">
        <ele>1748.7</ele>
        <time>2021-07-03T11:32:03.000Z</time>
      </trkpt>
      <trkpt lat="42.037912" lon="-2.784493">
        <ele>1748.9</ele>
        <time>2021-07-03T11:32:09.000Z</time>
      </trkpt>
      <trkpt lat="42.037965" lon="-2.784593">
        <ele>1749.8</ele>
        <time>2021-07-03T11:32:15.000Z</time>
      </trkpt>
      <trkpt lat="42.038035" lon="-2.784673">
        <ele>1750.1</ele>
        <time>2021-07-03T11:32:21.000Z</time>
      </trkpt>
      <trkpt lat="42.038110" lon="-2.784742">
        <ele>1751.4</ele>
        <time>2021-07-03T11:32:27.000Z</time>
      </trkpt>
      <trkpt lat="42.038187" lon="-2.784807">
        <ele>1752.0</ele>
        <time>2021-07-03T11:32:33.000Z</time>
      </trkpt>
      <trkpt lat="42.038255" lon="-2.784888">
        <ele>1752.8</ele>
        <time>2021-07-03T11:32:39.000Z</time>
      </trkpt>
      <trkpt lat="42.038338" lon="-2.784945">
        <ele>1753.4</ele>
        <time>2021-07-03T11:32:45.000Z</time>
      </trkpt>
      <trkpt lat="42.038405" lon="-2.785033">
        <ele>1754.2</ele>
        <time>2021-07-03T11:32:51.000Z</time>
      </trkpt>
      <trkpt lat="42.038447" lon="-2.785150">
        <ele>1754.5</ele>
        <time>2021-07-03T11:32:57.000Z</time>
      </trkpt>
      <trkpt lat="42.038393" lon="-2.785273">
        <ele>1754.8</ele>
        <time>2021-07-03T11:33:04.000Z</time>
      </trkpt>
      <trkpt lat="42.038380" lon="-2.785323">
        <ele>1753.7</ele>
        <time>2021-07-03T11:33:08.000Z</time>
      </trkpt>
      <trkpt lat="42.038382" lon="-2.785325">
        <ele>1754.6</ele>
        <time>2021-07-03T11:33:10.000Z</time>
      </trkpt>
      <trkpt lat="42.038355" lon="-2.785307">
        <ele>1753.9</ele>
        <time>2021-07-03T11:33:20.000Z</time>
      </trkpt>
      <trkpt lat="42.038353" lon="-2.785307">
        <ele>1754.1</ele>
        <time>2021-07-03T11:34:03.000Z</time>
      </trkpt>
      <trkpt lat="42.038353" lon="-2.785307">
        <ele>1754.2</ele>
        <time>2021-07-03T11:34:04.000Z</time>
      </trkpt>
      <trkpt lat="42.038355" lon="-2.785307">
        <ele>1754.6</ele>
        <time>2021-07-03T11:34:51.000Z</time>
      </trkpt>
      <trkpt lat="42.038355" lon="-2.785307">
        <ele>1754.7</ele>
        <time>2021-07-03T11:34:52.000Z</time>
      </trkpt>
      <trkpt lat="42.038355" lon="-2.785305">
        <ele>1754.1</ele>
        <time>2021-07-03T11:35:57.000Z</time>
      </trkpt>
      <trkpt lat="42.038350" lon="-2.785253">
        <ele>1753.8</ele>
        <time>2021-07-03T11:36:05.000Z</time>
      </trkpt>
      <trkpt lat="42.038348" lon="-2.785253">
        <ele>1753.8</ele>
        <time>2021-07-03T11:36:15.000Z</time>
      </trkpt>
      <trkpt lat="42.038348" lon="-2.785252">
        <ele>1753.8</ele>
        <time>2021-07-03T11:36:16.000Z</time>
      </trkpt>
      <trkpt lat="42.038350" lon="-2.785245">
        <ele>1754.0</ele>
        <time>2021-07-03T11:36:17.000Z</time>
      </trkpt>
      <trkpt lat="42.038410" lon="-2.785142">
        <ele>1754.4</ele>
        <time>2021-07-03T11:36:28.000Z</time>
      </trkpt>
      <trkpt lat="42.038315" lon="-2.785102">
        <ele>1753.1</ele>
        <time>2021-07-03T11:36:50.000Z</time>
      </trkpt>
      <trkpt lat="42.038255" lon="-2.785197">
        <ele>1753.5</ele>
        <time>2021-07-03T11:37:00.000Z</time>
      </trkpt>
      <trkpt lat="42.038223" lon="-2.785313">
        <ele>1753.9</ele>
        <time>2021-07-03T11:37:10.000Z</time>
      </trkpt>
      <trkpt lat="42.038292" lon="-2.785257">
        <ele>1753.6</ele>
        <time>2021-07-03T11:37:35.000Z</time>
      </trkpt>
      <trkpt lat="42.038300" lon="-2.785253">
        <ele>1753.4</ele>
        <time>2021-07-03T11:37:37.000Z</time>
      </trkpt>
      <trkpt lat="42.038298" lon="-2.785253">
        <ele>1753.4</ele>
        <time>2021-07-03T11:37:39.000Z</time>
      </trkpt>
      <trkpt lat="42.038300" lon="-2.785252">
        <ele>1753.7</ele>
        <time>2021-07-03T11:37:40.000Z</time>
      </trkpt>
      <trkpt lat="42.038303" lon="-2.785252">
        <ele>1753.7</ele>
        <time>2021-07-03T11:37:42.000Z</time>
      </trkpt>
      <trkpt lat="42.038305" lon="-2.785252">
        <ele>1753.7</ele>
        <time>2021-07-03T11:37:48.000Z</time>
      </trkpt>
      <trkpt lat="42.038305" lon="-2.785252">
        <ele>1753.6</ele>
        <time>2021-07-03T11:37:49.000Z</time>
      </trkpt>
      <trkpt lat="42.038307" lon="-2.785250">
        <ele>1753.5</ele>
        <time>2021-07-03T11:38:04.000Z</time>
      </trkpt>
      <trkpt lat="42.038307" lon="-2.785250">
        <ele>1753.4</ele>
        <time>2021-07-03T11:38:05.000Z</time>
      </trkpt>
      <trkpt lat="42.038305" lon="-2.785250">
        <ele>1753.3</ele>
        <time>2021-07-03T11:38:07.000Z</time>
      </trkpt>
      <trkpt lat="42.038305" lon="-2.785250">
        <ele>1753.5</ele>
        <time>2021-07-03T11:38:08.000Z</time>
      </trkpt>
      <trkpt lat="42.038307" lon="-2.785248">
        <ele>1753.9</ele>
        <time>2021-07-03T11:38:50.000Z</time>
      </trkpt>
      <trkpt lat="42.038307" lon="-2.785248">
        <ele>1753.9</ele>
        <time>2021-07-03T11:38:51.000Z</time>
      </trkpt>
      <trkpt lat="42.038310" lon="-2.785250">
        <ele>1751.6</ele>
        <time>2021-07-03T11:38:56.000Z</time>
      </trkpt>
      <trkpt lat="42.038250" lon="-2.785275">
        <ele>1752.5</ele>
        <time>2021-07-03T11:39:18.000Z</time>
      </trkpt>
      <trkpt lat="42.038247" lon="-2.785282">
        <ele>1751.2</ele>
        <time>2021-07-03T11:39:30.000Z</time>
      </trkpt>
      <trkpt lat="42.038247" lon="-2.785282">
        <ele>1751.1</ele>
        <time>2021-07-03T11:39:31.000Z</time>
      </trkpt>
      <trkpt lat="42.038247" lon="-2.785278">
        <ele>1750.8</ele>
        <time>2021-07-03T11:39:38.000Z</time>
      </trkpt>
      <trkpt lat="42.038247" lon="-2.785278">
        <ele>1750.3</ele>
        <time>2021-07-03T11:39:39.000Z</time>
      </trkpt>
      <trkpt lat="42.038245" lon="-2.785278">
        <ele>1750.3</ele>
        <time>2021-07-03T11:39:44.000Z</time>
      </trkpt>
      <trkpt lat="42.038245" lon="-2.785280">
        <ele>1750.3</ele>
        <time>2021-07-03T11:39:45.000Z</time>
      </trkpt>
      <trkpt lat="42.038243" lon="-2.785282">
        <ele>1750.2</ele>
        <time>2021-07-03T11:39:47.000Z</time>
      </trkpt>
      <trkpt lat="42.038237" lon="-2.785300">
        <ele>1750.4</ele>
        <time>2021-07-03T11:39:53.000Z</time>
      </trkpt>
      <trkpt lat="42.038238" lon="-2.785303">
        <ele>1750.1</ele>
        <time>2021-07-03T11:39:54.000Z</time>
      </trkpt>
      <trkpt lat="42.038238" lon="-2.785288">
        <ele>1750.2</ele>
        <time>2021-07-03T11:40:00.000Z</time>
      </trkpt>
      <trkpt lat="42.038238" lon="-2.785285">
        <ele>1750.2</ele>
        <time>2021-07-03T11:40:01.000Z</time>
      </trkpt>
      <trkpt lat="42.038242" lon="-2.785277">
        <ele>1750.5</ele>
        <time>2021-07-03T11:40:05.000Z</time>
      </trkpt>
      <trkpt lat="42.038240" lon="-2.785275">
        <ele>1750.6</ele>
        <time>2021-07-03T11:40:07.000Z</time>
      </trkpt>
      <trkpt lat="42.038240" lon="-2.785277">
        <ele>1750.5</ele>
        <time>2021-07-03T11:40:08.000Z</time>
      </trkpt>
      <trkpt lat="42.038238" lon="-2.785277">
        <ele>1750.5</ele>
        <time>2021-07-03T11:40:10.000Z</time>
      </trkpt>
      <trkpt lat="42.038242" lon="-2.785277">
        <ele>1750.6</ele>
        <time>2021-07-03T11:40:12.000Z</time>
      </trkpt>
      <trkpt lat="42.038242" lon="-2.785280">
        <ele>1750.1</ele>
        <time>2021-07-03T11:40:17.000Z</time>
      </trkpt>
      <trkpt lat="42.038242" lon="-2.785287">
        <ele>1750.2</ele>
        <time>2021-07-03T11:40:19.000Z</time>
      </trkpt>
      <trkpt lat="42.038240" lon="-2.785285">
        <ele>1749.9</ele>
        <time>2021-07-03T11:40:25.000Z</time>
      </trkpt>
      <trkpt lat="42.038232" lon="-2.785285">
        <ele>1750.4</ele>
        <time>2021-07-03T11:40:29.000Z</time>
      </trkpt>
      <trkpt lat="42.038230" lon="-2.785285">
        <ele>1750.4</ele>
        <time>2021-07-03T11:40:30.000Z</time>
      </trkpt>
      <trkpt lat="42.038230" lon="-2.785285">
        <ele>1750.3</ele>
        <time>2021-07-03T11:40:31.000Z</time>
      </trkpt>
      <trkpt lat="42.038228" lon="-2.785283">
        <ele>1750.3</ele>
        <time>2021-07-03T11:40:33.000Z</time>
      </trkpt>
      <trkpt lat="42.038228" lon="-2.785283">
        <ele>1750.3</ele>
        <time>2021-07-03T11:40:34.000Z</time>
      </trkpt>
      <trkpt lat="42.038230" lon="-2.785283">
        <ele>1750.2</ele>
        <time>2021-07-03T11:40:48.000Z</time>
      </trkpt>
      <trkpt lat="42.038230" lon="-2.785285">
        <ele>1750.1</ele>
        <time>2021-07-03T11:40:51.000Z</time>
      </trkpt>
      <trkpt lat="42.038230" lon="-2.785278">
        <ele>1750.0</ele>
        <time>2021-07-03T11:40:54.000Z</time>
      </trkpt>
      <trkpt lat="42.038232" lon="-2.785268">
        <ele>1749.8</ele>
        <time>2021-07-03T11:40:56.000Z</time>
      </trkpt>
      <trkpt lat="42.038232" lon="-2.785262">
        <ele>1749.6</ele>
        <time>2021-07-03T11:40:57.000Z</time>
      </trkpt>
      <trkpt lat="42.038240" lon="-2.785262">
        <ele>1749.9</ele>
        <time>2021-07-03T11:41:06.000Z</time>
      </trkpt>
      <trkpt lat="42.038238" lon="-2.785265">
        <ele>1749.7</ele>
        <time>2021-07-03T11:41:08.000Z</time>
      </trkpt>
      <trkpt lat="42.038232" lon="-2.785237">
        <ele>1750.2</ele>
        <time>2021-07-03T11:41:24.000Z</time>
      </trkpt>
      <trkpt lat="42.038232" lon="-2.785252">
        <ele>1750.0</ele>
        <time>2021-07-03T11:41:34.000Z</time>
      </trkpt>
      <trkpt lat="42.038232" lon="-2.785258">
        <ele>1750.2</ele>
        <time>2021-07-03T11:41:37.000Z</time>
      </trkpt>
      <trkpt lat="42.038230" lon="-2.785257">
        <ele>1749.8</ele>
        <time>2021-07-03T11:41:56.000Z</time>
      </trkpt>
      <trkpt lat="42.038230" lon="-2.785257">
        <ele>1749.8</ele>
        <time>2021-07-03T11:41:57.000Z</time>
      </trkpt>
      <trkpt lat="42.038228" lon="-2.785260">
        <ele>1749.7</ele>
        <time>2021-07-03T11:42:13.000Z</time>
      </trkpt>
      <trkpt lat="42.038228" lon="-2.785262">
        <ele>1749.8</ele>
        <time>2021-07-03T11:42:14.000Z</time>
      </trkpt>
      <trkpt lat="42.038227" lon="-2.785260">
        <ele>1750.4</ele>
        <time>2021-07-03T11:42:25.000Z</time>
      </trkpt>
      <trkpt lat="42.038227" lon="-2.785252">
        <ele>1750.3</ele>
        <time>2021-07-03T11:42:28.000Z</time>
      </trkpt>
      <trkpt lat="42.038225" lon="-2.785243">
        <ele>1750.4</ele>
        <time>2021-07-03T11:42:30.000Z</time>
      </trkpt>
      <trkpt lat="42.038212" lon="-2.785235">
        <ele>1750.5</ele>
        <time>2021-07-03T11:42:43.000Z</time>
      </trkpt>
      <trkpt lat="42.038213" lon="-2.785235">
        <ele>1750.6</ele>
        <time>2021-07-03T11:42:45.000Z</time>
      </trkpt>
      <trkpt lat="42.038213" lon="-2.785235">
        <ele>1750.6</ele>
        <time>2021-07-03T11:42:46.000Z</time>
      </trkpt>
      <trkpt lat="42.038215" lon="-2.785233">
        <ele>1750.7</ele>
        <time>2021-07-03T11:42:47.000Z</time>
      </trkpt>
      <trkpt lat="42.038215" lon="-2.785233">
        <ele>1750.8</ele>
        <time>2021-07-03T11:42:48.000Z</time>
      </trkpt>
      <trkpt lat="42.038217" lon="-2.785233">
        <ele>1750.3</ele>
        <time>2021-07-03T11:42:55.000Z</time>
      </trkpt>
      <trkpt lat="42.038217" lon="-2.785233">
        <ele>1750.4</ele>
        <time>2021-07-03T11:42:56.000Z</time>
      </trkpt>
      <trkpt lat="42.038218" lon="-2.785233">
        <ele>1750.3</ele>
        <time>2021-07-03T11:42:57.000Z</time>
      </trkpt>
      <trkpt lat="42.038218" lon="-2.785232">
        <ele>1750.1</ele>
        <time>2021-07-03T11:42:59.000Z</time>
      </trkpt>
      <trkpt lat="42.038220" lon="-2.785237">
        <ele>1750.2</ele>
        <time>2021-07-03T11:43:03.000Z</time>
      </trkpt>
      <trkpt lat="42.038227" lon="-2.785263">
        <ele>1750.1</ele>
        <time>2021-07-03T11:43:06.000Z</time>
      </trkpt>
      <trkpt lat="42.038227" lon="-2.785267">
        <ele>1750.1</ele>
        <time>2021-07-03T11:43:07.000Z</time>
      </trkpt>
      <trkpt lat="42.038227" lon="-2.785265">
        <ele>1750.1</ele>
        <time>2021-07-03T11:43:08.000Z</time>
      </trkpt>
      <trkpt lat="42.038228" lon="-2.785265">
        <ele>1749.9</ele>
        <time>2021-07-03T11:44:08.000Z</time>
      </trkpt>
      <trkpt lat="42.038228" lon="-2.785265">
        <ele>1750.1</ele>
        <time>2021-07-03T11:44:09.000Z</time>
      </trkpt>
      <trkpt lat="42.038227" lon="-2.785265">
        <ele>1749.8</ele>
        <time>2021-07-03T11:44:26.000Z</time>
      </trkpt>
      <trkpt lat="42.038227" lon="-2.785265">
        <ele>1749.9</ele>
        <time>2021-07-03T11:44:27.000Z</time>
      </trkpt>
      <trkpt lat="42.038228" lon="-2.785265">
        <ele>1750.3</ele>
        <time>2021-07-03T11:44:35.000Z</time>
      </trkpt>
      <trkpt lat="42.038228" lon="-2.785265">
        <ele>1750.3</ele>
        <time>2021-07-03T11:44:36.000Z</time>
      </trkpt>
      <trkpt lat="42.038227" lon="-2.785268">
        <ele>1750.4</ele>
        <time>2021-07-03T11:44:44.000Z</time>
      </trkpt>
      <trkpt lat="42.038222" lon="-2.785270">
        <ele>1750.0</ele>
        <time>2021-07-03T11:44:48.000Z</time>
      </trkpt>
      <trkpt lat="42.038220" lon="-2.785272">
        <ele>1750.4</ele>
        <time>2021-07-03T11:44:51.000Z</time>
      </trkpt>
      <trkpt lat="42.038220" lon="-2.785272">
        <ele>1750.4</ele>
        <time>2021-07-03T11:44:52.000Z</time>
      </trkpt>
      <trkpt lat="42.038222" lon="-2.785272">
        <ele>1750.1</ele>
        <time>2021-07-03T11:44:53.000Z</time>
      </trkpt>
      <trkpt lat="42.038222" lon="-2.785280">
        <ele>1750.3</ele>
        <time>2021-07-03T11:44:57.000Z</time>
      </trkpt>
      <trkpt lat="42.038220" lon="-2.785280">
        <ele>1750.1</ele>
        <time>2021-07-03T11:44:58.000Z</time>
      </trkpt>
      <trkpt lat="42.038227" lon="-2.785293">
        <ele>1750.3</ele>
        <time>2021-07-03T11:45:04.000Z</time>
      </trkpt>
      <trkpt lat="42.038228" lon="-2.785292">
        <ele>1750.4</ele>
        <time>2021-07-03T11:45:05.000Z</time>
      </trkpt>
      <trkpt lat="42.038223" lon="-2.785270">
        <ele>1750.3</ele>
        <time>2021-07-03T11:45:11.000Z</time>
      </trkpt>
      <trkpt lat="42.038222" lon="-2.785267">
        <ele>1750.2</ele>
        <time>2021-07-03T11:45:12.000Z</time>
      </trkpt>
      <trkpt lat="42.038232" lon="-2.785265">
        <ele>1750.1</ele>
        <time>2021-07-03T11:45:20.000Z</time>
      </trkpt>
      <trkpt lat="42.038230" lon="-2.785265">
        <ele>1750.2</ele>
        <time>2021-07-03T11:45:23.000Z</time>
      </trkpt>
      <trkpt lat="42.038225" lon="-2.785257">
        <ele>1750.3</ele>
        <time>2021-07-03T11:45:27.000Z</time>
      </trkpt>
      <trkpt lat="42.038223" lon="-2.785255">
        <ele>1750.2</ele>
        <time>2021-07-03T11:45:28.000Z</time>
      </trkpt>
      <trkpt lat="42.038190" lon="-2.785227">
        <ele>1749.9</ele>
        <time>2021-07-03T11:45:50.000Z</time>
      </trkpt>
      <trkpt lat="42.038188" lon="-2.785228">
        <ele>1749.8</ele>
        <time>2021-07-03T11:45:51.000Z</time>
      </trkpt>
      <trkpt lat="42.038187" lon="-2.785235">
        <ele>1749.9</ele>
        <time>2021-07-03T11:45:58.000Z</time>
      </trkpt>
      <trkpt lat="42.038187" lon="-2.785228">
        <ele>1749.9</ele>
        <time>2021-07-03T11:45:59.000Z</time>
      </trkpt>
      <trkpt lat="42.038188" lon="-2.785228">
        <ele>1750.0</ele>
        <time>2021-07-03T11:46:01.000Z</time>
      </trkpt>
      <trkpt lat="42.038190" lon="-2.785225">
        <ele>1749.9</ele>
        <time>2021-07-03T11:46:03.000Z</time>
      </trkpt>
      <trkpt lat="42.038195" lon="-2.785227">
        <ele>1750.0</ele>
        <time>2021-07-03T11:46:08.000Z</time>
      </trkpt>
      <trkpt lat="42.038197" lon="-2.785230">
        <ele>1749.9</ele>
        <time>2021-07-03T11:46:09.000Z</time>
      </trkpt>
      <trkpt lat="42.038198" lon="-2.785227">
        <ele>1750.1</ele>
        <time>2021-07-03T11:46:11.000Z</time>
      </trkpt>
      <trkpt lat="42.038198" lon="-2.785222">
        <ele>1750.0</ele>
        <time>2021-07-03T11:46:12.000Z</time>
      </trkpt>
      <trkpt lat="42.038198" lon="-2.785217">
        <ele>1749.8</ele>
        <time>2021-07-03T11:46:17.000Z</time>
      </trkpt>
      <trkpt lat="42.038197" lon="-2.785223">
        <ele>1749.9</ele>
        <time>2021-07-03T11:46:18.000Z</time>
      </trkpt>
      <trkpt lat="42.038207" lon="-2.785225">
        <ele>1749.9</ele>
        <time>2021-07-03T11:46:28.000Z</time>
      </trkpt>
      <trkpt lat="42.038210" lon="-2.785225">
        <ele>1749.9</ele>
        <time>2021-07-03T11:46:29.000Z</time>
      </trkpt>
      <trkpt lat="42.038223" lon="-2.785220">
        <ele>1750.1</ele>
        <time>2021-07-03T11:46:35.000Z</time>
      </trkpt>
      <trkpt lat="42.038225" lon="-2.785218">
        <ele>1750.2</ele>
        <time>2021-07-03T11:46:36.000Z</time>
      </trkpt>
      <trkpt lat="42.038235" lon="-2.785213">
        <ele>1750.0</ele>
        <time>2021-07-03T11:46:50.000Z</time>
      </trkpt>
      <trkpt lat="42.038235" lon="-2.785217">
        <ele>1750.1</ele>
        <time>2021-07-03T11:46:51.000Z</time>
      </trkpt>
      <trkpt lat="42.038235" lon="-2.785218">
        <ele>1750.2</ele>
        <time>2021-07-03T11:46:52.000Z</time>
      </trkpt>
      <trkpt lat="42.038235" lon="-2.785222">
        <ele>1750.1</ele>
        <time>2021-07-03T11:46:53.000Z</time>
      </trkpt>
      <trkpt lat="42.038237" lon="-2.785228">
        <ele>1749.9</ele>
        <time>2021-07-03T11:46:55.000Z</time>
      </trkpt>
      <trkpt lat="42.038235" lon="-2.785230">
        <ele>1750.0</ele>
        <time>2021-07-03T11:46:56.000Z</time>
      </trkpt>
      <trkpt lat="42.038228" lon="-2.785255">
        <ele>1750.1</ele>
        <time>2021-07-03T11:47:05.000Z</time>
      </trkpt>
      <trkpt lat="42.038227" lon="-2.785257">
        <ele>1750.3</ele>
        <time>2021-07-03T11:47:06.000Z</time>
      </trkpt>
      <trkpt lat="42.038227" lon="-2.785258">
        <ele>1750.4</ele>
        <time>2021-07-03T11:47:07.000Z</time>
      </trkpt>
      <trkpt lat="42.038225" lon="-2.785260">
        <ele>1750.2</ele>
        <time>2021-07-03T11:47:09.000Z</time>
      </trkpt>
      <trkpt lat="42.038223" lon="-2.785262">
        <ele>1750.4</ele>
        <time>2021-07-03T11:47:11.000Z</time>
      </trkpt>
      <trkpt lat="42.038227" lon="-2.785260">
        <ele>1750.2</ele>
        <time>2021-07-03T11:47:12.000Z</time>
      </trkpt>
      <trkpt lat="42.038240" lon="-2.785233">
        <ele>1750.1</ele>
        <time>2021-07-03T11:47:22.000Z</time>
      </trkpt>
      <trkpt lat="42.038242" lon="-2.785228">
        <ele>1750.1</ele>
        <time>2021-07-03T11:47:24.000Z</time>
      </trkpt>
      <trkpt lat="42.038255" lon="-2.785233">
        <ele>1749.8</ele>
        <time>2021-07-03T11:47:30.000Z</time>
      </trkpt>
      <trkpt lat="42.038257" lon="-2.785232">
        <ele>1749.8</ele>
        <time>2021-07-03T11:47:31.000Z</time>
      </trkpt>
      <trkpt lat="42.038258" lon="-2.785220">
        <ele>1750.1</ele>
        <time>2021-07-03T11:47:36.000Z</time>
      </trkpt>
      <trkpt lat="42.038260" lon="-2.785220">
        <ele>1750.1</ele>
        <time>2021-07-03T11:47:37.000Z</time>
      </trkpt>
      <trkpt lat="42.038250" lon="-2.785207">
        <ele>1750.0</ele>
        <time>2021-07-03T11:47:42.000Z</time>
      </trkpt>
      <trkpt lat="42.038248" lon="-2.785210">
        <ele>1749.8</ele>
        <time>2021-07-03T11:47:44.000Z</time>
      </trkpt>
      <trkpt lat="42.038247" lon="-2.785210">
        <ele>1750.2</ele>
        <time>2021-07-03T11:47:46.000Z</time>
      </trkpt>
      <trkpt lat="42.038248" lon="-2.785207">
        <ele>1750.1</ele>
        <time>2021-07-03T11:47:47.000Z</time>
      </trkpt>
      <trkpt lat="42.038248" lon="-2.785208">
        <ele>1750.0</ele>
        <time>2021-07-03T11:47:48.000Z</time>
      </trkpt>
      <trkpt lat="42.038247" lon="-2.785207">
        <ele>1749.1</ele>
        <time>2021-07-03T11:48:33.000Z</time>
      </trkpt>
      <trkpt lat="42.038247" lon="-2.785207">
        <ele>1749.2</ele>
        <time>2021-07-03T11:48:34.000Z</time>
      </trkpt>
      <trkpt lat="42.038245" lon="-2.785208">
        <ele>1749.3</ele>
        <time>2021-07-03T11:48:45.000Z</time>
      </trkpt>
      <trkpt lat="42.038245" lon="-2.785210">
        <ele>1749.2</ele>
        <time>2021-07-03T11:48:46.000Z</time>
      </trkpt>
      <trkpt lat="42.038245" lon="-2.785213">
        <ele>1749.1</ele>
        <time>2021-07-03T11:48:47.000Z</time>
      </trkpt>
      <trkpt lat="42.038242" lon="-2.785228">
        <ele>1749.3</ele>
        <time>2021-07-03T11:48:52.000Z</time>
      </trkpt>
      <trkpt lat="42.038240" lon="-2.785230">
        <ele>1749.3</ele>
        <time>2021-07-03T11:48:53.000Z</time>
      </trkpt>
      <trkpt lat="42.038240" lon="-2.785232">
        <ele>1749.3</ele>
        <time>2021-07-03T11:48:54.000Z</time>
      </trkpt>
      <trkpt lat="42.038238" lon="-2.785232">
        <ele>1749.4</ele>
        <time>2021-07-03T11:48:55.000Z</time>
      </trkpt>
      <trkpt lat="42.038237" lon="-2.785242">
        <ele>1749.3</ele>
        <time>2021-07-03T11:48:59.000Z</time>
      </trkpt>
      <trkpt lat="42.038235" lon="-2.785242">
        <ele>1749.2</ele>
        <time>2021-07-03T11:49:00.000Z</time>
      </trkpt>
      <trkpt lat="42.038235" lon="-2.785243">
        <ele>1749.1</ele>
        <time>2021-07-03T11:49:01.000Z</time>
      </trkpt>
      <trkpt lat="42.038233" lon="-2.785250">
        <ele>1749.4</ele>
        <time>2021-07-03T11:49:03.000Z</time>
      </trkpt>
      <trkpt lat="42.038233" lon="-2.785285">
        <ele>1749.2</ele>
        <time>2021-07-03T11:49:12.000Z</time>
      </trkpt>
      <trkpt lat="42.038232" lon="-2.785282">
        <ele>1749.2</ele>
        <time>2021-07-03T11:49:15.000Z</time>
      </trkpt>
      <trkpt lat="42.038232" lon="-2.785282">
        <ele>1749.1</ele>
        <time>2021-07-03T11:49:16.000Z</time>
      </trkpt>
      <trkpt lat="42.038230" lon="-2.785283">
        <ele>1749.2</ele>
        <time>2021-07-03T11:49:17.000Z</time>
      </trkpt>
      <trkpt lat="42.038227" lon="-2.785277">
        <ele>1749.2</ele>
        <time>2021-07-03T11:49:22.000Z</time>
      </trkpt>
      <trkpt lat="42.038225" lon="-2.785280">
        <ele>1749.3</ele>
        <time>2021-07-03T11:49:23.000Z</time>
      </trkpt>
      <trkpt lat="42.038225" lon="-2.785282">
        <ele>1749.2</ele>
        <time>2021-07-03T11:49:24.000Z</time>
      </trkpt>
      <trkpt lat="42.038225" lon="-2.785285">
        <ele>1749.2</ele>
        <time>2021-07-03T11:49:25.000Z</time>
      </trkpt>
      <trkpt lat="42.038218" lon="-2.785295">
        <ele>1749.4</ele>
        <time>2021-07-03T11:49:31.000Z</time>
      </trkpt>
      <trkpt lat="42.038217" lon="-2.785297">
        <ele>1749.3</ele>
        <time>2021-07-03T11:49:32.000Z</time>
      </trkpt>
      <trkpt lat="42.038217" lon="-2.785297">
        <ele>1749.3</ele>
        <time>2021-07-03T11:49:33.000Z</time>
      </trkpt>
      <trkpt lat="42.038215" lon="-2.785295">
        <ele>1749.2</ele>
        <time>2021-07-03T11:49:34.000Z</time>
      </trkpt>
      <trkpt lat="42.038215" lon="-2.785295">
        <ele>1749.2</ele>
        <time>2021-07-03T11:49:35.000Z</time>
      </trkpt>
      <trkpt lat="42.038217" lon="-2.785293">
        <ele>1749.2</ele>
        <time>2021-07-03T11:49:36.000Z</time>
      </trkpt>
      <trkpt lat="42.038217" lon="-2.785292">
        <ele>1749.4</ele>
        <time>2021-07-03T11:49:37.000Z</time>
      </trkpt>
      <trkpt lat="42.038217" lon="-2.785288">
        <ele>1749.3</ele>
        <time>2021-07-03T11:49:38.000Z</time>
      </trkpt>
      <trkpt lat="42.038215" lon="-2.785278">
        <ele>1749.3</ele>
        <time>2021-07-03T11:49:42.000Z</time>
      </trkpt>
      <trkpt lat="42.038213" lon="-2.785280">
        <ele>1749.2</ele>
        <time>2021-07-03T11:49:44.000Z</time>
      </trkpt>
      <trkpt lat="42.038210" lon="-2.785292">
        <ele>1749.1</ele>
        <time>2021-07-03T11:49:50.000Z</time>
      </trkpt>
      <trkpt lat="42.038210" lon="-2.785283">
        <ele>1749.5</ele>
        <time>2021-07-03T11:49:54.000Z</time>
      </trkpt>
      <trkpt lat="42.038208" lon="-2.785280">
        <ele>1749.5</ele>
        <time>2021-07-03T11:49:56.000Z</time>
      </trkpt>
      <trkpt lat="42.038210" lon="-2.785278">
        <ele>1749.3</ele>
        <time>2021-07-03T11:49:57.000Z</time>
      </trkpt>
      <trkpt lat="42.038210" lon="-2.785277">
        <ele>1749.3</ele>
        <time>2021-07-03T11:49:58.000Z</time>
      </trkpt>
      <trkpt lat="42.038208" lon="-2.785277">
        <ele>1749.5</ele>
        <time>2021-07-03T11:49:59.000Z</time>
      </trkpt>
      <trkpt lat="42.038208" lon="-2.785275">
        <ele>1749.6</ele>
        <time>2021-07-03T11:50:01.000Z</time>
      </trkpt>
      <trkpt lat="42.038210" lon="-2.785277">
        <ele>1749.6</ele>
        <time>2021-07-03T11:50:02.000Z</time>
      </trkpt>
      <trkpt lat="42.038212" lon="-2.785282">
        <ele>1749.4</ele>
        <time>2021-07-03T11:50:05.000Z</time>
      </trkpt>
      <trkpt lat="42.038212" lon="-2.785278">
        <ele>1749.5</ele>
        <time>2021-07-03T11:50:06.000Z</time>
      </trkpt>
      <trkpt lat="42.038212" lon="-2.785273">
        <ele>1749.8</ele>
        <time>2021-07-03T11:50:08.000Z</time>
      </trkpt>
      <trkpt lat="42.038210" lon="-2.785270">
        <ele>1749.8</ele>
        <time>2021-07-03T11:50:09.000Z</time>
      </trkpt>
      <trkpt lat="42.038210" lon="-2.785245">
        <ele>1749.8</ele>
        <time>2021-07-03T11:50:17.000Z</time>
      </trkpt>
      <trkpt lat="42.038212" lon="-2.785242">
        <ele>1749.7</ele>
        <time>2021-07-03T11:50:18.000Z</time>
      </trkpt>
      <trkpt lat="42.038213" lon="-2.785232">
        <ele>1749.9</ele>
        <time>2021-07-03T11:50:22.000Z</time>
      </trkpt>
      <trkpt lat="42.038215" lon="-2.785230">
        <ele>1749.8</ele>
        <time>2021-07-03T11:50:23.000Z</time>
      </trkpt>
      <trkpt lat="42.038218" lon="-2.785227">
        <ele>1749.7</ele>
        <time>2021-07-03T11:50:27.000Z</time>
      </trkpt>
      <trkpt lat="42.038220" lon="-2.785227">
        <ele>1749.7</ele>
        <time>2021-07-03T11:50:28.000Z</time>
      </trkpt>
      <trkpt lat="42.038220" lon="-2.785228">
        <ele>1749.7</ele>
        <time>2021-07-03T11:50:29.000Z</time>
      </trkpt>
      <trkpt lat="42.038222" lon="-2.785228">
        <ele>1749.9</ele>
        <time>2021-07-03T11:50:30.000Z</time>
      </trkpt>
      <trkpt lat="42.038222" lon="-2.785228">
        <ele>1749.8</ele>
        <time>2021-07-03T11:50:31.000Z</time>
      </trkpt>
      <trkpt lat="42.038223" lon="-2.785227">
        <ele>1749.8</ele>
        <time>2021-07-03T11:50:32.000Z</time>
      </trkpt>
      <trkpt lat="42.038233" lon="-2.785235">
        <ele>1749.6</ele>
        <time>2021-07-03T11:50:39.000Z</time>
      </trkpt>
      <trkpt lat="42.038235" lon="-2.785233">
        <ele>1749.7</ele>
        <time>2021-07-03T11:50:40.000Z</time>
      </trkpt>
      <trkpt lat="42.038235" lon="-2.785232">
        <ele>1749.8</ele>
        <time>2021-07-03T11:50:41.000Z</time>
      </trkpt>
      <trkpt lat="42.038233" lon="-2.785230">
        <ele>1749.8</ele>
        <time>2021-07-03T11:50:44.000Z</time>
      </trkpt>
      <trkpt lat="42.038233" lon="-2.785228">
        <ele>1749.8</ele>
        <time>2021-07-03T11:50:45.000Z</time>
      </trkpt>
      <trkpt lat="42.038232" lon="-2.785227">
        <ele>1749.8</ele>
        <time>2021-07-03T11:50:47.000Z</time>
      </trkpt>
      <trkpt lat="42.038232" lon="-2.785225">
        <ele>1749.9</ele>
        <time>2021-07-03T11:50:48.000Z</time>
      </trkpt>
      <trkpt lat="42.038230" lon="-2.785225">
        <ele>1749.9</ele>
        <time>2021-07-03T11:50:49.000Z</time>
      </trkpt>
      <trkpt lat="42.038228" lon="-2.785222">
        <ele>1749.7</ele>
        <time>2021-07-03T11:50:51.000Z</time>
      </trkpt>
      <trkpt lat="42.038227" lon="-2.785222">
        <ele>1749.9</ele>
        <time>2021-07-03T11:50:52.000Z</time>
      </trkpt>
      <trkpt lat="42.038225" lon="-2.785222">
        <ele>1749.8</ele>
        <time>2021-07-03T11:50:54.000Z</time>
      </trkpt>
      <trkpt lat="42.038227" lon="-2.785222">
        <ele>1749.8</ele>
        <time>2021-07-03T11:50:56.000Z</time>
      </trkpt>
      <trkpt lat="42.038228" lon="-2.785218">
        <ele>1749.9</ele>
        <time>2021-07-03T11:50:58.000Z</time>
      </trkpt>
      <trkpt lat="42.038230" lon="-2.785218">
        <ele>1749.9</ele>
        <time>2021-07-03T11:50:59.000Z</time>
      </trkpt>
      <trkpt lat="42.038230" lon="-2.785218">
        <ele>1749.9</ele>
        <time>2021-07-03T11:51:00.000Z</time>
      </trkpt>
      <trkpt lat="42.038228" lon="-2.785217">
        <ele>1750.0</ele>
        <time>2021-07-03T11:51:06.000Z</time>
      </trkpt>
      <trkpt lat="42.038233" lon="-2.785213">
        <ele>1749.9</ele>
        <time>2021-07-03T11:51:10.000Z</time>
      </trkpt>
      <trkpt lat="42.038233" lon="-2.785220">
        <ele>1749.7</ele>
        <time>2021-07-03T11:52:14.000Z</time>
      </trkpt>
      <trkpt lat="42.038232" lon="-2.785238">
        <ele>1749.7</ele>
        <time>2021-07-03T11:52:17.000Z</time>
      </trkpt>
      <trkpt lat="42.038230" lon="-2.785240">
        <ele>1749.7</ele>
        <time>2021-07-03T11:52:20.000Z</time>
      </trkpt>
      <trkpt lat="42.038227" lon="-2.785250">
        <ele>1750.0</ele>
        <time>2021-07-03T11:52:23.000Z</time>
      </trkpt>
      <trkpt lat="42.038227" lon="-2.785245">
        <ele>1750.1</ele>
        <time>2021-07-03T11:52:26.000Z</time>
      </trkpt>
      <trkpt lat="42.038220" lon="-2.785240">
        <ele>1749.9</ele>
        <time>2021-07-03T11:52:32.000Z</time>
      </trkpt>
      <trkpt lat="42.038220" lon="-2.785237">
        <ele>1750.0</ele>
        <time>2021-07-03T11:52:33.000Z</time>
      </trkpt>
      <trkpt lat="42.038220" lon="-2.785235">
        <ele>1750.0</ele>
        <time>2021-07-03T11:52:34.000Z</time>
      </trkpt>
      <trkpt lat="42.038220" lon="-2.785230">
        <ele>1750.0</ele>
        <time>2021-07-03T11:52:35.000Z</time>
      </trkpt>
      <trkpt lat="42.038202" lon="-2.785270">
        <ele>1750.0</ele>
        <time>2021-07-03T11:52:44.000Z</time>
      </trkpt>
      <trkpt lat="42.038200" lon="-2.785273">
        <ele>1749.8</ele>
        <time>2021-07-03T11:53:42.000Z</time>
      </trkpt>
      <trkpt lat="42.038197" lon="-2.785272">
        <ele>1749.8</ele>
        <time>2021-07-03T11:53:47.000Z</time>
      </trkpt>
      <trkpt lat="42.038198" lon="-2.785268">
        <ele>1750.0</ele>
        <time>2021-07-03T11:53:48.000Z</time>
      </trkpt>
      <trkpt lat="42.038202" lon="-2.785268">
        <ele>1749.8</ele>
        <time>2021-07-03T11:53:50.000Z</time>
      </trkpt>
      <trkpt lat="42.038205" lon="-2.785268">
        <ele>1749.7</ele>
        <time>2021-07-03T11:53:51.000Z</time>
      </trkpt>
      <trkpt lat="42.038202" lon="-2.785268">
        <ele>1749.7</ele>
        <time>2021-07-03T11:53:56.000Z</time>
      </trkpt>
      <trkpt lat="42.038202" lon="-2.785265">
        <ele>1749.7</ele>
        <time>2021-07-03T11:53:57.000Z</time>
      </trkpt>
      <trkpt lat="42.038202" lon="-2.785263">
        <ele>1749.8</ele>
        <time>2021-07-03T11:53:58.000Z</time>
      </trkpt>
      <trkpt lat="42.038203" lon="-2.785262">
        <ele>1749.7</ele>
        <time>2021-07-03T11:53:59.000Z</time>
      </trkpt>
      <trkpt lat="42.038212" lon="-2.785250">
        <ele>1749.9</ele>
        <time>2021-07-03T11:54:04.000Z</time>
      </trkpt>
      <trkpt lat="42.038212" lon="-2.785252">
        <ele>1749.8</ele>
        <time>2021-07-03T11:54:06.000Z</time>
      </trkpt>
      <trkpt lat="42.038187" lon="-2.785230">
        <ele>1749.7</ele>
        <time>2021-07-03T11:54:24.000Z</time>
      </trkpt>
      <trkpt lat="42.038190" lon="-2.785237">
        <ele>1749.6</ele>
        <time>2021-07-03T11:54:25.000Z</time>
      </trkpt>
      <trkpt lat="42.038248" lon="-2.785313">
        <ele>1749.7</ele>
        <time>2021-07-03T11:54:39.000Z</time>
      </trkpt>
      <trkpt lat="42.038252" lon="-2.785318">
        <ele>1749.7</ele>
        <time>2021-07-03T11:54:42.000Z</time>
      </trkpt>
      <trkpt lat="42.038343" lon="-2.785320">
        <ele>1749.8</ele>
        <time>2021-07-03T11:54:54.000Z</time>
      </trkpt>
      <trkpt lat="42.038327" lon="-2.785310">
        <ele>1749.9</ele>
        <time>2021-07-03T11:55:07.000Z</time>
      </trkpt>
      <trkpt lat="42.038328" lon="-2.785312">
        <ele>1749.9</ele>
        <time>2021-07-03T11:55:08.000Z</time>
      </trkpt>
      <trkpt lat="42.038325" lon="-2.785308">
        <ele>1750.2</ele>
        <time>2021-07-03T11:55:11.000Z</time>
      </trkpt>
      <trkpt lat="42.038322" lon="-2.785303">
        <ele>1750.1</ele>
        <time>2021-07-03T11:55:12.000Z</time>
      </trkpt>
      <trkpt lat="42.038307" lon="-2.785295">
        <ele>1749.9</ele>
        <time>2021-07-03T11:55:19.000Z</time>
      </trkpt>
      <trkpt lat="42.038310" lon="-2.785295">
        <ele>1749.9</ele>
        <time>2021-07-03T11:55:20.000Z</time>
      </trkpt>
      <trkpt lat="42.038298" lon="-2.785275">
        <ele>1749.6</ele>
        <time>2021-07-03T11:55:26.000Z</time>
      </trkpt>
      <trkpt lat="42.038297" lon="-2.785273">
        <ele>1749.8</ele>
        <time>2021-07-03T11:55:39.000Z</time>
      </trkpt>
      <trkpt lat="42.038297" lon="-2.785273">
        <ele>1749.8</ele>
        <time>2021-07-03T11:55:40.000Z</time>
      </trkpt>
      <trkpt lat="42.038295" lon="-2.785275">
        <ele>1750.0</ele>
        <time>2021-07-03T11:56:03.000Z</time>
      </trkpt>
      <trkpt lat="42.038295" lon="-2.785275">
        <ele>1749.9</ele>
        <time>2021-07-03T11:56:04.000Z</time>
      </trkpt>
      <trkpt lat="42.038292" lon="-2.785277">
        <ele>1752.4</ele>
        <time>2021-07-03T11:56:21.000Z</time>
      </trkpt>
      <trkpt lat="42.038295" lon="-2.785280">
        <ele>1750.4</ele>
        <time>2021-07-03T11:56:24.000Z</time>
      </trkpt>
      <trkpt lat="42.038297" lon="-2.785285">
        <ele>1749.9</ele>
        <time>2021-07-03T11:56:26.000Z</time>
      </trkpt>
      <trkpt lat="42.038297" lon="-2.785283">
        <ele>1749.7</ele>
        <time>2021-07-03T11:56:27.000Z</time>
      </trkpt>
      <trkpt lat="42.038297" lon="-2.785280">
        <ele>1748.7</ele>
        <time>2021-07-03T11:56:28.000Z</time>
      </trkpt>
      <trkpt lat="42.038288" lon="-2.785275">
        <ele>1746.6</ele>
        <time>2021-07-03T11:56:31.000Z</time>
      </trkpt>
      <trkpt lat="42.038287" lon="-2.785277">
        <ele>1749.8</ele>
        <time>2021-07-03T11:56:32.000Z</time>
      </trkpt>
      <trkpt lat="42.038295" lon="-2.785282">
        <ele>1749.5</ele>
        <time>2021-07-03T11:56:35.000Z</time>
      </trkpt>
      <trkpt lat="42.038297" lon="-2.785283">
        <ele>1752.2</ele>
        <time>2021-07-03T11:56:36.000Z</time>
      </trkpt>
      <trkpt lat="42.038298" lon="-2.785285">
        <ele>1750.3</ele>
        <time>2021-07-03T11:56:40.000Z</time>
      </trkpt>
      <trkpt lat="42.038292" lon="-2.785287">
        <ele>1750.3</ele>
        <time>2021-07-03T11:56:43.000Z</time>
      </trkpt>
      <trkpt lat="42.038292" lon="-2.785287">
        <ele>1750.3</ele>
        <time>2021-07-03T11:56:44.000Z</time>
      </trkpt>
      <trkpt lat="42.038290" lon="-2.785287">
        <ele>1750.1</ele>
        <time>2021-07-03T11:56:53.000Z</time>
      </trkpt>
      <trkpt lat="42.038278" lon="-2.785283">
        <ele>1750.1</ele>
        <time>2021-07-03T11:56:57.000Z</time>
      </trkpt>
      <trkpt lat="42.038277" lon="-2.785283">
        <ele>1750.1</ele>
        <time>2021-07-03T11:56:58.000Z</time>
      </trkpt>
      <trkpt lat="42.038277" lon="-2.785282">
        <ele>1750.1</ele>
        <time>2021-07-03T11:56:59.000Z</time>
      </trkpt>
      <trkpt lat="42.038278" lon="-2.785280">
        <ele>1750.0</ele>
        <time>2021-07-03T11:57:00.000Z</time>
      </trkpt>
      <trkpt lat="42.038282" lon="-2.785275">
        <ele>1750.0</ele>
        <time>2021-07-03T11:57:02.000Z</time>
      </trkpt>
      <trkpt lat="42.038282" lon="-2.785272">
        <ele>1750.0</ele>
        <time>2021-07-03T11:57:03.000Z</time>
      </trkpt>
      <trkpt lat="42.038282" lon="-2.785272">
        <ele>1750.2</ele>
        <time>2021-07-03T11:57:04.000Z</time>
      </trkpt>
      <trkpt lat="42.038280" lon="-2.785272">
        <ele>1750.1</ele>
        <time>2021-07-03T11:57:06.000Z</time>
      </trkpt>
      <trkpt lat="42.038280" lon="-2.785272">
        <ele>1750.0</ele>
        <time>2021-07-03T11:57:07.000Z</time>
      </trkpt>
      <trkpt lat="42.038273" lon="-2.785268">
        <ele>1749.9</ele>
        <time>2021-07-03T11:57:08.000Z</time>
      </trkpt>
      <trkpt lat="42.038275" lon="-2.785262">
        <ele>1750.2</ele>
        <time>2021-07-03T11:57:11.000Z</time>
      </trkpt>
      <trkpt lat="42.038280" lon="-2.785265">
        <ele>1749.9</ele>
        <time>2021-07-03T11:57:13.000Z</time>
      </trkpt>
      <trkpt lat="42.038305" lon="-2.785265">
        <ele>1750.3</ele>
        <time>2021-07-03T11:57:18.000Z</time>
      </trkpt>
      <trkpt lat="42.038303" lon="-2.785268">
        <ele>1750.5</ele>
        <time>2021-07-03T11:57:20.000Z</time>
      </trkpt>
      <trkpt lat="42.038305" lon="-2.785268">
        <ele>1750.5</ele>
        <time>2021-07-03T11:57:22.000Z</time>
      </trkpt>
      <trkpt lat="42.038303" lon="-2.785268">
        <ele>1750.3</ele>
        <time>2021-07-03T11:57:23.000Z</time>
      </trkpt>
      <trkpt lat="42.038300" lon="-2.785270">
        <ele>1750.0</ele>
        <time>2021-07-03T11:57:25.000Z</time>
      </trkpt>
      <trkpt lat="42.038297" lon="-2.785270">
        <ele>1750.2</ele>
        <time>2021-07-03T11:57:26.000Z</time>
      </trkpt>
      <trkpt lat="42.038297" lon="-2.785272">
        <ele>1750.3</ele>
        <time>2021-07-03T11:57:27.000Z</time>
      </trkpt>
      <trkpt lat="42.038295" lon="-2.785272">
        <ele>1750.3</ele>
        <time>2021-07-03T11:57:28.000Z</time>
      </trkpt>
      <trkpt lat="42.038295" lon="-2.785273">
        <ele>1750.2</ele>
        <time>2021-07-03T11:57:29.000Z</time>
      </trkpt>
      <trkpt lat="42.038293" lon="-2.785275">
        <ele>1750.0</ele>
        <time>2021-07-03T11:57:31.000Z</time>
      </trkpt>
      <trkpt lat="42.038288" lon="-2.785278">
        <ele>1750.2</ele>
        <time>2021-07-03T11:57:34.000Z</time>
      </trkpt>
      <trkpt lat="42.038287" lon="-2.785282">
        <ele>1750.4</ele>
        <time>2021-07-03T11:57:36.000Z</time>
      </trkpt>
      <trkpt lat="42.038273" lon="-2.785288">
        <ele>1750.2</ele>
        <time>2021-07-03T11:57:44.000Z</time>
      </trkpt>
      <trkpt lat="42.038272" lon="-2.785288">
        <ele>1750.3</ele>
        <time>2021-07-03T11:57:45.000Z</time>
      </trkpt>
      <trkpt lat="42.038268" lon="-2.785290">
        <ele>1750.2</ele>
        <time>2021-07-03T11:57:48.000Z</time>
      </trkpt>
      <trkpt lat="42.038270" lon="-2.785288">
        <ele>1750.2</ele>
        <time>2021-07-03T11:57:49.000Z</time>
      </trkpt>
      <trkpt lat="42.038267" lon="-2.785298">
        <ele>1750.4</ele>
        <time>2021-07-03T11:57:53.000Z</time>
      </trkpt>
      <trkpt lat="42.038265" lon="-2.785295">
        <ele>1750.5</ele>
        <time>2021-07-03T11:57:54.000Z</time>
      </trkpt>
      <trkpt lat="42.038260" lon="-2.785292">
        <ele>1750.3</ele>
        <time>2021-07-03T11:57:57.000Z</time>
      </trkpt>
      <trkpt lat="42.038262" lon="-2.785293">
        <ele>1750.3</ele>
        <time>2021-07-03T11:57:58.000Z</time>
      </trkpt>
      <trkpt lat="42.038262" lon="-2.785293">
        <ele>1750.2</ele>
        <time>2021-07-03T11:57:59.000Z</time>
      </trkpt>
      <trkpt lat="42.038263" lon="-2.785292">
        <ele>1750.2</ele>
        <time>2021-07-03T11:58:00.000Z</time>
      </trkpt>
      <trkpt lat="42.038263" lon="-2.785290">
        <ele>1750.1</ele>
        <time>2021-07-03T11:58:01.000Z</time>
      </trkpt>
      <trkpt lat="42.038262" lon="-2.785288">
        <ele>1750.1</ele>
        <time>2021-07-03T11:58:02.000Z</time>
      </trkpt>
      <trkpt lat="42.038255" lon="-2.785290">
        <ele>1750.1</ele>
        <time>2021-07-03T11:58:05.000Z</time>
      </trkpt>
      <trkpt lat="42.038257" lon="-2.785285">
        <ele>1750.2</ele>
        <time>2021-07-03T11:58:06.000Z</time>
      </trkpt>
      <trkpt lat="42.038258" lon="-2.785283">
        <ele>1750.2</ele>
        <time>2021-07-03T11:58:08.000Z</time>
      </trkpt>
      <trkpt lat="42.038258" lon="-2.785282">
        <ele>1750.1</ele>
        <time>2021-07-03T11:58:11.000Z</time>
      </trkpt>
      <trkpt lat="42.038258" lon="-2.785282">
        <ele>1750.0</ele>
        <time>2021-07-03T11:58:12.000Z</time>
      </trkpt>
      <trkpt lat="42.038260" lon="-2.785278">
        <ele>1750.2</ele>
        <time>2021-07-03T11:58:13.000Z</time>
      </trkpt>
      <trkpt lat="42.038260" lon="-2.785278">
        <ele>1750.3</ele>
        <time>2021-07-03T11:58:14.000Z</time>
      </trkpt>
      <trkpt lat="42.038253" lon="-2.785282">
        <ele>1750.3</ele>
        <time>2021-07-03T11:58:15.000Z</time>
      </trkpt>
      <trkpt lat="42.038268" lon="-2.785263">
        <ele>1750.5</ele>
        <time>2021-07-03T11:58:26.000Z</time>
      </trkpt>
      <trkpt lat="42.038267" lon="-2.785260">
        <ele>1750.7</ele>
        <time>2021-07-03T11:58:28.000Z</time>
      </trkpt>
      <trkpt lat="42.038273" lon="-2.785258">
        <ele>1750.7</ele>
        <time>2021-07-03T11:58:32.000Z</time>
      </trkpt>
      <trkpt lat="42.038275" lon="-2.785258">
        <ele>1750.7</ele>
        <time>2021-07-03T11:58:33.000Z</time>
      </trkpt>
      <trkpt lat="42.038285" lon="-2.785318">
        <ele>1751.0</ele>
        <time>2021-07-03T11:58:52.000Z</time>
      </trkpt>
      <trkpt lat="42.038285" lon="-2.785315">
        <ele>1751.0</ele>
        <time>2021-07-03T11:58:53.000Z</time>
      </trkpt>
      <trkpt lat="42.038268" lon="-2.785297">
        <ele>1750.8</ele>
        <time>2021-07-03T11:59:06.000Z</time>
      </trkpt>
      <trkpt lat="42.038267" lon="-2.785302">
        <ele>1750.9</ele>
        <time>2021-07-03T11:59:09.000Z</time>
      </trkpt>
      <trkpt lat="42.038230" lon="-2.785340">
        <ele>1751.2</ele>
        <time>2021-07-03T11:59:45.000Z</time>
      </trkpt>
      <trkpt lat="42.038228" lon="-2.785340">
        <ele>1751.0</ele>
        <time>2021-07-03T11:59:47.000Z</time>
      </trkpt>
      <trkpt lat="42.038228" lon="-2.785317">
        <ele>1751.2</ele>
        <time>2021-07-03T11:59:52.000Z</time>
      </trkpt>
      <trkpt lat="42.038227" lon="-2.785315">
        <ele>1751.1</ele>
        <time>2021-07-03T11:59:53.000Z</time>
      </trkpt>
      <trkpt lat="42.038233" lon="-2.785310">
        <ele>1751.1</ele>
        <time>2021-07-03T11:59:59.000Z</time>
      </trkpt>
      <trkpt lat="42.038232" lon="-2.785312">
        <ele>1751.2</ele>
        <time>2021-07-03T12:00:08.000Z</time>
      </trkpt>
      <trkpt lat="42.038232" lon="-2.785312">
        <ele>1751.3</ele>
        <time>2021-07-03T12:00:09.000Z</time>
      </trkpt>
      <trkpt lat="42.038230" lon="-2.785313">
        <ele>1751.2</ele>
        <time>2021-07-03T12:00:12.000Z</time>
      </trkpt>
      <trkpt lat="42.038228" lon="-2.785317">
        <ele>1751.2</ele>
        <time>2021-07-03T12:00:14.000Z</time>
      </trkpt>
      <trkpt lat="42.038227" lon="-2.785318">
        <ele>1751.7</ele>
        <time>2021-07-03T12:00:54.000Z</time>
      </trkpt>
      <trkpt lat="42.038203" lon="-2.785330">
        <ele>1751.6</ele>
        <time>2021-07-03T12:01:04.000Z</time>
      </trkpt>
      <trkpt lat="42.038205" lon="-2.785330">
        <ele>1751.8</ele>
        <time>2021-07-03T12:01:15.000Z</time>
      </trkpt>
      <trkpt lat="42.038205" lon="-2.785330">
        <ele>1751.7</ele>
        <time>2021-07-03T12:01:16.000Z</time>
      </trkpt>
      <trkpt lat="42.038208" lon="-2.785323">
        <ele>1751.9</ele>
        <time>2021-07-03T12:01:23.000Z</time>
      </trkpt>
      <trkpt lat="42.038230" lon="-2.785325">
        <ele>1751.9</ele>
        <time>2021-07-03T12:01:35.000Z</time>
      </trkpt>
      <trkpt lat="42.038232" lon="-2.785330">
        <ele>1751.8</ele>
        <time>2021-07-03T12:01:36.000Z</time>
      </trkpt>
      <trkpt lat="42.038202" lon="-2.785213">
        <ele>1750.8</ele>
        <time>2021-07-03T12:02:00.000Z</time>
      </trkpt>
      <trkpt lat="42.038218" lon="-2.785200">
        <ele>1751.6</ele>
        <time>2021-07-03T12:02:12.000Z</time>
      </trkpt>
      <trkpt lat="42.038220" lon="-2.785198">
        <ele>1753.3</ele>
        <time>2021-07-03T12:02:13.000Z</time>
      </trkpt>
      <trkpt lat="42.038217" lon="-2.785200">
        <ele>1751.8</ele>
        <time>2021-07-03T12:02:15.000Z</time>
      </trkpt>
      <trkpt lat="42.038220" lon="-2.785202">
        <ele>1751.6</ele>
        <time>2021-07-03T12:02:16.000Z</time>
      </trkpt>
      <trkpt lat="42.038220" lon="-2.785200">
        <ele>1751.2</ele>
        <time>2021-07-03T12:02:17.000Z</time>
      </trkpt>
      <trkpt lat="42.038222" lon="-2.785200">
        <ele>1750.9</ele>
        <time>2021-07-03T12:02:19.000Z</time>
      </trkpt>
      <trkpt lat="42.038222" lon="-2.785202">
        <ele>1751.2</ele>
        <time>2021-07-03T12:02:20.000Z</time>
      </trkpt>
      <trkpt lat="42.038223" lon="-2.785200">
        <ele>1751.3</ele>
        <time>2021-07-03T12:02:21.000Z</time>
      </trkpt>
      <trkpt lat="42.038227" lon="-2.785205">
        <ele>1754.3</ele>
        <time>2021-07-03T12:02:27.000Z</time>
      </trkpt>
      <trkpt lat="42.038225" lon="-2.785195">
        <ele>1754.8</ele>
        <time>2021-07-03T12:02:28.000Z</time>
      </trkpt>
      <trkpt lat="42.038238" lon="-2.785217">
        <ele>1751.3</ele>
        <time>2021-07-03T12:02:41.000Z</time>
      </trkpt>
      <trkpt lat="42.038235" lon="-2.785220">
        <ele>1751.2</ele>
        <time>2021-07-03T12:02:43.000Z</time>
      </trkpt>
      <trkpt lat="42.038233" lon="-2.785222">
        <ele>1751.3</ele>
        <time>2021-07-03T12:02:45.000Z</time>
      </trkpt>
      <trkpt lat="42.038233" lon="-2.785217">
        <ele>1751.1</ele>
        <time>2021-07-03T12:02:48.000Z</time>
      </trkpt>
      <trkpt lat="42.038232" lon="-2.785208">
        <ele>1751.1</ele>
        <time>2021-07-03T12:02:53.000Z</time>
      </trkpt>
      <trkpt lat="42.038235" lon="-2.785207">
        <ele>1751.1</ele>
        <time>2021-07-03T12:02:55.000Z</time>
      </trkpt>
      <trkpt lat="42.038235" lon="-2.785207">
        <ele>1751.1</ele>
        <time>2021-07-03T12:02:56.000Z</time>
      </trkpt>
      <trkpt lat="42.038233" lon="-2.785205">
        <ele>1751.1</ele>
        <time>2021-07-03T12:03:08.000Z</time>
      </trkpt>
      <trkpt lat="42.038232" lon="-2.785202">
        <ele>1751.0</ele>
        <time>2021-07-03T12:03:10.000Z</time>
      </trkpt>
      <trkpt lat="42.038230" lon="-2.785203">
        <ele>1750.3</ele>
        <time>2021-07-03T12:04:24.000Z</time>
      </trkpt>
      <trkpt lat="42.038230" lon="-2.785202">
        <ele>1750.3</ele>
        <time>2021-07-03T12:04:25.000Z</time>
      </trkpt>
      <trkpt lat="42.038228" lon="-2.785202">
        <ele>1750.1</ele>
        <time>2021-07-03T12:04:40.000Z</time>
      </trkpt>
      <trkpt lat="42.038228" lon="-2.785202">
        <ele>1750.0</ele>
        <time>2021-07-03T12:04:41.000Z</time>
      </trkpt>
      <trkpt lat="42.038230" lon="-2.785203">
        <ele>1750.3</ele>
        <time>2021-07-03T12:04:56.000Z</time>
      </trkpt>
      <trkpt lat="42.038230" lon="-2.785203">
        <ele>1750.1</ele>
        <time>2021-07-03T12:04:57.000Z</time>
      </trkpt>
      <trkpt lat="42.038228" lon="-2.785202">
        <ele>1750.2</ele>
        <time>2021-07-03T12:05:05.000Z</time>
      </trkpt>
      <trkpt lat="42.038228" lon="-2.785202">
        <ele>1750.2</ele>
        <time>2021-07-03T12:05:06.000Z</time>
      </trkpt>
      <trkpt lat="42.038230" lon="-2.785205">
        <ele>1750.2</ele>
        <time>2021-07-03T12:06:01.000Z</time>
      </trkpt>
      <trkpt lat="42.038230" lon="-2.785205">
        <ele>1750.2</ele>
        <time>2021-07-03T12:06:02.000Z</time>
      </trkpt>
      <trkpt lat="42.038228" lon="-2.785205">
        <ele>1750.1</ele>
        <time>2021-07-03T12:06:04.000Z</time>
      </trkpt>
      <trkpt lat="42.038228" lon="-2.785205">
        <ele>1750.1</ele>
        <time>2021-07-03T12:06:05.000Z</time>
      </trkpt>
      <trkpt lat="42.038230" lon="-2.785205">
        <ele>1750.1</ele>
        <time>2021-07-03T12:06:15.000Z</time>
      </trkpt>
      <trkpt lat="42.038223" lon="-2.785202">
        <ele>1750.1</ele>
        <time>2021-07-03T12:06:21.000Z</time>
      </trkpt>
      <trkpt lat="42.038222" lon="-2.785203">
        <ele>1750.1</ele>
        <time>2021-07-03T12:06:22.000Z</time>
      </trkpt>
      <trkpt lat="42.038218" lon="-2.785202">
        <ele>1750.1</ele>
        <time>2021-07-03T12:06:26.000Z</time>
      </trkpt>
      <trkpt lat="42.038217" lon="-2.785202">
        <ele>1749.7</ele>
        <time>2021-07-03T12:06:36.000Z</time>
      </trkpt>
      <trkpt lat="42.038217" lon="-2.785202">
        <ele>1749.8</ele>
        <time>2021-07-03T12:06:37.000Z</time>
      </trkpt>
      <trkpt lat="42.038218" lon="-2.785203">
        <ele>1750.0</ele>
        <time>2021-07-03T12:06:38.000Z</time>
      </trkpt>
      <trkpt lat="42.038218" lon="-2.785203">
        <ele>1750.0</ele>
        <time>2021-07-03T12:06:39.000Z</time>
      </trkpt>
      <trkpt lat="42.038220" lon="-2.785203">
        <ele>1750.0</ele>
        <time>2021-07-03T12:06:41.000Z</time>
      </trkpt>
      <trkpt lat="42.038222" lon="-2.785205">
        <ele>1750.2</ele>
        <time>2021-07-03T12:06:45.000Z</time>
      </trkpt>
      <trkpt lat="42.038225" lon="-2.785205">
        <ele>1750.3</ele>
        <time>2021-07-03T12:06:46.000Z</time>
      </trkpt>
      <trkpt lat="42.038225" lon="-2.785207">
        <ele>1750.1</ele>
        <time>2021-07-03T12:06:48.000Z</time>
      </trkpt>
      <trkpt lat="42.038223" lon="-2.785208">
        <ele>1750.2</ele>
        <time>2021-07-03T12:06:52.000Z</time>
      </trkpt>
      <trkpt lat="42.038223" lon="-2.785210">
        <ele>1750.2</ele>
        <time>2021-07-03T12:06:53.000Z</time>
      </trkpt>
      <trkpt lat="42.038223" lon="-2.785215">
        <ele>1750.2</ele>
        <time>2021-07-03T12:07:04.000Z</time>
      </trkpt>
      <trkpt lat="42.038223" lon="-2.785215">
        <ele>1750.3</ele>
        <time>2021-07-03T12:07:05.000Z</time>
      </trkpt>
      <trkpt lat="42.038225" lon="-2.785215">
        <ele>1750.2</ele>
        <time>2021-07-03T12:07:06.000Z</time>
      </trkpt>
      <trkpt lat="42.038230" lon="-2.785218">
        <ele>1750.3</ele>
        <time>2021-07-03T12:07:09.000Z</time>
      </trkpt>
      <trkpt lat="42.038232" lon="-2.785220">
        <ele>1750.3</ele>
        <time>2021-07-03T12:07:11.000Z</time>
      </trkpt>
      <trkpt lat="42.038230" lon="-2.785205">
        <ele>1751.5</ele>
        <time>2021-07-03T12:07:19.000Z</time>
      </trkpt>
      <trkpt lat="42.038228" lon="-2.785202">
        <ele>1752.2</ele>
        <time>2021-07-03T12:07:22.000Z</time>
      </trkpt>
      <trkpt lat="42.038225" lon="-2.785198">
        <ele>1750.8</ele>
        <time>2021-07-03T12:07:26.000Z</time>
      </trkpt>
      <trkpt lat="42.038227" lon="-2.785200">
        <ele>1751.0</ele>
        <time>2021-07-03T12:07:27.000Z</time>
      </trkpt>
      <trkpt lat="42.038210" lon="-2.785200">
        <ele>1750.4</ele>
        <time>2021-07-03T12:07:34.000Z</time>
      </trkpt>
      <trkpt lat="42.038208" lon="-2.785200">
        <ele>1750.5</ele>
        <time>2021-07-03T12:07:37.000Z</time>
      </trkpt>
      <trkpt lat="42.038208" lon="-2.785202">
        <ele>1750.5</ele>
        <time>2021-07-03T12:07:38.000Z</time>
      </trkpt>
      <trkpt lat="42.038207" lon="-2.785203">
        <ele>1750.9</ele>
        <time>2021-07-03T12:08:06.000Z</time>
      </trkpt>
      <trkpt lat="42.038207" lon="-2.785203">
        <ele>1750.9</ele>
        <time>2021-07-03T12:08:07.000Z</time>
      </trkpt>
      <trkpt lat="42.038205" lon="-2.785203">
        <ele>1750.4</ele>
        <time>2021-07-03T12:10:17.000Z</time>
      </trkpt>
      <trkpt lat="42.038200" lon="-2.785188">
        <ele>1750.5</ele>
        <time>2021-07-03T12:10:21.000Z</time>
      </trkpt>
      <trkpt lat="42.038202" lon="-2.785185">
        <ele>1750.6</ele>
        <time>2021-07-03T12:10:22.000Z</time>
      </trkpt>
      <trkpt lat="42.038202" lon="-2.785185">
        <ele>1750.6</ele>
        <time>2021-07-03T12:10:23.000Z</time>
      </trkpt>
      <trkpt lat="42.038200" lon="-2.785182">
        <ele>1750.4</ele>
        <time>2021-07-03T12:10:25.000Z</time>
      </trkpt>
      <trkpt lat="42.038197" lon="-2.785180">
        <ele>1750.6</ele>
        <time>2021-07-03T12:10:27.000Z</time>
      </trkpt>
      <trkpt lat="42.038198" lon="-2.785180">
        <ele>1750.5</ele>
        <time>2021-07-03T12:10:53.000Z</time>
      </trkpt>
      <trkpt lat="42.038198" lon="-2.785180">
        <ele>1750.6</ele>
        <time>2021-07-03T12:10:54.000Z</time>
      </trkpt>
      <trkpt lat="42.038202" lon="-2.785182">
        <ele>1750.4</ele>
        <time>2021-07-03T12:11:00.000Z</time>
      </trkpt>
      <trkpt lat="42.038202" lon="-2.785182">
        <ele>1750.3</ele>
        <time>2021-07-03T12:11:01.000Z</time>
      </trkpt>
      <trkpt lat="42.038203" lon="-2.785183">
        <ele>1750.4</ele>
        <time>2021-07-03T12:11:08.000Z</time>
      </trkpt>
      <trkpt lat="42.038203" lon="-2.785183">
        <ele>1750.2</ele>
        <time>2021-07-03T12:11:09.000Z</time>
      </trkpt>
      <trkpt lat="42.038205" lon="-2.785185">
        <ele>1750.8</ele>
        <time>2021-07-03T12:11:20.000Z</time>
      </trkpt>
      <trkpt lat="42.038205" lon="-2.785185">
        <ele>1750.7</ele>
        <time>2021-07-03T12:11:21.000Z</time>
      </trkpt>
      <trkpt lat="42.038208" lon="-2.785180">
        <ele>1750.6</ele>
        <time>2021-07-03T12:11:46.000Z</time>
      </trkpt>
      <trkpt lat="42.038208" lon="-2.785180">
        <ele>1750.6</ele>
        <time>2021-07-03T12:11:47.000Z</time>
      </trkpt>
      <trkpt lat="42.038210" lon="-2.785177">
        <ele>1750.6</ele>
        <time>2021-07-03T12:11:50.000Z</time>
      </trkpt>
      <trkpt lat="42.038210" lon="-2.785177">
        <ele>1750.4</ele>
        <time>2021-07-03T12:11:51.000Z</time>
      </trkpt>
      <trkpt lat="42.038210" lon="-2.785173">
        <ele>1750.5</ele>
        <time>2021-07-03T12:11:53.000Z</time>
      </trkpt>
      <trkpt lat="42.038210" lon="-2.785173">
        <ele>1750.4</ele>
        <time>2021-07-03T12:11:54.000Z</time>
      </trkpt>
      <trkpt lat="42.038212" lon="-2.785172">
        <ele>1750.6</ele>
        <time>2021-07-03T12:12:00.000Z</time>
      </trkpt>
      <trkpt lat="42.038212" lon="-2.785170">
        <ele>1750.5</ele>
        <time>2021-07-03T12:12:01.000Z</time>
      </trkpt>
      <trkpt lat="42.038213" lon="-2.785167">
        <ele>1750.5</ele>
        <time>2021-07-03T12:12:12.000Z</time>
      </trkpt>
      <trkpt lat="42.038213" lon="-2.785165">
        <ele>1750.5</ele>
        <time>2021-07-03T12:12:13.000Z</time>
      </trkpt>
      <trkpt lat="42.038215" lon="-2.785165">
        <ele>1750.8</ele>
        <time>2021-07-03T12:13:20.000Z</time>
      </trkpt>
      <trkpt lat="42.038215" lon="-2.785167">
        <ele>1750.9</ele>
        <time>2021-07-03T12:13:21.000Z</time>
      </trkpt>
      <trkpt lat="42.038213" lon="-2.785172">
        <ele>1750.9</ele>
        <time>2021-07-03T12:14:44.000Z</time>
      </trkpt>
      <trkpt lat="42.038213" lon="-2.785172">
        <ele>1751.0</ele>
        <time>2021-07-03T12:14:45.000Z</time>
      </trkpt>
      <trkpt lat="42.038215" lon="-2.785172">
        <ele>1750.8</ele>
        <time>2021-07-03T12:14:48.000Z</time>
      </trkpt>
      <trkpt lat="42.038215" lon="-2.785172">
        <ele>1750.9</ele>
        <time>2021-07-03T12:14:49.000Z</time>
      </trkpt>
      <trkpt lat="42.038213" lon="-2.785172">
        <ele>1751.0</ele>
        <time>2021-07-03T12:14:50.000Z</time>
      </trkpt>
      <trkpt lat="42.038212" lon="-2.785175">
        <ele>1751.1</ele>
        <time>2021-07-03T12:14:53.000Z</time>
      </trkpt>
      <trkpt lat="42.038213" lon="-2.785175">
        <ele>1751.1</ele>
        <time>2021-07-03T12:15:31.000Z</time>
      </trkpt>
      <trkpt lat="42.038213" lon="-2.785175">
        <ele>1751.1</ele>
        <time>2021-07-03T12:15:32.000Z</time>
      </trkpt>
      <trkpt lat="42.038215" lon="-2.785177">
        <ele>1751.4</ele>
        <time>2021-07-03T12:15:45.000Z</time>
      </trkpt>
      <trkpt lat="42.038220" lon="-2.785173">
        <ele>1751.2</ele>
        <time>2021-07-03T12:15:49.000Z</time>
      </trkpt>
      <trkpt lat="42.038222" lon="-2.785173">
        <ele>1751.2</ele>
        <time>2021-07-03T12:15:50.000Z</time>
      </trkpt>
      <trkpt lat="42.038222" lon="-2.785172">
        <ele>1751.4</ele>
        <time>2021-07-03T12:15:51.000Z</time>
      </trkpt>
      <trkpt lat="42.038223" lon="-2.785172">
        <ele>1751.4</ele>
        <time>2021-07-03T12:15:52.000Z</time>
      </trkpt>
      <trkpt lat="42.038227" lon="-2.785173">
        <ele>1751.3</ele>
        <time>2021-07-03T12:15:55.000Z</time>
      </trkpt>
      <trkpt lat="42.038228" lon="-2.785173">
        <ele>1751.3</ele>
        <time>2021-07-03T12:16:01.000Z</time>
      </trkpt>
      <trkpt lat="42.038228" lon="-2.785175">
        <ele>1751.3</ele>
        <time>2021-07-03T12:16:02.000Z</time>
      </trkpt>
      <trkpt lat="42.038230" lon="-2.785175">
        <ele>1751.1</ele>
        <time>2021-07-03T12:16:03.000Z</time>
      </trkpt>
      <trkpt lat="42.038238" lon="-2.785172">
        <ele>1750.9</ele>
        <time>2021-07-03T12:16:12.000Z</time>
      </trkpt>
      <trkpt lat="42.038240" lon="-2.785170">
        <ele>1751.1</ele>
        <time>2021-07-03T12:16:15.000Z</time>
      </trkpt>
      <trkpt lat="42.038238" lon="-2.785172">
        <ele>1751.3</ele>
        <time>2021-07-03T12:16:17.000Z</time>
      </trkpt>
      <trkpt lat="42.038237" lon="-2.785172">
        <ele>1751.4</ele>
        <time>2021-07-03T12:16:18.000Z</time>
      </trkpt>
      <trkpt lat="42.038237" lon="-2.785170">
        <ele>1751.4</ele>
        <time>2021-07-03T12:16:19.000Z</time>
      </trkpt>
      <trkpt lat="42.038238" lon="-2.785168">
        <ele>1751.1</ele>
        <time>2021-07-03T12:16:20.000Z</time>
      </trkpt>
      <trkpt lat="42.038238" lon="-2.785173">
        <ele>1751.2</ele>
        <time>2021-07-03T12:16:24.000Z</time>
      </trkpt>
      <trkpt lat="42.038237" lon="-2.785175">
        <ele>1751.5</ele>
        <time>2021-07-03T12:16:26.000Z</time>
      </trkpt>
      <trkpt lat="42.038238" lon="-2.785185">
        <ele>1751.5</ele>
        <time>2021-07-03T12:16:29.000Z</time>
      </trkpt>
      <trkpt lat="42.038237" lon="-2.785187">
        <ele>1751.1</ele>
        <time>2021-07-03T12:16:33.000Z</time>
      </trkpt>
      <trkpt lat="42.038233" lon="-2.785183">
        <ele>1751.3</ele>
        <time>2021-07-03T12:16:36.000Z</time>
      </trkpt>
      <trkpt lat="42.038233" lon="-2.785190">
        <ele>1751.2</ele>
        <time>2021-07-03T12:16:38.000Z</time>
      </trkpt>
      <trkpt lat="42.038233" lon="-2.785192">
        <ele>1751.1</ele>
        <time>2021-07-03T12:16:39.000Z</time>
      </trkpt>
      <trkpt lat="42.038235" lon="-2.785197">
        <ele>1751.2</ele>
        <time>2021-07-03T12:16:42.000Z</time>
      </trkpt>
      <trkpt lat="42.038235" lon="-2.785198">
        <ele>1751.2</ele>
        <time>2021-07-03T12:16:43.000Z</time>
      </trkpt>
      <trkpt lat="42.038238" lon="-2.785198">
        <ele>1751.3</ele>
        <time>2021-07-03T12:16:46.000Z</time>
      </trkpt>
      <trkpt lat="42.038242" lon="-2.785195">
        <ele>1751.3</ele>
        <time>2021-07-03T12:16:51.000Z</time>
      </trkpt>
      <trkpt lat="42.038248" lon="-2.785198">
        <ele>1751.3</ele>
        <time>2021-07-03T12:16:52.000Z</time>
      </trkpt>
      <trkpt lat="42.038250" lon="-2.785195">
        <ele>1751.3</ele>
        <time>2021-07-03T12:16:54.000Z</time>
      </trkpt>
      <trkpt lat="42.038253" lon="-2.785195">
        <ele>1751.2</ele>
        <time>2021-07-03T12:16:55.000Z</time>
      </trkpt>
      <trkpt lat="42.038253" lon="-2.785197">
        <ele>1751.1</ele>
        <time>2021-07-03T12:16:56.000Z</time>
      </trkpt>
      <trkpt lat="42.038255" lon="-2.785198">
        <ele>1751.1</ele>
        <time>2021-07-03T12:16:57.000Z</time>
      </trkpt>
      <trkpt lat="42.038255" lon="-2.785198">
        <ele>1751.1</ele>
        <time>2021-07-03T12:16:58.000Z</time>
      </trkpt>
      <trkpt lat="42.038260" lon="-2.785200">
        <ele>1751.3</ele>
        <time>2021-07-03T12:16:59.000Z</time>
      </trkpt>
      <trkpt lat="42.038262" lon="-2.785205">
        <ele>1751.3</ele>
        <time>2021-07-03T12:17:03.000Z</time>
      </trkpt>
      <trkpt lat="42.038260" lon="-2.785202">
        <ele>1751.6</ele>
        <time>2021-07-03T12:18:21.000Z</time>
      </trkpt>
      <trkpt lat="42.038260" lon="-2.785202">
        <ele>1751.6</ele>
        <time>2021-07-03T12:18:22.000Z</time>
      </trkpt>
      <trkpt lat="42.038260" lon="-2.785198">
        <ele>1751.7</ele>
        <time>2021-07-03T12:18:26.000Z</time>
      </trkpt>
      <trkpt lat="42.038260" lon="-2.785198">
        <ele>1751.8</ele>
        <time>2021-07-03T12:18:27.000Z</time>
      </trkpt>
      <trkpt lat="42.038258" lon="-2.785198">
        <ele>1751.3</ele>
        <time>2021-07-03T12:18:43.000Z</time>
      </trkpt>
      <trkpt lat="42.038258" lon="-2.785198">
        <ele>1751.5</ele>
        <time>2021-07-03T12:18:44.000Z</time>
      </trkpt>
      <trkpt lat="42.038257" lon="-2.785198">
        <ele>1751.1</ele>
        <time>2021-07-03T12:18:57.000Z</time>
      </trkpt>
      <trkpt lat="42.038255" lon="-2.785200">
        <ele>1751.2</ele>
        <time>2021-07-03T12:18:59.000Z</time>
      </trkpt>
      <trkpt lat="42.038253" lon="-2.785200">
        <ele>1751.3</ele>
        <time>2021-07-03T12:19:06.000Z</time>
      </trkpt>
      <trkpt lat="42.038253" lon="-2.785202">
        <ele>1751.4</ele>
        <time>2021-07-03T12:19:07.000Z</time>
      </trkpt>
      <trkpt lat="42.038252" lon="-2.785203">
        <ele>1751.5</ele>
        <time>2021-07-03T12:19:08.000Z</time>
      </trkpt>
      <trkpt lat="42.038248" lon="-2.785212">
        <ele>1751.2</ele>
        <time>2021-07-03T12:19:11.000Z</time>
      </trkpt>
      <trkpt lat="42.038250" lon="-2.785212">
        <ele>1751.0</ele>
        <time>2021-07-03T12:19:12.000Z</time>
      </trkpt>
      <trkpt lat="42.038250" lon="-2.785213">
        <ele>1751.1</ele>
        <time>2021-07-03T12:19:13.000Z</time>
      </trkpt>
      <trkpt lat="42.038248" lon="-2.785218">
        <ele>1751.1</ele>
        <time>2021-07-03T12:19:15.000Z</time>
      </trkpt>
      <trkpt lat="42.038248" lon="-2.785217">
        <ele>1751.2</ele>
        <time>2021-07-03T12:19:16.000Z</time>
      </trkpt>
      <trkpt lat="42.038250" lon="-2.785217">
        <ele>1751.4</ele>
        <time>2021-07-03T12:19:17.000Z</time>
      </trkpt>
      <trkpt lat="42.038250" lon="-2.785215">
        <ele>1751.5</ele>
        <time>2021-07-03T12:19:18.000Z</time>
      </trkpt>
      <trkpt lat="42.038252" lon="-2.785217">
        <ele>1751.5</ele>
        <time>2021-07-03T12:19:19.000Z</time>
      </trkpt>
      <trkpt lat="42.038253" lon="-2.785213">
        <ele>1751.1</ele>
        <time>2021-07-03T12:19:23.000Z</time>
      </trkpt>
      <trkpt lat="42.038250" lon="-2.785218">
        <ele>1751.2</ele>
        <time>2021-07-03T12:19:24.000Z</time>
      </trkpt>
      <trkpt lat="42.038243" lon="-2.785222">
        <ele>1751.3</ele>
        <time>2021-07-03T12:19:27.000Z</time>
      </trkpt>
      <trkpt lat="42.038242" lon="-2.785225">
        <ele>1751.3</ele>
        <time>2021-07-03T12:19:28.000Z</time>
      </trkpt>
      <trkpt lat="42.038233" lon="-2.785202">
        <ele>1751.6</ele>
        <time>2021-07-03T12:19:39.000Z</time>
      </trkpt>
      <trkpt lat="42.038230" lon="-2.785198">
        <ele>1751.6</ele>
        <time>2021-07-03T12:19:42.000Z</time>
      </trkpt>
      <trkpt lat="42.038222" lon="-2.785203">
        <ele>1751.9</ele>
        <time>2021-07-03T12:19:47.000Z</time>
      </trkpt>
      <trkpt lat="42.038223" lon="-2.785202">
        <ele>1751.9</ele>
        <time>2021-07-03T12:19:50.000Z</time>
      </trkpt>
      <trkpt lat="42.038223" lon="-2.785202">
        <ele>1751.9</ele>
        <time>2021-07-03T12:19:51.000Z</time>
      </trkpt>
      <trkpt lat="42.038222" lon="-2.785202">
        <ele>1750.6</ele>
        <time>2021-07-03T12:20:58.000Z</time>
      </trkpt>
      <trkpt lat="42.038222" lon="-2.785202">
        <ele>1750.6</ele>
        <time>2021-07-03T12:20:59.000Z</time>
      </trkpt>
      <trkpt lat="42.038220" lon="-2.785203">
        <ele>1750.5</ele>
        <time>2021-07-03T12:21:19.000Z</time>
      </trkpt>
      <trkpt lat="42.038220" lon="-2.785203">
        <ele>1750.5</ele>
        <time>2021-07-03T12:21:20.000Z</time>
      </trkpt>
      <trkpt lat="42.038218" lon="-2.785205">
        <ele>1750.3</ele>
        <time>2021-07-03T12:21:37.000Z</time>
      </trkpt>
      <trkpt lat="42.038218" lon="-2.785205">
        <ele>1750.3</ele>
        <time>2021-07-03T12:21:38.000Z</time>
      </trkpt>
      <trkpt lat="42.038213" lon="-2.785202">
        <ele>1750.5</ele>
        <time>2021-07-03T12:21:39.000Z</time>
      </trkpt>
      <trkpt lat="42.038210" lon="-2.785198">
        <ele>1750.5</ele>
        <time>2021-07-03T12:21:41.000Z</time>
      </trkpt>
      <trkpt lat="42.038212" lon="-2.785198">
        <ele>1750.5</ele>
        <time>2021-07-03T12:22:28.000Z</time>
      </trkpt>
      <trkpt lat="42.038212" lon="-2.785198">
        <ele>1750.5</ele>
        <time>2021-07-03T12:22:29.000Z</time>
      </trkpt>
      <trkpt lat="42.038213" lon="-2.785193">
        <ele>1750.9</ele>
        <time>2021-07-03T12:23:08.000Z</time>
      </trkpt>
      <trkpt lat="42.038213" lon="-2.785193">
        <ele>1750.7</ele>
        <time>2021-07-03T12:23:09.000Z</time>
      </trkpt>
      <trkpt lat="42.038215" lon="-2.785195">
        <ele>1751.5</ele>
        <time>2021-07-03T12:23:55.000Z</time>
      </trkpt>
      <trkpt lat="42.038217" lon="-2.785198">
        <ele>1751.3</ele>
        <time>2021-07-03T12:23:57.000Z</time>
      </trkpt>
      <trkpt lat="42.038218" lon="-2.785195">
        <ele>1752.2</ele>
        <time>2021-07-03T12:30:13.000Z</time>
      </trkpt>
      <trkpt lat="42.038218" lon="-2.785195">
        <ele>1752.2</ele>
        <time>2021-07-03T12:30:14.000Z</time>
      </trkpt>
      <trkpt lat="42.038220" lon="-2.785195">
        <ele>1752.1</ele>
        <time>2021-07-03T12:30:28.000Z</time>
      </trkpt>
      <trkpt lat="42.038220" lon="-2.785195">
        <ele>1752.2</ele>
        <time>2021-07-03T12:30:29.000Z</time>
      </trkpt>
      <trkpt lat="42.038222" lon="-2.785195">
        <ele>1752.3</ele>
        <time>2021-07-03T12:30:35.000Z</time>
      </trkpt>
      <trkpt lat="42.038222" lon="-2.785195">
        <ele>1752.4</ele>
        <time>2021-07-03T12:30:36.000Z</time>
      </trkpt>
      <trkpt lat="42.038223" lon="-2.785195">
        <ele>1752.0</ele>
        <time>2021-07-03T12:30:45.000Z</time>
      </trkpt>
      <trkpt lat="42.038223" lon="-2.785195">
        <ele>1752.0</ele>
        <time>2021-07-03T12:30:46.000Z</time>
      </trkpt>
      <trkpt lat="42.038225" lon="-2.785195">
        <ele>1751.6</ele>
        <time>2021-07-03T12:30:56.000Z</time>
      </trkpt>
      <trkpt lat="42.038225" lon="-2.785195">
        <ele>1751.6</ele>
        <time>2021-07-03T12:30:57.000Z</time>
      </trkpt>
      <trkpt lat="42.038227" lon="-2.785193">
        <ele>1752.2</ele>
        <time>2021-07-03T12:31:06.000Z</time>
      </trkpt>
      <trkpt lat="42.038225" lon="-2.785193">
        <ele>1752.1</ele>
        <time>2021-07-03T12:31:08.000Z</time>
      </trkpt>
      <trkpt lat="42.038227" lon="-2.785193">
        <ele>1752.1</ele>
        <time>2021-07-03T12:31:09.000Z</time>
      </trkpt>
      <trkpt lat="42.038227" lon="-2.785193">
        <ele>1752.0</ele>
        <time>2021-07-03T12:31:10.000Z</time>
      </trkpt>
      <trkpt lat="42.038228" lon="-2.785192">
        <ele>1751.9</ele>
        <time>2021-07-03T12:31:59.000Z</time>
      </trkpt>
      <trkpt lat="42.038228" lon="-2.785192">
        <ele>1751.9</ele>
        <time>2021-07-03T12:32:00.000Z</time>
      </trkpt>
      <trkpt lat="42.038227" lon="-2.785190">
        <ele>1751.4</ele>
        <time>2021-07-03T12:32:35.000Z</time>
      </trkpt>
      <trkpt lat="42.038228" lon="-2.785188">
        <ele>1751.4</ele>
        <time>2021-07-03T12:32:37.000Z</time>
      </trkpt>
      <trkpt lat="42.038227" lon="-2.785188">
        <ele>1751.5</ele>
        <time>2021-07-03T12:32:38.000Z</time>
      </trkpt>
      <trkpt lat="42.038227" lon="-2.785188">
        <ele>1751.5</ele>
        <time>2021-07-03T12:32:39.000Z</time>
      </trkpt>
      <trkpt lat="42.038230" lon="-2.785183">
        <ele>1752.1</ele>
        <time>2021-07-03T12:35:09.000Z</time>
      </trkpt>
      <trkpt lat="42.038233" lon="-2.785177">
        <ele>1752.0</ele>
        <time>2021-07-03T12:35:12.000Z</time>
      </trkpt>
      <trkpt lat="42.038237" lon="-2.785177">
        <ele>1751.9</ele>
        <time>2021-07-03T12:35:13.000Z</time>
      </trkpt>
      <trkpt lat="42.038237" lon="-2.785177">
        <ele>1751.7</ele>
        <time>2021-07-03T12:35:14.000Z</time>
      </trkpt>
      <trkpt lat="42.038240" lon="-2.785175">
        <ele>1751.7</ele>
        <time>2021-07-03T12:35:15.000Z</time>
      </trkpt>
      <trkpt lat="42.038242" lon="-2.785173">
        <ele>1752.1</ele>
        <time>2021-07-03T12:35:19.000Z</time>
      </trkpt>
      <trkpt lat="42.038243" lon="-2.785175">
        <ele>1752.0</ele>
        <time>2021-07-03T12:35:21.000Z</time>
      </trkpt>
      <trkpt lat="42.038245" lon="-2.785168">
        <ele>1752.2</ele>
        <time>2021-07-03T12:35:24.000Z</time>
      </trkpt>
      <trkpt lat="42.038245" lon="-2.785163">
        <ele>1751.9</ele>
        <time>2021-07-03T12:35:26.000Z</time>
      </trkpt>
      <trkpt lat="42.038245" lon="-2.785163">
        <ele>1751.7</ele>
        <time>2021-07-03T12:35:27.000Z</time>
      </trkpt>
      <trkpt lat="42.038243" lon="-2.785165">
        <ele>1752.3</ele>
        <time>2021-07-03T12:35:32.000Z</time>
      </trkpt>
      <trkpt lat="42.038245" lon="-2.785165">
        <ele>1752.0</ele>
        <time>2021-07-03T12:35:34.000Z</time>
      </trkpt>
      <trkpt lat="42.038243" lon="-2.785167">
        <ele>1752.0</ele>
        <time>2021-07-03T12:35:35.000Z</time>
      </trkpt>
      <trkpt lat="42.038240" lon="-2.785163">
        <ele>1752.1</ele>
        <time>2021-07-03T12:35:41.000Z</time>
      </trkpt>
      <trkpt lat="42.038238" lon="-2.785167">
        <ele>1752.1</ele>
        <time>2021-07-03T12:35:42.000Z</time>
      </trkpt>
      <trkpt lat="42.038223" lon="-2.785210">
        <ele>1752.0</ele>
        <time>2021-07-03T12:35:56.000Z</time>
      </trkpt>
      <trkpt lat="42.038223" lon="-2.785213">
        <ele>1752.0</ele>
        <time>2021-07-03T12:35:57.000Z</time>
      </trkpt>
      <trkpt lat="42.038223" lon="-2.785213">
        <ele>1752.2</ele>
        <time>2021-07-03T12:35:58.000Z</time>
      </trkpt>
      <trkpt lat="42.038223" lon="-2.785217">
        <ele>1752.0</ele>
        <time>2021-07-03T12:36:38.000Z</time>
      </trkpt>
      <trkpt lat="42.038223" lon="-2.785217">
        <ele>1752.1</ele>
        <time>2021-07-03T12:36:39.000Z</time>
      </trkpt>
      <trkpt lat="42.038223" lon="-2.785223">
        <ele>1751.7</ele>
        <time>2021-07-03T12:36:54.000Z</time>
      </trkpt>
      <trkpt lat="42.038227" lon="-2.785220">
        <ele>1751.9</ele>
        <time>2021-07-03T12:36:56.000Z</time>
      </trkpt>
      <trkpt lat="42.038227" lon="-2.785225">
        <ele>1751.8</ele>
        <time>2021-07-03T12:37:04.000Z</time>
      </trkpt>
      <trkpt lat="42.038225" lon="-2.785223">
        <ele>1751.9</ele>
        <time>2021-07-03T12:37:08.000Z</time>
      </trkpt>
      <trkpt lat="42.038227" lon="-2.785223">
        <ele>1752.0</ele>
        <time>2021-07-03T12:37:09.000Z</time>
      </trkpt>
      <trkpt lat="42.038220" lon="-2.785230">
        <ele>1751.9</ele>
        <time>2021-07-03T12:37:14.000Z</time>
      </trkpt>
      <trkpt lat="42.038218" lon="-2.785232">
        <ele>1752.0</ele>
        <time>2021-07-03T12:37:19.000Z</time>
      </trkpt>
      <trkpt lat="42.038218" lon="-2.785232">
        <ele>1751.8</ele>
        <time>2021-07-03T12:37:20.000Z</time>
      </trkpt>
      <trkpt lat="42.038217" lon="-2.785230">
        <ele>1751.8</ele>
        <time>2021-07-03T12:37:23.000Z</time>
      </trkpt>
      <trkpt lat="42.038217" lon="-2.785230">
        <ele>1751.8</ele>
        <time>2021-07-03T12:37:24.000Z</time>
      </trkpt>
      <trkpt lat="42.038218" lon="-2.785225">
        <ele>1752.0</ele>
        <time>2021-07-03T12:37:36.000Z</time>
      </trkpt>
      <trkpt lat="42.038218" lon="-2.785225">
        <ele>1751.8</ele>
        <time>2021-07-03T12:37:37.000Z</time>
      </trkpt>
      <trkpt lat="42.038220" lon="-2.785223">
        <ele>1751.7</ele>
        <time>2021-07-03T12:37:49.000Z</time>
      </trkpt>
      <trkpt lat="42.038220" lon="-2.785225">
        <ele>1751.8</ele>
        <time>2021-07-03T12:37:50.000Z</time>
      </trkpt>
      <trkpt lat="42.038222" lon="-2.785218">
        <ele>1751.8</ele>
        <time>2021-07-03T12:37:57.000Z</time>
      </trkpt>
      <trkpt lat="42.038220" lon="-2.785205">
        <ele>1751.9</ele>
        <time>2021-07-03T12:38:04.000Z</time>
      </trkpt>
      <trkpt lat="42.038223" lon="-2.785198">
        <ele>1752.0</ele>
        <time>2021-07-03T12:38:05.000Z</time>
      </trkpt>
      <trkpt lat="42.038223" lon="-2.785200">
        <ele>1752.1</ele>
        <time>2021-07-03T12:38:06.000Z</time>
      </trkpt>
      <trkpt lat="42.038222" lon="-2.785192">
        <ele>1752.0</ele>
        <time>2021-07-03T12:38:53.000Z</time>
      </trkpt>
      <trkpt lat="42.038222" lon="-2.785192">
        <ele>1751.8</ele>
        <time>2021-07-03T12:38:54.000Z</time>
      </trkpt>
      <trkpt lat="42.038220" lon="-2.785187">
        <ele>1752.7</ele>
        <time>2021-07-03T12:39:48.000Z</time>
      </trkpt>
      <trkpt lat="42.038222" lon="-2.785187">
        <ele>1752.5</ele>
        <time>2021-07-03T12:39:50.000Z</time>
      </trkpt>
      <trkpt lat="42.038232" lon="-2.785187">
        <ele>1752.5</ele>
        <time>2021-07-03T12:39:51.000Z</time>
      </trkpt>
      <trkpt lat="42.038232" lon="-2.785185">
        <ele>1752.6</ele>
        <time>2021-07-03T12:39:52.000Z</time>
      </trkpt>
      <trkpt lat="42.038228" lon="-2.785182">
        <ele>1752.6</ele>
        <time>2021-07-03T12:40:03.000Z</time>
      </trkpt>
      <trkpt lat="42.038228" lon="-2.785183">
        <ele>1752.5</ele>
        <time>2021-07-03T12:40:04.000Z</time>
      </trkpt>
      <trkpt lat="42.038230" lon="-2.785180">
        <ele>1753.0</ele>
        <time>2021-07-03T12:41:51.000Z</time>
      </trkpt>
      <trkpt lat="42.038230" lon="-2.785180">
        <ele>1753.2</ele>
        <time>2021-07-03T12:41:52.000Z</time>
      </trkpt>
      <trkpt lat="42.038227" lon="-2.785190">
        <ele>1756.0</ele>
        <time>2021-07-03T12:46:00.000Z</time>
      </trkpt>
      <trkpt lat="42.038182" lon="-2.785180">
        <ele>1752.2</ele>
        <time>2021-07-03T12:46:20.000Z</time>
      </trkpt>
      <trkpt lat="42.038187" lon="-2.785175">
        <ele>1752.2</ele>
        <time>2021-07-03T12:46:22.000Z</time>
      </trkpt>
      <trkpt lat="42.038187" lon="-2.785175">
        <ele>1752.4</ele>
        <time>2021-07-03T12:46:23.000Z</time>
      </trkpt>
      <trkpt lat="42.038187" lon="-2.785170">
        <ele>1752.4</ele>
        <time>2021-07-03T12:46:26.000Z</time>
      </trkpt>
      <trkpt lat="42.038188" lon="-2.785165">
        <ele>1752.5</ele>
        <time>2021-07-03T12:46:28.000Z</time>
      </trkpt>
      <trkpt lat="42.038192" lon="-2.785168">
        <ele>1752.6</ele>
        <time>2021-07-03T12:46:30.000Z</time>
      </trkpt>
      <trkpt lat="42.038192" lon="-2.785173">
        <ele>1752.5</ele>
        <time>2021-07-03T12:46:32.000Z</time>
      </trkpt>
      <trkpt lat="42.038193" lon="-2.785173">
        <ele>1752.4</ele>
        <time>2021-07-03T12:46:35.000Z</time>
      </trkpt>
      <trkpt lat="42.038193" lon="-2.785173">
        <ele>1752.5</ele>
        <time>2021-07-03T12:46:36.000Z</time>
      </trkpt>
      <trkpt lat="42.038192" lon="-2.785175">
        <ele>1752.4</ele>
        <time>2021-07-03T12:46:38.000Z</time>
      </trkpt>
      <trkpt lat="42.038193" lon="-2.785175">
        <ele>1752.1</ele>
        <time>2021-07-03T12:46:40.000Z</time>
      </trkpt>
      <trkpt lat="42.038192" lon="-2.785175">
        <ele>1751.9</ele>
        <time>2021-07-03T12:46:41.000Z</time>
      </trkpt>
      <trkpt lat="42.038192" lon="-2.785175">
        <ele>1751.8</ele>
        <time>2021-07-03T12:46:42.000Z</time>
      </trkpt>
      <trkpt lat="42.038193" lon="-2.785173">
        <ele>1752.5</ele>
        <time>2021-07-03T12:47:07.000Z</time>
      </trkpt>
      <trkpt lat="42.038193" lon="-2.785173">
        <ele>1752.4</ele>
        <time>2021-07-03T12:47:08.000Z</time>
      </trkpt>
      <trkpt lat="42.038193" lon="-2.785178">
        <ele>1752.2</ele>
        <time>2021-07-03T12:47:35.000Z</time>
      </trkpt>
      <trkpt lat="42.038192" lon="-2.785183">
        <ele>1752.0</ele>
        <time>2021-07-03T12:47:37.000Z</time>
      </trkpt>
      <trkpt lat="42.038193" lon="-2.785185">
        <ele>1752.2</ele>
        <time>2021-07-03T12:47:40.000Z</time>
      </trkpt>
      <trkpt lat="42.038193" lon="-2.785185">
        <ele>1752.2</ele>
        <time>2021-07-03T12:47:41.000Z</time>
      </trkpt>
      <trkpt lat="42.038195" lon="-2.785190">
        <ele>1752.3</ele>
        <time>2021-07-03T12:49:49.000Z</time>
      </trkpt>
      <trkpt lat="42.038195" lon="-2.785190">
        <ele>1752.1</ele>
        <time>2021-07-03T12:49:50.000Z</time>
      </trkpt>
      <trkpt lat="42.038193" lon="-2.785188">
        <ele>1753.1</ele>
        <time>2021-07-03T12:52:06.000Z</time>
      </trkpt>
      <trkpt lat="42.038193" lon="-2.785188">
        <ele>1753.1</ele>
        <time>2021-07-03T12:52:07.000Z</time>
      </trkpt>
      <trkpt lat="42.038195" lon="-2.785188">
        <ele>1753.3</ele>
        <time>2021-07-03T12:53:11.000Z</time>
      </trkpt>
      <trkpt lat="42.038195" lon="-2.785188">
        <ele>1753.5</ele>
        <time>2021-07-03T12:53:12.000Z</time>
      </trkpt>
      <trkpt lat="42.038197" lon="-2.785190">
        <ele>1753.5</ele>
        <time>2021-07-03T12:54:02.000Z</time>
      </trkpt>
      <trkpt lat="42.038197" lon="-2.785190">
        <ele>1753.4</ele>
        <time>2021-07-03T12:54:03.000Z</time>
      </trkpt>
      <trkpt lat="42.038198" lon="-2.785193">
        <ele>1753.0</ele>
        <time>2021-07-03T12:58:17.000Z</time>
      </trkpt>
      <trkpt lat="42.038198" lon="-2.785193">
        <ele>1753.1</ele>
        <time>2021-07-03T12:58:18.000Z</time>
      </trkpt>
      <trkpt lat="42.038200" lon="-2.785198">
        <ele>1752.7</ele>
        <time>2021-07-03T13:00:35.000Z</time>
      </trkpt>
      <trkpt lat="42.038200" lon="-2.785198">
        <ele>1752.7</ele>
        <time>2021-07-03T13:00:36.000Z</time>
      </trkpt>
      <trkpt lat="42.038202" lon="-2.785198">
        <ele>1753.0</ele>
        <time>2021-07-03T13:07:38.000Z</time>
      </trkpt>
      <trkpt lat="42.038202" lon="-2.785198">
        <ele>1753.2</ele>
        <time>2021-07-03T13:07:39.000Z</time>
      </trkpt>
      <trkpt lat="42.038203" lon="-2.785200">
        <ele>1753.0</ele>
        <time>2021-07-03T13:10:30.000Z</time>
      </trkpt>
      <trkpt lat="42.038203" lon="-2.785200">
        <ele>1753.0</ele>
        <time>2021-07-03T13:10:31.000Z</time>
      </trkpt>
      <trkpt lat="42.038200" lon="-2.785203">
        <ele>1752.7</ele>
        <time>2021-07-03T13:20:14.000Z</time>
      </trkpt>
      <trkpt lat="42.038198" lon="-2.785198">
        <ele>1753.7</ele>
        <time>2021-07-03T13:20:17.000Z</time>
      </trkpt>
      <trkpt lat="42.038200" lon="-2.785195">
        <ele>1753.3</ele>
        <time>2021-07-03T13:21:58.000Z</time>
      </trkpt>
      <trkpt lat="42.038200" lon="-2.785193">
        <ele>1753.5</ele>
        <time>2021-07-03T13:21:59.000Z</time>
      </trkpt>
      <trkpt lat="42.038205" lon="-2.785197">
        <ele>1753.8</ele>
        <time>2021-07-03T13:22:00.000Z</time>
      </trkpt>
      <trkpt lat="42.038208" lon="-2.785188">
        <ele>1749.2</ele>
        <time>2021-07-03T13:22:04.000Z</time>
      </trkpt>
      <trkpt lat="42.038210" lon="-2.785188">
        <ele>1751.6</ele>
        <time>2021-07-03T13:22:18.000Z</time>
      </trkpt>
      <trkpt lat="42.038210" lon="-2.785188">
        <ele>1750.7</ele>
        <time>2021-07-03T13:22:19.000Z</time>
      </trkpt>
      <trkpt lat="42.038212" lon="-2.785190">
        <ele>1753.8</ele>
        <time>2021-07-03T13:25:50.000Z</time>
      </trkpt>
      <trkpt lat="42.038212" lon="-2.785190">
        <ele>1753.9</ele>
        <time>2021-07-03T13:25:51.000Z</time>
      </trkpt>
      <trkpt lat="42.038210" lon="-2.785193">
        <ele>1751.4</ele>
        <time>2021-07-03T13:26:33.000Z</time>
      </trkpt>
      <trkpt lat="42.038240" lon="-2.785182">
        <ele>1754.5</ele>
        <time>2021-07-03T13:26:42.000Z</time>
      </trkpt>
      <trkpt lat="42.038238" lon="-2.785182">
        <ele>1754.1</ele>
        <time>2021-07-03T13:26:45.000Z</time>
      </trkpt>
      <trkpt lat="42.038238" lon="-2.785182">
        <ele>1754.2</ele>
        <time>2021-07-03T13:26:46.000Z</time>
      </trkpt>
      <trkpt lat="42.038235" lon="-2.785182">
        <ele>1754.8</ele>
        <time>2021-07-03T13:26:56.000Z</time>
      </trkpt>
      <trkpt lat="42.038232" lon="-2.785198">
        <ele>1755.3</ele>
        <time>2021-07-03T13:26:59.000Z</time>
      </trkpt>
      <trkpt lat="42.038233" lon="-2.785198">
        <ele>1756.4</ele>
        <time>2021-07-03T13:27:01.000Z</time>
      </trkpt>
      <trkpt lat="42.038233" lon="-2.785197">
        <ele>1752.0</ele>
        <time>2021-07-03T13:27:02.000Z</time>
      </trkpt>
      <trkpt lat="42.038235" lon="-2.785202">
        <ele>1756.0</ele>
        <time>2021-07-03T13:27:34.000Z</time>
      </trkpt>
      <trkpt lat="42.038235" lon="-2.785202">
        <ele>1755.9</ele>
        <time>2021-07-03T13:27:35.000Z</time>
      </trkpt>
      <trkpt lat="42.038233" lon="-2.785200">
        <ele>1755.6</ele>
        <time>2021-07-03T13:29:23.000Z</time>
      </trkpt>
      <trkpt lat="42.038233" lon="-2.785200">
        <ele>1755.6</ele>
        <time>2021-07-03T13:29:24.000Z</time>
      </trkpt>
      <trkpt lat="42.038232" lon="-2.785198">
        <ele>1755.9</ele>
        <time>2021-07-03T13:30:10.000Z</time>
      </trkpt>
      <trkpt lat="42.038232" lon="-2.785198">
        <ele>1755.8</ele>
        <time>2021-07-03T13:30:11.000Z</time>
      </trkpt>
      <trkpt lat="42.038230" lon="-2.785198">
        <ele>1756.6</ele>
        <time>2021-07-03T13:30:37.000Z</time>
      </trkpt>
      <trkpt lat="42.038230" lon="-2.785198">
        <ele>1756.7</ele>
        <time>2021-07-03T13:30:38.000Z</time>
      </trkpt>
      <trkpt lat="42.038228" lon="-2.785198">
        <ele>1755.8</ele>
        <time>2021-07-03T13:30:57.000Z</time>
      </trkpt>
      <trkpt lat="42.038228" lon="-2.785198">
        <ele>1755.6</ele>
        <time>2021-07-03T13:30:58.000Z</time>
      </trkpt>
      <trkpt lat="42.038227" lon="-2.785197">
        <ele>1755.0</ele>
        <time>2021-07-03T13:31:54.000Z</time>
      </trkpt>
      <trkpt lat="42.038227" lon="-2.785197">
        <ele>1755.2</ele>
        <time>2021-07-03T13:31:55.000Z</time>
      </trkpt>
      <trkpt lat="42.038225" lon="-2.785195">
        <ele>1755.0</ele>
        <time>2021-07-03T13:32:40.000Z</time>
      </trkpt>
      <trkpt lat="42.038225" lon="-2.785193">
        <ele>1754.9</ele>
        <time>2021-07-03T13:32:41.000Z</time>
      </trkpt>
      <trkpt lat="42.038223" lon="-2.785193">
        <ele>1754.8</ele>
        <time>2021-07-03T13:33:22.000Z</time>
      </trkpt>
      <trkpt lat="42.038223" lon="-2.785193">
        <ele>1754.6</ele>
        <time>2021-07-03T13:33:23.000Z</time>
      </trkpt>
      <trkpt lat="42.038222" lon="-2.785192">
        <ele>1756.4</ele>
        <time>2021-07-03T13:37:08.000Z</time>
      </trkpt>
      <trkpt lat="42.038218" lon="-2.785188">
        <ele>1756.2</ele>
        <time>2021-07-03T13:37:10.000Z</time>
      </trkpt>
      <trkpt lat="42.038217" lon="-2.785188">
        <ele>1753.5</ele>
        <time>2021-07-03T13:37:11.000Z</time>
      </trkpt>
      <trkpt lat="42.038215" lon="-2.785188">
        <ele>1750.5</ele>
        <time>2021-07-03T13:37:13.000Z</time>
      </trkpt>
      <trkpt lat="42.038213" lon="-2.785188">
        <ele>1754.7</ele>
        <time>2021-07-03T13:37:23.000Z</time>
      </trkpt>
      <trkpt lat="42.038212" lon="-2.785197">
        <ele>1754.4</ele>
        <time>2021-07-03T13:37:26.000Z</time>
      </trkpt>
      <trkpt lat="42.038210" lon="-2.785197">
        <ele>1755.7</ele>
        <time>2021-07-03T13:37:31.000Z</time>
      </trkpt>
      <trkpt lat="42.038192" lon="-2.785320">
        <ele>1755.6</ele>
        <time>2021-07-03T13:37:42.000Z</time>
      </trkpt>
      <trkpt lat="42.038253" lon="-2.785232">
        <ele>1755.5</ele>
        <time>2021-07-03T13:37:52.000Z</time>
      </trkpt>
      <trkpt lat="42.038283" lon="-2.785117">
        <ele>1755.5</ele>
        <time>2021-07-03T13:38:00.000Z</time>
      </trkpt>
      <trkpt lat="42.038368" lon="-2.785062">
        <ele>1755.9</ele>
        <time>2021-07-03T13:38:11.000Z</time>
      </trkpt>
      <trkpt lat="42.038408" lon="-2.785008">
        <ele>1756.8</ele>
        <time>2021-07-03T13:38:21.000Z</time>
      </trkpt>
      <trkpt lat="42.038410" lon="-2.785010">
        <ele>1756.9</ele>
        <time>2021-07-03T13:38:43.000Z</time>
      </trkpt>
      <trkpt lat="42.038410" lon="-2.785010">
        <ele>1757.1</ele>
        <time>2021-07-03T13:38:44.000Z</time>
      </trkpt>
      <trkpt lat="42.038415" lon="-2.785010">
        <ele>1756.5</ele>
        <time>2021-07-03T13:39:26.000Z</time>
      </trkpt>
      <trkpt lat="42.038482" lon="-2.785098">
        <ele>1756.9</ele>
        <time>2021-07-03T13:39:34.000Z</time>
      </trkpt>
      <trkpt lat="42.038502" lon="-2.785232">
        <ele>1757.6</ele>
        <time>2021-07-03T13:39:41.000Z</time>
      </trkpt>
      <trkpt lat="42.038520" lon="-2.785357">
        <ele>1757.9</ele>
        <time>2021-07-03T13:39:49.000Z</time>
      </trkpt>
      <trkpt lat="42.038557" lon="-2.785473">
        <ele>1759.2</ele>
        <time>2021-07-03T13:39:57.000Z</time>
      </trkpt>
      <trkpt lat="42.038582" lon="-2.785597">
        <ele>1760.7</ele>
        <time>2021-07-03T13:40:05.000Z</time>
      </trkpt>
      <trkpt lat="42.038635" lon="-2.785705">
        <ele>1761.6</ele>
        <time>2021-07-03T13:40:14.000Z</time>
      </trkpt>
      <trkpt lat="42.038695" lon="-2.785812">
        <ele>1763.2</ele>
        <time>2021-07-03T13:40:23.000Z</time>
      </trkpt>
      <trkpt lat="42.038760" lon="-2.785915">
        <ele>1764.4</ele>
        <time>2021-07-03T13:40:32.000Z</time>
      </trkpt>
      <trkpt lat="42.038830" lon="-2.786000">
        <ele>1765.1</ele>
        <time>2021-07-03T13:40:41.000Z</time>
      </trkpt>
      <trkpt lat="42.038912" lon="-2.786073">
        <ele>1766.6</ele>
        <time>2021-07-03T13:40:50.000Z</time>
      </trkpt>
      <trkpt lat="42.038992" lon="-2.786148">
        <ele>1767.2</ele>
        <time>2021-07-03T13:40:59.000Z</time>
      </trkpt>
      <trkpt lat="42.039058" lon="-2.786248">
        <ele>1769.3</ele>
        <time>2021-07-03T13:41:08.000Z</time>
      </trkpt>
      <trkpt lat="42.039118" lon="-2.786350">
        <ele>1770.8</ele>
        <time>2021-07-03T13:41:17.000Z</time>
      </trkpt>
      <trkpt lat="42.039187" lon="-2.786452">
        <ele>1772.4</ele>
        <time>2021-07-03T13:41:26.000Z</time>
      </trkpt>
      <trkpt lat="42.039257" lon="-2.786532">
        <ele>1773.3</ele>
        <time>2021-07-03T13:41:34.000Z</time>
      </trkpt>
      <trkpt lat="42.039330" lon="-2.786608">
        <ele>1774.6</ele>
        <time>2021-07-03T13:41:42.000Z</time>
      </trkpt>
      <trkpt lat="42.039408" lon="-2.786683">
        <ele>1776.1</ele>
        <time>2021-07-03T13:41:50.000Z</time>
      </trkpt>
      <trkpt lat="42.039492" lon="-2.786765">
        <ele>1776.2</ele>
        <time>2021-07-03T13:41:58.000Z</time>
      </trkpt>
      <trkpt lat="42.039570" lon="-2.786842">
        <ele>1777.0</ele>
        <time>2021-07-03T13:42:05.000Z</time>
      </trkpt>
      <trkpt lat="42.039662" lon="-2.786903">
        <ele>1778.1</ele>
        <time>2021-07-03T13:42:12.000Z</time>
      </trkpt>
      <trkpt lat="42.039753" lon="-2.786972">
        <ele>1778.1</ele>
        <time>2021-07-03T13:42:19.000Z</time>
      </trkpt>
      <trkpt lat="42.039843" lon="-2.787027">
        <ele>1778.7</ele>
        <time>2021-07-03T13:42:25.000Z</time>
      </trkpt>
      <trkpt lat="42.039920" lon="-2.787092">
        <ele>1778.8</ele>
        <time>2021-07-03T13:42:30.000Z</time>
      </trkpt>
      <trkpt lat="42.040010" lon="-2.787170">
        <ele>1778.7</ele>
        <time>2021-07-03T13:42:36.000Z</time>
      </trkpt>
      <trkpt lat="42.040092" lon="-2.787238">
        <ele>1779.3</ele>
        <time>2021-07-03T13:42:41.000Z</time>
      </trkpt>
      <trkpt lat="42.040180" lon="-2.787320">
        <ele>1779.2</ele>
        <time>2021-07-03T13:42:46.000Z</time>
      </trkpt>
      <trkpt lat="42.040260" lon="-2.787423">
        <ele>1779.6</ele>
        <time>2021-07-03T13:42:51.000Z</time>
      </trkpt>
      <trkpt lat="42.040340" lon="-2.787528">
        <ele>1778.8</ele>
        <time>2021-07-03T13:42:56.000Z</time>
      </trkpt>
      <trkpt lat="42.040405" lon="-2.787642">
        <ele>1779.1</ele>
        <time>2021-07-03T13:43:01.000Z</time>
      </trkpt>
      <trkpt lat="42.040467" lon="-2.787753">
        <ele>1779.6</ele>
        <time>2021-07-03T13:43:06.000Z</time>
      </trkpt>
      <trkpt lat="42.040533" lon="-2.787853">
        <ele>1780.7</ele>
        <time>2021-07-03T13:43:11.000Z</time>
      </trkpt>
      <trkpt lat="42.040597" lon="-2.787943">
        <ele>1780.5</ele>
        <time>2021-07-03T13:43:15.000Z</time>
      </trkpt>
      <trkpt lat="42.040658" lon="-2.788042">
        <ele>1780.4</ele>
        <time>2021-07-03T13:43:19.000Z</time>
      </trkpt>
      <trkpt lat="42.040718" lon="-2.788137">
        <ele>1780.7</ele>
        <time>2021-07-03T13:43:23.000Z</time>
      </trkpt>
      <trkpt lat="42.040772" lon="-2.788237">
        <ele>1781.0</ele>
        <time>2021-07-03T13:43:27.000Z</time>
      </trkpt>
      <trkpt lat="42.040840" lon="-2.788350">
        <ele>1781.9</ele>
        <time>2021-07-03T13:43:32.000Z</time>
      </trkpt>
      <trkpt lat="42.040905" lon="-2.788452">
        <ele>1781.5</ele>
        <time>2021-07-03T13:43:37.000Z</time>
      </trkpt>
      <trkpt lat="42.040973" lon="-2.788547">
        <ele>1782.4</ele>
        <time>2021-07-03T13:43:42.000Z</time>
      </trkpt>
      <trkpt lat="42.041040" lon="-2.788640">
        <ele>1783.0</ele>
        <time>2021-07-03T13:43:47.000Z</time>
      </trkpt>
      <trkpt lat="42.041108" lon="-2.788732">
        <ele>1783.4</ele>
        <time>2021-07-03T13:43:52.000Z</time>
      </trkpt>
      <trkpt lat="42.041177" lon="-2.788833">
        <ele>1784.4</ele>
        <time>2021-07-03T13:43:58.000Z</time>
      </trkpt>
      <trkpt lat="42.041255" lon="-2.788927">
        <ele>1785.2</ele>
        <time>2021-07-03T13:44:04.000Z</time>
      </trkpt>
      <trkpt lat="42.041335" lon="-2.789010">
        <ele>1786.2</ele>
        <time>2021-07-03T13:44:10.000Z</time>
      </trkpt>
      <trkpt lat="42.041415" lon="-2.789092">
        <ele>1787.5</ele>
        <time>2021-07-03T13:44:16.000Z</time>
      </trkpt>
      <trkpt lat="42.041505" lon="-2.789157">
        <ele>1787.7</ele>
        <time>2021-07-03T13:44:22.000Z</time>
      </trkpt>
      <trkpt lat="42.041600" lon="-2.789215">
        <ele>1788.3</ele>
        <time>2021-07-03T13:44:28.000Z</time>
      </trkpt>
      <trkpt lat="42.041683" lon="-2.789268">
        <ele>1788.4</ele>
        <time>2021-07-03T13:44:33.000Z</time>
      </trkpt>
      <trkpt lat="42.041763" lon="-2.789358">
        <ele>1789.1</ele>
        <time>2021-07-03T13:44:39.000Z</time>
      </trkpt>
      <trkpt lat="42.041833" lon="-2.789460">
        <ele>1790.0</ele>
        <time>2021-07-03T13:44:45.000Z</time>
      </trkpt>
      <trkpt lat="42.041898" lon="-2.789562">
        <ele>1791.1</ele>
        <time>2021-07-03T13:44:51.000Z</time>
      </trkpt>
      <trkpt lat="42.041962" lon="-2.789662">
        <ele>1791.8</ele>
        <time>2021-07-03T13:44:57.000Z</time>
      </trkpt>
      <trkpt lat="42.042033" lon="-2.789753">
        <ele>1792.9</ele>
        <time>2021-07-03T13:45:03.000Z</time>
      </trkpt>
      <trkpt lat="42.042093" lon="-2.789847">
        <ele>1793.6</ele>
        <time>2021-07-03T13:45:09.000Z</time>
      </trkpt>
      <trkpt lat="42.042170" lon="-2.789942">
        <ele>1793.9</ele>
        <time>2021-07-03T13:45:15.000Z</time>
      </trkpt>
      <trkpt lat="42.042240" lon="-2.790030">
        <ele>1793.7</ele>
        <time>2021-07-03T13:45:20.000Z</time>
      </trkpt>
      <trkpt lat="42.042303" lon="-2.790117">
        <ele>1793.9</ele>
        <time>2021-07-03T13:45:25.000Z</time>
      </trkpt>
      <trkpt lat="42.042377" lon="-2.790193">
        <ele>1794.0</ele>
        <time>2021-07-03T13:45:30.000Z</time>
      </trkpt>
      <trkpt lat="42.042453" lon="-2.790267">
        <ele>1793.5</ele>
        <time>2021-07-03T13:45:35.000Z</time>
      </trkpt>
      <trkpt lat="42.042538" lon="-2.790320">
        <ele>1794.1</ele>
        <time>2021-07-03T13:45:40.000Z</time>
      </trkpt>
      <trkpt lat="42.042627" lon="-2.790395">
        <ele>1794.0</ele>
        <time>2021-07-03T13:45:45.000Z</time>
      </trkpt>
      <trkpt lat="42.042720" lon="-2.790472">
        <ele>1794.3</ele>
        <time>2021-07-03T13:45:50.000Z</time>
      </trkpt>
      <trkpt lat="42.042805" lon="-2.790533">
        <ele>1794.5</ele>
        <time>2021-07-03T13:45:55.000Z</time>
      </trkpt>
      <trkpt lat="42.042875" lon="-2.790612">
        <ele>1795.2</ele>
        <time>2021-07-03T13:46:00.000Z</time>
      </trkpt>
      <trkpt lat="42.042950" lon="-2.790713">
        <ele>1795.5</ele>
        <time>2021-07-03T13:46:06.000Z</time>
      </trkpt>
      <trkpt lat="42.043010" lon="-2.790815">
        <ele>1796.1</ele>
        <time>2021-07-03T13:46:12.000Z</time>
      </trkpt>
      <trkpt lat="42.043053" lon="-2.790925">
        <ele>1797.2</ele>
        <time>2021-07-03T13:46:18.000Z</time>
      </trkpt>
      <trkpt lat="42.043125" lon="-2.791008">
        <ele>1798.6</ele>
        <time>2021-07-03T13:46:24.000Z</time>
      </trkpt>
      <trkpt lat="42.043187" lon="-2.791102">
        <ele>1799.7</ele>
        <time>2021-07-03T13:46:30.000Z</time>
      </trkpt>
      <trkpt lat="42.043257" lon="-2.791193">
        <ele>1800.3</ele>
        <time>2021-07-03T13:46:37.000Z</time>
      </trkpt>
      <trkpt lat="42.043320" lon="-2.791285">
        <ele>1801.3</ele>
        <time>2021-07-03T13:46:44.000Z</time>
      </trkpt>
      <trkpt lat="42.043397" lon="-2.791350">
        <ele>1802.8</ele>
        <time>2021-07-03T13:46:51.000Z</time>
      </trkpt>
      <trkpt lat="42.043467" lon="-2.791432">
        <ele>1803.6</ele>
        <time>2021-07-03T13:46:58.000Z</time>
      </trkpt>
      <trkpt lat="42.043547" lon="-2.791517">
        <ele>1804.0</ele>
        <time>2021-07-03T13:47:05.000Z</time>
      </trkpt>
      <trkpt lat="42.043612" lon="-2.791617">
        <ele>1804.5</ele>
        <time>2021-07-03T13:47:12.000Z</time>
      </trkpt>
      <trkpt lat="42.043663" lon="-2.791718">
        <ele>1805.2</ele>
        <time>2021-07-03T13:47:19.000Z</time>
      </trkpt>
      <trkpt lat="42.043707" lon="-2.791828">
        <ele>1806.7</ele>
        <time>2021-07-03T13:47:26.000Z</time>
      </trkpt>
      <trkpt lat="42.043748" lon="-2.791938">
        <ele>1807.6</ele>
        <time>2021-07-03T13:47:33.000Z</time>
      </trkpt>
      <trkpt lat="42.043808" lon="-2.792047">
        <ele>1808.9</ele>
        <time>2021-07-03T13:47:41.000Z</time>
      </trkpt>
      <trkpt lat="42.043873" lon="-2.792137">
        <ele>1810.0</ele>
        <time>2021-07-03T13:47:48.000Z</time>
      </trkpt>
      <trkpt lat="42.043953" lon="-2.792213">
        <ele>1811.4</ele>
        <time>2021-07-03T13:47:55.000Z</time>
      </trkpt>
      <trkpt lat="42.044023" lon="-2.792297">
        <ele>1811.6</ele>
        <time>2021-07-03T13:48:02.000Z</time>
      </trkpt>
      <trkpt lat="42.044085" lon="-2.792387">
        <ele>1813.5</ele>
        <time>2021-07-03T13:48:09.000Z</time>
      </trkpt>
      <trkpt lat="42.044128" lon="-2.792498">
        <ele>1815.3</ele>
        <time>2021-07-03T13:48:16.000Z</time>
      </trkpt>
      <trkpt lat="42.044165" lon="-2.792613">
        <ele>1816.3</ele>
        <time>2021-07-03T13:48:23.000Z</time>
      </trkpt>
      <trkpt lat="42.044217" lon="-2.792727">
        <ele>1818.5</ele>
        <time>2021-07-03T13:48:31.000Z</time>
      </trkpt>
      <trkpt lat="42.044272" lon="-2.792837">
        <ele>1819.1</ele>
        <time>2021-07-03T13:48:39.000Z</time>
      </trkpt>
      <trkpt lat="42.044330" lon="-2.792940">
        <ele>1820.4</ele>
        <time>2021-07-03T13:48:47.000Z</time>
      </trkpt>
      <trkpt lat="42.044385" lon="-2.793050">
        <ele>1822.7</ele>
        <time>2021-07-03T13:48:55.000Z</time>
      </trkpt>
      <trkpt lat="42.044430" lon="-2.793155">
        <ele>1822.7</ele>
        <time>2021-07-03T13:49:02.000Z</time>
      </trkpt>
      <trkpt lat="42.044455" lon="-2.793272">
        <ele>1824.4</ele>
        <time>2021-07-03T13:49:09.000Z</time>
      </trkpt>
      <trkpt lat="42.044473" lon="-2.793405">
        <ele>1825.0</ele>
        <time>2021-07-03T13:49:17.000Z</time>
      </trkpt>
      <trkpt lat="42.044485" lon="-2.793527">
        <ele>1825.7</ele>
        <time>2021-07-03T13:49:24.000Z</time>
      </trkpt>
      <trkpt lat="42.044505" lon="-2.793647">
        <ele>1826.3</ele>
        <time>2021-07-03T13:49:31.000Z</time>
      </trkpt>
      <trkpt lat="42.044542" lon="-2.793758">
        <ele>1826.8</ele>
        <time>2021-07-03T13:49:38.000Z</time>
      </trkpt>
      <trkpt lat="42.044597" lon="-2.793870">
        <ele>1828.0</ele>
        <time>2021-07-03T13:49:47.000Z</time>
      </trkpt>
      <trkpt lat="42.044663" lon="-2.793952">
        <ele>1829.2</ele>
        <time>2021-07-03T13:49:55.000Z</time>
      </trkpt>
      <trkpt lat="42.044733" lon="-2.794033">
        <ele>1830.1</ele>
        <time>2021-07-03T13:50:03.000Z</time>
      </trkpt>
      <trkpt lat="42.044808" lon="-2.794125">
        <ele>1831.2</ele>
        <time>2021-07-03T13:50:12.000Z</time>
      </trkpt>
      <trkpt lat="42.044895" lon="-2.794200">
        <ele>1832.7</ele>
        <time>2021-07-03T13:50:21.000Z</time>
      </trkpt>
      <trkpt lat="42.044958" lon="-2.794298">
        <ele>1833.5</ele>
        <time>2021-07-03T13:50:30.000Z</time>
      </trkpt>
      <trkpt lat="42.045017" lon="-2.794400">
        <ele>1835.2</ele>
        <time>2021-07-03T13:50:39.000Z</time>
      </trkpt>
      <trkpt lat="42.045070" lon="-2.794498">
        <ele>1836.5</ele>
        <time>2021-07-03T13:50:48.000Z</time>
      </trkpt>
      <trkpt lat="42.045123" lon="-2.794605">
        <ele>1839.6</ele>
        <time>2021-07-03T13:50:58.000Z</time>
      </trkpt>
      <trkpt lat="42.045188" lon="-2.794697">
        <ele>1841.3</ele>
        <time>2021-07-03T13:51:08.000Z</time>
      </trkpt>
      <trkpt lat="42.045272" lon="-2.794760">
        <ele>1842.3</ele>
        <time>2021-07-03T13:51:18.000Z</time>
      </trkpt>
      <trkpt lat="42.045310" lon="-2.794783">
        <ele>1843.2</ele>
        <time>2021-07-03T13:51:24.000Z</time>
      </trkpt>
      <trkpt lat="42.045312" lon="-2.794782">
        <ele>1843.8</ele>
        <time>2021-07-03T13:51:27.000Z</time>
      </trkpt>
      <trkpt lat="42.045312" lon="-2.794782">
        <ele>1843.4</ele>
        <time>2021-07-03T13:51:28.000Z</time>
      </trkpt>
      <trkpt lat="42.045313" lon="-2.794783">
        <ele>1820.1</ele>
        <time>2021-07-03T13:51:30.000Z</time>
      </trkpt>
      <trkpt lat="42.045352" lon="-2.794787">
        <ele>1840.4</ele>
        <time>2021-07-03T13:51:36.000Z</time>
      </trkpt>
      <trkpt lat="42.045348" lon="-2.794785">
        <ele>1865.2</ele>
        <time>2021-07-03T13:51:38.000Z</time>
      </trkpt>
      <trkpt lat="42.045338" lon="-2.794790">
        <ele>1846.2</ele>
        <time>2021-07-03T13:51:42.000Z</time>
      </trkpt>
      <trkpt lat="42.045337" lon="-2.794790">
        <ele>1842.3</ele>
        <time>2021-07-03T13:51:54.000Z</time>
      </trkpt>
      <trkpt lat="42.045337" lon="-2.794790">
        <ele>1842.4</ele>
        <time>2021-07-03T13:51:55.000Z</time>
      </trkpt>
      <trkpt lat="42.045335" lon="-2.794792">
        <ele>1842.3</ele>
        <time>2021-07-03T13:52:14.000Z</time>
      </trkpt>
      <trkpt lat="42.045335" lon="-2.794792">
        <ele>1842.4</ele>
        <time>2021-07-03T13:52:15.000Z</time>
      </trkpt>
      <trkpt lat="42.045333" lon="-2.794792">
        <ele>1842.7</ele>
        <time>2021-07-03T13:52:24.000Z</time>
      </trkpt>
      <trkpt lat="42.045325" lon="-2.794778">
        <ele>1842.7</ele>
        <time>2021-07-03T13:52:31.000Z</time>
      </trkpt>
      <trkpt lat="42.045323" lon="-2.794778">
        <ele>1843.4</ele>
        <time>2021-07-03T13:52:39.000Z</time>
      </trkpt>
      <trkpt lat="42.045323" lon="-2.794778">
        <ele>1841.9</ele>
        <time>2021-07-03T13:52:40.000Z</time>
      </trkpt>
      <trkpt lat="42.045322" lon="-2.794777">
        <ele>1841.3</ele>
        <time>2021-07-03T13:52:41.000Z</time>
      </trkpt>
      <trkpt lat="42.045322" lon="-2.794777">
        <ele>1841.5</ele>
        <time>2021-07-03T13:52:42.000Z</time>
      </trkpt>
      <trkpt lat="42.045320" lon="-2.794778">
        <ele>1842.3</ele>
        <time>2021-07-03T13:52:43.000Z</time>
      </trkpt>
      <trkpt lat="42.045300" lon="-2.794795">
        <ele>1842.2</ele>
        <time>2021-07-03T13:52:49.000Z</time>
      </trkpt>
      <trkpt lat="42.045303" lon="-2.794795">
        <ele>1840.7</ele>
        <time>2021-07-03T13:54:07.000Z</time>
      </trkpt>
      <trkpt lat="42.045320" lon="-2.794787">
        <ele>1842.2</ele>
        <time>2021-07-03T13:54:11.000Z</time>
      </trkpt>
      <trkpt lat="42.045318" lon="-2.794787">
        <ele>1842.6</ele>
        <time>2021-07-03T13:54:18.000Z</time>
      </trkpt>
      <trkpt lat="42.045318" lon="-2.794785">
        <ele>1842.3</ele>
        <time>2021-07-03T13:54:19.000Z</time>
      </trkpt>
      <trkpt lat="42.045322" lon="-2.794785">
        <ele>1842.7</ele>
        <time>2021-07-03T13:54:25.000Z</time>
      </trkpt>
      <trkpt lat="42.045413" lon="-2.794813">
        <ele>1843.4</ele>
        <time>2021-07-03T13:54:34.000Z</time>
      </trkpt>
      <trkpt lat="42.045502" lon="-2.794863">
        <ele>1845.5</ele>
        <time>2021-07-03T13:54:43.000Z</time>
      </trkpt>
      <trkpt lat="42.045580" lon="-2.794933">
        <ele>1846.9</ele>
        <time>2021-07-03T13:54:52.000Z</time>
      </trkpt>
      <trkpt lat="42.045583" lon="-2.794937">
        <ele>1847.2</ele>
        <time>2021-07-03T13:54:54.000Z</time>
      </trkpt>
      <trkpt lat="42.045585" lon="-2.794940">
        <ele>1847.2</ele>
        <time>2021-07-03T13:55:06.000Z</time>
      </trkpt>
      <trkpt lat="42.045645" lon="-2.795013">
        <ele>1848.4</ele>
        <time>2021-07-03T13:55:19.000Z</time>
      </trkpt>
      <trkpt lat="42.045647" lon="-2.795015">
        <ele>1848.9</ele>
        <time>2021-07-03T13:55:26.000Z</time>
      </trkpt>
      <trkpt lat="42.045708" lon="-2.795115">
        <ele>1851.0</ele>
        <time>2021-07-03T13:55:41.000Z</time>
      </trkpt>
      <trkpt lat="42.045730" lon="-2.795162">
        <ele>1851.6</ele>
        <time>2021-07-03T13:55:49.000Z</time>
      </trkpt>
      <trkpt lat="42.045732" lon="-2.795165">
        <ele>1852.0</ele>
        <time>2021-07-03T13:55:57.000Z</time>
      </trkpt>
      <trkpt lat="42.045793" lon="-2.795265">
        <ele>1854.0</ele>
        <time>2021-07-03T13:56:11.000Z</time>
      </trkpt>
      <trkpt lat="42.045857" lon="-2.795357">
        <ele>1856.3</ele>
        <time>2021-07-03T13:56:25.000Z</time>
      </trkpt>
      <trkpt lat="42.045922" lon="-2.795448">
        <ele>1857.3</ele>
        <time>2021-07-03T13:56:38.000Z</time>
      </trkpt>
      <trkpt lat="42.045958" lon="-2.795500">
        <ele>1858.7</ele>
        <time>2021-07-03T13:56:47.000Z</time>
      </trkpt>
      <trkpt lat="42.045960" lon="-2.795503">
        <ele>1858.3</ele>
        <time>2021-07-03T13:56:57.000Z</time>
      </trkpt>
      <trkpt lat="42.046023" lon="-2.795593">
        <ele>1860.4</ele>
        <time>2021-07-03T13:57:12.000Z</time>
      </trkpt>
      <trkpt lat="42.046085" lon="-2.795693">
        <ele>1862.0</ele>
        <time>2021-07-03T13:57:26.000Z</time>
      </trkpt>
      <trkpt lat="42.046138" lon="-2.795798">
        <ele>1864.3</ele>
        <time>2021-07-03T13:57:40.000Z</time>
      </trkpt>
      <trkpt lat="42.046188" lon="-2.795903">
        <ele>1866.3</ele>
        <time>2021-07-03T13:57:52.000Z</time>
      </trkpt>
      <trkpt lat="42.046197" lon="-2.795920">
        <ele>1866.2</ele>
        <time>2021-07-03T13:57:55.000Z</time>
      </trkpt>
      <trkpt lat="42.046198" lon="-2.795923">
        <ele>1866.3</ele>
        <time>2021-07-03T13:58:02.000Z</time>
      </trkpt>
      <trkpt lat="42.046238" lon="-2.796010">
        <ele>1866.8</ele>
        <time>2021-07-03T13:58:13.000Z</time>
      </trkpt>
      <trkpt lat="42.046240" lon="-2.796013">
        <ele>1867.5</ele>
        <time>2021-07-03T13:58:36.000Z</time>
      </trkpt>
      <trkpt lat="42.046270" lon="-2.796087">
        <ele>1867.8</ele>
        <time>2021-07-03T13:58:45.000Z</time>
      </trkpt>
      <trkpt lat="42.046268" lon="-2.796087">
        <ele>1867.6</ele>
        <time>2021-07-03T13:58:47.000Z</time>
      </trkpt>
      <trkpt lat="42.046268" lon="-2.796087">
        <ele>1868.0</ele>
        <time>2021-07-03T13:58:48.000Z</time>
      </trkpt>
      <trkpt lat="42.046270" lon="-2.796088">
        <ele>1868.1</ele>
        <time>2021-07-03T13:58:51.000Z</time>
      </trkpt>
      <trkpt lat="42.046285" lon="-2.796127">
        <ele>1868.3</ele>
        <time>2021-07-03T13:58:57.000Z</time>
      </trkpt>
      <trkpt lat="42.046288" lon="-2.796132">
        <ele>1868.5</ele>
        <time>2021-07-03T13:59:01.000Z</time>
      </trkpt>
      <trkpt lat="42.046337" lon="-2.796243">
        <ele>1869.8</ele>
        <time>2021-07-03T13:59:09.000Z</time>
      </trkpt>
      <trkpt lat="42.046387" lon="-2.796360">
        <ele>1870.9</ele>
        <time>2021-07-03T13:59:17.000Z</time>
      </trkpt>
      <trkpt lat="42.046438" lon="-2.796473">
        <ele>1871.8</ele>
        <time>2021-07-03T13:59:25.000Z</time>
      </trkpt>
      <trkpt lat="42.046490" lon="-2.796583">
        <ele>1873.0</ele>
        <time>2021-07-03T13:59:33.000Z</time>
      </trkpt>
      <trkpt lat="42.046538" lon="-2.796693">
        <ele>1874.4</ele>
        <time>2021-07-03T13:59:41.000Z</time>
      </trkpt>
      <trkpt lat="42.046592" lon="-2.796807">
        <ele>1875.9</ele>
        <time>2021-07-03T13:59:49.000Z</time>
      </trkpt>
      <trkpt lat="42.046650" lon="-2.796900">
        <ele>1877.7</ele>
        <time>2021-07-03T13:59:57.000Z</time>
      </trkpt>
      <trkpt lat="42.046702" lon="-2.797017">
        <ele>1878.7</ele>
        <time>2021-07-03T14:00:06.000Z</time>
      </trkpt>
      <trkpt lat="42.046748" lon="-2.797122">
        <ele>1880.3</ele>
        <time>2021-07-03T14:00:14.000Z</time>
      </trkpt>
      <trkpt lat="42.046792" lon="-2.797228">
        <ele>1881.1</ele>
        <time>2021-07-03T14:00:22.000Z</time>
      </trkpt>
      <trkpt lat="42.046827" lon="-2.797343">
        <ele>1881.6</ele>
        <time>2021-07-03T14:00:30.000Z</time>
      </trkpt>
      <trkpt lat="42.046852" lon="-2.797460">
        <ele>1882.5</ele>
        <time>2021-07-03T14:00:38.000Z</time>
      </trkpt>
      <trkpt lat="42.046877" lon="-2.797580">
        <ele>1883.8</ele>
        <time>2021-07-03T14:00:46.000Z</time>
      </trkpt>
      <trkpt lat="42.046900" lon="-2.797702">
        <ele>1885.6</ele>
        <time>2021-07-03T14:00:54.000Z</time>
      </trkpt>
      <trkpt lat="42.046923" lon="-2.797825">
        <ele>1886.1</ele>
        <time>2021-07-03T14:01:02.000Z</time>
      </trkpt>
      <trkpt lat="42.046943" lon="-2.797953">
        <ele>1887.7</ele>
        <time>2021-07-03T14:01:10.000Z</time>
      </trkpt>
      <trkpt lat="42.046943" lon="-2.798075">
        <ele>1889.1</ele>
        <time>2021-07-03T14:01:18.000Z</time>
      </trkpt>
      <trkpt lat="42.046915" lon="-2.798195">
        <ele>1889.6</ele>
        <time>2021-07-03T14:01:26.000Z</time>
      </trkpt>
      <trkpt lat="42.046863" lon="-2.798313">
        <ele>1890.1</ele>
        <time>2021-07-03T14:01:35.000Z</time>
      </trkpt>
      <trkpt lat="42.046823" lon="-2.798428">
        <ele>1890.0</ele>
        <time>2021-07-03T14:01:43.000Z</time>
      </trkpt>
      <trkpt lat="42.046818" lon="-2.798445">
        <ele>1890.5</ele>
        <time>2021-07-03T14:01:46.000Z</time>
      </trkpt>
      <trkpt lat="42.046817" lon="-2.798447">
        <ele>1890.7</ele>
        <time>2021-07-03T14:01:48.000Z</time>
      </trkpt>
      <trkpt lat="42.046812" lon="-2.798458">
        <ele>1891.4</ele>
        <time>2021-07-03T14:01:52.000Z</time>
      </trkpt>
      <trkpt lat="42.046810" lon="-2.798457">
        <ele>1890.8</ele>
        <time>2021-07-03T14:01:53.000Z</time>
      </trkpt>
      <trkpt lat="42.046815" lon="-2.798450">
        <ele>1890.5</ele>
        <time>2021-07-03T14:01:57.000Z</time>
      </trkpt>
      <trkpt lat="42.046812" lon="-2.798445">
        <ele>1890.0</ele>
        <time>2021-07-03T14:01:58.000Z</time>
      </trkpt>
      <trkpt lat="42.046810" lon="-2.798442">
        <ele>1890.5</ele>
        <time>2021-07-03T14:02:00.000Z</time>
      </trkpt>
      <trkpt lat="42.046808" lon="-2.798442">
        <ele>1891.1</ele>
        <time>2021-07-03T14:02:48.000Z</time>
      </trkpt>
      <trkpt lat="42.046808" lon="-2.798442">
        <ele>1891.0</ele>
        <time>2021-07-03T14:02:49.000Z</time>
      </trkpt>
      <trkpt lat="42.046807" lon="-2.798442">
        <ele>1890.4</ele>
        <time>2021-07-03T14:04:45.000Z</time>
      </trkpt>
      <trkpt lat="42.046807" lon="-2.798442">
        <ele>1890.2</ele>
        <time>2021-07-03T14:04:46.000Z</time>
      </trkpt>
      <trkpt lat="42.046805" lon="-2.798442">
        <ele>1890.3</ele>
        <time>2021-07-03T14:08:13.000Z</time>
      </trkpt>
      <trkpt lat="42.046805" lon="-2.798442">
        <ele>1890.2</ele>
        <time>2021-07-03T14:08:14.000Z</time>
      </trkpt>
      <trkpt lat="42.046803" lon="-2.798442">
        <ele>1890.6</ele>
        <time>2021-07-03T14:11:26.000Z</time>
      </trkpt>
      <trkpt lat="42.046803" lon="-2.798442">
        <ele>1890.4</ele>
        <time>2021-07-03T14:11:27.000Z</time>
      </trkpt>
      <trkpt lat="42.046805" lon="-2.798443">
        <ele>1889.7</ele>
        <time>2021-07-03T14:12:55.000Z</time>
      </trkpt>
      <trkpt lat="42.046805" lon="-2.798443">
        <ele>1889.6</ele>
        <time>2021-07-03T14:12:56.000Z</time>
      </trkpt>
      <trkpt lat="42.046805" lon="-2.798447">
        <ele>1890.0</ele>
        <time>2021-07-03T14:12:58.000Z</time>
      </trkpt>
      <trkpt lat="42.046805" lon="-2.798447">
        <ele>1890.1</ele>
        <time>2021-07-03T14:12:59.000Z</time>
      </trkpt>
      <trkpt lat="42.046807" lon="-2.798450">
        <ele>1889.4</ele>
        <time>2021-07-03T14:15:52.000Z</time>
      </trkpt>
      <trkpt lat="42.046807" lon="-2.798450">
        <ele>1889.3</ele>
        <time>2021-07-03T14:15:53.000Z</time>
      </trkpt>
      <trkpt lat="42.046805" lon="-2.798455">
        <ele>1889.5</ele>
        <time>2021-07-03T14:15:58.000Z</time>
      </trkpt>
      <trkpt lat="42.046770" lon="-2.798573">
        <ele>1889.5</ele>
        <time>2021-07-03T14:16:06.000Z</time>
      </trkpt>
      <trkpt lat="42.046720" lon="-2.798707">
        <ele>1889.6</ele>
        <time>2021-07-03T14:16:10.000Z</time>
      </trkpt>
      <trkpt lat="42.046668" lon="-2.798837">
        <ele>1889.3</ele>
        <time>2021-07-03T14:16:13.000Z</time>
      </trkpt>
      <trkpt lat="42.046625" lon="-2.798950">
        <ele>1887.7</ele>
        <time>2021-07-03T14:16:15.000Z</time>
      </trkpt>
      <trkpt lat="42.046577" lon="-2.799085">
        <ele>1886.8</ele>
        <time>2021-07-03T14:16:17.000Z</time>
      </trkpt>
      <trkpt lat="42.046527" lon="-2.799218">
        <ele>1886.3</ele>
        <time>2021-07-03T14:16:19.000Z</time>
      </trkpt>
      <trkpt lat="42.046482" lon="-2.799333">
        <ele>1886.1</ele>
        <time>2021-07-03T14:16:21.000Z</time>
      </trkpt>
      <trkpt lat="42.046432" lon="-2.799492">
        <ele>1887.0</ele>
        <time>2021-07-03T14:16:24.000Z</time>
      </trkpt>
      <trkpt lat="42.046405" lon="-2.799608">
        <ele>1887.7</ele>
        <time>2021-07-03T14:16:26.000Z</time>
      </trkpt>
      <trkpt lat="42.046388" lon="-2.799733">
        <ele>1887.8</ele>
        <time>2021-07-03T14:16:28.000Z</time>
      </trkpt>
      <trkpt lat="42.046377" lon="-2.799858">
        <ele>1887.4</ele>
        <time>2021-07-03T14:16:30.000Z</time>
      </trkpt>
      <trkpt lat="42.046370" lon="-2.799987">
        <ele>1886.7</ele>
        <time>2021-07-03T14:16:32.000Z</time>
      </trkpt>
      <trkpt lat="42.046373" lon="-2.800112">
        <ele>1886.1</ele>
        <time>2021-07-03T14:16:34.000Z</time>
      </trkpt>
      <trkpt lat="42.046380" lon="-2.800235">
        <ele>1885.0</ele>
        <time>2021-07-03T14:16:36.000Z</time>
      </trkpt>
      <trkpt lat="42.046382" lon="-2.800362">
        <ele>1884.9</ele>
        <time>2021-07-03T14:16:38.000Z</time>
      </trkpt>
      <trkpt lat="42.046385" lon="-2.800492">
        <ele>1883.9</ele>
        <time>2021-07-03T14:16:40.000Z</time>
      </trkpt>
      <trkpt lat="42.046387" lon="-2.800613">
        <ele>1885.4</ele>
        <time>2021-07-03T14:16:42.000Z</time>
      </trkpt>
      <trkpt lat="42.046402" lon="-2.800787">
        <ele>1884.8</ele>
        <time>2021-07-03T14:16:45.000Z</time>
      </trkpt>
      <trkpt lat="42.046413" lon="-2.800908">
        <ele>1884.5</ele>
        <time>2021-07-03T14:16:47.000Z</time>
      </trkpt>
      <trkpt lat="42.046438" lon="-2.801083">
        <ele>1884.1</ele>
        <time>2021-07-03T14:16:50.000Z</time>
      </trkpt>
      <trkpt lat="42.046452" lon="-2.801258">
        <ele>1884.6</ele>
        <time>2021-07-03T14:16:53.000Z</time>
      </trkpt>
      <trkpt lat="42.046458" lon="-2.801390">
        <ele>1884.3</ele>
        <time>2021-07-03T14:16:55.000Z</time>
      </trkpt>
      <trkpt lat="42.046465" lon="-2.801528">
        <ele>1883.5</ele>
        <time>2021-07-03T14:16:57.000Z</time>
      </trkpt>
      <trkpt lat="42.046472" lon="-2.801695">
        <ele>1883.3</ele>
        <time>2021-07-03T14:17:00.000Z</time>
      </trkpt>
      <trkpt lat="42.046470" lon="-2.801827">
        <ele>1882.4</ele>
        <time>2021-07-03T14:17:03.000Z</time>
      </trkpt>
      <trkpt lat="42.046465" lon="-2.801960">
        <ele>1882.1</ele>
        <time>2021-07-03T14:17:07.000Z</time>
      </trkpt>
      <trkpt lat="42.046478" lon="-2.802108">
        <ele>1882.9</ele>
        <time>2021-07-03T14:17:11.000Z</time>
      </trkpt>
      <trkpt lat="42.046492" lon="-2.802263">
        <ele>1882.8</ele>
        <time>2021-07-03T14:17:15.000Z</time>
      </trkpt>
      <trkpt lat="42.046447" lon="-2.802408">
        <ele>1882.3</ele>
        <time>2021-07-03T14:17:19.000Z</time>
      </trkpt>
      <trkpt lat="42.046387" lon="-2.802512">
        <ele>1881.7</ele>
        <time>2021-07-03T14:17:22.000Z</time>
      </trkpt>
      <trkpt lat="42.046328" lon="-2.802650">
        <ele>1880.8</ele>
        <time>2021-07-03T14:17:25.000Z</time>
      </trkpt>
      <trkpt lat="42.046280" lon="-2.802815">
        <ele>1879.8</ele>
        <time>2021-07-03T14:17:28.000Z</time>
      </trkpt>
      <trkpt lat="42.046225" lon="-2.802920">
        <ele>1879.7</ele>
        <time>2021-07-03T14:17:30.000Z</time>
      </trkpt>
      <trkpt lat="42.046160" lon="-2.803033">
        <ele>1877.2</ele>
        <time>2021-07-03T14:17:33.000Z</time>
      </trkpt>
      <trkpt lat="42.046112" lon="-2.803137">
        <ele>1875.4</ele>
        <time>2021-07-03T14:17:37.000Z</time>
      </trkpt>
      <trkpt lat="42.046063" lon="-2.803245">
        <ele>1874.9</ele>
        <time>2021-07-03T14:17:40.000Z</time>
      </trkpt>
      <trkpt lat="42.046003" lon="-2.803367">
        <ele>1873.2</ele>
        <time>2021-07-03T14:17:43.000Z</time>
      </trkpt>
      <trkpt lat="42.045928" lon="-2.803473">
        <ele>1871.4</ele>
        <time>2021-07-03T14:17:46.000Z</time>
      </trkpt>
      <trkpt lat="42.045820" lon="-2.803565">
        <ele>1868.4</ele>
        <time>2021-07-03T14:17:49.000Z</time>
      </trkpt>
      <trkpt lat="42.045722" lon="-2.803658">
        <ele>1867.0</ele>
        <time>2021-07-03T14:17:52.000Z</time>
      </trkpt>
      <trkpt lat="42.045657" lon="-2.803750">
        <ele>1865.8</ele>
        <time>2021-07-03T14:17:55.000Z</time>
      </trkpt>
      <trkpt lat="42.045593" lon="-2.803842">
        <ele>1863.8</ele>
        <time>2021-07-03T14:17:58.000Z</time>
      </trkpt>
      <trkpt lat="42.045515" lon="-2.803957">
        <ele>1862.5</ele>
        <time>2021-07-03T14:18:01.000Z</time>
      </trkpt>
      <trkpt lat="42.045453" lon="-2.804050">
        <ele>1862.2</ele>
        <time>2021-07-03T14:18:03.000Z</time>
      </trkpt>
      <trkpt lat="42.045388" lon="-2.804143">
        <ele>1860.5</ele>
        <time>2021-07-03T14:18:05.000Z</time>
      </trkpt>
      <trkpt lat="42.045305" lon="-2.804263">
        <ele>1857.7</ele>
        <time>2021-07-03T14:18:08.000Z</time>
      </trkpt>
      <trkpt lat="42.045235" lon="-2.804358">
        <ele>1856.9</ele>
        <time>2021-07-03T14:18:11.000Z</time>
      </trkpt>
      <trkpt lat="42.045163" lon="-2.804443">
        <ele>1855.8</ele>
        <time>2021-07-03T14:18:14.000Z</time>
      </trkpt>
      <trkpt lat="42.045090" lon="-2.804525">
        <ele>1855.0</ele>
        <time>2021-07-03T14:18:17.000Z</time>
      </trkpt>
      <trkpt lat="42.045003" lon="-2.804605">
        <ele>1853.2</ele>
        <time>2021-07-03T14:18:20.000Z</time>
      </trkpt>
      <trkpt lat="42.045075" lon="-2.804690">
        <ele>1851.6</ele>
        <time>2021-07-03T14:18:29.000Z</time>
      </trkpt>
      <trkpt lat="42.045167" lon="-2.804627">
        <ele>1852.3</ele>
        <time>2021-07-03T14:18:35.000Z</time>
      </trkpt>
      <trkpt lat="42.045255" lon="-2.804565">
        <ele>1852.8</ele>
        <time>2021-07-03T14:18:40.000Z</time>
      </trkpt>
      <trkpt lat="42.045345" lon="-2.804500">
        <ele>1853.0</ele>
        <time>2021-07-03T14:18:45.000Z</time>
      </trkpt>
      <trkpt lat="42.045427" lon="-2.804443">
        <ele>1853.4</ele>
        <time>2021-07-03T14:18:49.000Z</time>
      </trkpt>
      <trkpt lat="42.045532" lon="-2.804403">
        <ele>1853.6</ele>
        <time>2021-07-03T14:18:53.000Z</time>
      </trkpt>
      <trkpt lat="42.045643" lon="-2.804402">
        <ele>1854.2</ele>
        <time>2021-07-03T14:18:57.000Z</time>
      </trkpt>
      <trkpt lat="42.045753" lon="-2.804398">
        <ele>1853.7</ele>
        <time>2021-07-03T14:19:01.000Z</time>
      </trkpt>
      <trkpt lat="42.045863" lon="-2.804393">
        <ele>1854.2</ele>
        <time>2021-07-03T14:19:05.000Z</time>
      </trkpt>
      <trkpt lat="42.045957" lon="-2.804383">
        <ele>1853.9</ele>
        <time>2021-07-03T14:19:08.000Z</time>
      </trkpt>
      <trkpt lat="42.046052" lon="-2.804372">
        <ele>1854.1</ele>
        <time>2021-07-03T14:19:11.000Z</time>
      </trkpt>
      <trkpt lat="42.046150" lon="-2.804365">
        <ele>1854.2</ele>
        <time>2021-07-03T14:19:14.000Z</time>
      </trkpt>
      <trkpt lat="42.046255" lon="-2.804348">
        <ele>1853.9</ele>
        <time>2021-07-03T14:19:17.000Z</time>
      </trkpt>
      <trkpt lat="42.046365" lon="-2.804312">
        <ele>1853.4</ele>
        <time>2021-07-03T14:19:20.000Z</time>
      </trkpt>
      <trkpt lat="42.046473" lon="-2.804248">
        <ele>1852.4</ele>
        <time>2021-07-03T14:19:23.000Z</time>
      </trkpt>
      <trkpt lat="42.046578" lon="-2.804183">
        <ele>1852.9</ele>
        <time>2021-07-03T14:19:26.000Z</time>
      </trkpt>
      <trkpt lat="42.046695" lon="-2.804105">
        <ele>1851.5</ele>
        <time>2021-07-03T14:19:29.000Z</time>
      </trkpt>
      <trkpt lat="42.046812" lon="-2.804012">
        <ele>1850.9</ele>
        <time>2021-07-03T14:19:32.000Z</time>
      </trkpt>
      <trkpt lat="42.046917" lon="-2.803927">
        <ele>1852.2</ele>
        <time>2021-07-03T14:19:35.000Z</time>
      </trkpt>
      <trkpt lat="42.047007" lon="-2.803855">
        <ele>1851.3</ele>
        <time>2021-07-03T14:19:38.000Z</time>
      </trkpt>
      <trkpt lat="42.047093" lon="-2.803792">
        <ele>1852.6</ele>
        <time>2021-07-03T14:19:41.000Z</time>
      </trkpt>
      <trkpt lat="42.047182" lon="-2.803702">
        <ele>1852.7</ele>
        <time>2021-07-03T14:19:45.000Z</time>
      </trkpt>
      <trkpt lat="42.047267" lon="-2.803613">
        <ele>1852.1</ele>
        <time>2021-07-03T14:19:49.000Z</time>
      </trkpt>
      <trkpt lat="42.047358" lon="-2.803507">
        <ele>1852.0</ele>
        <time>2021-07-03T14:19:53.000Z</time>
      </trkpt>
      <trkpt lat="42.047428" lon="-2.803408">
        <ele>1851.7</ele>
        <time>2021-07-03T14:19:56.000Z</time>
      </trkpt>
      <trkpt lat="42.047495" lon="-2.803308">
        <ele>1850.9</ele>
        <time>2021-07-03T14:19:59.000Z</time>
      </trkpt>
      <trkpt lat="42.047567" lon="-2.803197">
        <ele>1850.3</ele>
        <time>2021-07-03T14:20:02.000Z</time>
      </trkpt>
      <trkpt lat="42.047637" lon="-2.803073">
        <ele>1848.5</ele>
        <time>2021-07-03T14:20:05.000Z</time>
      </trkpt>
      <trkpt lat="42.047700" lon="-2.802942">
        <ele>1849.7</ele>
        <time>2021-07-03T14:20:08.000Z</time>
      </trkpt>
      <trkpt lat="42.047770" lon="-2.802793">
        <ele>1847.8</ele>
        <time>2021-07-03T14:20:11.000Z</time>
      </trkpt>
      <trkpt lat="42.047827" lon="-2.802632">
        <ele>1846.5</ele>
        <time>2021-07-03T14:20:14.000Z</time>
      </trkpt>
      <trkpt lat="42.047853" lon="-2.802515">
        <ele>1845.1</ele>
        <time>2021-07-03T14:20:16.000Z</time>
      </trkpt>
      <trkpt lat="42.047872" lon="-2.802395">
        <ele>1844.1</ele>
        <time>2021-07-03T14:20:18.000Z</time>
      </trkpt>
      <trkpt lat="42.047895" lon="-2.802218">
        <ele>1844.2</ele>
        <time>2021-07-03T14:20:21.000Z</time>
      </trkpt>
      <trkpt lat="42.047913" lon="-2.802095">
        <ele>1844.3</ele>
        <time>2021-07-03T14:20:23.000Z</time>
      </trkpt>
      <trkpt lat="42.047932" lon="-2.801963">
        <ele>1842.5</ele>
        <time>2021-07-03T14:20:25.000Z</time>
      </trkpt>
      <trkpt lat="42.047953" lon="-2.801832">
        <ele>1840.9</ele>
        <time>2021-07-03T14:20:27.000Z</time>
      </trkpt>
      <trkpt lat="42.047975" lon="-2.801705">
        <ele>1838.8</ele>
        <time>2021-07-03T14:20:29.000Z</time>
      </trkpt>
      <trkpt lat="42.047995" lon="-2.801580">
        <ele>1839.6</ele>
        <time>2021-07-03T14:20:31.000Z</time>
      </trkpt>
      <trkpt lat="42.048018" lon="-2.801452">
        <ele>1837.5</ele>
        <time>2021-07-03T14:20:33.000Z</time>
      </trkpt>
      <trkpt lat="42.048048" lon="-2.801323">
        <ele>1837.6</ele>
        <time>2021-07-03T14:20:35.000Z</time>
      </trkpt>
      <trkpt lat="42.048083" lon="-2.801193">
        <ele>1836.9</ele>
        <time>2021-07-03T14:20:37.000Z</time>
      </trkpt>
      <trkpt lat="42.048128" lon="-2.801068">
        <ele>1835.3</ele>
        <time>2021-07-03T14:20:39.000Z</time>
      </trkpt>
      <trkpt lat="42.048183" lon="-2.800950">
        <ele>1833.8</ele>
        <time>2021-07-03T14:20:41.000Z</time>
      </trkpt>
      <trkpt lat="42.048237" lon="-2.800830">
        <ele>1833.7</ele>
        <time>2021-07-03T14:20:43.000Z</time>
      </trkpt>
      <trkpt lat="42.048295" lon="-2.800703">
        <ele>1832.3</ele>
        <time>2021-07-03T14:20:45.000Z</time>
      </trkpt>
      <trkpt lat="42.048358" lon="-2.800572">
        <ele>1830.5</ele>
        <time>2021-07-03T14:20:47.000Z</time>
      </trkpt>
      <trkpt lat="42.048420" lon="-2.800452">
        <ele>1830.4</ele>
        <time>2021-07-03T14:20:49.000Z</time>
      </trkpt>
      <trkpt lat="42.048503" lon="-2.800317">
        <ele>1829.0</ele>
        <time>2021-07-03T14:20:52.000Z</time>
      </trkpt>
      <trkpt lat="42.048565" lon="-2.800218">
        <ele>1828.9</ele>
        <time>2021-07-03T14:20:54.000Z</time>
      </trkpt>
      <trkpt lat="42.048635" lon="-2.800112">
        <ele>1828.3</ele>
        <time>2021-07-03T14:20:56.000Z</time>
      </trkpt>
      <trkpt lat="42.048700" lon="-2.800002">
        <ele>1828.6</ele>
        <time>2021-07-03T14:20:58.000Z</time>
      </trkpt>
      <trkpt lat="42.048765" lon="-2.799885">
        <ele>1827.5</ele>
        <time>2021-07-03T14:21:00.000Z</time>
      </trkpt>
      <trkpt lat="42.048822" lon="-2.799760">
        <ele>1829.1</ele>
        <time>2021-07-03T14:21:02.000Z</time>
      </trkpt>
      <trkpt lat="42.048878" lon="-2.799630">
        <ele>1828.2</ele>
        <time>2021-07-03T14:21:04.000Z</time>
      </trkpt>
      <trkpt lat="42.048952" lon="-2.799505">
        <ele>1828.1</ele>
        <time>2021-07-03T14:21:06.000Z</time>
      </trkpt>
      <trkpt lat="42.049047" lon="-2.799395">
        <ele>1825.2</ele>
        <time>2021-07-03T14:21:08.000Z</time>
      </trkpt>
      <trkpt lat="42.049148" lon="-2.799310">
        <ele>1826.4</ele>
        <time>2021-07-03T14:21:10.000Z</time>
      </trkpt>
      <trkpt lat="42.049248" lon="-2.799242">
        <ele>1826.9</ele>
        <time>2021-07-03T14:21:12.000Z</time>
      </trkpt>
      <trkpt lat="42.049340" lon="-2.799187">
        <ele>1826.2</ele>
        <time>2021-07-03T14:21:14.000Z</time>
      </trkpt>
      <trkpt lat="42.049433" lon="-2.799142">
        <ele>1825.7</ele>
        <time>2021-07-03T14:21:16.000Z</time>
      </trkpt>
      <trkpt lat="42.049520" lon="-2.799092">
        <ele>1826.6</ele>
        <time>2021-07-03T14:21:18.000Z</time>
      </trkpt>
      <trkpt lat="42.049608" lon="-2.799050">
        <ele>1826.9</ele>
        <time>2021-07-03T14:21:20.000Z</time>
      </trkpt>
      <trkpt lat="42.049733" lon="-2.798993">
        <ele>1827.3</ele>
        <time>2021-07-03T14:21:23.000Z</time>
      </trkpt>
      <trkpt lat="42.049853" lon="-2.798933">
        <ele>1826.6</ele>
        <time>2021-07-03T14:21:26.000Z</time>
      </trkpt>
      <trkpt lat="42.049970" lon="-2.798878">
        <ele>1826.8</ele>
        <time>2021-07-03T14:21:29.000Z</time>
      </trkpt>
      <trkpt lat="42.050092" lon="-2.798822">
        <ele>1827.0</ele>
        <time>2021-07-03T14:21:32.000Z</time>
      </trkpt>
      <trkpt lat="42.050215" lon="-2.798785">
        <ele>1825.9</ele>
        <time>2021-07-03T14:21:35.000Z</time>
      </trkpt>
      <trkpt lat="42.050338" lon="-2.798760">
        <ele>1826.5</ele>
        <time>2021-07-03T14:21:38.000Z</time>
      </trkpt>
      <trkpt lat="42.050460" lon="-2.798732">
        <ele>1827.3</ele>
        <time>2021-07-03T14:21:41.000Z</time>
      </trkpt>
      <trkpt lat="42.050565" lon="-2.798690">
        <ele>1826.9</ele>
        <time>2021-07-03T14:21:44.000Z</time>
      </trkpt>
      <trkpt lat="42.050662" lon="-2.798638">
        <ele>1827.8</ele>
        <time>2021-07-03T14:21:47.000Z</time>
      </trkpt>
      <trkpt lat="42.050757" lon="-2.798587">
        <ele>1827.3</ele>
        <time>2021-07-03T14:21:50.000Z</time>
      </trkpt>
      <trkpt lat="42.050853" lon="-2.798538">
        <ele>1827.7</ele>
        <time>2021-07-03T14:21:53.000Z</time>
      </trkpt>
      <trkpt lat="42.050947" lon="-2.798495">
        <ele>1827.2</ele>
        <time>2021-07-03T14:21:56.000Z</time>
      </trkpt>
      <trkpt lat="42.051047" lon="-2.798455">
        <ele>1826.1</ele>
        <time>2021-07-03T14:21:59.000Z</time>
      </trkpt>
      <trkpt lat="42.051158" lon="-2.798400">
        <ele>1826.7</ele>
        <time>2021-07-03T14:22:02.000Z</time>
      </trkpt>
      <trkpt lat="42.051282" lon="-2.798343">
        <ele>1824.1</ele>
        <time>2021-07-03T14:22:05.000Z</time>
      </trkpt>
      <trkpt lat="42.051373" lon="-2.798312">
        <ele>1823.9</ele>
        <time>2021-07-03T14:22:07.000Z</time>
      </trkpt>
      <trkpt lat="42.051468" lon="-2.798298">
        <ele>1822.8</ele>
        <time>2021-07-03T14:22:09.000Z</time>
      </trkpt>
      <trkpt lat="42.051573" lon="-2.798300">
        <ele>1822.6</ele>
        <time>2021-07-03T14:22:11.000Z</time>
      </trkpt>
      <trkpt lat="42.051677" lon="-2.798300">
        <ele>1821.7</ele>
        <time>2021-07-03T14:22:13.000Z</time>
      </trkpt>
      <trkpt lat="42.051773" lon="-2.798297">
        <ele>1821.5</ele>
        <time>2021-07-03T14:22:15.000Z</time>
      </trkpt>
      <trkpt lat="42.051873" lon="-2.798288">
        <ele>1819.6</ele>
        <time>2021-07-03T14:22:17.000Z</time>
      </trkpt>
      <trkpt lat="42.051968" lon="-2.798282">
        <ele>1818.4</ele>
        <time>2021-07-03T14:22:19.000Z</time>
      </trkpt>
      <trkpt lat="42.052098" lon="-2.798265">
        <ele>1816.8</ele>
        <time>2021-07-03T14:22:22.000Z</time>
      </trkpt>
      <trkpt lat="42.052220" lon="-2.798245">
        <ele>1817.2</ele>
        <time>2021-07-03T14:22:25.000Z</time>
      </trkpt>
      <trkpt lat="42.052318" lon="-2.798233">
        <ele>1816.3</ele>
        <time>2021-07-03T14:22:28.000Z</time>
      </trkpt>
      <trkpt lat="42.052367" lon="-2.798260">
        <ele>1816.4</ele>
        <time>2021-07-03T14:22:32.000Z</time>
      </trkpt>
      <trkpt lat="42.052365" lon="-2.798260">
        <ele>1816.0</ele>
        <time>2021-07-03T14:22:37.000Z</time>
      </trkpt>
      <trkpt lat="42.052365" lon="-2.798260">
        <ele>1816.1</ele>
        <time>2021-07-03T14:22:38.000Z</time>
      </trkpt>
      <trkpt lat="42.052370" lon="-2.798263">
        <ele>1816.1</ele>
        <time>2021-07-03T14:24:24.000Z</time>
      </trkpt>
      <trkpt lat="42.052462" lon="-2.798273">
        <ele>1817.1</ele>
        <time>2021-07-03T14:24:29.000Z</time>
      </trkpt>
      <trkpt lat="42.052555" lon="-2.798255">
        <ele>1817.2</ele>
        <time>2021-07-03T14:24:32.000Z</time>
      </trkpt>
      <trkpt lat="42.052683" lon="-2.798220">
        <ele>1814.7</ele>
        <time>2021-07-03T14:24:35.000Z</time>
      </trkpt>
      <trkpt lat="42.052785" lon="-2.798175">
        <ele>1813.1</ele>
        <time>2021-07-03T14:24:37.000Z</time>
      </trkpt>
      <trkpt lat="42.052892" lon="-2.798120">
        <ele>1812.7</ele>
        <time>2021-07-03T14:24:39.000Z</time>
      </trkpt>
      <trkpt lat="42.052995" lon="-2.798073">
        <ele>1814.2</ele>
        <time>2021-07-03T14:24:41.000Z</time>
      </trkpt>
      <trkpt lat="42.053093" lon="-2.798030">
        <ele>1813.6</ele>
        <time>2021-07-03T14:24:43.000Z</time>
      </trkpt>
      <trkpt lat="42.053193" lon="-2.798000">
        <ele>1812.0</ele>
        <time>2021-07-03T14:24:45.000Z</time>
      </trkpt>
      <trkpt lat="42.053297" lon="-2.797987">
        <ele>1811.2</ele>
        <time>2021-07-03T14:24:47.000Z</time>
      </trkpt>
      <trkpt lat="42.053400" lon="-2.797985">
        <ele>1809.0</ele>
        <time>2021-07-03T14:24:49.000Z</time>
      </trkpt>
      <trkpt lat="42.053510" lon="-2.797990">
        <ele>1809.8</ele>
        <time>2021-07-03T14:24:51.000Z</time>
      </trkpt>
      <trkpt lat="42.053615" lon="-2.797993">
        <ele>1809.4</ele>
        <time>2021-07-03T14:24:53.000Z</time>
      </trkpt>
      <trkpt lat="42.053703" lon="-2.798000">
        <ele>1807.4</ele>
        <time>2021-07-03T14:24:58.000Z</time>
      </trkpt>
      <trkpt lat="42.053702" lon="-2.798000">
        <ele>1807.6</ele>
        <time>2021-07-03T14:25:24.000Z</time>
      </trkpt>
      <trkpt lat="42.053702" lon="-2.798002">
        <ele>1807.5</ele>
        <time>2021-07-03T14:25:25.000Z</time>
      </trkpt>
      <trkpt lat="42.053708" lon="-2.798003">
        <ele>1807.4</ele>
        <time>2021-07-03T14:25:26.000Z</time>
      </trkpt>
      <trkpt lat="42.053833" lon="-2.798038">
        <ele>1808.9</ele>
        <time>2021-07-03T14:25:30.000Z</time>
      </trkpt>
      <trkpt lat="42.053942" lon="-2.798057">
        <ele>1808.2</ele>
        <time>2021-07-03T14:25:32.000Z</time>
      </trkpt>
      <trkpt lat="42.054068" lon="-2.798082">
        <ele>1806.9</ele>
        <time>2021-07-03T14:25:34.000Z</time>
      </trkpt>
      <trkpt lat="42.054210" lon="-2.798113">
        <ele>1803.4</ele>
        <time>2021-07-03T14:25:36.000Z</time>
      </trkpt>
      <trkpt lat="42.054365" lon="-2.798150">
        <ele>1804.8</ele>
        <time>2021-07-03T14:25:38.000Z</time>
      </trkpt>
      <trkpt lat="42.054528" lon="-2.798187">
        <ele>1803.4</ele>
        <time>2021-07-03T14:25:40.000Z</time>
      </trkpt>
      <trkpt lat="42.054690" lon="-2.798220">
        <ele>1802.2</ele>
        <time>2021-07-03T14:25:42.000Z</time>
      </trkpt>
      <trkpt lat="42.054845" lon="-2.798247">
        <ele>1805.2</ele>
        <time>2021-07-03T14:25:44.000Z</time>
      </trkpt>
      <trkpt lat="42.054993" lon="-2.798270">
        <ele>1801.2</ele>
        <time>2021-07-03T14:25:46.000Z</time>
      </trkpt>
      <trkpt lat="42.055130" lon="-2.798307">
        <ele>1800.8</ele>
        <time>2021-07-03T14:25:48.000Z</time>
      </trkpt>
      <trkpt lat="42.055250" lon="-2.798357">
        <ele>1800.4</ele>
        <time>2021-07-03T14:25:50.000Z</time>
      </trkpt>
      <trkpt lat="42.055348" lon="-2.798448">
        <ele>1799.0</ele>
        <time>2021-07-03T14:25:52.000Z</time>
      </trkpt>
      <trkpt lat="42.055422" lon="-2.798590">
        <ele>1797.3</ele>
        <time>2021-07-03T14:25:54.000Z</time>
      </trkpt>
      <trkpt lat="42.055472" lon="-2.798747">
        <ele>1799.6</ele>
        <time>2021-07-03T14:25:56.000Z</time>
      </trkpt>
      <trkpt lat="42.055522" lon="-2.798883">
        <ele>1799.6</ele>
        <time>2021-07-03T14:25:58.000Z</time>
      </trkpt>
      <trkpt lat="42.055577" lon="-2.799003">
        <ele>1799.3</ele>
        <time>2021-07-03T14:26:00.000Z</time>
      </trkpt>
      <trkpt lat="42.055638" lon="-2.799120">
        <ele>1798.2</ele>
        <time>2021-07-03T14:26:02.000Z</time>
      </trkpt>
      <trkpt lat="42.055698" lon="-2.799222">
        <ele>1798.0</ele>
        <time>2021-07-03T14:26:04.000Z</time>
      </trkpt>
      <trkpt lat="42.055767" lon="-2.799315">
        <ele>1794.8</ele>
        <time>2021-07-03T14:26:08.000Z</time>
      </trkpt>
      <trkpt lat="42.055772" lon="-2.799320">
        <ele>1795.2</ele>
        <time>2021-07-03T14:26:10.000Z</time>
      </trkpt>
      <trkpt lat="42.055770" lon="-2.799320">
        <ele>1794.8</ele>
        <time>2021-07-03T14:26:29.000Z</time>
      </trkpt>
      <trkpt lat="42.055770" lon="-2.799318">
        <ele>1794.7</ele>
        <time>2021-07-03T14:26:30.000Z</time>
      </trkpt>
      <trkpt lat="42.055772" lon="-2.799317">
        <ele>1794.6</ele>
        <time>2021-07-03T14:26:31.000Z</time>
      </trkpt>
      <trkpt lat="42.055772" lon="-2.799317">
        <ele>1794.6</ele>
        <time>2021-07-03T14:26:32.000Z</time>
      </trkpt>
      <trkpt lat="42.055770" lon="-2.799317">
        <ele>1794.9</ele>
        <time>2021-07-03T14:26:38.000Z</time>
      </trkpt>
      <trkpt lat="42.055827" lon="-2.799373">
        <ele>1792.6</ele>
        <time>2021-07-03T14:26:48.000Z</time>
      </trkpt>
      <trkpt lat="42.055832" lon="-2.799377">
        <ele>1792.4</ele>
        <time>2021-07-03T14:27:09.000Z</time>
      </trkpt>
      <trkpt lat="42.055925" lon="-2.799455">
        <ele>1792.8</ele>
        <time>2021-07-03T14:27:14.000Z</time>
      </trkpt>
      <trkpt lat="42.056007" lon="-2.799532">
        <ele>1792.5</ele>
        <time>2021-07-03T14:27:17.000Z</time>
      </trkpt>
      <trkpt lat="42.056080" lon="-2.799637">
        <ele>1791.6</ele>
        <time>2021-07-03T14:27:20.000Z</time>
      </trkpt>
      <trkpt lat="42.056172" lon="-2.799733">
        <ele>1789.9</ele>
        <time>2021-07-03T14:27:23.000Z</time>
      </trkpt>
      <trkpt lat="42.056290" lon="-2.799817">
        <ele>1790.8</ele>
        <time>2021-07-03T14:27:26.000Z</time>
      </trkpt>
      <trkpt lat="42.056377" lon="-2.799855">
        <ele>1789.9</ele>
        <time>2021-07-03T14:27:28.000Z</time>
      </trkpt>
      <trkpt lat="42.056467" lon="-2.799878">
        <ele>1790.4</ele>
        <time>2021-07-03T14:27:30.000Z</time>
      </trkpt>
      <trkpt lat="42.056558" lon="-2.799897">
        <ele>1790.3</ele>
        <time>2021-07-03T14:27:32.000Z</time>
      </trkpt>
      <trkpt lat="42.056655" lon="-2.799907">
        <ele>1788.5</ele>
        <time>2021-07-03T14:27:34.000Z</time>
      </trkpt>
      <trkpt lat="42.056760" lon="-2.799918">
        <ele>1788.5</ele>
        <time>2021-07-03T14:27:36.000Z</time>
      </trkpt>
      <trkpt lat="42.056870" lon="-2.799932">
        <ele>1787.3</ele>
        <time>2021-07-03T14:27:38.000Z</time>
      </trkpt>
      <trkpt lat="42.056985" lon="-2.799950">
        <ele>1787.3</ele>
        <time>2021-07-03T14:27:40.000Z</time>
      </trkpt>
      <trkpt lat="42.057108" lon="-2.799978">
        <ele>1785.9</ele>
        <time>2021-07-03T14:27:42.000Z</time>
      </trkpt>
      <trkpt lat="42.057240" lon="-2.800012">
        <ele>1785.2</ele>
        <time>2021-07-03T14:27:44.000Z</time>
      </trkpt>
      <trkpt lat="42.057375" lon="-2.800048">
        <ele>1784.1</ele>
        <time>2021-07-03T14:27:46.000Z</time>
      </trkpt>
      <trkpt lat="42.057508" lon="-2.800083">
        <ele>1784.6</ele>
        <time>2021-07-03T14:27:48.000Z</time>
      </trkpt>
      <trkpt lat="42.057643" lon="-2.800120">
        <ele>1782.7</ele>
        <time>2021-07-03T14:27:50.000Z</time>
      </trkpt>
      <trkpt lat="42.057787" lon="-2.800162">
        <ele>1782.2</ele>
        <time>2021-07-03T14:27:52.000Z</time>
      </trkpt>
      <trkpt lat="42.057935" lon="-2.800207">
        <ele>1783.1</ele>
        <time>2021-07-03T14:27:54.000Z</time>
      </trkpt>
      <trkpt lat="42.058092" lon="-2.800253">
        <ele>1780.5</ele>
        <time>2021-07-03T14:27:56.000Z</time>
      </trkpt>
      <trkpt lat="42.058253" lon="-2.800303">
        <ele>1778.9</ele>
        <time>2021-07-03T14:27:58.000Z</time>
      </trkpt>
      <trkpt lat="42.058417" lon="-2.800360">
        <ele>1778.3</ele>
        <time>2021-07-03T14:28:00.000Z</time>
      </trkpt>
      <trkpt lat="42.058587" lon="-2.800427">
        <ele>1778.9</ele>
        <time>2021-07-03T14:28:02.000Z</time>
      </trkpt>
      <trkpt lat="42.058675" lon="-2.800463">
        <ele>1777.6</ele>
        <time>2021-07-03T14:28:03.000Z</time>
      </trkpt>
      <trkpt lat="42.058763" lon="-2.800505">
        <ele>1776.4</ele>
        <time>2021-07-03T14:28:04.000Z</time>
      </trkpt>
      <trkpt lat="42.058852" lon="-2.800547">
        <ele>1775.4</ele>
        <time>2021-07-03T14:28:05.000Z</time>
      </trkpt>
      <trkpt lat="42.058940" lon="-2.800587">
        <ele>1774.6</ele>
        <time>2021-07-03T14:28:06.000Z</time>
      </trkpt>
      <trkpt lat="42.059027" lon="-2.800627">
        <ele>1773.8</ele>
        <time>2021-07-03T14:28:07.000Z</time>
      </trkpt>
      <trkpt lat="42.059192" lon="-2.800705">
        <ele>1772.3</ele>
        <time>2021-07-03T14:28:09.000Z</time>
      </trkpt>
      <trkpt lat="42.059355" lon="-2.800777">
        <ele>1772.7</ele>
        <time>2021-07-03T14:28:11.000Z</time>
      </trkpt>
      <trkpt lat="42.059520" lon="-2.800835">
        <ele>1771.5</ele>
        <time>2021-07-03T14:28:13.000Z</time>
      </trkpt>
      <trkpt lat="42.059692" lon="-2.800887">
        <ele>1769.2</ele>
        <time>2021-07-03T14:28:15.000Z</time>
      </trkpt>
      <trkpt lat="42.059868" lon="-2.800937">
        <ele>1767.9</ele>
        <time>2021-07-03T14:28:17.000Z</time>
      </trkpt>
      <trkpt lat="42.059957" lon="-2.800962">
        <ele>1766.5</ele>
        <time>2021-07-03T14:28:18.000Z</time>
      </trkpt>
      <trkpt lat="42.060047" lon="-2.800983">
        <ele>1765.8</ele>
        <time>2021-07-03T14:28:19.000Z</time>
      </trkpt>
      <trkpt lat="42.060137" lon="-2.801003">
        <ele>1765.1</ele>
        <time>2021-07-03T14:28:20.000Z</time>
      </trkpt>
      <trkpt lat="42.060228" lon="-2.801018">
        <ele>1765.0</ele>
        <time>2021-07-03T14:28:21.000Z</time>
      </trkpt>
      <trkpt lat="42.060407" lon="-2.801043">
        <ele>1764.9</ele>
        <time>2021-07-03T14:28:23.000Z</time>
      </trkpt>
      <trkpt lat="42.060497" lon="-2.801055">
        <ele>1765.6</ele>
        <time>2021-07-03T14:28:24.000Z</time>
      </trkpt>
      <trkpt lat="42.060588" lon="-2.801067">
        <ele>1765.0</ele>
        <time>2021-07-03T14:28:25.000Z</time>
      </trkpt>
      <trkpt lat="42.060762" lon="-2.801098">
        <ele>1763.7</ele>
        <time>2021-07-03T14:28:27.000Z</time>
      </trkpt>
      <trkpt lat="42.060922" lon="-2.801125">
        <ele>1763.8</ele>
        <time>2021-07-03T14:28:29.000Z</time>
      </trkpt>
      <trkpt lat="42.061070" lon="-2.801145">
        <ele>1761.8</ele>
        <time>2021-07-03T14:28:31.000Z</time>
      </trkpt>
      <trkpt lat="42.061217" lon="-2.801152">
        <ele>1760.9</ele>
        <time>2021-07-03T14:28:33.000Z</time>
      </trkpt>
      <trkpt lat="42.061358" lon="-2.801140">
        <ele>1759.3</ele>
        <time>2021-07-03T14:28:35.000Z</time>
      </trkpt>
      <trkpt lat="42.061492" lon="-2.801110">
        <ele>1758.5</ele>
        <time>2021-07-03T14:28:37.000Z</time>
      </trkpt>
      <trkpt lat="42.061612" lon="-2.801052">
        <ele>1757.0</ele>
        <time>2021-07-03T14:28:39.000Z</time>
      </trkpt>
      <trkpt lat="42.061720" lon="-2.800952">
        <ele>1755.4</ele>
        <time>2021-07-03T14:28:41.000Z</time>
      </trkpt>
      <trkpt lat="42.061808" lon="-2.800820">
        <ele>1754.3</ele>
        <time>2021-07-03T14:28:43.000Z</time>
      </trkpt>
      <trkpt lat="42.061860" lon="-2.800670">
        <ele>1753.7</ele>
        <time>2021-07-03T14:28:45.000Z</time>
      </trkpt>
      <trkpt lat="42.061868" lon="-2.800518">
        <ele>1752.1</ele>
        <time>2021-07-03T14:28:47.000Z</time>
      </trkpt>
      <trkpt lat="42.061848" lon="-2.800375">
        <ele>1752.8</ele>
        <time>2021-07-03T14:28:49.000Z</time>
      </trkpt>
      <trkpt lat="42.061807" lon="-2.800238">
        <ele>1751.4</ele>
        <time>2021-07-03T14:28:51.000Z</time>
      </trkpt>
      <trkpt lat="42.061760" lon="-2.800107">
        <ele>1750.2</ele>
        <time>2021-07-03T14:28:53.000Z</time>
      </trkpt>
      <trkpt lat="42.061713" lon="-2.799965">
        <ele>1748.7</ele>
        <time>2021-07-03T14:28:55.000Z</time>
      </trkpt>
      <trkpt lat="42.061652" lon="-2.799827">
        <ele>1751.5</ele>
        <time>2021-07-03T14:28:57.000Z</time>
      </trkpt>
      <trkpt lat="42.061577" lon="-2.799698">
        <ele>1751.0</ele>
        <time>2021-07-03T14:28:59.000Z</time>
      </trkpt>
      <trkpt lat="42.061498" lon="-2.799578">
        <ele>1750.1</ele>
        <time>2021-07-03T14:29:01.000Z</time>
      </trkpt>
      <trkpt lat="42.061430" lon="-2.799453">
        <ele>1750.3</ele>
        <time>2021-07-03T14:29:03.000Z</time>
      </trkpt>
      <trkpt lat="42.061400" lon="-2.799318">
        <ele>1748.1</ele>
        <time>2021-07-03T14:29:05.000Z</time>
      </trkpt>
      <trkpt lat="42.061420" lon="-2.799187">
        <ele>1748.7</ele>
        <time>2021-07-03T14:29:07.000Z</time>
      </trkpt>
      <trkpt lat="42.061452" lon="-2.799062">
        <ele>1747.8</ele>
        <time>2021-07-03T14:29:09.000Z</time>
      </trkpt>
      <trkpt lat="42.061502" lon="-2.798917">
        <ele>1746.1</ele>
        <time>2021-07-03T14:29:11.000Z</time>
      </trkpt>
      <trkpt lat="42.061580" lon="-2.798752">
        <ele>1747.5</ele>
        <time>2021-07-03T14:29:13.000Z</time>
      </trkpt>
      <trkpt lat="42.061678" lon="-2.798587">
        <ele>1743.9</ele>
        <time>2021-07-03T14:29:15.000Z</time>
      </trkpt>
      <trkpt lat="42.061778" lon="-2.798430">
        <ele>1740.6</ele>
        <time>2021-07-03T14:29:17.000Z</time>
      </trkpt>
      <trkpt lat="42.061875" lon="-2.798275">
        <ele>1739.7</ele>
        <time>2021-07-03T14:29:19.000Z</time>
      </trkpt>
      <trkpt lat="42.061968" lon="-2.798123">
        <ele>1738.7</ele>
        <time>2021-07-03T14:29:21.000Z</time>
      </trkpt>
      <trkpt lat="42.062055" lon="-2.797973">
        <ele>1738.9</ele>
        <time>2021-07-03T14:29:23.000Z</time>
      </trkpt>
      <trkpt lat="42.062147" lon="-2.797817">
        <ele>1736.5</ele>
        <time>2021-07-03T14:29:25.000Z</time>
      </trkpt>
      <trkpt lat="42.062240" lon="-2.797653">
        <ele>1734.6</ele>
        <time>2021-07-03T14:29:27.000Z</time>
      </trkpt>
      <trkpt lat="42.062343" lon="-2.797492">
        <ele>1734.7</ele>
        <time>2021-07-03T14:29:29.000Z</time>
      </trkpt>
      <trkpt lat="42.062453" lon="-2.797340">
        <ele>1732.4</ele>
        <time>2021-07-03T14:29:31.000Z</time>
      </trkpt>
      <trkpt lat="42.062568" lon="-2.797202">
        <ele>1731.8</ele>
        <time>2021-07-03T14:29:33.000Z</time>
      </trkpt>
      <trkpt lat="42.062687" lon="-2.797078">
        <ele>1731.2</ele>
        <time>2021-07-03T14:29:35.000Z</time>
      </trkpt>
      <trkpt lat="42.062813" lon="-2.796983">
        <ele>1730.2</ele>
        <time>2021-07-03T14:29:37.000Z</time>
      </trkpt>
      <trkpt lat="42.062952" lon="-2.796913">
        <ele>1728.3</ele>
        <time>2021-07-03T14:29:39.000Z</time>
      </trkpt>
      <trkpt lat="42.063095" lon="-2.796870">
        <ele>1726.7</ele>
        <time>2021-07-03T14:29:41.000Z</time>
      </trkpt>
      <trkpt lat="42.063232" lon="-2.796840">
        <ele>1727.8</ele>
        <time>2021-07-03T14:29:43.000Z</time>
      </trkpt>
      <trkpt lat="42.063353" lon="-2.796843">
        <ele>1725.9</ele>
        <time>2021-07-03T14:29:45.000Z</time>
      </trkpt>
      <trkpt lat="42.063470" lon="-2.796883">
        <ele>1725.4</ele>
        <time>2021-07-03T14:29:47.000Z</time>
      </trkpt>
      <trkpt lat="42.063588" lon="-2.796920">
        <ele>1723.5</ele>
        <time>2021-07-03T14:29:49.000Z</time>
      </trkpt>
      <trkpt lat="42.063707" lon="-2.796925">
        <ele>1722.0</ele>
        <time>2021-07-03T14:29:51.000Z</time>
      </trkpt>
      <trkpt lat="42.063835" lon="-2.796890">
        <ele>1723.0</ele>
        <time>2021-07-03T14:29:53.000Z</time>
      </trkpt>
      <trkpt lat="42.063953" lon="-2.796815">
        <ele>1721.2</ele>
        <time>2021-07-03T14:29:55.000Z</time>
      </trkpt>
      <trkpt lat="42.064065" lon="-2.796713">
        <ele>1721.2</ele>
        <time>2021-07-03T14:29:57.000Z</time>
      </trkpt>
      <trkpt lat="42.064168" lon="-2.796593">
        <ele>1720.1</ele>
        <time>2021-07-03T14:29:59.000Z</time>
      </trkpt>
      <trkpt lat="42.064260" lon="-2.796458">
        <ele>1721.2</ele>
        <time>2021-07-03T14:30:01.000Z</time>
      </trkpt>
      <trkpt lat="42.064338" lon="-2.796305">
        <ele>1719.4</ele>
        <time>2021-07-03T14:30:03.000Z</time>
      </trkpt>
      <trkpt lat="42.064403" lon="-2.796142">
        <ele>1717.8</ele>
        <time>2021-07-03T14:30:05.000Z</time>
      </trkpt>
      <trkpt lat="42.064463" lon="-2.795977">
        <ele>1717.4</ele>
        <time>2021-07-03T14:30:07.000Z</time>
      </trkpt>
      <trkpt lat="42.064537" lon="-2.795823">
        <ele>1717.9</ele>
        <time>2021-07-03T14:30:09.000Z</time>
      </trkpt>
      <trkpt lat="42.064633" lon="-2.795687">
        <ele>1716.3</ele>
        <time>2021-07-03T14:30:11.000Z</time>
      </trkpt>
      <trkpt lat="42.064748" lon="-2.795572">
        <ele>1715.5</ele>
        <time>2021-07-03T14:30:13.000Z</time>
      </trkpt>
      <trkpt lat="42.064880" lon="-2.795480">
        <ele>1716.5</ele>
        <time>2021-07-03T14:30:15.000Z</time>
      </trkpt>
      <trkpt lat="42.065012" lon="-2.795403">
        <ele>1715.3</ele>
        <time>2021-07-03T14:30:17.000Z</time>
      </trkpt>
      <trkpt lat="42.065143" lon="-2.795333">
        <ele>1716.0</ele>
        <time>2021-07-03T14:30:19.000Z</time>
      </trkpt>
      <trkpt lat="42.065283" lon="-2.795278">
        <ele>1714.3</ele>
        <time>2021-07-03T14:30:21.000Z</time>
      </trkpt>
      <trkpt lat="42.065427" lon="-2.795248">
        <ele>1713.9</ele>
        <time>2021-07-03T14:30:23.000Z</time>
      </trkpt>
      <trkpt lat="42.065573" lon="-2.795235">
        <ele>1713.0</ele>
        <time>2021-07-03T14:30:25.000Z</time>
      </trkpt>
      <trkpt lat="42.065717" lon="-2.795243">
        <ele>1710.8</ele>
        <time>2021-07-03T14:30:27.000Z</time>
      </trkpt>
      <trkpt lat="42.065857" lon="-2.795272">
        <ele>1710.4</ele>
        <time>2021-07-03T14:30:29.000Z</time>
      </trkpt>
      <trkpt lat="42.065998" lon="-2.795325">
        <ele>1711.7</ele>
        <time>2021-07-03T14:30:31.000Z</time>
      </trkpt>
      <trkpt lat="42.066137" lon="-2.795393">
        <ele>1709.5</ele>
        <time>2021-07-03T14:30:33.000Z</time>
      </trkpt>
      <trkpt lat="42.066270" lon="-2.795475">
        <ele>1709.3</ele>
        <time>2021-07-03T14:30:35.000Z</time>
      </trkpt>
      <trkpt lat="42.066402" lon="-2.795567">
        <ele>1709.4</ele>
        <time>2021-07-03T14:30:37.000Z</time>
      </trkpt>
      <trkpt lat="42.066523" lon="-2.795655">
        <ele>1708.1</ele>
        <time>2021-07-03T14:30:39.000Z</time>
      </trkpt>
      <trkpt lat="42.066640" lon="-2.795743">
        <ele>1707.8</ele>
        <time>2021-07-03T14:30:41.000Z</time>
      </trkpt>
      <trkpt lat="42.066758" lon="-2.795830">
        <ele>1706.9</ele>
        <time>2021-07-03T14:30:43.000Z</time>
      </trkpt>
      <trkpt lat="42.066880" lon="-2.795918">
        <ele>1706.5</ele>
        <time>2021-07-03T14:30:45.000Z</time>
      </trkpt>
      <trkpt lat="42.067008" lon="-2.796005">
        <ele>1707.0</ele>
        <time>2021-07-03T14:30:47.000Z</time>
      </trkpt>
      <trkpt lat="42.067133" lon="-2.796088">
        <ele>1706.7</ele>
        <time>2021-07-03T14:30:49.000Z</time>
      </trkpt>
      <trkpt lat="42.067255" lon="-2.796162">
        <ele>1706.0</ele>
        <time>2021-07-03T14:30:51.000Z</time>
      </trkpt>
      <trkpt lat="42.067365" lon="-2.796222">
        <ele>1707.7</ele>
        <time>2021-07-03T14:30:53.000Z</time>
      </trkpt>
      <trkpt lat="42.067467" lon="-2.796262">
        <ele>1706.8</ele>
        <time>2021-07-03T14:30:55.000Z</time>
      </trkpt>
      <trkpt lat="42.067557" lon="-2.796275">
        <ele>1706.5</ele>
        <time>2021-07-03T14:30:57.000Z</time>
      </trkpt>
      <trkpt lat="42.067677" lon="-2.796247">
        <ele>1705.1</ele>
        <time>2021-07-03T14:31:00.000Z</time>
      </trkpt>
      <trkpt lat="42.067767" lon="-2.796163">
        <ele>1704.5</ele>
        <time>2021-07-03T14:31:03.000Z</time>
      </trkpt>
      <trkpt lat="42.067847" lon="-2.796078">
        <ele>1704.7</ele>
        <time>2021-07-03T14:31:06.000Z</time>
      </trkpt>
      <trkpt lat="42.067923" lon="-2.796010">
        <ele>1703.2</ele>
        <time>2021-07-03T14:31:09.000Z</time>
      </trkpt>
      <trkpt lat="42.067940" lon="-2.796028">
        <ele>1703.2</ele>
        <time>2021-07-03T14:31:17.000Z</time>
      </trkpt>
      <trkpt lat="42.067938" lon="-2.796027">
        <ele>1703.0</ele>
        <time>2021-07-03T14:31:24.000Z</time>
      </trkpt>
      <trkpt lat="42.068000" lon="-2.795938">
        <ele>1702.3</ele>
        <time>2021-07-03T14:31:33.000Z</time>
      </trkpt>
      <trkpt lat="42.068083" lon="-2.795872">
        <ele>1701.9</ele>
        <time>2021-07-03T14:31:36.000Z</time>
      </trkpt>
      <trkpt lat="42.068195" lon="-2.795813">
        <ele>1701.9</ele>
        <time>2021-07-03T14:31:39.000Z</time>
      </trkpt>
      <trkpt lat="42.068328" lon="-2.795777">
        <ele>1700.4</ele>
        <time>2021-07-03T14:31:42.000Z</time>
      </trkpt>
      <trkpt lat="42.068427" lon="-2.795765">
        <ele>1699.7</ele>
        <time>2021-07-03T14:31:44.000Z</time>
      </trkpt>
      <trkpt lat="42.068540" lon="-2.795763">
        <ele>1699.9</ele>
        <time>2021-07-03T14:31:46.000Z</time>
      </trkpt>
      <trkpt lat="42.068660" lon="-2.795777">
        <ele>1698.7</ele>
        <time>2021-07-03T14:31:48.000Z</time>
      </trkpt>
      <trkpt lat="42.068790" lon="-2.795823">
        <ele>1698.5</ele>
        <time>2021-07-03T14:31:50.000Z</time>
      </trkpt>
      <trkpt lat="42.068930" lon="-2.795893">
        <ele>1697.6</ele>
        <time>2021-07-03T14:31:52.000Z</time>
      </trkpt>
      <trkpt lat="42.069072" lon="-2.795970">
        <ele>1696.9</ele>
        <time>2021-07-03T14:31:54.000Z</time>
      </trkpt>
      <trkpt lat="42.069222" lon="-2.796028">
        <ele>1693.6</ele>
        <time>2021-07-03T14:31:56.000Z</time>
      </trkpt>
      <trkpt lat="42.069378" lon="-2.796073">
        <ele>1691.8</ele>
        <time>2021-07-03T14:31:58.000Z</time>
      </trkpt>
      <trkpt lat="42.069532" lon="-2.796110">
        <ele>1690.7</ele>
        <time>2021-07-03T14:32:00.000Z</time>
      </trkpt>
      <trkpt lat="42.069668" lon="-2.796153">
        <ele>1690.6</ele>
        <time>2021-07-03T14:32:02.000Z</time>
      </trkpt>
      <trkpt lat="42.069783" lon="-2.796228">
        <ele>1688.8</ele>
        <time>2021-07-03T14:32:04.000Z</time>
      </trkpt>
      <trkpt lat="42.069878" lon="-2.796332">
        <ele>1689.0</ele>
        <time>2021-07-03T14:32:06.000Z</time>
      </trkpt>
      <trkpt lat="42.069963" lon="-2.796432">
        <ele>1688.3</ele>
        <time>2021-07-03T14:32:08.000Z</time>
      </trkpt>
      <trkpt lat="42.070042" lon="-2.796510">
        <ele>1688.6</ele>
        <time>2021-07-03T14:32:10.000Z</time>
      </trkpt>
      <trkpt lat="42.070157" lon="-2.796588">
        <ele>1689.8</ele>
        <time>2021-07-03T14:32:13.000Z</time>
      </trkpt>
      <trkpt lat="42.070262" lon="-2.796638">
        <ele>1687.6</ele>
        <time>2021-07-03T14:32:16.000Z</time>
      </trkpt>
      <trkpt lat="42.070363" lon="-2.796678">
        <ele>1688.0</ele>
        <time>2021-07-03T14:32:19.000Z</time>
      </trkpt>
      <trkpt lat="42.070460" lon="-2.796715">
        <ele>1688.3</ele>
        <time>2021-07-03T14:32:22.000Z</time>
      </trkpt>
      <trkpt lat="42.070557" lon="-2.796755">
        <ele>1688.1</ele>
        <time>2021-07-03T14:32:25.000Z</time>
      </trkpt>
      <trkpt lat="42.070667" lon="-2.796793">
        <ele>1687.6</ele>
        <time>2021-07-03T14:32:28.000Z</time>
      </trkpt>
      <trkpt lat="42.070782" lon="-2.796832">
        <ele>1685.7</ele>
        <time>2021-07-03T14:32:31.000Z</time>
      </trkpt>
      <trkpt lat="42.070875" lon="-2.796863">
        <ele>1686.2</ele>
        <time>2021-07-03T14:32:33.000Z</time>
      </trkpt>
      <trkpt lat="42.070980" lon="-2.796895">
        <ele>1685.2</ele>
        <time>2021-07-03T14:32:35.000Z</time>
      </trkpt>
      <trkpt lat="42.071088" lon="-2.796932">
        <ele>1683.6</ele>
        <time>2021-07-03T14:32:37.000Z</time>
      </trkpt>
      <trkpt lat="42.071195" lon="-2.796978">
        <ele>1683.7</ele>
        <time>2021-07-03T14:32:39.000Z</time>
      </trkpt>
      <trkpt lat="42.071302" lon="-2.797032">
        <ele>1682.4</ele>
        <time>2021-07-03T14:32:41.000Z</time>
      </trkpt>
      <trkpt lat="42.071410" lon="-2.797087">
        <ele>1681.6</ele>
        <time>2021-07-03T14:32:43.000Z</time>
      </trkpt>
      <trkpt lat="42.071510" lon="-2.797160">
        <ele>1681.3</ele>
        <time>2021-07-03T14:32:45.000Z</time>
      </trkpt>
      <trkpt lat="42.071597" lon="-2.797247">
        <ele>1681.4</ele>
        <time>2021-07-03T14:32:47.000Z</time>
      </trkpt>
      <trkpt lat="42.071687" lon="-2.797330">
        <ele>1679.9</ele>
        <time>2021-07-03T14:32:49.000Z</time>
      </trkpt>
      <trkpt lat="42.071782" lon="-2.797403">
        <ele>1680.5</ele>
        <time>2021-07-03T14:32:51.000Z</time>
      </trkpt>
      <trkpt lat="42.071880" lon="-2.797472">
        <ele>1680.8</ele>
        <time>2021-07-03T14:32:53.000Z</time>
      </trkpt>
      <trkpt lat="42.071987" lon="-2.797523">
        <ele>1679.7</ele>
        <time>2021-07-03T14:32:55.000Z</time>
      </trkpt>
      <trkpt lat="42.072095" lon="-2.797567">
        <ele>1679.5</ele>
        <time>2021-07-03T14:32:57.000Z</time>
      </trkpt>
      <trkpt lat="42.072203" lon="-2.797598">
        <ele>1678.7</ele>
        <time>2021-07-03T14:32:59.000Z</time>
      </trkpt>
      <trkpt lat="42.072313" lon="-2.797615">
        <ele>1676.3</ele>
        <time>2021-07-03T14:33:01.000Z</time>
      </trkpt>
      <trkpt lat="42.072430" lon="-2.797627">
        <ele>1676.8</ele>
        <time>2021-07-03T14:33:03.000Z</time>
      </trkpt>
      <trkpt lat="42.072558" lon="-2.797623">
        <ele>1674.9</ele>
        <time>2021-07-03T14:33:05.000Z</time>
      </trkpt>
      <trkpt lat="42.072698" lon="-2.797598">
        <ele>1675.4</ele>
        <time>2021-07-03T14:33:07.000Z</time>
      </trkpt>
      <trkpt lat="42.072845" lon="-2.797562">
        <ele>1675.2</ele>
        <time>2021-07-03T14:33:09.000Z</time>
      </trkpt>
      <trkpt lat="42.072990" lon="-2.797522">
        <ele>1674.2</ele>
        <time>2021-07-03T14:33:11.000Z</time>
      </trkpt>
      <trkpt lat="42.073137" lon="-2.797493">
        <ele>1672.2</ele>
        <time>2021-07-03T14:33:13.000Z</time>
      </trkpt>
      <trkpt lat="42.073287" lon="-2.797502">
        <ele>1670.8</ele>
        <time>2021-07-03T14:33:15.000Z</time>
      </trkpt>
      <trkpt lat="42.073447" lon="-2.797550">
        <ele>1670.1</ele>
        <time>2021-07-03T14:33:17.000Z</time>
      </trkpt>
      <trkpt lat="42.073610" lon="-2.797635">
        <ele>1672.3</ele>
        <time>2021-07-03T14:33:19.000Z</time>
      </trkpt>
      <trkpt lat="42.073692" lon="-2.797692">
        <ele>1669.8</ele>
        <time>2021-07-03T14:33:20.000Z</time>
      </trkpt>
      <trkpt lat="42.073772" lon="-2.797758">
        <ele>1668.8</ele>
        <time>2021-07-03T14:33:21.000Z</time>
      </trkpt>
      <trkpt lat="42.073852" lon="-2.797830">
        <ele>1668.4</ele>
        <time>2021-07-03T14:33:22.000Z</time>
      </trkpt>
      <trkpt lat="42.073932" lon="-2.797903">
        <ele>1668.7</ele>
        <time>2021-07-03T14:33:23.000Z</time>
      </trkpt>
      <trkpt lat="42.074010" lon="-2.797978">
        <ele>1666.9</ele>
        <time>2021-07-03T14:33:24.000Z</time>
      </trkpt>
      <trkpt lat="42.074088" lon="-2.798052">
        <ele>1665.6</ele>
        <time>2021-07-03T14:33:25.000Z</time>
      </trkpt>
      <trkpt lat="42.074165" lon="-2.798125">
        <ele>1664.1</ele>
        <time>2021-07-03T14:33:26.000Z</time>
      </trkpt>
      <trkpt lat="42.074242" lon="-2.798195">
        <ele>1664.6</ele>
        <time>2021-07-03T14:33:27.000Z</time>
      </trkpt>
      <trkpt lat="42.074385" lon="-2.798335">
        <ele>1664.8</ele>
        <time>2021-07-03T14:33:29.000Z</time>
      </trkpt>
      <trkpt lat="42.074513" lon="-2.798463">
        <ele>1665.7</ele>
        <time>2021-07-03T14:33:31.000Z</time>
      </trkpt>
      <trkpt lat="42.074633" lon="-2.798570">
        <ele>1664.3</ele>
        <time>2021-07-03T14:33:33.000Z</time>
      </trkpt>
      <trkpt lat="42.074743" lon="-2.798665">
        <ele>1663.9</ele>
        <time>2021-07-03T14:33:35.000Z</time>
      </trkpt>
      <trkpt lat="42.074850" lon="-2.798747">
        <ele>1664.0</ele>
        <time>2021-07-03T14:33:37.000Z</time>
      </trkpt>
      <trkpt lat="42.074947" lon="-2.798827">
        <ele>1663.3</ele>
        <time>2021-07-03T14:33:39.000Z</time>
      </trkpt>
      <trkpt lat="42.075035" lon="-2.798898">
        <ele>1663.9</ele>
        <time>2021-07-03T14:33:41.000Z</time>
      </trkpt>
      <trkpt lat="42.075113" lon="-2.798967">
        <ele>1664.3</ele>
        <time>2021-07-03T14:33:43.000Z</time>
      </trkpt>
      <trkpt lat="42.075198" lon="-2.799058">
        <ele>1665.0</ele>
        <time>2021-07-03T14:33:46.000Z</time>
      </trkpt>
      <trkpt lat="42.075275" lon="-2.799173">
        <ele>1665.6</ele>
        <time>2021-07-03T14:33:50.000Z</time>
      </trkpt>
      <trkpt lat="42.075350" lon="-2.799307">
        <ele>1666.0</ele>
        <time>2021-07-03T14:33:54.000Z</time>
      </trkpt>
      <trkpt lat="42.075413" lon="-2.799440">
        <ele>1666.3</ele>
        <time>2021-07-03T14:33:57.000Z</time>
      </trkpt>
      <trkpt lat="42.075483" lon="-2.799583">
        <ele>1667.1</ele>
        <time>2021-07-03T14:34:00.000Z</time>
      </trkpt>
      <trkpt lat="42.075565" lon="-2.799728">
        <ele>1665.0</ele>
        <time>2021-07-03T14:34:03.000Z</time>
      </trkpt>
      <trkpt lat="42.075642" lon="-2.799800">
        <ele>1664.7</ele>
        <time>2021-07-03T14:34:05.000Z</time>
      </trkpt>
      <trkpt lat="42.075733" lon="-2.799837">
        <ele>1664.8</ele>
        <time>2021-07-03T14:34:07.000Z</time>
      </trkpt>
      <trkpt lat="42.075835" lon="-2.799840">
        <ele>1662.6</ele>
        <time>2021-07-03T14:34:09.000Z</time>
      </trkpt>
      <trkpt lat="42.075943" lon="-2.799830">
        <ele>1662.5</ele>
        <time>2021-07-03T14:34:11.000Z</time>
      </trkpt>
      <trkpt lat="42.076063" lon="-2.799810">
        <ele>1660.2</ele>
        <time>2021-07-03T14:34:13.000Z</time>
      </trkpt>
      <trkpt lat="42.076185" lon="-2.799782">
        <ele>1657.5</ele>
        <time>2021-07-03T14:34:15.000Z</time>
      </trkpt>
      <trkpt lat="42.076307" lon="-2.799748">
        <ele>1655.3</ele>
        <time>2021-07-03T14:34:17.000Z</time>
      </trkpt>
      <trkpt lat="42.076430" lon="-2.799735">
        <ele>1654.5</ele>
        <time>2021-07-03T14:34:19.000Z</time>
      </trkpt>
      <trkpt lat="42.076553" lon="-2.799768">
        <ele>1653.1</ele>
        <time>2021-07-03T14:34:21.000Z</time>
      </trkpt>
      <trkpt lat="42.076670" lon="-2.799848">
        <ele>1652.7</ele>
        <time>2021-07-03T14:34:23.000Z</time>
      </trkpt>
      <trkpt lat="42.076778" lon="-2.799953">
        <ele>1650.6</ele>
        <time>2021-07-03T14:34:25.000Z</time>
      </trkpt>
      <trkpt lat="42.076878" lon="-2.800078">
        <ele>1649.5</ele>
        <time>2021-07-03T14:34:27.000Z</time>
      </trkpt>
      <trkpt lat="42.076982" lon="-2.800208">
        <ele>1649.9</ele>
        <time>2021-07-03T14:34:29.000Z</time>
      </trkpt>
      <trkpt lat="42.077085" lon="-2.800327">
        <ele>1648.2</ele>
        <time>2021-07-03T14:34:31.000Z</time>
      </trkpt>
      <trkpt lat="42.077185" lon="-2.800415">
        <ele>1648.1</ele>
        <time>2021-07-03T14:34:33.000Z</time>
      </trkpt>
      <trkpt lat="42.077280" lon="-2.800480">
        <ele>1649.4</ele>
        <time>2021-07-03T14:34:35.000Z</time>
      </trkpt>
      <trkpt lat="42.077373" lon="-2.800522">
        <ele>1649.3</ele>
        <time>2021-07-03T14:34:37.000Z</time>
      </trkpt>
      <trkpt lat="42.077462" lon="-2.800555">
        <ele>1648.7</ele>
        <time>2021-07-03T14:34:39.000Z</time>
      </trkpt>
      <trkpt lat="42.077582" lon="-2.800573">
        <ele>1649.2</ele>
        <time>2021-07-03T14:34:42.000Z</time>
      </trkpt>
      <trkpt lat="42.077687" lon="-2.800568">
        <ele>1648.8</ele>
        <time>2021-07-03T14:34:45.000Z</time>
      </trkpt>
      <trkpt lat="42.077785" lon="-2.800555">
        <ele>1650.4</ele>
        <time>2021-07-03T14:34:48.000Z</time>
      </trkpt>
      <trkpt lat="42.077897" lon="-2.800545">
        <ele>1648.4</ele>
        <time>2021-07-03T14:34:51.000Z</time>
      </trkpt>
      <trkpt lat="42.078012" lon="-2.800557">
        <ele>1647.7</ele>
        <time>2021-07-03T14:34:54.000Z</time>
      </trkpt>
      <trkpt lat="42.078118" lon="-2.800595">
        <ele>1649.3</ele>
        <time>2021-07-03T14:34:57.000Z</time>
      </trkpt>
      <trkpt lat="42.078202" lon="-2.800648">
        <ele>1648.5</ele>
        <time>2021-07-03T14:35:00.000Z</time>
      </trkpt>
      <trkpt lat="42.078287" lon="-2.800728">
        <ele>1649.1</ele>
        <time>2021-07-03T14:35:04.000Z</time>
      </trkpt>
      <trkpt lat="42.078372" lon="-2.800807">
        <ele>1648.6</ele>
        <time>2021-07-03T14:35:08.000Z</time>
      </trkpt>
      <trkpt lat="42.078382" lon="-2.800813">
        <ele>1648.7</ele>
        <time>2021-07-03T14:35:11.000Z</time>
      </trkpt>
      <trkpt lat="42.078387" lon="-2.800817">
        <ele>1648.4</ele>
        <time>2021-07-03T14:35:50.000Z</time>
      </trkpt>
      <trkpt lat="42.078485" lon="-2.800900">
        <ele>1650.0</ele>
        <time>2021-07-03T14:35:56.000Z</time>
      </trkpt>
      <trkpt lat="42.078563" lon="-2.800975">
        <ele>1649.9</ele>
        <time>2021-07-03T14:35:59.000Z</time>
      </trkpt>
      <trkpt lat="42.078660" lon="-2.801060">
        <ele>1645.8</ele>
        <time>2021-07-03T14:36:02.000Z</time>
      </trkpt>
      <trkpt lat="42.078760" lon="-2.801183">
        <ele>1649.0</ele>
        <time>2021-07-03T14:36:05.000Z</time>
      </trkpt>
      <trkpt lat="42.078830" lon="-2.801285">
        <ele>1648.2</ele>
        <time>2021-07-03T14:36:07.000Z</time>
      </trkpt>
      <trkpt lat="42.078917" lon="-2.801372">
        <ele>1646.9</ele>
        <time>2021-07-03T14:36:09.000Z</time>
      </trkpt>
      <trkpt lat="42.079023" lon="-2.801438">
        <ele>1644.9</ele>
        <time>2021-07-03T14:36:11.000Z</time>
      </trkpt>
      <trkpt lat="42.079137" lon="-2.801482">
        <ele>1645.4</ele>
        <time>2021-07-03T14:36:13.000Z</time>
      </trkpt>
      <trkpt lat="42.079240" lon="-2.801508">
        <ele>1646.8</ele>
        <time>2021-07-03T14:36:15.000Z</time>
      </trkpt>
      <trkpt lat="42.079340" lon="-2.801535">
        <ele>1647.2</ele>
        <time>2021-07-03T14:36:17.000Z</time>
      </trkpt>
      <trkpt lat="42.079440" lon="-2.801565">
        <ele>1644.0</ele>
        <time>2021-07-03T14:36:19.000Z</time>
      </trkpt>
      <trkpt lat="42.079545" lon="-2.801600">
        <ele>1642.4</ele>
        <time>2021-07-03T14:36:21.000Z</time>
      </trkpt>
      <trkpt lat="42.079667" lon="-2.801633">
        <ele>1643.1</ele>
        <time>2021-07-03T14:36:23.000Z</time>
      </trkpt>
      <trkpt lat="42.079813" lon="-2.801668">
        <ele>1639.6</ele>
        <time>2021-07-03T14:36:25.000Z</time>
      </trkpt>
      <trkpt lat="42.079972" lon="-2.801708">
        <ele>1638.0</ele>
        <time>2021-07-03T14:36:27.000Z</time>
      </trkpt>
      <trkpt lat="42.080120" lon="-2.801748">
        <ele>1638.9</ele>
        <time>2021-07-03T14:36:29.000Z</time>
      </trkpt>
      <trkpt lat="42.080258" lon="-2.801772">
        <ele>1639.1</ele>
        <time>2021-07-03T14:36:31.000Z</time>
      </trkpt>
      <trkpt lat="42.080395" lon="-2.801777">
        <ele>1638.1</ele>
        <time>2021-07-03T14:36:33.000Z</time>
      </trkpt>
      <trkpt lat="42.080537" lon="-2.801783">
        <ele>1636.4</ele>
        <time>2021-07-03T14:36:35.000Z</time>
      </trkpt>
      <trkpt lat="42.080687" lon="-2.801802">
        <ele>1634.9</ele>
        <time>2021-07-03T14:36:37.000Z</time>
      </trkpt>
      <trkpt lat="42.080840" lon="-2.801817">
        <ele>1636.2</ele>
        <time>2021-07-03T14:36:39.000Z</time>
      </trkpt>
      <trkpt lat="42.080985" lon="-2.801813">
        <ele>1634.4</ele>
        <time>2021-07-03T14:36:41.000Z</time>
      </trkpt>
      <trkpt lat="42.081127" lon="-2.801787">
        <ele>1631.1</ele>
        <time>2021-07-03T14:36:43.000Z</time>
      </trkpt>
      <trkpt lat="42.081273" lon="-2.801758">
        <ele>1632.9</ele>
        <time>2021-07-03T14:36:45.000Z</time>
      </trkpt>
      <trkpt lat="42.081420" lon="-2.801720">
        <ele>1630.7</ele>
        <time>2021-07-03T14:36:47.000Z</time>
      </trkpt>
      <trkpt lat="42.081558" lon="-2.801657">
        <ele>1628.6</ele>
        <time>2021-07-03T14:36:49.000Z</time>
      </trkpt>
      <trkpt lat="42.081693" lon="-2.801570">
        <ele>1628.2</ele>
        <time>2021-07-03T14:36:51.000Z</time>
      </trkpt>
      <trkpt lat="42.081825" lon="-2.801452">
        <ele>1625.5</ele>
        <time>2021-07-03T14:36:53.000Z</time>
      </trkpt>
      <trkpt lat="42.081963" lon="-2.801313">
        <ele>1624.9</ele>
        <time>2021-07-03T14:36:55.000Z</time>
      </trkpt>
      <trkpt lat="42.082107" lon="-2.801167">
        <ele>1624.5</ele>
        <time>2021-07-03T14:36:57.000Z</time>
      </trkpt>
      <trkpt lat="42.082177" lon="-2.801090">
        <ele>1625.0</ele>
        <time>2021-07-03T14:36:58.000Z</time>
      </trkpt>
      <trkpt lat="42.082313" lon="-2.800955">
        <ele>1625.4</ele>
        <time>2021-07-03T14:37:00.000Z</time>
      </trkpt>
      <trkpt lat="42.082458" lon="-2.800853">
        <ele>1624.9</ele>
        <time>2021-07-03T14:37:02.000Z</time>
      </trkpt>
      <trkpt lat="42.082612" lon="-2.800787">
        <ele>1623.5</ele>
        <time>2021-07-03T14:37:04.000Z</time>
      </trkpt>
      <trkpt lat="42.082760" lon="-2.800758">
        <ele>1624.6</ele>
        <time>2021-07-03T14:37:06.000Z</time>
      </trkpt>
      <trkpt lat="42.082887" lon="-2.800778">
        <ele>1625.4</ele>
        <time>2021-07-03T14:37:08.000Z</time>
      </trkpt>
      <trkpt lat="42.082990" lon="-2.800825">
        <ele>1625.2</ele>
        <time>2021-07-03T14:37:10.000Z</time>
      </trkpt>
      <trkpt lat="42.083078" lon="-2.800877">
        <ele>1624.5</ele>
        <time>2021-07-03T14:37:12.000Z</time>
      </trkpt>
      <trkpt lat="42.083190" lon="-2.800968">
        <ele>1624.9</ele>
        <time>2021-07-03T14:37:15.000Z</time>
      </trkpt>
      <trkpt lat="42.083290" lon="-2.801050">
        <ele>1626.4</ele>
        <time>2021-07-03T14:37:18.000Z</time>
      </trkpt>
      <trkpt lat="42.083380" lon="-2.801115">
        <ele>1626.9</ele>
        <time>2021-07-03T14:37:21.000Z</time>
      </trkpt>
      <trkpt lat="42.083475" lon="-2.801180">
        <ele>1626.7</ele>
        <time>2021-07-03T14:37:25.000Z</time>
      </trkpt>
      <trkpt lat="42.083563" lon="-2.801230">
        <ele>1627.2</ele>
        <time>2021-07-03T14:37:29.000Z</time>
      </trkpt>
      <trkpt lat="42.083663" lon="-2.801278">
        <ele>1628.1</ele>
        <time>2021-07-03T14:37:35.000Z</time>
      </trkpt>
      <trkpt lat="42.083760" lon="-2.801308">
        <ele>1629.4</ele>
        <time>2021-07-03T14:37:41.000Z</time>
      </trkpt>
      <trkpt lat="42.083858" lon="-2.801332">
        <ele>1630.0</ele>
        <time>2021-07-03T14:37:47.000Z</time>
      </trkpt>
      <trkpt lat="42.083953" lon="-2.801360">
        <ele>1631.4</ele>
        <time>2021-07-03T14:37:53.000Z</time>
      </trkpt>
      <trkpt lat="42.084048" lon="-2.801393">
        <ele>1631.8</ele>
        <time>2021-07-03T14:38:00.000Z</time>
      </trkpt>
      <trkpt lat="42.084140" lon="-2.801407">
        <ele>1632.8</ele>
        <time>2021-07-03T14:38:07.000Z</time>
      </trkpt>
      <trkpt lat="42.084230" lon="-2.801415">
        <ele>1633.0</ele>
        <time>2021-07-03T14:38:14.000Z</time>
      </trkpt>
      <trkpt lat="42.084330" lon="-2.801407">
        <ele>1633.7</ele>
        <time>2021-07-03T14:38:22.000Z</time>
      </trkpt>
      <trkpt lat="42.084423" lon="-2.801388">
        <ele>1634.5</ele>
        <time>2021-07-03T14:38:30.000Z</time>
      </trkpt>
      <trkpt lat="42.084433" lon="-2.801393">
        <ele>1634.6</ele>
        <time>2021-07-03T14:38:32.000Z</time>
      </trkpt>
      <trkpt lat="42.084437" lon="-2.801392">
        <ele>1635.2</ele>
        <time>2021-07-03T14:39:15.000Z</time>
      </trkpt>
      <trkpt lat="42.084440" lon="-2.801390">
        <ele>1635.3</ele>
        <time>2021-07-03T14:39:17.000Z</time>
      </trkpt>
      <trkpt lat="42.084447" lon="-2.801390">
        <ele>1634.7</ele>
        <time>2021-07-03T14:39:19.000Z</time>
      </trkpt>
      <trkpt lat="42.084543" lon="-2.801352">
        <ele>1635.6</ele>
        <time>2021-07-03T14:39:25.000Z</time>
      </trkpt>
      <trkpt lat="42.084638" lon="-2.801315">
        <ele>1636.1</ele>
        <time>2021-07-03T14:39:31.000Z</time>
      </trkpt>
      <trkpt lat="42.084733" lon="-2.801272">
        <ele>1636.6</ele>
        <time>2021-07-03T14:39:37.000Z</time>
      </trkpt>
      <trkpt lat="42.084828" lon="-2.801225">
        <ele>1637.6</ele>
        <time>2021-07-03T14:39:43.000Z</time>
      </trkpt>
      <trkpt lat="42.084922" lon="-2.801168">
        <ele>1638.0</ele>
        <time>2021-07-03T14:39:49.000Z</time>
      </trkpt>
      <trkpt lat="42.085012" lon="-2.801117">
        <ele>1639.3</ele>
        <time>2021-07-03T14:39:55.000Z</time>
      </trkpt>
      <trkpt lat="42.085103" lon="-2.801067">
        <ele>1639.7</ele>
        <time>2021-07-03T14:40:01.000Z</time>
      </trkpt>
      <trkpt lat="42.085192" lon="-2.801025">
        <ele>1640.5</ele>
        <time>2021-07-03T14:40:07.000Z</time>
      </trkpt>
      <trkpt lat="42.085275" lon="-2.800977">
        <ele>1642.0</ele>
        <time>2021-07-03T14:40:13.000Z</time>
      </trkpt>
      <trkpt lat="42.085358" lon="-2.800925">
        <ele>1643.0</ele>
        <time>2021-07-03T14:40:19.000Z</time>
      </trkpt>
      <trkpt lat="42.085455" lon="-2.800872">
        <ele>1644.0</ele>
        <time>2021-07-03T14:40:26.000Z</time>
      </trkpt>
      <trkpt lat="42.085543" lon="-2.800822">
        <ele>1644.3</ele>
        <time>2021-07-03T14:40:32.000Z</time>
      </trkpt>
      <trkpt lat="42.085633" lon="-2.800753">
        <ele>1645.3</ele>
        <time>2021-07-03T14:40:39.000Z</time>
      </trkpt>
      <trkpt lat="42.085727" lon="-2.800698">
        <ele>1646.8</ele>
        <time>2021-07-03T14:40:47.000Z</time>
      </trkpt>
      <trkpt lat="42.085757" lon="-2.800685">
        <ele>1647.6</ele>
        <time>2021-07-03T14:40:53.000Z</time>
      </trkpt>
      <trkpt lat="42.085758" lon="-2.800687">
        <ele>1647.9</ele>
        <time>2021-07-03T14:41:08.000Z</time>
      </trkpt>
      <trkpt lat="42.085758" lon="-2.800687">
        <ele>1648.0</ele>
        <time>2021-07-03T14:41:09.000Z</time>
      </trkpt>
      <trkpt lat="42.085762" lon="-2.800683">
        <ele>1647.7</ele>
        <time>2021-07-03T14:41:11.000Z</time>
      </trkpt>
      <trkpt lat="42.085770" lon="-2.800677">
        <ele>1647.7</ele>
        <time>2021-07-03T14:41:14.000Z</time>
      </trkpt>
      <trkpt lat="42.085772" lon="-2.800678">
        <ele>1647.8</ele>
        <time>2021-07-03T14:43:28.000Z</time>
      </trkpt>
      <trkpt lat="42.085772" lon="-2.800678">
        <ele>1647.8</ele>
        <time>2021-07-03T14:43:29.000Z</time>
      </trkpt>
      <trkpt lat="42.085778" lon="-2.800673">
        <ele>1647.5</ele>
        <time>2021-07-03T14:43:59.000Z</time>
      </trkpt>
      <trkpt lat="42.085853" lon="-2.800592">
        <ele>1648.7</ele>
        <time>2021-07-03T14:44:08.000Z</time>
      </trkpt>
      <trkpt lat="42.085845" lon="-2.800570">
        <ele>1649.3</ele>
        <time>2021-07-03T14:44:12.000Z</time>
      </trkpt>
      <trkpt lat="42.085845" lon="-2.800573">
        <ele>1649.3</ele>
        <time>2021-07-03T14:44:13.000Z</time>
      </trkpt>
      <trkpt lat="42.085845" lon="-2.800572">
        <ele>1649.3</ele>
        <time>2021-07-03T14:44:14.000Z</time>
      </trkpt>
      <trkpt lat="42.085843" lon="-2.800572">
        <ele>1648.5</ele>
        <time>2021-07-03T14:44:20.000Z</time>
      </trkpt>
      <trkpt lat="42.085792" lon="-2.800612">
        <ele>1647.4</ele>
        <time>2021-07-03T14:44:30.000Z</time>
      </trkpt>
      <trkpt lat="42.085790" lon="-2.800612">
        <ele>1647.3</ele>
        <time>2021-07-03T14:44:34.000Z</time>
      </trkpt>
      <trkpt lat="42.085790" lon="-2.800612">
        <ele>1647.6</ele>
        <time>2021-07-03T14:44:35.000Z</time>
      </trkpt>
      <trkpt lat="42.085792" lon="-2.800612">
        <ele>1647.5</ele>
        <time>2021-07-03T14:44:45.000Z</time>
      </trkpt>
      <trkpt lat="42.085790" lon="-2.800612">
        <ele>1647.8</ele>
        <time>2021-07-03T14:44:47.000Z</time>
      </trkpt>
      <trkpt lat="42.085795" lon="-2.800617">
        <ele>1647.9</ele>
        <time>2021-07-03T14:48:50.000Z</time>
      </trkpt>
      <trkpt lat="42.085813" lon="-2.800585">
        <ele>1648.2</ele>
        <time>2021-07-03T14:48:56.000Z</time>
      </trkpt>
      <trkpt lat="42.085817" lon="-2.800585">
        <ele>1648.4</ele>
        <time>2021-07-03T14:49:01.000Z</time>
      </trkpt>
      <trkpt lat="42.085817" lon="-2.800585">
        <ele>1648.2</ele>
        <time>2021-07-03T14:49:02.000Z</time>
      </trkpt>
      <trkpt lat="42.085818" lon="-2.800582">
        <ele>1648.3</ele>
        <time>2021-07-03T14:49:06.000Z</time>
      </trkpt>
      <trkpt lat="42.085900" lon="-2.800512">
        <ele>1648.9</ele>
        <time>2021-07-03T14:49:13.000Z</time>
      </trkpt>
      <trkpt lat="42.085983" lon="-2.800425">
        <ele>1649.1</ele>
        <time>2021-07-03T14:49:19.000Z</time>
      </trkpt>
      <trkpt lat="42.086057" lon="-2.800350">
        <ele>1649.4</ele>
        <time>2021-07-03T14:49:24.000Z</time>
      </trkpt>
      <trkpt lat="42.086132" lon="-2.800273">
        <ele>1649.7</ele>
        <time>2021-07-03T14:49:29.000Z</time>
      </trkpt>
      <trkpt lat="42.086202" lon="-2.800188">
        <ele>1650.3</ele>
        <time>2021-07-03T14:49:34.000Z</time>
      </trkpt>
      <trkpt lat="42.086275" lon="-2.800105">
        <ele>1650.6</ele>
        <time>2021-07-03T14:49:39.000Z</time>
      </trkpt>
      <trkpt lat="42.086347" lon="-2.800008">
        <ele>1651.3</ele>
        <time>2021-07-03T14:49:44.000Z</time>
      </trkpt>
      <trkpt lat="42.086422" lon="-2.799900">
        <ele>1651.5</ele>
        <time>2021-07-03T14:49:49.000Z</time>
      </trkpt>
      <trkpt lat="42.086495" lon="-2.799798">
        <ele>1650.5</ele>
        <time>2021-07-03T14:49:53.000Z</time>
      </trkpt>
      <trkpt lat="42.086558" lon="-2.799708">
        <ele>1651.2</ele>
        <time>2021-07-03T14:49:56.000Z</time>
      </trkpt>
      <trkpt lat="42.086615" lon="-2.799573">
        <ele>1651.0</ele>
        <time>2021-07-03T14:50:00.000Z</time>
      </trkpt>
      <trkpt lat="42.086662" lon="-2.799468">
        <ele>1651.7</ele>
        <time>2021-07-03T14:50:03.000Z</time>
      </trkpt>
      <trkpt lat="42.086702" lon="-2.799330">
        <ele>1650.8</ele>
        <time>2021-07-03T14:50:07.000Z</time>
      </trkpt>
      <trkpt lat="42.086738" lon="-2.799197">
        <ele>1651.7</ele>
        <time>2021-07-03T14:50:11.000Z</time>
      </trkpt>
      <trkpt lat="42.086772" lon="-2.799062">
        <ele>1651.9</ele>
        <time>2021-07-03T14:50:15.000Z</time>
      </trkpt>
      <trkpt lat="42.086805" lon="-2.798910">
        <ele>1651.7</ele>
        <time>2021-07-03T14:50:19.000Z</time>
      </trkpt>
      <trkpt lat="42.086828" lon="-2.798783">
        <ele>1651.6</ele>
        <time>2021-07-03T14:50:22.000Z</time>
      </trkpt>
      <trkpt lat="42.086858" lon="-2.798643">
        <ele>1650.6</ele>
        <time>2021-07-03T14:50:25.000Z</time>
      </trkpt>
      <trkpt lat="42.086887" lon="-2.798502">
        <ele>1650.0</ele>
        <time>2021-07-03T14:50:28.000Z</time>
      </trkpt>
      <trkpt lat="42.086915" lon="-2.798358">
        <ele>1651.3</ele>
        <time>2021-07-03T14:50:32.000Z</time>
      </trkpt>
      <trkpt lat="42.086938" lon="-2.798233">
        <ele>1653.4</ele>
        <time>2021-07-03T14:50:37.000Z</time>
      </trkpt>
      <trkpt lat="42.086958" lon="-2.798110">
        <ele>1653.8</ele>
        <time>2021-07-03T14:50:42.000Z</time>
      </trkpt>
      <trkpt lat="42.086990" lon="-2.797992">
        <ele>1654.9</ele>
        <time>2021-07-03T14:50:48.000Z</time>
      </trkpt>
      <trkpt lat="42.087018" lon="-2.797863">
        <ele>1655.2</ele>
        <time>2021-07-03T14:50:54.000Z</time>
      </trkpt>
      <trkpt lat="42.087073" lon="-2.797753">
        <ele>1655.5</ele>
        <time>2021-07-03T14:50:58.000Z</time>
      </trkpt>
      <trkpt lat="42.087137" lon="-2.797640">
        <ele>1653.4</ele>
        <time>2021-07-03T14:51:01.000Z</time>
      </trkpt>
      <trkpt lat="42.087202" lon="-2.797477">
        <ele>1650.6</ele>
        <time>2021-07-03T14:51:04.000Z</time>
      </trkpt>
      <trkpt lat="42.087232" lon="-2.797335">
        <ele>1648.7</ele>
        <time>2021-07-03T14:51:06.000Z</time>
      </trkpt>
      <trkpt lat="42.087263" lon="-2.797193">
        <ele>1647.3</ele>
        <time>2021-07-03T14:51:08.000Z</time>
      </trkpt>
      <trkpt lat="42.087340" lon="-2.797070">
        <ele>1647.1</ele>
        <time>2021-07-03T14:51:10.000Z</time>
      </trkpt>
      <trkpt lat="42.087457" lon="-2.797012">
        <ele>1646.4</ele>
        <time>2021-07-03T14:51:12.000Z</time>
      </trkpt>
      <trkpt lat="42.087588" lon="-2.796975">
        <ele>1645.8</ele>
        <time>2021-07-03T14:51:14.000Z</time>
      </trkpt>
      <trkpt lat="42.087712" lon="-2.796925">
        <ele>1644.9</ele>
        <time>2021-07-03T14:51:16.000Z</time>
      </trkpt>
      <trkpt lat="42.087827" lon="-2.796860">
        <ele>1642.8</ele>
        <time>2021-07-03T14:51:18.000Z</time>
      </trkpt>
      <trkpt lat="42.087937" lon="-2.796787">
        <ele>1641.3</ele>
        <time>2021-07-03T14:51:20.000Z</time>
      </trkpt>
      <trkpt lat="42.088055" lon="-2.796715">
        <ele>1639.7</ele>
        <time>2021-07-03T14:51:22.000Z</time>
      </trkpt>
      <trkpt lat="42.088185" lon="-2.796655">
        <ele>1638.4</ele>
        <time>2021-07-03T14:51:24.000Z</time>
      </trkpt>
      <trkpt lat="42.088327" lon="-2.796623">
        <ele>1636.6</ele>
        <time>2021-07-03T14:51:26.000Z</time>
      </trkpt>
      <trkpt lat="42.088468" lon="-2.796608">
        <ele>1633.4</ele>
        <time>2021-07-03T14:51:28.000Z</time>
      </trkpt>
      <trkpt lat="42.088595" lon="-2.796573">
        <ele>1631.8</ele>
        <time>2021-07-03T14:51:30.000Z</time>
      </trkpt>
      <trkpt lat="42.088703" lon="-2.796495">
        <ele>1631.1</ele>
        <time>2021-07-03T14:51:32.000Z</time>
      </trkpt>
      <trkpt lat="42.088792" lon="-2.796360">
        <ele>1629.6</ele>
        <time>2021-07-03T14:51:34.000Z</time>
      </trkpt>
      <trkpt lat="42.088870" lon="-2.796195">
        <ele>1630.3</ele>
        <time>2021-07-03T14:51:36.000Z</time>
      </trkpt>
      <trkpt lat="42.088948" lon="-2.796030">
        <ele>1629.5</ele>
        <time>2021-07-03T14:51:38.000Z</time>
      </trkpt>
      <trkpt lat="42.089027" lon="-2.795878">
        <ele>1628.9</ele>
        <time>2021-07-03T14:51:40.000Z</time>
      </trkpt>
      <trkpt lat="42.089097" lon="-2.795735">
        <ele>1628.5</ele>
        <time>2021-07-03T14:51:42.000Z</time>
      </trkpt>
      <trkpt lat="42.089160" lon="-2.795605">
        <ele>1629.0</ele>
        <time>2021-07-03T14:51:44.000Z</time>
      </trkpt>
      <trkpt lat="42.089222" lon="-2.795487">
        <ele>1629.0</ele>
        <time>2021-07-03T14:51:46.000Z</time>
      </trkpt>
      <trkpt lat="42.089285" lon="-2.795370">
        <ele>1629.0</ele>
        <time>2021-07-03T14:51:48.000Z</time>
      </trkpt>
      <trkpt lat="42.089353" lon="-2.795257">
        <ele>1629.8</ele>
        <time>2021-07-03T14:51:50.000Z</time>
      </trkpt>
      <trkpt lat="42.089425" lon="-2.795147">
        <ele>1629.6</ele>
        <time>2021-07-03T14:51:52.000Z</time>
      </trkpt>
      <trkpt lat="42.089502" lon="-2.795043">
        <ele>1628.2</ele>
        <time>2021-07-03T14:51:54.000Z</time>
      </trkpt>
      <trkpt lat="42.089578" lon="-2.794955">
        <ele>1628.8</ele>
        <time>2021-07-03T14:51:56.000Z</time>
      </trkpt>
      <trkpt lat="42.089655" lon="-2.794873">
        <ele>1629.8</ele>
        <time>2021-07-03T14:51:58.000Z</time>
      </trkpt>
      <trkpt lat="42.089730" lon="-2.794792">
        <ele>1629.6</ele>
        <time>2021-07-03T14:52:00.000Z</time>
      </trkpt>
      <trkpt lat="42.089795" lon="-2.794703">
        <ele>1629.7</ele>
        <time>2021-07-03T14:52:02.000Z</time>
      </trkpt>
      <trkpt lat="42.089878" lon="-2.794577">
        <ele>1630.0</ele>
        <time>2021-07-03T14:52:05.000Z</time>
      </trkpt>
      <trkpt lat="42.089932" lon="-2.794465">
        <ele>1630.3</ele>
        <time>2021-07-03T14:52:08.000Z</time>
      </trkpt>
      <trkpt lat="42.089985" lon="-2.794357">
        <ele>1630.9</ele>
        <time>2021-07-03T14:52:14.000Z</time>
      </trkpt>
      <trkpt lat="42.090028" lon="-2.794245">
        <ele>1632.7</ele>
        <time>2021-07-03T14:52:21.000Z</time>
      </trkpt>
      <trkpt lat="42.090078" lon="-2.794127">
        <ele>1634.5</ele>
        <time>2021-07-03T14:52:28.000Z</time>
      </trkpt>
      <trkpt lat="42.090140" lon="-2.794015">
        <ele>1635.6</ele>
        <time>2021-07-03T14:52:35.000Z</time>
      </trkpt>
      <trkpt lat="42.090197" lon="-2.793903">
        <ele>1636.6</ele>
        <time>2021-07-03T14:52:42.000Z</time>
      </trkpt>
      <trkpt lat="42.090250" lon="-2.793800">
        <ele>1637.9</ele>
        <time>2021-07-03T14:52:48.000Z</time>
      </trkpt>
      <trkpt lat="42.090295" lon="-2.793688">
        <ele>1638.1</ele>
        <time>2021-07-03T14:52:54.000Z</time>
      </trkpt>
      <trkpt lat="42.090347" lon="-2.793578">
        <ele>1638.5</ele>
        <time>2021-07-03T14:53:00.000Z</time>
      </trkpt>
      <trkpt lat="42.090392" lon="-2.793458">
        <ele>1639.1</ele>
        <time>2021-07-03T14:53:06.000Z</time>
      </trkpt>
      <trkpt lat="42.090435" lon="-2.793325">
        <ele>1639.4</ele>
        <time>2021-07-03T14:53:12.000Z</time>
      </trkpt>
      <trkpt lat="42.090477" lon="-2.793212">
        <ele>1639.4</ele>
        <time>2021-07-03T14:53:17.000Z</time>
      </trkpt>
      <trkpt lat="42.090513" lon="-2.793083">
        <ele>1639.9</ele>
        <time>2021-07-03T14:53:22.000Z</time>
      </trkpt>
      <trkpt lat="42.090558" lon="-2.792957">
        <ele>1639.8</ele>
        <time>2021-07-03T14:53:27.000Z</time>
      </trkpt>
      <trkpt lat="42.090597" lon="-2.792818">
        <ele>1640.4</ele>
        <time>2021-07-03T14:53:32.000Z</time>
      </trkpt>
      <trkpt lat="42.090635" lon="-2.792703">
        <ele>1640.2</ele>
        <time>2021-07-03T14:53:36.000Z</time>
      </trkpt>
      <trkpt lat="42.090672" lon="-2.792588">
        <ele>1640.3</ele>
        <time>2021-07-03T14:53:40.000Z</time>
      </trkpt>
      <trkpt lat="42.090713" lon="-2.792480">
        <ele>1640.9</ele>
        <time>2021-07-03T14:53:44.000Z</time>
      </trkpt>
      <trkpt lat="42.090760" lon="-2.792372">
        <ele>1641.0</ele>
        <time>2021-07-03T14:53:48.000Z</time>
      </trkpt>
      <trkpt lat="42.090822" lon="-2.792245">
        <ele>1641.4</ele>
        <time>2021-07-03T14:53:53.000Z</time>
      </trkpt>
      <trkpt lat="42.090893" lon="-2.792130">
        <ele>1641.9</ele>
        <time>2021-07-03T14:53:58.000Z</time>
      </trkpt>
      <trkpt lat="42.090967" lon="-2.792052">
        <ele>1642.3</ele>
        <time>2021-07-03T14:54:02.000Z</time>
      </trkpt>
      <trkpt lat="42.091052" lon="-2.791985">
        <ele>1642.3</ele>
        <time>2021-07-03T14:54:06.000Z</time>
      </trkpt>
      <trkpt lat="42.091152" lon="-2.791950">
        <ele>1642.8</ele>
        <time>2021-07-03T14:54:10.000Z</time>
      </trkpt>
      <trkpt lat="42.091253" lon="-2.791942">
        <ele>1643.0</ele>
        <time>2021-07-03T14:54:14.000Z</time>
      </trkpt>
      <trkpt lat="42.091373" lon="-2.791938">
        <ele>1643.5</ele>
        <time>2021-07-03T14:54:18.000Z</time>
      </trkpt>
      <trkpt lat="42.091467" lon="-2.791943">
        <ele>1643.3</ele>
        <time>2021-07-03T14:54:21.000Z</time>
      </trkpt>
      <trkpt lat="42.091563" lon="-2.791938">
        <ele>1643.5</ele>
        <time>2021-07-03T14:54:24.000Z</time>
      </trkpt>
      <trkpt lat="42.091657" lon="-2.791927">
        <ele>1643.2</ele>
        <time>2021-07-03T14:54:27.000Z</time>
      </trkpt>
      <trkpt lat="42.091747" lon="-2.791890">
        <ele>1643.0</ele>
        <time>2021-07-03T14:54:30.000Z</time>
      </trkpt>
      <trkpt lat="42.091830" lon="-2.791833">
        <ele>1642.9</ele>
        <time>2021-07-03T14:54:33.000Z</time>
      </trkpt>
      <trkpt lat="42.091912" lon="-2.791765">
        <ele>1643.0</ele>
        <time>2021-07-03T14:54:36.000Z</time>
      </trkpt>
      <trkpt lat="42.091988" lon="-2.791695">
        <ele>1643.2</ele>
        <time>2021-07-03T14:54:39.000Z</time>
      </trkpt>
      <trkpt lat="42.092073" lon="-2.791627">
        <ele>1642.0</ele>
        <time>2021-07-03T14:54:42.000Z</time>
      </trkpt>
      <trkpt lat="42.092185" lon="-2.791552">
        <ele>1641.7</ele>
        <time>2021-07-03T14:54:45.000Z</time>
      </trkpt>
      <trkpt lat="42.092277" lon="-2.791498">
        <ele>1641.6</ele>
        <time>2021-07-03T14:54:47.000Z</time>
      </trkpt>
      <trkpt lat="42.092378" lon="-2.791440">
        <ele>1642.0</ele>
        <time>2021-07-03T14:54:49.000Z</time>
      </trkpt>
      <trkpt lat="42.092493" lon="-2.791373">
        <ele>1642.4</ele>
        <time>2021-07-03T14:54:51.000Z</time>
      </trkpt>
      <trkpt lat="42.092612" lon="-2.791297">
        <ele>1639.2</ele>
        <time>2021-07-03T14:54:53.000Z</time>
      </trkpt>
      <trkpt lat="42.092732" lon="-2.791220">
        <ele>1638.5</ele>
        <time>2021-07-03T14:54:55.000Z</time>
      </trkpt>
      <trkpt lat="42.092857" lon="-2.791142">
        <ele>1636.3</ele>
        <time>2021-07-03T14:54:57.000Z</time>
      </trkpt>
      <trkpt lat="42.092992" lon="-2.791062">
        <ele>1633.0</ele>
        <time>2021-07-03T14:54:59.000Z</time>
      </trkpt>
      <trkpt lat="42.093137" lon="-2.790982">
        <ele>1632.6</ele>
        <time>2021-07-03T14:55:01.000Z</time>
      </trkpt>
      <trkpt lat="42.093292" lon="-2.790905">
        <ele>1630.6</ele>
        <time>2021-07-03T14:55:03.000Z</time>
      </trkpt>
      <trkpt lat="42.093452" lon="-2.790848">
        <ele>1628.9</ele>
        <time>2021-07-03T14:55:05.000Z</time>
      </trkpt>
      <trkpt lat="42.093613" lon="-2.790820">
        <ele>1628.4</ele>
        <time>2021-07-03T14:55:07.000Z</time>
      </trkpt>
      <trkpt lat="42.093785" lon="-2.790827">
        <ele>1627.2</ele>
        <time>2021-07-03T14:55:09.000Z</time>
      </trkpt>
      <trkpt lat="42.093963" lon="-2.790845">
        <ele>1625.0</ele>
        <time>2021-07-03T14:55:11.000Z</time>
      </trkpt>
      <trkpt lat="42.094055" lon="-2.790852">
        <ele>1623.5</ele>
        <time>2021-07-03T14:55:12.000Z</time>
      </trkpt>
      <trkpt lat="42.094227" lon="-2.790868">
        <ele>1622.6</ele>
        <time>2021-07-03T14:55:14.000Z</time>
      </trkpt>
      <trkpt lat="42.094377" lon="-2.790888">
        <ele>1619.0</ele>
        <time>2021-07-03T14:55:16.000Z</time>
      </trkpt>
      <trkpt lat="42.094532" lon="-2.790890">
        <ele>1618.1</ele>
        <time>2021-07-03T14:55:18.000Z</time>
      </trkpt>
      <trkpt lat="42.094697" lon="-2.790850">
        <ele>1617.9</ele>
        <time>2021-07-03T14:55:20.000Z</time>
      </trkpt>
      <trkpt lat="42.094857" lon="-2.790788">
        <ele>1616.0</ele>
        <time>2021-07-03T14:55:22.000Z</time>
      </trkpt>
      <trkpt lat="42.095007" lon="-2.790715">
        <ele>1615.8</ele>
        <time>2021-07-03T14:55:24.000Z</time>
      </trkpt>
      <trkpt lat="42.095155" lon="-2.790638">
        <ele>1613.8</ele>
        <time>2021-07-03T14:55:26.000Z</time>
      </trkpt>
      <trkpt lat="42.095303" lon="-2.790565">
        <ele>1614.1</ele>
        <time>2021-07-03T14:55:28.000Z</time>
      </trkpt>
      <trkpt lat="42.095453" lon="-2.790490">
        <ele>1612.9</ele>
        <time>2021-07-03T14:55:30.000Z</time>
      </trkpt>
      <trkpt lat="42.095597" lon="-2.790422">
        <ele>1612.6</ele>
        <time>2021-07-03T14:55:32.000Z</time>
      </trkpt>
      <trkpt lat="42.095717" lon="-2.790367">
        <ele>1611.9</ele>
        <time>2021-07-03T14:55:34.000Z</time>
      </trkpt>
      <trkpt lat="42.095822" lon="-2.790320">
        <ele>1609.5</ele>
        <time>2021-07-03T14:55:36.000Z</time>
      </trkpt>
      <trkpt lat="42.095913" lon="-2.790268">
        <ele>1609.1</ele>
        <time>2021-07-03T14:55:38.000Z</time>
      </trkpt>
      <trkpt lat="42.096042" lon="-2.790260">
        <ele>1608.0</ele>
        <time>2021-07-03T14:55:41.000Z</time>
      </trkpt>
      <trkpt lat="42.096137" lon="-2.790272">
        <ele>1607.4</ele>
        <time>2021-07-03T14:55:43.000Z</time>
      </trkpt>
      <trkpt lat="42.096262" lon="-2.790283">
        <ele>1606.8</ele>
        <time>2021-07-03T14:55:46.000Z</time>
      </trkpt>
      <trkpt lat="42.096355" lon="-2.790270">
        <ele>1605.0</ele>
        <time>2021-07-03T14:55:49.000Z</time>
      </trkpt>
      <trkpt lat="42.096395" lon="-2.790160">
        <ele>1604.7</ele>
        <time>2021-07-03T14:55:52.000Z</time>
      </trkpt>
      <trkpt lat="42.096357" lon="-2.790030">
        <ele>1604.7</ele>
        <time>2021-07-03T14:55:55.000Z</time>
      </trkpt>
      <trkpt lat="42.096330" lon="-2.789913">
        <ele>1604.1</ele>
        <time>2021-07-03T14:55:58.000Z</time>
      </trkpt>
      <trkpt lat="42.096330" lon="-2.789892">
        <ele>1604.5</ele>
        <time>2021-07-03T14:56:01.000Z</time>
      </trkpt>
      <trkpt lat="42.096333" lon="-2.789892">
        <ele>1604.5</ele>
        <time>2021-07-03T14:58:23.000Z</time>
      </trkpt>
      <trkpt lat="42.096347" lon="-2.790017">
        <ele>1603.7</ele>
        <time>2021-07-03T14:58:30.000Z</time>
      </trkpt>
      <trkpt lat="42.096370" lon="-2.790147">
        <ele>1604.1</ele>
        <time>2021-07-03T14:58:36.000Z</time>
      </trkpt>
      <trkpt lat="42.096385" lon="-2.790277">
        <ele>1604.4</ele>
        <time>2021-07-03T14:58:43.000Z</time>
      </trkpt>
      <trkpt lat="42.096388" lon="-2.790290">
        <ele>1604.2</ele>
        <time>2021-07-03T14:58:46.000Z</time>
      </trkpt>
      <trkpt lat="42.096390" lon="-2.790292">
        <ele>1604.0</ele>
        <time>2021-07-03T14:58:56.000Z</time>
      </trkpt>
      <trkpt lat="42.096413" lon="-2.790413">
        <ele>1603.9</ele>
        <time>2021-07-03T14:59:02.000Z</time>
      </trkpt>
      <trkpt lat="42.096482" lon="-2.790542">
        <ele>1604.1</ele>
        <time>2021-07-03T14:59:06.000Z</time>
      </trkpt>
      <trkpt lat="42.096562" lon="-2.790677">
        <ele>1603.1</ele>
        <time>2021-07-03T14:59:09.000Z</time>
      </trkpt>
      <trkpt lat="42.096635" lon="-2.790773">
        <ele>1602.5</ele>
        <time>2021-07-03T14:59:11.000Z</time>
      </trkpt>
      <trkpt lat="42.096718" lon="-2.790882">
        <ele>1601.9</ele>
        <time>2021-07-03T14:59:13.000Z</time>
      </trkpt>
      <trkpt lat="42.096822" lon="-2.790982">
        <ele>1601.2</ele>
        <time>2021-07-03T14:59:15.000Z</time>
      </trkpt>
      <trkpt lat="42.096938" lon="-2.791072">
        <ele>1600.3</ele>
        <time>2021-07-03T14:59:17.000Z</time>
      </trkpt>
      <trkpt lat="42.097047" lon="-2.791170">
        <ele>1599.7</ele>
        <time>2021-07-03T14:59:19.000Z</time>
      </trkpt>
      <trkpt lat="42.097145" lon="-2.791288">
        <ele>1599.3</ele>
        <time>2021-07-03T14:59:21.000Z</time>
      </trkpt>
      <trkpt lat="42.097240" lon="-2.791420">
        <ele>1598.6</ele>
        <time>2021-07-03T14:59:23.000Z</time>
      </trkpt>
      <trkpt lat="42.097333" lon="-2.791567">
        <ele>1598.1</ele>
        <time>2021-07-03T14:59:25.000Z</time>
      </trkpt>
      <trkpt lat="42.097418" lon="-2.791735">
        <ele>1596.4</ele>
        <time>2021-07-03T14:59:27.000Z</time>
      </trkpt>
      <trkpt lat="42.097493" lon="-2.791920">
        <ele>1595.0</ele>
        <time>2021-07-03T14:59:29.000Z</time>
      </trkpt>
      <trkpt lat="42.097565" lon="-2.792110">
        <ele>1594.0</ele>
        <time>2021-07-03T14:59:31.000Z</time>
      </trkpt>
      <trkpt lat="42.097627" lon="-2.792315">
        <ele>1593.4</ele>
        <time>2021-07-03T14:59:33.000Z</time>
      </trkpt>
      <trkpt lat="42.097685" lon="-2.792532">
        <ele>1592.3</ele>
        <time>2021-07-03T14:59:35.000Z</time>
      </trkpt>
      <trkpt lat="42.097728" lon="-2.792755">
        <ele>1591.1</ele>
        <time>2021-07-03T14:59:37.000Z</time>
      </trkpt>
      <trkpt lat="42.097725" lon="-2.792978">
        <ele>1589.7</ele>
        <time>2021-07-03T14:59:39.000Z</time>
      </trkpt>
      <trkpt lat="42.097668" lon="-2.793197">
        <ele>1587.4</ele>
        <time>2021-07-03T14:59:41.000Z</time>
      </trkpt>
      <trkpt lat="42.097618" lon="-2.793420">
        <ele>1586.8</ele>
        <time>2021-07-03T14:59:43.000Z</time>
      </trkpt>
      <trkpt lat="42.097628" lon="-2.793648">
        <ele>1585.5</ele>
        <time>2021-07-03T14:59:45.000Z</time>
      </trkpt>
      <trkpt lat="42.097708" lon="-2.793865">
        <ele>1583.8</ele>
        <time>2021-07-03T14:59:47.000Z</time>
      </trkpt>
      <trkpt lat="42.097752" lon="-2.793978">
        <ele>1582.8</ele>
        <time>2021-07-03T14:59:48.000Z</time>
      </trkpt>
      <trkpt lat="42.097787" lon="-2.794095">
        <ele>1582.3</ele>
        <time>2021-07-03T14:59:49.000Z</time>
      </trkpt>
      <trkpt lat="42.097812" lon="-2.794217">
        <ele>1581.7</ele>
        <time>2021-07-03T14:59:50.000Z</time>
      </trkpt>
      <trkpt lat="42.097827" lon="-2.794343">
        <ele>1581.2</ele>
        <time>2021-07-03T14:59:51.000Z</time>
      </trkpt>
      <trkpt lat="42.097840" lon="-2.794477">
        <ele>1580.8</ele>
        <time>2021-07-03T14:59:52.000Z</time>
      </trkpt>
      <trkpt lat="42.097858" lon="-2.794610">
        <ele>1580.1</ele>
        <time>2021-07-03T14:59:53.000Z</time>
      </trkpt>
      <trkpt lat="42.097882" lon="-2.794743">
        <ele>1579.9</ele>
        <time>2021-07-03T14:59:54.000Z</time>
      </trkpt>
      <trkpt lat="42.097910" lon="-2.794873">
        <ele>1578.9</ele>
        <time>2021-07-03T14:59:55.000Z</time>
      </trkpt>
      <trkpt lat="42.097940" lon="-2.795002">
        <ele>1577.7</ele>
        <time>2021-07-03T14:59:56.000Z</time>
      </trkpt>
      <trkpt lat="42.097970" lon="-2.795130">
        <ele>1577.3</ele>
        <time>2021-07-03T14:59:57.000Z</time>
      </trkpt>
      <trkpt lat="42.098000" lon="-2.795260">
        <ele>1577.2</ele>
        <time>2021-07-03T14:59:58.000Z</time>
      </trkpt>
      <trkpt lat="42.098028" lon="-2.795390">
        <ele>1575.7</ele>
        <time>2021-07-03T14:59:59.000Z</time>
      </trkpt>
      <trkpt lat="42.098063" lon="-2.795517">
        <ele>1573.7</ele>
        <time>2021-07-03T15:00:00.000Z</time>
      </trkpt>
      <trkpt lat="42.098103" lon="-2.795635">
        <ele>1572.7</ele>
        <time>2021-07-03T15:00:01.000Z</time>
      </trkpt>
      <trkpt lat="42.098153" lon="-2.795745">
        <ele>1572.3</ele>
        <time>2021-07-03T15:00:02.000Z</time>
      </trkpt>
      <trkpt lat="42.098202" lon="-2.795853">
        <ele>1571.6</ele>
        <time>2021-07-03T15:00:03.000Z</time>
      </trkpt>
      <trkpt lat="42.098242" lon="-2.795970">
        <ele>1570.9</ele>
        <time>2021-07-03T15:00:04.000Z</time>
      </trkpt>
      <trkpt lat="42.098275" lon="-2.796093">
        <ele>1570.3</ele>
        <time>2021-07-03T15:00:05.000Z</time>
      </trkpt>
      <trkpt lat="42.098300" lon="-2.796218">
        <ele>1570.0</ele>
        <time>2021-07-03T15:00:06.000Z</time>
      </trkpt>
      <trkpt lat="42.098323" lon="-2.796343">
        <ele>1569.6</ele>
        <time>2021-07-03T15:00:07.000Z</time>
      </trkpt>
      <trkpt lat="42.098352" lon="-2.796463">
        <ele>1568.3</ele>
        <time>2021-07-03T15:00:08.000Z</time>
      </trkpt>
      <trkpt lat="42.098390" lon="-2.796578">
        <ele>1567.1</ele>
        <time>2021-07-03T15:00:09.000Z</time>
      </trkpt>
      <trkpt lat="42.098442" lon="-2.796682">
        <ele>1566.2</ele>
        <time>2021-07-03T15:00:10.000Z</time>
      </trkpt>
      <trkpt lat="42.098502" lon="-2.796775">
        <ele>1565.5</ele>
        <time>2021-07-03T15:00:11.000Z</time>
      </trkpt>
      <trkpt lat="42.098612" lon="-2.796947">
        <ele>1564.0</ele>
        <time>2021-07-03T15:00:13.000Z</time>
      </trkpt>
      <trkpt lat="42.098625" lon="-2.797142">
        <ele>1563.4</ele>
        <time>2021-07-03T15:00:15.000Z</time>
      </trkpt>
      <trkpt lat="42.098567" lon="-2.797335">
        <ele>1562.9</ele>
        <time>2021-07-03T15:00:17.000Z</time>
      </trkpt>
      <trkpt lat="42.098497" lon="-2.797535">
        <ele>1562.0</ele>
        <time>2021-07-03T15:00:19.000Z</time>
      </trkpt>
      <trkpt lat="42.098418" lon="-2.797740">
        <ele>1560.2</ele>
        <time>2021-07-03T15:00:21.000Z</time>
      </trkpt>
      <trkpt lat="42.098357" lon="-2.797963">
        <ele>1559.9</ele>
        <time>2021-07-03T15:00:23.000Z</time>
      </trkpt>
      <trkpt lat="42.098337" lon="-2.798207">
        <ele>1558.0</ele>
        <time>2021-07-03T15:00:25.000Z</time>
      </trkpt>
      <trkpt lat="42.098320" lon="-2.798327">
        <ele>1557.4</ele>
        <time>2021-07-03T15:00:26.000Z</time>
      </trkpt>
      <trkpt lat="42.098293" lon="-2.798443">
        <ele>1556.8</ele>
        <time>2021-07-03T15:00:27.000Z</time>
      </trkpt>
      <trkpt lat="42.098257" lon="-2.798555">
        <ele>1556.4</ele>
        <time>2021-07-03T15:00:28.000Z</time>
      </trkpt>
      <trkpt lat="42.098152" lon="-2.798748">
        <ele>1555.8</ele>
        <time>2021-07-03T15:00:30.000Z</time>
      </trkpt>
      <trkpt lat="42.098012" lon="-2.798898">
        <ele>1554.8</ele>
        <time>2021-07-03T15:00:32.000Z</time>
      </trkpt>
      <trkpt lat="42.097887" lon="-2.799065">
        <ele>1552.0</ele>
        <time>2021-07-03T15:00:34.000Z</time>
      </trkpt>
      <trkpt lat="42.097810" lon="-2.799280">
        <ele>1550.1</ele>
        <time>2021-07-03T15:00:36.000Z</time>
      </trkpt>
      <trkpt lat="42.097803" lon="-2.799525">
        <ele>1548.6</ele>
        <time>2021-07-03T15:00:38.000Z</time>
      </trkpt>
      <trkpt lat="42.097813" lon="-2.799652">
        <ele>1547.9</ele>
        <time>2021-07-03T15:00:39.000Z</time>
      </trkpt>
      <trkpt lat="42.097817" lon="-2.799778">
        <ele>1547.3</ele>
        <time>2021-07-03T15:00:40.000Z</time>
      </trkpt>
      <trkpt lat="42.097817" lon="-2.799907">
        <ele>1547.1</ele>
        <time>2021-07-03T15:00:41.000Z</time>
      </trkpt>
      <trkpt lat="42.097812" lon="-2.800035">
        <ele>1546.4</ele>
        <time>2021-07-03T15:00:42.000Z</time>
      </trkpt>
      <trkpt lat="42.097805" lon="-2.800163">
        <ele>1545.7</ele>
        <time>2021-07-03T15:00:43.000Z</time>
      </trkpt>
      <trkpt lat="42.097798" lon="-2.800292">
        <ele>1544.4</ele>
        <time>2021-07-03T15:00:44.000Z</time>
      </trkpt>
      <trkpt lat="42.097802" lon="-2.800418">
        <ele>1543.9</ele>
        <time>2021-07-03T15:00:45.000Z</time>
      </trkpt>
      <trkpt lat="42.097818" lon="-2.800542">
        <ele>1543.4</ele>
        <time>2021-07-03T15:00:46.000Z</time>
      </trkpt>
      <trkpt lat="42.097847" lon="-2.800660">
        <ele>1543.2</ele>
        <time>2021-07-03T15:00:47.000Z</time>
      </trkpt>
      <trkpt lat="42.097883" lon="-2.800773">
        <ele>1542.2</ele>
        <time>2021-07-03T15:00:48.000Z</time>
      </trkpt>
      <trkpt lat="42.097960" lon="-2.800972">
        <ele>1541.1</ele>
        <time>2021-07-03T15:00:50.000Z</time>
      </trkpt>
      <trkpt lat="42.097983" lon="-2.801138">
        <ele>1540.5</ele>
        <time>2021-07-03T15:00:52.000Z</time>
      </trkpt>
      <trkpt lat="42.097920" lon="-2.801238">
        <ele>1539.8</ele>
        <time>2021-07-03T15:00:54.000Z</time>
      </trkpt>
      <trkpt lat="42.097810" lon="-2.801198">
        <ele>1538.9</ele>
        <time>2021-07-03T15:00:56.000Z</time>
      </trkpt>
      <trkpt lat="42.097762" lon="-2.801027">
        <ele>1537.1</ele>
        <time>2021-07-03T15:00:58.000Z</time>
      </trkpt>
      <trkpt lat="42.097738" lon="-2.800807">
        <ele>1535.8</ele>
        <time>2021-07-03T15:01:00.000Z</time>
      </trkpt>
      <trkpt lat="42.097703" lon="-2.800695">
        <ele>1535.1</ele>
        <time>2021-07-03T15:01:01.000Z</time>
      </trkpt>
      <trkpt lat="42.097652" lon="-2.800588">
        <ele>1534.7</ele>
        <time>2021-07-03T15:01:02.000Z</time>
      </trkpt>
      <trkpt lat="42.097582" lon="-2.800488">
        <ele>1533.9</ele>
        <time>2021-07-03T15:01:03.000Z</time>
      </trkpt>
      <trkpt lat="42.097508" lon="-2.800390">
        <ele>1532.4</ele>
        <time>2021-07-03T15:01:04.000Z</time>
      </trkpt>
      <trkpt lat="42.097437" lon="-2.800285">
        <ele>1531.0</ele>
        <time>2021-07-03T15:01:05.000Z</time>
      </trkpt>
      <trkpt lat="42.097368" lon="-2.800175">
        <ele>1530.6</ele>
        <time>2021-07-03T15:01:06.000Z</time>
      </trkpt>
      <trkpt lat="42.097308" lon="-2.800065">
        <ele>1530.6</ele>
        <time>2021-07-03T15:01:07.000Z</time>
      </trkpt>
      <trkpt lat="42.097230" lon="-2.799862">
        <ele>1529.8</ele>
        <time>2021-07-03T15:01:09.000Z</time>
      </trkpt>
      <trkpt lat="42.097190" lon="-2.799680">
        <ele>1527.7</ele>
        <time>2021-07-03T15:01:11.000Z</time>
      </trkpt>
      <trkpt lat="42.097107" lon="-2.799572">
        <ele>1526.1</ele>
        <time>2021-07-03T15:01:13.000Z</time>
      </trkpt>
      <trkpt lat="42.096995" lon="-2.799607">
        <ele>1524.9</ele>
        <time>2021-07-03T15:01:15.000Z</time>
      </trkpt>
      <trkpt lat="42.096963" lon="-2.799790">
        <ele>1523.1</ele>
        <time>2021-07-03T15:01:17.000Z</time>
      </trkpt>
      <trkpt lat="42.097030" lon="-2.800022">
        <ele>1521.3</ele>
        <time>2021-07-03T15:01:19.000Z</time>
      </trkpt>
      <trkpt lat="42.097072" lon="-2.800143">
        <ele>1520.2</ele>
        <time>2021-07-03T15:01:20.000Z</time>
      </trkpt>
      <trkpt lat="42.097113" lon="-2.800270">
        <ele>1519.5</ele>
        <time>2021-07-03T15:01:21.000Z</time>
      </trkpt>
      <trkpt lat="42.097157" lon="-2.800402">
        <ele>1518.2</ele>
        <time>2021-07-03T15:01:22.000Z</time>
      </trkpt>
      <trkpt lat="42.097208" lon="-2.800535">
        <ele>1517.6</ele>
        <time>2021-07-03T15:01:23.000Z</time>
      </trkpt>
      <trkpt lat="42.097258" lon="-2.800667">
        <ele>1517.1</ele>
        <time>2021-07-03T15:01:24.000Z</time>
      </trkpt>
      <trkpt lat="42.097298" lon="-2.800803">
        <ele>1515.7</ele>
        <time>2021-07-03T15:01:25.000Z</time>
      </trkpt>
      <trkpt lat="42.097322" lon="-2.800945">
        <ele>1514.7</ele>
        <time>2021-07-03T15:01:26.000Z</time>
      </trkpt>
      <trkpt lat="42.097332" lon="-2.801092">
        <ele>1514.1</ele>
        <time>2021-07-03T15:01:27.000Z</time>
      </trkpt>
      <trkpt lat="42.097328" lon="-2.801237">
        <ele>1513.5</ele>
        <time>2021-07-03T15:01:28.000Z</time>
      </trkpt>
      <trkpt lat="42.097315" lon="-2.801380">
        <ele>1512.9</ele>
        <time>2021-07-03T15:01:29.000Z</time>
      </trkpt>
      <trkpt lat="42.097295" lon="-2.801523">
        <ele>1511.4</ele>
        <time>2021-07-03T15:01:30.000Z</time>
      </trkpt>
      <trkpt lat="42.097277" lon="-2.801670">
        <ele>1510.8</ele>
        <time>2021-07-03T15:01:31.000Z</time>
      </trkpt>
      <trkpt lat="42.097262" lon="-2.801818">
        <ele>1510.2</ele>
        <time>2021-07-03T15:01:32.000Z</time>
      </trkpt>
      <trkpt lat="42.097255" lon="-2.801958">
        <ele>1510.0</ele>
        <time>2021-07-03T15:01:33.000Z</time>
      </trkpt>
      <trkpt lat="42.097262" lon="-2.802085">
        <ele>1510.2</ele>
        <time>2021-07-03T15:01:34.000Z</time>
      </trkpt>
      <trkpt lat="42.097307" lon="-2.802303">
        <ele>1508.9</ele>
        <time>2021-07-03T15:01:36.000Z</time>
      </trkpt>
      <trkpt lat="42.097333" lon="-2.802487">
        <ele>1506.3</ele>
        <time>2021-07-03T15:01:38.000Z</time>
      </trkpt>
      <trkpt lat="42.097283" lon="-2.802633">
        <ele>1504.7</ele>
        <time>2021-07-03T15:01:40.000Z</time>
      </trkpt>
      <trkpt lat="42.097167" lon="-2.802647">
        <ele>1503.3</ele>
        <time>2021-07-03T15:01:42.000Z</time>
      </trkpt>
      <trkpt lat="42.097075" lon="-2.802513">
        <ele>1502.0</ele>
        <time>2021-07-03T15:01:44.000Z</time>
      </trkpt>
      <trkpt lat="42.097042" lon="-2.802283">
        <ele>1499.8</ele>
        <time>2021-07-03T15:01:46.000Z</time>
      </trkpt>
      <trkpt lat="42.097028" lon="-2.802157">
        <ele>1499.0</ele>
        <time>2021-07-03T15:01:47.000Z</time>
      </trkpt>
      <trkpt lat="42.097017" lon="-2.802027">
        <ele>1498.4</ele>
        <time>2021-07-03T15:01:48.000Z</time>
      </trkpt>
      <trkpt lat="42.097003" lon="-2.801895">
        <ele>1497.8</ele>
        <time>2021-07-03T15:01:49.000Z</time>
      </trkpt>
      <trkpt lat="42.096988" lon="-2.801762">
        <ele>1497.0</ele>
        <time>2021-07-03T15:01:50.000Z</time>
      </trkpt>
      <trkpt lat="42.096972" lon="-2.801628">
        <ele>1496.6</ele>
        <time>2021-07-03T15:01:51.000Z</time>
      </trkpt>
      <trkpt lat="42.096953" lon="-2.801493">
        <ele>1496.2</ele>
        <time>2021-07-03T15:01:52.000Z</time>
      </trkpt>
      <trkpt lat="42.096927" lon="-2.801360">
        <ele>1496.1</ele>
        <time>2021-07-03T15:01:53.000Z</time>
      </trkpt>
      <trkpt lat="42.096890" lon="-2.801233">
        <ele>1495.4</ele>
        <time>2021-07-03T15:01:54.000Z</time>
      </trkpt>
      <trkpt lat="42.096842" lon="-2.801112">
        <ele>1494.0</ele>
        <time>2021-07-03T15:01:55.000Z</time>
      </trkpt>
      <trkpt lat="42.096777" lon="-2.800998">
        <ele>1492.6</ele>
        <time>2021-07-03T15:01:56.000Z</time>
      </trkpt>
      <trkpt lat="42.096697" lon="-2.800888">
        <ele>1491.9</ele>
        <time>2021-07-03T15:01:57.000Z</time>
      </trkpt>
      <trkpt lat="42.096610" lon="-2.800782">
        <ele>1491.1</ele>
        <time>2021-07-03T15:01:58.000Z</time>
      </trkpt>
      <trkpt lat="42.096518" lon="-2.800682">
        <ele>1490.1</ele>
        <time>2021-07-03T15:01:59.000Z</time>
      </trkpt>
      <trkpt lat="42.096423" lon="-2.800588">
        <ele>1488.3</ele>
        <time>2021-07-03T15:02:00.000Z</time>
      </trkpt>
      <trkpt lat="42.096327" lon="-2.800498">
        <ele>1487.3</ele>
        <time>2021-07-03T15:02:01.000Z</time>
      </trkpt>
      <trkpt lat="42.096238" lon="-2.800413">
        <ele>1486.5</ele>
        <time>2021-07-03T15:02:02.000Z</time>
      </trkpt>
      <trkpt lat="42.096165" lon="-2.800333">
        <ele>1485.7</ele>
        <time>2021-07-03T15:02:03.000Z</time>
      </trkpt>
      <trkpt lat="42.096078" lon="-2.800160">
        <ele>1483.2</ele>
        <time>2021-07-03T15:02:05.000Z</time>
      </trkpt>
      <trkpt lat="42.096052" lon="-2.799973">
        <ele>1481.6</ele>
        <time>2021-07-03T15:02:07.000Z</time>
      </trkpt>
      <trkpt lat="42.095997" lon="-2.799865">
        <ele>1479.8</ele>
        <time>2021-07-03T15:02:09.000Z</time>
      </trkpt>
      <trkpt lat="42.095907" lon="-2.799908">
        <ele>1478.9</ele>
        <time>2021-07-03T15:02:11.000Z</time>
      </trkpt>
      <trkpt lat="42.095888" lon="-2.800097">
        <ele>1477.9</ele>
        <time>2021-07-03T15:02:13.000Z</time>
      </trkpt>
      <trkpt lat="42.095927" lon="-2.800340">
        <ele>1474.7</ele>
        <time>2021-07-03T15:02:15.000Z</time>
      </trkpt>
      <trkpt lat="42.095950" lon="-2.800472">
        <ele>1473.6</ele>
        <time>2021-07-03T15:02:16.000Z</time>
      </trkpt>
      <trkpt lat="42.095983" lon="-2.800608">
        <ele>1472.3</ele>
        <time>2021-07-03T15:02:17.000Z</time>
      </trkpt>
      <trkpt lat="42.096032" lon="-2.800742">
        <ele>1470.8</ele>
        <time>2021-07-03T15:02:18.000Z</time>
      </trkpt>
      <trkpt lat="42.096097" lon="-2.800865">
        <ele>1469.4</ele>
        <time>2021-07-03T15:02:19.000Z</time>
      </trkpt>
      <trkpt lat="42.096170" lon="-2.800973">
        <ele>1468.0</ele>
        <time>2021-07-03T15:02:20.000Z</time>
      </trkpt>
      <trkpt lat="42.096237" lon="-2.801072">
        <ele>1466.8</ele>
        <time>2021-07-03T15:02:21.000Z</time>
      </trkpt>
      <trkpt lat="42.096290" lon="-2.801175">
        <ele>1466.5</ele>
        <time>2021-07-03T15:02:22.000Z</time>
      </trkpt>
      <trkpt lat="42.096345" lon="-2.801398">
        <ele>1465.3</ele>
        <time>2021-07-03T15:02:24.000Z</time>
      </trkpt>
      <trkpt lat="42.096353" lon="-2.801520">
        <ele>1464.8</ele>
        <time>2021-07-03T15:02:25.000Z</time>
      </trkpt>
      <trkpt lat="42.096355" lon="-2.801647">
        <ele>1464.5</ele>
        <time>2021-07-03T15:02:26.000Z</time>
      </trkpt>
      <trkpt lat="42.096352" lon="-2.801777">
        <ele>1464.1</ele>
        <time>2021-07-03T15:02:27.000Z</time>
      </trkpt>
      <trkpt lat="42.096345" lon="-2.801910">
        <ele>1463.4</ele>
        <time>2021-07-03T15:02:28.000Z</time>
      </trkpt>
      <trkpt lat="42.096332" lon="-2.802045">
        <ele>1462.7</ele>
        <time>2021-07-03T15:02:29.000Z</time>
      </trkpt>
      <trkpt lat="42.096315" lon="-2.802182">
        <ele>1461.8</ele>
        <time>2021-07-03T15:02:30.000Z</time>
      </trkpt>
      <trkpt lat="42.096293" lon="-2.802320">
        <ele>1461.3</ele>
        <time>2021-07-03T15:02:31.000Z</time>
      </trkpt>
      <trkpt lat="42.096268" lon="-2.802450">
        <ele>1460.5</ele>
        <time>2021-07-03T15:02:32.000Z</time>
      </trkpt>
      <trkpt lat="42.096237" lon="-2.802573">
        <ele>1459.7</ele>
        <time>2021-07-03T15:02:33.000Z</time>
      </trkpt>
      <trkpt lat="42.096197" lon="-2.802690">
        <ele>1459.1</ele>
        <time>2021-07-03T15:02:34.000Z</time>
      </trkpt>
      <trkpt lat="42.096142" lon="-2.802797">
        <ele>1457.9</ele>
        <time>2021-07-03T15:02:35.000Z</time>
      </trkpt>
      <trkpt lat="42.096073" lon="-2.802892">
        <ele>1457.4</ele>
        <time>2021-07-03T15:02:36.000Z</time>
      </trkpt>
      <trkpt lat="42.095998" lon="-2.802982">
        <ele>1457.0</ele>
        <time>2021-07-03T15:02:37.000Z</time>
      </trkpt>
      <trkpt lat="42.095932" lon="-2.803077">
        <ele>1456.7</ele>
        <time>2021-07-03T15:02:38.000Z</time>
      </trkpt>
      <trkpt lat="42.095878" lon="-2.803183">
        <ele>1455.8</ele>
        <time>2021-07-03T15:02:39.000Z</time>
      </trkpt>
      <trkpt lat="42.095845" lon="-2.803307">
        <ele>1454.7</ele>
        <time>2021-07-03T15:02:40.000Z</time>
      </trkpt>
      <trkpt lat="42.095828" lon="-2.803442">
        <ele>1454.0</ele>
        <time>2021-07-03T15:02:41.000Z</time>
      </trkpt>
      <trkpt lat="42.095827" lon="-2.803582">
        <ele>1453.2</ele>
        <time>2021-07-03T15:02:42.000Z</time>
      </trkpt>
      <trkpt lat="42.095830" lon="-2.803723">
        <ele>1452.3</ele>
        <time>2021-07-03T15:02:43.000Z</time>
      </trkpt>
      <trkpt lat="42.095837" lon="-2.803867">
        <ele>1451.4</ele>
        <time>2021-07-03T15:02:44.000Z</time>
      </trkpt>
      <trkpt lat="42.095843" lon="-2.804012">
        <ele>1450.9</ele>
        <time>2021-07-03T15:02:45.000Z</time>
      </trkpt>
      <trkpt lat="42.095855" lon="-2.804158">
        <ele>1450.6</ele>
        <time>2021-07-03T15:02:46.000Z</time>
      </trkpt>
      <trkpt lat="42.095868" lon="-2.804305">
        <ele>1449.9</ele>
        <time>2021-07-03T15:02:47.000Z</time>
      </trkpt>
      <trkpt lat="42.095887" lon="-2.804445">
        <ele>1449.3</ele>
        <time>2021-07-03T15:02:48.000Z</time>
      </trkpt>
      <trkpt lat="42.095908" lon="-2.804573">
        <ele>1448.1</ele>
        <time>2021-07-03T15:02:49.000Z</time>
      </trkpt>
      <trkpt lat="42.095927" lon="-2.804693">
        <ele>1446.5</ele>
        <time>2021-07-03T15:02:50.000Z</time>
      </trkpt>
      <trkpt lat="42.095945" lon="-2.804813">
        <ele>1445.7</ele>
        <time>2021-07-03T15:02:51.000Z</time>
      </trkpt>
      <trkpt lat="42.095960" lon="-2.804933">
        <ele>1444.3</ele>
        <time>2021-07-03T15:02:52.000Z</time>
      </trkpt>
      <trkpt lat="42.095985" lon="-2.805170">
        <ele>1442.0</ele>
        <time>2021-07-03T15:02:54.000Z</time>
      </trkpt>
      <trkpt lat="42.095990" lon="-2.805293">
        <ele>1441.5</ele>
        <time>2021-07-03T15:02:55.000Z</time>
      </trkpt>
      <trkpt lat="42.095988" lon="-2.805418">
        <ele>1440.7</ele>
        <time>2021-07-03T15:02:56.000Z</time>
      </trkpt>
      <trkpt lat="42.095962" lon="-2.805648">
        <ele>1437.8</ele>
        <time>2021-07-03T15:02:58.000Z</time>
      </trkpt>
      <trkpt lat="42.095888" lon="-2.805830">
        <ele>1435.0</ele>
        <time>2021-07-03T15:03:00.000Z</time>
      </trkpt>
      <trkpt lat="42.095757" lon="-2.805925">
        <ele>1433.8</ele>
        <time>2021-07-03T15:03:02.000Z</time>
      </trkpt>
      <trkpt lat="42.095592" lon="-2.805927">
        <ele>1433.0</ele>
        <time>2021-07-03T15:03:04.000Z</time>
      </trkpt>
      <trkpt lat="42.095427" lon="-2.805855">
        <ele>1430.8</ele>
        <time>2021-07-03T15:03:06.000Z</time>
      </trkpt>
      <trkpt lat="42.095295" lon="-2.805703">
        <ele>1429.1</ele>
        <time>2021-07-03T15:03:08.000Z</time>
      </trkpt>
      <trkpt lat="42.095245" lon="-2.805602">
        <ele>1428.4</ele>
        <time>2021-07-03T15:03:09.000Z</time>
      </trkpt>
      <trkpt lat="42.095202" lon="-2.805485">
        <ele>1427.5</ele>
        <time>2021-07-03T15:03:10.000Z</time>
      </trkpt>
      <trkpt lat="42.095170" lon="-2.805357">
        <ele>1427.1</ele>
        <time>2021-07-03T15:03:11.000Z</time>
      </trkpt>
      <trkpt lat="42.095148" lon="-2.805223">
        <ele>1426.7</ele>
        <time>2021-07-03T15:03:12.000Z</time>
      </trkpt>
      <trkpt lat="42.095132" lon="-2.805085">
        <ele>1426.4</ele>
        <time>2021-07-03T15:03:13.000Z</time>
      </trkpt>
      <trkpt lat="42.095117" lon="-2.804950">
        <ele>1425.8</ele>
        <time>2021-07-03T15:03:14.000Z</time>
      </trkpt>
      <trkpt lat="42.095100" lon="-2.804818">
        <ele>1425.3</ele>
        <time>2021-07-03T15:03:15.000Z</time>
      </trkpt>
      <trkpt lat="42.095080" lon="-2.804690">
        <ele>1424.7</ele>
        <time>2021-07-03T15:03:16.000Z</time>
      </trkpt>
      <trkpt lat="42.095058" lon="-2.804560">
        <ele>1424.6</ele>
        <time>2021-07-03T15:03:17.000Z</time>
      </trkpt>
      <trkpt lat="42.095028" lon="-2.804425">
        <ele>1423.8</ele>
        <time>2021-07-03T15:03:18.000Z</time>
      </trkpt>
      <trkpt lat="42.094993" lon="-2.804280">
        <ele>1422.6</ele>
        <time>2021-07-03T15:03:19.000Z</time>
      </trkpt>
      <trkpt lat="42.094955" lon="-2.804130">
        <ele>1421.2</ele>
        <time>2021-07-03T15:03:20.000Z</time>
      </trkpt>
      <trkpt lat="42.094915" lon="-2.803980">
        <ele>1420.3</ele>
        <time>2021-07-03T15:03:21.000Z</time>
      </trkpt>
      <trkpt lat="42.094875" lon="-2.803827">
        <ele>1419.4</ele>
        <time>2021-07-03T15:03:22.000Z</time>
      </trkpt>
      <trkpt lat="42.094837" lon="-2.803667">
        <ele>1418.5</ele>
        <time>2021-07-03T15:03:23.000Z</time>
      </trkpt>
      <trkpt lat="42.094805" lon="-2.803503">
        <ele>1417.8</ele>
        <time>2021-07-03T15:03:24.000Z</time>
      </trkpt>
      <trkpt lat="42.094783" lon="-2.803342">
        <ele>1416.3</ele>
        <time>2021-07-03T15:03:25.000Z</time>
      </trkpt>
      <trkpt lat="42.094767" lon="-2.803185">
        <ele>1415.2</ele>
        <time>2021-07-03T15:03:26.000Z</time>
      </trkpt>
      <trkpt lat="42.094760" lon="-2.803035">
        <ele>1414.8</ele>
        <time>2021-07-03T15:03:27.000Z</time>
      </trkpt>
      <trkpt lat="42.094758" lon="-2.802895">
        <ele>1414.8</ele>
        <time>2021-07-03T15:03:28.000Z</time>
      </trkpt>
      <trkpt lat="42.094772" lon="-2.802770">
        <ele>1414.6</ele>
        <time>2021-07-03T15:03:29.000Z</time>
      </trkpt>
      <trkpt lat="42.094858" lon="-2.802562">
        <ele>1413.4</ele>
        <time>2021-07-03T15:03:31.000Z</time>
      </trkpt>
      <trkpt lat="42.094983" lon="-2.802407">
        <ele>1413.0</ele>
        <time>2021-07-03T15:03:33.000Z</time>
      </trkpt>
      <trkpt lat="42.095098" lon="-2.802263">
        <ele>1412.3</ele>
        <time>2021-07-03T15:03:35.000Z</time>
      </trkpt>
      <trkpt lat="42.095087" lon="-2.802115">
        <ele>1411.6</ele>
        <time>2021-07-03T15:03:37.000Z</time>
      </trkpt>
      <trkpt lat="42.094965" lon="-2.801982">
        <ele>1411.0</ele>
        <time>2021-07-03T15:03:39.000Z</time>
      </trkpt>
      <trkpt lat="42.094830" lon="-2.801827">
        <ele>1409.9</ele>
        <time>2021-07-03T15:03:41.000Z</time>
      </trkpt>
      <trkpt lat="42.094778" lon="-2.801723">
        <ele>1409.1</ele>
        <time>2021-07-03T15:03:42.000Z</time>
      </trkpt>
      <trkpt lat="42.094745" lon="-2.801607">
        <ele>1408.1</ele>
        <time>2021-07-03T15:03:43.000Z</time>
      </trkpt>
      <trkpt lat="42.094725" lon="-2.801487">
        <ele>1407.5</ele>
        <time>2021-07-03T15:03:44.000Z</time>
      </trkpt>
      <trkpt lat="42.094710" lon="-2.801360">
        <ele>1406.6</ele>
        <time>2021-07-03T15:03:45.000Z</time>
      </trkpt>
      <trkpt lat="42.094700" lon="-2.801225">
        <ele>1406.1</ele>
        <time>2021-07-03T15:03:46.000Z</time>
      </trkpt>
      <trkpt lat="42.094697" lon="-2.801085">
        <ele>1405.7</ele>
        <time>2021-07-03T15:03:47.000Z</time>
      </trkpt>
      <trkpt lat="42.094702" lon="-2.800942">
        <ele>1405.1</ele>
        <time>2021-07-03T15:03:48.000Z</time>
      </trkpt>
      <trkpt lat="42.094710" lon="-2.800795">
        <ele>1404.5</ele>
        <time>2021-07-03T15:03:49.000Z</time>
      </trkpt>
      <trkpt lat="42.094713" lon="-2.800650">
        <ele>1403.7</ele>
        <time>2021-07-03T15:03:50.000Z</time>
      </trkpt>
      <trkpt lat="42.094707" lon="-2.800505">
        <ele>1403.3</ele>
        <time>2021-07-03T15:03:51.000Z</time>
      </trkpt>
      <trkpt lat="42.094695" lon="-2.800365">
        <ele>1402.2</ele>
        <time>2021-07-03T15:03:52.000Z</time>
      </trkpt>
      <trkpt lat="42.094677" lon="-2.800237">
        <ele>1402.2</ele>
        <time>2021-07-03T15:03:53.000Z</time>
      </trkpt>
      <trkpt lat="42.094637" lon="-2.800030">
        <ele>1401.5</ele>
        <time>2021-07-03T15:03:55.000Z</time>
      </trkpt>
      <trkpt lat="42.094565" lon="-2.799915">
        <ele>1400.5</ele>
        <time>2021-07-03T15:03:57.000Z</time>
      </trkpt>
      <trkpt lat="42.094473" lon="-2.800022">
        <ele>1399.6</ele>
        <time>2021-07-03T15:04:00.000Z</time>
      </trkpt>
      <trkpt lat="42.094492" lon="-2.800198">
        <ele>1398.7</ele>
        <time>2021-07-03T15:04:02.000Z</time>
      </trkpt>
      <trkpt lat="42.094530" lon="-2.800395">
        <ele>1397.8</ele>
        <time>2021-07-03T15:04:04.000Z</time>
      </trkpt>
      <trkpt lat="42.094540" lon="-2.800620">
        <ele>1396.0</ele>
        <time>2021-07-03T15:04:06.000Z</time>
      </trkpt>
      <trkpt lat="42.094525" lon="-2.800742">
        <ele>1395.4</ele>
        <time>2021-07-03T15:04:07.000Z</time>
      </trkpt>
      <trkpt lat="42.094502" lon="-2.800872">
        <ele>1394.7</ele>
        <time>2021-07-03T15:04:08.000Z</time>
      </trkpt>
      <trkpt lat="42.094478" lon="-2.801007">
        <ele>1393.9</ele>
        <time>2021-07-03T15:04:09.000Z</time>
      </trkpt>
      <trkpt lat="42.094450" lon="-2.801147">
        <ele>1393.3</ele>
        <time>2021-07-03T15:04:10.000Z</time>
      </trkpt>
      <trkpt lat="42.094427" lon="-2.801290">
        <ele>1392.4</ele>
        <time>2021-07-03T15:04:11.000Z</time>
      </trkpt>
      <trkpt lat="42.094405" lon="-2.801437">
        <ele>1390.9</ele>
        <time>2021-07-03T15:04:12.000Z</time>
      </trkpt>
      <trkpt lat="42.094392" lon="-2.801587">
        <ele>1389.6</ele>
        <time>2021-07-03T15:04:13.000Z</time>
      </trkpt>
      <trkpt lat="42.094383" lon="-2.801738">
        <ele>1388.6</ele>
        <time>2021-07-03T15:04:14.000Z</time>
      </trkpt>
      <trkpt lat="42.094372" lon="-2.801890">
        <ele>1387.2</ele>
        <time>2021-07-03T15:04:15.000Z</time>
      </trkpt>
      <trkpt lat="42.094357" lon="-2.802043">
        <ele>1386.2</ele>
        <time>2021-07-03T15:04:16.000Z</time>
      </trkpt>
      <trkpt lat="42.094333" lon="-2.802195">
        <ele>1385.7</ele>
        <time>2021-07-03T15:04:17.000Z</time>
      </trkpt>
      <trkpt lat="42.094303" lon="-2.802343">
        <ele>1384.7</ele>
        <time>2021-07-03T15:04:18.000Z</time>
      </trkpt>
      <trkpt lat="42.094268" lon="-2.802495">
        <ele>1383.6</ele>
        <time>2021-07-03T15:04:19.000Z</time>
      </trkpt>
      <trkpt lat="42.094233" lon="-2.802647">
        <ele>1382.2</ele>
        <time>2021-07-03T15:04:20.000Z</time>
      </trkpt>
      <trkpt lat="42.094195" lon="-2.802800">
        <ele>1381.6</ele>
        <time>2021-07-03T15:04:21.000Z</time>
      </trkpt>
      <trkpt lat="42.094157" lon="-2.802952">
        <ele>1381.6</ele>
        <time>2021-07-03T15:04:22.000Z</time>
      </trkpt>
      <trkpt lat="42.094122" lon="-2.803098">
        <ele>1381.3</ele>
        <time>2021-07-03T15:04:23.000Z</time>
      </trkpt>
      <trkpt lat="42.094090" lon="-2.803240">
        <ele>1380.2</ele>
        <time>2021-07-03T15:04:24.000Z</time>
      </trkpt>
      <trkpt lat="42.094057" lon="-2.803377">
        <ele>1378.6</ele>
        <time>2021-07-03T15:04:25.000Z</time>
      </trkpt>
      <trkpt lat="42.094020" lon="-2.803510">
        <ele>1377.6</ele>
        <time>2021-07-03T15:04:26.000Z</time>
      </trkpt>
      <trkpt lat="42.093982" lon="-2.803643">
        <ele>1376.7</ele>
        <time>2021-07-03T15:04:27.000Z</time>
      </trkpt>
      <trkpt lat="42.093945" lon="-2.803783">
        <ele>1376.1</ele>
        <time>2021-07-03T15:04:28.000Z</time>
      </trkpt>
      <trkpt lat="42.093913" lon="-2.803930">
        <ele>1375.4</ele>
        <time>2021-07-03T15:04:29.000Z</time>
      </trkpt>
      <trkpt lat="42.093885" lon="-2.804083">
        <ele>1374.3</ele>
        <time>2021-07-03T15:04:30.000Z</time>
      </trkpt>
      <trkpt lat="42.093860" lon="-2.804240">
        <ele>1373.6</ele>
        <time>2021-07-03T15:04:31.000Z</time>
      </trkpt>
      <trkpt lat="42.093837" lon="-2.804398">
        <ele>1372.6</ele>
        <time>2021-07-03T15:04:32.000Z</time>
      </trkpt>
      <trkpt lat="42.093817" lon="-2.804560">
        <ele>1371.5</ele>
        <time>2021-07-03T15:04:33.000Z</time>
      </trkpt>
      <trkpt lat="42.093797" lon="-2.804722">
        <ele>1370.4</ele>
        <time>2021-07-03T15:04:34.000Z</time>
      </trkpt>
      <trkpt lat="42.093773" lon="-2.804885">
        <ele>1369.5</ele>
        <time>2021-07-03T15:04:35.000Z</time>
      </trkpt>
      <trkpt lat="42.093755" lon="-2.805048">
        <ele>1369.2</ele>
        <time>2021-07-03T15:04:36.000Z</time>
      </trkpt>
      <trkpt lat="42.093738" lon="-2.805212">
        <ele>1368.6</ele>
        <time>2021-07-03T15:04:37.000Z</time>
      </trkpt>
      <trkpt lat="42.093723" lon="-2.805368">
        <ele>1368.0</ele>
        <time>2021-07-03T15:04:38.000Z</time>
      </trkpt>
      <trkpt lat="42.093708" lon="-2.805513">
        <ele>1366.9</ele>
        <time>2021-07-03T15:04:39.000Z</time>
      </trkpt>
      <trkpt lat="42.093700" lon="-2.805650">
        <ele>1364.6</ele>
        <time>2021-07-03T15:04:40.000Z</time>
      </trkpt>
      <trkpt lat="42.093702" lon="-2.805787">
        <ele>1363.4</ele>
        <time>2021-07-03T15:04:41.000Z</time>
      </trkpt>
      <trkpt lat="42.093718" lon="-2.805920">
        <ele>1362.6</ele>
        <time>2021-07-03T15:04:42.000Z</time>
      </trkpt>
      <trkpt lat="42.093752" lon="-2.806050">
        <ele>1362.1</ele>
        <time>2021-07-03T15:04:43.000Z</time>
      </trkpt>
      <trkpt lat="42.093808" lon="-2.806168">
        <ele>1361.4</ele>
        <time>2021-07-03T15:04:44.000Z</time>
      </trkpt>
      <trkpt lat="42.093878" lon="-2.806283">
        <ele>1360.3</ele>
        <time>2021-07-03T15:04:45.000Z</time>
      </trkpt>
      <trkpt lat="42.093952" lon="-2.806398">
        <ele>1359.6</ele>
        <time>2021-07-03T15:04:46.000Z</time>
      </trkpt>
      <trkpt lat="42.094028" lon="-2.806515">
        <ele>1358.9</ele>
        <time>2021-07-03T15:04:47.000Z</time>
      </trkpt>
      <trkpt lat="42.094107" lon="-2.806633">
        <ele>1358.4</ele>
        <time>2021-07-03T15:04:48.000Z</time>
      </trkpt>
      <trkpt lat="42.094187" lon="-2.806753">
        <ele>1357.7</ele>
        <time>2021-07-03T15:04:49.000Z</time>
      </trkpt>
      <trkpt lat="42.094267" lon="-2.806878">
        <ele>1356.8</ele>
        <time>2021-07-03T15:04:50.000Z</time>
      </trkpt>
      <trkpt lat="42.094348" lon="-2.807002">
        <ele>1356.3</ele>
        <time>2021-07-03T15:04:51.000Z</time>
      </trkpt>
      <trkpt lat="42.094427" lon="-2.807125">
        <ele>1355.2</ele>
        <time>2021-07-03T15:04:52.000Z</time>
      </trkpt>
      <trkpt lat="42.094503" lon="-2.807248">
        <ele>1354.1</ele>
        <time>2021-07-03T15:04:53.000Z</time>
      </trkpt>
      <trkpt lat="42.094578" lon="-2.807368">
        <ele>1353.6</ele>
        <time>2021-07-03T15:04:54.000Z</time>
      </trkpt>
      <trkpt lat="42.094650" lon="-2.807485">
        <ele>1352.6</ele>
        <time>2021-07-03T15:04:55.000Z</time>
      </trkpt>
      <trkpt lat="42.094722" lon="-2.807607">
        <ele>1351.1</ele>
        <time>2021-07-03T15:04:56.000Z</time>
      </trkpt>
      <trkpt lat="42.094787" lon="-2.807730">
        <ele>1349.9</ele>
        <time>2021-07-03T15:04:57.000Z</time>
      </trkpt>
      <trkpt lat="42.094845" lon="-2.807858">
        <ele>1348.4</ele>
        <time>2021-07-03T15:04:58.000Z</time>
      </trkpt>
      <trkpt lat="42.094890" lon="-2.807992">
        <ele>1347.7</ele>
        <time>2021-07-03T15:04:59.000Z</time>
      </trkpt>
      <trkpt lat="42.094920" lon="-2.808135">
        <ele>1346.3</ele>
        <time>2021-07-03T15:05:00.000Z</time>
      </trkpt>
      <trkpt lat="42.094938" lon="-2.808287">
        <ele>1345.6</ele>
        <time>2021-07-03T15:05:01.000Z</time>
      </trkpt>
      <trkpt lat="42.094943" lon="-2.808443">
        <ele>1344.6</ele>
        <time>2021-07-03T15:05:02.000Z</time>
      </trkpt>
      <trkpt lat="42.094942" lon="-2.808605">
        <ele>1343.4</ele>
        <time>2021-07-03T15:05:03.000Z</time>
      </trkpt>
      <trkpt lat="42.094932" lon="-2.808770">
        <ele>1342.2</ele>
        <time>2021-07-03T15:05:04.000Z</time>
      </trkpt>
      <trkpt lat="42.094917" lon="-2.808937">
        <ele>1340.9</ele>
        <time>2021-07-03T15:05:05.000Z</time>
      </trkpt>
      <trkpt lat="42.094908" lon="-2.809102">
        <ele>1340.2</ele>
        <time>2021-07-03T15:05:06.000Z</time>
      </trkpt>
      <trkpt lat="42.094910" lon="-2.809267">
        <ele>1339.4</ele>
        <time>2021-07-03T15:05:07.000Z</time>
      </trkpt>
      <trkpt lat="42.094927" lon="-2.809428">
        <ele>1338.3</ele>
        <time>2021-07-03T15:05:08.000Z</time>
      </trkpt>
      <trkpt lat="42.094957" lon="-2.809585">
        <ele>1337.9</ele>
        <time>2021-07-03T15:05:09.000Z</time>
      </trkpt>
      <trkpt lat="42.095003" lon="-2.809733">
        <ele>1337.2</ele>
        <time>2021-07-03T15:05:10.000Z</time>
      </trkpt>
      <trkpt lat="42.095065" lon="-2.809863">
        <ele>1336.6</ele>
        <time>2021-07-03T15:05:11.000Z</time>
      </trkpt>
      <trkpt lat="42.095137" lon="-2.809980">
        <ele>1335.4</ele>
        <time>2021-07-03T15:05:12.000Z</time>
      </trkpt>
      <trkpt lat="42.095212" lon="-2.810093">
        <ele>1334.6</ele>
        <time>2021-07-03T15:05:13.000Z</time>
      </trkpt>
      <trkpt lat="42.095287" lon="-2.810203">
        <ele>1334.1</ele>
        <time>2021-07-03T15:05:14.000Z</time>
      </trkpt>
      <trkpt lat="42.095365" lon="-2.810312">
        <ele>1333.5</ele>
        <time>2021-07-03T15:05:15.000Z</time>
      </trkpt>
      <trkpt lat="42.095445" lon="-2.810413">
        <ele>1333.1</ele>
        <time>2021-07-03T15:05:16.000Z</time>
      </trkpt>
      <trkpt lat="42.095525" lon="-2.810517">
        <ele>1332.5</ele>
        <time>2021-07-03T15:05:17.000Z</time>
      </trkpt>
      <trkpt lat="42.095598" lon="-2.810625">
        <ele>1332.1</ele>
        <time>2021-07-03T15:05:18.000Z</time>
      </trkpt>
      <trkpt lat="42.095658" lon="-2.810740">
        <ele>1331.4</ele>
        <time>2021-07-03T15:05:19.000Z</time>
      </trkpt>
      <trkpt lat="42.095705" lon="-2.810865">
        <ele>1331.0</ele>
        <time>2021-07-03T15:05:20.000Z</time>
      </trkpt>
      <trkpt lat="42.095742" lon="-2.810995">
        <ele>1330.7</ele>
        <time>2021-07-03T15:05:21.000Z</time>
      </trkpt>
      <trkpt lat="42.095782" lon="-2.811123">
        <ele>1330.6</ele>
        <time>2021-07-03T15:05:22.000Z</time>
      </trkpt>
      <trkpt lat="42.095825" lon="-2.811250">
        <ele>1330.0</ele>
        <time>2021-07-03T15:05:23.000Z</time>
      </trkpt>
      <trkpt lat="42.095875" lon="-2.811375">
        <ele>1329.4</ele>
        <time>2021-07-03T15:05:24.000Z</time>
      </trkpt>
      <trkpt lat="42.095927" lon="-2.811500">
        <ele>1328.5</ele>
        <time>2021-07-03T15:05:25.000Z</time>
      </trkpt>
      <trkpt lat="42.095978" lon="-2.811627">
        <ele>1328.1</ele>
        <time>2021-07-03T15:05:26.000Z</time>
      </trkpt>
      <trkpt lat="42.096032" lon="-2.811755">
        <ele>1327.4</ele>
        <time>2021-07-03T15:05:27.000Z</time>
      </trkpt>
      <trkpt lat="42.096087" lon="-2.811887">
        <ele>1326.7</ele>
        <time>2021-07-03T15:05:28.000Z</time>
      </trkpt>
      <trkpt lat="42.096140" lon="-2.812022">
        <ele>1325.9</ele>
        <time>2021-07-03T15:05:29.000Z</time>
      </trkpt>
      <trkpt lat="42.096192" lon="-2.812162">
        <ele>1324.6</ele>
        <time>2021-07-03T15:05:30.000Z</time>
      </trkpt>
      <trkpt lat="42.096235" lon="-2.812310">
        <ele>1323.9</ele>
        <time>2021-07-03T15:05:31.000Z</time>
      </trkpt>
      <trkpt lat="42.096273" lon="-2.812463">
        <ele>1323.1</ele>
        <time>2021-07-03T15:05:32.000Z</time>
      </trkpt>
      <trkpt lat="42.096312" lon="-2.812617">
        <ele>1322.4</ele>
        <time>2021-07-03T15:05:33.000Z</time>
      </trkpt>
      <trkpt lat="42.096357" lon="-2.812773">
        <ele>1321.5</ele>
        <time>2021-07-03T15:05:34.000Z</time>
      </trkpt>
      <trkpt lat="42.096407" lon="-2.812928">
        <ele>1320.0</ele>
        <time>2021-07-03T15:05:35.000Z</time>
      </trkpt>
      <trkpt lat="42.096462" lon="-2.813080">
        <ele>1319.3</ele>
        <time>2021-07-03T15:05:36.000Z</time>
      </trkpt>
      <trkpt lat="42.096523" lon="-2.813232">
        <ele>1318.8</ele>
        <time>2021-07-03T15:05:37.000Z</time>
      </trkpt>
      <trkpt lat="42.096582" lon="-2.813385">
        <ele>1317.5</ele>
        <time>2021-07-03T15:05:38.000Z</time>
      </trkpt>
      <trkpt lat="42.096632" lon="-2.813540">
        <ele>1316.0</ele>
        <time>2021-07-03T15:05:39.000Z</time>
      </trkpt>
      <trkpt lat="42.096673" lon="-2.813695">
        <ele>1315.2</ele>
        <time>2021-07-03T15:05:40.000Z</time>
      </trkpt>
      <trkpt lat="42.096705" lon="-2.813848">
        <ele>1313.9</ele>
        <time>2021-07-03T15:05:41.000Z</time>
      </trkpt>
      <trkpt lat="42.096722" lon="-2.814000">
        <ele>1312.8</ele>
        <time>2021-07-03T15:05:42.000Z</time>
      </trkpt>
      <trkpt lat="42.096722" lon="-2.814148">
        <ele>1311.7</ele>
        <time>2021-07-03T15:05:43.000Z</time>
      </trkpt>
      <trkpt lat="42.096710" lon="-2.814298">
        <ele>1311.7</ele>
        <time>2021-07-03T15:05:44.000Z</time>
      </trkpt>
      <trkpt lat="42.096688" lon="-2.814447">
        <ele>1311.0</ele>
        <time>2021-07-03T15:05:45.000Z</time>
      </trkpt>
      <trkpt lat="42.096668" lon="-2.814597">
        <ele>1310.4</ele>
        <time>2021-07-03T15:05:46.000Z</time>
      </trkpt>
      <trkpt lat="42.096658" lon="-2.814745">
        <ele>1309.8</ele>
        <time>2021-07-03T15:05:47.000Z</time>
      </trkpt>
      <trkpt lat="42.096662" lon="-2.814892">
        <ele>1309.1</ele>
        <time>2021-07-03T15:05:48.000Z</time>
      </trkpt>
      <trkpt lat="42.096670" lon="-2.815037">
        <ele>1308.7</ele>
        <time>2021-07-03T15:05:49.000Z</time>
      </trkpt>
      <trkpt lat="42.096680" lon="-2.815180">
        <ele>1308.4</ele>
        <time>2021-07-03T15:05:50.000Z</time>
      </trkpt>
      <trkpt lat="42.096690" lon="-2.815322">
        <ele>1307.9</ele>
        <time>2021-07-03T15:05:51.000Z</time>
      </trkpt>
      <trkpt lat="42.096700" lon="-2.815458">
        <ele>1307.0</ele>
        <time>2021-07-03T15:05:52.000Z</time>
      </trkpt>
      <trkpt lat="42.096707" lon="-2.815590">
        <ele>1306.5</ele>
        <time>2021-07-03T15:05:53.000Z</time>
      </trkpt>
      <trkpt lat="42.096700" lon="-2.815713">
        <ele>1306.2</ele>
        <time>2021-07-03T15:05:54.000Z</time>
      </trkpt>
      <trkpt lat="42.096675" lon="-2.815832">
        <ele>1305.6</ele>
        <time>2021-07-03T15:05:55.000Z</time>
      </trkpt>
      <trkpt lat="42.096628" lon="-2.815942">
        <ele>1305.3</ele>
        <time>2021-07-03T15:05:56.000Z</time>
      </trkpt>
      <trkpt lat="42.096565" lon="-2.816043">
        <ele>1304.4</ele>
        <time>2021-07-03T15:05:57.000Z</time>
      </trkpt>
      <trkpt lat="42.096490" lon="-2.816143">
        <ele>1304.0</ele>
        <time>2021-07-03T15:05:58.000Z</time>
      </trkpt>
      <trkpt lat="42.096413" lon="-2.816243">
        <ele>1303.1</ele>
        <time>2021-07-03T15:05:59.000Z</time>
      </trkpt>
      <trkpt lat="42.096343" lon="-2.816350">
        <ele>1302.3</ele>
        <time>2021-07-03T15:06:00.000Z</time>
      </trkpt>
      <trkpt lat="42.096290" lon="-2.816468">
        <ele>1301.7</ele>
        <time>2021-07-03T15:06:01.000Z</time>
      </trkpt>
      <trkpt lat="42.096253" lon="-2.816603">
        <ele>1301.1</ele>
        <time>2021-07-03T15:06:02.000Z</time>
      </trkpt>
      <trkpt lat="42.096227" lon="-2.816747">
        <ele>1299.8</ele>
        <time>2021-07-03T15:06:03.000Z</time>
      </trkpt>
      <trkpt lat="42.096202" lon="-2.816893">
        <ele>1298.4</ele>
        <time>2021-07-03T15:06:04.000Z</time>
      </trkpt>
      <trkpt lat="42.096175" lon="-2.817043">
        <ele>1297.2</ele>
        <time>2021-07-03T15:06:05.000Z</time>
      </trkpt>
      <trkpt lat="42.096145" lon="-2.817197">
        <ele>1296.3</ele>
        <time>2021-07-03T15:06:06.000Z</time>
      </trkpt>
      <trkpt lat="42.096115" lon="-2.817357">
        <ele>1295.4</ele>
        <time>2021-07-03T15:06:07.000Z</time>
      </trkpt>
      <trkpt lat="42.096088" lon="-2.817523">
        <ele>1294.4</ele>
        <time>2021-07-03T15:06:08.000Z</time>
      </trkpt>
      <trkpt lat="42.096065" lon="-2.817695">
        <ele>1293.2</ele>
        <time>2021-07-03T15:06:09.000Z</time>
      </trkpt>
      <trkpt lat="42.096042" lon="-2.817867">
        <ele>1291.4</ele>
        <time>2021-07-03T15:06:10.000Z</time>
      </trkpt>
      <trkpt lat="42.096022" lon="-2.818040">
        <ele>1289.9</ele>
        <time>2021-07-03T15:06:11.000Z</time>
      </trkpt>
      <trkpt lat="42.096002" lon="-2.818207">
        <ele>1288.5</ele>
        <time>2021-07-03T15:06:12.000Z</time>
      </trkpt>
      <trkpt lat="42.095978" lon="-2.818367">
        <ele>1287.3</ele>
        <time>2021-07-03T15:06:13.000Z</time>
      </trkpt>
      <trkpt lat="42.095955" lon="-2.818523">
        <ele>1287.0</ele>
        <time>2021-07-03T15:06:14.000Z</time>
      </trkpt>
      <trkpt lat="42.095923" lon="-2.818670">
        <ele>1286.3</ele>
        <time>2021-07-03T15:06:15.000Z</time>
      </trkpt>
      <trkpt lat="42.095882" lon="-2.818807">
        <ele>1285.0</ele>
        <time>2021-07-03T15:06:16.000Z</time>
      </trkpt>
      <trkpt lat="42.095823" lon="-2.818935">
        <ele>1283.5</ele>
        <time>2021-07-03T15:06:17.000Z</time>
      </trkpt>
      <trkpt lat="42.095758" lon="-2.819065">
        <ele>1282.4</ele>
        <time>2021-07-03T15:06:18.000Z</time>
      </trkpt>
      <trkpt lat="42.095690" lon="-2.819197">
        <ele>1281.5</ele>
        <time>2021-07-03T15:06:19.000Z</time>
      </trkpt>
      <trkpt lat="42.095622" lon="-2.819333">
        <ele>1280.4</ele>
        <time>2021-07-03T15:06:20.000Z</time>
      </trkpt>
      <trkpt lat="42.095553" lon="-2.819472">
        <ele>1279.6</ele>
        <time>2021-07-03T15:06:21.000Z</time>
      </trkpt>
      <trkpt lat="42.095488" lon="-2.819613">
        <ele>1278.7</ele>
        <time>2021-07-03T15:06:22.000Z</time>
      </trkpt>
      <trkpt lat="42.095430" lon="-2.819758">
        <ele>1277.2</ele>
        <time>2021-07-03T15:06:23.000Z</time>
      </trkpt>
      <trkpt lat="42.095382" lon="-2.819908">
        <ele>1276.0</ele>
        <time>2021-07-03T15:06:24.000Z</time>
      </trkpt>
      <trkpt lat="42.095343" lon="-2.820063">
        <ele>1274.7</ele>
        <time>2021-07-03T15:06:25.000Z</time>
      </trkpt>
      <trkpt lat="42.095313" lon="-2.820223">
        <ele>1273.8</ele>
        <time>2021-07-03T15:06:26.000Z</time>
      </trkpt>
      <trkpt lat="42.095290" lon="-2.820385">
        <ele>1272.9</ele>
        <time>2021-07-03T15:06:27.000Z</time>
      </trkpt>
      <trkpt lat="42.095272" lon="-2.820548">
        <ele>1272.0</ele>
        <time>2021-07-03T15:06:28.000Z</time>
      </trkpt>
      <trkpt lat="42.095258" lon="-2.820712">
        <ele>1271.1</ele>
        <time>2021-07-03T15:06:29.000Z</time>
      </trkpt>
      <trkpt lat="42.095253" lon="-2.820878">
        <ele>1269.7</ele>
        <time>2021-07-03T15:06:30.000Z</time>
      </trkpt>
      <trkpt lat="42.095253" lon="-2.821047">
        <ele>1269.0</ele>
        <time>2021-07-03T15:06:31.000Z</time>
      </trkpt>
      <trkpt lat="42.095257" lon="-2.821217">
        <ele>1268.1</ele>
        <time>2021-07-03T15:06:32.000Z</time>
      </trkpt>
      <trkpt lat="42.095262" lon="-2.821388">
        <ele>1266.7</ele>
        <time>2021-07-03T15:06:33.000Z</time>
      </trkpt>
      <trkpt lat="42.095268" lon="-2.821557">
        <ele>1265.6</ele>
        <time>2021-07-03T15:06:34.000Z</time>
      </trkpt>
      <trkpt lat="42.095273" lon="-2.821717">
        <ele>1264.9</ele>
        <time>2021-07-03T15:06:35.000Z</time>
      </trkpt>
      <trkpt lat="42.095277" lon="-2.821873">
        <ele>1264.3</ele>
        <time>2021-07-03T15:06:36.000Z</time>
      </trkpt>
      <trkpt lat="42.095273" lon="-2.822023">
        <ele>1263.1</ele>
        <time>2021-07-03T15:06:37.000Z</time>
      </trkpt>
      <trkpt lat="42.095262" lon="-2.822172">
        <ele>1262.5</ele>
        <time>2021-07-03T15:06:38.000Z</time>
      </trkpt>
      <trkpt lat="42.095238" lon="-2.822312">
        <ele>1261.9</ele>
        <time>2021-07-03T15:06:39.000Z</time>
      </trkpt>
      <trkpt lat="42.095200" lon="-2.822448">
        <ele>1260.9</ele>
        <time>2021-07-03T15:06:40.000Z</time>
      </trkpt>
      <trkpt lat="42.095148" lon="-2.822578">
        <ele>1260.3</ele>
        <time>2021-07-03T15:06:41.000Z</time>
      </trkpt>
      <trkpt lat="42.095087" lon="-2.822707">
        <ele>1259.5</ele>
        <time>2021-07-03T15:06:42.000Z</time>
      </trkpt>
      <trkpt lat="42.095023" lon="-2.822833">
        <ele>1258.4</ele>
        <time>2021-07-03T15:06:43.000Z</time>
      </trkpt>
      <trkpt lat="42.094958" lon="-2.822963">
        <ele>1257.2</ele>
        <time>2021-07-03T15:06:44.000Z</time>
      </trkpt>
      <trkpt lat="42.094895" lon="-2.823098">
        <ele>1256.2</ele>
        <time>2021-07-03T15:06:45.000Z</time>
      </trkpt>
      <trkpt lat="42.094833" lon="-2.823233">
        <ele>1255.6</ele>
        <time>2021-07-03T15:06:46.000Z</time>
      </trkpt>
      <trkpt lat="42.094773" lon="-2.823370">
        <ele>1255.0</ele>
        <time>2021-07-03T15:06:47.000Z</time>
      </trkpt>
      <trkpt lat="42.094717" lon="-2.823508">
        <ele>1254.1</ele>
        <time>2021-07-03T15:06:48.000Z</time>
      </trkpt>
      <trkpt lat="42.094663" lon="-2.823647">
        <ele>1253.3</ele>
        <time>2021-07-03T15:06:49.000Z</time>
      </trkpt>
      <trkpt lat="42.094615" lon="-2.823785">
        <ele>1252.8</ele>
        <time>2021-07-03T15:06:50.000Z</time>
      </trkpt>
      <trkpt lat="42.094568" lon="-2.823923">
        <ele>1252.5</ele>
        <time>2021-07-03T15:06:51.000Z</time>
      </trkpt>
      <trkpt lat="42.094523" lon="-2.824058">
        <ele>1251.9</ele>
        <time>2021-07-03T15:06:52.000Z</time>
      </trkpt>
      <trkpt lat="42.094477" lon="-2.824192">
        <ele>1251.5</ele>
        <time>2021-07-03T15:06:53.000Z</time>
      </trkpt>
      <trkpt lat="42.094427" lon="-2.824320">
        <ele>1251.1</ele>
        <time>2021-07-03T15:06:54.000Z</time>
      </trkpt>
      <trkpt lat="42.094373" lon="-2.824445">
        <ele>1250.4</ele>
        <time>2021-07-03T15:06:55.000Z</time>
      </trkpt>
      <trkpt lat="42.094322" lon="-2.824570">
        <ele>1250.1</ele>
        <time>2021-07-03T15:06:56.000Z</time>
      </trkpt>
      <trkpt lat="42.094267" lon="-2.824692">
        <ele>1249.8</ele>
        <time>2021-07-03T15:06:57.000Z</time>
      </trkpt>
      <trkpt lat="42.094210" lon="-2.824807">
        <ele>1249.3</ele>
        <time>2021-07-03T15:06:58.000Z</time>
      </trkpt>
      <trkpt lat="42.094150" lon="-2.824917">
        <ele>1249.0</ele>
        <time>2021-07-03T15:06:59.000Z</time>
      </trkpt>
      <trkpt lat="42.094095" lon="-2.825023">
        <ele>1248.6</ele>
        <time>2021-07-03T15:07:00.000Z</time>
      </trkpt>
      <trkpt lat="42.094017" lon="-2.825250">
        <ele>1248.4</ele>
        <time>2021-07-03T15:07:02.000Z</time>
      </trkpt>
      <trkpt lat="42.093988" lon="-2.825370">
        <ele>1247.8</ele>
        <time>2021-07-03T15:07:03.000Z</time>
      </trkpt>
      <trkpt lat="42.093967" lon="-2.825492">
        <ele>1247.3</ele>
        <time>2021-07-03T15:07:04.000Z</time>
      </trkpt>
      <trkpt lat="42.093943" lon="-2.825730">
        <ele>1246.0</ele>
        <time>2021-07-03T15:07:06.000Z</time>
      </trkpt>
      <trkpt lat="42.093942" lon="-2.825970">
        <ele>1245.5</ele>
        <time>2021-07-03T15:07:08.000Z</time>
      </trkpt>
      <trkpt lat="42.093935" lon="-2.826208">
        <ele>1244.6</ele>
        <time>2021-07-03T15:07:10.000Z</time>
      </trkpt>
      <trkpt lat="42.093913" lon="-2.826443">
        <ele>1244.6</ele>
        <time>2021-07-03T15:07:12.000Z</time>
      </trkpt>
      <trkpt lat="42.093867" lon="-2.826678">
        <ele>1243.9</ele>
        <time>2021-07-03T15:07:14.000Z</time>
      </trkpt>
      <trkpt lat="42.093835" lon="-2.826793">
        <ele>1243.6</ele>
        <time>2021-07-03T15:07:15.000Z</time>
      </trkpt>
      <trkpt lat="42.093798" lon="-2.826907">
        <ele>1243.4</ele>
        <time>2021-07-03T15:07:16.000Z</time>
      </trkpt>
      <trkpt lat="42.093760" lon="-2.827020">
        <ele>1242.8</ele>
        <time>2021-07-03T15:07:17.000Z</time>
      </trkpt>
      <trkpt lat="42.093722" lon="-2.827132">
        <ele>1242.3</ele>
        <time>2021-07-03T15:07:18.000Z</time>
      </trkpt>
      <trkpt lat="42.093683" lon="-2.827247">
        <ele>1242.0</ele>
        <time>2021-07-03T15:07:19.000Z</time>
      </trkpt>
      <trkpt lat="42.093642" lon="-2.827358">
        <ele>1241.7</ele>
        <time>2021-07-03T15:07:20.000Z</time>
      </trkpt>
      <trkpt lat="42.093602" lon="-2.827468">
        <ele>1241.5</ele>
        <time>2021-07-03T15:07:21.000Z</time>
      </trkpt>
      <trkpt lat="42.093557" lon="-2.827580">
        <ele>1241.1</ele>
        <time>2021-07-03T15:07:22.000Z</time>
      </trkpt>
      <trkpt lat="42.093510" lon="-2.827688">
        <ele>1240.7</ele>
        <time>2021-07-03T15:07:23.000Z</time>
      </trkpt>
      <trkpt lat="42.093463" lon="-2.827798">
        <ele>1240.1</ele>
        <time>2021-07-03T15:07:24.000Z</time>
      </trkpt>
      <trkpt lat="42.093415" lon="-2.827910">
        <ele>1239.4</ele>
        <time>2021-07-03T15:07:25.000Z</time>
      </trkpt>
      <trkpt lat="42.093365" lon="-2.828025">
        <ele>1239.0</ele>
        <time>2021-07-03T15:07:26.000Z</time>
      </trkpt>
      <trkpt lat="42.093315" lon="-2.828140">
        <ele>1238.5</ele>
        <time>2021-07-03T15:07:27.000Z</time>
      </trkpt>
      <trkpt lat="42.093265" lon="-2.828257">
        <ele>1238.2</ele>
        <time>2021-07-03T15:07:28.000Z</time>
      </trkpt>
      <trkpt lat="42.093213" lon="-2.828373">
        <ele>1237.8</ele>
        <time>2021-07-03T15:07:29.000Z</time>
      </trkpt>
      <trkpt lat="42.093160" lon="-2.828492">
        <ele>1237.0</ele>
        <time>2021-07-03T15:07:30.000Z</time>
      </trkpt>
      <trkpt lat="42.093110" lon="-2.828615">
        <ele>1236.5</ele>
        <time>2021-07-03T15:07:31.000Z</time>
      </trkpt>
      <trkpt lat="42.093070" lon="-2.828742">
        <ele>1236.0</ele>
        <time>2021-07-03T15:07:32.000Z</time>
      </trkpt>
      <trkpt lat="42.093038" lon="-2.828870">
        <ele>1235.5</ele>
        <time>2021-07-03T15:07:33.000Z</time>
      </trkpt>
      <trkpt lat="42.093015" lon="-2.828997">
        <ele>1234.9</ele>
        <time>2021-07-03T15:07:34.000Z</time>
      </trkpt>
      <trkpt lat="42.093002" lon="-2.829125">
        <ele>1234.3</ele>
        <time>2021-07-03T15:07:35.000Z</time>
      </trkpt>
      <trkpt lat="42.093000" lon="-2.829252">
        <ele>1233.9</ele>
        <time>2021-07-03T15:07:36.000Z</time>
      </trkpt>
      <trkpt lat="42.093013" lon="-2.829377">
        <ele>1233.3</ele>
        <time>2021-07-03T15:07:37.000Z</time>
      </trkpt>
      <trkpt lat="42.093043" lon="-2.829497">
        <ele>1232.6</ele>
        <time>2021-07-03T15:07:38.000Z</time>
      </trkpt>
      <trkpt lat="42.093080" lon="-2.829615">
        <ele>1232.2</ele>
        <time>2021-07-03T15:07:39.000Z</time>
      </trkpt>
      <trkpt lat="42.093120" lon="-2.829737">
        <ele>1231.8</ele>
        <time>2021-07-03T15:07:40.000Z</time>
      </trkpt>
      <trkpt lat="42.093160" lon="-2.829858">
        <ele>1231.4</ele>
        <time>2021-07-03T15:07:41.000Z</time>
      </trkpt>
      <trkpt lat="42.093198" lon="-2.829978">
        <ele>1230.9</ele>
        <time>2021-07-03T15:07:42.000Z</time>
      </trkpt>
      <trkpt lat="42.093230" lon="-2.830105">
        <ele>1230.5</ele>
        <time>2021-07-03T15:07:43.000Z</time>
      </trkpt>
      <trkpt lat="42.093258" lon="-2.830230">
        <ele>1230.0</ele>
        <time>2021-07-03T15:07:44.000Z</time>
      </trkpt>
      <trkpt lat="42.093288" lon="-2.830352">
        <ele>1229.3</ele>
        <time>2021-07-03T15:07:45.000Z</time>
      </trkpt>
      <trkpt lat="42.093318" lon="-2.830468">
        <ele>1228.7</ele>
        <time>2021-07-03T15:07:46.000Z</time>
      </trkpt>
      <trkpt lat="42.093357" lon="-2.830583">
        <ele>1228.1</ele>
        <time>2021-07-03T15:07:47.000Z</time>
      </trkpt>
      <trkpt lat="42.093402" lon="-2.830693">
        <ele>1227.6</ele>
        <time>2021-07-03T15:07:48.000Z</time>
      </trkpt>
      <trkpt lat="42.093450" lon="-2.830798">
        <ele>1227.3</ele>
        <time>2021-07-03T15:07:49.000Z</time>
      </trkpt>
      <trkpt lat="42.093560" lon="-2.830988">
        <ele>1225.6</ele>
        <time>2021-07-03T15:07:51.000Z</time>
      </trkpt>
      <trkpt lat="42.093683" lon="-2.831155">
        <ele>1224.4</ele>
        <time>2021-07-03T15:07:53.000Z</time>
      </trkpt>
      <trkpt lat="42.093810" lon="-2.831287">
        <ele>1223.0</ele>
        <time>2021-07-03T15:07:55.000Z</time>
      </trkpt>
      <trkpt lat="42.093907" lon="-2.831403">
        <ele>1221.8</ele>
        <time>2021-07-03T15:07:57.000Z</time>
      </trkpt>
      <trkpt lat="42.093978" lon="-2.831518">
        <ele>1221.5</ele>
        <time>2021-07-03T15:07:59.000Z</time>
      </trkpt>
      <trkpt lat="42.094037" lon="-2.831633">
        <ele>1220.4</ele>
        <time>2021-07-03T15:08:01.000Z</time>
      </trkpt>
      <trkpt lat="42.094085" lon="-2.831760">
        <ele>1220.0</ele>
        <time>2021-07-03T15:08:03.000Z</time>
      </trkpt>
      <trkpt lat="42.094120" lon="-2.831877">
        <ele>1218.5</ele>
        <time>2021-07-03T15:08:05.000Z</time>
      </trkpt>
      <trkpt lat="42.094170" lon="-2.831983">
        <ele>1217.3</ele>
        <time>2021-07-03T15:08:08.000Z</time>
      </trkpt>
      <trkpt lat="42.094160" lon="-2.831993">
        <ele>1217.1</ele>
        <time>2021-07-03T15:08:12.000Z</time>
      </trkpt>
      <trkpt lat="42.094162" lon="-2.831990">
        <ele>1217.0</ele>
        <time>2021-07-03T15:08:31.000Z</time>
      </trkpt>
      <trkpt lat="42.094162" lon="-2.831988">
        <ele>1217.2</ele>
        <time>2021-07-03T15:08:32.000Z</time>
      </trkpt>
      <trkpt lat="42.094160" lon="-2.831988">
        <ele>1217.8</ele>
        <time>2021-07-03T15:08:34.000Z</time>
      </trkpt>
      <trkpt lat="42.094215" lon="-2.831955">
        <ele>1217.0</ele>
        <time>2021-07-03T15:08:48.000Z</time>
      </trkpt>
      <trkpt lat="42.094213" lon="-2.831955">
        <ele>1217.3</ele>
        <time>2021-07-03T15:09:08.000Z</time>
      </trkpt>
      <trkpt lat="42.094213" lon="-2.831955">
        <ele>1217.4</ele>
        <time>2021-07-03T15:09:09.000Z</time>
      </trkpt>
      <trkpt lat="42.094212" lon="-2.831963">
        <ele>1217.1</ele>
        <time>2021-07-03T15:10:28.000Z</time>
      </trkpt>
      <trkpt lat="42.094193" lon="-2.831982">
        <ele>1216.2</ele>
        <time>2021-07-03T15:10:34.000Z</time>
      </trkpt>
      <trkpt lat="42.094192" lon="-2.831983">
        <ele>1217.8</ele>
        <time>2021-07-03T15:10:37.000Z</time>
      </trkpt>
      <trkpt lat="42.094155" lon="-2.831982">
        <ele>1216.5</ele>
        <time>2021-07-03T15:10:45.000Z</time>
      </trkpt>
      <trkpt lat="42.094152" lon="-2.831977">
        <ele>1217.2</ele>
        <time>2021-07-03T15:11:57.000Z</time>
      </trkpt>
      <trkpt lat="42.094238" lon="-2.832087">
        <ele>1216.8</ele>
        <time>2021-07-03T15:12:06.000Z</time>
      </trkpt>
      <trkpt lat="42.094308" lon="-2.832192">
        <ele>1217.0</ele>
        <time>2021-07-03T15:12:09.000Z</time>
      </trkpt>
      <trkpt lat="42.094377" lon="-2.832320">
        <ele>1216.4</ele>
        <time>2021-07-03T15:12:12.000Z</time>
      </trkpt>
      <trkpt lat="42.094410" lon="-2.832435">
        <ele>1216.9</ele>
        <time>2021-07-03T15:12:15.000Z</time>
      </trkpt>
      <trkpt lat="42.094447" lon="-2.832553">
        <ele>1215.7</ele>
        <time>2021-07-03T15:12:19.000Z</time>
      </trkpt>
      <trkpt lat="42.094502" lon="-2.832657">
        <ele>1213.9</ele>
        <time>2021-07-03T15:12:23.000Z</time>
      </trkpt>
      <trkpt lat="42.094530" lon="-2.832765">
        <ele>1214.0</ele>
        <time>2021-07-03T15:12:33.000Z</time>
      </trkpt>
      <trkpt lat="42.094532" lon="-2.832768">
        <ele>1214.0</ele>
        <time>2021-07-03T15:12:34.000Z</time>
      </trkpt>
      <trkpt lat="42.094532" lon="-2.832770">
        <ele>1213.8</ele>
        <time>2021-07-03T15:12:35.000Z</time>
      </trkpt>
      <trkpt lat="42.094532" lon="-2.832775">
        <ele>1213.4</ele>
        <time>2021-07-03T15:12:36.000Z</time>
      </trkpt>
      <trkpt lat="42.094533" lon="-2.832773">
        <ele>1213.3</ele>
        <time>2021-07-03T15:12:38.000Z</time>
      </trkpt>
      <trkpt lat="42.094537" lon="-2.832773">
        <ele>1211.8</ele>
        <time>2021-07-03T15:12:57.000Z</time>
      </trkpt>
      <trkpt lat="42.094553" lon="-2.832790">
        <ele>1213.1</ele>
        <time>2021-07-03T15:13:05.000Z</time>
      </trkpt>
      <trkpt lat="42.094555" lon="-2.832787">
        <ele>1213.4</ele>
        <time>2021-07-03T15:13:11.000Z</time>
      </trkpt>
      <trkpt lat="42.094588" lon="-2.832748">
        <ele>1213.7</ele>
        <time>2021-07-03T15:13:19.000Z</time>
      </trkpt>
      <trkpt lat="42.094587" lon="-2.832745">
        <ele>1213.4</ele>
        <time>2021-07-03T15:13:21.000Z</time>
      </trkpt>
      <trkpt lat="42.094505" lon="-2.832822">
        <ele>1212.0</ele>
        <time>2021-07-03T15:13:26.000Z</time>
      </trkpt>
      <trkpt lat="42.094435" lon="-2.832907">
        <ele>1210.7</ele>
        <time>2021-07-03T15:13:29.000Z</time>
      </trkpt>
      <trkpt lat="42.094350" lon="-2.832988">
        <ele>1211.9</ele>
        <time>2021-07-03T15:13:32.000Z</time>
      </trkpt>
      <trkpt lat="42.094312" lon="-2.833118">
        <ele>1212.0</ele>
        <time>2021-07-03T15:13:36.000Z</time>
      </trkpt>
      <trkpt lat="42.094360" lon="-2.833230">
        <ele>1212.2</ele>
        <time>2021-07-03T15:13:39.000Z</time>
      </trkpt>
      <trkpt lat="42.094435" lon="-2.833330">
        <ele>1212.0</ele>
        <time>2021-07-03T15:13:42.000Z</time>
      </trkpt>
      <trkpt lat="42.094525" lon="-2.833443">
        <ele>1211.7</ele>
        <time>2021-07-03T15:13:45.000Z</time>
      </trkpt>
      <trkpt lat="42.094618" lon="-2.833572">
        <ele>1211.3</ele>
        <time>2021-07-03T15:13:48.000Z</time>
      </trkpt>
      <trkpt lat="42.094715" lon="-2.833685">
        <ele>1211.1</ele>
        <time>2021-07-03T15:13:51.000Z</time>
      </trkpt>
      <trkpt lat="42.094798" lon="-2.833773">
        <ele>1210.7</ele>
        <time>2021-07-03T15:13:54.000Z</time>
      </trkpt>
      <trkpt lat="42.094880" lon="-2.833872">
        <ele>1210.8</ele>
        <time>2021-07-03T15:13:59.000Z</time>
      </trkpt>
      <trkpt lat="42.094912" lon="-2.833930">
        <ele>1210.7</ele>
        <time>2021-07-03T15:14:09.000Z</time>
      </trkpt>
      <trkpt lat="42.094913" lon="-2.833928">
        <ele>1210.8</ele>
        <time>2021-07-03T15:14:37.000Z</time>
      </trkpt>
      <trkpt lat="42.094913" lon="-2.833928">
        <ele>1211.1</ele>
        <time>2021-07-03T15:14:38.000Z</time>
      </trkpt>
      <trkpt lat="42.094912" lon="-2.833925">
        <ele>1211.8</ele>
        <time>2021-07-03T15:15:50.000Z</time>
      </trkpt>
      <trkpt lat="42.094912" lon="-2.833925">
        <ele>1211.8</ele>
        <time>2021-07-03T15:15:51.000Z</time>
      </trkpt>
      <trkpt lat="42.094910" lon="-2.833925">
        <ele>1211.5</ele>
        <time>2021-07-03T15:17:49.000Z</time>
      </trkpt>
      <trkpt lat="42.094910" lon="-2.833925">
        <ele>1211.5</ele>
        <time>2021-07-03T15:17:50.000Z</time>
      </trkpt>
      <trkpt lat="42.094912" lon="-2.833917">
        <ele>1211.4</ele>
        <time>2021-07-03T15:21:34.000Z</time>
      </trkpt>
      <trkpt lat="42.094912" lon="-2.833917">
        <ele>1211.6</ele>
        <time>2021-07-03T15:21:35.000Z</time>
      </trkpt>
      <trkpt lat="42.094913" lon="-2.833915">
        <ele>1212.1</ele>
        <time>2021-07-03T15:23:02.000Z</time>
      </trkpt>
      <trkpt lat="42.094913" lon="-2.833915">
        <ele>1212.1</ele>
        <time>2021-07-03T15:23:03.000Z</time>
      </trkpt>
      <trkpt lat="42.094912" lon="-2.833915">
        <ele>1212.6</ele>
        <time>2021-07-03T15:24:23.000Z</time>
      </trkpt>
      <trkpt lat="42.094912" lon="-2.833915">
        <ele>1212.8</ele>
        <time>2021-07-03T15:24:24.000Z</time>
      </trkpt>
      <trkpt lat="42.094910" lon="-2.833913">
        <ele>1212.7</ele>
        <time>2021-07-03T15:25:48.000Z</time>
      </trkpt>
      <trkpt lat="42.094908" lon="-2.833913">
        <ele>1212.5</ele>
        <time>2021-07-03T15:25:50.000Z</time>
      </trkpt>
      <trkpt lat="42.094910" lon="-2.833920">
        <ele>1212.6</ele>
        <time>2021-07-03T15:25:53.000Z</time>
      </trkpt>
      <trkpt lat="42.094925" lon="-2.833947">
        <ele>1212.4</ele>
        <time>2021-07-03T15:26:00.000Z</time>
      </trkpt>
      <trkpt lat="42.094927" lon="-2.833947">
        <ele>1212.5</ele>
        <time>2021-07-03T15:26:01.000Z</time>
      </trkpt>
      <trkpt lat="42.094927" lon="-2.833947">
        <ele>1212.6</ele>
        <time>2021-07-03T15:26:02.000Z</time>
      </trkpt>
      <trkpt lat="42.094928" lon="-2.833943">
        <ele>1212.6</ele>
        <time>2021-07-03T15:26:16.000Z</time>
      </trkpt>
      <trkpt lat="42.095025" lon="-2.833913">
        <ele>1211.1</ele>
        <time>2021-07-03T15:26:24.000Z</time>
      </trkpt>
      <trkpt lat="42.095075" lon="-2.833773">
        <ele>1214.7</ele>
        <time>2021-07-03T15:26:28.000Z</time>
      </trkpt>
      <trkpt lat="42.095117" lon="-2.833658">
        <ele>1211.6</ele>
        <time>2021-07-03T15:26:32.000Z</time>
      </trkpt>
      <trkpt lat="42.095227" lon="-2.833668">
        <ele>1213.7</ele>
        <time>2021-07-03T15:26:43.000Z</time>
      </trkpt>
      <trkpt lat="42.095320" lon="-2.833642">
        <ele>1214.7</ele>
        <time>2021-07-03T15:26:48.000Z</time>
      </trkpt>
      <trkpt lat="42.095347" lon="-2.833615">
        <ele>1214.6</ele>
        <time>2021-07-03T15:26:55.000Z</time>
      </trkpt>
      <trkpt lat="42.095352" lon="-2.833610">
        <ele>1213.7</ele>
        <time>2021-07-03T15:26:57.000Z</time>
      </trkpt>
      <trkpt lat="42.095373" lon="-2.833488">
        <ele>1213.7</ele>
        <time>2021-07-03T15:27:08.000Z</time>
      </trkpt>
      <trkpt lat="42.095445" lon="-2.833448">
        <ele>1214.5</ele>
        <time>2021-07-03T15:27:25.000Z</time>
      </trkpt>
      <trkpt lat="42.095447" lon="-2.833448">
        <ele>1211.0</ele>
        <time>2021-07-03T15:31:38.000Z</time>
      </trkpt>
      <trkpt lat="42.095447" lon="-2.833448">
        <ele>1211.1</ele>
        <time>2021-07-03T15:31:39.000Z</time>
      </trkpt>
      <trkpt lat="42.095448" lon="-2.833452">
        <ele>1207.3</ele>
        <time>2021-07-03T15:35:17.000Z</time>
      </trkpt>
      <trkpt lat="42.095448" lon="-2.833452">
        <ele>1207.3</ele>
        <time>2021-07-03T15:35:18.000Z</time>
      </trkpt>
      <trkpt lat="42.095447" lon="-2.833452">
        <ele>1206.6</ele>
        <time>2021-07-03T15:35:40.000Z</time>
      </trkpt>
      <trkpt lat="42.095447" lon="-2.833452">
        <ele>1206.6</ele>
        <time>2021-07-03T15:35:41.000Z</time>
      </trkpt>
      <trkpt lat="42.095445" lon="-2.833452">
        <ele>1205.6</ele>
        <time>2021-07-03T15:37:56.000Z</time>
      </trkpt>
      <trkpt lat="42.095445" lon="-2.833450">
        <ele>1205.5</ele>
        <time>2021-07-03T15:37:57.000Z</time>
      </trkpt>
      <trkpt lat="42.095447" lon="-2.833448">
        <ele>1197.7</ele>
        <time>2021-07-03T15:45:59.000Z</time>
      </trkpt>
      <trkpt lat="42.095447" lon="-2.833448">
        <ele>1197.8</ele>
        <time>2021-07-03T15:46:00.000Z</time>
      </trkpt>
      <trkpt lat="42.095445" lon="-2.833448">
        <ele>1194.4</ele>
        <time>2021-07-03T15:49:48.000Z</time>
      </trkpt>
      <trkpt lat="42.095445" lon="-2.833448">
        <ele>1194.3</ele>
        <time>2021-07-03T15:49:49.000Z</time>
      </trkpt>
      <trkpt lat="42.095447" lon="-2.833448">
        <ele>1194.5</ele>
        <time>2021-07-03T15:49:54.000Z</time>
      </trkpt>
      <trkpt lat="42.095447" lon="-2.833448">
        <ele>1194.6</ele>
        <time>2021-07-03T15:49:55.000Z</time>
      </trkpt>
      <trkpt lat="42.095445" lon="-2.833448">
        <ele>1194.2</ele>
        <time>2021-07-03T15:50:00.000Z</time>
      </trkpt>
      <trkpt lat="42.095445" lon="-2.833448">
        <ele>1194.2</ele>
        <time>2021-07-03T15:50:01.000Z</time>
      </trkpt>
      <trkpt lat="42.095447" lon="-2.833448">
        <ele>1193.8</ele>
        <time>2021-07-03T15:50:48.000Z</time>
      </trkpt>
      <trkpt lat="42.095447" lon="-2.833448">
        <ele>1193.8</ele>
        <time>2021-07-03T15:50:49.000Z</time>
      </trkpt>
      <trkpt lat="42.095445" lon="-2.833447">
        <ele>1192.5</ele>
        <time>2021-07-03T15:52:20.000Z</time>
      </trkpt>
      <trkpt lat="42.095445" lon="-2.833447">
        <ele>1192.4</ele>
        <time>2021-07-03T15:52:21.000Z</time>
      </trkpt>
      <trkpt lat="42.095443" lon="-2.833447">
        <ele>1191.9</ele>
        <time>2021-07-03T15:53:04.000Z</time>
      </trkpt>
      <trkpt lat="42.095443" lon="-2.833447">
        <ele>1191.8</ele>
        <time>2021-07-03T15:53:05.000Z</time>
      </trkpt>
      <trkpt lat="42.095442" lon="-2.833447">
        <ele>1191.3</ele>
        <time>2021-07-03T15:54:14.000Z</time>
      </trkpt>
      <trkpt lat="42.095442" lon="-2.833447">
        <ele>1191.5</ele>
        <time>2021-07-03T15:54:15.000Z</time>
      </trkpt>
      <trkpt lat="42.095440" lon="-2.833447">
        <ele>1189.9</ele>
        <time>2021-07-03T15:55:08.000Z</time>
      </trkpt>
      <trkpt lat="42.095440" lon="-2.833447">
        <ele>1190.1</ele>
        <time>2021-07-03T15:55:09.000Z</time>
      </trkpt>
      <trkpt lat="42.095438" lon="-2.833447">
        <ele>1188.3</ele>
        <time>2021-07-03T15:56:50.000Z</time>
      </trkpt>
      <trkpt lat="42.095438" lon="-2.833447">
        <ele>1188.3</ele>
        <time>2021-07-03T15:56:51.000Z</time>
      </trkpt>
      <trkpt lat="42.095437" lon="-2.833452">
        <ele>1187.4</ele>
        <time>2021-07-03T16:01:39.000Z</time>
      </trkpt>
      <trkpt lat="42.095437" lon="-2.833452">
        <ele>1187.5</ele>
        <time>2021-07-03T16:01:40.000Z</time>
      </trkpt>
      <trkpt lat="42.095435" lon="-2.833453">
        <ele>1187.7</ele>
        <time>2021-07-03T16:02:54.000Z</time>
      </trkpt>
      <trkpt lat="42.095435" lon="-2.833453">
        <ele>1187.6</ele>
        <time>2021-07-03T16:02:55.000Z</time>
      </trkpt>
      <trkpt lat="42.095433" lon="-2.833453">
        <ele>1187.8</ele>
        <time>2021-07-03T16:03:20.000Z</time>
      </trkpt>
      <trkpt lat="42.095433" lon="-2.833453">
        <ele>1187.6</ele>
        <time>2021-07-03T16:03:21.000Z</time>
      </trkpt>
      <trkpt lat="42.095432" lon="-2.833455">
        <ele>1187.7</ele>
        <time>2021-07-03T16:05:14.000Z</time>
      </trkpt>
      <trkpt lat="42.095432" lon="-2.833455">
        <ele>1187.6</ele>
        <time>2021-07-03T16:05:15.000Z</time>
      </trkpt>
      <trkpt lat="42.095430" lon="-2.833457">
        <ele>1189.3</ele>
        <time>2021-07-03T16:11:02.000Z</time>
      </trkpt>
      <trkpt lat="42.095430" lon="-2.833457">
        <ele>1189.4</ele>
        <time>2021-07-03T16:11:03.000Z</time>
      </trkpt>
      <trkpt lat="42.095428" lon="-2.833462">
        <ele>1190.2</ele>
        <time>2021-07-03T16:19:19.000Z</time>
      </trkpt>
      <trkpt lat="42.095428" lon="-2.833462">
        <ele>1190.2</ele>
        <time>2021-07-03T16:19:20.000Z</time>
      </trkpt>
      <trkpt lat="42.095427" lon="-2.833463">
        <ele>1190.8</ele>
        <time>2021-07-03T16:20:26.000Z</time>
      </trkpt>
      <trkpt lat="42.095417" lon="-2.833462">
        <ele>1190.6</ele>
        <time>2021-07-03T16:20:31.000Z</time>
      </trkpt>
      <trkpt lat="42.095415" lon="-2.833462">
        <ele>1190.6</ele>
        <time>2021-07-03T16:20:32.000Z</time>
      </trkpt>
      <trkpt lat="42.095415" lon="-2.833462">
        <ele>1190.6</ele>
        <time>2021-07-03T16:20:33.000Z</time>
      </trkpt>
      <trkpt lat="42.095413" lon="-2.833463">
        <ele>1191.0</ele>
        <time>2021-07-03T16:20:37.000Z</time>
      </trkpt>
      <trkpt lat="42.095410" lon="-2.833467">
        <ele>1190.9</ele>
        <time>2021-07-03T16:20:39.000Z</time>
      </trkpt>
      <trkpt lat="42.095407" lon="-2.833467">
        <ele>1190.7</ele>
        <time>2021-07-03T16:20:45.000Z</time>
      </trkpt>
      <trkpt lat="42.095338" lon="-2.833548">
        <ele>1189.5</ele>
        <time>2021-07-03T16:20:51.000Z</time>
      </trkpt>
      <trkpt lat="42.095283" lon="-2.833645">
        <ele>1189.6</ele>
        <time>2021-07-03T16:20:56.000Z</time>
      </trkpt>
      <trkpt lat="42.095193" lon="-2.833613">
        <ele>1189.5</ele>
        <time>2021-07-03T16:21:01.000Z</time>
      </trkpt>
      <trkpt lat="42.095108" lon="-2.833657">
        <ele>1187.9</ele>
        <time>2021-07-03T16:21:06.000Z</time>
      </trkpt>
      <trkpt lat="42.095050" lon="-2.833777">
        <ele>1187.0</ele>
        <time>2021-07-03T16:21:09.000Z</time>
      </trkpt>
      <trkpt lat="42.094998" lon="-2.833910">
        <ele>1185.9</ele>
        <time>2021-07-03T16:21:12.000Z</time>
      </trkpt>
      <trkpt lat="42.095005" lon="-2.834040">
        <ele>1187.9</ele>
        <time>2021-07-03T16:21:16.000Z</time>
      </trkpt>
      <trkpt lat="42.095077" lon="-2.834140">
        <ele>1187.6</ele>
        <time>2021-07-03T16:21:20.000Z</time>
      </trkpt>
      <trkpt lat="42.095142" lon="-2.834242">
        <ele>1187.8</ele>
        <time>2021-07-03T16:21:24.000Z</time>
      </trkpt>
      <trkpt lat="42.095203" lon="-2.834368">
        <ele>1187.9</ele>
        <time>2021-07-03T16:21:29.000Z</time>
      </trkpt>
      <trkpt lat="42.095250" lon="-2.834477">
        <ele>1187.4</ele>
        <time>2021-07-03T16:21:33.000Z</time>
      </trkpt>
      <trkpt lat="42.095302" lon="-2.834578">
        <ele>1187.8</ele>
        <time>2021-07-03T16:21:37.000Z</time>
      </trkpt>
      <trkpt lat="42.095358" lon="-2.834693">
        <ele>1188.1</ele>
        <time>2021-07-03T16:21:42.000Z</time>
      </trkpt>
      <trkpt lat="42.095417" lon="-2.834822">
        <ele>1187.5</ele>
        <time>2021-07-03T16:21:47.000Z</time>
      </trkpt>
      <trkpt lat="42.095472" lon="-2.834937">
        <ele>1188.0</ele>
        <time>2021-07-03T16:21:51.000Z</time>
      </trkpt>
      <trkpt lat="42.095518" lon="-2.835043">
        <ele>1187.8</ele>
        <time>2021-07-03T16:21:55.000Z</time>
      </trkpt>
      <trkpt lat="42.095572" lon="-2.835153">
        <ele>1188.1</ele>
        <time>2021-07-03T16:21:59.000Z</time>
      </trkpt>
      <trkpt lat="42.095622" lon="-2.835255">
        <ele>1188.0</ele>
        <time>2021-07-03T16:22:03.000Z</time>
      </trkpt>
      <trkpt lat="42.095683" lon="-2.835363">
        <ele>1187.8</ele>
        <time>2021-07-03T16:22:07.000Z</time>
      </trkpt>
      <trkpt lat="42.095752" lon="-2.835467">
        <ele>1187.8</ele>
        <time>2021-07-03T16:22:11.000Z</time>
      </trkpt>
      <trkpt lat="42.095803" lon="-2.835577">
        <ele>1187.8</ele>
        <time>2021-07-03T16:22:15.000Z</time>
      </trkpt>
      <trkpt lat="42.095868" lon="-2.835693">
        <ele>1187.8</ele>
        <time>2021-07-03T16:22:19.000Z</time>
      </trkpt>
      <trkpt lat="42.095940" lon="-2.835803">
        <ele>1188.1</ele>
        <time>2021-07-03T16:22:23.000Z</time>
      </trkpt>
      <trkpt lat="42.096002" lon="-2.835897">
        <ele>1187.9</ele>
        <time>2021-07-03T16:22:26.000Z</time>
      </trkpt>
      <trkpt lat="42.096068" lon="-2.835993">
        <ele>1187.7</ele>
        <time>2021-07-03T16:22:29.000Z</time>
      </trkpt>
      <trkpt lat="42.096140" lon="-2.836082">
        <ele>1187.9</ele>
        <time>2021-07-03T16:22:32.000Z</time>
      </trkpt>
      <trkpt lat="42.096220" lon="-2.836160">
        <ele>1188.0</ele>
        <time>2021-07-03T16:22:35.000Z</time>
      </trkpt>
      <trkpt lat="42.096297" lon="-2.836238">
        <ele>1187.8</ele>
        <time>2021-07-03T16:22:38.000Z</time>
      </trkpt>
      <trkpt lat="42.096388" lon="-2.836332">
        <ele>1188.1</ele>
        <time>2021-07-03T16:22:42.000Z</time>
      </trkpt>
      <trkpt lat="42.096462" lon="-2.836408">
        <ele>1187.9</ele>
        <time>2021-07-03T16:22:45.000Z</time>
      </trkpt>
      <trkpt lat="42.096530" lon="-2.836490">
        <ele>1188.0</ele>
        <time>2021-07-03T16:22:48.000Z</time>
      </trkpt>
      <trkpt lat="42.096612" lon="-2.836598">
        <ele>1187.8</ele>
        <time>2021-07-03T16:22:52.000Z</time>
      </trkpt>
      <trkpt lat="42.096692" lon="-2.836702">
        <ele>1188.1</ele>
        <time>2021-07-03T16:22:56.000Z</time>
      </trkpt>
      <trkpt lat="42.096752" lon="-2.836793">
        <ele>1188.1</ele>
        <time>2021-07-03T16:22:59.000Z</time>
      </trkpt>
      <trkpt lat="42.096795" lon="-2.836902">
        <ele>1188.0</ele>
        <time>2021-07-03T16:23:02.000Z</time>
      </trkpt>
      <trkpt lat="42.096822" lon="-2.837025">
        <ele>1187.8</ele>
        <time>2021-07-03T16:23:05.000Z</time>
      </trkpt>
      <trkpt lat="42.096847" lon="-2.837183">
        <ele>1187.6</ele>
        <time>2021-07-03T16:23:09.000Z</time>
      </trkpt>
      <trkpt lat="42.096863" lon="-2.837333">
        <ele>1186.7</ele>
        <time>2021-07-03T16:23:12.000Z</time>
      </trkpt>
      <trkpt lat="42.096877" lon="-2.837457">
        <ele>1186.5</ele>
        <time>2021-07-03T16:23:14.000Z</time>
      </trkpt>
      <trkpt lat="42.096905" lon="-2.837593">
        <ele>1186.5</ele>
        <time>2021-07-03T16:23:16.000Z</time>
      </trkpt>
      <trkpt lat="42.096960" lon="-2.837725">
        <ele>1186.4</ele>
        <time>2021-07-03T16:23:18.000Z</time>
      </trkpt>
      <trkpt lat="42.097042" lon="-2.837845">
        <ele>1185.3</ele>
        <time>2021-07-03T16:23:20.000Z</time>
      </trkpt>
      <trkpt lat="42.097133" lon="-2.837953">
        <ele>1185.3</ele>
        <time>2021-07-03T16:23:22.000Z</time>
      </trkpt>
      <trkpt lat="42.097232" lon="-2.838053">
        <ele>1183.8</ele>
        <time>2021-07-03T16:23:24.000Z</time>
      </trkpt>
      <trkpt lat="42.097323" lon="-2.838160">
        <ele>1182.7</ele>
        <time>2021-07-03T16:23:26.000Z</time>
      </trkpt>
      <trkpt lat="42.097397" lon="-2.838285">
        <ele>1182.6</ele>
        <time>2021-07-03T16:23:28.000Z</time>
      </trkpt>
      <trkpt lat="42.097455" lon="-2.838427">
        <ele>1181.6</ele>
        <time>2021-07-03T16:23:30.000Z</time>
      </trkpt>
      <trkpt lat="42.097505" lon="-2.838580">
        <ele>1181.5</ele>
        <time>2021-07-03T16:23:32.000Z</time>
      </trkpt>
      <trkpt lat="42.097557" lon="-2.838733">
        <ele>1181.6</ele>
        <time>2021-07-03T16:23:34.000Z</time>
      </trkpt>
      <trkpt lat="42.097613" lon="-2.838880">
        <ele>1181.2</ele>
        <time>2021-07-03T16:23:36.000Z</time>
      </trkpt>
      <trkpt lat="42.097672" lon="-2.839023">
        <ele>1180.8</ele>
        <time>2021-07-03T16:23:38.000Z</time>
      </trkpt>
      <trkpt lat="42.097733" lon="-2.839162">
        <ele>1180.3</ele>
        <time>2021-07-03T16:23:40.000Z</time>
      </trkpt>
      <trkpt lat="42.097793" lon="-2.839307">
        <ele>1180.0</ele>
        <time>2021-07-03T16:23:42.000Z</time>
      </trkpt>
      <trkpt lat="42.097837" lon="-2.839453">
        <ele>1179.2</ele>
        <time>2021-07-03T16:23:44.000Z</time>
      </trkpt>
      <trkpt lat="42.097878" lon="-2.839598">
        <ele>1179.3</ele>
        <time>2021-07-03T16:23:46.000Z</time>
      </trkpt>
      <trkpt lat="42.097938" lon="-2.839728">
        <ele>1179.3</ele>
        <time>2021-07-03T16:23:48.000Z</time>
      </trkpt>
      <trkpt lat="42.098018" lon="-2.839843">
        <ele>1178.5</ele>
        <time>2021-07-03T16:23:50.000Z</time>
      </trkpt>
      <trkpt lat="42.098120" lon="-2.839930">
        <ele>1178.2</ele>
        <time>2021-07-03T16:23:52.000Z</time>
      </trkpt>
      <trkpt lat="42.098233" lon="-2.839980">
        <ele>1178.6</ele>
        <time>2021-07-03T16:23:54.000Z</time>
      </trkpt>
      <trkpt lat="42.098342" lon="-2.840015">
        <ele>1178.2</ele>
        <time>2021-07-03T16:23:56.000Z</time>
      </trkpt>
      <trkpt lat="42.098440" lon="-2.840055">
        <ele>1178.1</ele>
        <time>2021-07-03T16:23:58.000Z</time>
      </trkpt>
      <trkpt lat="42.098532" lon="-2.840092">
        <ele>1178.1</ele>
        <time>2021-07-03T16:24:00.000Z</time>
      </trkpt>
      <trkpt lat="42.098620" lon="-2.840135">
        <ele>1177.7</ele>
        <time>2021-07-03T16:24:02.000Z</time>
      </trkpt>
      <trkpt lat="42.098710" lon="-2.840178">
        <ele>1177.5</ele>
        <time>2021-07-03T16:24:04.000Z</time>
      </trkpt>
      <trkpt lat="42.098803" lon="-2.840218">
        <ele>1177.2</ele>
        <time>2021-07-03T16:24:06.000Z</time>
      </trkpt>
      <trkpt lat="42.098895" lon="-2.840258">
        <ele>1176.6</ele>
        <time>2021-07-03T16:24:08.000Z</time>
      </trkpt>
      <trkpt lat="42.098993" lon="-2.840302">
        <ele>1176.1</ele>
        <time>2021-07-03T16:24:10.000Z</time>
      </trkpt>
      <trkpt lat="42.099095" lon="-2.840347">
        <ele>1176.2</ele>
        <time>2021-07-03T16:24:12.000Z</time>
      </trkpt>
      <trkpt lat="42.099192" lon="-2.840400">
        <ele>1175.9</ele>
        <time>2021-07-03T16:24:14.000Z</time>
      </trkpt>
      <trkpt lat="42.099278" lon="-2.840458">
        <ele>1175.6</ele>
        <time>2021-07-03T16:24:16.000Z</time>
      </trkpt>
      <trkpt lat="42.099393" lon="-2.840547">
        <ele>1175.3</ele>
        <time>2021-07-03T16:24:19.000Z</time>
      </trkpt>
      <trkpt lat="42.099482" lon="-2.840668">
        <ele>1175.5</ele>
        <time>2021-07-03T16:24:22.000Z</time>
      </trkpt>
      <trkpt lat="42.099548" lon="-2.840827">
        <ele>1175.1</ele>
        <time>2021-07-03T16:24:25.000Z</time>
      </trkpt>
      <trkpt lat="42.099610" lon="-2.840987">
        <ele>1174.6</ele>
        <time>2021-07-03T16:24:28.000Z</time>
      </trkpt>
      <trkpt lat="42.099675" lon="-2.841145">
        <ele>1174.7</ele>
        <time>2021-07-03T16:24:31.000Z</time>
      </trkpt>
      <trkpt lat="42.099727" lon="-2.841257">
        <ele>1174.0</ele>
        <time>2021-07-03T16:24:33.000Z</time>
      </trkpt>
      <trkpt lat="42.099780" lon="-2.841390">
        <ele>1173.4</ele>
        <time>2021-07-03T16:24:35.000Z</time>
      </trkpt>
      <trkpt lat="42.099843" lon="-2.841542">
        <ele>1172.5</ele>
        <time>2021-07-03T16:24:37.000Z</time>
      </trkpt>
      <trkpt lat="42.099920" lon="-2.841695">
        <ele>1171.8</ele>
        <time>2021-07-03T16:24:39.000Z</time>
      </trkpt>
      <trkpt lat="42.100012" lon="-2.841837">
        <ele>1171.4</ele>
        <time>2021-07-03T16:24:41.000Z</time>
      </trkpt>
      <trkpt lat="42.100125" lon="-2.841960">
        <ele>1170.6</ele>
        <time>2021-07-03T16:24:43.000Z</time>
      </trkpt>
      <trkpt lat="42.100240" lon="-2.842073">
        <ele>1169.7</ele>
        <time>2021-07-03T16:24:45.000Z</time>
      </trkpt>
      <trkpt lat="42.100337" lon="-2.842193">
        <ele>1169.0</ele>
        <time>2021-07-03T16:24:47.000Z</time>
      </trkpt>
      <trkpt lat="42.100422" lon="-2.842320">
        <ele>1169.1</ele>
        <time>2021-07-03T16:24:49.000Z</time>
      </trkpt>
      <trkpt lat="42.100507" lon="-2.842438">
        <ele>1168.4</ele>
        <time>2021-07-03T16:24:51.000Z</time>
      </trkpt>
      <trkpt lat="42.100603" lon="-2.842538">
        <ele>1167.5</ele>
        <time>2021-07-03T16:24:53.000Z</time>
      </trkpt>
      <trkpt lat="42.100727" lon="-2.842598">
        <ele>1166.4</ele>
        <time>2021-07-03T16:24:55.000Z</time>
      </trkpt>
      <trkpt lat="42.100865" lon="-2.842628">
        <ele>1166.2</ele>
        <time>2021-07-03T16:24:57.000Z</time>
      </trkpt>
      <trkpt lat="42.101007" lon="-2.842662">
        <ele>1165.4</ele>
        <time>2021-07-03T16:24:59.000Z</time>
      </trkpt>
      <trkpt lat="42.101147" lon="-2.842712">
        <ele>1164.1</ele>
        <time>2021-07-03T16:25:01.000Z</time>
      </trkpt>
      <trkpt lat="42.101273" lon="-2.842810">
        <ele>1163.6</ele>
        <time>2021-07-03T16:25:03.000Z</time>
      </trkpt>
      <trkpt lat="42.101358" lon="-2.842977">
        <ele>1163.5</ele>
        <time>2021-07-03T16:25:05.000Z</time>
      </trkpt>
      <trkpt lat="42.101403" lon="-2.843170">
        <ele>1163.2</ele>
        <time>2021-07-03T16:25:07.000Z</time>
      </trkpt>
      <trkpt lat="42.101420" lon="-2.843360">
        <ele>1162.3</ele>
        <time>2021-07-03T16:25:09.000Z</time>
      </trkpt>
      <trkpt lat="42.101400" lon="-2.843535">
        <ele>1163.2</ele>
        <time>2021-07-03T16:25:11.000Z</time>
      </trkpt>
      <trkpt lat="42.101353" lon="-2.843682">
        <ele>1163.6</ele>
        <time>2021-07-03T16:25:13.000Z</time>
      </trkpt>
      <trkpt lat="42.101295" lon="-2.843807">
        <ele>1164.6</ele>
        <time>2021-07-03T16:25:15.000Z</time>
      </trkpt>
      <trkpt lat="42.101245" lon="-2.843917">
        <ele>1164.6</ele>
        <time>2021-07-03T16:25:17.000Z</time>
      </trkpt>
      <trkpt lat="42.101232" lon="-2.844083">
        <ele>1163.7</ele>
        <time>2021-07-03T16:25:20.000Z</time>
      </trkpt>
      <trkpt lat="42.101325" lon="-2.844188">
        <ele>1163.6</ele>
        <time>2021-07-03T16:25:23.000Z</time>
      </trkpt>
      <trkpt lat="42.101417" lon="-2.844220">
        <ele>1163.3</ele>
        <time>2021-07-03T16:25:25.000Z</time>
      </trkpt>
      <trkpt lat="42.101510" lon="-2.844263">
        <ele>1163.4</ele>
        <time>2021-07-03T16:25:27.000Z</time>
      </trkpt>
      <trkpt lat="42.101605" lon="-2.844315">
        <ele>1163.5</ele>
        <time>2021-07-03T16:25:29.000Z</time>
      </trkpt>
      <trkpt lat="42.101700" lon="-2.844372">
        <ele>1163.3</ele>
        <time>2021-07-03T16:25:31.000Z</time>
      </trkpt>
      <trkpt lat="42.101795" lon="-2.844432">
        <ele>1162.6</ele>
        <time>2021-07-03T16:25:33.000Z</time>
      </trkpt>
      <trkpt lat="42.101885" lon="-2.844492">
        <ele>1162.5</ele>
        <time>2021-07-03T16:25:35.000Z</time>
      </trkpt>
      <trkpt lat="42.101972" lon="-2.844567">
        <ele>1162.1</ele>
        <time>2021-07-03T16:25:37.000Z</time>
      </trkpt>
      <trkpt lat="42.102060" lon="-2.844660">
        <ele>1161.5</ele>
        <time>2021-07-03T16:25:39.000Z</time>
      </trkpt>
      <trkpt lat="42.102138" lon="-2.844777">
        <ele>1160.4</ele>
        <time>2021-07-03T16:25:41.000Z</time>
      </trkpt>
      <trkpt lat="42.102215" lon="-2.844895">
        <ele>1160.7</ele>
        <time>2021-07-03T16:25:43.000Z</time>
      </trkpt>
      <trkpt lat="42.102298" lon="-2.845007">
        <ele>1160.2</ele>
        <time>2021-07-03T16:25:45.000Z</time>
      </trkpt>
      <trkpt lat="42.102397" lon="-2.845107">
        <ele>1159.6</ele>
        <time>2021-07-03T16:25:47.000Z</time>
      </trkpt>
      <trkpt lat="42.102502" lon="-2.845200">
        <ele>1158.5</ele>
        <time>2021-07-03T16:25:49.000Z</time>
      </trkpt>
      <trkpt lat="42.102628" lon="-2.845243">
        <ele>1157.1</ele>
        <time>2021-07-03T16:25:51.000Z</time>
      </trkpt>
      <trkpt lat="42.102768" lon="-2.845212">
        <ele>1155.7</ele>
        <time>2021-07-03T16:25:53.000Z</time>
      </trkpt>
      <trkpt lat="42.102908" lon="-2.845190">
        <ele>1154.2</ele>
        <time>2021-07-03T16:25:55.000Z</time>
      </trkpt>
      <trkpt lat="42.103037" lon="-2.845192">
        <ele>1154.0</ele>
        <time>2021-07-03T16:25:57.000Z</time>
      </trkpt>
      <trkpt lat="42.103145" lon="-2.845243">
        <ele>1153.9</ele>
        <time>2021-07-03T16:25:59.000Z</time>
      </trkpt>
      <trkpt lat="42.103228" lon="-2.845358">
        <ele>1153.3</ele>
        <time>2021-07-03T16:26:01.000Z</time>
      </trkpt>
      <trkpt lat="42.103290" lon="-2.845507">
        <ele>1153.2</ele>
        <time>2021-07-03T16:26:03.000Z</time>
      </trkpt>
      <trkpt lat="42.103340" lon="-2.845670">
        <ele>1151.8</ele>
        <time>2021-07-03T16:26:05.000Z</time>
      </trkpt>
      <trkpt lat="42.103380" lon="-2.845832">
        <ele>1151.0</ele>
        <time>2021-07-03T16:26:07.000Z</time>
      </trkpt>
      <trkpt lat="42.103453" lon="-2.845972">
        <ele>1151.1</ele>
        <time>2021-07-03T16:26:09.000Z</time>
      </trkpt>
      <trkpt lat="42.103558" lon="-2.846087">
        <ele>1150.8</ele>
        <time>2021-07-03T16:26:11.000Z</time>
      </trkpt>
      <trkpt lat="42.103687" lon="-2.846155">
        <ele>1150.3</ele>
        <time>2021-07-03T16:26:13.000Z</time>
      </trkpt>
      <trkpt lat="42.103820" lon="-2.846197">
        <ele>1150.6</ele>
        <time>2021-07-03T16:26:15.000Z</time>
      </trkpt>
      <trkpt lat="42.103943" lon="-2.846250">
        <ele>1149.7</ele>
        <time>2021-07-03T16:26:17.000Z</time>
      </trkpt>
      <trkpt lat="42.104053" lon="-2.846312">
        <ele>1150.0</ele>
        <time>2021-07-03T16:26:19.000Z</time>
      </trkpt>
      <trkpt lat="42.104135" lon="-2.846420">
        <ele>1149.2</ele>
        <time>2021-07-03T16:26:21.000Z</time>
      </trkpt>
      <trkpt lat="42.104165" lon="-2.846577">
        <ele>1148.1</ele>
        <time>2021-07-03T16:26:23.000Z</time>
      </trkpt>
      <trkpt lat="42.104165" lon="-2.846748">
        <ele>1146.4</ele>
        <time>2021-07-03T16:26:25.000Z</time>
      </trkpt>
      <trkpt lat="42.104240" lon="-2.846902">
        <ele>1145.7</ele>
        <time>2021-07-03T16:26:27.000Z</time>
      </trkpt>
      <trkpt lat="42.104347" lon="-2.847027">
        <ele>1145.7</ele>
        <time>2021-07-03T16:26:29.000Z</time>
      </trkpt>
      <trkpt lat="42.104452" lon="-2.847122">
        <ele>1145.9</ele>
        <time>2021-07-03T16:26:31.000Z</time>
      </trkpt>
      <trkpt lat="42.104553" lon="-2.847077">
        <ele>1145.9</ele>
        <time>2021-07-03T16:26:33.000Z</time>
      </trkpt>
      <trkpt lat="42.104627" lon="-2.846945">
        <ele>1146.0</ele>
        <time>2021-07-03T16:26:35.000Z</time>
      </trkpt>
      <trkpt lat="42.104703" lon="-2.846813">
        <ele>1145.7</ele>
        <time>2021-07-03T16:26:37.000Z</time>
      </trkpt>
      <trkpt lat="42.104798" lon="-2.846703">
        <ele>1144.4</ele>
        <time>2021-07-03T16:26:39.000Z</time>
      </trkpt>
      <trkpt lat="42.104907" lon="-2.846615">
        <ele>1143.8</ele>
        <time>2021-07-03T16:26:41.000Z</time>
      </trkpt>
      <trkpt lat="42.105037" lon="-2.846597">
        <ele>1143.2</ele>
        <time>2021-07-03T16:26:43.000Z</time>
      </trkpt>
      <trkpt lat="42.105172" lon="-2.846640">
        <ele>1142.6</ele>
        <time>2021-07-03T16:26:45.000Z</time>
      </trkpt>
      <trkpt lat="42.105302" lon="-2.846687">
        <ele>1142.3</ele>
        <time>2021-07-03T16:26:47.000Z</time>
      </trkpt>
      <trkpt lat="42.105418" lon="-2.846727">
        <ele>1142.3</ele>
        <time>2021-07-03T16:26:49.000Z</time>
      </trkpt>
      <trkpt lat="42.105518" lon="-2.846788">
        <ele>1142.7</ele>
        <time>2021-07-03T16:26:51.000Z</time>
      </trkpt>
      <trkpt lat="42.105600" lon="-2.846875">
        <ele>1142.6</ele>
        <time>2021-07-03T16:26:53.000Z</time>
      </trkpt>
      <trkpt lat="42.105667" lon="-2.846983">
        <ele>1141.9</ele>
        <time>2021-07-03T16:26:55.000Z</time>
      </trkpt>
      <trkpt lat="42.105718" lon="-2.847093">
        <ele>1142.0</ele>
        <time>2021-07-03T16:26:57.000Z</time>
      </trkpt>
      <trkpt lat="42.105748" lon="-2.847215">
        <ele>1142.2</ele>
        <time>2021-07-03T16:26:59.000Z</time>
      </trkpt>
      <trkpt lat="42.105758" lon="-2.847347">
        <ele>1141.8</ele>
        <time>2021-07-03T16:27:01.000Z</time>
      </trkpt>
      <trkpt lat="42.105742" lon="-2.847485">
        <ele>1141.6</ele>
        <time>2021-07-03T16:27:03.000Z</time>
      </trkpt>
      <trkpt lat="42.105705" lon="-2.847622">
        <ele>1141.4</ele>
        <time>2021-07-03T16:27:05.000Z</time>
      </trkpt>
      <trkpt lat="42.105657" lon="-2.847757">
        <ele>1141.4</ele>
        <time>2021-07-03T16:27:07.000Z</time>
      </trkpt>
      <trkpt lat="42.105612" lon="-2.847900">
        <ele>1140.3</ele>
        <time>2021-07-03T16:27:09.000Z</time>
      </trkpt>
      <trkpt lat="42.105575" lon="-2.848045">
        <ele>1139.7</ele>
        <time>2021-07-03T16:27:11.000Z</time>
      </trkpt>
      <trkpt lat="42.105575" lon="-2.848200">
        <ele>1139.8</ele>
        <time>2021-07-03T16:27:13.000Z</time>
      </trkpt>
      <trkpt lat="42.105640" lon="-2.848343">
        <ele>1139.4</ele>
        <time>2021-07-03T16:27:15.000Z</time>
      </trkpt>
      <trkpt lat="42.105730" lon="-2.848462">
        <ele>1138.8</ele>
        <time>2021-07-03T16:27:17.000Z</time>
      </trkpt>
      <trkpt lat="42.105845" lon="-2.848542">
        <ele>1137.9</ele>
        <time>2021-07-03T16:27:19.000Z</time>
      </trkpt>
      <trkpt lat="42.105967" lon="-2.848603">
        <ele>1137.2</ele>
        <time>2021-07-03T16:27:21.000Z</time>
      </trkpt>
      <trkpt lat="42.106080" lon="-2.848667">
        <ele>1137.3</ele>
        <time>2021-07-03T16:27:23.000Z</time>
      </trkpt>
      <trkpt lat="42.106168" lon="-2.848762">
        <ele>1137.4</ele>
        <time>2021-07-03T16:27:25.000Z</time>
      </trkpt>
      <trkpt lat="42.106222" lon="-2.848883">
        <ele>1137.3</ele>
        <time>2021-07-03T16:27:27.000Z</time>
      </trkpt>
      <trkpt lat="42.106262" lon="-2.849007">
        <ele>1137.7</ele>
        <time>2021-07-03T16:27:29.000Z</time>
      </trkpt>
      <trkpt lat="42.106305" lon="-2.849175">
        <ele>1138.1</ele>
        <time>2021-07-03T16:27:32.000Z</time>
      </trkpt>
      <trkpt lat="42.106338" lon="-2.849338">
        <ele>1138.0</ele>
        <time>2021-07-03T16:27:35.000Z</time>
      </trkpt>
      <trkpt lat="42.106378" lon="-2.849482">
        <ele>1139.1</ele>
        <time>2021-07-03T16:27:38.000Z</time>
      </trkpt>
      <trkpt lat="42.106447" lon="-2.849593">
        <ele>1139.6</ele>
        <time>2021-07-03T16:27:41.000Z</time>
      </trkpt>
      <trkpt lat="42.106553" lon="-2.849642">
        <ele>1139.8</ele>
        <time>2021-07-03T16:27:44.000Z</time>
      </trkpt>
      <trkpt lat="42.106672" lon="-2.849675">
        <ele>1139.3</ele>
        <time>2021-07-03T16:27:47.000Z</time>
      </trkpt>
      <trkpt lat="42.106760" lon="-2.849702">
        <ele>1139.0</ele>
        <time>2021-07-03T16:27:49.000Z</time>
      </trkpt>
      <trkpt lat="42.106848" lon="-2.849728">
        <ele>1139.3</ele>
        <time>2021-07-03T16:27:51.000Z</time>
      </trkpt>
      <trkpt lat="42.106940" lon="-2.849747">
        <ele>1139.1</ele>
        <time>2021-07-03T16:27:53.000Z</time>
      </trkpt>
      <trkpt lat="42.107047" lon="-2.849770">
        <ele>1138.2</ele>
        <time>2021-07-03T16:27:55.000Z</time>
      </trkpt>
      <trkpt lat="42.107170" lon="-2.849780">
        <ele>1138.0</ele>
        <time>2021-07-03T16:27:57.000Z</time>
      </trkpt>
      <trkpt lat="42.107302" lon="-2.849763">
        <ele>1137.1</ele>
        <time>2021-07-03T16:27:59.000Z</time>
      </trkpt>
      <trkpt lat="42.107432" lon="-2.849725">
        <ele>1136.0</ele>
        <time>2021-07-03T16:28:01.000Z</time>
      </trkpt>
      <trkpt lat="42.107552" lon="-2.849638">
        <ele>1135.4</ele>
        <time>2021-07-03T16:28:03.000Z</time>
      </trkpt>
      <trkpt lat="42.107642" lon="-2.849498">
        <ele>1134.4</ele>
        <time>2021-07-03T16:28:05.000Z</time>
      </trkpt>
      <trkpt lat="42.107737" lon="-2.849362">
        <ele>1133.3</ele>
        <time>2021-07-03T16:28:07.000Z</time>
      </trkpt>
      <trkpt lat="42.107842" lon="-2.849233">
        <ele>1132.8</ele>
        <time>2021-07-03T16:28:09.000Z</time>
      </trkpt>
      <trkpt lat="42.107947" lon="-2.849115">
        <ele>1132.1</ele>
        <time>2021-07-03T16:28:11.000Z</time>
      </trkpt>
      <trkpt lat="42.108060" lon="-2.849030">
        <ele>1131.8</ele>
        <time>2021-07-03T16:28:13.000Z</time>
      </trkpt>
      <trkpt lat="42.108183" lon="-2.848987">
        <ele>1132.0</ele>
        <time>2021-07-03T16:28:15.000Z</time>
      </trkpt>
      <trkpt lat="42.108312" lon="-2.848967">
        <ele>1131.9</ele>
        <time>2021-07-03T16:28:17.000Z</time>
      </trkpt>
      <trkpt lat="42.108442" lon="-2.849002">
        <ele>1131.6</ele>
        <time>2021-07-03T16:28:19.000Z</time>
      </trkpt>
      <trkpt lat="42.108540" lon="-2.849107">
        <ele>1131.6</ele>
        <time>2021-07-03T16:28:21.000Z</time>
      </trkpt>
      <trkpt lat="42.108622" lon="-2.849253">
        <ele>1131.5</ele>
        <time>2021-07-03T16:28:23.000Z</time>
      </trkpt>
      <trkpt lat="42.108668" lon="-2.849428">
        <ele>1130.5</ele>
        <time>2021-07-03T16:28:25.000Z</time>
      </trkpt>
      <trkpt lat="42.108668" lon="-2.849608">
        <ele>1130.6</ele>
        <time>2021-07-03T16:28:27.000Z</time>
      </trkpt>
      <trkpt lat="42.108640" lon="-2.849783">
        <ele>1130.4</ele>
        <time>2021-07-03T16:28:29.000Z</time>
      </trkpt>
      <trkpt lat="42.108577" lon="-2.849940">
        <ele>1130.6</ele>
        <time>2021-07-03T16:28:31.000Z</time>
      </trkpt>
      <trkpt lat="42.108495" lon="-2.850072">
        <ele>1130.3</ele>
        <time>2021-07-03T16:28:33.000Z</time>
      </trkpt>
      <trkpt lat="42.108417" lon="-2.850192">
        <ele>1130.7</ele>
        <time>2021-07-03T16:28:35.000Z</time>
      </trkpt>
      <trkpt lat="42.108367" lon="-2.850312">
        <ele>1130.9</ele>
        <time>2021-07-03T16:28:37.000Z</time>
      </trkpt>
      <trkpt lat="42.108350" lon="-2.850438">
        <ele>1130.5</ele>
        <time>2021-07-03T16:28:39.000Z</time>
      </trkpt>
      <trkpt lat="42.108380" lon="-2.850555">
        <ele>1130.1</ele>
        <time>2021-07-03T16:28:41.000Z</time>
      </trkpt>
      <trkpt lat="42.108458" lon="-2.850622">
        <ele>1129.8</ele>
        <time>2021-07-03T16:28:43.000Z</time>
      </trkpt>
      <trkpt lat="42.108553" lon="-2.850638">
        <ele>1129.6</ele>
        <time>2021-07-03T16:28:45.000Z</time>
      </trkpt>
      <trkpt lat="42.108687" lon="-2.850657">
        <ele>1129.5</ele>
        <time>2021-07-03T16:28:48.000Z</time>
      </trkpt>
      <trkpt lat="42.108777" lon="-2.850658">
        <ele>1128.8</ele>
        <time>2021-07-03T16:28:50.000Z</time>
      </trkpt>
      <trkpt lat="42.108867" lon="-2.850670">
        <ele>1128.2</ele>
        <time>2021-07-03T16:28:52.000Z</time>
      </trkpt>
      <trkpt lat="42.108995" lon="-2.850728">
        <ele>1127.5</ele>
        <time>2021-07-03T16:28:55.000Z</time>
      </trkpt>
      <trkpt lat="42.109120" lon="-2.850793">
        <ele>1128.1</ele>
        <time>2021-07-03T16:28:58.000Z</time>
      </trkpt>
      <trkpt lat="42.109242" lon="-2.850872">
        <ele>1127.6</ele>
        <time>2021-07-03T16:29:01.000Z</time>
      </trkpt>
      <trkpt lat="42.109340" lon="-2.851000">
        <ele>1127.7</ele>
        <time>2021-07-03T16:29:04.000Z</time>
      </trkpt>
      <trkpt lat="42.109390" lon="-2.851120">
        <ele>1127.2</ele>
        <time>2021-07-03T16:29:06.000Z</time>
      </trkpt>
      <trkpt lat="42.109442" lon="-2.851252">
        <ele>1126.9</ele>
        <time>2021-07-03T16:29:08.000Z</time>
      </trkpt>
      <trkpt lat="42.109500" lon="-2.851378">
        <ele>1126.8</ele>
        <time>2021-07-03T16:29:10.000Z</time>
      </trkpt>
      <trkpt lat="42.109562" lon="-2.851508">
        <ele>1126.7</ele>
        <time>2021-07-03T16:29:12.000Z</time>
      </trkpt>
      <trkpt lat="42.109625" lon="-2.851635">
        <ele>1126.6</ele>
        <time>2021-07-03T16:29:14.000Z</time>
      </trkpt>
      <trkpt lat="42.109705" lon="-2.851742">
        <ele>1126.2</ele>
        <time>2021-07-03T16:29:16.000Z</time>
      </trkpt>
      <trkpt lat="42.109785" lon="-2.851840">
        <ele>1126.0</ele>
        <time>2021-07-03T16:29:18.000Z</time>
      </trkpt>
      <trkpt lat="42.109862" lon="-2.851943">
        <ele>1125.7</ele>
        <time>2021-07-03T16:29:20.000Z</time>
      </trkpt>
      <trkpt lat="42.109928" lon="-2.852060">
        <ele>1125.4</ele>
        <time>2021-07-03T16:29:22.000Z</time>
      </trkpt>
      <trkpt lat="42.109980" lon="-2.852192">
        <ele>1125.4</ele>
        <time>2021-07-03T16:29:24.000Z</time>
      </trkpt>
      <trkpt lat="42.110018" lon="-2.852342">
        <ele>1125.2</ele>
        <time>2021-07-03T16:29:26.000Z</time>
      </trkpt>
      <trkpt lat="42.110050" lon="-2.852505">
        <ele>1124.8</ele>
        <time>2021-07-03T16:29:28.000Z</time>
      </trkpt>
      <trkpt lat="42.110073" lon="-2.852682">
        <ele>1124.1</ele>
        <time>2021-07-03T16:29:30.000Z</time>
      </trkpt>
      <trkpt lat="42.110097" lon="-2.852870">
        <ele>1123.4</ele>
        <time>2021-07-03T16:29:32.000Z</time>
      </trkpt>
      <trkpt lat="42.110135" lon="-2.853068">
        <ele>1122.9</ele>
        <time>2021-07-03T16:29:34.000Z</time>
      </trkpt>
      <trkpt lat="42.110215" lon="-2.853258">
        <ele>1121.8</ele>
        <time>2021-07-03T16:29:36.000Z</time>
      </trkpt>
      <trkpt lat="42.110333" lon="-2.853403">
        <ele>1120.7</ele>
        <time>2021-07-03T16:29:38.000Z</time>
      </trkpt>
      <trkpt lat="42.110473" lon="-2.853517">
        <ele>1119.9</ele>
        <time>2021-07-03T16:29:40.000Z</time>
      </trkpt>
      <trkpt lat="42.110607" lon="-2.853642">
        <ele>1119.1</ele>
        <time>2021-07-03T16:29:42.000Z</time>
      </trkpt>
      <trkpt lat="42.110723" lon="-2.853797">
        <ele>1118.4</ele>
        <time>2021-07-03T16:29:44.000Z</time>
      </trkpt>
      <trkpt lat="42.110822" lon="-2.853988">
        <ele>1117.6</ele>
        <time>2021-07-03T16:29:46.000Z</time>
      </trkpt>
      <trkpt lat="42.110897" lon="-2.854208">
        <ele>1116.7</ele>
        <time>2021-07-03T16:29:48.000Z</time>
      </trkpt>
      <trkpt lat="42.110927" lon="-2.854323">
        <ele>1115.9</ele>
        <time>2021-07-03T16:29:49.000Z</time>
      </trkpt>
      <trkpt lat="42.110992" lon="-2.854533">
        <ele>1114.8</ele>
        <time>2021-07-03T16:29:51.000Z</time>
      </trkpt>
      <trkpt lat="42.111083" lon="-2.854708">
        <ele>1113.8</ele>
        <time>2021-07-03T16:29:53.000Z</time>
      </trkpt>
      <trkpt lat="42.111212" lon="-2.854850">
        <ele>1112.6</ele>
        <time>2021-07-03T16:29:55.000Z</time>
      </trkpt>
      <trkpt lat="42.111355" lon="-2.854968">
        <ele>1110.6</ele>
        <time>2021-07-03T16:29:57.000Z</time>
      </trkpt>
      <trkpt lat="42.111480" lon="-2.855110">
        <ele>1109.0</ele>
        <time>2021-07-03T16:29:59.000Z</time>
      </trkpt>
      <trkpt lat="42.111568" lon="-2.855302">
        <ele>1108.0</ele>
        <time>2021-07-03T16:30:01.000Z</time>
      </trkpt>
      <trkpt lat="42.111628" lon="-2.855518">
        <ele>1107.6</ele>
        <time>2021-07-03T16:30:03.000Z</time>
      </trkpt>
      <trkpt lat="42.111655" lon="-2.855732">
        <ele>1106.7</ele>
        <time>2021-07-03T16:30:05.000Z</time>
      </trkpt>
      <trkpt lat="42.111675" lon="-2.855933">
        <ele>1106.1</ele>
        <time>2021-07-03T16:30:07.000Z</time>
      </trkpt>
      <trkpt lat="42.111732" lon="-2.856117">
        <ele>1103.9</ele>
        <time>2021-07-03T16:30:09.000Z</time>
      </trkpt>
      <trkpt lat="42.111838" lon="-2.856245">
        <ele>1102.4</ele>
        <time>2021-07-03T16:30:11.000Z</time>
      </trkpt>
      <trkpt lat="42.111982" lon="-2.856312">
        <ele>1101.5</ele>
        <time>2021-07-03T16:30:13.000Z</time>
      </trkpt>
      <trkpt lat="42.112142" lon="-2.856355">
        <ele>1100.0</ele>
        <time>2021-07-03T16:30:15.000Z</time>
      </trkpt>
      <trkpt lat="42.112307" lon="-2.856417">
        <ele>1099.7</ele>
        <time>2021-07-03T16:30:17.000Z</time>
      </trkpt>
      <trkpt lat="42.112477" lon="-2.856487">
        <ele>1099.2</ele>
        <time>2021-07-03T16:30:19.000Z</time>
      </trkpt>
      <trkpt lat="42.112562" lon="-2.856528">
        <ele>1097.8</ele>
        <time>2021-07-03T16:30:20.000Z</time>
      </trkpt>
      <trkpt lat="42.112732" lon="-2.856595">
        <ele>1096.5</ele>
        <time>2021-07-03T16:30:22.000Z</time>
      </trkpt>
      <trkpt lat="42.112912" lon="-2.856580">
        <ele>1095.6</ele>
        <time>2021-07-03T16:30:24.000Z</time>
      </trkpt>
      <trkpt lat="42.113005" lon="-2.856567">
        <ele>1095.2</ele>
        <time>2021-07-03T16:30:25.000Z</time>
      </trkpt>
      <trkpt lat="42.113095" lon="-2.856565">
        <ele>1095.0</ele>
        <time>2021-07-03T16:30:26.000Z</time>
      </trkpt>
      <trkpt lat="42.113185" lon="-2.856585">
        <ele>1094.2</ele>
        <time>2021-07-03T16:30:27.000Z</time>
      </trkpt>
      <trkpt lat="42.113272" lon="-2.856628">
        <ele>1093.5</ele>
        <time>2021-07-03T16:30:28.000Z</time>
      </trkpt>
      <trkpt lat="42.113350" lon="-2.856692">
        <ele>1093.3</ele>
        <time>2021-07-03T16:30:29.000Z</time>
      </trkpt>
      <trkpt lat="42.113418" lon="-2.856775">
        <ele>1093.2</ele>
        <time>2021-07-03T16:30:30.000Z</time>
      </trkpt>
      <trkpt lat="42.113478" lon="-2.856873">
        <ele>1092.9</ele>
        <time>2021-07-03T16:30:31.000Z</time>
      </trkpt>
      <trkpt lat="42.113530" lon="-2.856983">
        <ele>1092.3</ele>
        <time>2021-07-03T16:30:32.000Z</time>
      </trkpt>
      <trkpt lat="42.113583" lon="-2.857098">
        <ele>1091.6</ele>
        <time>2021-07-03T16:30:33.000Z</time>
      </trkpt>
      <trkpt lat="42.113642" lon="-2.857212">
        <ele>1090.6</ele>
        <time>2021-07-03T16:30:34.000Z</time>
      </trkpt>
      <trkpt lat="42.113705" lon="-2.857318">
        <ele>1090.4</ele>
        <time>2021-07-03T16:30:35.000Z</time>
      </trkpt>
      <trkpt lat="42.113773" lon="-2.857420">
        <ele>1090.0</ele>
        <time>2021-07-03T16:30:36.000Z</time>
      </trkpt>
      <trkpt lat="42.113845" lon="-2.857522">
        <ele>1089.6</ele>
        <time>2021-07-03T16:30:37.000Z</time>
      </trkpt>
      <trkpt lat="42.113913" lon="-2.857623">
        <ele>1089.1</ele>
        <time>2021-07-03T16:30:38.000Z</time>
      </trkpt>
      <trkpt lat="42.113980" lon="-2.857727">
        <ele>1088.8</ele>
        <time>2021-07-03T16:30:39.000Z</time>
      </trkpt>
      <trkpt lat="42.114043" lon="-2.857833">
        <ele>1088.7</ele>
        <time>2021-07-03T16:30:40.000Z</time>
      </trkpt>
      <trkpt lat="42.114098" lon="-2.857942">
        <ele>1088.5</ele>
        <time>2021-07-03T16:30:41.000Z</time>
      </trkpt>
      <trkpt lat="42.114143" lon="-2.858057">
        <ele>1088.3</ele>
        <time>2021-07-03T16:30:42.000Z</time>
      </trkpt>
      <trkpt lat="42.114178" lon="-2.858175">
        <ele>1087.7</ele>
        <time>2021-07-03T16:30:43.000Z</time>
      </trkpt>
      <trkpt lat="42.114202" lon="-2.858295">
        <ele>1087.4</ele>
        <time>2021-07-03T16:30:44.000Z</time>
      </trkpt>
      <trkpt lat="42.114222" lon="-2.858413">
        <ele>1087.4</ele>
        <time>2021-07-03T16:30:45.000Z</time>
      </trkpt>
      <trkpt lat="42.114252" lon="-2.858645">
        <ele>1087.6</ele>
        <time>2021-07-03T16:30:47.000Z</time>
      </trkpt>
      <trkpt lat="42.114272" lon="-2.858868">
        <ele>1087.1</ele>
        <time>2021-07-03T16:30:49.000Z</time>
      </trkpt>
      <trkpt lat="42.114290" lon="-2.859087">
        <ele>1086.8</ele>
        <time>2021-07-03T16:30:51.000Z</time>
      </trkpt>
      <trkpt lat="42.114292" lon="-2.859298">
        <ele>1086.3</ele>
        <time>2021-07-03T16:30:53.000Z</time>
      </trkpt>
      <trkpt lat="42.114268" lon="-2.859503">
        <ele>1085.8</ele>
        <time>2021-07-03T16:30:55.000Z</time>
      </trkpt>
      <trkpt lat="42.114222" lon="-2.859703">
        <ele>1085.2</ele>
        <time>2021-07-03T16:30:57.000Z</time>
      </trkpt>
      <trkpt lat="42.114148" lon="-2.859895">
        <ele>1084.6</ele>
        <time>2021-07-03T16:30:59.000Z</time>
      </trkpt>
      <trkpt lat="42.114077" lon="-2.860095">
        <ele>1083.6</ele>
        <time>2021-07-03T16:31:01.000Z</time>
      </trkpt>
      <trkpt lat="42.114092" lon="-2.860323">
        <ele>1082.6</ele>
        <time>2021-07-03T16:31:03.000Z</time>
      </trkpt>
      <trkpt lat="42.114125" lon="-2.860438">
        <ele>1082.3</ele>
        <time>2021-07-03T16:31:04.000Z</time>
      </trkpt>
      <trkpt lat="42.114168" lon="-2.860547">
        <ele>1081.6</ele>
        <time>2021-07-03T16:31:05.000Z</time>
      </trkpt>
      <trkpt lat="42.114223" lon="-2.860648">
        <ele>1081.1</ele>
        <time>2021-07-03T16:31:06.000Z</time>
      </trkpt>
      <trkpt lat="42.114283" lon="-2.860747">
        <ele>1080.7</ele>
        <time>2021-07-03T16:31:07.000Z</time>
      </trkpt>
      <trkpt lat="42.114347" lon="-2.860847">
        <ele>1080.1</ele>
        <time>2021-07-03T16:31:08.000Z</time>
      </trkpt>
      <trkpt lat="42.114407" lon="-2.860952">
        <ele>1079.7</ele>
        <time>2021-07-03T16:31:09.000Z</time>
      </trkpt>
      <trkpt lat="42.114462" lon="-2.861068">
        <ele>1078.5</ele>
        <time>2021-07-03T16:31:10.000Z</time>
      </trkpt>
      <trkpt lat="42.114508" lon="-2.861185">
        <ele>1077.9</ele>
        <time>2021-07-03T16:31:11.000Z</time>
      </trkpt>
      <trkpt lat="42.114552" lon="-2.861302">
        <ele>1077.7</ele>
        <time>2021-07-03T16:31:12.000Z</time>
      </trkpt>
      <trkpt lat="42.114588" lon="-2.861415">
        <ele>1076.9</ele>
        <time>2021-07-03T16:31:13.000Z</time>
      </trkpt>
      <trkpt lat="42.114658" lon="-2.861635">
        <ele>1075.4</ele>
        <time>2021-07-03T16:31:15.000Z</time>
      </trkpt>
      <trkpt lat="42.114707" lon="-2.861740">
        <ele>1074.9</ele>
        <time>2021-07-03T16:31:16.000Z</time>
      </trkpt>
      <trkpt lat="42.114760" lon="-2.861838">
        <ele>1074.2</ele>
        <time>2021-07-03T16:31:17.000Z</time>
      </trkpt>
      <trkpt lat="42.114808" lon="-2.861943">
        <ele>1073.8</ele>
        <time>2021-07-03T16:31:18.000Z</time>
      </trkpt>
      <trkpt lat="42.114843" lon="-2.862057">
        <ele>1073.7</ele>
        <time>2021-07-03T16:31:19.000Z</time>
      </trkpt>
      <trkpt lat="42.114865" lon="-2.862177">
        <ele>1073.6</ele>
        <time>2021-07-03T16:31:20.000Z</time>
      </trkpt>
      <trkpt lat="42.114885" lon="-2.862300">
        <ele>1073.5</ele>
        <time>2021-07-03T16:31:21.000Z</time>
      </trkpt>
      <trkpt lat="42.114903" lon="-2.862427">
        <ele>1073.0</ele>
        <time>2021-07-03T16:31:22.000Z</time>
      </trkpt>
      <trkpt lat="42.114915" lon="-2.862552">
        <ele>1072.4</ele>
        <time>2021-07-03T16:31:23.000Z</time>
      </trkpt>
      <trkpt lat="42.114913" lon="-2.862677">
        <ele>1071.5</ele>
        <time>2021-07-03T16:31:24.000Z</time>
      </trkpt>
      <trkpt lat="42.114902" lon="-2.862800">
        <ele>1070.4</ele>
        <time>2021-07-03T16:31:25.000Z</time>
      </trkpt>
      <trkpt lat="42.114893" lon="-2.862928">
        <ele>1069.8</ele>
        <time>2021-07-03T16:31:26.000Z</time>
      </trkpt>
      <trkpt lat="42.114895" lon="-2.863053">
        <ele>1068.8</ele>
        <time>2021-07-03T16:31:27.000Z</time>
      </trkpt>
      <trkpt lat="42.114960" lon="-2.863267">
        <ele>1067.8</ele>
        <time>2021-07-03T16:31:29.000Z</time>
      </trkpt>
      <trkpt lat="42.115067" lon="-2.863458">
        <ele>1066.3</ele>
        <time>2021-07-03T16:31:31.000Z</time>
      </trkpt>
      <trkpt lat="42.115117" lon="-2.863560">
        <ele>1065.9</ele>
        <time>2021-07-03T16:31:32.000Z</time>
      </trkpt>
      <trkpt lat="42.115195" lon="-2.863778">
        <ele>1065.0</ele>
        <time>2021-07-03T16:31:34.000Z</time>
      </trkpt>
      <trkpt lat="42.115257" lon="-2.864007">
        <ele>1064.5</ele>
        <time>2021-07-03T16:31:36.000Z</time>
      </trkpt>
      <trkpt lat="42.115308" lon="-2.864233">
        <ele>1064.2</ele>
        <time>2021-07-03T16:31:38.000Z</time>
      </trkpt>
      <trkpt lat="42.115353" lon="-2.864452">
        <ele>1064.0</ele>
        <time>2021-07-03T16:31:40.000Z</time>
      </trkpt>
      <trkpt lat="42.115385" lon="-2.864658">
        <ele>1063.9</ele>
        <time>2021-07-03T16:31:42.000Z</time>
      </trkpt>
      <trkpt lat="42.115427" lon="-2.864850">
        <ele>1063.4</ele>
        <time>2021-07-03T16:31:44.000Z</time>
      </trkpt>
      <trkpt lat="42.115527" lon="-2.864988">
        <ele>1062.7</ele>
        <time>2021-07-03T16:31:46.000Z</time>
      </trkpt>
      <trkpt lat="42.115667" lon="-2.865065">
        <ele>1062.2</ele>
        <time>2021-07-03T16:31:48.000Z</time>
      </trkpt>
      <trkpt lat="42.115820" lon="-2.865130">
        <ele>1061.4</ele>
        <time>2021-07-03T16:31:50.000Z</time>
      </trkpt>
      <trkpt lat="42.115960" lon="-2.865240">
        <ele>1060.9</ele>
        <time>2021-07-03T16:31:52.000Z</time>
      </trkpt>
      <trkpt lat="42.116055" lon="-2.865418">
        <ele>1060.2</ele>
        <time>2021-07-03T16:31:54.000Z</time>
      </trkpt>
      <trkpt lat="42.116112" lon="-2.865625">
        <ele>1060.0</ele>
        <time>2021-07-03T16:31:56.000Z</time>
      </trkpt>
      <trkpt lat="42.116118" lon="-2.865853">
        <ele>1059.4</ele>
        <time>2021-07-03T16:31:58.000Z</time>
      </trkpt>
      <trkpt lat="42.116057" lon="-2.866067">
        <ele>1058.4</ele>
        <time>2021-07-03T16:32:00.000Z</time>
      </trkpt>
      <trkpt lat="42.116003" lon="-2.866170">
        <ele>1057.8</ele>
        <time>2021-07-03T16:32:01.000Z</time>
      </trkpt>
      <trkpt lat="42.115942" lon="-2.866267">
        <ele>1056.8</ele>
        <time>2021-07-03T16:32:02.000Z</time>
      </trkpt>
      <trkpt lat="42.115870" lon="-2.866360">
        <ele>1056.5</ele>
        <time>2021-07-03T16:32:03.000Z</time>
      </trkpt>
      <trkpt lat="42.115797" lon="-2.866445">
        <ele>1056.0</ele>
        <time>2021-07-03T16:32:04.000Z</time>
      </trkpt>
      <trkpt lat="42.115682" lon="-2.866597">
        <ele>1054.1</ele>
        <time>2021-07-03T16:32:06.000Z</time>
      </trkpt>
      <trkpt lat="42.115690" lon="-2.866772">
        <ele>1052.5</ele>
        <time>2021-07-03T16:32:08.000Z</time>
      </trkpt>
      <trkpt lat="42.115805" lon="-2.866923">
        <ele>1051.4</ele>
        <time>2021-07-03T16:32:10.000Z</time>
      </trkpt>
      <trkpt lat="42.115940" lon="-2.867068">
        <ele>1050.2</ele>
        <time>2021-07-03T16:32:12.000Z</time>
      </trkpt>
      <trkpt lat="42.116062" lon="-2.867238">
        <ele>1049.3</ele>
        <time>2021-07-03T16:32:14.000Z</time>
      </trkpt>
      <trkpt lat="42.116178" lon="-2.867415">
        <ele>1048.8</ele>
        <time>2021-07-03T16:32:16.000Z</time>
      </trkpt>
      <trkpt lat="42.116332" lon="-2.867513">
        <ele>1047.7</ele>
        <time>2021-07-03T16:32:18.000Z</time>
      </trkpt>
      <trkpt lat="42.116508" lon="-2.867565">
        <ele>1047.2</ele>
        <time>2021-07-03T16:32:20.000Z</time>
      </trkpt>
      <trkpt lat="42.116592" lon="-2.867615">
        <ele>1047.1</ele>
        <time>2021-07-03T16:32:21.000Z</time>
      </trkpt>
      <trkpt lat="42.116668" lon="-2.867683">
        <ele>1046.5</ele>
        <time>2021-07-03T16:32:22.000Z</time>
      </trkpt>
      <trkpt lat="42.116732" lon="-2.867770">
        <ele>1046.2</ele>
        <time>2021-07-03T16:32:23.000Z</time>
      </trkpt>
      <trkpt lat="42.116780" lon="-2.867873">
        <ele>1045.8</ele>
        <time>2021-07-03T16:32:24.000Z</time>
      </trkpt>
      <trkpt lat="42.116843" lon="-2.868102">
        <ele>1044.0</ele>
        <time>2021-07-03T16:32:26.000Z</time>
      </trkpt>
      <trkpt lat="42.116860" lon="-2.868222">
        <ele>1043.1</ele>
        <time>2021-07-03T16:32:27.000Z</time>
      </trkpt>
      <trkpt lat="42.116870" lon="-2.868347">
        <ele>1042.1</ele>
        <time>2021-07-03T16:32:28.000Z</time>
      </trkpt>
      <trkpt lat="42.116887" lon="-2.868575">
        <ele>1040.7</ele>
        <time>2021-07-03T16:32:30.000Z</time>
      </trkpt>
      <trkpt lat="42.116923" lon="-2.868758">
        <ele>1040.2</ele>
        <time>2021-07-03T16:32:32.000Z</time>
      </trkpt>
      <trkpt lat="42.117010" lon="-2.868905">
        <ele>1039.5</ele>
        <time>2021-07-03T16:32:34.000Z</time>
      </trkpt>
      <trkpt lat="42.117120" lon="-2.869010">
        <ele>1038.8</ele>
        <time>2021-07-03T16:32:36.000Z</time>
      </trkpt>
      <trkpt lat="42.117232" lon="-2.869075">
        <ele>1038.7</ele>
        <time>2021-07-03T16:32:38.000Z</time>
      </trkpt>
      <trkpt lat="42.117345" lon="-2.869112">
        <ele>1037.8</ele>
        <time>2021-07-03T16:32:40.000Z</time>
      </trkpt>
      <trkpt lat="42.117463" lon="-2.869142">
        <ele>1037.8</ele>
        <time>2021-07-03T16:32:42.000Z</time>
      </trkpt>
      <trkpt lat="42.117585" lon="-2.869165">
        <ele>1037.4</ele>
        <time>2021-07-03T16:32:44.000Z</time>
      </trkpt>
      <trkpt lat="42.117712" lon="-2.869167">
        <ele>1037.7</ele>
        <time>2021-07-03T16:32:46.000Z</time>
      </trkpt>
      <trkpt lat="42.117842" lon="-2.869152">
        <ele>1036.9</ele>
        <time>2021-07-03T16:32:48.000Z</time>
      </trkpt>
      <trkpt lat="42.117975" lon="-2.869135">
        <ele>1036.3</ele>
        <time>2021-07-03T16:32:50.000Z</time>
      </trkpt>
      <trkpt lat="42.118103" lon="-2.869127">
        <ele>1036.3</ele>
        <time>2021-07-03T16:32:52.000Z</time>
      </trkpt>
      <trkpt lat="42.118228" lon="-2.869118">
        <ele>1036.0</ele>
        <time>2021-07-03T16:32:54.000Z</time>
      </trkpt>
      <trkpt lat="42.118350" lon="-2.869125">
        <ele>1035.8</ele>
        <time>2021-07-03T16:32:56.000Z</time>
      </trkpt>
      <trkpt lat="42.118462" lon="-2.869148">
        <ele>1035.7</ele>
        <time>2021-07-03T16:32:58.000Z</time>
      </trkpt>
      <trkpt lat="42.118560" lon="-2.869188">
        <ele>1035.5</ele>
        <time>2021-07-03T16:33:00.000Z</time>
      </trkpt>
      <trkpt lat="42.118650" lon="-2.869262">
        <ele>1035.5</ele>
        <time>2021-07-03T16:33:02.000Z</time>
      </trkpt>
      <trkpt lat="42.118713" lon="-2.869353">
        <ele>1036.4</ele>
        <time>2021-07-03T16:33:04.000Z</time>
      </trkpt>
      <trkpt lat="42.118757" lon="-2.869478">
        <ele>1036.1</ele>
        <time>2021-07-03T16:33:06.000Z</time>
      </trkpt>
      <trkpt lat="42.118775" lon="-2.869613">
        <ele>1035.8</ele>
        <time>2021-07-03T16:33:08.000Z</time>
      </trkpt>
      <trkpt lat="42.118773" lon="-2.869742">
        <ele>1035.8</ele>
        <time>2021-07-03T16:33:10.000Z</time>
      </trkpt>
      <trkpt lat="42.118757" lon="-2.869862">
        <ele>1035.6</ele>
        <time>2021-07-03T16:33:12.000Z</time>
      </trkpt>
      <trkpt lat="42.118730" lon="-2.869987">
        <ele>1035.2</ele>
        <time>2021-07-03T16:33:14.000Z</time>
      </trkpt>
      <trkpt lat="42.118695" lon="-2.870115">
        <ele>1035.3</ele>
        <time>2021-07-03T16:33:16.000Z</time>
      </trkpt>
      <trkpt lat="42.118660" lon="-2.870247">
        <ele>1035.0</ele>
        <time>2021-07-03T16:33:18.000Z</time>
      </trkpt>
      <trkpt lat="42.118630" lon="-2.870385">
        <ele>1034.6</ele>
        <time>2021-07-03T16:33:20.000Z</time>
      </trkpt>
      <trkpt lat="42.118603" lon="-2.870528">
        <ele>1034.3</ele>
        <time>2021-07-03T16:33:22.000Z</time>
      </trkpt>
      <trkpt lat="42.118587" lon="-2.870682">
        <ele>1034.3</ele>
        <time>2021-07-03T16:33:24.000Z</time>
      </trkpt>
      <trkpt lat="42.118590" lon="-2.870832">
        <ele>1033.3</ele>
        <time>2021-07-03T16:33:26.000Z</time>
      </trkpt>
      <trkpt lat="42.118615" lon="-2.870965">
        <ele>1032.7</ele>
        <time>2021-07-03T16:33:28.000Z</time>
      </trkpt>
      <trkpt lat="42.118663" lon="-2.871083">
        <ele>1032.6</ele>
        <time>2021-07-03T16:33:30.000Z</time>
      </trkpt>
      <trkpt lat="42.118727" lon="-2.871198">
        <ele>1032.4</ele>
        <time>2021-07-03T16:33:32.000Z</time>
      </trkpt>
      <trkpt lat="42.118802" lon="-2.871318">
        <ele>1031.7</ele>
        <time>2021-07-03T16:33:34.000Z</time>
      </trkpt>
      <trkpt lat="42.118887" lon="-2.871438">
        <ele>1031.0</ele>
        <time>2021-07-03T16:33:36.000Z</time>
      </trkpt>
      <trkpt lat="42.118983" lon="-2.871558">
        <ele>1030.2</ele>
        <time>2021-07-03T16:33:38.000Z</time>
      </trkpt>
      <trkpt lat="42.119105" lon="-2.871647">
        <ele>1029.6</ele>
        <time>2021-07-03T16:33:40.000Z</time>
      </trkpt>
      <trkpt lat="42.119242" lon="-2.871692">
        <ele>1029.5</ele>
        <time>2021-07-03T16:33:42.000Z</time>
      </trkpt>
      <trkpt lat="42.119383" lon="-2.871693">
        <ele>1029.4</ele>
        <time>2021-07-03T16:33:44.000Z</time>
      </trkpt>
      <trkpt lat="42.119523" lon="-2.871642">
        <ele>1029.0</ele>
        <time>2021-07-03T16:33:46.000Z</time>
      </trkpt>
      <trkpt lat="42.119650" lon="-2.871548">
        <ele>1029.3</ele>
        <time>2021-07-03T16:33:48.000Z</time>
      </trkpt>
      <trkpt lat="42.119773" lon="-2.871463">
        <ele>1029.1</ele>
        <time>2021-07-03T16:33:50.000Z</time>
      </trkpt>
      <trkpt lat="42.119895" lon="-2.871423">
        <ele>1029.2</ele>
        <time>2021-07-03T16:33:52.000Z</time>
      </trkpt>
      <trkpt lat="42.120013" lon="-2.871415">
        <ele>1029.2</ele>
        <time>2021-07-03T16:33:54.000Z</time>
      </trkpt>
      <trkpt lat="42.120127" lon="-2.871427">
        <ele>1028.9</ele>
        <time>2021-07-03T16:33:56.000Z</time>
      </trkpt>
      <trkpt lat="42.120245" lon="-2.871450">
        <ele>1028.7</ele>
        <time>2021-07-03T16:33:58.000Z</time>
      </trkpt>
      <trkpt lat="42.120363" lon="-2.871473">
        <ele>1028.5</ele>
        <time>2021-07-03T16:34:00.000Z</time>
      </trkpt>
      <trkpt lat="42.120490" lon="-2.871470">
        <ele>1028.0</ele>
        <time>2021-07-03T16:34:02.000Z</time>
      </trkpt>
      <trkpt lat="42.120608" lon="-2.871413">
        <ele>1027.5</ele>
        <time>2021-07-03T16:34:04.000Z</time>
      </trkpt>
      <trkpt lat="42.120707" lon="-2.871315">
        <ele>1027.8</ele>
        <time>2021-07-03T16:34:06.000Z</time>
      </trkpt>
      <trkpt lat="42.120782" lon="-2.871203">
        <ele>1027.4</ele>
        <time>2021-07-03T16:34:08.000Z</time>
      </trkpt>
      <trkpt lat="42.120898" lon="-2.871137">
        <ele>1027.6</ele>
        <time>2021-07-03T16:34:11.000Z</time>
      </trkpt>
      <trkpt lat="42.121012" lon="-2.871198">
        <ele>1027.4</ele>
        <time>2021-07-03T16:34:14.000Z</time>
      </trkpt>
      <trkpt lat="42.121140" lon="-2.871210">
        <ele>1027.2</ele>
        <time>2021-07-03T16:34:17.000Z</time>
      </trkpt>
      <trkpt lat="42.121242" lon="-2.871178">
        <ele>1027.0</ele>
        <time>2021-07-03T16:34:19.000Z</time>
      </trkpt>
      <trkpt lat="42.121353" lon="-2.871165">
        <ele>1026.6</ele>
        <time>2021-07-03T16:34:21.000Z</time>
      </trkpt>
      <trkpt lat="42.121470" lon="-2.871220">
        <ele>1025.9</ele>
        <time>2021-07-03T16:34:23.000Z</time>
      </trkpt>
      <trkpt lat="42.121557" lon="-2.871357">
        <ele>1025.2</ele>
        <time>2021-07-03T16:34:25.000Z</time>
      </trkpt>
      <trkpt lat="42.121607" lon="-2.871535">
        <ele>1024.3</ele>
        <time>2021-07-03T16:34:27.000Z</time>
      </trkpt>
      <trkpt lat="42.121657" lon="-2.871713">
        <ele>1024.2</ele>
        <time>2021-07-03T16:34:29.000Z</time>
      </trkpt>
      <trkpt lat="42.121673" lon="-2.871885">
        <ele>1024.1</ele>
        <time>2021-07-03T16:34:31.000Z</time>
      </trkpt>
      <trkpt lat="42.121707" lon="-2.872065">
        <ele>1022.8</ele>
        <time>2021-07-03T16:34:33.000Z</time>
      </trkpt>
      <trkpt lat="42.121820" lon="-2.872225">
        <ele>1021.2</ele>
        <time>2021-07-03T16:34:35.000Z</time>
      </trkpt>
      <trkpt lat="42.121960" lon="-2.872368">
        <ele>1020.3</ele>
        <time>2021-07-03T16:34:37.000Z</time>
      </trkpt>
      <trkpt lat="42.122115" lon="-2.872470">
        <ele>1019.9</ele>
        <time>2021-07-03T16:34:39.000Z</time>
      </trkpt>
      <trkpt lat="42.122278" lon="-2.872558">
        <ele>1018.7</ele>
        <time>2021-07-03T16:34:41.000Z</time>
      </trkpt>
      <trkpt lat="42.122442" lon="-2.872633">
        <ele>1017.6</ele>
        <time>2021-07-03T16:34:43.000Z</time>
      </trkpt>
      <trkpt lat="42.122573" lon="-2.872662">
        <ele>1016.3</ele>
        <time>2021-07-03T16:34:45.000Z</time>
      </trkpt>
      <trkpt lat="42.122667" lon="-2.872768">
        <ele>1015.5</ele>
        <time>2021-07-03T16:34:47.000Z</time>
      </trkpt>
      <trkpt lat="42.122742" lon="-2.872925">
        <ele>1014.5</ele>
        <time>2021-07-03T16:34:49.000Z</time>
      </trkpt>
      <trkpt lat="42.122868" lon="-2.873032">
        <ele>1013.4</ele>
        <time>2021-07-03T16:34:51.000Z</time>
      </trkpt>
      <trkpt lat="42.123027" lon="-2.873097">
        <ele>1012.4</ele>
        <time>2021-07-03T16:34:53.000Z</time>
      </trkpt>
      <trkpt lat="42.123115" lon="-2.873123">
        <ele>1011.7</ele>
        <time>2021-07-03T16:34:54.000Z</time>
      </trkpt>
      <trkpt lat="42.123208" lon="-2.873147">
        <ele>1010.9</ele>
        <time>2021-07-03T16:34:55.000Z</time>
      </trkpt>
      <trkpt lat="42.123305" lon="-2.873167">
        <ele>1010.5</ele>
        <time>2021-07-03T16:34:56.000Z</time>
      </trkpt>
      <trkpt lat="42.123398" lon="-2.873165">
        <ele>1010.3</ele>
        <time>2021-07-03T16:34:57.000Z</time>
      </trkpt>
      <trkpt lat="42.123567" lon="-2.873083">
        <ele>1009.7</ele>
        <time>2021-07-03T16:34:59.000Z</time>
      </trkpt>
      <trkpt lat="42.123692" lon="-2.872930">
        <ele>1008.4</ele>
        <time>2021-07-03T16:35:01.000Z</time>
      </trkpt>
      <trkpt lat="42.123777" lon="-2.872732">
        <ele>1007.1</ele>
        <time>2021-07-03T16:35:03.000Z</time>
      </trkpt>
      <trkpt lat="42.123868" lon="-2.872555">
        <ele>1005.9</ele>
        <time>2021-07-03T16:35:05.000Z</time>
      </trkpt>
      <trkpt lat="42.124002" lon="-2.872425">
        <ele>1004.8</ele>
        <time>2021-07-03T16:35:07.000Z</time>
      </trkpt>
      <trkpt lat="42.124160" lon="-2.872363">
        <ele>1004.0</ele>
        <time>2021-07-03T16:35:09.000Z</time>
      </trkpt>
      <trkpt lat="42.124330" lon="-2.872357">
        <ele>1003.6</ele>
        <time>2021-07-03T16:35:11.000Z</time>
      </trkpt>
      <trkpt lat="42.124483" lon="-2.872375">
        <ele>1004.0</ele>
        <time>2021-07-03T16:35:13.000Z</time>
      </trkpt>
      <trkpt lat="42.124568" lon="-2.872475">
        <ele>1003.8</ele>
        <time>2021-07-03T16:35:15.000Z</time>
      </trkpt>
      <trkpt lat="42.124627" lon="-2.872623">
        <ele>1003.0</ele>
        <time>2021-07-03T16:35:17.000Z</time>
      </trkpt>
      <trkpt lat="42.124680" lon="-2.872777">
        <ele>1002.9</ele>
        <time>2021-07-03T16:35:19.000Z</time>
      </trkpt>
      <trkpt lat="42.124685" lon="-2.872943">
        <ele>1002.8</ele>
        <time>2021-07-03T16:35:21.000Z</time>
      </trkpt>
      <trkpt lat="42.124638" lon="-2.873107">
        <ele>1002.6</ele>
        <time>2021-07-03T16:35:23.000Z</time>
      </trkpt>
      <trkpt lat="42.124577" lon="-2.873273">
        <ele>1002.5</ele>
        <time>2021-07-03T16:35:25.000Z</time>
      </trkpt>
      <trkpt lat="42.124512" lon="-2.873437">
        <ele>1002.2</ele>
        <time>2021-07-03T16:35:27.000Z</time>
      </trkpt>
      <trkpt lat="42.124443" lon="-2.873598">
        <ele>1001.3</ele>
        <time>2021-07-03T16:35:29.000Z</time>
      </trkpt>
      <trkpt lat="42.124370" lon="-2.873762">
        <ele>1001.4</ele>
        <time>2021-07-03T16:35:31.000Z</time>
      </trkpt>
      <trkpt lat="42.124293" lon="-2.873922">
        <ele>1000.9</ele>
        <time>2021-07-03T16:35:33.000Z</time>
      </trkpt>
      <trkpt lat="42.124232" lon="-2.874092">
        <ele>1000.4</ele>
        <time>2021-07-03T16:35:35.000Z</time>
      </trkpt>
      <trkpt lat="42.124208" lon="-2.874278">
        <ele>1000.2</ele>
        <time>2021-07-03T16:35:37.000Z</time>
      </trkpt>
      <trkpt lat="42.124257" lon="-2.874463">
        <ele>999.6</ele>
        <time>2021-07-03T16:35:39.000Z</time>
      </trkpt>
      <trkpt lat="42.124347" lon="-2.874637">
        <ele>998.4</ele>
        <time>2021-07-03T16:35:41.000Z</time>
      </trkpt>
      <trkpt lat="42.124453" lon="-2.874798">
        <ele>997.4</ele>
        <time>2021-07-03T16:35:43.000Z</time>
      </trkpt>
      <trkpt lat="42.124582" lon="-2.874930">
        <ele>996.2</ele>
        <time>2021-07-03T16:35:45.000Z</time>
      </trkpt>
      <trkpt lat="42.124738" lon="-2.874953">
        <ele>995.2</ele>
        <time>2021-07-03T16:35:47.000Z</time>
      </trkpt>
      <trkpt lat="42.124903" lon="-2.874900">
        <ele>994.8</ele>
        <time>2021-07-03T16:35:49.000Z</time>
      </trkpt>
      <trkpt lat="42.125070" lon="-2.874808">
        <ele>993.6</ele>
        <time>2021-07-03T16:35:51.000Z</time>
      </trkpt>
      <trkpt lat="42.125157" lon="-2.874773">
        <ele>993.5</ele>
        <time>2021-07-03T16:35:52.000Z</time>
      </trkpt>
      <trkpt lat="42.125245" lon="-2.874745">
        <ele>993.2</ele>
        <time>2021-07-03T16:35:53.000Z</time>
      </trkpt>
      <trkpt lat="42.125410" lon="-2.874695">
        <ele>992.0</ele>
        <time>2021-07-03T16:35:55.000Z</time>
      </trkpt>
      <trkpt lat="42.125558" lon="-2.874602">
        <ele>991.6</ele>
        <time>2021-07-03T16:35:57.000Z</time>
      </trkpt>
      <trkpt lat="42.125672" lon="-2.874462">
        <ele>991.2</ele>
        <time>2021-07-03T16:35:59.000Z</time>
      </trkpt>
      <trkpt lat="42.125742" lon="-2.874322">
        <ele>991.6</ele>
        <time>2021-07-03T16:36:01.000Z</time>
      </trkpt>
      <trkpt lat="42.125795" lon="-2.874197">
        <ele>991.9</ele>
        <time>2021-07-03T16:36:03.000Z</time>
      </trkpt>
      <trkpt lat="42.125855" lon="-2.874098">
        <ele>992.2</ele>
        <time>2021-07-03T16:36:05.000Z</time>
      </trkpt>
      <trkpt lat="42.125930" lon="-2.874023">
        <ele>992.8</ele>
        <time>2021-07-03T16:36:07.000Z</time>
      </trkpt>
      <trkpt lat="42.126015" lon="-2.873973">
        <ele>993.4</ele>
        <time>2021-07-03T16:36:09.000Z</time>
      </trkpt>
      <trkpt lat="42.126107" lon="-2.873938">
        <ele>993.0</ele>
        <time>2021-07-03T16:36:11.000Z</time>
      </trkpt>
      <trkpt lat="42.126202" lon="-2.873915">
        <ele>992.9</ele>
        <time>2021-07-03T16:36:13.000Z</time>
      </trkpt>
      <trkpt lat="42.126307" lon="-2.873928">
        <ele>993.6</ele>
        <time>2021-07-03T16:36:15.000Z</time>
      </trkpt>
      <trkpt lat="42.126410" lon="-2.873985">
        <ele>993.7</ele>
        <time>2021-07-03T16:36:17.000Z</time>
      </trkpt>
      <trkpt lat="42.126500" lon="-2.874073">
        <ele>993.7</ele>
        <time>2021-07-03T16:36:19.000Z</time>
      </trkpt>
      <trkpt lat="42.126568" lon="-2.874183">
        <ele>993.1</ele>
        <time>2021-07-03T16:36:21.000Z</time>
      </trkpt>
      <trkpt lat="42.126635" lon="-2.874315">
        <ele>992.7</ele>
        <time>2021-07-03T16:36:23.000Z</time>
      </trkpt>
      <trkpt lat="42.126700" lon="-2.874463">
        <ele>992.1</ele>
        <time>2021-07-03T16:36:25.000Z</time>
      </trkpt>
      <trkpt lat="42.126758" lon="-2.874627">
        <ele>991.4</ele>
        <time>2021-07-03T16:36:27.000Z</time>
      </trkpt>
      <trkpt lat="42.126813" lon="-2.874802">
        <ele>990.5</ele>
        <time>2021-07-03T16:36:29.000Z</time>
      </trkpt>
      <trkpt lat="42.126857" lon="-2.874992">
        <ele>990.0</ele>
        <time>2021-07-03T16:36:31.000Z</time>
      </trkpt>
      <trkpt lat="42.126892" lon="-2.875183">
        <ele>989.5</ele>
        <time>2021-07-03T16:36:33.000Z</time>
      </trkpt>
      <trkpt lat="42.126918" lon="-2.875382">
        <ele>988.7</ele>
        <time>2021-07-03T16:36:35.000Z</time>
      </trkpt>
      <trkpt lat="42.126918" lon="-2.875595">
        <ele>987.9</ele>
        <time>2021-07-03T16:36:37.000Z</time>
      </trkpt>
      <trkpt lat="42.126882" lon="-2.875807">
        <ele>986.9</ele>
        <time>2021-07-03T16:36:39.000Z</time>
      </trkpt>
      <trkpt lat="42.126810" lon="-2.876012">
        <ele>986.1</ele>
        <time>2021-07-03T16:36:41.000Z</time>
      </trkpt>
      <trkpt lat="42.126720" lon="-2.876213">
        <ele>985.4</ele>
        <time>2021-07-03T16:36:43.000Z</time>
      </trkpt>
      <trkpt lat="42.126622" lon="-2.876410">
        <ele>984.4</ele>
        <time>2021-07-03T16:36:45.000Z</time>
      </trkpt>
      <trkpt lat="42.126520" lon="-2.876613">
        <ele>983.5</ele>
        <time>2021-07-03T16:36:47.000Z</time>
      </trkpt>
      <trkpt lat="42.126468" lon="-2.876717">
        <ele>982.8</ele>
        <time>2021-07-03T16:36:48.000Z</time>
      </trkpt>
      <trkpt lat="42.126415" lon="-2.876818">
        <ele>982.2</ele>
        <time>2021-07-03T16:36:49.000Z</time>
      </trkpt>
      <trkpt lat="42.126333" lon="-2.877032">
        <ele>981.8</ele>
        <time>2021-07-03T16:36:51.000Z</time>
      </trkpt>
      <trkpt lat="42.126325" lon="-2.877255">
        <ele>980.6</ele>
        <time>2021-07-03T16:36:53.000Z</time>
      </trkpt>
      <trkpt lat="42.126400" lon="-2.877437">
        <ele>979.9</ele>
        <time>2021-07-03T16:36:55.000Z</time>
      </trkpt>
      <trkpt lat="42.126522" lon="-2.877575">
        <ele>979.6</ele>
        <time>2021-07-03T16:36:57.000Z</time>
      </trkpt>
      <trkpt lat="42.126658" lon="-2.877680">
        <ele>979.0</ele>
        <time>2021-07-03T16:36:59.000Z</time>
      </trkpt>
      <trkpt lat="42.126803" lon="-2.877763">
        <ele>978.8</ele>
        <time>2021-07-03T16:37:01.000Z</time>
      </trkpt>
      <trkpt lat="42.126957" lon="-2.877822">
        <ele>978.5</ele>
        <time>2021-07-03T16:37:03.000Z</time>
      </trkpt>
      <trkpt lat="42.127108" lon="-2.877887">
        <ele>977.9</ele>
        <time>2021-07-03T16:37:05.000Z</time>
      </trkpt>
      <trkpt lat="42.127248" lon="-2.877995">
        <ele>977.5</ele>
        <time>2021-07-03T16:37:07.000Z</time>
      </trkpt>
      <trkpt lat="42.127373" lon="-2.878135">
        <ele>977.0</ele>
        <time>2021-07-03T16:37:09.000Z</time>
      </trkpt>
      <trkpt lat="42.127480" lon="-2.878300">
        <ele>976.7</ele>
        <time>2021-07-03T16:37:11.000Z</time>
      </trkpt>
      <trkpt lat="42.127557" lon="-2.878477">
        <ele>975.9</ele>
        <time>2021-07-03T16:37:13.000Z</time>
      </trkpt>
      <trkpt lat="42.127590" lon="-2.878662">
        <ele>976.2</ele>
        <time>2021-07-03T16:37:15.000Z</time>
      </trkpt>
      <trkpt lat="42.127567" lon="-2.878837">
        <ele>976.1</ele>
        <time>2021-07-03T16:37:17.000Z</time>
      </trkpt>
      <trkpt lat="42.127492" lon="-2.878990">
        <ele>976.0</ele>
        <time>2021-07-03T16:37:19.000Z</time>
      </trkpt>
      <trkpt lat="42.127407" lon="-2.879118">
        <ele>975.8</ele>
        <time>2021-07-03T16:37:21.000Z</time>
      </trkpt>
      <trkpt lat="42.127358" lon="-2.879265">
        <ele>975.0</ele>
        <time>2021-07-03T16:37:23.000Z</time>
      </trkpt>
      <trkpt lat="42.127382" lon="-2.879423">
        <ele>974.8</ele>
        <time>2021-07-03T16:37:25.000Z</time>
      </trkpt>
      <trkpt lat="42.127453" lon="-2.879558">
        <ele>974.4</ele>
        <time>2021-07-03T16:37:27.000Z</time>
      </trkpt>
      <trkpt lat="42.127540" lon="-2.879677">
        <ele>973.8</ele>
        <time>2021-07-03T16:37:29.000Z</time>
      </trkpt>
      <trkpt lat="42.127632" lon="-2.879788">
        <ele>974.4</ele>
        <time>2021-07-03T16:37:31.000Z</time>
      </trkpt>
      <trkpt lat="42.127722" lon="-2.879898">
        <ele>973.8</ele>
        <time>2021-07-03T16:37:33.000Z</time>
      </trkpt>
      <trkpt lat="42.127813" lon="-2.880007">
        <ele>973.2</ele>
        <time>2021-07-03T16:37:35.000Z</time>
      </trkpt>
      <trkpt lat="42.127910" lon="-2.880113">
        <ele>973.0</ele>
        <time>2021-07-03T16:37:37.000Z</time>
      </trkpt>
      <trkpt lat="42.128013" lon="-2.880217">
        <ele>972.4</ele>
        <time>2021-07-03T16:37:39.000Z</time>
      </trkpt>
      <trkpt lat="42.128128" lon="-2.880318">
        <ele>971.6</ele>
        <time>2021-07-03T16:37:41.000Z</time>
      </trkpt>
      <trkpt lat="42.128245" lon="-2.880428">
        <ele>971.2</ele>
        <time>2021-07-03T16:37:43.000Z</time>
      </trkpt>
      <trkpt lat="42.128360" lon="-2.880543">
        <ele>970.8</ele>
        <time>2021-07-03T16:37:45.000Z</time>
      </trkpt>
      <trkpt lat="42.128475" lon="-2.880660">
        <ele>970.3</ele>
        <time>2021-07-03T16:37:47.000Z</time>
      </trkpt>
      <trkpt lat="42.128585" lon="-2.880790">
        <ele>969.7</ele>
        <time>2021-07-03T16:37:49.000Z</time>
      </trkpt>
      <trkpt lat="42.128687" lon="-2.880938">
        <ele>969.4</ele>
        <time>2021-07-03T16:37:51.000Z</time>
      </trkpt>
      <trkpt lat="42.128773" lon="-2.881102">
        <ele>969.1</ele>
        <time>2021-07-03T16:37:53.000Z</time>
      </trkpt>
      <trkpt lat="42.128850" lon="-2.881277">
        <ele>968.4</ele>
        <time>2021-07-03T16:37:55.000Z</time>
      </trkpt>
      <trkpt lat="42.128912" lon="-2.881455">
        <ele>968.0</ele>
        <time>2021-07-03T16:37:57.000Z</time>
      </trkpt>
      <trkpt lat="42.128965" lon="-2.881627">
        <ele>967.9</ele>
        <time>2021-07-03T16:37:59.000Z</time>
      </trkpt>
      <trkpt lat="42.129012" lon="-2.881802">
        <ele>967.7</ele>
        <time>2021-07-03T16:38:01.000Z</time>
      </trkpt>
      <trkpt lat="42.129062" lon="-2.881973">
        <ele>967.2</ele>
        <time>2021-07-03T16:38:03.000Z</time>
      </trkpt>
      <trkpt lat="42.129112" lon="-2.882138">
        <ele>966.4</ele>
        <time>2021-07-03T16:38:05.000Z</time>
      </trkpt>
      <trkpt lat="42.129162" lon="-2.882292">
        <ele>965.7</ele>
        <time>2021-07-03T16:38:07.000Z</time>
      </trkpt>
      <trkpt lat="42.129227" lon="-2.882425">
        <ele>965.8</ele>
        <time>2021-07-03T16:38:09.000Z</time>
      </trkpt>
      <trkpt lat="42.129308" lon="-2.882540">
        <ele>965.8</ele>
        <time>2021-07-03T16:38:11.000Z</time>
      </trkpt>
      <trkpt lat="42.129392" lon="-2.882665">
        <ele>965.7</ele>
        <time>2021-07-03T16:38:13.000Z</time>
      </trkpt>
      <trkpt lat="42.129490" lon="-2.882790">
        <ele>965.1</ele>
        <time>2021-07-03T16:38:15.000Z</time>
      </trkpt>
      <trkpt lat="42.129597" lon="-2.882917">
        <ele>965.3</ele>
        <time>2021-07-03T16:38:17.000Z</time>
      </trkpt>
      <trkpt lat="42.129702" lon="-2.883052">
        <ele>964.1</ele>
        <time>2021-07-03T16:38:19.000Z</time>
      </trkpt>
      <trkpt lat="42.129800" lon="-2.883183">
        <ele>963.6</ele>
        <time>2021-07-03T16:38:21.000Z</time>
      </trkpt>
      <trkpt lat="42.129897" lon="-2.883307">
        <ele>963.0</ele>
        <time>2021-07-03T16:38:23.000Z</time>
      </trkpt>
      <trkpt lat="42.129988" lon="-2.883445">
        <ele>962.7</ele>
        <time>2021-07-03T16:38:25.000Z</time>
      </trkpt>
      <trkpt lat="42.130067" lon="-2.883610">
        <ele>962.4</ele>
        <time>2021-07-03T16:38:27.000Z</time>
      </trkpt>
      <trkpt lat="42.130132" lon="-2.883798">
        <ele>961.5</ele>
        <time>2021-07-03T16:38:29.000Z</time>
      </trkpt>
      <trkpt lat="42.130187" lon="-2.884008">
        <ele>960.5</ele>
        <time>2021-07-03T16:38:31.000Z</time>
      </trkpt>
      <trkpt lat="42.130237" lon="-2.884235">
        <ele>958.4</ele>
        <time>2021-07-03T16:38:33.000Z</time>
      </trkpt>
      <trkpt lat="42.130265" lon="-2.884352">
        <ele>957.5</ele>
        <time>2021-07-03T16:38:34.000Z</time>
      </trkpt>
      <trkpt lat="42.130297" lon="-2.884470">
        <ele>956.3</ele>
        <time>2021-07-03T16:38:35.000Z</time>
      </trkpt>
      <trkpt lat="42.130337" lon="-2.884587">
        <ele>955.8</ele>
        <time>2021-07-03T16:38:36.000Z</time>
      </trkpt>
      <trkpt lat="42.130388" lon="-2.884693">
        <ele>955.5</ele>
        <time>2021-07-03T16:38:37.000Z</time>
      </trkpt>
      <trkpt lat="42.130455" lon="-2.884785">
        <ele>954.9</ele>
        <time>2021-07-03T16:38:38.000Z</time>
      </trkpt>
      <trkpt lat="42.130537" lon="-2.884862">
        <ele>954.0</ele>
        <time>2021-07-03T16:38:39.000Z</time>
      </trkpt>
      <trkpt lat="42.130623" lon="-2.884928">
        <ele>953.1</ele>
        <time>2021-07-03T16:38:40.000Z</time>
      </trkpt>
      <trkpt lat="42.130713" lon="-2.884992">
        <ele>952.8</ele>
        <time>2021-07-03T16:38:41.000Z</time>
      </trkpt>
      <trkpt lat="42.130803" lon="-2.885055">
        <ele>952.5</ele>
        <time>2021-07-03T16:38:42.000Z</time>
      </trkpt>
      <trkpt lat="42.130895" lon="-2.885118">
        <ele>952.4</ele>
        <time>2021-07-03T16:38:43.000Z</time>
      </trkpt>
      <trkpt lat="42.130988" lon="-2.885180">
        <ele>951.8</ele>
        <time>2021-07-03T16:38:44.000Z</time>
      </trkpt>
      <trkpt lat="42.131082" lon="-2.885243">
        <ele>951.5</ele>
        <time>2021-07-03T16:38:45.000Z</time>
      </trkpt>
      <trkpt lat="42.131178" lon="-2.885303">
        <ele>951.6</ele>
        <time>2021-07-03T16:38:46.000Z</time>
      </trkpt>
      <trkpt lat="42.131275" lon="-2.885362">
        <ele>951.3</ele>
        <time>2021-07-03T16:38:47.000Z</time>
      </trkpt>
      <trkpt lat="42.131372" lon="-2.885420">
        <ele>950.8</ele>
        <time>2021-07-03T16:38:48.000Z</time>
      </trkpt>
      <trkpt lat="42.131465" lon="-2.885485">
        <ele>950.6</ele>
        <time>2021-07-03T16:38:49.000Z</time>
      </trkpt>
      <trkpt lat="42.131555" lon="-2.885553">
        <ele>950.1</ele>
        <time>2021-07-03T16:38:50.000Z</time>
      </trkpt>
      <trkpt lat="42.131635" lon="-2.885623">
        <ele>949.8</ele>
        <time>2021-07-03T16:38:51.000Z</time>
      </trkpt>
      <trkpt lat="42.131708" lon="-2.885700">
        <ele>950.3</ele>
        <time>2021-07-03T16:38:52.000Z</time>
      </trkpt>
      <trkpt lat="42.131847" lon="-2.885843">
        <ele>950.4</ele>
        <time>2021-07-03T16:38:54.000Z</time>
      </trkpt>
      <trkpt lat="42.131985" lon="-2.885957">
        <ele>949.4</ele>
        <time>2021-07-03T16:38:56.000Z</time>
      </trkpt>
      <trkpt lat="42.132123" lon="-2.886037">
        <ele>948.5</ele>
        <time>2021-07-03T16:38:58.000Z</time>
      </trkpt>
      <trkpt lat="42.132242" lon="-2.886088">
        <ele>947.8</ele>
        <time>2021-07-03T16:39:00.000Z</time>
      </trkpt>
      <trkpt lat="42.132357" lon="-2.886122">
        <ele>947.7</ele>
        <time>2021-07-03T16:39:02.000Z</time>
      </trkpt>
      <trkpt lat="42.132470" lon="-2.886138">
        <ele>947.8</ele>
        <time>2021-07-03T16:39:04.000Z</time>
      </trkpt>
      <trkpt lat="42.132578" lon="-2.886153">
        <ele>946.7</ele>
        <time>2021-07-03T16:39:06.000Z</time>
      </trkpt>
      <trkpt lat="42.132677" lon="-2.886177">
        <ele>946.7</ele>
        <time>2021-07-03T16:39:08.000Z</time>
      </trkpt>
      <trkpt lat="42.132768" lon="-2.886195">
        <ele>947.0</ele>
        <time>2021-07-03T16:39:10.000Z</time>
      </trkpt>
      <trkpt lat="42.132900" lon="-2.886212">
        <ele>945.9</ele>
        <time>2021-07-03T16:39:13.000Z</time>
      </trkpt>
      <trkpt lat="42.133025" lon="-2.886225">
        <ele>946.0</ele>
        <time>2021-07-03T16:39:16.000Z</time>
      </trkpt>
      <trkpt lat="42.133143" lon="-2.886250">
        <ele>944.5</ele>
        <time>2021-07-03T16:39:19.000Z</time>
      </trkpt>
      <trkpt lat="42.133260" lon="-2.886280">
        <ele>944.2</ele>
        <time>2021-07-03T16:39:22.000Z</time>
      </trkpt>
      <trkpt lat="42.133362" lon="-2.886328">
        <ele>944.2</ele>
        <time>2021-07-03T16:39:25.000Z</time>
      </trkpt>
      <trkpt lat="42.133458" lon="-2.886368">
        <ele>944.4</ele>
        <time>2021-07-03T16:39:30.000Z</time>
      </trkpt>
      <trkpt lat="42.133475" lon="-2.886413">
        <ele>944.3</ele>
        <time>2021-07-03T16:39:36.000Z</time>
      </trkpt>
      <trkpt lat="42.133478" lon="-2.886413">
        <ele>944.1</ele>
        <time>2021-07-03T16:39:37.000Z</time>
      </trkpt>
      <trkpt lat="42.133478" lon="-2.886413">
        <ele>944.0</ele>
        <time>2021-07-03T16:39:38.000Z</time>
      </trkpt>
      <trkpt lat="42.133477" lon="-2.886412">
        <ele>944.6</ele>
        <time>2021-07-03T16:45:46.000Z</time>
      </trkpt>
      <trkpt lat="42.133478" lon="-2.886397">
        <ele>944.3</ele>
        <time>2021-07-03T16:45:50.000Z</time>
      </trkpt>
      <trkpt lat="42.133477" lon="-2.886397">
        <ele>944.2</ele>
        <time>2021-07-03T16:45:52.000Z</time>
      </trkpt>
      <trkpt lat="42.133477" lon="-2.886397">
        <ele>944.0</ele>
        <time>2021-07-03T16:45:53.000Z</time>
      </trkpt>
      <trkpt lat="42.133482" lon="-2.886388">
        <ele>944.1</ele>
        <time>2021-07-03T16:46:03.000Z</time>
      </trkpt>
      <trkpt lat="42.133578" lon="-2.886373">
        <ele>944.2</ele>
        <time>2021-07-03T16:46:10.000Z</time>
      </trkpt>
      <trkpt lat="42.133683" lon="-2.886380">
        <ele>943.9</ele>
        <time>2021-07-03T16:46:15.000Z</time>
      </trkpt>
      <trkpt lat="42.133707" lon="-2.886390">
        <ele>943.5</ele>
        <time>2021-07-03T16:46:18.000Z</time>
      </trkpt>
      <trkpt lat="42.133713" lon="-2.886388">
        <ele>943.7</ele>
        <time>2021-07-03T16:46:24.000Z</time>
      </trkpt>
      <trkpt lat="42.133817" lon="-2.886368">
        <ele>943.8</ele>
        <time>2021-07-03T16:46:29.000Z</time>
      </trkpt>
      <trkpt lat="42.133913" lon="-2.886385">
        <ele>943.6</ele>
        <time>2021-07-03T16:46:32.000Z</time>
      </trkpt>
      <trkpt lat="42.134008" lon="-2.886432">
        <ele>943.4</ele>
        <time>2021-07-03T16:46:35.000Z</time>
      </trkpt>
      <trkpt lat="42.134097" lon="-2.886492">
        <ele>943.7</ele>
        <time>2021-07-03T16:46:38.000Z</time>
      </trkpt>
      <trkpt lat="42.134187" lon="-2.886573">
        <ele>943.2</ele>
        <time>2021-07-03T16:46:41.000Z</time>
      </trkpt>
      <trkpt lat="42.134283" lon="-2.886698">
        <ele>942.4</ele>
        <time>2021-07-03T16:46:44.000Z</time>
      </trkpt>
      <trkpt lat="42.134348" lon="-2.886793">
        <ele>942.4</ele>
        <time>2021-07-03T16:46:46.000Z</time>
      </trkpt>
      <trkpt lat="42.134410" lon="-2.886895">
        <ele>942.3</ele>
        <time>2021-07-03T16:46:48.000Z</time>
      </trkpt>
      <trkpt lat="42.134468" lon="-2.887002">
        <ele>941.6</ele>
        <time>2021-07-03T16:46:50.000Z</time>
      </trkpt>
      <trkpt lat="42.134525" lon="-2.887112">
        <ele>941.7</ele>
        <time>2021-07-03T16:46:52.000Z</time>
      </trkpt>
      <trkpt lat="42.134575" lon="-2.887227">
        <ele>941.7</ele>
        <time>2021-07-03T16:46:54.000Z</time>
      </trkpt>
      <trkpt lat="42.134623" lon="-2.887345">
        <ele>941.4</ele>
        <time>2021-07-03T16:46:56.000Z</time>
      </trkpt>
      <trkpt lat="42.134672" lon="-2.887470">
        <ele>940.9</ele>
        <time>2021-07-03T16:46:58.000Z</time>
      </trkpt>
      <trkpt lat="42.134718" lon="-2.887600">
        <ele>940.9</ele>
        <time>2021-07-03T16:47:00.000Z</time>
      </trkpt>
      <trkpt lat="42.134775" lon="-2.887728">
        <ele>940.9</ele>
        <time>2021-07-03T16:47:02.000Z</time>
      </trkpt>
      <trkpt lat="42.134840" lon="-2.887855">
        <ele>941.2</ele>
        <time>2021-07-03T16:47:04.000Z</time>
      </trkpt>
      <trkpt lat="42.134903" lon="-2.887980">
        <ele>941.5</ele>
        <time>2021-07-03T16:47:06.000Z</time>
      </trkpt>
      <trkpt lat="42.134962" lon="-2.888108">
        <ele>941.0</ele>
        <time>2021-07-03T16:47:08.000Z</time>
      </trkpt>
      <trkpt lat="42.135008" lon="-2.888240">
        <ele>940.5</ele>
        <time>2021-07-03T16:47:10.000Z</time>
      </trkpt>
      <trkpt lat="42.135040" lon="-2.888377">
        <ele>940.4</ele>
        <time>2021-07-03T16:47:12.000Z</time>
      </trkpt>
      <trkpt lat="42.135063" lon="-2.888508">
        <ele>940.6</ele>
        <time>2021-07-03T16:47:14.000Z</time>
      </trkpt>
      <trkpt lat="42.135083" lon="-2.888632">
        <ele>940.3</ele>
        <time>2021-07-03T16:47:16.000Z</time>
      </trkpt>
      <trkpt lat="42.135130" lon="-2.888797">
        <ele>940.4</ele>
        <time>2021-07-03T16:47:19.000Z</time>
      </trkpt>
      <trkpt lat="42.135243" lon="-2.888875">
        <ele>940.5</ele>
        <time>2021-07-03T16:47:22.000Z</time>
      </trkpt>
      <trkpt lat="42.135333" lon="-2.888820">
        <ele>940.2</ele>
        <time>2021-07-03T16:47:24.000Z</time>
      </trkpt>
      <trkpt lat="42.135408" lon="-2.888717">
        <ele>940.4</ele>
        <time>2021-07-03T16:47:26.000Z</time>
      </trkpt>
      <trkpt lat="42.135477" lon="-2.888612">
        <ele>940.6</ele>
        <time>2021-07-03T16:47:28.000Z</time>
      </trkpt>
      <trkpt lat="42.135545" lon="-2.888512">
        <ele>940.0</ele>
        <time>2021-07-03T16:47:30.000Z</time>
      </trkpt>
      <trkpt lat="42.135617" lon="-2.888417">
        <ele>939.8</ele>
        <time>2021-07-03T16:47:32.000Z</time>
      </trkpt>
      <trkpt lat="42.135690" lon="-2.888323">
        <ele>939.7</ele>
        <time>2021-07-03T16:47:34.000Z</time>
      </trkpt>
      <trkpt lat="42.135767" lon="-2.888228">
        <ele>939.2</ele>
        <time>2021-07-03T16:47:36.000Z</time>
      </trkpt>
      <trkpt lat="42.135847" lon="-2.888135">
        <ele>938.6</ele>
        <time>2021-07-03T16:47:38.000Z</time>
      </trkpt>
      <trkpt lat="42.135932" lon="-2.888045">
        <ele>938.1</ele>
        <time>2021-07-03T16:47:40.000Z</time>
      </trkpt>
      <trkpt lat="42.136023" lon="-2.887962">
        <ele>937.9</ele>
        <time>2021-07-03T16:47:42.000Z</time>
      </trkpt>
      <trkpt lat="42.136117" lon="-2.887880">
        <ele>937.6</ele>
        <time>2021-07-03T16:47:44.000Z</time>
      </trkpt>
      <trkpt lat="42.136210" lon="-2.887805">
        <ele>937.8</ele>
        <time>2021-07-03T16:47:46.000Z</time>
      </trkpt>
      <trkpt lat="42.136303" lon="-2.887737">
        <ele>937.6</ele>
        <time>2021-07-03T16:47:48.000Z</time>
      </trkpt>
      <trkpt lat="42.136398" lon="-2.887675">
        <ele>937.1</ele>
        <time>2021-07-03T16:47:50.000Z</time>
      </trkpt>
      <trkpt lat="42.136497" lon="-2.887617">
        <ele>936.8</ele>
        <time>2021-07-03T16:47:52.000Z</time>
      </trkpt>
      <trkpt lat="42.136593" lon="-2.887558">
        <ele>937.2</ele>
        <time>2021-07-03T16:47:54.000Z</time>
      </trkpt>
      <trkpt lat="42.136697" lon="-2.887510">
        <ele>936.9</ele>
        <time>2021-07-03T16:47:56.000Z</time>
      </trkpt>
      <trkpt lat="42.136802" lon="-2.887472">
        <ele>936.7</ele>
        <time>2021-07-03T16:47:58.000Z</time>
      </trkpt>
      <trkpt lat="42.136908" lon="-2.887448">
        <ele>936.6</ele>
        <time>2021-07-03T16:48:00.000Z</time>
      </trkpt>
      <trkpt lat="42.137017" lon="-2.887437">
        <ele>936.5</ele>
        <time>2021-07-03T16:48:02.000Z</time>
      </trkpt>
      <trkpt lat="42.137123" lon="-2.887428">
        <ele>936.3</ele>
        <time>2021-07-03T16:48:04.000Z</time>
      </trkpt>
      <trkpt lat="42.137227" lon="-2.887433">
        <ele>936.5</ele>
        <time>2021-07-03T16:48:06.000Z</time>
      </trkpt>
      <trkpt lat="42.137325" lon="-2.887458">
        <ele>936.7</ele>
        <time>2021-07-03T16:48:08.000Z</time>
      </trkpt>
      <trkpt lat="42.137427" lon="-2.887492">
        <ele>936.2</ele>
        <time>2021-07-03T16:48:10.000Z</time>
      </trkpt>
      <trkpt lat="42.137545" lon="-2.887538">
        <ele>935.6</ele>
        <time>2021-07-03T16:48:12.000Z</time>
      </trkpt>
      <trkpt lat="42.137683" lon="-2.887588">
        <ele>935.2</ele>
        <time>2021-07-03T16:48:14.000Z</time>
      </trkpt>
      <trkpt lat="42.137833" lon="-2.887645">
        <ele>933.8</ele>
        <time>2021-07-03T16:48:16.000Z</time>
      </trkpt>
      <trkpt lat="42.137980" lon="-2.887707">
        <ele>932.7</ele>
        <time>2021-07-03T16:48:18.000Z</time>
      </trkpt>
      <trkpt lat="42.138135" lon="-2.887762">
        <ele>931.5</ele>
        <time>2021-07-03T16:48:20.000Z</time>
      </trkpt>
      <trkpt lat="42.138292" lon="-2.887828">
        <ele>930.8</ele>
        <time>2021-07-03T16:48:22.000Z</time>
      </trkpt>
      <trkpt lat="42.138440" lon="-2.887907">
        <ele>930.8</ele>
        <time>2021-07-03T16:48:24.000Z</time>
      </trkpt>
      <trkpt lat="42.138578" lon="-2.887982">
        <ele>930.8</ele>
        <time>2021-07-03T16:48:26.000Z</time>
      </trkpt>
      <trkpt lat="42.138695" lon="-2.888058">
        <ele>931.0</ele>
        <time>2021-07-03T16:48:28.000Z</time>
      </trkpt>
      <trkpt lat="42.138792" lon="-2.888132">
        <ele>931.3</ele>
        <time>2021-07-03T16:48:30.000Z</time>
      </trkpt>
      <trkpt lat="42.138883" lon="-2.888202">
        <ele>931.5</ele>
        <time>2021-07-03T16:48:32.000Z</time>
      </trkpt>
      <trkpt lat="42.138970" lon="-2.888278">
        <ele>932.0</ele>
        <time>2021-07-03T16:48:34.000Z</time>
      </trkpt>
      <trkpt lat="42.139055" lon="-2.888358">
        <ele>932.1</ele>
        <time>2021-07-03T16:48:36.000Z</time>
      </trkpt>
      <trkpt lat="42.139152" lon="-2.888430">
        <ele>931.8</ele>
        <time>2021-07-03T16:48:38.000Z</time>
      </trkpt>
      <trkpt lat="42.139268" lon="-2.888495">
        <ele>931.2</ele>
        <time>2021-07-03T16:48:40.000Z</time>
      </trkpt>
      <trkpt lat="42.139402" lon="-2.888562">
        <ele>930.2</ele>
        <time>2021-07-03T16:48:42.000Z</time>
      </trkpt>
      <trkpt lat="42.139547" lon="-2.888625">
        <ele>929.0</ele>
        <time>2021-07-03T16:48:44.000Z</time>
      </trkpt>
      <trkpt lat="42.139708" lon="-2.888707">
        <ele>927.0</ele>
        <time>2021-07-03T16:48:46.000Z</time>
      </trkpt>
      <trkpt lat="42.139862" lon="-2.888805">
        <ele>927.4</ele>
        <time>2021-07-03T16:48:48.000Z</time>
      </trkpt>
      <trkpt lat="42.139995" lon="-2.888925">
        <ele>927.0</ele>
        <time>2021-07-03T16:48:50.000Z</time>
      </trkpt>
      <trkpt lat="42.140117" lon="-2.889045">
        <ele>927.1</ele>
        <time>2021-07-03T16:48:52.000Z</time>
      </trkpt>
      <trkpt lat="42.140225" lon="-2.889155">
        <ele>926.6</ele>
        <time>2021-07-03T16:48:54.000Z</time>
      </trkpt>
      <trkpt lat="42.140320" lon="-2.889255">
        <ele>926.1</ele>
        <time>2021-07-03T16:48:56.000Z</time>
      </trkpt>
      <trkpt lat="42.140413" lon="-2.889342">
        <ele>926.5</ele>
        <time>2021-07-03T16:48:58.000Z</time>
      </trkpt>
      <trkpt lat="42.140508" lon="-2.889410">
        <ele>926.3</ele>
        <time>2021-07-03T16:49:00.000Z</time>
      </trkpt>
      <trkpt lat="42.140607" lon="-2.889445">
        <ele>926.3</ele>
        <time>2021-07-03T16:49:02.000Z</time>
      </trkpt>
      <trkpt lat="42.140708" lon="-2.889460">
        <ele>925.9</ele>
        <time>2021-07-03T16:49:04.000Z</time>
      </trkpt>
      <trkpt lat="42.140812" lon="-2.889490">
        <ele>925.9</ele>
        <time>2021-07-03T16:49:06.000Z</time>
      </trkpt>
      <trkpt lat="42.140905" lon="-2.889547">
        <ele>926.1</ele>
        <time>2021-07-03T16:49:08.000Z</time>
      </trkpt>
      <trkpt lat="42.140992" lon="-2.889608">
        <ele>926.1</ele>
        <time>2021-07-03T16:49:10.000Z</time>
      </trkpt>
      <trkpt lat="42.141078" lon="-2.889678">
        <ele>925.8</ele>
        <time>2021-07-03T16:49:12.000Z</time>
      </trkpt>
      <trkpt lat="42.141168" lon="-2.889752">
        <ele>925.9</ele>
        <time>2021-07-03T16:49:14.000Z</time>
      </trkpt>
      <trkpt lat="42.141258" lon="-2.889823">
        <ele>925.8</ele>
        <time>2021-07-03T16:49:16.000Z</time>
      </trkpt>
      <trkpt lat="42.141350" lon="-2.889888">
        <ele>925.2</ele>
        <time>2021-07-03T16:49:18.000Z</time>
      </trkpt>
      <trkpt lat="42.141438" lon="-2.889965">
        <ele>925.1</ele>
        <time>2021-07-03T16:49:20.000Z</time>
      </trkpt>
      <trkpt lat="42.141518" lon="-2.890047">
        <ele>924.9</ele>
        <time>2021-07-03T16:49:22.000Z</time>
      </trkpt>
      <trkpt lat="42.141595" lon="-2.890140">
        <ele>925.0</ele>
        <time>2021-07-03T16:49:24.000Z</time>
      </trkpt>
      <trkpt lat="42.141672" lon="-2.890232">
        <ele>924.9</ele>
        <time>2021-07-03T16:49:26.000Z</time>
      </trkpt>
      <trkpt lat="42.141750" lon="-2.890315">
        <ele>925.0</ele>
        <time>2021-07-03T16:49:28.000Z</time>
      </trkpt>
      <trkpt lat="42.141830" lon="-2.890400">
        <ele>924.3</ele>
        <time>2021-07-03T16:49:30.000Z</time>
      </trkpt>
      <trkpt lat="42.141920" lon="-2.890472">
        <ele>924.2</ele>
        <time>2021-07-03T16:49:32.000Z</time>
      </trkpt>
      <trkpt lat="42.142022" lon="-2.890523">
        <ele>924.4</ele>
        <time>2021-07-03T16:49:34.000Z</time>
      </trkpt>
      <trkpt lat="42.142133" lon="-2.890568">
        <ele>923.8</ele>
        <time>2021-07-03T16:49:36.000Z</time>
      </trkpt>
      <trkpt lat="42.142245" lon="-2.890628">
        <ele>924.1</ele>
        <time>2021-07-03T16:49:38.000Z</time>
      </trkpt>
      <trkpt lat="42.142350" lon="-2.890695">
        <ele>923.6</ele>
        <time>2021-07-03T16:49:40.000Z</time>
      </trkpt>
      <trkpt lat="42.142452" lon="-2.890762">
        <ele>923.2</ele>
        <time>2021-07-03T16:49:42.000Z</time>
      </trkpt>
      <trkpt lat="42.142550" lon="-2.890815">
        <ele>923.3</ele>
        <time>2021-07-03T16:49:44.000Z</time>
      </trkpt>
      <trkpt lat="42.142648" lon="-2.890853">
        <ele>923.4</ele>
        <time>2021-07-03T16:49:46.000Z</time>
      </trkpt>
      <trkpt lat="42.142752" lon="-2.890877">
        <ele>923.4</ele>
        <time>2021-07-03T16:49:48.000Z</time>
      </trkpt>
      <trkpt lat="42.142857" lon="-2.890873">
        <ele>923.0</ele>
        <time>2021-07-03T16:49:50.000Z</time>
      </trkpt>
      <trkpt lat="42.142968" lon="-2.890850">
        <ele>922.7</ele>
        <time>2021-07-03T16:49:52.000Z</time>
      </trkpt>
      <trkpt lat="42.143075" lon="-2.890817">
        <ele>922.7</ele>
        <time>2021-07-03T16:49:54.000Z</time>
      </trkpt>
      <trkpt lat="42.143175" lon="-2.890777">
        <ele>923.1</ele>
        <time>2021-07-03T16:49:56.000Z</time>
      </trkpt>
      <trkpt lat="42.143272" lon="-2.890737">
        <ele>922.9</ele>
        <time>2021-07-03T16:49:58.000Z</time>
      </trkpt>
      <trkpt lat="42.143367" lon="-2.890693">
        <ele>922.8</ele>
        <time>2021-07-03T16:50:00.000Z</time>
      </trkpt>
      <trkpt lat="42.143467" lon="-2.890668">
        <ele>922.4</ele>
        <time>2021-07-03T16:50:02.000Z</time>
      </trkpt>
      <trkpt lat="42.143573" lon="-2.890663">
        <ele>921.2</ele>
        <time>2021-07-03T16:50:04.000Z</time>
      </trkpt>
      <trkpt lat="42.143680" lon="-2.890673">
        <ele>921.1</ele>
        <time>2021-07-03T16:50:06.000Z</time>
      </trkpt>
      <trkpt lat="42.143785" lon="-2.890692">
        <ele>921.3</ele>
        <time>2021-07-03T16:50:08.000Z</time>
      </trkpt>
      <trkpt lat="42.143890" lon="-2.890720">
        <ele>920.9</ele>
        <time>2021-07-03T16:50:10.000Z</time>
      </trkpt>
      <trkpt lat="42.143995" lon="-2.890767">
        <ele>920.2</ele>
        <time>2021-07-03T16:50:12.000Z</time>
      </trkpt>
      <trkpt lat="42.144100" lon="-2.890822">
        <ele>919.9</ele>
        <time>2021-07-03T16:50:14.000Z</time>
      </trkpt>
      <trkpt lat="42.144210" lon="-2.890880">
        <ele>919.9</ele>
        <time>2021-07-03T16:50:16.000Z</time>
      </trkpt>
      <trkpt lat="42.144322" lon="-2.890940">
        <ele>919.0</ele>
        <time>2021-07-03T16:50:18.000Z</time>
      </trkpt>
      <trkpt lat="42.144438" lon="-2.891003">
        <ele>918.9</ele>
        <time>2021-07-03T16:50:20.000Z</time>
      </trkpt>
      <trkpt lat="42.144552" lon="-2.891065">
        <ele>918.3</ele>
        <time>2021-07-03T16:50:22.000Z</time>
      </trkpt>
      <trkpt lat="42.144668" lon="-2.891108">
        <ele>917.5</ele>
        <time>2021-07-03T16:50:24.000Z</time>
      </trkpt>
      <trkpt lat="42.144793" lon="-2.891128">
        <ele>917.0</ele>
        <time>2021-07-03T16:50:26.000Z</time>
      </trkpt>
      <trkpt lat="42.144923" lon="-2.891145">
        <ele>916.2</ele>
        <time>2021-07-03T16:50:28.000Z</time>
      </trkpt>
      <trkpt lat="42.145060" lon="-2.891180">
        <ele>915.7</ele>
        <time>2021-07-03T16:50:30.000Z</time>
      </trkpt>
      <trkpt lat="42.145197" lon="-2.891225">
        <ele>915.3</ele>
        <time>2021-07-03T16:50:32.000Z</time>
      </trkpt>
      <trkpt lat="42.145328" lon="-2.891275">
        <ele>914.8</ele>
        <time>2021-07-03T16:50:34.000Z</time>
      </trkpt>
      <trkpt lat="42.145447" lon="-2.891320">
        <ele>914.5</ele>
        <time>2021-07-03T16:50:36.000Z</time>
      </trkpt>
      <trkpt lat="42.145563" lon="-2.891353">
        <ele>914.4</ele>
        <time>2021-07-03T16:50:38.000Z</time>
      </trkpt>
      <trkpt lat="42.145678" lon="-2.891378">
        <ele>914.4</ele>
        <time>2021-07-03T16:50:40.000Z</time>
      </trkpt>
      <trkpt lat="42.145798" lon="-2.891373">
        <ele>914.4</ele>
        <time>2021-07-03T16:50:42.000Z</time>
      </trkpt>
      <trkpt lat="42.145918" lon="-2.891357">
        <ele>914.1</ele>
        <time>2021-07-03T16:50:44.000Z</time>
      </trkpt>
      <trkpt lat="42.146038" lon="-2.891340">
        <ele>913.5</ele>
        <time>2021-07-03T16:50:46.000Z</time>
      </trkpt>
      <trkpt lat="42.146155" lon="-2.891318">
        <ele>913.9</ele>
        <time>2021-07-03T16:50:48.000Z</time>
      </trkpt>
      <trkpt lat="42.146270" lon="-2.891288">
        <ele>913.8</ele>
        <time>2021-07-03T16:50:50.000Z</time>
      </trkpt>
      <trkpt lat="42.146383" lon="-2.891252">
        <ele>913.6</ele>
        <time>2021-07-03T16:50:52.000Z</time>
      </trkpt>
      <trkpt lat="42.146497" lon="-2.891213">
        <ele>913.5</ele>
        <time>2021-07-03T16:50:54.000Z</time>
      </trkpt>
      <trkpt lat="42.146610" lon="-2.891167">
        <ele>912.9</ele>
        <time>2021-07-03T16:50:56.000Z</time>
      </trkpt>
      <trkpt lat="42.146720" lon="-2.891120">
        <ele>912.9</ele>
        <time>2021-07-03T16:50:58.000Z</time>
      </trkpt>
      <trkpt lat="42.146820" lon="-2.891077">
        <ele>913.2</ele>
        <time>2021-07-03T16:51:00.000Z</time>
      </trkpt>
      <trkpt lat="42.146945" lon="-2.891027">
        <ele>912.9</ele>
        <time>2021-07-03T16:51:03.000Z</time>
      </trkpt>
      <trkpt lat="42.147060" lon="-2.890982">
        <ele>913.2</ele>
        <time>2021-07-03T16:51:06.000Z</time>
      </trkpt>
      <trkpt lat="42.147182" lon="-2.890945">
        <ele>912.9</ele>
        <time>2021-07-03T16:51:09.000Z</time>
      </trkpt>
      <trkpt lat="42.147305" lon="-2.890910">
        <ele>913.0</ele>
        <time>2021-07-03T16:51:12.000Z</time>
      </trkpt>
      <trkpt lat="42.147432" lon="-2.890878">
        <ele>913.0</ele>
        <time>2021-07-03T16:51:15.000Z</time>
      </trkpt>
      <trkpt lat="42.147567" lon="-2.890855">
        <ele>912.3</ele>
        <time>2021-07-03T16:51:18.000Z</time>
      </trkpt>
      <trkpt lat="42.147658" lon="-2.890837">
        <ele>912.0</ele>
        <time>2021-07-03T16:51:20.000Z</time>
      </trkpt>
      <trkpt lat="42.147757" lon="-2.890827">
        <ele>911.8</ele>
        <time>2021-07-03T16:51:22.000Z</time>
      </trkpt>
      <trkpt lat="42.147870" lon="-2.890813">
        <ele>911.3</ele>
        <time>2021-07-03T16:51:24.000Z</time>
      </trkpt>
      <trkpt lat="42.147990" lon="-2.890797">
        <ele>910.8</ele>
        <time>2021-07-03T16:51:26.000Z</time>
      </trkpt>
      <trkpt lat="42.148115" lon="-2.890782">
        <ele>910.2</ele>
        <time>2021-07-03T16:51:28.000Z</time>
      </trkpt>
      <trkpt lat="42.148240" lon="-2.890767">
        <ele>909.3</ele>
        <time>2021-07-03T16:51:30.000Z</time>
      </trkpt>
      <trkpt lat="42.148355" lon="-2.890748">
        <ele>908.6</ele>
        <time>2021-07-03T16:51:32.000Z</time>
      </trkpt>
      <trkpt lat="42.148465" lon="-2.890732">
        <ele>908.1</ele>
        <time>2021-07-03T16:51:34.000Z</time>
      </trkpt>
      <trkpt lat="42.148578" lon="-2.890713">
        <ele>907.9</ele>
        <time>2021-07-03T16:51:36.000Z</time>
      </trkpt>
      <trkpt lat="42.148702" lon="-2.890693">
        <ele>907.7</ele>
        <time>2021-07-03T16:51:38.000Z</time>
      </trkpt>
      <trkpt lat="42.148825" lon="-2.890667">
        <ele>907.4</ele>
        <time>2021-07-03T16:51:40.000Z</time>
      </trkpt>
      <trkpt lat="42.148947" lon="-2.890643">
        <ele>906.8</ele>
        <time>2021-07-03T16:51:42.000Z</time>
      </trkpt>
      <trkpt lat="42.149065" lon="-2.890625">
        <ele>906.7</ele>
        <time>2021-07-03T16:51:44.000Z</time>
      </trkpt>
      <trkpt lat="42.149177" lon="-2.890610">
        <ele>906.8</ele>
        <time>2021-07-03T16:51:46.000Z</time>
      </trkpt>
      <trkpt lat="42.149288" lon="-2.890605">
        <ele>906.6</ele>
        <time>2021-07-03T16:51:48.000Z</time>
      </trkpt>
      <trkpt lat="42.149398" lon="-2.890600">
        <ele>906.2</ele>
        <time>2021-07-03T16:51:50.000Z</time>
      </trkpt>
      <trkpt lat="42.149512" lon="-2.890593">
        <ele>906.0</ele>
        <time>2021-07-03T16:51:52.000Z</time>
      </trkpt>
      <trkpt lat="42.149627" lon="-2.890580">
        <ele>905.9</ele>
        <time>2021-07-03T16:51:54.000Z</time>
      </trkpt>
      <trkpt lat="42.149742" lon="-2.890562">
        <ele>904.8</ele>
        <time>2021-07-03T16:51:56.000Z</time>
      </trkpt>
      <trkpt lat="42.149848" lon="-2.890537">
        <ele>904.2</ele>
        <time>2021-07-03T16:51:58.000Z</time>
      </trkpt>
      <trkpt lat="42.149975" lon="-2.890513">
        <ele>904.2</ele>
        <time>2021-07-03T16:52:01.000Z</time>
      </trkpt>
      <trkpt lat="42.150082" lon="-2.890497">
        <ele>904.1</ele>
        <time>2021-07-03T16:52:04.000Z</time>
      </trkpt>
      <trkpt lat="42.150187" lon="-2.890495">
        <ele>903.4</ele>
        <time>2021-07-03T16:52:08.000Z</time>
      </trkpt>
      <trkpt lat="42.150298" lon="-2.890492">
        <ele>903.5</ele>
        <time>2021-07-03T16:52:13.000Z</time>
      </trkpt>
      <trkpt lat="42.150403" lon="-2.890482">
        <ele>903.1</ele>
        <time>2021-07-03T16:52:17.000Z</time>
      </trkpt>
      <trkpt lat="42.150493" lon="-2.890453">
        <ele>903.2</ele>
        <time>2021-07-03T16:52:20.000Z</time>
      </trkpt>
      <trkpt lat="42.150588" lon="-2.890433">
        <ele>903.1</ele>
        <time>2021-07-03T16:52:23.000Z</time>
      </trkpt>
      <trkpt lat="42.150698" lon="-2.890402">
        <ele>902.9</ele>
        <time>2021-07-03T16:52:27.000Z</time>
      </trkpt>
      <trkpt lat="42.150807" lon="-2.890373">
        <ele>902.7</ele>
        <time>2021-07-03T16:52:31.000Z</time>
      </trkpt>
      <trkpt lat="42.150912" lon="-2.890323">
        <ele>902.3</ele>
        <time>2021-07-03T16:52:35.000Z</time>
      </trkpt>
      <trkpt lat="42.150993" lon="-2.890262">
        <ele>902.3</ele>
        <time>2021-07-03T16:52:38.000Z</time>
      </trkpt>
      <trkpt lat="42.151080" lon="-2.890187">
        <ele>902.2</ele>
        <time>2021-07-03T16:52:41.000Z</time>
      </trkpt>
      <trkpt lat="42.151165" lon="-2.890100">
        <ele>902.0</ele>
        <time>2021-07-03T16:52:44.000Z</time>
      </trkpt>
      <trkpt lat="42.151253" lon="-2.890015">
        <ele>901.8</ele>
        <time>2021-07-03T16:52:47.000Z</time>
      </trkpt>
      <trkpt lat="42.151322" lon="-2.889933">
        <ele>901.5</ele>
        <time>2021-07-03T16:52:50.000Z</time>
      </trkpt>
      <trkpt lat="42.151308" lon="-2.889828">
        <ele>901.6</ele>
        <time>2021-07-03T16:53:00.000Z</time>
      </trkpt>
      <trkpt lat="42.151312" lon="-2.889828">
        <ele>901.6</ele>
        <time>2021-07-03T16:53:02.000Z</time>
      </trkpt>
      <trkpt lat="42.151310" lon="-2.889855">
        <ele>901.4</ele>
        <time>2021-07-03T16:53:09.000Z</time>
      </trkpt>
      <trkpt lat="42.151312" lon="-2.889855">
        <ele>901.5</ele>
        <time>2021-07-03T16:54:26.000Z</time>
      </trkpt>
      <trkpt lat="42.151312" lon="-2.889855">
        <ele>901.7</ele>
        <time>2021-07-03T16:54:27.000Z</time>
      </trkpt>
      <trkpt lat="42.151313" lon="-2.889855">
        <ele>902.9</ele>
        <time>2021-07-03T16:54:57.000Z</time>
      </trkpt>
      <trkpt lat="42.151313" lon="-2.889855">
        <ele>903.0</ele>
        <time>2021-07-03T16:54:58.000Z</time>
      </trkpt>
      <trkpt lat="42.151315" lon="-2.889855">
        <ele>903.3</ele>
        <time>2021-07-03T16:55:25.000Z</time>
      </trkpt>
      <trkpt lat="42.151315" lon="-2.889855">
        <ele>903.4</ele>
        <time>2021-07-03T16:55:26.000Z</time>
      </trkpt>
      <trkpt lat="42.151317" lon="-2.889857">
        <ele>903.6</ele>
        <time>2021-07-03T16:56:02.000Z</time>
      </trkpt>
      <trkpt lat="42.151317" lon="-2.889857">
        <ele>903.4</ele>
        <time>2021-07-03T16:56:03.000Z</time>
      </trkpt>
      <trkpt lat="42.151318" lon="-2.889858">
        <ele>903.5</ele>
        <time>2021-07-03T16:56:16.000Z</time>
      </trkpt>
      <trkpt lat="42.151318" lon="-2.889858">
        <ele>903.5</ele>
        <time>2021-07-03T16:56:17.000Z</time>
      </trkpt>
      <trkpt lat="42.151320" lon="-2.889862">
        <ele>902.9</ele>
        <time>2021-07-03T16:57:29.000Z</time>
      </trkpt>
      <trkpt lat="42.151320" lon="-2.889862">
        <ele>903.0</ele>
        <time>2021-07-03T16:57:30.000Z</time>
      </trkpt>
      <trkpt lat="42.151322" lon="-2.889863">
        <ele>902.8</ele>
        <time>2021-07-03T16:57:43.000Z</time>
      </trkpt>
      <trkpt lat="42.151322" lon="-2.889863">
        <ele>902.7</ele>
        <time>2021-07-03T16:57:44.000Z</time>
      </trkpt>
      <trkpt lat="42.151320" lon="-2.889863">
        <ele>902.5</ele>
        <time>2021-07-03T16:58:02.000Z</time>
      </trkpt>
      <trkpt lat="42.151320" lon="-2.889863">
        <ele>902.6</ele>
        <time>2021-07-03T16:58:03.000Z</time>
      </trkpt>
      <trkpt lat="42.151322" lon="-2.889863">
        <ele>902.6</ele>
        <time>2021-07-03T16:58:15.000Z</time>
      </trkpt>
      <trkpt lat="42.151322" lon="-2.889863">
        <ele>902.7</ele>
        <time>2021-07-03T16:58:16.000Z</time>
      </trkpt>
      <trkpt lat="42.151323" lon="-2.889865">
        <ele>903.2</ele>
        <time>2021-07-03T17:00:03.000Z</time>
      </trkpt>
      <trkpt lat="42.151323" lon="-2.889865">
        <ele>903.1</ele>
        <time>2021-07-03T17:00:04.000Z</time>
      </trkpt>
      <trkpt lat="42.151325" lon="-2.889865">
        <ele>903.1</ele>
        <time>2021-07-03T17:01:06.000Z</time>
      </trkpt>
      <trkpt lat="42.151325" lon="-2.889865">
        <ele>902.9</ele>
        <time>2021-07-03T17:01:07.000Z</time>
      </trkpt>
      <trkpt lat="42.151323" lon="-2.889865">
        <ele>902.9</ele>
        <time>2021-07-03T17:01:08.000Z</time>
      </trkpt>
      <trkpt lat="42.151323" lon="-2.889865">
        <ele>903.0</ele>
        <time>2021-07-03T17:01:11.000Z</time>
      </trkpt>
      <trkpt lat="42.151325" lon="-2.889865">
        <ele>903.1</ele>
        <time>2021-07-03T17:01:12.000Z</time>
      </trkpt>
      <trkpt lat="42.151325" lon="-2.889865">
        <ele>903.2</ele>
        <time>2021-07-03T17:01:13.000Z</time>
      </trkpt>
      <trkpt lat="42.151323" lon="-2.889865">
        <ele>902.9</ele>
        <time>2021-07-03T17:01:25.000Z</time>
      </trkpt>
      <trkpt lat="42.151323" lon="-2.889865">
        <ele>903.0</ele>
        <time>2021-07-03T17:01:26.000Z</time>
      </trkpt>
      <trkpt lat="42.151322" lon="-2.889867">
        <ele>903.1</ele>
        <time>2021-07-03T17:03:45.000Z</time>
      </trkpt>
      <trkpt lat="42.151322" lon="-2.889867">
        <ele>903.1</ele>
        <time>2021-07-03T17:03:46.000Z</time>
      </trkpt>
      <trkpt lat="42.151323" lon="-2.889867">
        <ele>902.9</ele>
        <time>2021-07-03T17:03:54.000Z</time>
      </trkpt>
      <trkpt lat="42.151323" lon="-2.889867">
        <ele>902.9</ele>
        <time>2021-07-03T17:03:55.000Z</time>
      </trkpt>
      <trkpt lat="42.151325" lon="-2.889868">
        <ele>903.0</ele>
        <time>2021-07-03T17:05:17.000Z</time>
      </trkpt>
      <trkpt lat="42.151325" lon="-2.889868">
        <ele>903.1</ele>
        <time>2021-07-03T17:05:18.000Z</time>
      </trkpt>
      <trkpt lat="42.151323" lon="-2.889870">
        <ele>902.6</ele>
        <time>2021-07-03T17:05:55.000Z</time>
      </trkpt>
      <trkpt lat="42.151323" lon="-2.889870">
        <ele>902.6</ele>
        <time>2021-07-03T17:05:56.000Z</time>
      </trkpt>
      <trkpt lat="42.151325" lon="-2.889877">
        <ele>902.4</ele>
        <time>2021-07-03T17:06:43.000Z</time>
      </trkpt>
      <trkpt lat="42.151325" lon="-2.889877">
        <ele>902.4</ele>
        <time>2021-07-03T17:06:44.000Z</time>
      </trkpt>
      <trkpt lat="42.151327" lon="-2.889878">
        <ele>902.6</ele>
        <time>2021-07-03T17:07:00.000Z</time>
      </trkpt>
      <trkpt lat="42.151327" lon="-2.889878">
        <ele>902.6</ele>
        <time>2021-07-03T17:07:01.000Z</time>
      </trkpt>
      <trkpt lat="42.151323" lon="-2.889878">
        <ele>903.2</ele>
        <time>2021-07-03T17:07:25.000Z</time>
      </trkpt>
      <trkpt lat="42.151323" lon="-2.889878">
        <ele>903.1</ele>
        <time>2021-07-03T17:07:26.000Z</time>
      </trkpt>
      <trkpt lat="42.151322" lon="-2.889878">
        <ele>903.0</ele>
        <time>2021-07-03T17:07:41.000Z</time>
      </trkpt>
      <trkpt lat="42.151322" lon="-2.889878">
        <ele>903.0</ele>
        <time>2021-07-03T17:07:42.000Z</time>
      </trkpt>
      <trkpt lat="42.151323" lon="-2.889880">
        <ele>903.1</ele>
        <time>2021-07-03T17:08:28.000Z</time>
      </trkpt>
      <trkpt lat="42.151323" lon="-2.889880">
        <ele>903.0</ele>
        <time>2021-07-03T17:08:29.000Z</time>
      </trkpt>
      <trkpt lat="42.151322" lon="-2.889880">
        <ele>903.1</ele>
        <time>2021-07-03T17:08:46.000Z</time>
      </trkpt>
      <trkpt lat="42.151322" lon="-2.889878">
        <ele>903.1</ele>
        <time>2021-07-03T17:08:47.000Z</time>
      </trkpt>
      <trkpt lat="42.151320" lon="-2.889877">
        <ele>903.2</ele>
        <time>2021-07-03T17:08:48.000Z</time>
      </trkpt>
      <trkpt lat="42.151320" lon="-2.889877">
        <ele>903.0</ele>
        <time>2021-07-03T17:08:51.000Z</time>
      </trkpt>
      <trkpt lat="42.151322" lon="-2.889878">
        <ele>903.0</ele>
        <time>2021-07-03T17:10:11.000Z</time>
      </trkpt>
      <trkpt lat="42.151322" lon="-2.889878">
        <ele>903.1</ele>
        <time>2021-07-03T17:10:12.000Z</time>
      </trkpt>
      <trkpt lat="42.151320" lon="-2.889883">
        <ele>903.2</ele>
        <time>2021-07-03T17:15:17.000Z</time>
      </trkpt>
      <trkpt lat="42.151320" lon="-2.889883">
        <ele>903.2</ele>
        <time>2021-07-03T17:15:18.000Z</time>
      </trkpt>
      <trkpt lat="42.151318" lon="-2.889883">
        <ele>903.6</ele>
        <time>2021-07-03T17:15:47.000Z</time>
      </trkpt>
      <trkpt lat="42.151318" lon="-2.889883">
        <ele>903.5</ele>
        <time>2021-07-03T17:15:48.000Z</time>
      </trkpt>
      <trkpt lat="42.151317" lon="-2.889880">
        <ele>903.3</ele>
        <time>2021-07-03T17:15:52.000Z</time>
      </trkpt>
      <trkpt lat="42.151315" lon="-2.889883">
        <ele>903.4</ele>
        <time>2021-07-03T17:15:54.000Z</time>
      </trkpt>
      <trkpt lat="42.151313" lon="-2.889885">
        <ele>903.4</ele>
        <time>2021-07-03T17:15:55.000Z</time>
      </trkpt>
      <trkpt lat="42.151310" lon="-2.889885">
        <ele>903.2</ele>
        <time>2021-07-03T17:15:57.000Z</time>
      </trkpt>
      <trkpt lat="42.151308" lon="-2.889885">
        <ele>903.2</ele>
        <time>2021-07-03T17:16:06.000Z</time>
      </trkpt>
      <trkpt lat="42.151305" lon="-2.889890">
        <ele>903.2</ele>
        <time>2021-07-03T17:16:10.000Z</time>
      </trkpt>
      <trkpt lat="42.151303" lon="-2.889892">
        <ele>903.3</ele>
        <time>2021-07-03T17:16:11.000Z</time>
      </trkpt>
      <trkpt lat="42.151303" lon="-2.889893">
        <ele>903.3</ele>
        <time>2021-07-03T17:16:12.000Z</time>
      </trkpt>
      <trkpt lat="42.151305" lon="-2.889895">
        <ele>903.4</ele>
        <time>2021-07-03T17:16:13.000Z</time>
      </trkpt>
      <trkpt lat="42.151302" lon="-2.889893">
        <ele>903.2</ele>
        <time>2021-07-03T17:16:16.000Z</time>
      </trkpt>
      <trkpt lat="42.151303" lon="-2.889897">
        <ele>903.4</ele>
        <time>2021-07-03T17:16:18.000Z</time>
      </trkpt>
      <trkpt lat="42.151303" lon="-2.889898">
        <ele>903.1</ele>
        <time>2021-07-03T17:16:21.000Z</time>
      </trkpt>
      <trkpt lat="42.151307" lon="-2.889900">
        <ele>903.3</ele>
        <time>2021-07-03T17:16:23.000Z</time>
      </trkpt>
      <trkpt lat="42.151307" lon="-2.889900">
        <ele>903.3</ele>
        <time>2021-07-03T17:16:24.000Z</time>
      </trkpt>
      <trkpt lat="42.151305" lon="-2.889898">
        <ele>903.4</ele>
        <time>2021-07-03T17:16:49.000Z</time>
      </trkpt>
      <trkpt lat="42.151302" lon="-2.889898">
        <ele>903.3</ele>
        <time>2021-07-03T17:16:52.000Z</time>
      </trkpt>
      <trkpt lat="42.151300" lon="-2.889895">
        <ele>903.5</ele>
        <time>2021-07-03T17:16:56.000Z</time>
      </trkpt>
      <trkpt lat="42.151283" lon="-2.889890">
        <ele>903.3</ele>
        <time>2021-07-03T17:17:08.000Z</time>
      </trkpt>
      <trkpt lat="42.151282" lon="-2.889890">
        <ele>903.3</ele>
        <time>2021-07-03T17:17:09.000Z</time>
      </trkpt>
      <trkpt lat="42.151282" lon="-2.889892">
        <ele>903.4</ele>
        <time>2021-07-03T17:17:10.000Z</time>
      </trkpt>
      <trkpt lat="42.151283" lon="-2.889893">
        <ele>903.6</ele>
        <time>2021-07-03T17:17:15.000Z</time>
      </trkpt>
      <trkpt lat="42.151290" lon="-2.889902">
        <ele>903.5</ele>
        <time>2021-07-03T17:17:17.000Z</time>
      </trkpt>
      <trkpt lat="42.151292" lon="-2.889902">
        <ele>903.6</ele>
        <time>2021-07-03T17:17:28.000Z</time>
      </trkpt>
      <trkpt lat="42.151292" lon="-2.889902">
        <ele>903.6</ele>
        <time>2021-07-03T17:17:29.000Z</time>
      </trkpt>
      <trkpt lat="42.151293" lon="-2.889903">
        <ele>903.5</ele>
        <time>2021-07-03T17:18:01.000Z</time>
      </trkpt>
      <trkpt lat="42.151293" lon="-2.889903">
        <ele>903.5</ele>
        <time>2021-07-03T17:18:02.000Z</time>
      </trkpt>
      <trkpt lat="42.151295" lon="-2.889905">
        <ele>903.2</ele>
        <time>2021-07-03T17:18:44.000Z</time>
      </trkpt>
      <trkpt lat="42.151295" lon="-2.889905">
        <ele>903.3</ele>
        <time>2021-07-03T17:18:45.000Z</time>
      </trkpt>
      <trkpt lat="42.151297" lon="-2.889903">
        <ele>903.2</ele>
        <time>2021-07-03T17:18:50.000Z</time>
      </trkpt>
      <trkpt lat="42.151397" lon="-2.889842">
        <ele>903.1</ele>
        <time>2021-07-03T17:19:07.000Z</time>
      </trkpt>
      <trkpt lat="42.151472" lon="-2.889772">
        <ele>903.5</ele>
        <time>2021-07-03T17:19:10.000Z</time>
      </trkpt>
      <trkpt lat="42.151550" lon="-2.889688">
        <ele>903.4</ele>
        <time>2021-07-03T17:19:13.000Z</time>
      </trkpt>
      <trkpt lat="42.151637" lon="-2.889610">
        <ele>903.2</ele>
        <time>2021-07-03T17:19:16.000Z</time>
      </trkpt>
      <trkpt lat="42.151727" lon="-2.889545">
        <ele>903.0</ele>
        <time>2021-07-03T17:19:19.000Z</time>
      </trkpt>
      <trkpt lat="42.151815" lon="-2.889472">
        <ele>902.8</ele>
        <time>2021-07-03T17:19:22.000Z</time>
      </trkpt>
      <trkpt lat="42.151913" lon="-2.889432">
        <ele>902.8</ele>
        <time>2021-07-03T17:19:25.000Z</time>
      </trkpt>
      <trkpt lat="42.152015" lon="-2.889385">
        <ele>902.3</ele>
        <time>2021-07-03T17:19:28.000Z</time>
      </trkpt>
      <trkpt lat="42.152113" lon="-2.889332">
        <ele>902.7</ele>
        <time>2021-07-03T17:19:31.000Z</time>
      </trkpt>
      <trkpt lat="42.152215" lon="-2.889295">
        <ele>902.4</ele>
        <time>2021-07-03T17:19:34.000Z</time>
      </trkpt>
      <trkpt lat="42.152310" lon="-2.889258">
        <ele>902.2</ele>
        <time>2021-07-03T17:19:37.000Z</time>
      </trkpt>
      <trkpt lat="42.152403" lon="-2.889223">
        <ele>902.1</ele>
        <time>2021-07-03T17:19:40.000Z</time>
      </trkpt>
      <trkpt lat="42.152515" lon="-2.889175">
        <ele>902.1</ele>
        <time>2021-07-03T17:19:44.000Z</time>
      </trkpt>
      <trkpt lat="42.152620" lon="-2.889140">
        <ele>902.1</ele>
        <time>2021-07-03T17:19:48.000Z</time>
      </trkpt>
      <trkpt lat="42.152743" lon="-2.889122">
        <ele>901.3</ele>
        <time>2021-07-03T17:19:52.000Z</time>
      </trkpt>
      <trkpt lat="42.152855" lon="-2.889097">
        <ele>901.2</ele>
        <time>2021-07-03T17:19:55.000Z</time>
      </trkpt>
      <trkpt lat="42.152973" lon="-2.889080">
        <ele>901.3</ele>
        <time>2021-07-03T17:19:58.000Z</time>
      </trkpt>
      <trkpt lat="42.153107" lon="-2.889057">
        <ele>901.2</ele>
        <time>2021-07-03T17:20:01.000Z</time>
      </trkpt>
      <trkpt lat="42.153202" lon="-2.889040">
        <ele>901.2</ele>
        <time>2021-07-03T17:20:03.000Z</time>
      </trkpt>
      <trkpt lat="42.153295" lon="-2.889020">
        <ele>901.1</ele>
        <time>2021-07-03T17:20:05.000Z</time>
      </trkpt>
      <trkpt lat="42.153427" lon="-2.888993">
        <ele>900.9</ele>
        <time>2021-07-03T17:20:08.000Z</time>
      </trkpt>
      <trkpt lat="42.153548" lon="-2.888972">
        <ele>900.8</ele>
        <time>2021-07-03T17:20:11.000Z</time>
      </trkpt>
      <trkpt lat="42.153655" lon="-2.888963">
        <ele>901.1</ele>
        <time>2021-07-03T17:20:14.000Z</time>
      </trkpt>
      <trkpt lat="42.153740" lon="-2.889018">
        <ele>901.5</ele>
        <time>2021-07-03T17:20:17.000Z</time>
      </trkpt>
      <trkpt lat="42.153798" lon="-2.889117">
        <ele>901.7</ele>
        <time>2021-07-03T17:20:20.000Z</time>
      </trkpt>
      <trkpt lat="42.153853" lon="-2.889217">
        <ele>901.3</ele>
        <time>2021-07-03T17:20:23.000Z</time>
      </trkpt>
      <trkpt lat="42.153927" lon="-2.889300">
        <ele>901.4</ele>
        <time>2021-07-03T17:20:26.000Z</time>
      </trkpt>
      <trkpt lat="42.154035" lon="-2.889323">
        <ele>902.0</ele>
        <time>2021-07-03T17:20:30.000Z</time>
      </trkpt>
      <trkpt lat="42.154130" lon="-2.889315">
        <ele>902.1</ele>
        <time>2021-07-03T17:20:34.000Z</time>
      </trkpt>
      <trkpt lat="42.154222" lon="-2.889287">
        <ele>902.7</ele>
        <time>2021-07-03T17:20:38.000Z</time>
      </trkpt>
      <trkpt lat="42.154312" lon="-2.889212">
        <ele>902.8</ele>
        <time>2021-07-03T17:20:42.000Z</time>
      </trkpt>
      <trkpt lat="42.154402" lon="-2.889120">
        <ele>903.3</ele>
        <time>2021-07-03T17:20:46.000Z</time>
      </trkpt>
      <trkpt lat="42.154473" lon="-2.889032">
        <ele>903.7</ele>
        <time>2021-07-03T17:20:50.000Z</time>
      </trkpt>
      <trkpt lat="42.154425" lon="-2.889135">
        <ele>903.1</ele>
        <time>2021-07-03T17:20:56.000Z</time>
      </trkpt>
      <trkpt lat="42.154348" lon="-2.889212">
        <ele>903.3</ele>
        <time>2021-07-03T17:20:59.000Z</time>
      </trkpt>
      <trkpt lat="42.154340" lon="-2.889290">
        <ele>903.4</ele>
        <time>2021-07-03T17:21:04.000Z</time>
      </trkpt>
      <trkpt lat="42.154342" lon="-2.889290">
        <ele>902.8</ele>
        <time>2021-07-03T17:21:36.000Z</time>
      </trkpt>
      <trkpt lat="42.154395" lon="-2.889188">
        <ele>903.3</ele>
        <time>2021-07-03T17:21:43.000Z</time>
      </trkpt>
      <trkpt lat="42.154438" lon="-2.889082">
        <ele>902.9</ele>
        <time>2021-07-03T17:21:46.000Z</time>
      </trkpt>
      <trkpt lat="42.154502" lon="-2.888988">
        <ele>903.4</ele>
        <time>2021-07-03T17:21:49.000Z</time>
      </trkpt>
      <trkpt lat="42.154565" lon="-2.888900">
        <ele>903.6</ele>
        <time>2021-07-03T17:21:52.000Z</time>
      </trkpt>
      <trkpt lat="42.154638" lon="-2.888813">
        <ele>903.6</ele>
        <time>2021-07-03T17:21:55.000Z</time>
      </trkpt>
      <trkpt lat="42.154723" lon="-2.888733">
        <ele>904.1</ele>
        <time>2021-07-03T17:21:58.000Z</time>
      </trkpt>
      <trkpt lat="42.154817" lon="-2.888658">
        <ele>903.8</ele>
        <time>2021-07-03T17:22:01.000Z</time>
      </trkpt>
      <trkpt lat="42.154920" lon="-2.888603">
        <ele>904.7</ele>
        <time>2021-07-03T17:22:04.000Z</time>
      </trkpt>
      <trkpt lat="42.155022" lon="-2.888553">
        <ele>904.6</ele>
        <time>2021-07-03T17:22:07.000Z</time>
      </trkpt>
      <trkpt lat="42.155117" lon="-2.888505">
        <ele>904.6</ele>
        <time>2021-07-03T17:22:10.000Z</time>
      </trkpt>
      <trkpt lat="42.155220" lon="-2.888435">
        <ele>905.4</ele>
        <time>2021-07-03T17:22:14.000Z</time>
      </trkpt>
      <trkpt lat="42.155315" lon="-2.888368">
        <ele>905.9</ele>
        <time>2021-07-03T17:22:18.000Z</time>
      </trkpt>
      <trkpt lat="42.155412" lon="-2.888293">
        <ele>906.1</ele>
        <time>2021-07-03T17:22:22.000Z</time>
      </trkpt>
      <trkpt lat="42.155508" lon="-2.888228">
        <ele>907.1</ele>
        <time>2021-07-03T17:22:26.000Z</time>
      </trkpt>
      <trkpt lat="42.155590" lon="-2.888143">
        <ele>907.7</ele>
        <time>2021-07-03T17:22:30.000Z</time>
      </trkpt>
      <trkpt lat="42.155625" lon="-2.888027">
        <ele>908.7</ele>
        <time>2021-07-03T17:22:34.000Z</time>
      </trkpt>
      <trkpt lat="42.155642" lon="-2.887893">
        <ele>909.4</ele>
        <time>2021-07-03T17:22:39.000Z</time>
      </trkpt>
      <trkpt lat="42.155682" lon="-2.887760">
        <ele>909.8</ele>
        <time>2021-07-03T17:22:44.000Z</time>
      </trkpt>
      <trkpt lat="42.155748" lon="-2.887665">
        <ele>910.4</ele>
        <time>2021-07-03T17:22:48.000Z</time>
      </trkpt>
      <trkpt lat="42.155828" lon="-2.887597">
        <ele>911.2</ele>
        <time>2021-07-03T17:22:52.000Z</time>
      </trkpt>
      <trkpt lat="42.155918" lon="-2.887543">
        <ele>911.1</ele>
        <time>2021-07-03T17:22:56.000Z</time>
      </trkpt>
      <trkpt lat="42.156007" lon="-2.887492">
        <ele>912.2</ele>
        <time>2021-07-03T17:23:00.000Z</time>
      </trkpt>
      <trkpt lat="42.156103" lon="-2.887435">
        <ele>912.3</ele>
        <time>2021-07-03T17:23:04.000Z</time>
      </trkpt>
      <trkpt lat="42.156193" lon="-2.887353">
        <ele>912.6</ele>
        <time>2021-07-03T17:23:08.000Z</time>
      </trkpt>
      <trkpt lat="42.156292" lon="-2.887262">
        <ele>913.2</ele>
        <time>2021-07-03T17:23:12.000Z</time>
      </trkpt>
      <trkpt lat="42.156397" lon="-2.887178">
        <ele>913.1</ele>
        <time>2021-07-03T17:23:16.000Z</time>
      </trkpt>
      <trkpt lat="42.156490" lon="-2.887143">
        <ele>913.2</ele>
        <time>2021-07-03T17:23:19.000Z</time>
      </trkpt>
      <trkpt lat="42.156593" lon="-2.887160">
        <ele>913.4</ele>
        <time>2021-07-03T17:23:22.000Z</time>
      </trkpt>
      <trkpt lat="42.156697" lon="-2.887200">
        <ele>914.2</ele>
        <time>2021-07-03T17:23:25.000Z</time>
      </trkpt>
      <trkpt lat="42.156803" lon="-2.887243">
        <ele>913.3</ele>
        <time>2021-07-03T17:23:28.000Z</time>
      </trkpt>
      <trkpt lat="42.156908" lon="-2.887235">
        <ele>913.3</ele>
        <time>2021-07-03T17:23:31.000Z</time>
      </trkpt>
      <trkpt lat="42.156992" lon="-2.887142">
        <ele>913.6</ele>
        <time>2021-07-03T17:23:34.000Z</time>
      </trkpt>
      <trkpt lat="42.157075" lon="-2.887057">
        <ele>914.0</ele>
        <time>2021-07-03T17:23:37.000Z</time>
      </trkpt>
      <trkpt lat="42.157172" lon="-2.886980">
        <ele>914.5</ele>
        <time>2021-07-03T17:23:40.000Z</time>
      </trkpt>
      <trkpt lat="42.157273" lon="-2.886903">
        <ele>914.5</ele>
        <time>2021-07-03T17:23:43.000Z</time>
      </trkpt>
      <trkpt lat="42.157363" lon="-2.886795">
        <ele>914.8</ele>
        <time>2021-07-03T17:23:46.000Z</time>
      </trkpt>
      <trkpt lat="42.157408" lon="-2.886638">
        <ele>914.2</ele>
        <time>2021-07-03T17:23:49.000Z</time>
      </trkpt>
      <trkpt lat="42.157420" lon="-2.886462">
        <ele>914.4</ele>
        <time>2021-07-03T17:23:52.000Z</time>
      </trkpt>
      <trkpt lat="42.157440" lon="-2.886283">
        <ele>914.1</ele>
        <time>2021-07-03T17:23:55.000Z</time>
      </trkpt>
      <trkpt lat="42.157495" lon="-2.886182">
        <ele>914.9</ele>
        <time>2021-07-03T17:23:57.000Z</time>
      </trkpt>
      <trkpt lat="42.157583" lon="-2.886122">
        <ele>914.0</ele>
        <time>2021-07-03T17:23:59.000Z</time>
      </trkpt>
      <trkpt lat="42.157687" lon="-2.886107">
        <ele>913.7</ele>
        <time>2021-07-03T17:24:01.000Z</time>
      </trkpt>
      <trkpt lat="42.157793" lon="-2.886123">
        <ele>913.8</ele>
        <time>2021-07-03T17:24:03.000Z</time>
      </trkpt>
      <trkpt lat="42.157895" lon="-2.886157">
        <ele>913.7</ele>
        <time>2021-07-03T17:24:05.000Z</time>
      </trkpt>
      <trkpt lat="42.157993" lon="-2.886152">
        <ele>913.8</ele>
        <time>2021-07-03T17:24:07.000Z</time>
      </trkpt>
      <trkpt lat="42.158087" lon="-2.886115">
        <ele>913.5</ele>
        <time>2021-07-03T17:24:09.000Z</time>
      </trkpt>
      <trkpt lat="42.158173" lon="-2.886075">
        <ele>913.0</ele>
        <time>2021-07-03T17:24:11.000Z</time>
      </trkpt>
      <trkpt lat="42.158288" lon="-2.886022">
        <ele>913.1</ele>
        <time>2021-07-03T17:24:14.000Z</time>
      </trkpt>
      <trkpt lat="42.158398" lon="-2.885970">
        <ele>913.2</ele>
        <time>2021-07-03T17:24:17.000Z</time>
      </trkpt>
      <trkpt lat="42.158508" lon="-2.885935">
        <ele>912.6</ele>
        <time>2021-07-03T17:24:20.000Z</time>
      </trkpt>
      <trkpt lat="42.158615" lon="-2.885900">
        <ele>912.8</ele>
        <time>2021-07-03T17:24:23.000Z</time>
      </trkpt>
      <trkpt lat="42.158723" lon="-2.885867">
        <ele>913.1</ele>
        <time>2021-07-03T17:24:26.000Z</time>
      </trkpt>
      <trkpt lat="42.158837" lon="-2.885842">
        <ele>913.1</ele>
        <time>2021-07-03T17:24:29.000Z</time>
      </trkpt>
      <trkpt lat="42.158950" lon="-2.885810">
        <ele>913.3</ele>
        <time>2021-07-03T17:24:32.000Z</time>
      </trkpt>
      <trkpt lat="42.159055" lon="-2.885785">
        <ele>913.0</ele>
        <time>2021-07-03T17:24:35.000Z</time>
      </trkpt>
      <trkpt lat="42.159157" lon="-2.885742">
        <ele>913.2</ele>
        <time>2021-07-03T17:24:38.000Z</time>
      </trkpt>
      <trkpt lat="42.159257" lon="-2.885677">
        <ele>912.7</ele>
        <time>2021-07-03T17:24:41.000Z</time>
      </trkpt>
      <trkpt lat="42.159355" lon="-2.885610">
        <ele>912.8</ele>
        <time>2021-07-03T17:24:44.000Z</time>
      </trkpt>
      <trkpt lat="42.159465" lon="-2.885562">
        <ele>912.4</ele>
        <time>2021-07-03T17:24:47.000Z</time>
      </trkpt>
      <trkpt lat="42.159567" lon="-2.885490">
        <ele>912.6</ele>
        <time>2021-07-03T17:24:50.000Z</time>
      </trkpt>
      <trkpt lat="42.159662" lon="-2.885393">
        <ele>912.1</ele>
        <time>2021-07-03T17:24:53.000Z</time>
      </trkpt>
      <trkpt lat="42.159777" lon="-2.885307">
        <ele>911.3</ele>
        <time>2021-07-03T17:24:56.000Z</time>
      </trkpt>
      <trkpt lat="42.159867" lon="-2.885247">
        <ele>910.9</ele>
        <time>2021-07-03T17:24:58.000Z</time>
      </trkpt>
      <trkpt lat="42.159952" lon="-2.885163">
        <ele>910.9</ele>
        <time>2021-07-03T17:25:00.000Z</time>
      </trkpt>
      <trkpt lat="42.160012" lon="-2.885055">
        <ele>910.7</ele>
        <time>2021-07-03T17:25:02.000Z</time>
      </trkpt>
      <trkpt lat="42.160072" lon="-2.884962">
        <ele>910.8</ele>
        <time>2021-07-03T17:25:04.000Z</time>
      </trkpt>
      <trkpt lat="42.160175" lon="-2.884873">
        <ele>910.9</ele>
        <time>2021-07-03T17:25:07.000Z</time>
      </trkpt>
      <trkpt lat="42.160288" lon="-2.884817">
        <ele>911.2</ele>
        <time>2021-07-03T17:25:10.000Z</time>
      </trkpt>
      <trkpt lat="42.160387" lon="-2.884735">
        <ele>910.8</ele>
        <time>2021-07-03T17:25:13.000Z</time>
      </trkpt>
      <trkpt lat="42.160433" lon="-2.884582">
        <ele>910.7</ele>
        <time>2021-07-03T17:25:16.000Z</time>
      </trkpt>
      <trkpt lat="42.160455" lon="-2.884402">
        <ele>910.8</ele>
        <time>2021-07-03T17:25:19.000Z</time>
      </trkpt>
      <trkpt lat="42.160502" lon="-2.884290">
        <ele>910.7</ele>
        <time>2021-07-03T17:25:21.000Z</time>
      </trkpt>
      <trkpt lat="42.160562" lon="-2.884190">
        <ele>910.1</ele>
        <time>2021-07-03T17:25:23.000Z</time>
      </trkpt>
      <trkpt lat="42.160620" lon="-2.884095">
        <ele>909.6</ele>
        <time>2021-07-03T17:25:25.000Z</time>
      </trkpt>
      <trkpt lat="42.160702" lon="-2.883963">
        <ele>909.2</ele>
        <time>2021-07-03T17:25:28.000Z</time>
      </trkpt>
      <trkpt lat="42.160772" lon="-2.883828">
        <ele>909.2</ele>
        <time>2021-07-03T17:25:31.000Z</time>
      </trkpt>
      <trkpt lat="42.160840" lon="-2.883688">
        <ele>909.0</ele>
        <time>2021-07-03T17:25:34.000Z</time>
      </trkpt>
      <trkpt lat="42.160875" lon="-2.883575">
        <ele>908.6</ele>
        <time>2021-07-03T17:25:36.000Z</time>
      </trkpt>
      <trkpt lat="42.160917" lon="-2.883415">
        <ele>908.1</ele>
        <time>2021-07-03T17:25:39.000Z</time>
      </trkpt>
      <trkpt lat="42.160960" lon="-2.883308">
        <ele>907.5</ele>
        <time>2021-07-03T17:25:41.000Z</time>
      </trkpt>
      <trkpt lat="42.161027" lon="-2.883220">
        <ele>907.2</ele>
        <time>2021-07-03T17:25:43.000Z</time>
      </trkpt>
      <trkpt lat="42.161115" lon="-2.883163">
        <ele>907.2</ele>
        <time>2021-07-03T17:25:45.000Z</time>
      </trkpt>
      <trkpt lat="42.161207" lon="-2.883133">
        <ele>907.6</ele>
        <time>2021-07-03T17:25:47.000Z</time>
      </trkpt>
      <trkpt lat="42.161323" lon="-2.883132">
        <ele>908.1</ele>
        <time>2021-07-03T17:25:50.000Z</time>
      </trkpt>
      <trkpt lat="42.161420" lon="-2.883160">
        <ele>908.8</ele>
        <time>2021-07-03T17:25:53.000Z</time>
      </trkpt>
      <trkpt lat="42.161530" lon="-2.883190">
        <ele>909.1</ele>
        <time>2021-07-03T17:25:57.000Z</time>
      </trkpt>
      <trkpt lat="42.161630" lon="-2.883227">
        <ele>910.1</ele>
        <time>2021-07-03T17:26:01.000Z</time>
      </trkpt>
      <trkpt lat="42.161720" lon="-2.883263">
        <ele>911.0</ele>
        <time>2021-07-03T17:26:05.000Z</time>
      </trkpt>
      <trkpt lat="42.161825" lon="-2.883317">
        <ele>911.3</ele>
        <time>2021-07-03T17:26:10.000Z</time>
      </trkpt>
      <trkpt lat="42.161912" lon="-2.883355">
        <ele>911.6</ele>
        <time>2021-07-03T17:26:14.000Z</time>
      </trkpt>
      <trkpt lat="42.162017" lon="-2.883383">
        <ele>912.4</ele>
        <time>2021-07-03T17:26:19.000Z</time>
      </trkpt>
      <trkpt lat="42.162122" lon="-2.883392">
        <ele>913.2</ele>
        <time>2021-07-03T17:26:24.000Z</time>
      </trkpt>
      <trkpt lat="42.162225" lon="-2.883402">
        <ele>913.5</ele>
        <time>2021-07-03T17:26:29.000Z</time>
      </trkpt>
      <trkpt lat="42.162333" lon="-2.883410">
        <ele>913.9</ele>
        <time>2021-07-03T17:26:34.000Z</time>
      </trkpt>
      <trkpt lat="42.162433" lon="-2.883413">
        <ele>914.2</ele>
        <time>2021-07-03T17:26:39.000Z</time>
      </trkpt>
      <trkpt lat="42.162535" lon="-2.883422">
        <ele>914.7</ele>
        <time>2021-07-03T17:26:44.000Z</time>
      </trkpt>
      <trkpt lat="42.162638" lon="-2.883422">
        <ele>915.2</ele>
        <time>2021-07-03T17:26:49.000Z</time>
      </trkpt>
      <trkpt lat="42.162743" lon="-2.883423">
        <ele>915.9</ele>
        <time>2021-07-03T17:26:54.000Z</time>
      </trkpt>
      <trkpt lat="42.162848" lon="-2.883407">
        <ele>916.4</ele>
        <time>2021-07-03T17:26:59.000Z</time>
      </trkpt>
      <trkpt lat="42.162953" lon="-2.883352">
        <ele>916.8</ele>
        <time>2021-07-03T17:27:04.000Z</time>
      </trkpt>
      <trkpt lat="42.163028" lon="-2.883282">
        <ele>916.9</ele>
        <time>2021-07-03T17:27:08.000Z</time>
      </trkpt>
      <trkpt lat="42.163103" lon="-2.883203">
        <ele>917.2</ele>
        <time>2021-07-03T17:27:12.000Z</time>
      </trkpt>
      <trkpt lat="42.163180" lon="-2.883128">
        <ele>917.4</ele>
        <time>2021-07-03T17:27:16.000Z</time>
      </trkpt>
      <trkpt lat="42.163252" lon="-2.883040">
        <ele>918.3</ele>
        <time>2021-07-03T17:27:20.000Z</time>
      </trkpt>
      <trkpt lat="42.163308" lon="-2.882940">
        <ele>918.1</ele>
        <time>2021-07-03T17:27:24.000Z</time>
      </trkpt>
      <trkpt lat="42.163360" lon="-2.882830">
        <ele>918.7</ele>
        <time>2021-07-03T17:27:28.000Z</time>
      </trkpt>
      <trkpt lat="42.163410" lon="-2.882712">
        <ele>918.8</ele>
        <time>2021-07-03T17:27:32.000Z</time>
      </trkpt>
      <trkpt lat="42.163460" lon="-2.882592">
        <ele>918.8</ele>
        <time>2021-07-03T17:27:36.000Z</time>
      </trkpt>
      <trkpt lat="42.163512" lon="-2.882475">
        <ele>918.9</ele>
        <time>2021-07-03T17:27:40.000Z</time>
      </trkpt>
      <trkpt lat="42.163602" lon="-2.882377">
        <ele>918.7</ele>
        <time>2021-07-03T17:27:44.000Z</time>
      </trkpt>
      <trkpt lat="42.163713" lon="-2.882368">
        <ele>918.4</ele>
        <time>2021-07-03T17:27:47.000Z</time>
      </trkpt>
      <trkpt lat="42.163842" lon="-2.882407">
        <ele>918.0</ele>
        <time>2021-07-03T17:27:50.000Z</time>
      </trkpt>
      <trkpt lat="42.163930" lon="-2.882442">
        <ele>917.6</ele>
        <time>2021-07-03T17:27:52.000Z</time>
      </trkpt>
      <trkpt lat="42.164025" lon="-2.882482">
        <ele>917.0</ele>
        <time>2021-07-03T17:27:54.000Z</time>
      </trkpt>
      <trkpt lat="42.164115" lon="-2.882528">
        <ele>916.4</ele>
        <time>2021-07-03T17:27:56.000Z</time>
      </trkpt>
      <trkpt lat="42.164207" lon="-2.882575">
        <ele>916.4</ele>
        <time>2021-07-03T17:27:58.000Z</time>
      </trkpt>
      <trkpt lat="42.164302" lon="-2.882622">
        <ele>916.2</ele>
        <time>2021-07-03T17:28:00.000Z</time>
      </trkpt>
      <trkpt lat="42.164403" lon="-2.882655">
        <ele>916.0</ele>
        <time>2021-07-03T17:28:02.000Z</time>
      </trkpt>
      <trkpt lat="42.164507" lon="-2.882673">
        <ele>915.1</ele>
        <time>2021-07-03T17:28:04.000Z</time>
      </trkpt>
      <trkpt lat="42.164615" lon="-2.882688">
        <ele>914.8</ele>
        <time>2021-07-03T17:28:06.000Z</time>
      </trkpt>
      <trkpt lat="42.164728" lon="-2.882713">
        <ele>914.4</ele>
        <time>2021-07-03T17:28:08.000Z</time>
      </trkpt>
      <trkpt lat="42.164835" lon="-2.882775">
        <ele>914.3</ele>
        <time>2021-07-03T17:28:10.000Z</time>
      </trkpt>
      <trkpt lat="42.164925" lon="-2.882863">
        <ele>913.8</ele>
        <time>2021-07-03T17:28:12.000Z</time>
      </trkpt>
      <trkpt lat="42.165007" lon="-2.882957">
        <ele>913.5</ele>
        <time>2021-07-03T17:28:14.000Z</time>
      </trkpt>
      <trkpt lat="42.165085" lon="-2.883055">
        <ele>913.1</ele>
        <time>2021-07-03T17:28:16.000Z</time>
      </trkpt>
      <trkpt lat="42.165160" lon="-2.883163">
        <ele>912.4</ele>
        <time>2021-07-03T17:28:18.000Z</time>
      </trkpt>
      <trkpt lat="42.165233" lon="-2.883277">
        <ele>912.7</ele>
        <time>2021-07-03T17:28:20.000Z</time>
      </trkpt>
      <trkpt lat="42.165307" lon="-2.883393">
        <ele>911.8</ele>
        <time>2021-07-03T17:28:22.000Z</time>
      </trkpt>
      <trkpt lat="42.165387" lon="-2.883505">
        <ele>911.8</ele>
        <time>2021-07-03T17:28:24.000Z</time>
      </trkpt>
      <trkpt lat="42.165490" lon="-2.883588">
        <ele>911.3</ele>
        <time>2021-07-03T17:28:26.000Z</time>
      </trkpt>
      <trkpt lat="42.165607" lon="-2.883630">
        <ele>910.5</ele>
        <time>2021-07-03T17:28:28.000Z</time>
      </trkpt>
      <trkpt lat="42.165728" lon="-2.883653">
        <ele>910.5</ele>
        <time>2021-07-03T17:28:30.000Z</time>
      </trkpt>
      <trkpt lat="42.165853" lon="-2.883687">
        <ele>909.4</ele>
        <time>2021-07-03T17:28:32.000Z</time>
      </trkpt>
      <trkpt lat="42.165990" lon="-2.883710">
        <ele>908.3</ele>
        <time>2021-07-03T17:28:34.000Z</time>
      </trkpt>
      <trkpt lat="42.166135" lon="-2.883698">
        <ele>908.2</ele>
        <time>2021-07-03T17:28:36.000Z</time>
      </trkpt>
      <trkpt lat="42.166280" lon="-2.883662">
        <ele>907.7</ele>
        <time>2021-07-03T17:28:38.000Z</time>
      </trkpt>
      <trkpt lat="42.166422" lon="-2.883617">
        <ele>906.4</ele>
        <time>2021-07-03T17:28:40.000Z</time>
      </trkpt>
      <trkpt lat="42.166555" lon="-2.883532">
        <ele>905.2</ele>
        <time>2021-07-03T17:28:42.000Z</time>
      </trkpt>
      <trkpt lat="42.166672" lon="-2.883403">
        <ele>904.5</ele>
        <time>2021-07-03T17:28:44.000Z</time>
      </trkpt>
      <trkpt lat="42.166792" lon="-2.883293">
        <ele>903.8</ele>
        <time>2021-07-03T17:28:46.000Z</time>
      </trkpt>
      <trkpt lat="42.166912" lon="-2.883190">
        <ele>903.0</ele>
        <time>2021-07-03T17:28:48.000Z</time>
      </trkpt>
      <trkpt lat="42.167007" lon="-2.883047">
        <ele>902.0</ele>
        <time>2021-07-03T17:28:50.000Z</time>
      </trkpt>
      <trkpt lat="42.167110" lon="-2.882953">
        <ele>901.4</ele>
        <time>2021-07-03T17:28:52.000Z</time>
      </trkpt>
      <trkpt lat="42.167223" lon="-2.883008">
        <ele>900.8</ele>
        <time>2021-07-03T17:28:54.000Z</time>
      </trkpt>
      <trkpt lat="42.167297" lon="-2.883153">
        <ele>900.4</ele>
        <time>2021-07-03T17:28:56.000Z</time>
      </trkpt>
      <trkpt lat="42.167363" lon="-2.883307">
        <ele>899.8</ele>
        <time>2021-07-03T17:28:58.000Z</time>
      </trkpt>
      <trkpt lat="42.167443" lon="-2.883452">
        <ele>900.1</ele>
        <time>2021-07-03T17:29:00.000Z</time>
      </trkpt>
      <trkpt lat="42.167528" lon="-2.883593">
        <ele>899.8</ele>
        <time>2021-07-03T17:29:02.000Z</time>
      </trkpt>
      <trkpt lat="42.167618" lon="-2.883732">
        <ele>899.6</ele>
        <time>2021-07-03T17:29:04.000Z</time>
      </trkpt>
      <trkpt lat="42.167720" lon="-2.883848">
        <ele>898.2</ele>
        <time>2021-07-03T17:29:06.000Z</time>
      </trkpt>
      <trkpt lat="42.167840" lon="-2.883930">
        <ele>898.4</ele>
        <time>2021-07-03T17:29:08.000Z</time>
      </trkpt>
      <trkpt lat="42.167968" lon="-2.883973">
        <ele>898.3</ele>
        <time>2021-07-03T17:29:10.000Z</time>
      </trkpt>
      <trkpt lat="42.168102" lon="-2.884002">
        <ele>897.6</ele>
        <time>2021-07-03T17:29:12.000Z</time>
      </trkpt>
      <trkpt lat="42.168237" lon="-2.884012">
        <ele>896.7</ele>
        <time>2021-07-03T17:29:14.000Z</time>
      </trkpt>
      <trkpt lat="42.168372" lon="-2.883967">
        <ele>894.9</ele>
        <time>2021-07-03T17:29:16.000Z</time>
      </trkpt>
      <trkpt lat="42.168502" lon="-2.883890">
        <ele>894.3</ele>
        <time>2021-07-03T17:29:18.000Z</time>
      </trkpt>
      <trkpt lat="42.168642" lon="-2.883887">
        <ele>893.0</ele>
        <time>2021-07-03T17:29:20.000Z</time>
      </trkpt>
      <trkpt lat="42.168788" lon="-2.883948">
        <ele>891.6</ele>
        <time>2021-07-03T17:29:22.000Z</time>
      </trkpt>
      <trkpt lat="42.168933" lon="-2.884048">
        <ele>889.3</ele>
        <time>2021-07-03T17:29:24.000Z</time>
      </trkpt>
      <trkpt lat="42.169083" lon="-2.884162">
        <ele>888.4</ele>
        <time>2021-07-03T17:29:26.000Z</time>
      </trkpt>
      <trkpt lat="42.169238" lon="-2.884262">
        <ele>887.7</ele>
        <time>2021-07-03T17:29:28.000Z</time>
      </trkpt>
      <trkpt lat="42.169400" lon="-2.884357">
        <ele>886.0</ele>
        <time>2021-07-03T17:29:30.000Z</time>
      </trkpt>
      <trkpt lat="42.169560" lon="-2.884445">
        <ele>883.8</ele>
        <time>2021-07-03T17:29:32.000Z</time>
      </trkpt>
      <trkpt lat="42.169725" lon="-2.884508">
        <ele>882.9</ele>
        <time>2021-07-03T17:29:34.000Z</time>
      </trkpt>
      <trkpt lat="42.169893" lon="-2.884510">
        <ele>881.4</ele>
        <time>2021-07-03T17:29:36.000Z</time>
      </trkpt>
      <trkpt lat="42.170043" lon="-2.884423">
        <ele>880.4</ele>
        <time>2021-07-03T17:29:38.000Z</time>
      </trkpt>
      <trkpt lat="42.170187" lon="-2.884308">
        <ele>880.7</ele>
        <time>2021-07-03T17:29:40.000Z</time>
      </trkpt>
      <trkpt lat="42.170337" lon="-2.884233">
        <ele>879.2</ele>
        <time>2021-07-03T17:29:42.000Z</time>
      </trkpt>
      <trkpt lat="42.170472" lon="-2.884122">
        <ele>877.5</ele>
        <time>2021-07-03T17:29:44.000Z</time>
      </trkpt>
      <trkpt lat="42.170570" lon="-2.883933">
        <ele>877.0</ele>
        <time>2021-07-03T17:29:46.000Z</time>
      </trkpt>
      <trkpt lat="42.170640" lon="-2.883713">
        <ele>875.7</ele>
        <time>2021-07-03T17:29:48.000Z</time>
      </trkpt>
      <trkpt lat="42.170667" lon="-2.883597">
        <ele>874.5</ele>
        <time>2021-07-03T17:29:49.000Z</time>
      </trkpt>
      <trkpt lat="42.170703" lon="-2.883377">
        <ele>873.4</ele>
        <time>2021-07-03T17:29:51.000Z</time>
      </trkpt>
      <trkpt lat="42.170777" lon="-2.883227">
        <ele>872.6</ele>
        <time>2021-07-03T17:29:53.000Z</time>
      </trkpt>
      <trkpt lat="42.170913" lon="-2.883198">
        <ele>871.5</ele>
        <time>2021-07-03T17:29:55.000Z</time>
      </trkpt>
      <trkpt lat="42.171068" lon="-2.883223">
        <ele>870.4</ele>
        <time>2021-07-03T17:29:57.000Z</time>
      </trkpt>
      <trkpt lat="42.171230" lon="-2.883222">
        <ele>869.9</ele>
        <time>2021-07-03T17:29:59.000Z</time>
      </trkpt>
      <trkpt lat="42.171400" lon="-2.883197">
        <ele>869.4</ele>
        <time>2021-07-03T17:30:01.000Z</time>
      </trkpt>
      <trkpt lat="42.171570" lon="-2.883157">
        <ele>868.7</ele>
        <time>2021-07-03T17:30:03.000Z</time>
      </trkpt>
      <trkpt lat="42.171738" lon="-2.883140">
        <ele>867.6</ele>
        <time>2021-07-03T17:30:05.000Z</time>
      </trkpt>
      <trkpt lat="42.171910" lon="-2.883200">
        <ele>866.8</ele>
        <time>2021-07-03T17:30:07.000Z</time>
      </trkpt>
      <trkpt lat="42.171992" lon="-2.883255">
        <ele>866.3</ele>
        <time>2021-07-03T17:30:08.000Z</time>
      </trkpt>
      <trkpt lat="42.172068" lon="-2.883320">
        <ele>865.5</ele>
        <time>2021-07-03T17:30:09.000Z</time>
      </trkpt>
      <trkpt lat="42.172205" lon="-2.883468">
        <ele>865.6</ele>
        <time>2021-07-03T17:30:11.000Z</time>
      </trkpt>
      <trkpt lat="42.172335" lon="-2.883617">
        <ele>864.9</ele>
        <time>2021-07-03T17:30:13.000Z</time>
      </trkpt>
      <trkpt lat="42.172468" lon="-2.883755">
        <ele>863.4</ele>
        <time>2021-07-03T17:30:15.000Z</time>
      </trkpt>
      <trkpt lat="42.172613" lon="-2.883895">
        <ele>862.1</ele>
        <time>2021-07-03T17:30:17.000Z</time>
      </trkpt>
      <trkpt lat="42.172770" lon="-2.884005">
        <ele>860.7</ele>
        <time>2021-07-03T17:30:19.000Z</time>
      </trkpt>
      <trkpt lat="42.172938" lon="-2.884055">
        <ele>859.9</ele>
        <time>2021-07-03T17:30:21.000Z</time>
      </trkpt>
      <trkpt lat="42.173090" lon="-2.884087">
        <ele>861.1</ele>
        <time>2021-07-03T17:30:23.000Z</time>
      </trkpt>
      <trkpt lat="42.173215" lon="-2.884170">
        <ele>859.4</ele>
        <time>2021-07-03T17:30:25.000Z</time>
      </trkpt>
      <trkpt lat="42.173313" lon="-2.884313">
        <ele>859.4</ele>
        <time>2021-07-03T17:30:27.000Z</time>
      </trkpt>
      <trkpt lat="42.173345" lon="-2.884498">
        <ele>858.9</ele>
        <time>2021-07-03T17:30:29.000Z</time>
      </trkpt>
      <trkpt lat="42.173287" lon="-2.884697">
        <ele>857.8</ele>
        <time>2021-07-03T17:30:31.000Z</time>
      </trkpt>
      <trkpt lat="42.173185" lon="-2.884892">
        <ele>856.1</ele>
        <time>2021-07-03T17:30:33.000Z</time>
      </trkpt>
      <trkpt lat="42.173132" lon="-2.884993">
        <ele>855.4</ele>
        <time>2021-07-03T17:30:34.000Z</time>
      </trkpt>
      <trkpt lat="42.173080" lon="-2.885103">
        <ele>854.9</ele>
        <time>2021-07-03T17:30:35.000Z</time>
      </trkpt>
      <trkpt lat="42.173035" lon="-2.885220">
        <ele>855.0</ele>
        <time>2021-07-03T17:30:36.000Z</time>
      </trkpt>
      <trkpt lat="42.172997" lon="-2.885333">
        <ele>854.8</ele>
        <time>2021-07-03T17:30:37.000Z</time>
      </trkpt>
      <trkpt lat="42.172943" lon="-2.885528">
        <ele>853.5</ele>
        <time>2021-07-03T17:30:39.000Z</time>
      </trkpt>
      <trkpt lat="42.172920" lon="-2.885698">
        <ele>853.3</ele>
        <time>2021-07-03T17:30:41.000Z</time>
      </trkpt>
      <trkpt lat="42.172968" lon="-2.885840">
        <ele>853.9</ele>
        <time>2021-07-03T17:30:43.000Z</time>
      </trkpt>
      <trkpt lat="42.173070" lon="-2.885905">
        <ele>853.0</ele>
        <time>2021-07-03T17:30:45.000Z</time>
      </trkpt>
      <trkpt lat="42.173177" lon="-2.885948">
        <ele>852.6</ele>
        <time>2021-07-03T17:30:47.000Z</time>
      </trkpt>
      <trkpt lat="42.173273" lon="-2.885992">
        <ele>852.9</ele>
        <time>2021-07-03T17:30:49.000Z</time>
      </trkpt>
      <trkpt lat="42.173385" lon="-2.885993">
        <ele>852.8</ele>
        <time>2021-07-03T17:30:52.000Z</time>
      </trkpt>
      <trkpt lat="42.173457" lon="-2.885900">
        <ele>853.0</ele>
        <time>2021-07-03T17:30:55.000Z</time>
      </trkpt>
      <trkpt lat="42.173517" lon="-2.885790">
        <ele>852.4</ele>
        <time>2021-07-03T17:30:58.000Z</time>
      </trkpt>
      <trkpt lat="42.173567" lon="-2.885675">
        <ele>852.2</ele>
        <time>2021-07-03T17:31:01.000Z</time>
      </trkpt>
      <trkpt lat="42.173618" lon="-2.885567">
        <ele>852.0</ele>
        <time>2021-07-03T17:31:05.000Z</time>
      </trkpt>
      <trkpt lat="42.173692" lon="-2.885477">
        <ele>852.1</ele>
        <time>2021-07-03T17:31:12.000Z</time>
      </trkpt>
      <trkpt lat="42.173692" lon="-2.885477">
        <ele>852.2</ele>
        <time>2021-07-03T17:31:13.000Z</time>
      </trkpt>
      <trkpt lat="42.173693" lon="-2.885477">
        <ele>852.0</ele>
        <time>2021-07-03T17:31:17.000Z</time>
      </trkpt>
      <trkpt lat="42.173693" lon="-2.885477">
        <ele>851.9</ele>
        <time>2021-07-03T17:31:18.000Z</time>
      </trkpt>
      <trkpt lat="42.173697" lon="-2.885472">
        <ele>851.9</ele>
        <time>2021-07-03T17:31:21.000Z</time>
      </trkpt>
      <trkpt lat="42.173700" lon="-2.885455">
        <ele>851.5</ele>
        <time>2021-07-03T17:31:25.000Z</time>
      </trkpt>
      <trkpt lat="42.173705" lon="-2.885448">
        <ele>852.0</ele>
        <time>2021-07-03T17:31:39.000Z</time>
      </trkpt>
      <trkpt lat="42.173805" lon="-2.885372">
        <ele>851.6</ele>
        <time>2021-07-03T17:31:44.000Z</time>
      </trkpt>
      <trkpt lat="42.173917" lon="-2.885337">
        <ele>851.1</ele>
        <time>2021-07-03T17:31:47.000Z</time>
      </trkpt>
      <trkpt lat="42.174045" lon="-2.885338">
        <ele>851.0</ele>
        <time>2021-07-03T17:31:50.000Z</time>
      </trkpt>
      <trkpt lat="42.174135" lon="-2.885352">
        <ele>851.0</ele>
        <time>2021-07-03T17:31:52.000Z</time>
      </trkpt>
      <trkpt lat="42.174222" lon="-2.885387">
        <ele>850.4</ele>
        <time>2021-07-03T17:31:54.000Z</time>
      </trkpt>
      <trkpt lat="42.174338" lon="-2.885462">
        <ele>851.2</ele>
        <time>2021-07-03T17:31:57.000Z</time>
      </trkpt>
      <trkpt lat="42.174447" lon="-2.885555">
        <ele>850.5</ele>
        <time>2021-07-03T17:32:00.000Z</time>
      </trkpt>
      <trkpt lat="42.174548" lon="-2.885643">
        <ele>850.7</ele>
        <time>2021-07-03T17:32:03.000Z</time>
      </trkpt>
      <trkpt lat="42.174655" lon="-2.885722">
        <ele>849.9</ele>
        <time>2021-07-03T17:32:06.000Z</time>
      </trkpt>
      <trkpt lat="42.174768" lon="-2.885803">
        <ele>849.7</ele>
        <time>2021-07-03T17:32:09.000Z</time>
      </trkpt>
      <trkpt lat="42.174888" lon="-2.885850">
        <ele>849.6</ele>
        <time>2021-07-03T17:32:12.000Z</time>
      </trkpt>
      <trkpt lat="42.175008" lon="-2.885845">
        <ele>848.7</ele>
        <time>2021-07-03T17:32:15.000Z</time>
      </trkpt>
      <trkpt lat="42.175115" lon="-2.885802">
        <ele>848.4</ele>
        <time>2021-07-03T17:32:18.000Z</time>
      </trkpt>
      <trkpt lat="42.175212" lon="-2.885757">
        <ele>848.7</ele>
        <time>2021-07-03T17:32:21.000Z</time>
      </trkpt>
      <trkpt lat="42.175302" lon="-2.885707">
        <ele>848.8</ele>
        <time>2021-07-03T17:32:24.000Z</time>
      </trkpt>
      <trkpt lat="42.175383" lon="-2.885635">
        <ele>849.2</ele>
        <time>2021-07-03T17:32:27.000Z</time>
      </trkpt>
      <trkpt lat="42.175457" lon="-2.885543">
        <ele>849.5</ele>
        <time>2021-07-03T17:32:30.000Z</time>
      </trkpt>
      <trkpt lat="42.175530" lon="-2.885440">
        <ele>849.0</ele>
        <time>2021-07-03T17:32:33.000Z</time>
      </trkpt>
      <trkpt lat="42.175603" lon="-2.885330">
        <ele>849.3</ele>
        <time>2021-07-03T17:32:36.000Z</time>
      </trkpt>
      <trkpt lat="42.175677" lon="-2.885217">
        <ele>849.8</ele>
        <time>2021-07-03T17:32:39.000Z</time>
      </trkpt>
      <trkpt lat="42.175755" lon="-2.885105">
        <ele>849.7</ele>
        <time>2021-07-03T17:32:42.000Z</time>
      </trkpt>
      <trkpt lat="42.175838" lon="-2.884993">
        <ele>850.0</ele>
        <time>2021-07-03T17:32:45.000Z</time>
      </trkpt>
      <trkpt lat="42.175928" lon="-2.884888">
        <ele>849.9</ele>
        <time>2021-07-03T17:32:48.000Z</time>
      </trkpt>
      <trkpt lat="42.176027" lon="-2.884792">
        <ele>849.9</ele>
        <time>2021-07-03T17:32:51.000Z</time>
      </trkpt>
      <trkpt lat="42.176128" lon="-2.884702">
        <ele>850.5</ele>
        <time>2021-07-03T17:32:54.000Z</time>
      </trkpt>
      <trkpt lat="42.176222" lon="-2.884603">
        <ele>851.0</ele>
        <time>2021-07-03T17:32:57.000Z</time>
      </trkpt>
      <trkpt lat="42.176303" lon="-2.884508">
        <ele>851.2</ele>
        <time>2021-07-03T17:33:00.000Z</time>
      </trkpt>
      <trkpt lat="42.176367" lon="-2.884417">
        <ele>851.5</ele>
        <time>2021-07-03T17:33:03.000Z</time>
      </trkpt>
      <trkpt lat="42.176430" lon="-2.884288">
        <ele>851.7</ele>
        <time>2021-07-03T17:33:07.000Z</time>
      </trkpt>
      <trkpt lat="42.176488" lon="-2.884163">
        <ele>852.2</ele>
        <time>2021-07-03T17:33:11.000Z</time>
      </trkpt>
      <trkpt lat="42.176545" lon="-2.884047">
        <ele>852.9</ele>
        <time>2021-07-03T17:33:15.000Z</time>
      </trkpt>
      <trkpt lat="42.176608" lon="-2.883952">
        <ele>854.0</ele>
        <time>2021-07-03T17:33:19.000Z</time>
      </trkpt>
      <trkpt lat="42.176663" lon="-2.883848">
        <ele>853.9</ele>
        <time>2021-07-03T17:33:23.000Z</time>
      </trkpt>
      <trkpt lat="42.176730" lon="-2.883765">
        <ele>854.9</ele>
        <time>2021-07-03T17:33:27.000Z</time>
      </trkpt>
      <trkpt lat="42.176815" lon="-2.883685">
        <ele>856.1</ele>
        <time>2021-07-03T17:33:32.000Z</time>
      </trkpt>
      <trkpt lat="42.176867" lon="-2.883567">
        <ele>856.0</ele>
        <time>2021-07-03T17:33:38.000Z</time>
      </trkpt>
      <trkpt lat="42.176827" lon="-2.883453">
        <ele>856.4</ele>
        <time>2021-07-03T17:33:42.000Z</time>
      </trkpt>
      <trkpt lat="42.176770" lon="-2.883340">
        <ele>856.4</ele>
        <time>2021-07-03T17:33:48.000Z</time>
      </trkpt>
      <trkpt lat="42.176757" lon="-2.883287">
        <ele>856.4</ele>
        <time>2021-07-03T17:33:52.000Z</time>
      </trkpt>
      <trkpt lat="42.176758" lon="-2.883283">
        <ele>856.1</ele>
        <time>2021-07-03T17:34:51.000Z</time>
      </trkpt>
      <trkpt lat="42.176758" lon="-2.883282">
        <ele>856.2</ele>
        <time>2021-07-03T17:34:52.000Z</time>
      </trkpt>
      <trkpt lat="42.176753" lon="-2.883278">
        <ele>856.2</ele>
        <time>2021-07-03T17:34:53.000Z</time>
      </trkpt>
      <trkpt lat="42.176705" lon="-2.883195">
        <ele>855.5</ele>
        <time>2021-07-03T17:35:04.000Z</time>
      </trkpt>
      <trkpt lat="42.176702" lon="-2.883193">
        <ele>855.4</ele>
        <time>2021-07-03T17:35:05.000Z</time>
      </trkpt>
      <trkpt lat="42.176698" lon="-2.883192">
        <ele>855.7</ele>
        <time>2021-07-03T17:35:07.000Z</time>
      </trkpt>
      <trkpt lat="42.176697" lon="-2.883190">
        <ele>855.9</ele>
        <time>2021-07-03T17:35:10.000Z</time>
      </trkpt>
      <trkpt lat="42.176693" lon="-2.883190">
        <ele>855.8</ele>
        <time>2021-07-03T17:35:13.000Z</time>
      </trkpt>
      <trkpt lat="42.176695" lon="-2.883190">
        <ele>855.4</ele>
        <time>2021-07-03T17:35:36.000Z</time>
      </trkpt>
      <trkpt lat="42.176695" lon="-2.883190">
        <ele>855.4</ele>
        <time>2021-07-03T17:35:37.000Z</time>
      </trkpt>
      <trkpt lat="42.176697" lon="-2.883192">
        <ele>854.4</ele>
        <time>2021-07-03T17:37:12.000Z</time>
      </trkpt>
      <trkpt lat="42.176697" lon="-2.883192">
        <ele>854.4</ele>
        <time>2021-07-03T17:37:13.000Z</time>
      </trkpt>
      <trkpt lat="42.176698" lon="-2.883192">
        <ele>853.9</ele>
        <time>2021-07-03T17:38:09.000Z</time>
      </trkpt>
      <trkpt lat="42.176698" lon="-2.883192">
        <ele>853.8</ele>
        <time>2021-07-03T17:38:10.000Z</time>
      </trkpt>
      <trkpt lat="42.176700" lon="-2.883192">
        <ele>853.3</ele>
        <time>2021-07-03T17:39:07.000Z</time>
      </trkpt>
      <trkpt lat="42.176700" lon="-2.883192">
        <ele>853.4</ele>
        <time>2021-07-03T17:39:08.000Z</time>
      </trkpt>
      <trkpt lat="42.176702" lon="-2.883192">
        <ele>853.5</ele>
        <time>2021-07-03T17:39:12.000Z</time>
      </trkpt>
      <trkpt lat="42.176708" lon="-2.883177">
        <ele>852.8</ele>
        <time>2021-07-03T17:39:16.000Z</time>
      </trkpt>
      <trkpt lat="42.176708" lon="-2.883173">
        <ele>853.0</ele>
        <time>2021-07-03T17:39:17.000Z</time>
      </trkpt>
      <trkpt lat="42.176693" lon="-2.883012">
        <ele>851.8</ele>
        <time>2021-07-03T17:39:22.000Z</time>
      </trkpt>
      <trkpt lat="42.176677" lon="-2.882870">
        <ele>849.5</ele>
        <time>2021-07-03T17:39:25.000Z</time>
      </trkpt>
      <trkpt lat="42.176662" lon="-2.882713">
        <ele>846.1</ele>
        <time>2021-07-03T17:39:28.000Z</time>
      </trkpt>
      <trkpt lat="42.176655" lon="-2.882547">
        <ele>845.9</ele>
        <time>2021-07-03T17:39:31.000Z</time>
      </trkpt>
      <trkpt lat="42.176640" lon="-2.882400">
        <ele>846.9</ele>
        <time>2021-07-03T17:39:34.000Z</time>
      </trkpt>
      <trkpt lat="42.176620" lon="-2.882253">
        <ele>842.7</ele>
        <time>2021-07-03T17:39:38.000Z</time>
      </trkpt>
      <trkpt lat="42.176602" lon="-2.882110">
        <ele>839.9</ele>
        <time>2021-07-03T17:39:41.000Z</time>
      </trkpt>
      <trkpt lat="42.176575" lon="-2.881965">
        <ele>840.4</ele>
        <time>2021-07-03T17:39:44.000Z</time>
      </trkpt>
      <trkpt lat="42.176533" lon="-2.881823">
        <ele>837.7</ele>
        <time>2021-07-03T17:39:47.000Z</time>
      </trkpt>
      <trkpt lat="42.176420" lon="-2.881753">
        <ele>838.1</ele>
        <time>2021-07-03T17:39:50.000Z</time>
      </trkpt>
      <trkpt lat="42.176323" lon="-2.881805">
        <ele>838.9</ele>
        <time>2021-07-03T17:39:54.000Z</time>
      </trkpt>
      <trkpt lat="42.176225" lon="-2.881858">
        <ele>838.8</ele>
        <time>2021-07-03T17:39:59.000Z</time>
      </trkpt>
      <trkpt lat="42.176132" lon="-2.881912">
        <ele>840.7</ele>
        <time>2021-07-03T17:40:05.000Z</time>
      </trkpt>
      <trkpt lat="42.176042" lon="-2.881973">
        <ele>840.9</ele>
        <time>2021-07-03T17:40:10.000Z</time>
      </trkpt>
      <trkpt lat="42.175973" lon="-2.882067">
        <ele>841.6</ele>
        <time>2021-07-03T17:40:19.000Z</time>
      </trkpt>
      <trkpt lat="42.175945" lon="-2.882107">
        <ele>841.9</ele>
        <time>2021-07-03T17:40:26.000Z</time>
      </trkpt>
      <trkpt lat="42.175943" lon="-2.882113">
        <ele>841.5</ele>
        <time>2021-07-03T17:40:31.000Z</time>
      </trkpt>
      <trkpt lat="42.175902" lon="-2.882173">
        <ele>841.1</ele>
        <time>2021-07-03T17:40:39.000Z</time>
      </trkpt>
      <trkpt lat="42.175905" lon="-2.882173">
        <ele>841.2</ele>
        <time>2021-07-03T17:41:06.000Z</time>
      </trkpt>
      <trkpt lat="42.175933" lon="-2.882132">
        <ele>841.0</ele>
        <time>2021-07-03T17:41:16.000Z</time>
      </trkpt>
      <trkpt lat="42.175935" lon="-2.882130">
        <ele>841.3</ele>
        <time>2021-07-03T17:41:55.000Z</time>
      </trkpt>
      <trkpt lat="42.175938" lon="-2.882133">
        <ele>841.4</ele>
        <time>2021-07-03T17:41:58.000Z</time>
      </trkpt>
      <trkpt lat="42.175940" lon="-2.882135">
        <ele>839.0</ele>
        <time>2021-07-03T17:42:32.000Z</time>
      </trkpt>
      <trkpt lat="42.176010" lon="-2.882052">
        <ele>839.9</ele>
        <time>2021-07-03T17:42:45.000Z</time>
      </trkpt>
      <trkpt lat="42.176095" lon="-2.881960">
        <ele>839.3</ele>
        <time>2021-07-03T17:42:50.000Z</time>
      </trkpt>
      <trkpt lat="42.176190" lon="-2.881858">
        <ele>838.9</ele>
        <time>2021-07-03T17:42:54.000Z</time>
      </trkpt>
      <trkpt lat="42.176312" lon="-2.881803">
        <ele>836.9</ele>
        <time>2021-07-03T17:42:57.000Z</time>
      </trkpt>
      <trkpt lat="42.176405" lon="-2.881777">
        <ele>837.4</ele>
        <time>2021-07-03T17:42:59.000Z</time>
      </trkpt>
      <trkpt lat="42.176500" lon="-2.881775">
        <ele>836.4</ele>
        <time>2021-07-03T17:43:01.000Z</time>
      </trkpt>
      <trkpt lat="42.176618" lon="-2.881795">
        <ele>837.4</ele>
        <time>2021-07-03T17:43:04.000Z</time>
      </trkpt>
      <trkpt lat="42.176660" lon="-2.881812">
        <ele>834.9</ele>
        <time>2021-07-03T17:43:08.000Z</time>
      </trkpt>
      <trkpt lat="42.176662" lon="-2.881810">
        <ele>834.8</ele>
        <time>2021-07-03T17:43:09.000Z</time>
      </trkpt>
      <trkpt lat="42.176663" lon="-2.881803">
        <ele>835.3</ele>
        <time>2021-07-03T17:43:13.000Z</time>
      </trkpt>
      <trkpt lat="42.176658" lon="-2.881803">
        <ele>835.0</ele>
        <time>2021-07-03T17:43:23.000Z</time>
      </trkpt>
      <trkpt lat="42.176658" lon="-2.881803">
        <ele>835.0</ele>
        <time>2021-07-03T17:43:24.000Z</time>
      </trkpt>
      <trkpt lat="42.176657" lon="-2.881802">
        <ele>834.9</ele>
        <time>2021-07-03T17:43:26.000Z</time>
      </trkpt>
      <trkpt lat="42.176657" lon="-2.881802">
        <ele>834.8</ele>
        <time>2021-07-03T17:43:27.000Z</time>
      </trkpt>
      <trkpt lat="42.176655" lon="-2.881803">
        <ele>834.8</ele>
        <time>2021-07-03T17:43:29.000Z</time>
      </trkpt>
      <trkpt lat="42.176655" lon="-2.881803">
        <ele>834.8</ele>
        <time>2021-07-03T17:43:30.000Z</time>
      </trkpt>
      <trkpt lat="42.176653" lon="-2.881817">
        <ele>834.8</ele>
        <time>2021-07-03T17:43:48.000Z</time>
      </trkpt>
      <trkpt lat="42.176663" lon="-2.881835">
        <ele>834.0</ele>
        <time>2021-07-03T17:43:54.000Z</time>
      </trkpt>
      <trkpt lat="42.176662" lon="-2.881837">
        <ele>833.9</ele>
        <time>2021-07-03T17:44:35.000Z</time>
      </trkpt>
      <trkpt lat="42.176662" lon="-2.881837">
        <ele>833.8</ele>
        <time>2021-07-03T17:44:36.000Z</time>
      </trkpt>
      <trkpt lat="42.176663" lon="-2.881835">
        <ele>833.5</ele>
        <time>2021-07-03T17:45:16.000Z</time>
      </trkpt>
      <trkpt lat="42.176663" lon="-2.881835">
        <ele>833.4</ele>
        <time>2021-07-03T17:45:17.000Z</time>
      </trkpt>
      <trkpt lat="42.176662" lon="-2.881835">
        <ele>833.1</ele>
        <time>2021-07-03T17:45:24.000Z</time>
      </trkpt>
      <trkpt lat="42.176662" lon="-2.881835">
        <ele>833.3</ele>
        <time>2021-07-03T17:45:25.000Z</time>
      </trkpt>
      <trkpt lat="42.176663" lon="-2.881830">
        <ele>832.6</ele>
        <time>2021-07-03T17:47:22.000Z</time>
      </trkpt>
      <trkpt lat="42.176663" lon="-2.881830">
        <ele>832.5</ele>
        <time>2021-07-03T17:47:23.000Z</time>
      </trkpt>
      <trkpt lat="42.176662" lon="-2.881830">
        <ele>832.2</ele>
        <time>2021-07-03T17:47:55.000Z</time>
      </trkpt>
      <trkpt lat="42.176662" lon="-2.881830">
        <ele>832.4</ele>
        <time>2021-07-03T17:47:56.000Z</time>
      </trkpt>
      <trkpt lat="42.176663" lon="-2.881823">
        <ele>831.2</ele>
        <time>2021-07-03T17:50:20.000Z</time>
      </trkpt>
      <trkpt lat="42.176663" lon="-2.881823">
        <ele>831.2</ele>
        <time>2021-07-03T17:50:21.000Z</time>
      </trkpt>
      <trkpt lat="42.176665" lon="-2.881820">
        <ele>829.1</ele>
        <time>2021-07-03T17:52:51.000Z</time>
      </trkpt>
      <trkpt lat="42.176665" lon="-2.881820">
        <ele>829.0</ele>
        <time>2021-07-03T17:52:52.000Z</time>
      </trkpt>
      <trkpt lat="42.176667" lon="-2.881818">
        <ele>828.2</ele>
        <time>2021-07-03T17:54:57.000Z</time>
      </trkpt>
      <trkpt lat="42.176667" lon="-2.881818">
        <ele>828.1</ele>
        <time>2021-07-03T17:54:58.000Z</time>
      </trkpt>
      <trkpt lat="42.176665" lon="-2.881818">
        <ele>827.9</ele>
        <time>2021-07-03T17:55:50.000Z</time>
      </trkpt>
      <trkpt lat="42.176665" lon="-2.881818">
        <ele>827.8</ele>
        <time>2021-07-03T17:55:51.000Z</time>
      </trkpt>
      <trkpt lat="42.176663" lon="-2.881817">
        <ele>827.5</ele>
        <time>2021-07-03T17:57:40.000Z</time>
      </trkpt>
      <trkpt lat="42.176663" lon="-2.881817">
        <ele>827.6</ele>
        <time>2021-07-03T17:57:41.000Z</time>
      </trkpt>
      <trkpt lat="42.176662" lon="-2.881817">
        <ele>827.4</ele>
        <time>2021-07-03T17:58:46.000Z</time>
      </trkpt>
      <trkpt lat="42.176662" lon="-2.881817">
        <ele>827.5</ele>
        <time>2021-07-03T17:58:47.000Z</time>
      </trkpt>
      <trkpt lat="42.176663" lon="-2.881812">
        <ele>827.8</ele>
        <time>2021-07-03T18:02:13.000Z</time>
      </trkpt>
      <trkpt lat="42.176663" lon="-2.881812">
        <ele>827.8</ele>
        <time>2021-07-03T18:02:14.000Z</time>
      </trkpt>
      <trkpt lat="42.176662" lon="-2.881812">
        <ele>827.6</ele>
        <time>2021-07-03T18:03:07.000Z</time>
      </trkpt>
      <trkpt lat="42.176662" lon="-2.881812">
        <ele>827.7</ele>
        <time>2021-07-03T18:03:08.000Z</time>
      </trkpt>
      <trkpt lat="42.176663" lon="-2.881807">
        <ele>828.1</ele>
        <time>2021-07-03T18:09:02.000Z</time>
      </trkpt>
      <trkpt lat="42.176663" lon="-2.881807">
        <ele>828.2</ele>
        <time>2021-07-03T18:09:03.000Z</time>
      </trkpt>
      <trkpt lat="42.176662" lon="-2.881800">
        <ele>828.8</ele>
        <time>2021-07-03T18:12:00.000Z</time>
      </trkpt>
      <trkpt lat="42.176662" lon="-2.881800">
        <ele>828.9</ele>
        <time>2021-07-03T18:12:01.000Z</time>
      </trkpt>
      <trkpt lat="42.176660" lon="-2.881798">
        <ele>828.4</ele>
        <time>2021-07-03T18:15:02.000Z</time>
      </trkpt>
      <trkpt lat="42.176660" lon="-2.881798">
        <ele>828.3</ele>
        <time>2021-07-03T18:15:03.000Z</time>
      </trkpt>
      <trkpt lat="42.176658" lon="-2.881798">
        <ele>827.8</ele>
        <time>2021-07-03T18:18:24.000Z</time>
      </trkpt>
      <trkpt lat="42.176658" lon="-2.881798">
        <ele>827.9</ele>
        <time>2021-07-03T18:18:25.000Z</time>
      </trkpt>
      <trkpt lat="42.176660" lon="-2.881798">
        <ele>827.9</ele>
        <time>2021-07-03T18:19:49.000Z</time>
      </trkpt>
      <trkpt lat="42.176660" lon="-2.881798">
        <ele>828.0</ele>
        <time>2021-07-03T18:19:50.000Z</time>
      </trkpt>
      <trkpt lat="42.176662" lon="-2.881800">
        <ele>828.0</ele>
        <time>2021-07-03T18:25:23.000Z</time>
      </trkpt>
      <trkpt lat="42.176662" lon="-2.881800">
        <ele>828.0</ele>
        <time>2021-07-03T18:25:24.000Z</time>
      </trkpt>
      <trkpt lat="42.176663" lon="-2.881798">
        <ele>827.3</ele>
        <time>2021-07-03T18:26:15.000Z</time>
      </trkpt>
      <trkpt lat="42.176667" lon="-2.881797">
        <ele>827.6</ele>
        <time>2021-07-03T18:26:17.000Z</time>
      </trkpt>
      <trkpt lat="42.176668" lon="-2.881797">
        <ele>828.1</ele>
        <time>2021-07-03T18:26:18.000Z</time>
      </trkpt>
      <trkpt lat="42.176668" lon="-2.881797">
        <ele>828.4</ele>
        <time>2021-07-03T18:26:19.000Z</time>
      </trkpt>
      <trkpt lat="42.176670" lon="-2.881803">
        <ele>828.6</ele>
        <time>2021-07-03T18:26:26.000Z</time>
      </trkpt>
      <trkpt lat="42.176580" lon="-2.881755">
        <ele>829.1</ele>
        <time>2021-07-03T18:26:38.000Z</time>
      </trkpt>
      <trkpt lat="42.176538" lon="-2.881747">
        <ele>828.4</ele>
        <time>2021-07-03T18:26:46.000Z</time>
      </trkpt>
      <trkpt lat="42.176532" lon="-2.881747">
        <ele>829.8</ele>
        <time>2021-07-03T18:26:48.000Z</time>
      </trkpt>
      <trkpt lat="42.176463" lon="-2.881745">
        <ele>829.6</ele>
        <time>2021-07-03T18:26:56.000Z</time>
      </trkpt>
      <trkpt lat="42.176457" lon="-2.881745">
        <ele>829.6</ele>
        <time>2021-07-03T18:27:01.000Z</time>
      </trkpt>
      <trkpt lat="42.176363" lon="-2.881735">
        <ele>829.8</ele>
        <time>2021-07-03T18:27:09.000Z</time>
      </trkpt>
      <trkpt lat="42.176270" lon="-2.881762">
        <ele>830.5</ele>
        <time>2021-07-03T18:27:17.000Z</time>
      </trkpt>
      <trkpt lat="42.176180" lon="-2.881805">
        <ele>831.4</ele>
        <time>2021-07-03T18:27:26.000Z</time>
      </trkpt>
      <trkpt lat="42.176095" lon="-2.881857">
        <ele>832.1</ele>
        <time>2021-07-03T18:27:36.000Z</time>
      </trkpt>
      <trkpt lat="42.176010" lon="-2.881910">
        <ele>833.0</ele>
        <time>2021-07-03T18:27:45.000Z</time>
      </trkpt>
      <trkpt lat="42.175933" lon="-2.881983">
        <ele>833.9</ele>
        <time>2021-07-03T18:27:55.000Z</time>
      </trkpt>
      <trkpt lat="42.175930" lon="-2.882003">
        <ele>834.2</ele>
        <time>2021-07-03T18:28:00.000Z</time>
      </trkpt>
      <trkpt lat="42.175928" lon="-2.882003">
        <ele>834.5</ele>
        <time>2021-07-03T18:28:09.000Z</time>
      </trkpt>
      <trkpt lat="42.175910" lon="-2.882005">
        <ele>835.6</ele>
        <time>2021-07-03T18:28:14.000Z</time>
      </trkpt>
      <trkpt lat="42.175908" lon="-2.882005">
        <ele>835.2</ele>
        <time>2021-07-03T18:28:15.000Z</time>
      </trkpt>
      <trkpt lat="42.175907" lon="-2.882005">
        <ele>834.0</ele>
        <time>2021-07-03T18:28:17.000Z</time>
      </trkpt>
      <trkpt lat="42.175905" lon="-2.882003">
        <ele>833.7</ele>
        <time>2021-07-03T18:28:29.000Z</time>
      </trkpt>
      <trkpt lat="42.175905" lon="-2.882003">
        <ele>833.6</ele>
        <time>2021-07-03T18:28:30.000Z</time>
      </trkpt>
      <trkpt lat="42.175907" lon="-2.882005">
        <ele>833.6</ele>
        <time>2021-07-03T18:28:43.000Z</time>
      </trkpt>
      <trkpt lat="42.175907" lon="-2.882005">
        <ele>833.6</ele>
        <time>2021-07-03T18:28:44.000Z</time>
      </trkpt>
      <trkpt lat="42.175908" lon="-2.882007">
        <ele>833.8</ele>
        <time>2021-07-03T18:29:07.000Z</time>
      </trkpt>
      <trkpt lat="42.175908" lon="-2.882007">
        <ele>833.8</ele>
        <time>2021-07-03T18:29:08.000Z</time>
      </trkpt>
      <trkpt lat="42.175910" lon="-2.882008">
        <ele>833.0</ele>
        <time>2021-07-03T18:29:19.000Z</time>
      </trkpt>
      <trkpt lat="42.175910" lon="-2.882008">
        <ele>833.1</ele>
        <time>2021-07-03T18:29:20.000Z</time>
      </trkpt>
      <trkpt lat="42.175912" lon="-2.882008">
        <ele>834.3</ele>
        <time>2021-07-03T18:29:39.000Z</time>
      </trkpt>
      <trkpt lat="42.175912" lon="-2.882008">
        <ele>834.0</ele>
        <time>2021-07-03T18:29:40.000Z</time>
      </trkpt>
      <trkpt lat="42.175915" lon="-2.882012">
        <ele>833.6</ele>
        <time>2021-07-03T18:29:47.000Z</time>
      </trkpt>
      <trkpt lat="42.175915" lon="-2.882012">
        <ele>833.7</ele>
        <time>2021-07-03T18:29:48.000Z</time>
      </trkpt>
      <trkpt lat="42.175917" lon="-2.882013">
        <ele>833.5</ele>
        <time>2021-07-03T18:29:58.000Z</time>
      </trkpt>
      <trkpt lat="42.175917" lon="-2.882013">
        <ele>833.7</ele>
        <time>2021-07-03T18:29:59.000Z</time>
      </trkpt>
      <trkpt lat="42.175918" lon="-2.882013">
        <ele>833.6</ele>
        <time>2021-07-03T18:30:15.000Z</time>
      </trkpt>
      <trkpt lat="42.175918" lon="-2.882013">
        <ele>833.7</ele>
        <time>2021-07-03T18:30:16.000Z</time>
      </trkpt>
      <trkpt lat="42.175920" lon="-2.882015">
        <ele>833.6</ele>
        <time>2021-07-03T18:31:02.000Z</time>
      </trkpt>
      <trkpt lat="42.175920" lon="-2.882015">
        <ele>833.7</ele>
        <time>2021-07-03T18:31:03.000Z</time>
      </trkpt>
      <trkpt lat="42.175920" lon="-2.882018">
        <ele>832.5</ele>
        <time>2021-07-03T18:32:05.000Z</time>
      </trkpt>
      <trkpt lat="42.175920" lon="-2.882018">
        <ele>832.1</ele>
        <time>2021-07-03T18:32:06.000Z</time>
      </trkpt>
      <trkpt lat="42.175918" lon="-2.882018">
        <ele>834.3</ele>
        <time>2021-07-03T18:32:09.000Z</time>
      </trkpt>
      <trkpt lat="42.175918" lon="-2.882018">
        <ele>834.7</ele>
        <time>2021-07-03T18:32:10.000Z</time>
      </trkpt>
      <trkpt lat="42.175920" lon="-2.882020">
        <ele>834.6</ele>
        <time>2021-07-03T18:32:15.000Z</time>
      </trkpt>
      <trkpt lat="42.175920" lon="-2.882020">
        <ele>834.8</ele>
        <time>2021-07-03T18:32:16.000Z</time>
      </trkpt>
      <trkpt lat="42.175915" lon="-2.882015">
        <ele>834.2</ele>
        <time>2021-07-03T18:32:52.000Z</time>
      </trkpt>
      <trkpt lat="42.175912" lon="-2.882012">
        <ele>832.8</ele>
        <time>2021-07-03T18:32:54.000Z</time>
      </trkpt>
      <trkpt lat="42.175912" lon="-2.882012">
        <ele>834.4</ele>
        <time>2021-07-03T18:32:59.000Z</time>
      </trkpt>
      <trkpt lat="42.175688" lon="-2.881808">
        <ele>819.0</ele>
        <time>2021-07-04T07:11:05.000Z</time>
      </trkpt>
      <trkpt lat="42.175710" lon="-2.881795">
        <ele>883.8</ele>
        <time>2021-07-04T07:11:08.000Z</time>
      </trkpt>
      <trkpt lat="42.175707" lon="-2.881793">
        <ele>883.8</ele>
        <time>2021-07-04T07:11:09.000Z</time>
      </trkpt>
      <trkpt lat="42.175693" lon="-2.881792">
        <ele>883.8</ele>
        <time>2021-07-04T07:11:12.000Z</time>
      </trkpt>
      <trkpt lat="42.175692" lon="-2.881793">
        <ele>883.8</ele>
        <time>2021-07-04T07:11:16.000Z</time>
      </trkpt>
      <trkpt lat="42.175692" lon="-2.881793">
        <ele>883.8</ele>
        <time>2021-07-04T07:11:17.000Z</time>
      </trkpt>
      <trkpt lat="42.175690" lon="-2.881793">
        <ele>883.7</ele>
        <time>2021-07-04T07:11:20.000Z</time>
      </trkpt>
      <trkpt lat="42.175690" lon="-2.881793">
        <ele>883.6</ele>
        <time>2021-07-04T07:11:21.000Z</time>
      </trkpt>
      <trkpt lat="42.175687" lon="-2.881797">
        <ele>883.5</ele>
        <time>2021-07-04T07:11:22.000Z</time>
      </trkpt>
      <trkpt lat="42.175675" lon="-2.881803">
        <ele>883.7</ele>
        <time>2021-07-04T07:11:25.000Z</time>
      </trkpt>
      <trkpt lat="42.175692" lon="-2.881808">
        <ele>883.5</ele>
        <time>2021-07-04T07:11:31.000Z</time>
      </trkpt>
      <trkpt lat="42.175740" lon="-2.881825">
        <ele>883.5</ele>
        <time>2021-07-04T07:11:35.000Z</time>
      </trkpt>
      <trkpt lat="42.175750" lon="-2.881828">
        <ele>883.5</ele>
        <time>2021-07-04T07:11:39.000Z</time>
      </trkpt>
      <trkpt lat="42.175750" lon="-2.881828">
        <ele>883.5</ele>
        <time>2021-07-04T07:11:40.000Z</time>
      </trkpt>
      <trkpt lat="42.175758" lon="-2.881832">
        <ele>883.6</ele>
        <time>2021-07-04T07:11:41.000Z</time>
      </trkpt>
      <trkpt lat="42.175758" lon="-2.881832">
        <ele>883.6</ele>
        <time>2021-07-04T07:11:42.000Z</time>
      </trkpt>
      <trkpt lat="42.175760" lon="-2.881832">
        <ele>883.6</ele>
        <time>2021-07-04T07:11:43.000Z</time>
      </trkpt>
      <trkpt lat="42.175760" lon="-2.881832">
        <ele>883.7</ele>
        <time>2021-07-04T07:11:44.000Z</time>
      </trkpt>
      <trkpt lat="42.175762" lon="-2.881833">
        <ele>883.7</ele>
        <time>2021-07-04T07:11:50.000Z</time>
      </trkpt>
      <trkpt lat="42.175762" lon="-2.881833">
        <ele>883.8</ele>
        <time>2021-07-04T07:11:51.000Z</time>
      </trkpt>
      <trkpt lat="42.175763" lon="-2.881835">
        <ele>884.0</ele>
        <time>2021-07-04T07:11:58.000Z</time>
      </trkpt>
      <trkpt lat="42.175770" lon="-2.881838">
        <ele>883.6</ele>
        <time>2021-07-04T07:12:01.000Z</time>
      </trkpt>
      <trkpt lat="42.175777" lon="-2.881842">
        <ele>883.6</ele>
        <time>2021-07-04T07:12:06.000Z</time>
      </trkpt>
      <trkpt lat="42.175793" lon="-2.881848">
        <ele>883.6</ele>
        <time>2021-07-04T07:12:08.000Z</time>
      </trkpt>
      <trkpt lat="42.175795" lon="-2.881853">
        <ele>883.5</ele>
        <time>2021-07-04T07:12:09.000Z</time>
      </trkpt>
      <trkpt lat="42.175795" lon="-2.881888">
        <ele>883.6</ele>
        <time>2021-07-04T07:12:11.000Z</time>
      </trkpt>
      <trkpt lat="42.175793" lon="-2.881888">
        <ele>883.7</ele>
        <time>2021-07-04T07:12:13.000Z</time>
      </trkpt>
      <trkpt lat="42.175793" lon="-2.881890">
        <ele>883.6</ele>
        <time>2021-07-04T07:12:14.000Z</time>
      </trkpt>
      <trkpt lat="42.175792" lon="-2.881900">
        <ele>883.6</ele>
        <time>2021-07-04T07:12:16.000Z</time>
      </trkpt>
      <trkpt lat="42.175792" lon="-2.881902">
        <ele>883.7</ele>
        <time>2021-07-04T07:12:17.000Z</time>
      </trkpt>
      <trkpt lat="42.175788" lon="-2.881910">
        <ele>883.7</ele>
        <time>2021-07-04T07:12:18.000Z</time>
      </trkpt>
      <trkpt lat="42.175793" lon="-2.881950">
        <ele>883.5</ele>
        <time>2021-07-04T07:12:25.000Z</time>
      </trkpt>
      <trkpt lat="42.175793" lon="-2.881953">
        <ele>883.5</ele>
        <time>2021-07-04T07:12:26.000Z</time>
      </trkpt>
      <trkpt lat="42.175795" lon="-2.881967">
        <ele>883.9</ele>
        <time>2021-07-04T07:12:29.000Z</time>
      </trkpt>
      <trkpt lat="42.175797" lon="-2.881968">
        <ele>883.4</ele>
        <time>2021-07-04T07:12:44.000Z</time>
      </trkpt>
      <trkpt lat="42.175797" lon="-2.881968">
        <ele>883.8</ele>
        <time>2021-07-04T07:12:45.000Z</time>
      </trkpt>
      <trkpt lat="42.175797" lon="-2.881972">
        <ele>883.6</ele>
        <time>2021-07-04T07:12:58.000Z</time>
      </trkpt>
      <trkpt lat="42.175800" lon="-2.882020">
        <ele>883.6</ele>
        <time>2021-07-04T07:13:03.000Z</time>
      </trkpt>
      <trkpt lat="42.175803" lon="-2.882022">
        <ele>882.8</ele>
        <time>2021-07-04T07:13:11.000Z</time>
      </trkpt>
      <trkpt lat="42.175805" lon="-2.882025">
        <ele>882.9</ele>
        <time>2021-07-04T07:13:13.000Z</time>
      </trkpt>
      <trkpt lat="42.175807" lon="-2.882025">
        <ele>883.0</ele>
        <time>2021-07-04T07:13:24.000Z</time>
      </trkpt>
      <trkpt lat="42.175807" lon="-2.882025">
        <ele>882.9</ele>
        <time>2021-07-04T07:13:25.000Z</time>
      </trkpt>
      <trkpt lat="42.175808" lon="-2.882028">
        <ele>883.1</ele>
        <time>2021-07-04T07:14:11.000Z</time>
      </trkpt>
      <trkpt lat="42.175808" lon="-2.882028">
        <ele>883.2</ele>
        <time>2021-07-04T07:14:12.000Z</time>
      </trkpt>
      <trkpt lat="42.175810" lon="-2.882030">
        <ele>882.8</ele>
        <time>2021-07-04T07:14:43.000Z</time>
      </trkpt>
      <trkpt lat="42.175810" lon="-2.882030">
        <ele>882.9</ele>
        <time>2021-07-04T07:14:44.000Z</time>
      </trkpt>
      <trkpt lat="42.175812" lon="-2.882032">
        <ele>883.0</ele>
        <time>2021-07-04T07:14:56.000Z</time>
      </trkpt>
      <trkpt lat="42.175812" lon="-2.882032">
        <ele>883.0</ele>
        <time>2021-07-04T07:14:57.000Z</time>
      </trkpt>
      <trkpt lat="42.175813" lon="-2.882035">
        <ele>882.7</ele>
        <time>2021-07-04T07:15:51.000Z</time>
      </trkpt>
      <trkpt lat="42.175813" lon="-2.882035">
        <ele>882.8</ele>
        <time>2021-07-04T07:15:52.000Z</time>
      </trkpt>
      <trkpt lat="42.175815" lon="-2.882037">
        <ele>883.0</ele>
        <time>2021-07-04T07:16:23.000Z</time>
      </trkpt>
      <trkpt lat="42.175815" lon="-2.882037">
        <ele>883.0</ele>
        <time>2021-07-04T07:16:24.000Z</time>
      </trkpt>
      <trkpt lat="42.175817" lon="-2.882037">
        <ele>883.4</ele>
        <time>2021-07-04T07:16:54.000Z</time>
      </trkpt>
      <trkpt lat="42.175817" lon="-2.882037">
        <ele>883.4</ele>
        <time>2021-07-04T07:16:55.000Z</time>
      </trkpt>
      <trkpt lat="42.175818" lon="-2.882038">
        <ele>882.7</ele>
        <time>2021-07-04T07:17:24.000Z</time>
      </trkpt>
      <trkpt lat="42.175818" lon="-2.882038">
        <ele>882.6</ele>
        <time>2021-07-04T07:17:25.000Z</time>
      </trkpt>
      <trkpt lat="42.175820" lon="-2.882040">
        <ele>882.6</ele>
        <time>2021-07-04T07:17:54.000Z</time>
      </trkpt>
      <trkpt lat="42.175820" lon="-2.882040">
        <ele>882.6</ele>
        <time>2021-07-04T07:17:55.000Z</time>
      </trkpt>
      <trkpt lat="42.175823" lon="-2.882045">
        <ele>882.5</ele>
        <time>2021-07-04T07:18:02.000Z</time>
      </trkpt>
      <trkpt lat="42.175823" lon="-2.882045">
        <ele>882.5</ele>
        <time>2021-07-04T07:18:03.000Z</time>
      </trkpt>
      <trkpt lat="42.175825" lon="-2.882047">
        <ele>881.7</ele>
        <time>2021-07-04T07:18:23.000Z</time>
      </trkpt>
      <trkpt lat="42.175848" lon="-2.882047">
        <ele>882.5</ele>
        <time>2021-07-04T07:18:27.000Z</time>
      </trkpt>
      <trkpt lat="42.175850" lon="-2.882045">
        <ele>882.7</ele>
        <time>2021-07-04T07:18:28.000Z</time>
      </trkpt>
      <trkpt lat="42.175858" lon="-2.882052">
        <ele>882.7</ele>
        <time>2021-07-04T07:18:32.000Z</time>
      </trkpt>
      <trkpt lat="42.175860" lon="-2.882052">
        <ele>883.4</ele>
        <time>2021-07-04T07:18:49.000Z</time>
      </trkpt>
      <trkpt lat="42.175860" lon="-2.882052">
        <ele>883.2</ele>
        <time>2021-07-04T07:18:50.000Z</time>
      </trkpt>
      <trkpt lat="42.175862" lon="-2.882052">
        <ele>883.1</ele>
        <time>2021-07-04T07:18:57.000Z</time>
      </trkpt>
      <trkpt lat="42.175862" lon="-2.882052">
        <ele>883.0</ele>
        <time>2021-07-04T07:18:58.000Z</time>
      </trkpt>
      <trkpt lat="42.175863" lon="-2.882052">
        <ele>883.1</ele>
        <time>2021-07-04T07:19:17.000Z</time>
      </trkpt>
      <trkpt lat="42.175863" lon="-2.882052">
        <ele>883.1</ele>
        <time>2021-07-04T07:19:18.000Z</time>
      </trkpt>
      <trkpt lat="42.175865" lon="-2.882052">
        <ele>883.2</ele>
        <time>2021-07-04T07:19:32.000Z</time>
      </trkpt>
      <trkpt lat="42.175865" lon="-2.882052">
        <ele>883.2</ele>
        <time>2021-07-04T07:19:33.000Z</time>
      </trkpt>
      <trkpt lat="42.175867" lon="-2.882052">
        <ele>883.4</ele>
        <time>2021-07-04T07:19:37.000Z</time>
      </trkpt>
      <trkpt lat="42.175867" lon="-2.882052">
        <ele>883.6</ele>
        <time>2021-07-04T07:19:38.000Z</time>
      </trkpt>
      <trkpt lat="42.175868" lon="-2.882052">
        <ele>883.0</ele>
        <time>2021-07-04T07:19:47.000Z</time>
      </trkpt>
      <trkpt lat="42.175868" lon="-2.882052">
        <ele>883.1</ele>
        <time>2021-07-04T07:19:48.000Z</time>
      </trkpt>
      <trkpt lat="42.175870" lon="-2.882053">
        <ele>883.9</ele>
        <time>2021-07-04T07:20:05.000Z</time>
      </trkpt>
      <trkpt lat="42.175875" lon="-2.882055">
        <ele>883.6</ele>
        <time>2021-07-04T07:20:07.000Z</time>
      </trkpt>
      <trkpt lat="42.175877" lon="-2.882058">
        <ele>884.0</ele>
        <time>2021-07-04T07:20:12.000Z</time>
      </trkpt>
      <trkpt lat="42.175880" lon="-2.882068">
        <ele>884.2</ele>
        <time>2021-07-04T07:20:16.000Z</time>
      </trkpt>
      <trkpt lat="42.175883" lon="-2.882068">
        <ele>884.0</ele>
        <time>2021-07-04T07:20:22.000Z</time>
      </trkpt>
      <trkpt lat="42.175883" lon="-2.882068">
        <ele>884.0</ele>
        <time>2021-07-04T07:20:23.000Z</time>
      </trkpt>
      <trkpt lat="42.175885" lon="-2.882068">
        <ele>883.8</ele>
        <time>2021-07-04T07:20:27.000Z</time>
      </trkpt>
      <trkpt lat="42.175885" lon="-2.882068">
        <ele>883.8</ele>
        <time>2021-07-04T07:20:28.000Z</time>
      </trkpt>
      <trkpt lat="42.175887" lon="-2.882070">
        <ele>884.1</ele>
        <time>2021-07-04T07:20:32.000Z</time>
      </trkpt>
      <trkpt lat="42.175887" lon="-2.882070">
        <ele>884.0</ele>
        <time>2021-07-04T07:20:33.000Z</time>
      </trkpt>
      <trkpt lat="42.175888" lon="-2.882070">
        <ele>884.0</ele>
        <time>2021-07-04T07:20:39.000Z</time>
      </trkpt>
      <trkpt lat="42.175890" lon="-2.882072">
        <ele>884.0</ele>
        <time>2021-07-04T07:20:41.000Z</time>
      </trkpt>
      <trkpt lat="42.175892" lon="-2.882072">
        <ele>884.0</ele>
        <time>2021-07-04T07:20:54.000Z</time>
      </trkpt>
      <trkpt lat="42.175898" lon="-2.882073">
        <ele>883.8</ele>
        <time>2021-07-04T07:20:57.000Z</time>
      </trkpt>
      <trkpt lat="42.175900" lon="-2.882073">
        <ele>884.3</ele>
        <time>2021-07-04T07:21:12.000Z</time>
      </trkpt>
      <trkpt lat="42.175900" lon="-2.882073">
        <ele>884.2</ele>
        <time>2021-07-04T07:21:13.000Z</time>
      </trkpt>
      <trkpt lat="42.175902" lon="-2.882073">
        <ele>884.2</ele>
        <time>2021-07-04T07:21:29.000Z</time>
      </trkpt>
      <trkpt lat="42.175902" lon="-2.882073">
        <ele>884.2</ele>
        <time>2021-07-04T07:21:30.000Z</time>
      </trkpt>
      <trkpt lat="42.175903" lon="-2.882077">
        <ele>883.8</ele>
        <time>2021-07-04T07:21:45.000Z</time>
      </trkpt>
      <trkpt lat="42.175903" lon="-2.882082">
        <ele>883.8</ele>
        <time>2021-07-04T07:21:47.000Z</time>
      </trkpt>
      <trkpt lat="42.175905" lon="-2.882083">
        <ele>883.9</ele>
        <time>2021-07-04T07:22:27.000Z</time>
      </trkpt>
      <trkpt lat="42.175913" lon="-2.882088">
        <ele>883.9</ele>
        <time>2021-07-04T07:22:30.000Z</time>
      </trkpt>
      <trkpt lat="42.175915" lon="-2.882088">
        <ele>883.5</ele>
        <time>2021-07-04T07:23:23.000Z</time>
      </trkpt>
      <trkpt lat="42.175915" lon="-2.882088">
        <ele>883.4</ele>
        <time>2021-07-04T07:23:24.000Z</time>
      </trkpt>
      <trkpt lat="42.175917" lon="-2.882088">
        <ele>883.8</ele>
        <time>2021-07-04T07:24:43.000Z</time>
      </trkpt>
      <trkpt lat="42.175917" lon="-2.882088">
        <ele>883.6</ele>
        <time>2021-07-04T07:24:44.000Z</time>
      </trkpt>
      <trkpt lat="42.175918" lon="-2.882088">
        <ele>883.7</ele>
        <time>2021-07-04T07:25:47.000Z</time>
      </trkpt>
      <trkpt lat="42.175918" lon="-2.882088">
        <ele>883.7</ele>
        <time>2021-07-04T07:25:48.000Z</time>
      </trkpt>
      <trkpt lat="42.175920" lon="-2.882087">
        <ele>882.7</ele>
        <time>2021-07-04T07:27:33.000Z</time>
      </trkpt>
      <trkpt lat="42.175925" lon="-2.882077">
        <ele>883.7</ele>
        <time>2021-07-04T07:27:37.000Z</time>
      </trkpt>
      <trkpt lat="42.175927" lon="-2.882075">
        <ele>883.7</ele>
        <time>2021-07-04T07:28:04.000Z</time>
      </trkpt>
      <trkpt lat="42.175927" lon="-2.882077">
        <ele>883.7</ele>
        <time>2021-07-04T07:28:05.000Z</time>
      </trkpt>
      <trkpt lat="42.175928" lon="-2.882075">
        <ele>883.4</ele>
        <time>2021-07-04T07:28:26.000Z</time>
      </trkpt>
      <trkpt lat="42.175927" lon="-2.882073">
        <ele>883.6</ele>
        <time>2021-07-04T07:28:28.000Z</time>
      </trkpt>
      <trkpt lat="42.175925" lon="-2.882073">
        <ele>883.8</ele>
        <time>2021-07-04T07:28:38.000Z</time>
      </trkpt>
      <trkpt lat="42.175920" lon="-2.882072">
        <ele>883.7</ele>
        <time>2021-07-04T07:28:41.000Z</time>
      </trkpt>
      <trkpt lat="42.175923" lon="-2.882070">
        <ele>883.5</ele>
        <time>2021-07-04T07:28:49.000Z</time>
      </trkpt>
      <trkpt lat="42.175923" lon="-2.882068">
        <ele>883.5</ele>
        <time>2021-07-04T07:28:50.000Z</time>
      </trkpt>
      <trkpt lat="42.175927" lon="-2.882068">
        <ele>883.3</ele>
        <time>2021-07-04T07:29:11.000Z</time>
      </trkpt>
      <trkpt lat="42.175937" lon="-2.882062">
        <ele>883.3</ele>
        <time>2021-07-04T07:29:15.000Z</time>
      </trkpt>
      <trkpt lat="42.175938" lon="-2.882060">
        <ele>883.8</ele>
        <time>2021-07-04T07:29:42.000Z</time>
      </trkpt>
      <trkpt lat="42.175938" lon="-2.882060">
        <ele>883.7</ele>
        <time>2021-07-04T07:29:43.000Z</time>
      </trkpt>
      <trkpt lat="42.175940" lon="-2.882058">
        <ele>883.9</ele>
        <time>2021-07-04T07:31:18.000Z</time>
      </trkpt>
      <trkpt lat="42.175938" lon="-2.882060">
        <ele>883.9</ele>
        <time>2021-07-04T07:31:20.000Z</time>
      </trkpt>
      <trkpt lat="42.175940" lon="-2.882057">
        <ele>884.1</ele>
        <time>2021-07-04T07:31:25.000Z</time>
      </trkpt>
      <trkpt lat="42.175940" lon="-2.882055">
        <ele>884.0</ele>
        <time>2021-07-04T07:31:26.000Z</time>
      </trkpt>
      <trkpt lat="42.175942" lon="-2.882053">
        <ele>883.8</ele>
        <time>2021-07-04T07:31:41.000Z</time>
      </trkpt>
      <trkpt lat="42.175942" lon="-2.882053">
        <ele>883.8</ele>
        <time>2021-07-04T07:31:42.000Z</time>
      </trkpt>
      <trkpt lat="42.175943" lon="-2.882053">
        <ele>883.8</ele>
        <time>2021-07-04T07:32:04.000Z</time>
      </trkpt>
      <trkpt lat="42.175943" lon="-2.882052">
        <ele>884.0</ele>
        <time>2021-07-04T07:32:07.000Z</time>
      </trkpt>
      <trkpt lat="42.175945" lon="-2.882052">
        <ele>883.9</ele>
        <time>2021-07-04T07:32:36.000Z</time>
      </trkpt>
      <trkpt lat="42.176025" lon="-2.881990">
        <ele>883.5</ele>
        <time>2021-07-04T07:32:43.000Z</time>
      </trkpt>
      <trkpt lat="42.176112" lon="-2.881935">
        <ele>882.7</ele>
        <time>2021-07-04T07:32:48.000Z</time>
      </trkpt>
      <trkpt lat="42.176205" lon="-2.881870">
        <ele>882.9</ele>
        <time>2021-07-04T07:32:52.000Z</time>
      </trkpt>
      <trkpt lat="42.176315" lon="-2.881805">
        <ele>881.3</ele>
        <time>2021-07-04T07:32:56.000Z</time>
      </trkpt>
      <trkpt lat="42.176415" lon="-2.881802">
        <ele>879.5</ele>
        <time>2021-07-04T07:32:59.000Z</time>
      </trkpt>
      <trkpt lat="42.176498" lon="-2.881890">
        <ele>879.9</ele>
        <time>2021-07-04T07:33:03.000Z</time>
      </trkpt>
      <trkpt lat="42.176530" lon="-2.882008">
        <ele>881.2</ele>
        <time>2021-07-04T07:33:08.000Z</time>
      </trkpt>
      <trkpt lat="42.176555" lon="-2.882125">
        <ele>881.9</ele>
        <time>2021-07-04T07:33:13.000Z</time>
      </trkpt>
      <trkpt lat="42.176582" lon="-2.882262">
        <ele>884.1</ele>
        <time>2021-07-04T07:33:19.000Z</time>
      </trkpt>
      <trkpt lat="42.176602" lon="-2.882398">
        <ele>885.2</ele>
        <time>2021-07-04T07:33:26.000Z</time>
      </trkpt>
      <trkpt lat="42.176627" lon="-2.882527">
        <ele>886.5</ele>
        <time>2021-07-04T07:33:33.000Z</time>
      </trkpt>
      <trkpt lat="42.176648" lon="-2.882658">
        <ele>887.3</ele>
        <time>2021-07-04T07:33:40.000Z</time>
      </trkpt>
      <trkpt lat="42.176667" lon="-2.882788">
        <ele>889.2</ele>
        <time>2021-07-04T07:33:47.000Z</time>
      </trkpt>
      <trkpt lat="42.176683" lon="-2.882923">
        <ele>890.7</ele>
        <time>2021-07-04T07:33:55.000Z</time>
      </trkpt>
      <trkpt lat="42.176703" lon="-2.883045">
        <ele>892.6</ele>
        <time>2021-07-04T07:34:02.000Z</time>
      </trkpt>
      <trkpt lat="42.176722" lon="-2.883172">
        <ele>894.6</ele>
        <time>2021-07-04T07:34:09.000Z</time>
      </trkpt>
      <trkpt lat="42.176747" lon="-2.883295">
        <ele>895.3</ele>
        <time>2021-07-04T07:34:16.000Z</time>
      </trkpt>
      <trkpt lat="42.176800" lon="-2.883405">
        <ele>895.7</ele>
        <time>2021-07-04T07:34:23.000Z</time>
      </trkpt>
      <trkpt lat="42.176865" lon="-2.883505">
        <ele>894.7</ele>
        <time>2021-07-04T07:34:29.000Z</time>
      </trkpt>
      <trkpt lat="42.176890" lon="-2.883565">
        <ele>894.6</ele>
        <time>2021-07-04T07:34:34.000Z</time>
      </trkpt>
      <trkpt lat="42.176888" lon="-2.883565">
        <ele>894.8</ele>
        <time>2021-07-04T07:34:36.000Z</time>
      </trkpt>
      <trkpt lat="42.176902" lon="-2.883618">
        <ele>894.7</ele>
        <time>2021-07-04T07:34:44.000Z</time>
      </trkpt>
      <trkpt lat="42.176903" lon="-2.883618">
        <ele>894.8</ele>
        <time>2021-07-04T07:34:48.000Z</time>
      </trkpt>
      <trkpt lat="42.176903" lon="-2.883618">
        <ele>894.7</ele>
        <time>2021-07-04T07:34:49.000Z</time>
      </trkpt>
      <trkpt lat="42.176902" lon="-2.883622">
        <ele>894.7</ele>
        <time>2021-07-04T07:35:07.000Z</time>
      </trkpt>
      <trkpt lat="42.176902" lon="-2.883625">
        <ele>894.8</ele>
        <time>2021-07-04T07:35:09.000Z</time>
      </trkpt>
      <trkpt lat="42.176903" lon="-2.883627">
        <ele>894.6</ele>
        <time>2021-07-04T07:35:13.000Z</time>
      </trkpt>
      <trkpt lat="42.176950" lon="-2.883598">
        <ele>894.6</ele>
        <time>2021-07-04T07:35:21.000Z</time>
      </trkpt>
      <trkpt lat="42.176948" lon="-2.883600">
        <ele>895.1</ele>
        <time>2021-07-04T07:36:04.000Z</time>
      </trkpt>
      <trkpt lat="42.176948" lon="-2.883600">
        <ele>895.1</ele>
        <time>2021-07-04T07:36:05.000Z</time>
      </trkpt>
      <trkpt lat="42.176947" lon="-2.883600">
        <ele>895.1</ele>
        <time>2021-07-04T07:36:10.000Z</time>
      </trkpt>
      <trkpt lat="42.177048" lon="-2.883633">
        <ele>895.2</ele>
        <time>2021-07-04T07:36:20.000Z</time>
      </trkpt>
      <trkpt lat="42.177147" lon="-2.883617">
        <ele>895.7</ele>
        <time>2021-07-04T07:36:25.000Z</time>
      </trkpt>
      <trkpt lat="42.177250" lon="-2.883622">
        <ele>895.7</ele>
        <time>2021-07-04T07:36:31.000Z</time>
      </trkpt>
      <trkpt lat="42.177342" lon="-2.883637">
        <ele>897.1</ele>
        <time>2021-07-04T07:36:36.000Z</time>
      </trkpt>
      <trkpt lat="42.177433" lon="-2.883663">
        <ele>897.7</ele>
        <time>2021-07-04T07:36:41.000Z</time>
      </trkpt>
      <trkpt lat="42.177523" lon="-2.883688">
        <ele>898.1</ele>
        <time>2021-07-04T07:36:46.000Z</time>
      </trkpt>
      <trkpt lat="42.177627" lon="-2.883720">
        <ele>898.6</ele>
        <time>2021-07-04T07:36:52.000Z</time>
      </trkpt>
      <trkpt lat="42.177720" lon="-2.883738">
        <ele>899.5</ele>
        <time>2021-07-04T07:36:57.000Z</time>
      </trkpt>
      <trkpt lat="42.177817" lon="-2.883753">
        <ele>899.5</ele>
        <time>2021-07-04T07:37:02.000Z</time>
      </trkpt>
      <trkpt lat="42.177913" lon="-2.883755">
        <ele>899.9</ele>
        <time>2021-07-04T07:37:07.000Z</time>
      </trkpt>
      <trkpt lat="42.178003" lon="-2.883750">
        <ele>899.6</ele>
        <time>2021-07-04T07:37:12.000Z</time>
      </trkpt>
      <trkpt lat="42.178098" lon="-2.883718">
        <ele>900.0</ele>
        <time>2021-07-04T07:37:17.000Z</time>
      </trkpt>
      <trkpt lat="42.178190" lon="-2.883662">
        <ele>900.6</ele>
        <time>2021-07-04T07:37:22.000Z</time>
      </trkpt>
      <trkpt lat="42.178282" lon="-2.883588">
        <ele>900.7</ele>
        <time>2021-07-04T07:37:27.000Z</time>
      </trkpt>
      <trkpt lat="42.178378" lon="-2.883517">
        <ele>900.5</ele>
        <time>2021-07-04T07:37:32.000Z</time>
      </trkpt>
      <trkpt lat="42.178467" lon="-2.883462">
        <ele>900.9</ele>
        <time>2021-07-04T07:37:36.000Z</time>
      </trkpt>
      <trkpt lat="42.178567" lon="-2.883380">
        <ele>900.3</ele>
        <time>2021-07-04T07:37:40.000Z</time>
      </trkpt>
      <trkpt lat="42.178628" lon="-2.883260">
        <ele>899.7</ele>
        <time>2021-07-04T07:37:43.000Z</time>
      </trkpt>
      <trkpt lat="42.178663" lon="-2.883103">
        <ele>899.2</ele>
        <time>2021-07-04T07:37:46.000Z</time>
      </trkpt>
      <trkpt lat="42.178697" lon="-2.882932">
        <ele>898.7</ele>
        <time>2021-07-04T07:37:49.000Z</time>
      </trkpt>
      <trkpt lat="42.178742" lon="-2.882770">
        <ele>898.7</ele>
        <time>2021-07-04T07:37:52.000Z</time>
      </trkpt>
      <trkpt lat="42.178798" lon="-2.882620">
        <ele>898.0</ele>
        <time>2021-07-04T07:37:55.000Z</time>
      </trkpt>
      <trkpt lat="42.178855" lon="-2.882465">
        <ele>898.0</ele>
        <time>2021-07-04T07:37:58.000Z</time>
      </trkpt>
      <trkpt lat="42.178893" lon="-2.882300">
        <ele>897.7</ele>
        <time>2021-07-04T07:38:01.000Z</time>
      </trkpt>
      <trkpt lat="42.178922" lon="-2.882132">
        <ele>897.5</ele>
        <time>2021-07-04T07:38:04.000Z</time>
      </trkpt>
      <trkpt lat="42.178952" lon="-2.881958">
        <ele>897.5</ele>
        <time>2021-07-04T07:38:07.000Z</time>
      </trkpt>
      <trkpt lat="42.178972" lon="-2.881837">
        <ele>897.1</ele>
        <time>2021-07-04T07:38:09.000Z</time>
      </trkpt>
      <trkpt lat="42.178980" lon="-2.881710">
        <ele>897.0</ele>
        <time>2021-07-04T07:38:11.000Z</time>
      </trkpt>
      <trkpt lat="42.178973" lon="-2.881578">
        <ele>897.0</ele>
        <time>2021-07-04T07:38:13.000Z</time>
      </trkpt>
      <trkpt lat="42.178953" lon="-2.881452">
        <ele>896.5</ele>
        <time>2021-07-04T07:38:15.000Z</time>
      </trkpt>
      <trkpt lat="42.178912" lon="-2.881332">
        <ele>896.2</ele>
        <time>2021-07-04T07:38:17.000Z</time>
      </trkpt>
      <trkpt lat="42.178848" lon="-2.881218">
        <ele>896.2</ele>
        <time>2021-07-04T07:38:19.000Z</time>
      </trkpt>
      <trkpt lat="42.178772" lon="-2.881115">
        <ele>896.0</ele>
        <time>2021-07-04T07:38:21.000Z</time>
      </trkpt>
      <trkpt lat="42.178687" lon="-2.881018">
        <ele>895.6</ele>
        <time>2021-07-04T07:38:23.000Z</time>
      </trkpt>
      <trkpt lat="42.178610" lon="-2.880900">
        <ele>895.4</ele>
        <time>2021-07-04T07:38:25.000Z</time>
      </trkpt>
      <trkpt lat="42.178567" lon="-2.880743">
        <ele>895.1</ele>
        <time>2021-07-04T07:38:27.000Z</time>
      </trkpt>
      <trkpt lat="42.178568" lon="-2.880553">
        <ele>894.4</ele>
        <time>2021-07-04T07:38:29.000Z</time>
      </trkpt>
      <trkpt lat="42.178592" lon="-2.880355">
        <ele>894.2</ele>
        <time>2021-07-04T07:38:31.000Z</time>
      </trkpt>
      <trkpt lat="42.178642" lon="-2.880162">
        <ele>893.8</ele>
        <time>2021-07-04T07:38:33.000Z</time>
      </trkpt>
      <trkpt lat="42.178713" lon="-2.879978">
        <ele>893.1</ele>
        <time>2021-07-04T07:38:35.000Z</time>
      </trkpt>
      <trkpt lat="42.178803" lon="-2.879808">
        <ele>893.1</ele>
        <time>2021-07-04T07:38:37.000Z</time>
      </trkpt>
      <trkpt lat="42.178903" lon="-2.879658">
        <ele>893.4</ele>
        <time>2021-07-04T07:38:39.000Z</time>
      </trkpt>
      <trkpt lat="42.179013" lon="-2.879528">
        <ele>893.6</ele>
        <time>2021-07-04T07:38:41.000Z</time>
      </trkpt>
      <trkpt lat="42.179097" lon="-2.879382">
        <ele>893.4</ele>
        <time>2021-07-04T07:38:43.000Z</time>
      </trkpt>
      <trkpt lat="42.179137" lon="-2.879227">
        <ele>893.3</ele>
        <time>2021-07-04T07:38:45.000Z</time>
      </trkpt>
      <trkpt lat="42.179147" lon="-2.879082">
        <ele>893.5</ele>
        <time>2021-07-04T07:38:47.000Z</time>
      </trkpt>
      <trkpt lat="42.179145" lon="-2.878953">
        <ele>893.7</ele>
        <time>2021-07-04T07:38:49.000Z</time>
      </trkpt>
      <trkpt lat="42.179162" lon="-2.878775">
        <ele>893.5</ele>
        <time>2021-07-04T07:38:52.000Z</time>
      </trkpt>
      <trkpt lat="42.179212" lon="-2.878608">
        <ele>894.4</ele>
        <time>2021-07-04T07:38:55.000Z</time>
      </trkpt>
      <trkpt lat="42.179288" lon="-2.878463">
        <ele>893.9</ele>
        <time>2021-07-04T07:38:58.000Z</time>
      </trkpt>
      <trkpt lat="42.179385" lon="-2.878343">
        <ele>894.2</ele>
        <time>2021-07-04T07:39:01.000Z</time>
      </trkpt>
      <trkpt lat="42.179490" lon="-2.878232">
        <ele>894.8</ele>
        <time>2021-07-04T07:39:04.000Z</time>
      </trkpt>
      <trkpt lat="42.179587" lon="-2.878122">
        <ele>894.9</ele>
        <time>2021-07-04T07:39:07.000Z</time>
      </trkpt>
      <trkpt lat="42.179678" lon="-2.878018">
        <ele>895.0</ele>
        <time>2021-07-04T07:39:10.000Z</time>
      </trkpt>
      <trkpt lat="42.179777" lon="-2.877912">
        <ele>895.0</ele>
        <time>2021-07-04T07:39:13.000Z</time>
      </trkpt>
      <trkpt lat="42.179887" lon="-2.877802">
        <ele>894.2</ele>
        <time>2021-07-04T07:39:16.000Z</time>
      </trkpt>
      <trkpt lat="42.179963" lon="-2.877707">
        <ele>894.5</ele>
        <time>2021-07-04T07:39:18.000Z</time>
      </trkpt>
      <trkpt lat="42.180030" lon="-2.877588">
        <ele>894.0</ele>
        <time>2021-07-04T07:39:20.000Z</time>
      </trkpt>
      <trkpt lat="42.180100" lon="-2.877467">
        <ele>893.7</ele>
        <time>2021-07-04T07:39:22.000Z</time>
      </trkpt>
      <trkpt lat="42.180175" lon="-2.877355">
        <ele>893.4</ele>
        <time>2021-07-04T07:39:24.000Z</time>
      </trkpt>
      <trkpt lat="42.180250" lon="-2.877242">
        <ele>893.0</ele>
        <time>2021-07-04T07:39:26.000Z</time>
      </trkpt>
      <trkpt lat="42.180328" lon="-2.877127">
        <ele>893.3</ele>
        <time>2021-07-04T07:39:28.000Z</time>
      </trkpt>
      <trkpt lat="42.180410" lon="-2.877013">
        <ele>893.3</ele>
        <time>2021-07-04T07:39:30.000Z</time>
      </trkpt>
      <trkpt lat="42.180503" lon="-2.876912">
        <ele>893.0</ele>
        <time>2021-07-04T07:39:32.000Z</time>
      </trkpt>
      <trkpt lat="42.180612" lon="-2.876852">
        <ele>893.0</ele>
        <time>2021-07-04T07:39:34.000Z</time>
      </trkpt>
      <trkpt lat="42.180732" lon="-2.876803">
        <ele>892.2</ele>
        <time>2021-07-04T07:39:36.000Z</time>
      </trkpt>
      <trkpt lat="42.180832" lon="-2.876708">
        <ele>891.8</ele>
        <time>2021-07-04T07:39:38.000Z</time>
      </trkpt>
      <trkpt lat="42.180880" lon="-2.876563">
        <ele>891.7</ele>
        <time>2021-07-04T07:39:40.000Z</time>
      </trkpt>
      <trkpt lat="42.180888" lon="-2.876413">
        <ele>891.9</ele>
        <time>2021-07-04T07:39:42.000Z</time>
      </trkpt>
      <trkpt lat="42.180890" lon="-2.876275">
        <ele>892.3</ele>
        <time>2021-07-04T07:39:44.000Z</time>
      </trkpt>
      <trkpt lat="42.180903" lon="-2.876148">
        <ele>892.4</ele>
        <time>2021-07-04T07:39:46.000Z</time>
      </trkpt>
      <trkpt lat="42.180940" lon="-2.875983">
        <ele>892.4</ele>
        <time>2021-07-04T07:39:49.000Z</time>
      </trkpt>
      <trkpt lat="42.180982" lon="-2.875832">
        <ele>892.9</ele>
        <time>2021-07-04T07:39:52.000Z</time>
      </trkpt>
      <trkpt lat="42.181023" lon="-2.875677">
        <ele>893.6</ele>
        <time>2021-07-04T07:39:55.000Z</time>
      </trkpt>
      <trkpt lat="42.181052" lon="-2.875527">
        <ele>894.1</ele>
        <time>2021-07-04T07:39:58.000Z</time>
      </trkpt>
      <trkpt lat="42.181073" lon="-2.875382">
        <ele>894.1</ele>
        <time>2021-07-04T07:40:01.000Z</time>
      </trkpt>
      <trkpt lat="42.181092" lon="-2.875240">
        <ele>894.9</ele>
        <time>2021-07-04T07:40:04.000Z</time>
      </trkpt>
      <trkpt lat="42.181110" lon="-2.875093">
        <ele>895.5</ele>
        <time>2021-07-04T07:40:07.000Z</time>
      </trkpt>
      <trkpt lat="42.181120" lon="-2.874945">
        <ele>895.4</ele>
        <time>2021-07-04T07:40:10.000Z</time>
      </trkpt>
      <trkpt lat="42.181115" lon="-2.874788">
        <ele>895.4</ele>
        <time>2021-07-04T07:40:13.000Z</time>
      </trkpt>
      <trkpt lat="42.181097" lon="-2.874613">
        <ele>895.3</ele>
        <time>2021-07-04T07:40:16.000Z</time>
      </trkpt>
      <trkpt lat="42.181082" lon="-2.874490">
        <ele>894.9</ele>
        <time>2021-07-04T07:40:18.000Z</time>
      </trkpt>
      <trkpt lat="42.181062" lon="-2.874355">
        <ele>894.1</ele>
        <time>2021-07-04T07:40:20.000Z</time>
      </trkpt>
      <trkpt lat="42.181038" lon="-2.874215">
        <ele>893.9</ele>
        <time>2021-07-04T07:40:22.000Z</time>
      </trkpt>
      <trkpt lat="42.181020" lon="-2.874065">
        <ele>894.0</ele>
        <time>2021-07-04T07:40:24.000Z</time>
      </trkpt>
      <trkpt lat="42.180998" lon="-2.873903">
        <ele>893.7</ele>
        <time>2021-07-04T07:40:26.000Z</time>
      </trkpt>
      <trkpt lat="42.180958" lon="-2.873733">
        <ele>892.9</ele>
        <time>2021-07-04T07:40:28.000Z</time>
      </trkpt>
      <trkpt lat="42.180913" lon="-2.873560">
        <ele>892.4</ele>
        <time>2021-07-04T07:40:30.000Z</time>
      </trkpt>
      <trkpt lat="42.180883" lon="-2.873382">
        <ele>891.9</ele>
        <time>2021-07-04T07:40:32.000Z</time>
      </trkpt>
      <trkpt lat="42.180913" lon="-2.873202">
        <ele>891.2</ele>
        <time>2021-07-04T07:40:34.000Z</time>
      </trkpt>
      <trkpt lat="42.181025" lon="-2.873092">
        <ele>890.5</ele>
        <time>2021-07-04T07:40:36.000Z</time>
      </trkpt>
      <trkpt lat="42.181175" lon="-2.873097">
        <ele>890.2</ele>
        <time>2021-07-04T07:40:38.000Z</time>
      </trkpt>
      <trkpt lat="42.181330" lon="-2.873167">
        <ele>889.3</ele>
        <time>2021-07-04T07:40:40.000Z</time>
      </trkpt>
      <trkpt lat="42.181498" lon="-2.873228">
        <ele>889.1</ele>
        <time>2021-07-04T07:40:42.000Z</time>
      </trkpt>
      <trkpt lat="42.181678" lon="-2.873262">
        <ele>888.3</ele>
        <time>2021-07-04T07:40:44.000Z</time>
      </trkpt>
      <trkpt lat="42.181773" lon="-2.873268">
        <ele>888.1</ele>
        <time>2021-07-04T07:40:45.000Z</time>
      </trkpt>
      <trkpt lat="42.181870" lon="-2.873267">
        <ele>887.5</ele>
        <time>2021-07-04T07:40:46.000Z</time>
      </trkpt>
      <trkpt lat="42.181968" lon="-2.873257">
        <ele>887.0</ele>
        <time>2021-07-04T07:40:47.000Z</time>
      </trkpt>
      <trkpt lat="42.182070" lon="-2.873247">
        <ele>886.3</ele>
        <time>2021-07-04T07:40:48.000Z</time>
      </trkpt>
      <trkpt lat="42.182172" lon="-2.873235">
        <ele>885.6</ele>
        <time>2021-07-04T07:40:49.000Z</time>
      </trkpt>
      <trkpt lat="42.182273" lon="-2.873218">
        <ele>885.2</ele>
        <time>2021-07-04T07:40:50.000Z</time>
      </trkpt>
      <trkpt lat="42.182373" lon="-2.873197">
        <ele>884.4</ele>
        <time>2021-07-04T07:40:51.000Z</time>
      </trkpt>
      <trkpt lat="42.182470" lon="-2.873170">
        <ele>883.8</ele>
        <time>2021-07-04T07:40:52.000Z</time>
      </trkpt>
      <trkpt lat="42.182565" lon="-2.873133">
        <ele>883.6</ele>
        <time>2021-07-04T07:40:53.000Z</time>
      </trkpt>
      <trkpt lat="42.182658" lon="-2.873087">
        <ele>882.7</ele>
        <time>2021-07-04T07:40:54.000Z</time>
      </trkpt>
      <trkpt lat="42.182750" lon="-2.873035">
        <ele>881.9</ele>
        <time>2021-07-04T07:40:55.000Z</time>
      </trkpt>
      <trkpt lat="42.182842" lon="-2.872977">
        <ele>881.3</ele>
        <time>2021-07-04T07:40:56.000Z</time>
      </trkpt>
      <trkpt lat="42.182930" lon="-2.872912">
        <ele>880.7</ele>
        <time>2021-07-04T07:40:57.000Z</time>
      </trkpt>
      <trkpt lat="42.183015" lon="-2.872840">
        <ele>880.2</ele>
        <time>2021-07-04T07:40:58.000Z</time>
      </trkpt>
      <trkpt lat="42.183100" lon="-2.872762">
        <ele>880.0</ele>
        <time>2021-07-04T07:40:59.000Z</time>
      </trkpt>
      <trkpt lat="42.183178" lon="-2.872677">
        <ele>880.0</ele>
        <time>2021-07-04T07:41:00.000Z</time>
      </trkpt>
      <trkpt lat="42.183248" lon="-2.872580">
        <ele>879.2</ele>
        <time>2021-07-04T07:41:01.000Z</time>
      </trkpt>
      <trkpt lat="42.183307" lon="-2.872475">
        <ele>878.8</ele>
        <time>2021-07-04T07:41:02.000Z</time>
      </trkpt>
      <trkpt lat="42.183358" lon="-2.872365">
        <ele>878.3</ele>
        <time>2021-07-04T07:41:03.000Z</time>
      </trkpt>
      <trkpt lat="42.183397" lon="-2.872253">
        <ele>877.7</ele>
        <time>2021-07-04T07:41:04.000Z</time>
      </trkpt>
      <trkpt lat="42.183442" lon="-2.872023">
        <ele>876.4</ele>
        <time>2021-07-04T07:41:06.000Z</time>
      </trkpt>
      <trkpt lat="42.183465" lon="-2.871807">
        <ele>876.2</ele>
        <time>2021-07-04T07:41:08.000Z</time>
      </trkpt>
      <trkpt lat="42.183475" lon="-2.871613">
        <ele>875.9</ele>
        <time>2021-07-04T07:41:10.000Z</time>
      </trkpt>
      <trkpt lat="42.183478" lon="-2.871433">
        <ele>875.9</ele>
        <time>2021-07-04T07:41:12.000Z</time>
      </trkpt>
      <trkpt lat="42.183465" lon="-2.871270">
        <ele>875.4</ele>
        <time>2021-07-04T07:41:14.000Z</time>
      </trkpt>
      <trkpt lat="42.183422" lon="-2.871120">
        <ele>875.0</ele>
        <time>2021-07-04T07:41:16.000Z</time>
      </trkpt>
      <trkpt lat="42.183365" lon="-2.870977">
        <ele>874.7</ele>
        <time>2021-07-04T07:41:18.000Z</time>
      </trkpt>
      <trkpt lat="42.183303" lon="-2.870843">
        <ele>874.9</ele>
        <time>2021-07-04T07:41:20.000Z</time>
      </trkpt>
      <trkpt lat="42.183238" lon="-2.870718">
        <ele>874.1</ele>
        <time>2021-07-04T07:41:22.000Z</time>
      </trkpt>
      <trkpt lat="42.183165" lon="-2.870602">
        <ele>874.1</ele>
        <time>2021-07-04T07:41:24.000Z</time>
      </trkpt>
      <trkpt lat="42.183077" lon="-2.870500">
        <ele>874.1</ele>
        <time>2021-07-04T07:41:26.000Z</time>
      </trkpt>
      <trkpt lat="42.182982" lon="-2.870415">
        <ele>873.8</ele>
        <time>2021-07-04T07:41:28.000Z</time>
      </trkpt>
      <trkpt lat="42.182888" lon="-2.870328">
        <ele>873.3</ele>
        <time>2021-07-04T07:41:30.000Z</time>
      </trkpt>
      <trkpt lat="42.182793" lon="-2.870238">
        <ele>872.8</ele>
        <time>2021-07-04T07:41:32.000Z</time>
      </trkpt>
      <trkpt lat="42.182693" lon="-2.870157">
        <ele>873.1</ele>
        <time>2021-07-04T07:41:34.000Z</time>
      </trkpt>
      <trkpt lat="42.182582" lon="-2.870093">
        <ele>872.6</ele>
        <time>2021-07-04T07:41:36.000Z</time>
      </trkpt>
      <trkpt lat="42.182463" lon="-2.870055">
        <ele>872.4</ele>
        <time>2021-07-04T07:41:38.000Z</time>
      </trkpt>
      <trkpt lat="42.182342" lon="-2.870043">
        <ele>872.2</ele>
        <time>2021-07-04T07:41:40.000Z</time>
      </trkpt>
      <trkpt lat="42.182218" lon="-2.870045">
        <ele>871.8</ele>
        <time>2021-07-04T07:41:42.000Z</time>
      </trkpt>
      <trkpt lat="42.182093" lon="-2.870037">
        <ele>872.0</ele>
        <time>2021-07-04T07:41:44.000Z</time>
      </trkpt>
      <trkpt lat="42.181968" lon="-2.870007">
        <ele>872.1</ele>
        <time>2021-07-04T07:41:46.000Z</time>
      </trkpt>
      <trkpt lat="42.181848" lon="-2.869937">
        <ele>871.5</ele>
        <time>2021-07-04T07:41:48.000Z</time>
      </trkpt>
      <trkpt lat="42.181743" lon="-2.869827">
        <ele>871.5</ele>
        <time>2021-07-04T07:41:50.000Z</time>
      </trkpt>
      <trkpt lat="42.181655" lon="-2.869690">
        <ele>870.8</ele>
        <time>2021-07-04T07:41:52.000Z</time>
      </trkpt>
      <trkpt lat="42.181578" lon="-2.869545">
        <ele>871.0</ele>
        <time>2021-07-04T07:41:54.000Z</time>
      </trkpt>
      <trkpt lat="42.181503" lon="-2.869400">
        <ele>870.7</ele>
        <time>2021-07-04T07:41:56.000Z</time>
      </trkpt>
      <trkpt lat="42.181432" lon="-2.869257">
        <ele>870.9</ele>
        <time>2021-07-04T07:41:58.000Z</time>
      </trkpt>
      <trkpt lat="42.181362" lon="-2.869115">
        <ele>870.8</ele>
        <time>2021-07-04T07:42:00.000Z</time>
      </trkpt>
      <trkpt lat="42.181293" lon="-2.868977">
        <ele>870.8</ele>
        <time>2021-07-04T07:42:02.000Z</time>
      </trkpt>
      <trkpt lat="42.181233" lon="-2.868838">
        <ele>870.4</ele>
        <time>2021-07-04T07:42:04.000Z</time>
      </trkpt>
      <trkpt lat="42.181185" lon="-2.868692">
        <ele>869.9</ele>
        <time>2021-07-04T07:42:06.000Z</time>
      </trkpt>
      <trkpt lat="42.181145" lon="-2.868540">
        <ele>869.1</ele>
        <time>2021-07-04T07:42:08.000Z</time>
      </trkpt>
      <trkpt lat="42.181113" lon="-2.868387">
        <ele>870.0</ele>
        <time>2021-07-04T07:42:10.000Z</time>
      </trkpt>
      <trkpt lat="42.181093" lon="-2.868230">
        <ele>869.5</ele>
        <time>2021-07-04T07:42:12.000Z</time>
      </trkpt>
      <trkpt lat="42.181080" lon="-2.868072">
        <ele>869.3</ele>
        <time>2021-07-04T07:42:14.000Z</time>
      </trkpt>
      <trkpt lat="42.181075" lon="-2.867913">
        <ele>868.9</ele>
        <time>2021-07-04T07:42:16.000Z</time>
      </trkpt>
      <trkpt lat="42.181097" lon="-2.867760">
        <ele>869.1</ele>
        <time>2021-07-04T07:42:18.000Z</time>
      </trkpt>
      <trkpt lat="42.181165" lon="-2.867628">
        <ele>869.3</ele>
        <time>2021-07-04T07:42:20.000Z</time>
      </trkpt>
      <trkpt lat="42.181268" lon="-2.867542">
        <ele>869.2</ele>
        <time>2021-07-04T07:42:22.000Z</time>
      </trkpt>
      <trkpt lat="42.181388" lon="-2.867510">
        <ele>868.1</ele>
        <time>2021-07-04T07:42:24.000Z</time>
      </trkpt>
      <trkpt lat="42.181515" lon="-2.867530">
        <ele>867.9</ele>
        <time>2021-07-04T07:42:26.000Z</time>
      </trkpt>
      <trkpt lat="42.181640" lon="-2.867592">
        <ele>867.5</ele>
        <time>2021-07-04T07:42:28.000Z</time>
      </trkpt>
      <trkpt lat="42.181768" lon="-2.867668">
        <ele>866.9</ele>
        <time>2021-07-04T07:42:30.000Z</time>
      </trkpt>
      <trkpt lat="42.181897" lon="-2.867740">
        <ele>866.8</ele>
        <time>2021-07-04T07:42:32.000Z</time>
      </trkpt>
      <trkpt lat="42.182033" lon="-2.867808">
        <ele>865.5</ele>
        <time>2021-07-04T07:42:34.000Z</time>
      </trkpt>
      <trkpt lat="42.182175" lon="-2.867872">
        <ele>865.0</ele>
        <time>2021-07-04T07:42:36.000Z</time>
      </trkpt>
      <trkpt lat="42.182322" lon="-2.867927">
        <ele>865.4</ele>
        <time>2021-07-04T07:42:38.000Z</time>
      </trkpt>
      <trkpt lat="42.182470" lon="-2.867980">
        <ele>865.4</ele>
        <time>2021-07-04T07:42:40.000Z</time>
      </trkpt>
      <trkpt lat="42.182622" lon="-2.868008">
        <ele>864.6</ele>
        <time>2021-07-04T07:42:42.000Z</time>
      </trkpt>
      <trkpt lat="42.182777" lon="-2.867983">
        <ele>863.9</ele>
        <time>2021-07-04T07:42:44.000Z</time>
      </trkpt>
      <trkpt lat="42.182932" lon="-2.867923">
        <ele>862.9</ele>
        <time>2021-07-04T07:42:46.000Z</time>
      </trkpt>
      <trkpt lat="42.183090" lon="-2.867867">
        <ele>862.1</ele>
        <time>2021-07-04T07:42:48.000Z</time>
      </trkpt>
      <trkpt lat="42.183245" lon="-2.867800">
        <ele>861.6</ele>
        <time>2021-07-04T07:42:50.000Z</time>
      </trkpt>
      <trkpt lat="42.183383" lon="-2.867712">
        <ele>861.4</ele>
        <time>2021-07-04T07:42:52.000Z</time>
      </trkpt>
      <trkpt lat="42.183507" lon="-2.867620">
        <ele>861.3</ele>
        <time>2021-07-04T07:42:54.000Z</time>
      </trkpt>
      <trkpt lat="42.183623" lon="-2.867533">
        <ele>861.4</ele>
        <time>2021-07-04T07:42:56.000Z</time>
      </trkpt>
      <trkpt lat="42.183733" lon="-2.867447">
        <ele>861.6</ele>
        <time>2021-07-04T07:42:58.000Z</time>
      </trkpt>
      <trkpt lat="42.183837" lon="-2.867367">
        <ele>861.3</ele>
        <time>2021-07-04T07:43:00.000Z</time>
      </trkpt>
      <trkpt lat="42.183937" lon="-2.867287">
        <ele>861.1</ele>
        <time>2021-07-04T07:43:02.000Z</time>
      </trkpt>
      <trkpt lat="42.184033" lon="-2.867203">
        <ele>861.2</ele>
        <time>2021-07-04T07:43:04.000Z</time>
      </trkpt>
      <trkpt lat="42.184130" lon="-2.867122">
        <ele>860.8</ele>
        <time>2021-07-04T07:43:06.000Z</time>
      </trkpt>
      <trkpt lat="42.184225" lon="-2.867042">
        <ele>861.1</ele>
        <time>2021-07-04T07:43:08.000Z</time>
      </trkpt>
      <trkpt lat="42.184318" lon="-2.866958">
        <ele>861.2</ele>
        <time>2021-07-04T07:43:10.000Z</time>
      </trkpt>
      <trkpt lat="42.184410" lon="-2.866870">
        <ele>861.2</ele>
        <time>2021-07-04T07:43:12.000Z</time>
      </trkpt>
      <trkpt lat="42.184497" lon="-2.866773">
        <ele>861.4</ele>
        <time>2021-07-04T07:43:14.000Z</time>
      </trkpt>
      <trkpt lat="42.184573" lon="-2.866670">
        <ele>861.5</ele>
        <time>2021-07-04T07:43:16.000Z</time>
      </trkpt>
      <trkpt lat="42.184642" lon="-2.866558">
        <ele>861.6</ele>
        <time>2021-07-04T07:43:18.000Z</time>
      </trkpt>
      <trkpt lat="42.184707" lon="-2.866440">
        <ele>861.6</ele>
        <time>2021-07-04T07:43:20.000Z</time>
      </trkpt>
      <trkpt lat="42.184760" lon="-2.866297">
        <ele>861.4</ele>
        <time>2021-07-04T07:43:22.000Z</time>
      </trkpt>
      <trkpt lat="42.184797" lon="-2.866133">
        <ele>861.3</ele>
        <time>2021-07-04T07:43:24.000Z</time>
      </trkpt>
      <trkpt lat="42.184807" lon="-2.865953">
        <ele>860.7</ele>
        <time>2021-07-04T07:43:26.000Z</time>
      </trkpt>
      <trkpt lat="42.184782" lon="-2.865763">
        <ele>859.7</ele>
        <time>2021-07-04T07:43:28.000Z</time>
      </trkpt>
      <trkpt lat="42.184720" lon="-2.865580">
        <ele>859.3</ele>
        <time>2021-07-04T07:43:30.000Z</time>
      </trkpt>
      <trkpt lat="42.184642" lon="-2.865400">
        <ele>858.7</ele>
        <time>2021-07-04T07:43:32.000Z</time>
      </trkpt>
      <trkpt lat="42.184552" lon="-2.865217">
        <ele>858.3</ele>
        <time>2021-07-04T07:43:34.000Z</time>
      </trkpt>
      <trkpt lat="42.184448" lon="-2.865045">
        <ele>858.1</ele>
        <time>2021-07-04T07:43:36.000Z</time>
      </trkpt>
      <trkpt lat="42.184328" lon="-2.864898">
        <ele>857.1</ele>
        <time>2021-07-04T07:43:38.000Z</time>
      </trkpt>
      <trkpt lat="42.184195" lon="-2.864780">
        <ele>856.6</ele>
        <time>2021-07-04T07:43:40.000Z</time>
      </trkpt>
      <trkpt lat="42.184055" lon="-2.864688">
        <ele>856.3</ele>
        <time>2021-07-04T07:43:42.000Z</time>
      </trkpt>
      <trkpt lat="42.183908" lon="-2.864627">
        <ele>856.2</ele>
        <time>2021-07-04T07:43:44.000Z</time>
      </trkpt>
      <trkpt lat="42.183763" lon="-2.864595">
        <ele>855.6</ele>
        <time>2021-07-04T07:43:46.000Z</time>
      </trkpt>
      <trkpt lat="42.183618" lon="-2.864603">
        <ele>855.1</ele>
        <time>2021-07-04T07:43:48.000Z</time>
      </trkpt>
      <trkpt lat="42.183480" lon="-2.864648">
        <ele>855.1</ele>
        <time>2021-07-04T07:43:50.000Z</time>
      </trkpt>
      <trkpt lat="42.183352" lon="-2.864723">
        <ele>854.4</ele>
        <time>2021-07-04T07:43:52.000Z</time>
      </trkpt>
      <trkpt lat="42.183220" lon="-2.864805">
        <ele>854.0</ele>
        <time>2021-07-04T07:43:54.000Z</time>
      </trkpt>
      <trkpt lat="42.183085" lon="-2.864888">
        <ele>853.9</ele>
        <time>2021-07-04T07:43:56.000Z</time>
      </trkpt>
      <trkpt lat="42.182952" lon="-2.864962">
        <ele>853.8</ele>
        <time>2021-07-04T07:43:58.000Z</time>
      </trkpt>
      <trkpt lat="42.182818" lon="-2.864992">
        <ele>854.1</ele>
        <time>2021-07-04T07:44:00.000Z</time>
      </trkpt>
      <trkpt lat="42.182690" lon="-2.864962">
        <ele>854.1</ele>
        <time>2021-07-04T07:44:02.000Z</time>
      </trkpt>
      <trkpt lat="42.182575" lon="-2.864877">
        <ele>853.9</ele>
        <time>2021-07-04T07:44:04.000Z</time>
      </trkpt>
      <trkpt lat="42.182473" lon="-2.864760">
        <ele>854.2</ele>
        <time>2021-07-04T07:44:06.000Z</time>
      </trkpt>
      <trkpt lat="42.182377" lon="-2.864635">
        <ele>854.2</ele>
        <time>2021-07-04T07:44:08.000Z</time>
      </trkpt>
      <trkpt lat="42.182285" lon="-2.864505">
        <ele>854.2</ele>
        <time>2021-07-04T07:44:10.000Z</time>
      </trkpt>
      <trkpt lat="42.182200" lon="-2.864365">
        <ele>853.7</ele>
        <time>2021-07-04T07:44:12.000Z</time>
      </trkpt>
      <trkpt lat="42.182123" lon="-2.864217">
        <ele>853.6</ele>
        <time>2021-07-04T07:44:14.000Z</time>
      </trkpt>
      <trkpt lat="42.182058" lon="-2.864055">
        <ele>853.5</ele>
        <time>2021-07-04T07:44:16.000Z</time>
      </trkpt>
      <trkpt lat="42.182008" lon="-2.863885">
        <ele>853.4</ele>
        <time>2021-07-04T07:44:18.000Z</time>
      </trkpt>
      <trkpt lat="42.181972" lon="-2.863710">
        <ele>854.0</ele>
        <time>2021-07-04T07:44:20.000Z</time>
      </trkpt>
      <trkpt lat="42.181945" lon="-2.863537">
        <ele>853.4</ele>
        <time>2021-07-04T07:44:22.000Z</time>
      </trkpt>
      <trkpt lat="42.181932" lon="-2.863358">
        <ele>852.6</ele>
        <time>2021-07-04T07:44:24.000Z</time>
      </trkpt>
      <trkpt lat="42.181932" lon="-2.863182">
        <ele>852.2</ele>
        <time>2021-07-04T07:44:26.000Z</time>
      </trkpt>
      <trkpt lat="42.181947" lon="-2.863007">
        <ele>852.2</ele>
        <time>2021-07-04T07:44:28.000Z</time>
      </trkpt>
      <trkpt lat="42.181977" lon="-2.862828">
        <ele>851.8</ele>
        <time>2021-07-04T07:44:30.000Z</time>
      </trkpt>
      <trkpt lat="42.182020" lon="-2.862657">
        <ele>851.4</ele>
        <time>2021-07-04T07:44:32.000Z</time>
      </trkpt>
      <trkpt lat="42.182077" lon="-2.862492">
        <ele>851.4</ele>
        <time>2021-07-04T07:44:34.000Z</time>
      </trkpt>
      <trkpt lat="42.182143" lon="-2.862340">
        <ele>851.4</ele>
        <time>2021-07-04T07:44:36.000Z</time>
      </trkpt>
      <trkpt lat="42.182218" lon="-2.862198">
        <ele>851.3</ele>
        <time>2021-07-04T07:44:38.000Z</time>
      </trkpt>
      <trkpt lat="42.182300" lon="-2.862065">
        <ele>851.1</ele>
        <time>2021-07-04T07:44:40.000Z</time>
      </trkpt>
      <trkpt lat="42.182388" lon="-2.861940">
        <ele>851.4</ele>
        <time>2021-07-04T07:44:42.000Z</time>
      </trkpt>
      <trkpt lat="42.182477" lon="-2.861818">
        <ele>851.0</ele>
        <time>2021-07-04T07:44:44.000Z</time>
      </trkpt>
      <trkpt lat="42.182575" lon="-2.861707">
        <ele>851.2</ele>
        <time>2021-07-04T07:44:46.000Z</time>
      </trkpt>
      <trkpt lat="42.182675" lon="-2.861600">
        <ele>850.8</ele>
        <time>2021-07-04T07:44:48.000Z</time>
      </trkpt>
      <trkpt lat="42.182773" lon="-2.861495">
        <ele>850.8</ele>
        <time>2021-07-04T07:44:50.000Z</time>
      </trkpt>
      <trkpt lat="42.182873" lon="-2.861392">
        <ele>851.0</ele>
        <time>2021-07-04T07:44:52.000Z</time>
      </trkpt>
      <trkpt lat="42.182972" lon="-2.861287">
        <ele>849.8</ele>
        <time>2021-07-04T07:44:54.000Z</time>
      </trkpt>
      <trkpt lat="42.183068" lon="-2.861177">
        <ele>849.6</ele>
        <time>2021-07-04T07:44:56.000Z</time>
      </trkpt>
      <trkpt lat="42.183162" lon="-2.861058">
        <ele>850.2</ele>
        <time>2021-07-04T07:44:58.000Z</time>
      </trkpt>
      <trkpt lat="42.183248" lon="-2.860932">
        <ele>850.3</ele>
        <time>2021-07-04T07:45:00.000Z</time>
      </trkpt>
      <trkpt lat="42.183330" lon="-2.860798">
        <ele>850.0</ele>
        <time>2021-07-04T07:45:02.000Z</time>
      </trkpt>
      <trkpt lat="42.183400" lon="-2.860657">
        <ele>849.2</ele>
        <time>2021-07-04T07:45:04.000Z</time>
      </trkpt>
      <trkpt lat="42.183465" lon="-2.860508">
        <ele>848.9</ele>
        <time>2021-07-04T07:45:06.000Z</time>
      </trkpt>
      <trkpt lat="42.183518" lon="-2.860357">
        <ele>849.4</ele>
        <time>2021-07-04T07:45:08.000Z</time>
      </trkpt>
      <trkpt lat="42.183565" lon="-2.860205">
        <ele>849.7</ele>
        <time>2021-07-04T07:45:10.000Z</time>
      </trkpt>
      <trkpt lat="42.183605" lon="-2.860055">
        <ele>850.1</ele>
        <time>2021-07-04T07:45:12.000Z</time>
      </trkpt>
      <trkpt lat="42.183640" lon="-2.859908">
        <ele>849.5</ele>
        <time>2021-07-04T07:45:14.000Z</time>
      </trkpt>
      <trkpt lat="42.183673" lon="-2.859767">
        <ele>849.4</ele>
        <time>2021-07-04T07:45:16.000Z</time>
      </trkpt>
      <trkpt lat="42.183710" lon="-2.859628">
        <ele>849.4</ele>
        <time>2021-07-04T07:45:18.000Z</time>
      </trkpt>
      <trkpt lat="42.183752" lon="-2.859498">
        <ele>849.8</ele>
        <time>2021-07-04T07:45:20.000Z</time>
      </trkpt>
      <trkpt lat="42.183798" lon="-2.859375">
        <ele>849.9</ele>
        <time>2021-07-04T07:45:22.000Z</time>
      </trkpt>
      <trkpt lat="42.183855" lon="-2.859258">
        <ele>849.9</ele>
        <time>2021-07-04T07:45:24.000Z</time>
      </trkpt>
      <trkpt lat="42.183918" lon="-2.859148">
        <ele>849.7</ele>
        <time>2021-07-04T07:45:26.000Z</time>
      </trkpt>
      <trkpt lat="42.183987" lon="-2.859043">
        <ele>850.3</ele>
        <time>2021-07-04T07:45:28.000Z</time>
      </trkpt>
      <trkpt lat="42.184055" lon="-2.858942">
        <ele>850.5</ele>
        <time>2021-07-04T07:45:30.000Z</time>
      </trkpt>
      <trkpt lat="42.184122" lon="-2.858842">
        <ele>850.5</ele>
        <time>2021-07-04T07:45:32.000Z</time>
      </trkpt>
      <trkpt lat="42.184190" lon="-2.858745">
        <ele>850.9</ele>
        <time>2021-07-04T07:45:34.000Z</time>
      </trkpt>
      <trkpt lat="42.184262" lon="-2.858653">
        <ele>850.7</ele>
        <time>2021-07-04T07:45:36.000Z</time>
      </trkpt>
      <trkpt lat="42.184337" lon="-2.858570">
        <ele>850.5</ele>
        <time>2021-07-04T07:45:38.000Z</time>
      </trkpt>
      <trkpt lat="42.184420" lon="-2.858500">
        <ele>851.1</ele>
        <time>2021-07-04T07:45:40.000Z</time>
      </trkpt>
      <trkpt lat="42.184507" lon="-2.858453">
        <ele>851.3</ele>
        <time>2021-07-04T07:45:42.000Z</time>
      </trkpt>
      <trkpt lat="42.184598" lon="-2.858438">
        <ele>851.6</ele>
        <time>2021-07-04T07:45:44.000Z</time>
      </trkpt>
      <trkpt lat="42.184688" lon="-2.858448">
        <ele>851.8</ele>
        <time>2021-07-04T07:45:46.000Z</time>
      </trkpt>
      <trkpt lat="42.184777" lon="-2.858478">
        <ele>852.1</ele>
        <time>2021-07-04T07:45:48.000Z</time>
      </trkpt>
      <trkpt lat="42.184862" lon="-2.858530">
        <ele>852.3</ele>
        <time>2021-07-04T07:45:50.000Z</time>
      </trkpt>
      <trkpt lat="42.184938" lon="-2.858603">
        <ele>852.1</ele>
        <time>2021-07-04T07:45:52.000Z</time>
      </trkpt>
      <trkpt lat="42.185010" lon="-2.858687">
        <ele>852.2</ele>
        <time>2021-07-04T07:45:54.000Z</time>
      </trkpt>
      <trkpt lat="42.185077" lon="-2.858778">
        <ele>852.7</ele>
        <time>2021-07-04T07:45:56.000Z</time>
      </trkpt>
      <trkpt lat="42.185135" lon="-2.858878">
        <ele>852.7</ele>
        <time>2021-07-04T07:45:58.000Z</time>
      </trkpt>
      <trkpt lat="42.185195" lon="-2.858978">
        <ele>852.7</ele>
        <time>2021-07-04T07:46:00.000Z</time>
      </trkpt>
      <trkpt lat="42.185253" lon="-2.859080">
        <ele>852.8</ele>
        <time>2021-07-04T07:46:02.000Z</time>
      </trkpt>
      <trkpt lat="42.185317" lon="-2.859177">
        <ele>852.6</ele>
        <time>2021-07-04T07:46:04.000Z</time>
      </trkpt>
      <trkpt lat="42.185387" lon="-2.859262">
        <ele>852.8</ele>
        <time>2021-07-04T07:46:06.000Z</time>
      </trkpt>
      <trkpt lat="42.185465" lon="-2.859332">
        <ele>853.3</ele>
        <time>2021-07-04T07:46:08.000Z</time>
      </trkpt>
      <trkpt lat="42.185552" lon="-2.859388">
        <ele>853.3</ele>
        <time>2021-07-04T07:46:10.000Z</time>
      </trkpt>
      <trkpt lat="42.185640" lon="-2.859430">
        <ele>853.2</ele>
        <time>2021-07-04T07:46:12.000Z</time>
      </trkpt>
      <trkpt lat="42.185728" lon="-2.859467">
        <ele>853.6</ele>
        <time>2021-07-04T07:46:14.000Z</time>
      </trkpt>
      <trkpt lat="42.185863" lon="-2.859492">
        <ele>853.4</ele>
        <time>2021-07-04T07:46:17.000Z</time>
      </trkpt>
      <trkpt lat="42.185958" lon="-2.859490">
        <ele>853.4</ele>
        <time>2021-07-04T07:46:19.000Z</time>
      </trkpt>
      <trkpt lat="42.186055" lon="-2.859480">
        <ele>853.5</ele>
        <time>2021-07-04T07:46:21.000Z</time>
      </trkpt>
      <trkpt lat="42.186152" lon="-2.859458">
        <ele>854.0</ele>
        <time>2021-07-04T07:46:23.000Z</time>
      </trkpt>
      <trkpt lat="42.186245" lon="-2.859425">
        <ele>854.1</ele>
        <time>2021-07-04T07:46:25.000Z</time>
      </trkpt>
      <trkpt lat="42.186338" lon="-2.859380">
        <ele>854.0</ele>
        <time>2021-07-04T07:46:27.000Z</time>
      </trkpt>
      <trkpt lat="42.186423" lon="-2.859312">
        <ele>853.8</ele>
        <time>2021-07-04T07:46:29.000Z</time>
      </trkpt>
      <trkpt lat="42.186498" lon="-2.859225">
        <ele>853.9</ele>
        <time>2021-07-04T07:46:31.000Z</time>
      </trkpt>
      <trkpt lat="42.186570" lon="-2.859132">
        <ele>853.7</ele>
        <time>2021-07-04T07:46:33.000Z</time>
      </trkpt>
      <trkpt lat="42.186642" lon="-2.859040">
        <ele>853.8</ele>
        <time>2021-07-04T07:46:35.000Z</time>
      </trkpt>
      <trkpt lat="42.186723" lon="-2.858962">
        <ele>854.1</ele>
        <time>2021-07-04T07:46:37.000Z</time>
      </trkpt>
      <trkpt lat="42.186813" lon="-2.858893">
        <ele>854.2</ele>
        <time>2021-07-04T07:46:39.000Z</time>
      </trkpt>
      <trkpt lat="42.186908" lon="-2.858828">
        <ele>853.8</ele>
        <time>2021-07-04T07:46:41.000Z</time>
      </trkpt>
      <trkpt lat="42.187005" lon="-2.858762">
        <ele>854.1</ele>
        <time>2021-07-04T07:46:43.000Z</time>
      </trkpt>
      <trkpt lat="42.187102" lon="-2.858692">
        <ele>854.5</ele>
        <time>2021-07-04T07:46:45.000Z</time>
      </trkpt>
      <trkpt lat="42.187200" lon="-2.858628">
        <ele>853.8</ele>
        <time>2021-07-04T07:46:47.000Z</time>
      </trkpt>
      <trkpt lat="42.187293" lon="-2.858562">
        <ele>854.3</ele>
        <time>2021-07-04T07:46:49.000Z</time>
      </trkpt>
      <trkpt lat="42.187382" lon="-2.858495">
        <ele>854.5</ele>
        <time>2021-07-04T07:46:51.000Z</time>
      </trkpt>
      <trkpt lat="42.187473" lon="-2.858433">
        <ele>853.9</ele>
        <time>2021-07-04T07:46:53.000Z</time>
      </trkpt>
      <trkpt lat="42.187568" lon="-2.858377">
        <ele>854.5</ele>
        <time>2021-07-04T07:46:55.000Z</time>
      </trkpt>
      <trkpt lat="42.187665" lon="-2.858323">
        <ele>854.4</ele>
        <time>2021-07-04T07:46:57.000Z</time>
      </trkpt>
      <trkpt lat="42.187762" lon="-2.858273">
        <ele>854.5</ele>
        <time>2021-07-04T07:46:59.000Z</time>
      </trkpt>
      <trkpt lat="42.187860" lon="-2.858227">
        <ele>854.5</ele>
        <time>2021-07-04T07:47:01.000Z</time>
      </trkpt>
      <trkpt lat="42.187958" lon="-2.858182">
        <ele>853.8</ele>
        <time>2021-07-04T07:47:03.000Z</time>
      </trkpt>
      <trkpt lat="42.188058" lon="-2.858142">
        <ele>854.1</ele>
        <time>2021-07-04T07:47:05.000Z</time>
      </trkpt>
      <trkpt lat="42.188160" lon="-2.858108">
        <ele>854.3</ele>
        <time>2021-07-04T07:47:07.000Z</time>
      </trkpt>
      <trkpt lat="42.188263" lon="-2.858075">
        <ele>854.1</ele>
        <time>2021-07-04T07:47:09.000Z</time>
      </trkpt>
      <trkpt lat="42.188368" lon="-2.858045">
        <ele>854.0</ele>
        <time>2021-07-04T07:47:11.000Z</time>
      </trkpt>
      <trkpt lat="42.188473" lon="-2.858012">
        <ele>854.3</ele>
        <time>2021-07-04T07:47:13.000Z</time>
      </trkpt>
      <trkpt lat="42.188578" lon="-2.857980">
        <ele>854.2</ele>
        <time>2021-07-04T07:47:15.000Z</time>
      </trkpt>
      <trkpt lat="42.188685" lon="-2.857950">
        <ele>854.1</ele>
        <time>2021-07-04T07:47:17.000Z</time>
      </trkpt>
      <trkpt lat="42.188792" lon="-2.857917">
        <ele>853.9</ele>
        <time>2021-07-04T07:47:19.000Z</time>
      </trkpt>
      <trkpt lat="42.188898" lon="-2.857880">
        <ele>853.7</ele>
        <time>2021-07-04T07:47:21.000Z</time>
      </trkpt>
      <trkpt lat="42.189008" lon="-2.857852">
        <ele>853.7</ele>
        <time>2021-07-04T07:47:23.000Z</time>
      </trkpt>
      <trkpt lat="42.189120" lon="-2.857832">
        <ele>853.7</ele>
        <time>2021-07-04T07:47:25.000Z</time>
      </trkpt>
      <trkpt lat="42.189230" lon="-2.857817">
        <ele>853.7</ele>
        <time>2021-07-04T07:47:27.000Z</time>
      </trkpt>
      <trkpt lat="42.189342" lon="-2.857810">
        <ele>854.1</ele>
        <time>2021-07-04T07:47:29.000Z</time>
      </trkpt>
      <trkpt lat="42.189452" lon="-2.857810">
        <ele>853.6</ele>
        <time>2021-07-04T07:47:31.000Z</time>
      </trkpt>
      <trkpt lat="42.189565" lon="-2.857808">
        <ele>853.1</ele>
        <time>2021-07-04T07:47:33.000Z</time>
      </trkpt>
      <trkpt lat="42.189675" lon="-2.857807">
        <ele>853.2</ele>
        <time>2021-07-04T07:47:35.000Z</time>
      </trkpt>
      <trkpt lat="42.189783" lon="-2.857808">
        <ele>853.3</ele>
        <time>2021-07-04T07:47:37.000Z</time>
      </trkpt>
      <trkpt lat="42.189890" lon="-2.857817">
        <ele>853.0</ele>
        <time>2021-07-04T07:47:39.000Z</time>
      </trkpt>
      <trkpt lat="42.189995" lon="-2.857833">
        <ele>853.1</ele>
        <time>2021-07-04T07:47:41.000Z</time>
      </trkpt>
      <trkpt lat="42.190095" lon="-2.857860">
        <ele>852.9</ele>
        <time>2021-07-04T07:47:43.000Z</time>
      </trkpt>
      <trkpt lat="42.190195" lon="-2.857898">
        <ele>853.3</ele>
        <time>2021-07-04T07:47:45.000Z</time>
      </trkpt>
      <trkpt lat="42.190292" lon="-2.857950">
        <ele>853.3</ele>
        <time>2021-07-04T07:47:47.000Z</time>
      </trkpt>
      <trkpt lat="42.190383" lon="-2.858015">
        <ele>852.9</ele>
        <time>2021-07-04T07:47:49.000Z</time>
      </trkpt>
      <trkpt lat="42.190473" lon="-2.858088">
        <ele>852.9</ele>
        <time>2021-07-04T07:47:51.000Z</time>
      </trkpt>
      <trkpt lat="42.190558" lon="-2.858180">
        <ele>852.8</ele>
        <time>2021-07-04T07:47:53.000Z</time>
      </trkpt>
      <trkpt lat="42.190635" lon="-2.858285">
        <ele>853.0</ele>
        <time>2021-07-04T07:47:55.000Z</time>
      </trkpt>
      <trkpt lat="42.190703" lon="-2.858398">
        <ele>852.6</ele>
        <time>2021-07-04T07:47:57.000Z</time>
      </trkpt>
      <trkpt lat="42.190762" lon="-2.858518">
        <ele>852.9</ele>
        <time>2021-07-04T07:47:59.000Z</time>
      </trkpt>
      <trkpt lat="42.190813" lon="-2.858640">
        <ele>852.7</ele>
        <time>2021-07-04T07:48:01.000Z</time>
      </trkpt>
      <trkpt lat="42.190855" lon="-2.858775">
        <ele>852.4</ele>
        <time>2021-07-04T07:48:03.000Z</time>
      </trkpt>
      <trkpt lat="42.190887" lon="-2.858917">
        <ele>852.3</ele>
        <time>2021-07-04T07:48:05.000Z</time>
      </trkpt>
      <trkpt lat="42.190918" lon="-2.859060">
        <ele>852.1</ele>
        <time>2021-07-04T07:48:07.000Z</time>
      </trkpt>
      <trkpt lat="42.190955" lon="-2.859202">
        <ele>852.0</ele>
        <time>2021-07-04T07:48:09.000Z</time>
      </trkpt>
      <trkpt lat="42.190995" lon="-2.859340">
        <ele>851.9</ele>
        <time>2021-07-04T07:48:11.000Z</time>
      </trkpt>
      <trkpt lat="42.191047" lon="-2.859472">
        <ele>852.1</ele>
        <time>2021-07-04T07:48:13.000Z</time>
      </trkpt>
      <trkpt lat="42.191108" lon="-2.859593">
        <ele>852.0</ele>
        <time>2021-07-04T07:48:15.000Z</time>
      </trkpt>
      <trkpt lat="42.191183" lon="-2.859695">
        <ele>852.3</ele>
        <time>2021-07-04T07:48:17.000Z</time>
      </trkpt>
      <trkpt lat="42.191270" lon="-2.859777">
        <ele>851.8</ele>
        <time>2021-07-04T07:48:19.000Z</time>
      </trkpt>
      <trkpt lat="42.191367" lon="-2.859835">
        <ele>851.6</ele>
        <time>2021-07-04T07:48:21.000Z</time>
      </trkpt>
      <trkpt lat="42.191470" lon="-2.859867">
        <ele>851.7</ele>
        <time>2021-07-04T07:48:23.000Z</time>
      </trkpt>
      <trkpt lat="42.191573" lon="-2.859872">
        <ele>851.6</ele>
        <time>2021-07-04T07:48:25.000Z</time>
      </trkpt>
      <trkpt lat="42.191672" lon="-2.859858">
        <ele>851.7</ele>
        <time>2021-07-04T07:48:27.000Z</time>
      </trkpt>
      <trkpt lat="42.191768" lon="-2.859825">
        <ele>851.5</ele>
        <time>2021-07-04T07:48:29.000Z</time>
      </trkpt>
      <trkpt lat="42.191865" lon="-2.859763">
        <ele>851.4</ele>
        <time>2021-07-04T07:48:31.000Z</time>
      </trkpt>
      <trkpt lat="42.191952" lon="-2.859683">
        <ele>851.0</ele>
        <time>2021-07-04T07:48:33.000Z</time>
      </trkpt>
      <trkpt lat="42.192032" lon="-2.859592">
        <ele>851.3</ele>
        <time>2021-07-04T07:48:35.000Z</time>
      </trkpt>
      <trkpt lat="42.192107" lon="-2.859495">
        <ele>850.6</ele>
        <time>2021-07-04T07:48:37.000Z</time>
      </trkpt>
      <trkpt lat="42.192177" lon="-2.859387">
        <ele>850.8</ele>
        <time>2021-07-04T07:48:39.000Z</time>
      </trkpt>
      <trkpt lat="42.192237" lon="-2.859273">
        <ele>850.6</ele>
        <time>2021-07-04T07:48:41.000Z</time>
      </trkpt>
      <trkpt lat="42.192298" lon="-2.859160">
        <ele>850.8</ele>
        <time>2021-07-04T07:48:43.000Z</time>
      </trkpt>
      <trkpt lat="42.192357" lon="-2.859045">
        <ele>850.8</ele>
        <time>2021-07-04T07:48:45.000Z</time>
      </trkpt>
      <trkpt lat="42.192412" lon="-2.858932">
        <ele>850.6</ele>
        <time>2021-07-04T07:48:47.000Z</time>
      </trkpt>
      <trkpt lat="42.192467" lon="-2.858817">
        <ele>850.5</ele>
        <time>2021-07-04T07:48:49.000Z</time>
      </trkpt>
      <trkpt lat="42.192518" lon="-2.858703">
        <ele>850.9</ele>
        <time>2021-07-04T07:48:51.000Z</time>
      </trkpt>
      <trkpt lat="42.192570" lon="-2.858590">
        <ele>849.6</ele>
        <time>2021-07-04T07:48:53.000Z</time>
      </trkpt>
      <trkpt lat="42.192615" lon="-2.858470">
        <ele>849.1</ele>
        <time>2021-07-04T07:48:55.000Z</time>
      </trkpt>
      <trkpt lat="42.192660" lon="-2.858352">
        <ele>848.8</ele>
        <time>2021-07-04T07:48:57.000Z</time>
      </trkpt>
      <trkpt lat="42.192700" lon="-2.858230">
        <ele>848.7</ele>
        <time>2021-07-04T07:48:59.000Z</time>
      </trkpt>
      <trkpt lat="42.192733" lon="-2.858102">
        <ele>848.2</ele>
        <time>2021-07-04T07:49:01.000Z</time>
      </trkpt>
      <trkpt lat="42.192762" lon="-2.857972">
        <ele>848.1</ele>
        <time>2021-07-04T07:49:03.000Z</time>
      </trkpt>
      <trkpt lat="42.192787" lon="-2.857843">
        <ele>848.5</ele>
        <time>2021-07-04T07:49:05.000Z</time>
      </trkpt>
      <trkpt lat="42.192805" lon="-2.857715">
        <ele>848.3</ele>
        <time>2021-07-04T07:49:07.000Z</time>
      </trkpt>
      <trkpt lat="42.192815" lon="-2.857585">
        <ele>847.7</ele>
        <time>2021-07-04T07:49:09.000Z</time>
      </trkpt>
      <trkpt lat="42.192817" lon="-2.857450">
        <ele>847.6</ele>
        <time>2021-07-04T07:49:11.000Z</time>
      </trkpt>
      <trkpt lat="42.192815" lon="-2.857313">
        <ele>847.3</ele>
        <time>2021-07-04T07:49:13.000Z</time>
      </trkpt>
      <trkpt lat="42.192808" lon="-2.857177">
        <ele>847.5</ele>
        <time>2021-07-04T07:49:15.000Z</time>
      </trkpt>
      <trkpt lat="42.192793" lon="-2.857040">
        <ele>847.9</ele>
        <time>2021-07-04T07:49:17.000Z</time>
      </trkpt>
      <trkpt lat="42.192770" lon="-2.856907">
        <ele>848.1</ele>
        <time>2021-07-04T07:49:19.000Z</time>
      </trkpt>
      <trkpt lat="42.192745" lon="-2.856780">
        <ele>847.9</ele>
        <time>2021-07-04T07:49:21.000Z</time>
      </trkpt>
      <trkpt lat="42.192722" lon="-2.856655">
        <ele>848.2</ele>
        <time>2021-07-04T07:49:23.000Z</time>
      </trkpt>
      <trkpt lat="42.192705" lon="-2.856532">
        <ele>848.7</ele>
        <time>2021-07-04T07:49:25.000Z</time>
      </trkpt>
      <trkpt lat="42.192700" lon="-2.856353">
        <ele>849.1</ele>
        <time>2021-07-04T07:49:28.000Z</time>
      </trkpt>
      <trkpt lat="42.192722" lon="-2.856178">
        <ele>848.0</ele>
        <time>2021-07-04T07:49:31.000Z</time>
      </trkpt>
      <trkpt lat="42.192735" lon="-2.856057">
        <ele>847.7</ele>
        <time>2021-07-04T07:49:33.000Z</time>
      </trkpt>
      <trkpt lat="42.192740" lon="-2.855928">
        <ele>847.7</ele>
        <time>2021-07-04T07:49:35.000Z</time>
      </trkpt>
      <trkpt lat="42.192737" lon="-2.855802">
        <ele>847.2</ele>
        <time>2021-07-04T07:49:37.000Z</time>
      </trkpt>
      <trkpt lat="42.192723" lon="-2.855678">
        <ele>847.1</ele>
        <time>2021-07-04T07:49:39.000Z</time>
      </trkpt>
      <trkpt lat="42.192692" lon="-2.855505">
        <ele>847.3</ele>
        <time>2021-07-04T07:49:42.000Z</time>
      </trkpt>
      <trkpt lat="42.192662" lon="-2.855332">
        <ele>847.0</ele>
        <time>2021-07-04T07:49:45.000Z</time>
      </trkpt>
      <trkpt lat="42.192627" lon="-2.855167">
        <ele>847.1</ele>
        <time>2021-07-04T07:49:48.000Z</time>
      </trkpt>
      <trkpt lat="42.192590" lon="-2.855003">
        <ele>846.7</ele>
        <time>2021-07-04T07:49:51.000Z</time>
      </trkpt>
      <trkpt lat="42.192555" lon="-2.854845">
        <ele>846.9</ele>
        <time>2021-07-04T07:49:54.000Z</time>
      </trkpt>
      <trkpt lat="42.192502" lon="-2.854692">
        <ele>847.1</ele>
        <time>2021-07-04T07:49:57.000Z</time>
      </trkpt>
      <trkpt lat="42.192442" lon="-2.854548">
        <ele>847.1</ele>
        <time>2021-07-04T07:50:00.000Z</time>
      </trkpt>
      <trkpt lat="42.192385" lon="-2.854407">
        <ele>847.6</ele>
        <time>2021-07-04T07:50:03.000Z</time>
      </trkpt>
      <trkpt lat="42.192348" lon="-2.854255">
        <ele>848.6</ele>
        <time>2021-07-04T07:50:06.000Z</time>
      </trkpt>
      <trkpt lat="42.192323" lon="-2.854098">
        <ele>848.6</ele>
        <time>2021-07-04T07:50:09.000Z</time>
      </trkpt>
      <trkpt lat="42.192327" lon="-2.853935">
        <ele>849.8</ele>
        <time>2021-07-04T07:50:12.000Z</time>
      </trkpt>
      <trkpt lat="42.192340" lon="-2.853768">
        <ele>850.0</ele>
        <time>2021-07-04T07:50:15.000Z</time>
      </trkpt>
      <trkpt lat="42.192355" lon="-2.853595">
        <ele>849.3</ele>
        <time>2021-07-04T07:50:18.000Z</time>
      </trkpt>
      <trkpt lat="42.192383" lon="-2.853417">
        <ele>848.3</ele>
        <time>2021-07-04T07:50:21.000Z</time>
      </trkpt>
      <trkpt lat="42.192408" lon="-2.853292">
        <ele>847.9</ele>
        <time>2021-07-04T07:50:23.000Z</time>
      </trkpt>
      <trkpt lat="42.192442" lon="-2.853167">
        <ele>847.7</ele>
        <time>2021-07-04T07:50:25.000Z</time>
      </trkpt>
      <trkpt lat="42.192480" lon="-2.853042">
        <ele>848.3</ele>
        <time>2021-07-04T07:50:27.000Z</time>
      </trkpt>
      <trkpt lat="42.192525" lon="-2.852918">
        <ele>848.4</ele>
        <time>2021-07-04T07:50:29.000Z</time>
      </trkpt>
      <trkpt lat="42.192573" lon="-2.852800">
        <ele>848.3</ele>
        <time>2021-07-04T07:50:31.000Z</time>
      </trkpt>
      <trkpt lat="42.192627" lon="-2.852688">
        <ele>847.9</ele>
        <time>2021-07-04T07:50:33.000Z</time>
      </trkpt>
      <trkpt lat="42.192687" lon="-2.852580">
        <ele>847.8</ele>
        <time>2021-07-04T07:50:35.000Z</time>
      </trkpt>
      <trkpt lat="42.192753" lon="-2.852475">
        <ele>847.7</ele>
        <time>2021-07-04T07:50:37.000Z</time>
      </trkpt>
      <trkpt lat="42.192820" lon="-2.852367">
        <ele>847.3</ele>
        <time>2021-07-04T07:50:39.000Z</time>
      </trkpt>
      <trkpt lat="42.192893" lon="-2.852258">
        <ele>846.9</ele>
        <time>2021-07-04T07:50:41.000Z</time>
      </trkpt>
      <trkpt lat="42.192972" lon="-2.852148">
        <ele>846.9</ele>
        <time>2021-07-04T07:50:43.000Z</time>
      </trkpt>
      <trkpt lat="42.193048" lon="-2.852038">
        <ele>846.5</ele>
        <time>2021-07-04T07:50:45.000Z</time>
      </trkpt>
      <trkpt lat="42.193128" lon="-2.851928">
        <ele>847.0</ele>
        <time>2021-07-04T07:50:47.000Z</time>
      </trkpt>
      <trkpt lat="42.193217" lon="-2.851825">
        <ele>846.7</ele>
        <time>2021-07-04T07:50:49.000Z</time>
      </trkpt>
      <trkpt lat="42.193308" lon="-2.851735">
        <ele>846.7</ele>
        <time>2021-07-04T07:50:51.000Z</time>
      </trkpt>
      <trkpt lat="42.193407" lon="-2.851648">
        <ele>846.9</ele>
        <time>2021-07-04T07:50:53.000Z</time>
      </trkpt>
      <trkpt lat="42.193512" lon="-2.851567">
        <ele>847.3</ele>
        <time>2021-07-04T07:50:55.000Z</time>
      </trkpt>
      <trkpt lat="42.193618" lon="-2.851482">
        <ele>847.8</ele>
        <time>2021-07-04T07:50:57.000Z</time>
      </trkpt>
      <trkpt lat="42.193720" lon="-2.851382">
        <ele>846.5</ele>
        <time>2021-07-04T07:50:59.000Z</time>
      </trkpt>
      <trkpt lat="42.193818" lon="-2.851273">
        <ele>846.0</ele>
        <time>2021-07-04T07:51:01.000Z</time>
      </trkpt>
      <trkpt lat="42.193908" lon="-2.851150">
        <ele>846.1</ele>
        <time>2021-07-04T07:51:03.000Z</time>
      </trkpt>
      <trkpt lat="42.193985" lon="-2.851013">
        <ele>846.1</ele>
        <time>2021-07-04T07:51:05.000Z</time>
      </trkpt>
      <trkpt lat="42.194052" lon="-2.850873">
        <ele>845.1</ele>
        <time>2021-07-04T07:51:07.000Z</time>
      </trkpt>
      <trkpt lat="42.194112" lon="-2.850730">
        <ele>843.7</ele>
        <time>2021-07-04T07:51:09.000Z</time>
      </trkpt>
      <trkpt lat="42.194175" lon="-2.850588">
        <ele>843.1</ele>
        <time>2021-07-04T07:51:11.000Z</time>
      </trkpt>
      <trkpt lat="42.194242" lon="-2.850445">
        <ele>843.3</ele>
        <time>2021-07-04T07:51:13.000Z</time>
      </trkpt>
      <trkpt lat="42.194312" lon="-2.850298">
        <ele>842.6</ele>
        <time>2021-07-04T07:51:15.000Z</time>
      </trkpt>
      <trkpt lat="42.194383" lon="-2.850150">
        <ele>842.7</ele>
        <time>2021-07-04T07:51:17.000Z</time>
      </trkpt>
      <trkpt lat="42.194458" lon="-2.850003">
        <ele>842.9</ele>
        <time>2021-07-04T07:51:19.000Z</time>
      </trkpt>
      <trkpt lat="42.194532" lon="-2.849858">
        <ele>842.9</ele>
        <time>2021-07-04T07:51:21.000Z</time>
      </trkpt>
      <trkpt lat="42.194598" lon="-2.849705">
        <ele>842.2</ele>
        <time>2021-07-04T07:51:23.000Z</time>
      </trkpt>
      <trkpt lat="42.194660" lon="-2.849557">
        <ele>842.1</ele>
        <time>2021-07-04T07:51:25.000Z</time>
      </trkpt>
      <trkpt lat="42.194725" lon="-2.849413">
        <ele>841.9</ele>
        <time>2021-07-04T07:51:27.000Z</time>
      </trkpt>
      <trkpt lat="42.194793" lon="-2.849270">
        <ele>841.2</ele>
        <time>2021-07-04T07:51:29.000Z</time>
      </trkpt>
      <trkpt lat="42.194863" lon="-2.849120">
        <ele>840.9</ele>
        <time>2021-07-04T07:51:31.000Z</time>
      </trkpt>
      <trkpt lat="42.194930" lon="-2.848955">
        <ele>839.8</ele>
        <time>2021-07-04T07:51:33.000Z</time>
      </trkpt>
      <trkpt lat="42.194988" lon="-2.848775">
        <ele>839.2</ele>
        <time>2021-07-04T07:51:35.000Z</time>
      </trkpt>
      <trkpt lat="42.195037" lon="-2.848580">
        <ele>838.4</ele>
        <time>2021-07-04T07:51:37.000Z</time>
      </trkpt>
      <trkpt lat="42.195070" lon="-2.848373">
        <ele>837.2</ele>
        <time>2021-07-04T07:51:39.000Z</time>
      </trkpt>
      <trkpt lat="42.195088" lon="-2.848152">
        <ele>836.5</ele>
        <time>2021-07-04T07:51:41.000Z</time>
      </trkpt>
      <trkpt lat="42.195077" lon="-2.847922">
        <ele>836.3</ele>
        <time>2021-07-04T07:51:43.000Z</time>
      </trkpt>
      <trkpt lat="42.195022" lon="-2.847702">
        <ele>836.1</ele>
        <time>2021-07-04T07:51:45.000Z</time>
      </trkpt>
      <trkpt lat="42.194935" lon="-2.847517">
        <ele>835.6</ele>
        <time>2021-07-04T07:51:47.000Z</time>
      </trkpt>
      <trkpt lat="42.194838" lon="-2.847357">
        <ele>835.1</ele>
        <time>2021-07-04T07:51:49.000Z</time>
      </trkpt>
      <trkpt lat="42.194750" lon="-2.847218">
        <ele>835.6</ele>
        <time>2021-07-04T07:51:51.000Z</time>
      </trkpt>
      <trkpt lat="42.194672" lon="-2.847100">
        <ele>836.2</ele>
        <time>2021-07-04T07:51:53.000Z</time>
      </trkpt>
      <trkpt lat="42.194595" lon="-2.846997">
        <ele>836.8</ele>
        <time>2021-07-04T07:51:55.000Z</time>
      </trkpt>
      <trkpt lat="42.194518" lon="-2.846910">
        <ele>838.0</ele>
        <time>2021-07-04T07:51:57.000Z</time>
      </trkpt>
      <trkpt lat="42.194435" lon="-2.846852">
        <ele>837.4</ele>
        <time>2021-07-04T07:51:59.000Z</time>
      </trkpt>
      <trkpt lat="42.194347" lon="-2.846818">
        <ele>837.6</ele>
        <time>2021-07-04T07:52:01.000Z</time>
      </trkpt>
      <trkpt lat="42.194217" lon="-2.846790">
        <ele>838.3</ele>
        <time>2021-07-04T07:52:04.000Z</time>
      </trkpt>
      <trkpt lat="42.194095" lon="-2.846742">
        <ele>839.2</ele>
        <time>2021-07-04T07:52:07.000Z</time>
      </trkpt>
      <trkpt lat="42.193987" lon="-2.846673">
        <ele>840.6</ele>
        <time>2021-07-04T07:52:10.000Z</time>
      </trkpt>
      <trkpt lat="42.193892" lon="-2.846580">
        <ele>841.3</ele>
        <time>2021-07-04T07:52:13.000Z</time>
      </trkpt>
      <trkpt lat="42.193810" lon="-2.846463">
        <ele>841.9</ele>
        <time>2021-07-04T07:52:16.000Z</time>
      </trkpt>
      <trkpt lat="42.193740" lon="-2.846333">
        <ele>841.8</ele>
        <time>2021-07-04T07:52:19.000Z</time>
      </trkpt>
      <trkpt lat="42.193687" lon="-2.846187">
        <ele>842.2</ele>
        <time>2021-07-04T07:52:22.000Z</time>
      </trkpt>
      <trkpt lat="42.193647" lon="-2.846033">
        <ele>842.4</ele>
        <time>2021-07-04T07:52:25.000Z</time>
      </trkpt>
      <trkpt lat="42.193630" lon="-2.845868">
        <ele>843.1</ele>
        <time>2021-07-04T07:52:28.000Z</time>
      </trkpt>
      <trkpt lat="42.193630" lon="-2.845700">
        <ele>843.3</ele>
        <time>2021-07-04T07:52:31.000Z</time>
      </trkpt>
      <trkpt lat="42.193650" lon="-2.845537">
        <ele>844.0</ele>
        <time>2021-07-04T07:52:34.000Z</time>
      </trkpt>
      <trkpt lat="42.193690" lon="-2.845377">
        <ele>844.0</ele>
        <time>2021-07-04T07:52:37.000Z</time>
      </trkpt>
      <trkpt lat="42.193755" lon="-2.845233">
        <ele>844.2</ele>
        <time>2021-07-04T07:52:40.000Z</time>
      </trkpt>
      <trkpt lat="42.193842" lon="-2.845108">
        <ele>844.7</ele>
        <time>2021-07-04T07:52:43.000Z</time>
      </trkpt>
      <trkpt lat="42.193935" lon="-2.844988">
        <ele>845.2</ele>
        <time>2021-07-04T07:52:46.000Z</time>
      </trkpt>
      <trkpt lat="42.194033" lon="-2.844870">
        <ele>845.8</ele>
        <time>2021-07-04T07:52:49.000Z</time>
      </trkpt>
      <trkpt lat="42.194133" lon="-2.844753">
        <ele>846.2</ele>
        <time>2021-07-04T07:52:52.000Z</time>
      </trkpt>
      <trkpt lat="42.194233" lon="-2.844642">
        <ele>846.5</ele>
        <time>2021-07-04T07:52:55.000Z</time>
      </trkpt>
      <trkpt lat="42.194330" lon="-2.844532">
        <ele>847.1</ele>
        <time>2021-07-04T07:52:58.000Z</time>
      </trkpt>
      <trkpt lat="42.194422" lon="-2.844422">
        <ele>847.3</ele>
        <time>2021-07-04T07:53:01.000Z</time>
      </trkpt>
      <trkpt lat="42.194512" lon="-2.844317">
        <ele>847.8</ele>
        <time>2021-07-04T07:53:04.000Z</time>
      </trkpt>
      <trkpt lat="42.194592" lon="-2.844202">
        <ele>848.5</ele>
        <time>2021-07-04T07:53:07.000Z</time>
      </trkpt>
      <trkpt lat="42.194670" lon="-2.844090">
        <ele>848.3</ele>
        <time>2021-07-04T07:53:10.000Z</time>
      </trkpt>
      <trkpt lat="42.194740" lon="-2.843970">
        <ele>848.6</ele>
        <time>2021-07-04T07:53:13.000Z</time>
      </trkpt>
      <trkpt lat="42.194803" lon="-2.843848">
        <ele>848.9</ele>
        <time>2021-07-04T07:53:16.000Z</time>
      </trkpt>
      <trkpt lat="42.194863" lon="-2.843727">
        <ele>848.8</ele>
        <time>2021-07-04T07:53:19.000Z</time>
      </trkpt>
      <trkpt lat="42.194918" lon="-2.843608">
        <ele>849.7</ele>
        <time>2021-07-04T07:53:22.000Z</time>
      </trkpt>
      <trkpt lat="42.194968" lon="-2.843492">
        <ele>850.3</ele>
        <time>2021-07-04T07:53:25.000Z</time>
      </trkpt>
      <trkpt lat="42.195017" lon="-2.843373">
        <ele>850.2</ele>
        <time>2021-07-04T07:53:28.000Z</time>
      </trkpt>
      <trkpt lat="42.195072" lon="-2.843265">
        <ele>850.2</ele>
        <time>2021-07-04T07:53:31.000Z</time>
      </trkpt>
      <trkpt lat="42.195125" lon="-2.843157">
        <ele>850.8</ele>
        <time>2021-07-04T07:53:34.000Z</time>
      </trkpt>
      <trkpt lat="42.195183" lon="-2.843052">
        <ele>851.3</ele>
        <time>2021-07-04T07:53:37.000Z</time>
      </trkpt>
      <trkpt lat="42.195240" lon="-2.842942">
        <ele>851.8</ele>
        <time>2021-07-04T07:53:40.000Z</time>
      </trkpt>
      <trkpt lat="42.195297" lon="-2.842835">
        <ele>852.1</ele>
        <time>2021-07-04T07:53:43.000Z</time>
      </trkpt>
      <trkpt lat="42.195342" lon="-2.842722">
        <ele>852.4</ele>
        <time>2021-07-04T07:53:46.000Z</time>
      </trkpt>
      <trkpt lat="42.195378" lon="-2.842610">
        <ele>853.0</ele>
        <time>2021-07-04T07:53:49.000Z</time>
      </trkpt>
      <trkpt lat="42.195420" lon="-2.842465">
        <ele>853.4</ele>
        <time>2021-07-04T07:53:53.000Z</time>
      </trkpt>
      <trkpt lat="42.195437" lon="-2.842308">
        <ele>853.6</ele>
        <time>2021-07-04T07:53:57.000Z</time>
      </trkpt>
      <trkpt lat="42.195442" lon="-2.842153">
        <ele>853.9</ele>
        <time>2021-07-04T07:54:01.000Z</time>
      </trkpt>
      <trkpt lat="42.195435" lon="-2.842000">
        <ele>854.8</ele>
        <time>2021-07-04T07:54:05.000Z</time>
      </trkpt>
      <trkpt lat="42.195418" lon="-2.841843">
        <ele>855.7</ele>
        <time>2021-07-04T07:54:09.000Z</time>
      </trkpt>
      <trkpt lat="42.195398" lon="-2.841720">
        <ele>856.1</ele>
        <time>2021-07-04T07:54:12.000Z</time>
      </trkpt>
      <trkpt lat="42.195360" lon="-2.841598">
        <ele>856.2</ele>
        <time>2021-07-04T07:54:15.000Z</time>
      </trkpt>
      <trkpt lat="42.195307" lon="-2.841478">
        <ele>855.9</ele>
        <time>2021-07-04T07:54:18.000Z</time>
      </trkpt>
      <trkpt lat="42.195267" lon="-2.841347">
        <ele>856.6</ele>
        <time>2021-07-04T07:54:21.000Z</time>
      </trkpt>
      <trkpt lat="42.195283" lon="-2.841188">
        <ele>856.5</ele>
        <time>2021-07-04T07:54:24.000Z</time>
      </trkpt>
      <trkpt lat="42.195345" lon="-2.841030">
        <ele>856.0</ele>
        <time>2021-07-04T07:54:27.000Z</time>
      </trkpt>
      <trkpt lat="42.195393" lon="-2.840912">
        <ele>855.7</ele>
        <time>2021-07-04T07:54:29.000Z</time>
      </trkpt>
      <trkpt lat="42.195453" lon="-2.840783">
        <ele>855.4</ele>
        <time>2021-07-04T07:54:31.000Z</time>
      </trkpt>
      <trkpt lat="42.195533" lon="-2.840663">
        <ele>855.2</ele>
        <time>2021-07-04T07:54:33.000Z</time>
      </trkpt>
      <trkpt lat="42.195633" lon="-2.840568">
        <ele>854.6</ele>
        <time>2021-07-04T07:54:35.000Z</time>
      </trkpt>
      <trkpt lat="42.195747" lon="-2.840480">
        <ele>854.0</ele>
        <time>2021-07-04T07:54:37.000Z</time>
      </trkpt>
      <trkpt lat="42.195870" lon="-2.840392">
        <ele>853.5</ele>
        <time>2021-07-04T07:54:39.000Z</time>
      </trkpt>
      <trkpt lat="42.195992" lon="-2.840312">
        <ele>853.1</ele>
        <time>2021-07-04T07:54:41.000Z</time>
      </trkpt>
      <trkpt lat="42.196125" lon="-2.840257">
        <ele>852.2</ele>
        <time>2021-07-04T07:54:43.000Z</time>
      </trkpt>
      <trkpt lat="42.196272" lon="-2.840253">
        <ele>851.7</ele>
        <time>2021-07-04T07:54:45.000Z</time>
      </trkpt>
      <trkpt lat="42.196410" lon="-2.840310">
        <ele>851.6</ele>
        <time>2021-07-04T07:54:47.000Z</time>
      </trkpt>
      <trkpt lat="42.196545" lon="-2.840413">
        <ele>851.0</ele>
        <time>2021-07-04T07:54:49.000Z</time>
      </trkpt>
      <trkpt lat="42.196687" lon="-2.840517">
        <ele>850.3</ele>
        <time>2021-07-04T07:54:51.000Z</time>
      </trkpt>
      <trkpt lat="42.196840" lon="-2.840607">
        <ele>849.9</ele>
        <time>2021-07-04T07:54:53.000Z</time>
      </trkpt>
      <trkpt lat="42.196997" lon="-2.840668">
        <ele>848.9</ele>
        <time>2021-07-04T07:54:55.000Z</time>
      </trkpt>
      <trkpt lat="42.197153" lon="-2.840712">
        <ele>848.7</ele>
        <time>2021-07-04T07:54:57.000Z</time>
      </trkpt>
      <trkpt lat="42.197308" lon="-2.840757">
        <ele>847.8</ele>
        <time>2021-07-04T07:54:59.000Z</time>
      </trkpt>
      <trkpt lat="42.197460" lon="-2.840800">
        <ele>847.7</ele>
        <time>2021-07-04T07:55:01.000Z</time>
      </trkpt>
      <trkpt lat="42.197610" lon="-2.840857">
        <ele>847.4</ele>
        <time>2021-07-04T07:55:03.000Z</time>
      </trkpt>
      <trkpt lat="42.197762" lon="-2.840925">
        <ele>846.8</ele>
        <time>2021-07-04T07:55:05.000Z</time>
      </trkpt>
      <trkpt lat="42.197917" lon="-2.840993">
        <ele>846.4</ele>
        <time>2021-07-04T07:55:07.000Z</time>
      </trkpt>
      <trkpt lat="42.198080" lon="-2.841028">
        <ele>845.8</ele>
        <time>2021-07-04T07:55:09.000Z</time>
      </trkpt>
      <trkpt lat="42.198247" lon="-2.841017">
        <ele>845.4</ele>
        <time>2021-07-04T07:55:11.000Z</time>
      </trkpt>
      <trkpt lat="42.198410" lon="-2.840977">
        <ele>844.8</ele>
        <time>2021-07-04T07:55:13.000Z</time>
      </trkpt>
      <trkpt lat="42.198570" lon="-2.840913">
        <ele>844.5</ele>
        <time>2021-07-04T07:55:15.000Z</time>
      </trkpt>
      <trkpt lat="42.198728" lon="-2.840842">
        <ele>843.6</ele>
        <time>2021-07-04T07:55:17.000Z</time>
      </trkpt>
      <trkpt lat="42.198880" lon="-2.840770">
        <ele>842.5</ele>
        <time>2021-07-04T07:55:19.000Z</time>
      </trkpt>
      <trkpt lat="42.199025" lon="-2.840680">
        <ele>841.6</ele>
        <time>2021-07-04T07:55:21.000Z</time>
      </trkpt>
      <trkpt lat="42.199165" lon="-2.840560">
        <ele>840.6</ele>
        <time>2021-07-04T07:55:23.000Z</time>
      </trkpt>
      <trkpt lat="42.199300" lon="-2.840423">
        <ele>840.3</ele>
        <time>2021-07-04T07:55:25.000Z</time>
      </trkpt>
      <trkpt lat="42.199430" lon="-2.840282">
        <ele>839.7</ele>
        <time>2021-07-04T07:55:27.000Z</time>
      </trkpt>
      <trkpt lat="42.199560" lon="-2.840148">
        <ele>838.7</ele>
        <time>2021-07-04T07:55:29.000Z</time>
      </trkpt>
      <trkpt lat="42.199692" lon="-2.840023">
        <ele>838.2</ele>
        <time>2021-07-04T07:55:31.000Z</time>
      </trkpt>
      <trkpt lat="42.199820" lon="-2.839898">
        <ele>837.6</ele>
        <time>2021-07-04T07:55:33.000Z</time>
      </trkpt>
      <trkpt lat="42.199937" lon="-2.839760">
        <ele>837.3</ele>
        <time>2021-07-04T07:55:35.000Z</time>
      </trkpt>
      <trkpt lat="42.200035" lon="-2.839603">
        <ele>836.4</ele>
        <time>2021-07-04T07:55:37.000Z</time>
      </trkpt>
      <trkpt lat="42.200117" lon="-2.839440">
        <ele>835.5</ele>
        <time>2021-07-04T07:55:39.000Z</time>
      </trkpt>
      <trkpt lat="42.200187" lon="-2.839282">
        <ele>835.9</ele>
        <time>2021-07-04T07:55:41.000Z</time>
      </trkpt>
      <trkpt lat="42.200252" lon="-2.839130">
        <ele>835.8</ele>
        <time>2021-07-04T07:55:43.000Z</time>
      </trkpt>
      <trkpt lat="42.200322" lon="-2.838982">
        <ele>835.6</ele>
        <time>2021-07-04T07:55:45.000Z</time>
      </trkpt>
      <trkpt lat="42.200387" lon="-2.838828">
        <ele>835.6</ele>
        <time>2021-07-04T07:55:47.000Z</time>
      </trkpt>
      <trkpt lat="42.200445" lon="-2.838668">
        <ele>835.4</ele>
        <time>2021-07-04T07:55:49.000Z</time>
      </trkpt>
      <trkpt lat="42.200488" lon="-2.838503">
        <ele>835.3</ele>
        <time>2021-07-04T07:55:51.000Z</time>
      </trkpt>
      <trkpt lat="42.200527" lon="-2.838343">
        <ele>834.8</ele>
        <time>2021-07-04T07:55:53.000Z</time>
      </trkpt>
      <trkpt lat="42.200570" lon="-2.838193">
        <ele>834.6</ele>
        <time>2021-07-04T07:55:55.000Z</time>
      </trkpt>
      <trkpt lat="42.200623" lon="-2.838050">
        <ele>834.8</ele>
        <time>2021-07-04T07:55:57.000Z</time>
      </trkpt>
      <trkpt lat="42.200680" lon="-2.837908">
        <ele>834.5</ele>
        <time>2021-07-04T07:55:59.000Z</time>
      </trkpt>
      <trkpt lat="42.200735" lon="-2.837757">
        <ele>833.6</ele>
        <time>2021-07-04T07:56:01.000Z</time>
      </trkpt>
      <trkpt lat="42.200787" lon="-2.837593">
        <ele>833.4</ele>
        <time>2021-07-04T07:56:03.000Z</time>
      </trkpt>
      <trkpt lat="42.200830" lon="-2.837423">
        <ele>833.4</ele>
        <time>2021-07-04T07:56:05.000Z</time>
      </trkpt>
      <trkpt lat="42.200867" lon="-2.837247">
        <ele>833.0</ele>
        <time>2021-07-04T07:56:07.000Z</time>
      </trkpt>
      <trkpt lat="42.200900" lon="-2.837065">
        <ele>831.9</ele>
        <time>2021-07-04T07:56:09.000Z</time>
      </trkpt>
      <trkpt lat="42.200933" lon="-2.836873">
        <ele>831.3</ele>
        <time>2021-07-04T07:56:11.000Z</time>
      </trkpt>
      <trkpt lat="42.200970" lon="-2.836682">
        <ele>830.4</ele>
        <time>2021-07-04T07:56:13.000Z</time>
      </trkpt>
      <trkpt lat="42.201007" lon="-2.836480">
        <ele>830.0</ele>
        <time>2021-07-04T07:56:15.000Z</time>
      </trkpt>
      <trkpt lat="42.201042" lon="-2.836268">
        <ele>829.2</ele>
        <time>2021-07-04T07:56:17.000Z</time>
      </trkpt>
      <trkpt lat="42.201070" lon="-2.836052">
        <ele>829.1</ele>
        <time>2021-07-04T07:56:19.000Z</time>
      </trkpt>
      <trkpt lat="42.201082" lon="-2.835832">
        <ele>828.8</ele>
        <time>2021-07-04T07:56:21.000Z</time>
      </trkpt>
      <trkpt lat="42.201083" lon="-2.835617">
        <ele>828.4</ele>
        <time>2021-07-04T07:56:23.000Z</time>
      </trkpt>
      <trkpt lat="42.201085" lon="-2.835410">
        <ele>828.6</ele>
        <time>2021-07-04T07:56:25.000Z</time>
      </trkpt>
      <trkpt lat="42.201088" lon="-2.835212">
        <ele>828.4</ele>
        <time>2021-07-04T07:56:27.000Z</time>
      </trkpt>
      <trkpt lat="42.201095" lon="-2.835020">
        <ele>827.9</ele>
        <time>2021-07-04T07:56:29.000Z</time>
      </trkpt>
      <trkpt lat="42.201105" lon="-2.834830">
        <ele>827.8</ele>
        <time>2021-07-04T07:56:31.000Z</time>
      </trkpt>
      <trkpt lat="42.201113" lon="-2.834642">
        <ele>827.2</ele>
        <time>2021-07-04T07:56:33.000Z</time>
      </trkpt>
      <trkpt lat="42.201117" lon="-2.834453">
        <ele>827.3</ele>
        <time>2021-07-04T07:56:35.000Z</time>
      </trkpt>
      <trkpt lat="42.201120" lon="-2.834265">
        <ele>827.2</ele>
        <time>2021-07-04T07:56:37.000Z</time>
      </trkpt>
      <trkpt lat="42.201120" lon="-2.834080">
        <ele>826.7</ele>
        <time>2021-07-04T07:56:39.000Z</time>
      </trkpt>
      <trkpt lat="42.201112" lon="-2.833898">
        <ele>826.7</ele>
        <time>2021-07-04T07:56:41.000Z</time>
      </trkpt>
      <trkpt lat="42.201100" lon="-2.833717">
        <ele>826.3</ele>
        <time>2021-07-04T07:56:43.000Z</time>
      </trkpt>
      <trkpt lat="42.201077" lon="-2.833537">
        <ele>826.2</ele>
        <time>2021-07-04T07:56:45.000Z</time>
      </trkpt>
      <trkpt lat="42.201035" lon="-2.833358">
        <ele>826.4</ele>
        <time>2021-07-04T07:56:47.000Z</time>
      </trkpt>
      <trkpt lat="42.200970" lon="-2.833193">
        <ele>825.7</ele>
        <time>2021-07-04T07:56:49.000Z</time>
      </trkpt>
      <trkpt lat="42.200887" lon="-2.833045">
        <ele>825.5</ele>
        <time>2021-07-04T07:56:51.000Z</time>
      </trkpt>
      <trkpt lat="42.200795" lon="-2.832918">
        <ele>825.8</ele>
        <time>2021-07-04T07:56:53.000Z</time>
      </trkpt>
      <trkpt lat="42.200698" lon="-2.832798">
        <ele>825.3</ele>
        <time>2021-07-04T07:56:55.000Z</time>
      </trkpt>
      <trkpt lat="42.200622" lon="-2.832653">
        <ele>825.6</ele>
        <time>2021-07-04T07:56:57.000Z</time>
      </trkpt>
      <trkpt lat="42.200593" lon="-2.832478">
        <ele>824.9</ele>
        <time>2021-07-04T07:56:59.000Z</time>
      </trkpt>
      <trkpt lat="42.200643" lon="-2.832295">
        <ele>824.8</ele>
        <time>2021-07-04T07:57:01.000Z</time>
      </trkpt>
      <trkpt lat="42.200763" lon="-2.832167">
        <ele>824.0</ele>
        <time>2021-07-04T07:57:03.000Z</time>
      </trkpt>
      <trkpt lat="42.200907" lon="-2.832070">
        <ele>824.2</ele>
        <time>2021-07-04T07:57:05.000Z</time>
      </trkpt>
      <trkpt lat="42.201067" lon="-2.831995">
        <ele>823.2</ele>
        <time>2021-07-04T07:57:07.000Z</time>
      </trkpt>
      <trkpt lat="42.201230" lon="-2.831932">
        <ele>823.2</ele>
        <time>2021-07-04T07:57:09.000Z</time>
      </trkpt>
      <trkpt lat="42.201395" lon="-2.831875">
        <ele>822.4</ele>
        <time>2021-07-04T07:57:11.000Z</time>
      </trkpt>
      <trkpt lat="42.201558" lon="-2.831818">
        <ele>821.0</ele>
        <time>2021-07-04T07:57:13.000Z</time>
      </trkpt>
      <trkpt lat="42.201722" lon="-2.831762">
        <ele>820.7</ele>
        <time>2021-07-04T07:57:15.000Z</time>
      </trkpt>
      <trkpt lat="42.201882" lon="-2.831702">
        <ele>819.6</ele>
        <time>2021-07-04T07:57:17.000Z</time>
      </trkpt>
      <trkpt lat="42.202042" lon="-2.831632">
        <ele>817.9</ele>
        <time>2021-07-04T07:57:19.000Z</time>
      </trkpt>
      <trkpt lat="42.202207" lon="-2.831557">
        <ele>817.0</ele>
        <time>2021-07-04T07:57:21.000Z</time>
      </trkpt>
      <trkpt lat="42.202370" lon="-2.831483">
        <ele>816.2</ele>
        <time>2021-07-04T07:57:23.000Z</time>
      </trkpt>
      <trkpt lat="42.202537" lon="-2.831408">
        <ele>815.3</ele>
        <time>2021-07-04T07:57:25.000Z</time>
      </trkpt>
      <trkpt lat="42.202707" lon="-2.831333">
        <ele>814.9</ele>
        <time>2021-07-04T07:57:27.000Z</time>
      </trkpt>
      <trkpt lat="42.202793" lon="-2.831298">
        <ele>814.7</ele>
        <time>2021-07-04T07:57:28.000Z</time>
      </trkpt>
      <trkpt lat="42.202880" lon="-2.831262">
        <ele>814.8</ele>
        <time>2021-07-04T07:57:29.000Z</time>
      </trkpt>
      <trkpt lat="42.202967" lon="-2.831225">
        <ele>814.8</ele>
        <time>2021-07-04T07:57:30.000Z</time>
      </trkpt>
      <trkpt lat="42.203055" lon="-2.831187">
        <ele>814.2</ele>
        <time>2021-07-04T07:57:31.000Z</time>
      </trkpt>
      <trkpt lat="42.203227" lon="-2.831108">
        <ele>813.6</ele>
        <time>2021-07-04T07:57:33.000Z</time>
      </trkpt>
      <trkpt lat="42.203312" lon="-2.831065">
        <ele>813.6</ele>
        <time>2021-07-04T07:57:34.000Z</time>
      </trkpt>
      <trkpt lat="42.203395" lon="-2.831018">
        <ele>813.2</ele>
        <time>2021-07-04T07:57:35.000Z</time>
      </trkpt>
      <trkpt lat="42.203555" lon="-2.830920">
        <ele>812.7</ele>
        <time>2021-07-04T07:57:37.000Z</time>
      </trkpt>
      <trkpt lat="42.203703" lon="-2.830798">
        <ele>811.9</ele>
        <time>2021-07-04T07:57:39.000Z</time>
      </trkpt>
      <trkpt lat="42.203837" lon="-2.830652">
        <ele>811.0</ele>
        <time>2021-07-04T07:57:41.000Z</time>
      </trkpt>
      <trkpt lat="42.203950" lon="-2.830482">
        <ele>810.1</ele>
        <time>2021-07-04T07:57:43.000Z</time>
      </trkpt>
      <trkpt lat="42.204048" lon="-2.830290">
        <ele>809.0</ele>
        <time>2021-07-04T07:57:45.000Z</time>
      </trkpt>
      <trkpt lat="42.204128" lon="-2.830083">
        <ele>808.4</ele>
        <time>2021-07-04T07:57:47.000Z</time>
      </trkpt>
      <trkpt lat="42.204185" lon="-2.829865">
        <ele>807.4</ele>
        <time>2021-07-04T07:57:49.000Z</time>
      </trkpt>
      <trkpt lat="42.204228" lon="-2.829645">
        <ele>807.1</ele>
        <time>2021-07-04T07:57:51.000Z</time>
      </trkpt>
      <trkpt lat="42.204265" lon="-2.829442">
        <ele>806.4</ele>
        <time>2021-07-04T07:57:53.000Z</time>
      </trkpt>
      <trkpt lat="42.204300" lon="-2.829243">
        <ele>805.7</ele>
        <time>2021-07-04T07:57:55.000Z</time>
      </trkpt>
      <trkpt lat="42.204330" lon="-2.829050">
        <ele>803.3</ele>
        <time>2021-07-04T07:57:57.000Z</time>
      </trkpt>
      <trkpt lat="42.204352" lon="-2.828860">
        <ele>804.6</ele>
        <time>2021-07-04T07:57:59.000Z</time>
      </trkpt>
      <trkpt lat="42.204368" lon="-2.828675">
        <ele>807.4</ele>
        <time>2021-07-04T07:58:01.000Z</time>
      </trkpt>
      <trkpt lat="42.204380" lon="-2.828497">
        <ele>804.9</ele>
        <time>2021-07-04T07:58:03.000Z</time>
      </trkpt>
      <trkpt lat="42.204393" lon="-2.828322">
        <ele>804.7</ele>
        <time>2021-07-04T07:58:05.000Z</time>
      </trkpt>
      <trkpt lat="42.204407" lon="-2.828152">
        <ele>804.2</ele>
        <time>2021-07-04T07:58:07.000Z</time>
      </trkpt>
      <trkpt lat="42.204423" lon="-2.827992">
        <ele>804.4</ele>
        <time>2021-07-04T07:58:09.000Z</time>
      </trkpt>
      <trkpt lat="42.204455" lon="-2.827847">
        <ele>804.3</ele>
        <time>2021-07-04T07:58:11.000Z</time>
      </trkpt>
      <trkpt lat="42.204503" lon="-2.827712">
        <ele>804.1</ele>
        <time>2021-07-04T07:58:13.000Z</time>
      </trkpt>
      <trkpt lat="42.204567" lon="-2.827592">
        <ele>804.4</ele>
        <time>2021-07-04T07:58:15.000Z</time>
      </trkpt>
      <trkpt lat="42.204635" lon="-2.827490">
        <ele>804.3</ele>
        <time>2021-07-04T07:58:17.000Z</time>
      </trkpt>
      <trkpt lat="42.204688" lon="-2.827387">
        <ele>804.5</ele>
        <time>2021-07-04T07:58:19.000Z</time>
      </trkpt>
      <trkpt lat="42.204692" lon="-2.827215">
        <ele>804.7</ele>
        <time>2021-07-04T07:58:22.000Z</time>
      </trkpt>
      <trkpt lat="42.204667" lon="-2.827058">
        <ele>804.8</ele>
        <time>2021-07-04T07:58:25.000Z</time>
      </trkpt>
      <trkpt lat="42.204645" lon="-2.826910">
        <ele>805.2</ele>
        <time>2021-07-04T07:58:29.000Z</time>
      </trkpt>
      <trkpt lat="42.204633" lon="-2.826757">
        <ele>805.5</ele>
        <time>2021-07-04T07:58:33.000Z</time>
      </trkpt>
      <trkpt lat="42.204635" lon="-2.826728">
        <ele>805.0</ele>
        <time>2021-07-04T07:58:37.000Z</time>
      </trkpt>
      <trkpt lat="42.204633" lon="-2.826723">
        <ele>805.0</ele>
        <time>2021-07-04T07:58:39.000Z</time>
      </trkpt>
      <trkpt lat="42.204633" lon="-2.826723">
        <ele>805.2</ele>
        <time>2021-07-04T07:58:40.000Z</time>
      </trkpt>
      <trkpt lat="42.204635" lon="-2.826723">
        <ele>805.2</ele>
        <time>2021-07-04T07:58:48.000Z</time>
      </trkpt>
      <trkpt lat="42.204637" lon="-2.826723">
        <ele>805.2</ele>
        <time>2021-07-04T07:58:51.000Z</time>
      </trkpt>
      <trkpt lat="42.204638" lon="-2.826722">
        <ele>805.3</ele>
        <time>2021-07-04T07:58:52.000Z</time>
      </trkpt>
      <trkpt lat="42.204540" lon="-2.826725">
        <ele>805.3</ele>
        <time>2021-07-04T07:58:58.000Z</time>
      </trkpt>
      <trkpt lat="42.204423" lon="-2.826762">
        <ele>805.6</ele>
        <time>2021-07-04T07:59:01.000Z</time>
      </trkpt>
      <trkpt lat="42.204342" lon="-2.826828">
        <ele>805.8</ele>
        <time>2021-07-04T07:59:03.000Z</time>
      </trkpt>
      <trkpt lat="42.204265" lon="-2.826920">
        <ele>804.9</ele>
        <time>2021-07-04T07:59:05.000Z</time>
      </trkpt>
      <trkpt lat="42.204190" lon="-2.827020">
        <ele>806.0</ele>
        <time>2021-07-04T07:59:07.000Z</time>
      </trkpt>
      <trkpt lat="42.204112" lon="-2.827112">
        <ele>806.9</ele>
        <time>2021-07-04T07:59:09.000Z</time>
      </trkpt>
      <trkpt lat="42.204015" lon="-2.827228">
        <ele>807.6</ele>
        <time>2021-07-04T07:59:12.000Z</time>
      </trkpt>
      <trkpt lat="42.203935" lon="-2.827310">
        <ele>808.8</ele>
        <time>2021-07-04T07:59:15.000Z</time>
      </trkpt>
      <trkpt lat="42.203862" lon="-2.827412">
        <ele>809.3</ele>
        <time>2021-07-04T07:59:19.000Z</time>
      </trkpt>
      <trkpt lat="42.203803" lon="-2.827518">
        <ele>810.3</ele>
        <time>2021-07-04T07:59:23.000Z</time>
      </trkpt>
      <trkpt lat="42.203760" lon="-2.827630">
        <ele>810.4</ele>
        <time>2021-07-04T07:59:27.000Z</time>
      </trkpt>
      <trkpt lat="42.203707" lon="-2.827753">
        <ele>811.1</ele>
        <time>2021-07-04T07:59:32.000Z</time>
      </trkpt>
      <trkpt lat="42.203668" lon="-2.827880">
        <ele>811.2</ele>
        <time>2021-07-04T07:59:37.000Z</time>
      </trkpt>
      <trkpt lat="42.203623" lon="-2.828012">
        <ele>811.8</ele>
        <time>2021-07-04T07:59:42.000Z</time>
      </trkpt>
      <trkpt lat="42.203582" lon="-2.828138">
        <ele>812.5</ele>
        <time>2021-07-04T07:59:47.000Z</time>
      </trkpt>
      <trkpt lat="42.203545" lon="-2.828257">
        <ele>812.8</ele>
        <time>2021-07-04T07:59:52.000Z</time>
      </trkpt>
      <trkpt lat="42.203513" lon="-2.828372">
        <ele>813.4</ele>
        <time>2021-07-04T07:59:57.000Z</time>
      </trkpt>
      <trkpt lat="42.203463" lon="-2.828485">
        <ele>813.7</ele>
        <time>2021-07-04T08:00:02.000Z</time>
      </trkpt>
      <trkpt lat="42.203405" lon="-2.828592">
        <ele>814.2</ele>
        <time>2021-07-04T08:00:07.000Z</time>
      </trkpt>
      <trkpt lat="42.203347" lon="-2.828688">
        <ele>814.7</ele>
        <time>2021-07-04T08:00:12.000Z</time>
      </trkpt>
      <trkpt lat="42.203280" lon="-2.828777">
        <ele>815.0</ele>
        <time>2021-07-04T08:00:17.000Z</time>
      </trkpt>
      <trkpt lat="42.203217" lon="-2.828872">
        <ele>815.8</ele>
        <time>2021-07-04T08:00:22.000Z</time>
      </trkpt>
      <trkpt lat="42.203148" lon="-2.828955">
        <ele>816.2</ele>
        <time>2021-07-04T08:00:27.000Z</time>
      </trkpt>
      <trkpt lat="42.203073" lon="-2.829052">
        <ele>816.4</ele>
        <time>2021-07-04T08:00:33.000Z</time>
      </trkpt>
      <trkpt lat="42.203013" lon="-2.829158">
        <ele>817.2</ele>
        <time>2021-07-04T08:00:42.000Z</time>
      </trkpt>
      <trkpt lat="42.202960" lon="-2.829188">
        <ele>818.1</ele>
        <time>2021-07-04T08:00:53.000Z</time>
      </trkpt>
      <trkpt lat="42.202967" lon="-2.829192">
        <ele>818.1</ele>
        <time>2021-07-04T08:00:55.000Z</time>
      </trkpt>
      <trkpt lat="42.202990" lon="-2.829208">
        <ele>818.3</ele>
        <time>2021-07-04T08:00:59.000Z</time>
      </trkpt>
      <trkpt lat="42.202988" lon="-2.829210">
        <ele>818.1</ele>
        <time>2021-07-04T08:01:12.000Z</time>
      </trkpt>
      <trkpt lat="42.202988" lon="-2.829210">
        <ele>818.3</ele>
        <time>2021-07-04T08:01:13.000Z</time>
      </trkpt>
      <trkpt lat="42.202987" lon="-2.829210">
        <ele>816.6</ele>
        <time>2021-07-04T08:01:20.000Z</time>
      </trkpt>
      <trkpt lat="42.202987" lon="-2.829208">
        <ele>816.6</ele>
        <time>2021-07-04T08:01:21.000Z</time>
      </trkpt>
      <trkpt lat="42.202987" lon="-2.829217">
        <ele>818.5</ele>
        <time>2021-07-04T08:01:23.000Z</time>
      </trkpt>
      <trkpt lat="42.202987" lon="-2.829215">
        <ele>819.3</ele>
        <time>2021-07-04T08:01:24.000Z</time>
      </trkpt>
      <trkpt lat="42.202983" lon="-2.829213">
        <ele>827.5</ele>
        <time>2021-07-04T08:01:40.000Z</time>
      </trkpt>
      <trkpt lat="42.202983" lon="-2.829213">
        <ele>825.3</ele>
        <time>2021-07-04T08:01:41.000Z</time>
      </trkpt>
      <trkpt lat="42.202985" lon="-2.829213">
        <ele>816.2</ele>
        <time>2021-07-04T08:01:42.000Z</time>
      </trkpt>
      <trkpt lat="42.202990" lon="-2.829207">
        <ele>807.9</ele>
        <time>2021-07-04T08:01:44.000Z</time>
      </trkpt>
      <trkpt lat="42.202992" lon="-2.829207">
        <ele>814.4</ele>
        <time>2021-07-04T08:01:46.000Z</time>
      </trkpt>
      <trkpt lat="42.202992" lon="-2.829207">
        <ele>816.9</ele>
        <time>2021-07-04T08:01:47.000Z</time>
      </trkpt>
      <trkpt lat="42.202990" lon="-2.829205">
        <ele>818.6</ele>
        <time>2021-07-04T08:02:02.000Z</time>
      </trkpt>
      <trkpt lat="42.202990" lon="-2.829203">
        <ele>818.6</ele>
        <time>2021-07-04T08:02:03.000Z</time>
      </trkpt>
      <trkpt lat="42.202988" lon="-2.829202">
        <ele>822.3</ele>
        <time>2021-07-04T08:02:18.000Z</time>
      </trkpt>
      <trkpt lat="42.202912" lon="-2.829235">
        <ele>818.4</ele>
        <time>2021-07-04T08:02:33.000Z</time>
      </trkpt>
      <trkpt lat="42.202910" lon="-2.829233">
        <ele>818.4</ele>
        <time>2021-07-04T08:02:38.000Z</time>
      </trkpt>
      <trkpt lat="42.202910" lon="-2.829233">
        <ele>818.4</ele>
        <time>2021-07-04T08:02:39.000Z</time>
      </trkpt>
      <trkpt lat="42.202908" lon="-2.829233">
        <ele>818.3</ele>
        <time>2021-07-04T08:02:49.000Z</time>
      </trkpt>
      <trkpt lat="42.202908" lon="-2.829233">
        <ele>818.4</ele>
        <time>2021-07-04T08:02:50.000Z</time>
      </trkpt>
      <trkpt lat="42.202910" lon="-2.829235">
        <ele>818.5</ele>
        <time>2021-07-04T08:03:15.000Z</time>
      </trkpt>
      <trkpt lat="42.202910" lon="-2.829235">
        <ele>818.3</ele>
        <time>2021-07-04T08:03:16.000Z</time>
      </trkpt>
      <trkpt lat="42.202907" lon="-2.829235">
        <ele>818.4</ele>
        <time>2021-07-04T08:03:24.000Z</time>
      </trkpt>
      <trkpt lat="42.202907" lon="-2.829235">
        <ele>818.3</ele>
        <time>2021-07-04T08:03:25.000Z</time>
      </trkpt>
      <trkpt lat="42.202908" lon="-2.829235">
        <ele>818.1</ele>
        <time>2021-07-04T08:03:31.000Z</time>
      </trkpt>
      <trkpt lat="42.202908" lon="-2.829235">
        <ele>818.2</ele>
        <time>2021-07-04T08:03:32.000Z</time>
      </trkpt>
      <trkpt lat="42.202907" lon="-2.829235">
        <ele>818.0</ele>
        <time>2021-07-04T08:03:48.000Z</time>
      </trkpt>
      <trkpt lat="42.202907" lon="-2.829235">
        <ele>817.8</ele>
        <time>2021-07-04T08:03:49.000Z</time>
      </trkpt>
      <trkpt lat="42.202905" lon="-2.829235">
        <ele>817.9</ele>
        <time>2021-07-04T08:03:56.000Z</time>
      </trkpt>
      <trkpt lat="42.202905" lon="-2.829235">
        <ele>818.0</ele>
        <time>2021-07-04T08:03:57.000Z</time>
      </trkpt>
      <trkpt lat="42.202907" lon="-2.829235">
        <ele>818.1</ele>
        <time>2021-07-04T08:04:04.000Z</time>
      </trkpt>
      <trkpt lat="42.202902" lon="-2.829237">
        <ele>817.9</ele>
        <time>2021-07-04T08:04:07.000Z</time>
      </trkpt>
      <trkpt lat="42.202900" lon="-2.829238">
        <ele>818.4</ele>
        <time>2021-07-04T08:04:25.000Z</time>
      </trkpt>
      <trkpt lat="42.202898" lon="-2.829237">
        <ele>816.7</ele>
        <time>2021-07-04T08:04:27.000Z</time>
      </trkpt>
      <trkpt lat="42.202897" lon="-2.829233">
        <ele>818.5</ele>
        <time>2021-07-04T08:04:33.000Z</time>
      </trkpt>
      <trkpt lat="42.202897" lon="-2.829232">
        <ele>818.8</ele>
        <time>2021-07-04T08:04:34.000Z</time>
      </trkpt>
      <trkpt lat="42.202895" lon="-2.829232">
        <ele>817.4</ele>
        <time>2021-07-04T08:04:48.000Z</time>
      </trkpt>
      <trkpt lat="42.202895" lon="-2.829232">
        <ele>817.4</ele>
        <time>2021-07-04T08:04:49.000Z</time>
      </trkpt>
      <trkpt lat="42.202892" lon="-2.829233">
        <ele>813.1</ele>
        <time>2021-07-04T08:04:58.000Z</time>
      </trkpt>
      <trkpt lat="42.202892" lon="-2.829233">
        <ele>815.5</ele>
        <time>2021-07-04T08:04:59.000Z</time>
      </trkpt>
      <trkpt lat="42.202890" lon="-2.829237">
        <ele>813.2</ele>
        <time>2021-07-04T08:05:04.000Z</time>
      </trkpt>
      <trkpt lat="42.202808" lon="-2.829310">
        <ele>818.4</ele>
        <time>2021-07-04T08:05:12.000Z</time>
      </trkpt>
      <trkpt lat="42.202732" lon="-2.829375">
        <ele>819.3</ele>
        <time>2021-07-04T08:05:18.000Z</time>
      </trkpt>
      <trkpt lat="42.202653" lon="-2.829448">
        <ele>819.7</ele>
        <time>2021-07-04T08:05:24.000Z</time>
      </trkpt>
      <trkpt lat="42.202568" lon="-2.829515">
        <ele>821.2</ele>
        <time>2021-07-04T08:05:30.000Z</time>
      </trkpt>
      <trkpt lat="42.202482" lon="-2.829563">
        <ele>822.1</ele>
        <time>2021-07-04T08:05:36.000Z</time>
      </trkpt>
      <trkpt lat="42.202397" lon="-2.829618">
        <ele>823.4</ele>
        <time>2021-07-04T08:05:42.000Z</time>
      </trkpt>
      <trkpt lat="42.202307" lon="-2.829683">
        <ele>824.6</ele>
        <time>2021-07-04T08:05:49.000Z</time>
      </trkpt>
      <trkpt lat="42.202217" lon="-2.829737">
        <ele>824.9</ele>
        <time>2021-07-04T08:05:55.000Z</time>
      </trkpt>
      <trkpt lat="42.202135" lon="-2.829792">
        <ele>825.8</ele>
        <time>2021-07-04T08:06:01.000Z</time>
      </trkpt>
      <trkpt lat="42.202045" lon="-2.829847">
        <ele>826.4</ele>
        <time>2021-07-04T08:06:07.000Z</time>
      </trkpt>
      <trkpt lat="42.201957" lon="-2.829883">
        <ele>826.9</ele>
        <time>2021-07-04T08:06:13.000Z</time>
      </trkpt>
      <trkpt lat="42.201857" lon="-2.829850">
        <ele>829.6</ele>
        <time>2021-07-04T08:06:20.000Z</time>
      </trkpt>
      <trkpt lat="42.201857" lon="-2.829710">
        <ele>828.2</ele>
        <time>2021-07-04T08:06:27.000Z</time>
      </trkpt>
      <trkpt lat="42.201932" lon="-2.829612">
        <ele>830.1</ele>
        <time>2021-07-04T08:06:33.000Z</time>
      </trkpt>
      <trkpt lat="42.202022" lon="-2.829567">
        <ele>829.9</ele>
        <time>2021-07-04T08:06:38.000Z</time>
      </trkpt>
      <trkpt lat="42.202112" lon="-2.829512">
        <ele>830.8</ele>
        <time>2021-07-04T08:06:43.000Z</time>
      </trkpt>
      <trkpt lat="42.202203" lon="-2.829455">
        <ele>831.2</ele>
        <time>2021-07-04T08:06:48.000Z</time>
      </trkpt>
      <trkpt lat="42.202280" lon="-2.829373">
        <ele>831.9</ele>
        <time>2021-07-04T08:06:53.000Z</time>
      </trkpt>
      <trkpt lat="42.202343" lon="-2.829277">
        <ele>832.2</ele>
        <time>2021-07-04T08:06:58.000Z</time>
      </trkpt>
      <trkpt lat="42.202405" lon="-2.829185">
        <ele>832.3</ele>
        <time>2021-07-04T08:07:03.000Z</time>
      </trkpt>
      <trkpt lat="42.202460" lon="-2.829083">
        <ele>832.3</ele>
        <time>2021-07-04T08:07:08.000Z</time>
      </trkpt>
      <trkpt lat="42.202513" lon="-2.828973">
        <ele>832.4</ele>
        <time>2021-07-04T08:07:13.000Z</time>
      </trkpt>
      <trkpt lat="42.202562" lon="-2.828862">
        <ele>833.2</ele>
        <time>2021-07-04T08:07:18.000Z</time>
      </trkpt>
      <trkpt lat="42.202617" lon="-2.828755">
        <ele>833.7</ele>
        <time>2021-07-04T08:07:23.000Z</time>
      </trkpt>
      <trkpt lat="42.202665" lon="-2.828637">
        <ele>833.9</ele>
        <time>2021-07-04T08:07:28.000Z</time>
      </trkpt>
      <trkpt lat="42.202717" lon="-2.828528">
        <ele>834.5</ele>
        <time>2021-07-04T08:07:33.000Z</time>
      </trkpt>
      <trkpt lat="42.202758" lon="-2.828417">
        <ele>834.9</ele>
        <time>2021-07-04T08:07:38.000Z</time>
      </trkpt>
      <trkpt lat="42.202800" lon="-2.828287">
        <ele>835.7</ele>
        <time>2021-07-04T08:07:44.000Z</time>
      </trkpt>
      <trkpt lat="42.202827" lon="-2.828150">
        <ele>836.7</ele>
        <time>2021-07-04T08:07:50.000Z</time>
      </trkpt>
      <trkpt lat="42.202835" lon="-2.828020">
        <ele>837.9</ele>
        <time>2021-07-04T08:07:56.000Z</time>
      </trkpt>
      <trkpt lat="42.202837" lon="-2.827897">
        <ele>837.5</ele>
        <time>2021-07-04T08:08:01.000Z</time>
      </trkpt>
      <trkpt lat="42.202835" lon="-2.827770">
        <ele>837.7</ele>
        <time>2021-07-04T08:08:06.000Z</time>
      </trkpt>
      <trkpt lat="42.202842" lon="-2.827637">
        <ele>839.0</ele>
        <time>2021-07-04T08:08:12.000Z</time>
      </trkpt>
      <trkpt lat="42.202853" lon="-2.827505">
        <ele>839.3</ele>
        <time>2021-07-04T08:08:18.000Z</time>
      </trkpt>
      <trkpt lat="42.202868" lon="-2.827370">
        <ele>839.7</ele>
        <time>2021-07-04T08:08:24.000Z</time>
      </trkpt>
      <trkpt lat="42.202910" lon="-2.827243">
        <ele>840.8</ele>
        <time>2021-07-04T08:08:30.000Z</time>
      </trkpt>
      <trkpt lat="42.202965" lon="-2.827120">
        <ele>840.4</ele>
        <time>2021-07-04T08:08:36.000Z</time>
      </trkpt>
      <trkpt lat="42.203018" lon="-2.827015">
        <ele>841.7</ele>
        <time>2021-07-04T08:08:41.000Z</time>
      </trkpt>
      <trkpt lat="42.203095" lon="-2.826917">
        <ele>841.8</ele>
        <time>2021-07-04T08:08:47.000Z</time>
      </trkpt>
      <trkpt lat="42.203183" lon="-2.826837">
        <ele>842.2</ele>
        <time>2021-07-04T08:08:53.000Z</time>
      </trkpt>
      <trkpt lat="42.203272" lon="-2.826760">
        <ele>842.6</ele>
        <time>2021-07-04T08:08:59.000Z</time>
      </trkpt>
      <trkpt lat="42.203358" lon="-2.826697">
        <ele>843.0</ele>
        <time>2021-07-04T08:09:05.000Z</time>
      </trkpt>
      <trkpt lat="42.203448" lon="-2.826652">
        <ele>843.3</ele>
        <time>2021-07-04T08:09:10.000Z</time>
      </trkpt>
      <trkpt lat="42.203493" lon="-2.826540">
        <ele>844.6</ele>
        <time>2021-07-04T08:09:16.000Z</time>
      </trkpt>
      <trkpt lat="42.203393" lon="-2.826530">
        <ele>845.5</ele>
        <time>2021-07-04T08:09:23.000Z</time>
      </trkpt>
      <trkpt lat="42.203305" lon="-2.826570">
        <ele>846.6</ele>
        <time>2021-07-04T08:09:29.000Z</time>
      </trkpt>
      <trkpt lat="42.203222" lon="-2.826623">
        <ele>846.7</ele>
        <time>2021-07-04T08:09:35.000Z</time>
      </trkpt>
      <trkpt lat="42.203132" lon="-2.826657">
        <ele>847.8</ele>
        <time>2021-07-04T08:09:41.000Z</time>
      </trkpt>
      <trkpt lat="42.203038" lon="-2.826700">
        <ele>847.7</ele>
        <time>2021-07-04T08:09:47.000Z</time>
      </trkpt>
      <trkpt lat="42.202945" lon="-2.826758">
        <ele>848.5</ele>
        <time>2021-07-04T08:09:53.000Z</time>
      </trkpt>
      <trkpt lat="42.202853" lon="-2.826802">
        <ele>849.9</ele>
        <time>2021-07-04T08:09:59.000Z</time>
      </trkpt>
      <trkpt lat="42.202762" lon="-2.826860">
        <ele>850.1</ele>
        <time>2021-07-04T08:10:05.000Z</time>
      </trkpt>
      <trkpt lat="42.202680" lon="-2.826943">
        <ele>850.7</ele>
        <time>2021-07-04T08:10:11.000Z</time>
      </trkpt>
      <trkpt lat="42.202613" lon="-2.827030">
        <ele>850.8</ele>
        <time>2021-07-04T08:10:16.000Z</time>
      </trkpt>
      <trkpt lat="42.202558" lon="-2.827128">
        <ele>851.0</ele>
        <time>2021-07-04T08:10:21.000Z</time>
      </trkpt>
      <trkpt lat="42.202502" lon="-2.827228">
        <ele>851.6</ele>
        <time>2021-07-04T08:10:26.000Z</time>
      </trkpt>
      <trkpt lat="42.202450" lon="-2.827342">
        <ele>852.2</ele>
        <time>2021-07-04T08:10:31.000Z</time>
      </trkpt>
      <trkpt lat="42.202413" lon="-2.827475">
        <ele>853.0</ele>
        <time>2021-07-04T08:10:37.000Z</time>
      </trkpt>
      <trkpt lat="42.202368" lon="-2.827607">
        <ele>853.8</ele>
        <time>2021-07-04T08:10:43.000Z</time>
      </trkpt>
      <trkpt lat="42.202277" lon="-2.827643">
        <ele>851.9</ele>
        <time>2021-07-04T08:10:49.000Z</time>
      </trkpt>
      <trkpt lat="42.202230" lon="-2.827527">
        <ele>854.5</ele>
        <time>2021-07-04T08:10:55.000Z</time>
      </trkpt>
      <trkpt lat="42.202242" lon="-2.827392">
        <ele>854.7</ele>
        <time>2021-07-04T08:11:01.000Z</time>
      </trkpt>
      <trkpt lat="42.202272" lon="-2.827268">
        <ele>854.4</ele>
        <time>2021-07-04T08:11:07.000Z</time>
      </trkpt>
      <trkpt lat="42.202327" lon="-2.827152">
        <ele>855.6</ele>
        <time>2021-07-04T08:11:13.000Z</time>
      </trkpt>
      <trkpt lat="42.202382" lon="-2.827033">
        <ele>855.7</ele>
        <time>2021-07-04T08:11:19.000Z</time>
      </trkpt>
      <trkpt lat="42.202420" lon="-2.826902">
        <ele>854.4</ele>
        <time>2021-07-04T08:11:25.000Z</time>
      </trkpt>
      <trkpt lat="42.202468" lon="-2.826780">
        <ele>857.3</ele>
        <time>2021-07-04T08:11:31.000Z</time>
      </trkpt>
      <trkpt lat="42.202512" lon="-2.826655">
        <ele>858.1</ele>
        <time>2021-07-04T08:11:37.000Z</time>
      </trkpt>
      <trkpt lat="42.202563" lon="-2.826540">
        <ele>858.4</ele>
        <time>2021-07-04T08:11:43.000Z</time>
      </trkpt>
      <trkpt lat="42.202635" lon="-2.826433">
        <ele>859.2</ele>
        <time>2021-07-04T08:11:49.000Z</time>
      </trkpt>
      <trkpt lat="42.202715" lon="-2.826342">
        <ele>859.8</ele>
        <time>2021-07-04T08:11:55.000Z</time>
      </trkpt>
      <trkpt lat="42.202802" lon="-2.826268">
        <ele>860.3</ele>
        <time>2021-07-04T08:12:01.000Z</time>
      </trkpt>
      <trkpt lat="42.202880" lon="-2.826208">
        <ele>860.9</ele>
        <time>2021-07-04T08:12:06.000Z</time>
      </trkpt>
      <trkpt lat="42.202963" lon="-2.826158">
        <ele>861.4</ele>
        <time>2021-07-04T08:12:11.000Z</time>
      </trkpt>
      <trkpt lat="42.203062" lon="-2.826107">
        <ele>861.8</ele>
        <time>2021-07-04T08:12:17.000Z</time>
      </trkpt>
      <trkpt lat="42.203163" lon="-2.826065">
        <ele>862.3</ele>
        <time>2021-07-04T08:12:23.000Z</time>
      </trkpt>
      <trkpt lat="42.203252" lon="-2.826042">
        <ele>862.4</ele>
        <time>2021-07-04T08:12:28.000Z</time>
      </trkpt>
      <trkpt lat="42.203342" lon="-2.826023">
        <ele>862.4</ele>
        <time>2021-07-04T08:12:33.000Z</time>
      </trkpt>
      <trkpt lat="42.203435" lon="-2.826020">
        <ele>862.8</ele>
        <time>2021-07-04T08:12:38.000Z</time>
      </trkpt>
      <trkpt lat="42.203538" lon="-2.826002">
        <ele>863.3</ele>
        <time>2021-07-04T08:12:44.000Z</time>
      </trkpt>
      <trkpt lat="42.203638" lon="-2.825962">
        <ele>864.4</ele>
        <time>2021-07-04T08:12:50.000Z</time>
      </trkpt>
      <trkpt lat="42.203723" lon="-2.825902">
        <ele>864.6</ele>
        <time>2021-07-04T08:12:56.000Z</time>
      </trkpt>
      <trkpt lat="42.203812" lon="-2.825865">
        <ele>865.1</ele>
        <time>2021-07-04T08:13:01.000Z</time>
      </trkpt>
      <trkpt lat="42.203910" lon="-2.825858">
        <ele>866.1</ele>
        <time>2021-07-04T08:13:06.000Z</time>
      </trkpt>
      <trkpt lat="42.204007" lon="-2.825868">
        <ele>866.7</ele>
        <time>2021-07-04T08:13:11.000Z</time>
      </trkpt>
      <trkpt lat="42.204103" lon="-2.825860">
        <ele>866.7</ele>
        <time>2021-07-04T08:13:16.000Z</time>
      </trkpt>
      <trkpt lat="42.204210" lon="-2.825832">
        <ele>867.4</ele>
        <time>2021-07-04T08:13:22.000Z</time>
      </trkpt>
      <trkpt lat="42.204302" lon="-2.825825">
        <ele>867.7</ele>
        <time>2021-07-04T08:13:27.000Z</time>
      </trkpt>
      <trkpt lat="42.204397" lon="-2.825818">
        <ele>868.6</ele>
        <time>2021-07-04T08:13:32.000Z</time>
      </trkpt>
      <trkpt lat="42.204487" lon="-2.825767">
        <ele>869.5</ele>
        <time>2021-07-04T08:13:38.000Z</time>
      </trkpt>
      <trkpt lat="42.204563" lon="-2.825672">
        <ele>869.0</ele>
        <time>2021-07-04T08:13:45.000Z</time>
      </trkpt>
      <trkpt lat="42.204632" lon="-2.825583">
        <ele>870.1</ele>
        <time>2021-07-04T08:13:51.000Z</time>
      </trkpt>
      <trkpt lat="42.204722" lon="-2.825522">
        <ele>868.7</ele>
        <time>2021-07-04T08:13:58.000Z</time>
      </trkpt>
      <trkpt lat="42.204800" lon="-2.825455">
        <ele>868.8</ele>
        <time>2021-07-04T08:14:04.000Z</time>
      </trkpt>
      <trkpt lat="42.204843" lon="-2.825333">
        <ele>867.8</ele>
        <time>2021-07-04T08:14:09.000Z</time>
      </trkpt>
      <trkpt lat="42.204822" lon="-2.825202">
        <ele>867.9</ele>
        <time>2021-07-04T08:14:14.000Z</time>
      </trkpt>
      <trkpt lat="42.204773" lon="-2.825080">
        <ele>868.5</ele>
        <time>2021-07-04T08:14:19.000Z</time>
      </trkpt>
      <trkpt lat="42.204730" lon="-2.824948">
        <ele>869.0</ele>
        <time>2021-07-04T08:14:24.000Z</time>
      </trkpt>
      <trkpt lat="42.204705" lon="-2.824803">
        <ele>868.9</ele>
        <time>2021-07-04T08:14:29.000Z</time>
      </trkpt>
      <trkpt lat="42.204683" lon="-2.824678">
        <ele>869.3</ele>
        <time>2021-07-04T08:14:33.000Z</time>
      </trkpt>
      <trkpt lat="42.204675" lon="-2.824548">
        <ele>869.2</ele>
        <time>2021-07-04T08:14:37.000Z</time>
      </trkpt>
      <trkpt lat="42.204688" lon="-2.824418">
        <ele>869.3</ele>
        <time>2021-07-04T08:14:41.000Z</time>
      </trkpt>
      <trkpt lat="42.204700" lon="-2.824275">
        <ele>869.5</ele>
        <time>2021-07-04T08:14:45.000Z</time>
      </trkpt>
      <trkpt lat="42.204713" lon="-2.824130">
        <ele>869.2</ele>
        <time>2021-07-04T08:14:49.000Z</time>
      </trkpt>
      <trkpt lat="42.204740" lon="-2.823997">
        <ele>869.7</ele>
        <time>2021-07-04T08:14:53.000Z</time>
      </trkpt>
      <trkpt lat="42.204765" lon="-2.823860">
        <ele>869.5</ele>
        <time>2021-07-04T08:14:57.000Z</time>
      </trkpt>
      <trkpt lat="42.204802" lon="-2.823715">
        <ele>869.4</ele>
        <time>2021-07-04T08:15:01.000Z</time>
      </trkpt>
      <trkpt lat="42.204837" lon="-2.823568">
        <ele>869.4</ele>
        <time>2021-07-04T08:15:05.000Z</time>
      </trkpt>
      <trkpt lat="42.204870" lon="-2.823422">
        <ele>869.9</ele>
        <time>2021-07-04T08:15:09.000Z</time>
      </trkpt>
      <trkpt lat="42.204902" lon="-2.823278">
        <ele>870.2</ele>
        <time>2021-07-04T08:15:13.000Z</time>
      </trkpt>
      <trkpt lat="42.204935" lon="-2.823145">
        <ele>870.3</ele>
        <time>2021-07-04T08:15:17.000Z</time>
      </trkpt>
      <trkpt lat="42.204955" lon="-2.823017">
        <ele>870.3</ele>
        <time>2021-07-04T08:15:21.000Z</time>
      </trkpt>
      <trkpt lat="42.204990" lon="-2.822882">
        <ele>871.1</ele>
        <time>2021-07-04T08:15:26.000Z</time>
      </trkpt>
      <trkpt lat="42.205012" lon="-2.822747">
        <ele>871.8</ele>
        <time>2021-07-04T08:15:31.000Z</time>
      </trkpt>
      <trkpt lat="42.205030" lon="-2.822612">
        <ele>872.4</ele>
        <time>2021-07-04T08:15:36.000Z</time>
      </trkpt>
      <trkpt lat="42.205037" lon="-2.822487">
        <ele>873.2</ele>
        <time>2021-07-04T08:15:41.000Z</time>
      </trkpt>
      <trkpt lat="42.205020" lon="-2.822345">
        <ele>874.3</ele>
        <time>2021-07-04T08:15:47.000Z</time>
      </trkpt>
      <trkpt lat="42.204977" lon="-2.822237">
        <ele>874.9</ele>
        <time>2021-07-04T08:15:52.000Z</time>
      </trkpt>
      <trkpt lat="42.204925" lon="-2.822137">
        <ele>875.6</ele>
        <time>2021-07-04T08:15:57.000Z</time>
      </trkpt>
      <trkpt lat="42.204857" lon="-2.822052">
        <ele>877.2</ele>
        <time>2021-07-04T08:16:02.000Z</time>
      </trkpt>
      <trkpt lat="42.204778" lon="-2.821977">
        <ele>877.6</ele>
        <time>2021-07-04T08:16:07.000Z</time>
      </trkpt>
      <trkpt lat="42.204700" lon="-2.821887">
        <ele>878.2</ele>
        <time>2021-07-04T08:16:13.000Z</time>
      </trkpt>
      <trkpt lat="42.204633" lon="-2.821785">
        <ele>879.1</ele>
        <time>2021-07-04T08:16:19.000Z</time>
      </trkpt>
      <trkpt lat="42.204568" lon="-2.821675">
        <ele>879.9</ele>
        <time>2021-07-04T08:16:25.000Z</time>
      </trkpt>
      <trkpt lat="42.204503" lon="-2.821590">
        <ele>880.6</ele>
        <time>2021-07-04T08:16:30.000Z</time>
      </trkpt>
      <trkpt lat="42.204442" lon="-2.821480">
        <ele>881.4</ele>
        <time>2021-07-04T08:16:36.000Z</time>
      </trkpt>
      <trkpt lat="42.204383" lon="-2.821370">
        <ele>882.3</ele>
        <time>2021-07-04T08:16:42.000Z</time>
      </trkpt>
      <trkpt lat="42.204325" lon="-2.821257">
        <ele>882.7</ele>
        <time>2021-07-04T08:16:48.000Z</time>
      </trkpt>
      <trkpt lat="42.204255" lon="-2.821153">
        <ele>883.6</ele>
        <time>2021-07-04T08:16:54.000Z</time>
      </trkpt>
      <trkpt lat="42.204203" lon="-2.821040">
        <ele>884.6</ele>
        <time>2021-07-04T08:17:00.000Z</time>
      </trkpt>
      <trkpt lat="42.204155" lon="-2.820917">
        <ele>884.7</ele>
        <time>2021-07-04T08:17:06.000Z</time>
      </trkpt>
      <trkpt lat="42.204095" lon="-2.820808">
        <ele>885.9</ele>
        <time>2021-07-04T08:17:12.000Z</time>
      </trkpt>
      <trkpt lat="42.204000" lon="-2.820760">
        <ele>886.7</ele>
        <time>2021-07-04T08:17:18.000Z</time>
      </trkpt>
      <trkpt lat="42.203907" lon="-2.820733">
        <ele>887.0</ele>
        <time>2021-07-04T08:17:23.000Z</time>
      </trkpt>
      <trkpt lat="42.203815" lon="-2.820712">
        <ele>886.9</ele>
        <time>2021-07-04T08:17:28.000Z</time>
      </trkpt>
      <trkpt lat="42.203728" lon="-2.820662">
        <ele>887.7</ele>
        <time>2021-07-04T08:17:33.000Z</time>
      </trkpt>
      <trkpt lat="42.203640" lon="-2.820613">
        <ele>887.7</ele>
        <time>2021-07-04T08:17:38.000Z</time>
      </trkpt>
      <trkpt lat="42.203555" lon="-2.820548">
        <ele>888.5</ele>
        <time>2021-07-04T08:17:43.000Z</time>
      </trkpt>
      <trkpt lat="42.203472" lon="-2.820478">
        <ele>889.0</ele>
        <time>2021-07-04T08:17:48.000Z</time>
      </trkpt>
      <trkpt lat="42.203387" lon="-2.820405">
        <ele>889.5</ele>
        <time>2021-07-04T08:17:53.000Z</time>
      </trkpt>
      <trkpt lat="42.203308" lon="-2.820330">
        <ele>890.2</ele>
        <time>2021-07-04T08:17:58.000Z</time>
      </trkpt>
      <trkpt lat="42.203235" lon="-2.820252">
        <ele>890.8</ele>
        <time>2021-07-04T08:18:03.000Z</time>
      </trkpt>
      <trkpt lat="42.203158" lon="-2.820153">
        <ele>890.8</ele>
        <time>2021-07-04T08:18:09.000Z</time>
      </trkpt>
      <trkpt lat="42.203090" lon="-2.820073">
        <ele>890.7</ele>
        <time>2021-07-04T08:18:14.000Z</time>
      </trkpt>
      <trkpt lat="42.203020" lon="-2.819983">
        <ele>891.5</ele>
        <time>2021-07-04T08:18:19.000Z</time>
      </trkpt>
      <trkpt lat="42.202960" lon="-2.819888">
        <ele>892.3</ele>
        <time>2021-07-04T08:18:24.000Z</time>
      </trkpt>
      <trkpt lat="42.202902" lon="-2.819788">
        <ele>893.0</ele>
        <time>2021-07-04T08:18:29.000Z</time>
      </trkpt>
      <trkpt lat="42.202845" lon="-2.819685">
        <ele>893.6</ele>
        <time>2021-07-04T08:18:34.000Z</time>
      </trkpt>
      <trkpt lat="42.202785" lon="-2.819580">
        <ele>894.4</ele>
        <time>2021-07-04T08:18:39.000Z</time>
      </trkpt>
      <trkpt lat="42.202742" lon="-2.819455">
        <ele>894.7</ele>
        <time>2021-07-04T08:18:44.000Z</time>
      </trkpt>
      <trkpt lat="42.202700" lon="-2.819325">
        <ele>895.0</ele>
        <time>2021-07-04T08:18:49.000Z</time>
      </trkpt>
      <trkpt lat="42.202662" lon="-2.819202">
        <ele>894.6</ele>
        <time>2021-07-04T08:18:54.000Z</time>
      </trkpt>
      <trkpt lat="42.202627" lon="-2.819062">
        <ele>894.4</ele>
        <time>2021-07-04T08:18:59.000Z</time>
      </trkpt>
      <trkpt lat="42.202608" lon="-2.818925">
        <ele>894.5</ele>
        <time>2021-07-04T08:19:04.000Z</time>
      </trkpt>
      <trkpt lat="42.202605" lon="-2.818803">
        <ele>894.2</ele>
        <time>2021-07-04T08:19:08.000Z</time>
      </trkpt>
      <trkpt lat="42.202602" lon="-2.818677">
        <ele>894.4</ele>
        <time>2021-07-04T08:19:12.000Z</time>
      </trkpt>
      <trkpt lat="42.202603" lon="-2.818553">
        <ele>894.2</ele>
        <time>2021-07-04T08:19:16.000Z</time>
      </trkpt>
      <trkpt lat="42.202618" lon="-2.818433">
        <ele>893.6</ele>
        <time>2021-07-04T08:19:20.000Z</time>
      </trkpt>
      <trkpt lat="42.202620" lon="-2.818298">
        <ele>894.5</ele>
        <time>2021-07-04T08:19:24.000Z</time>
      </trkpt>
      <trkpt lat="42.202628" lon="-2.818172">
        <ele>894.6</ele>
        <time>2021-07-04T08:19:28.000Z</time>
      </trkpt>
      <trkpt lat="42.202672" lon="-2.818037">
        <ele>894.7</ele>
        <time>2021-07-04T08:19:33.000Z</time>
      </trkpt>
      <trkpt lat="42.202743" lon="-2.817933">
        <ele>894.9</ele>
        <time>2021-07-04T08:19:39.000Z</time>
      </trkpt>
      <trkpt lat="42.202785" lon="-2.817883">
        <ele>897.8</ele>
        <time>2021-07-04T08:19:46.000Z</time>
      </trkpt>
      <trkpt lat="42.202787" lon="-2.817883">
        <ele>891.6</ele>
        <time>2021-07-04T08:19:47.000Z</time>
      </trkpt>
      <trkpt lat="42.202863" lon="-2.817812">
        <ele>894.7</ele>
        <time>2021-07-04T08:19:54.000Z</time>
      </trkpt>
      <trkpt lat="42.202860" lon="-2.817688">
        <ele>893.9</ele>
        <time>2021-07-04T08:19:59.000Z</time>
      </trkpt>
      <trkpt lat="42.202778" lon="-2.817605">
        <ele>893.1</ele>
        <time>2021-07-04T08:20:03.000Z</time>
      </trkpt>
      <trkpt lat="42.202688" lon="-2.817530">
        <ele>892.7</ele>
        <time>2021-07-04T08:20:07.000Z</time>
      </trkpt>
      <trkpt lat="42.202618" lon="-2.817452">
        <ele>892.5</ele>
        <time>2021-07-04T08:20:10.000Z</time>
      </trkpt>
      <trkpt lat="42.202562" lon="-2.817355">
        <ele>892.4</ele>
        <time>2021-07-04T08:20:13.000Z</time>
      </trkpt>
      <trkpt lat="42.202532" lon="-2.817295">
        <ele>891.7</ele>
        <time>2021-07-04T08:20:17.000Z</time>
      </trkpt>
      <trkpt lat="42.202527" lon="-2.817290">
        <ele>888.1</ele>
        <time>2021-07-04T08:20:45.000Z</time>
      </trkpt>
      <trkpt lat="42.202475" lon="-2.817177">
        <ele>891.5</ele>
        <time>2021-07-04T08:20:49.000Z</time>
      </trkpt>
      <trkpt lat="42.202432" lon="-2.817045">
        <ele>891.1</ele>
        <time>2021-07-04T08:20:52.000Z</time>
      </trkpt>
      <trkpt lat="42.202372" lon="-2.816892">
        <ele>889.7</ele>
        <time>2021-07-04T08:20:55.000Z</time>
      </trkpt>
      <trkpt lat="42.202292" lon="-2.816777">
        <ele>888.3</ele>
        <time>2021-07-04T08:20:58.000Z</time>
      </trkpt>
      <trkpt lat="42.202212" lon="-2.816657">
        <ele>887.4</ele>
        <time>2021-07-04T08:21:01.000Z</time>
      </trkpt>
      <trkpt lat="42.202167" lon="-2.816542">
        <ele>886.6</ele>
        <time>2021-07-04T08:21:03.000Z</time>
      </trkpt>
      <trkpt lat="42.202150" lon="-2.816397">
        <ele>885.6</ele>
        <time>2021-07-04T08:21:05.000Z</time>
      </trkpt>
      <trkpt lat="42.202180" lon="-2.816248">
        <ele>886.1</ele>
        <time>2021-07-04T08:21:07.000Z</time>
      </trkpt>
      <trkpt lat="42.202245" lon="-2.816122">
        <ele>884.8</ele>
        <time>2021-07-04T08:21:09.000Z</time>
      </trkpt>
      <trkpt lat="42.202325" lon="-2.815993">
        <ele>883.4</ele>
        <time>2021-07-04T08:21:11.000Z</time>
      </trkpt>
      <trkpt lat="42.202377" lon="-2.815833">
        <ele>882.1</ele>
        <time>2021-07-04T08:21:13.000Z</time>
      </trkpt>
      <trkpt lat="42.202402" lon="-2.815650">
        <ele>881.5</ele>
        <time>2021-07-04T08:21:15.000Z</time>
      </trkpt>
      <trkpt lat="42.202388" lon="-2.815463">
        <ele>878.9</ele>
        <time>2021-07-04T08:21:17.000Z</time>
      </trkpt>
      <trkpt lat="42.202295" lon="-2.815300">
        <ele>878.4</ele>
        <time>2021-07-04T08:21:19.000Z</time>
      </trkpt>
      <trkpt lat="42.202158" lon="-2.815168">
        <ele>877.8</ele>
        <time>2021-07-04T08:21:21.000Z</time>
      </trkpt>
      <trkpt lat="42.202047" lon="-2.814997">
        <ele>876.8</ele>
        <time>2021-07-04T08:21:23.000Z</time>
      </trkpt>
      <trkpt lat="42.201927" lon="-2.814832">
        <ele>875.0</ele>
        <time>2021-07-04T08:21:25.000Z</time>
      </trkpt>
      <trkpt lat="42.201763" lon="-2.814747">
        <ele>874.5</ele>
        <time>2021-07-04T08:21:27.000Z</time>
      </trkpt>
      <trkpt lat="42.201590" lon="-2.814742">
        <ele>873.9</ele>
        <time>2021-07-04T08:21:29.000Z</time>
      </trkpt>
      <trkpt lat="42.201423" lon="-2.814747">
        <ele>873.2</ele>
        <time>2021-07-04T08:21:31.000Z</time>
      </trkpt>
      <trkpt lat="42.201277" lon="-2.814732">
        <ele>873.7</ele>
        <time>2021-07-04T08:21:33.000Z</time>
      </trkpt>
      <trkpt lat="42.201167" lon="-2.814645">
        <ele>872.2</ele>
        <time>2021-07-04T08:21:35.000Z</time>
      </trkpt>
      <trkpt lat="42.201128" lon="-2.814493">
        <ele>872.2</ele>
        <time>2021-07-04T08:21:37.000Z</time>
      </trkpt>
      <trkpt lat="42.201135" lon="-2.814337">
        <ele>871.2</ele>
        <time>2021-07-04T08:21:39.000Z</time>
      </trkpt>
      <trkpt lat="42.201138" lon="-2.814187">
        <ele>872.1</ele>
        <time>2021-07-04T08:21:41.000Z</time>
      </trkpt>
      <trkpt lat="42.201068" lon="-2.814087">
        <ele>871.8</ele>
        <time>2021-07-04T08:21:43.000Z</time>
      </trkpt>
      <trkpt lat="42.200962" lon="-2.814037">
        <ele>870.9</ele>
        <time>2021-07-04T08:21:45.000Z</time>
      </trkpt>
      <trkpt lat="42.200855" lon="-2.813995">
        <ele>870.8</ele>
        <time>2021-07-04T08:21:47.000Z</time>
      </trkpt>
      <trkpt lat="42.200753" lon="-2.813948">
        <ele>870.4</ele>
        <time>2021-07-04T08:21:49.000Z</time>
      </trkpt>
      <trkpt lat="42.200657" lon="-2.813890">
        <ele>869.6</ele>
        <time>2021-07-04T08:21:51.000Z</time>
      </trkpt>
      <trkpt lat="42.200563" lon="-2.813825">
        <ele>869.5</ele>
        <time>2021-07-04T08:21:53.000Z</time>
      </trkpt>
      <trkpt lat="42.200485" lon="-2.813735">
        <ele>869.4</ele>
        <time>2021-07-04T08:21:55.000Z</time>
      </trkpt>
      <trkpt lat="42.200425" lon="-2.813620">
        <ele>868.4</ele>
        <time>2021-07-04T08:21:57.000Z</time>
      </trkpt>
      <trkpt lat="42.200368" lon="-2.813503">
        <ele>868.4</ele>
        <time>2021-07-04T08:21:59.000Z</time>
      </trkpt>
      <trkpt lat="42.200312" lon="-2.813392">
        <ele>868.1</ele>
        <time>2021-07-04T08:22:01.000Z</time>
      </trkpt>
      <trkpt lat="42.200252" lon="-2.813273">
        <ele>868.2</ele>
        <time>2021-07-04T08:22:03.000Z</time>
      </trkpt>
      <trkpt lat="42.200187" lon="-2.813145">
        <ele>868.8</ele>
        <time>2021-07-04T08:22:05.000Z</time>
      </trkpt>
      <trkpt lat="42.200122" lon="-2.813003">
        <ele>868.3</ele>
        <time>2021-07-04T08:22:07.000Z</time>
      </trkpt>
      <trkpt lat="42.200062" lon="-2.812855">
        <ele>866.5</ele>
        <time>2021-07-04T08:22:09.000Z</time>
      </trkpt>
      <trkpt lat="42.199978" lon="-2.812717">
        <ele>865.5</ele>
        <time>2021-07-04T08:22:11.000Z</time>
      </trkpt>
      <trkpt lat="42.199842" lon="-2.812638">
        <ele>862.6</ele>
        <time>2021-07-04T08:22:13.000Z</time>
      </trkpt>
      <trkpt lat="42.199685" lon="-2.812603">
        <ele>862.2</ele>
        <time>2021-07-04T08:22:15.000Z</time>
      </trkpt>
      <trkpt lat="42.199528" lon="-2.812553">
        <ele>862.6</ele>
        <time>2021-07-04T08:22:17.000Z</time>
      </trkpt>
      <trkpt lat="42.199380" lon="-2.812470">
        <ele>861.4</ele>
        <time>2021-07-04T08:22:19.000Z</time>
      </trkpt>
      <trkpt lat="42.199245" lon="-2.812340">
        <ele>859.3</ele>
        <time>2021-07-04T08:22:21.000Z</time>
      </trkpt>
      <trkpt lat="42.199145" lon="-2.812208">
        <ele>860.8</ele>
        <time>2021-07-04T08:22:23.000Z</time>
      </trkpt>
      <trkpt lat="42.199077" lon="-2.812013">
        <ele>859.0</ele>
        <time>2021-07-04T08:22:25.000Z</time>
      </trkpt>
      <trkpt lat="42.199023" lon="-2.811812">
        <ele>855.3</ele>
        <time>2021-07-04T08:22:27.000Z</time>
      </trkpt>
      <trkpt lat="42.198987" lon="-2.811612">
        <ele>854.3</ele>
        <time>2021-07-04T08:22:29.000Z</time>
      </trkpt>
      <trkpt lat="42.198970" lon="-2.811413">
        <ele>854.2</ele>
        <time>2021-07-04T08:22:31.000Z</time>
      </trkpt>
      <trkpt lat="42.198938" lon="-2.811222">
        <ele>855.5</ele>
        <time>2021-07-04T08:22:33.000Z</time>
      </trkpt>
      <trkpt lat="42.198873" lon="-2.811050">
        <ele>854.9</ele>
        <time>2021-07-04T08:22:35.000Z</time>
      </trkpt>
      <trkpt lat="42.198767" lon="-2.810932">
        <ele>855.5</ele>
        <time>2021-07-04T08:22:37.000Z</time>
      </trkpt>
      <trkpt lat="42.198625" lon="-2.810915">
        <ele>854.1</ele>
        <time>2021-07-04T08:22:39.000Z</time>
      </trkpt>
      <trkpt lat="42.198475" lon="-2.810950">
        <ele>853.6</ele>
        <time>2021-07-04T08:22:41.000Z</time>
      </trkpt>
      <trkpt lat="42.198318" lon="-2.810978">
        <ele>852.2</ele>
        <time>2021-07-04T08:22:43.000Z</time>
      </trkpt>
      <trkpt lat="42.198167" lon="-2.810968">
        <ele>853.2</ele>
        <time>2021-07-04T08:22:45.000Z</time>
      </trkpt>
      <trkpt lat="42.198027" lon="-2.810875">
        <ele>851.0</ele>
        <time>2021-07-04T08:22:47.000Z</time>
      </trkpt>
      <trkpt lat="42.197920" lon="-2.810717">
        <ele>850.4</ele>
        <time>2021-07-04T08:22:49.000Z</time>
      </trkpt>
      <trkpt lat="42.197825" lon="-2.810553">
        <ele>850.0</ele>
        <time>2021-07-04T08:22:51.000Z</time>
      </trkpt>
      <trkpt lat="42.197720" lon="-2.810402">
        <ele>848.4</ele>
        <time>2021-07-04T08:22:53.000Z</time>
      </trkpt>
      <trkpt lat="42.197607" lon="-2.810268">
        <ele>848.3</ele>
        <time>2021-07-04T08:22:55.000Z</time>
      </trkpt>
      <trkpt lat="42.197483" lon="-2.810157">
        <ele>849.4</ele>
        <time>2021-07-04T08:22:57.000Z</time>
      </trkpt>
      <trkpt lat="42.197365" lon="-2.810045">
        <ele>849.7</ele>
        <time>2021-07-04T08:22:59.000Z</time>
      </trkpt>
      <trkpt lat="42.197255" lon="-2.809922">
        <ele>849.7</ele>
        <time>2021-07-04T08:23:01.000Z</time>
      </trkpt>
      <trkpt lat="42.197152" lon="-2.809795">
        <ele>849.8</ele>
        <time>2021-07-04T08:23:03.000Z</time>
      </trkpt>
      <trkpt lat="42.197043" lon="-2.809678">
        <ele>847.7</ele>
        <time>2021-07-04T08:23:05.000Z</time>
      </trkpt>
      <trkpt lat="42.196927" lon="-2.809568">
        <ele>846.5</ele>
        <time>2021-07-04T08:23:07.000Z</time>
      </trkpt>
      <trkpt lat="42.196802" lon="-2.809455">
        <ele>847.9</ele>
        <time>2021-07-04T08:23:09.000Z</time>
      </trkpt>
      <trkpt lat="42.196677" lon="-2.809342">
        <ele>846.8</ele>
        <time>2021-07-04T08:23:11.000Z</time>
      </trkpt>
      <trkpt lat="42.196550" lon="-2.809230">
        <ele>846.3</ele>
        <time>2021-07-04T08:23:13.000Z</time>
      </trkpt>
      <trkpt lat="42.196417" lon="-2.809137">
        <ele>845.2</ele>
        <time>2021-07-04T08:23:15.000Z</time>
      </trkpt>
      <trkpt lat="42.196283" lon="-2.809075">
        <ele>844.3</ele>
        <time>2021-07-04T08:23:17.000Z</time>
      </trkpt>
      <trkpt lat="42.196158" lon="-2.809037">
        <ele>845.5</ele>
        <time>2021-07-04T08:23:19.000Z</time>
      </trkpt>
      <trkpt lat="42.196040" lon="-2.809012">
        <ele>845.4</ele>
        <time>2021-07-04T08:23:21.000Z</time>
      </trkpt>
      <trkpt lat="42.195932" lon="-2.809002">
        <ele>845.2</ele>
        <time>2021-07-04T08:23:23.000Z</time>
      </trkpt>
      <trkpt lat="42.195835" lon="-2.809010">
        <ele>845.5</ele>
        <time>2021-07-04T08:23:25.000Z</time>
      </trkpt>
      <trkpt lat="42.195713" lon="-2.809038">
        <ele>845.0</ele>
        <time>2021-07-04T08:23:28.000Z</time>
      </trkpt>
      <trkpt lat="42.195600" lon="-2.809068">
        <ele>845.9</ele>
        <time>2021-07-04T08:23:31.000Z</time>
      </trkpt>
      <trkpt lat="42.195482" lon="-2.809080">
        <ele>845.7</ele>
        <time>2021-07-04T08:23:34.000Z</time>
      </trkpt>
      <trkpt lat="42.195348" lon="-2.809072">
        <ele>845.5</ele>
        <time>2021-07-04T08:23:37.000Z</time>
      </trkpt>
      <trkpt lat="42.195255" lon="-2.809048">
        <ele>845.4</ele>
        <time>2021-07-04T08:23:39.000Z</time>
      </trkpt>
      <trkpt lat="42.195133" lon="-2.808985">
        <ele>844.4</ele>
        <time>2021-07-04T08:23:42.000Z</time>
      </trkpt>
      <trkpt lat="42.195040" lon="-2.808912">
        <ele>844.8</ele>
        <time>2021-07-04T08:23:45.000Z</time>
      </trkpt>
      <trkpt lat="42.194958" lon="-2.808852">
        <ele>845.4</ele>
        <time>2021-07-04T08:23:48.000Z</time>
      </trkpt>
      <trkpt lat="42.194873" lon="-2.808772">
        <ele>845.5</ele>
        <time>2021-07-04T08:23:52.000Z</time>
      </trkpt>
      <trkpt lat="42.194775" lon="-2.808685">
        <ele>845.6</ele>
        <time>2021-07-04T08:23:56.000Z</time>
      </trkpt>
      <trkpt lat="42.194673" lon="-2.808628">
        <ele>845.9</ele>
        <time>2021-07-04T08:24:00.000Z</time>
      </trkpt>
      <trkpt lat="42.194570" lon="-2.808603">
        <ele>845.9</ele>
        <time>2021-07-04T08:24:04.000Z</time>
      </trkpt>
      <trkpt lat="42.194463" lon="-2.808607">
        <ele>846.3</ele>
        <time>2021-07-04T08:24:08.000Z</time>
      </trkpt>
      <trkpt lat="42.194365" lon="-2.808635">
        <ele>846.5</ele>
        <time>2021-07-04T08:24:12.000Z</time>
      </trkpt>
      <trkpt lat="42.194272" lon="-2.808675">
        <ele>846.9</ele>
        <time>2021-07-04T08:24:16.000Z</time>
      </trkpt>
      <trkpt lat="42.194188" lon="-2.808723">
        <ele>848.1</ele>
        <time>2021-07-04T08:24:20.000Z</time>
      </trkpt>
      <trkpt lat="42.194120" lon="-2.808823">
        <ele>848.0</ele>
        <time>2021-07-04T08:24:25.000Z</time>
      </trkpt>
      <trkpt lat="42.194087" lon="-2.808943">
        <ele>848.4</ele>
        <time>2021-07-04T08:24:30.000Z</time>
      </trkpt>
      <trkpt lat="42.194058" lon="-2.809075">
        <ele>849.3</ele>
        <time>2021-07-04T08:24:35.000Z</time>
      </trkpt>
      <trkpt lat="42.194028" lon="-2.809197">
        <ele>850.2</ele>
        <time>2021-07-04T08:24:40.000Z</time>
      </trkpt>
      <trkpt lat="42.193998" lon="-2.809317">
        <ele>850.4</ele>
        <time>2021-07-04T08:24:45.000Z</time>
      </trkpt>
      <trkpt lat="42.193943" lon="-2.809443">
        <ele>851.9</ele>
        <time>2021-07-04T08:24:51.000Z</time>
      </trkpt>
      <trkpt lat="42.193872" lon="-2.809540">
        <ele>852.1</ele>
        <time>2021-07-04T08:24:56.000Z</time>
      </trkpt>
      <trkpt lat="42.193790" lon="-2.809633">
        <ele>852.7</ele>
        <time>2021-07-04T08:25:01.000Z</time>
      </trkpt>
      <trkpt lat="42.193703" lon="-2.809715">
        <ele>853.1</ele>
        <time>2021-07-04T08:25:06.000Z</time>
      </trkpt>
      <trkpt lat="42.193615" lon="-2.809785">
        <ele>853.8</ele>
        <time>2021-07-04T08:25:11.000Z</time>
      </trkpt>
      <trkpt lat="42.193522" lon="-2.809850">
        <ele>854.2</ele>
        <time>2021-07-04T08:25:16.000Z</time>
      </trkpt>
      <trkpt lat="42.193418" lon="-2.809897">
        <ele>854.4</ele>
        <time>2021-07-04T08:25:21.000Z</time>
      </trkpt>
      <trkpt lat="42.193310" lon="-2.809920">
        <ele>854.5</ele>
        <time>2021-07-04T08:25:26.000Z</time>
      </trkpt>
      <trkpt lat="42.193210" lon="-2.809907">
        <ele>854.6</ele>
        <time>2021-07-04T08:25:30.000Z</time>
      </trkpt>
      <trkpt lat="42.193107" lon="-2.809863">
        <ele>854.5</ele>
        <time>2021-07-04T08:25:34.000Z</time>
      </trkpt>
      <trkpt lat="42.193015" lon="-2.809802">
        <ele>854.1</ele>
        <time>2021-07-04T08:25:38.000Z</time>
      </trkpt>
      <trkpt lat="42.192923" lon="-2.809708">
        <ele>854.2</ele>
        <time>2021-07-04T08:25:42.000Z</time>
      </trkpt>
      <trkpt lat="42.192863" lon="-2.809608">
        <ele>854.4</ele>
        <time>2021-07-04T08:25:45.000Z</time>
      </trkpt>
      <trkpt lat="42.192802" lon="-2.809515">
        <ele>854.7</ele>
        <time>2021-07-04T08:25:48.000Z</time>
      </trkpt>
      <trkpt lat="42.192722" lon="-2.809448">
        <ele>854.0</ele>
        <time>2021-07-04T08:25:51.000Z</time>
      </trkpt>
      <trkpt lat="42.192620" lon="-2.809377">
        <ele>853.7</ele>
        <time>2021-07-04T08:25:55.000Z</time>
      </trkpt>
      <trkpt lat="42.192568" lon="-2.809243">
        <ele>853.8</ele>
        <time>2021-07-04T08:25:59.000Z</time>
      </trkpt>
      <trkpt lat="42.192568" lon="-2.809093">
        <ele>854.0</ele>
        <time>2021-07-04T08:26:03.000Z</time>
      </trkpt>
      <trkpt lat="42.192572" lon="-2.808950">
        <ele>854.9</ele>
        <time>2021-07-04T08:26:07.000Z</time>
      </trkpt>
      <trkpt lat="42.192565" lon="-2.808815">
        <ele>854.5</ele>
        <time>2021-07-04T08:26:11.000Z</time>
      </trkpt>
      <trkpt lat="42.192578" lon="-2.808677">
        <ele>855.2</ele>
        <time>2021-07-04T08:26:15.000Z</time>
      </trkpt>
      <trkpt lat="42.192590" lon="-2.808538">
        <ele>855.6</ele>
        <time>2021-07-04T08:26:19.000Z</time>
      </trkpt>
      <trkpt lat="42.192557" lon="-2.808393">
        <ele>856.1</ele>
        <time>2021-07-04T08:26:23.000Z</time>
      </trkpt>
      <trkpt lat="42.192482" lon="-2.808317">
        <ele>855.8</ele>
        <time>2021-07-04T08:26:26.000Z</time>
      </trkpt>
      <trkpt lat="42.192390" lon="-2.808267">
        <ele>855.6</ele>
        <time>2021-07-04T08:26:29.000Z</time>
      </trkpt>
      <trkpt lat="42.192290" lon="-2.808248">
        <ele>855.5</ele>
        <time>2021-07-04T08:26:32.000Z</time>
      </trkpt>
      <trkpt lat="42.192195" lon="-2.808250">
        <ele>855.3</ele>
        <time>2021-07-04T08:26:35.000Z</time>
      </trkpt>
      <trkpt lat="42.192103" lon="-2.808265">
        <ele>855.6</ele>
        <time>2021-07-04T08:26:38.000Z</time>
      </trkpt>
      <trkpt lat="42.191990" lon="-2.808293">
        <ele>855.4</ele>
        <time>2021-07-04T08:26:42.000Z</time>
      </trkpt>
      <trkpt lat="42.191892" lon="-2.808317">
        <ele>855.9</ele>
        <time>2021-07-04T08:26:46.000Z</time>
      </trkpt>
      <trkpt lat="42.191797" lon="-2.808312">
        <ele>856.7</ele>
        <time>2021-07-04T08:26:50.000Z</time>
      </trkpt>
      <trkpt lat="42.191705" lon="-2.808303">
        <ele>857.3</ele>
        <time>2021-07-04T08:26:54.000Z</time>
      </trkpt>
      <trkpt lat="42.191597" lon="-2.808282">
        <ele>858.7</ele>
        <time>2021-07-04T08:26:59.000Z</time>
      </trkpt>
      <trkpt lat="42.191490" lon="-2.808240">
        <ele>858.5</ele>
        <time>2021-07-04T08:27:04.000Z</time>
      </trkpt>
      <trkpt lat="42.191405" lon="-2.808172">
        <ele>858.3</ele>
        <time>2021-07-04T08:27:08.000Z</time>
      </trkpt>
      <trkpt lat="42.191318" lon="-2.808063">
        <ele>858.8</ele>
        <time>2021-07-04T08:27:12.000Z</time>
      </trkpt>
      <trkpt lat="42.191245" lon="-2.807950">
        <ele>857.5</ele>
        <time>2021-07-04T08:27:15.000Z</time>
      </trkpt>
      <trkpt lat="42.191175" lon="-2.807813">
        <ele>857.7</ele>
        <time>2021-07-04T08:27:18.000Z</time>
      </trkpt>
      <trkpt lat="42.191123" lon="-2.807647">
        <ele>856.7</ele>
        <time>2021-07-04T08:27:21.000Z</time>
      </trkpt>
      <trkpt lat="42.191077" lon="-2.807480">
        <ele>856.5</ele>
        <time>2021-07-04T08:27:24.000Z</time>
      </trkpt>
      <trkpt lat="42.191027" lon="-2.807318">
        <ele>856.7</ele>
        <time>2021-07-04T08:27:27.000Z</time>
      </trkpt>
      <trkpt lat="42.190957" lon="-2.807190">
        <ele>856.5</ele>
        <time>2021-07-04T08:27:30.000Z</time>
      </trkpt>
      <trkpt lat="42.190855" lon="-2.807138">
        <ele>856.3</ele>
        <time>2021-07-04T08:27:33.000Z</time>
      </trkpt>
      <trkpt lat="42.190748" lon="-2.807157">
        <ele>856.2</ele>
        <time>2021-07-04T08:27:36.000Z</time>
      </trkpt>
      <trkpt lat="42.190647" lon="-2.807158">
        <ele>856.4</ele>
        <time>2021-07-04T08:27:39.000Z</time>
      </trkpt>
      <trkpt lat="42.190552" lon="-2.807117">
        <ele>856.2</ele>
        <time>2021-07-04T08:27:42.000Z</time>
      </trkpt>
      <trkpt lat="42.190467" lon="-2.807038">
        <ele>855.9</ele>
        <time>2021-07-04T08:27:45.000Z</time>
      </trkpt>
      <trkpt lat="42.190393" lon="-2.806945">
        <ele>855.9</ele>
        <time>2021-07-04T08:27:48.000Z</time>
      </trkpt>
      <trkpt lat="42.190333" lon="-2.806848">
        <ele>856.4</ele>
        <time>2021-07-04T08:27:51.000Z</time>
      </trkpt>
      <trkpt lat="42.190255" lon="-2.806732">
        <ele>857.0</ele>
        <time>2021-07-04T08:27:55.000Z</time>
      </trkpt>
      <trkpt lat="42.190188" lon="-2.806622">
        <ele>857.3</ele>
        <time>2021-07-04T08:27:59.000Z</time>
      </trkpt>
      <trkpt lat="42.190137" lon="-2.806495">
        <ele>857.7</ele>
        <time>2021-07-04T08:28:03.000Z</time>
      </trkpt>
      <trkpt lat="42.190085" lon="-2.806377">
        <ele>859.0</ele>
        <time>2021-07-04T08:28:07.000Z</time>
      </trkpt>
      <trkpt lat="42.190035" lon="-2.806265">
        <ele>858.9</ele>
        <time>2021-07-04T08:28:11.000Z</time>
      </trkpt>
      <trkpt lat="42.189998" lon="-2.806140">
        <ele>859.6</ele>
        <time>2021-07-04T08:28:15.000Z</time>
      </trkpt>
      <trkpt lat="42.189955" lon="-2.806017">
        <ele>860.2</ele>
        <time>2021-07-04T08:28:19.000Z</time>
      </trkpt>
      <trkpt lat="42.189895" lon="-2.805900">
        <ele>860.1</ele>
        <time>2021-07-04T08:28:23.000Z</time>
      </trkpt>
      <trkpt lat="42.189797" lon="-2.805865">
        <ele>860.4</ele>
        <time>2021-07-04T08:28:27.000Z</time>
      </trkpt>
      <trkpt lat="42.189720" lon="-2.805960">
        <ele>861.5</ele>
        <time>2021-07-04T08:28:31.000Z</time>
      </trkpt>
      <trkpt lat="42.189667" lon="-2.806075">
        <ele>861.8</ele>
        <time>2021-07-04T08:28:35.000Z</time>
      </trkpt>
      <trkpt lat="42.189630" lon="-2.806192">
        <ele>861.8</ele>
        <time>2021-07-04T08:28:39.000Z</time>
      </trkpt>
      <trkpt lat="42.189578" lon="-2.806295">
        <ele>862.3</ele>
        <time>2021-07-04T08:28:43.000Z</time>
      </trkpt>
      <trkpt lat="42.189513" lon="-2.806383">
        <ele>863.1</ele>
        <time>2021-07-04T08:28:47.000Z</time>
      </trkpt>
      <trkpt lat="42.189458" lon="-2.806300">
        <ele>862.8</ele>
        <time>2021-07-04T08:28:54.000Z</time>
      </trkpt>
      <trkpt lat="42.189460" lon="-2.806302">
        <ele>866.7</ele>
        <time>2021-07-04T08:28:55.000Z</time>
      </trkpt>
      <trkpt lat="42.189460" lon="-2.806292">
        <ele>858.0</ele>
        <time>2021-07-04T08:29:00.000Z</time>
      </trkpt>
      <trkpt lat="42.189458" lon="-2.806292">
        <ele>860.6</ele>
        <time>2021-07-04T08:29:03.000Z</time>
      </trkpt>
      <trkpt lat="42.189458" lon="-2.806292">
        <ele>860.7</ele>
        <time>2021-07-04T08:29:04.000Z</time>
      </trkpt>
      <trkpt lat="42.189460" lon="-2.806292">
        <ele>860.6</ele>
        <time>2021-07-04T08:29:07.000Z</time>
      </trkpt>
      <trkpt lat="42.189460" lon="-2.806292">
        <ele>860.4</ele>
        <time>2021-07-04T08:29:08.000Z</time>
      </trkpt>
      <trkpt lat="42.189463" lon="-2.806295">
        <ele>860.8</ele>
        <time>2021-07-04T08:29:11.000Z</time>
      </trkpt>
      <trkpt lat="42.189470" lon="-2.806295">
        <ele>860.5</ele>
        <time>2021-07-04T08:29:14.000Z</time>
      </trkpt>
      <trkpt lat="42.189468" lon="-2.806292">
        <ele>863.6</ele>
        <time>2021-07-04T08:29:21.000Z</time>
      </trkpt>
      <trkpt lat="42.189462" lon="-2.806287">
        <ele>859.5</ele>
        <time>2021-07-04T08:29:25.000Z</time>
      </trkpt>
      <trkpt lat="42.189463" lon="-2.806287">
        <ele>868.3</ele>
        <time>2021-07-04T08:29:28.000Z</time>
      </trkpt>
      <trkpt lat="42.189452" lon="-2.806287">
        <ele>859.8</ele>
        <time>2021-07-04T08:29:37.000Z</time>
      </trkpt>
      <trkpt lat="42.189453" lon="-2.806285">
        <ele>858.8</ele>
        <time>2021-07-04T08:30:38.000Z</time>
      </trkpt>
      <trkpt lat="42.189453" lon="-2.806285">
        <ele>858.5</ele>
        <time>2021-07-04T08:30:39.000Z</time>
      </trkpt>
      <trkpt lat="42.189455" lon="-2.806285">
        <ele>858.4</ele>
        <time>2021-07-04T08:30:50.000Z</time>
      </trkpt>
      <trkpt lat="42.189455" lon="-2.806285">
        <ele>858.3</ele>
        <time>2021-07-04T08:30:51.000Z</time>
      </trkpt>
      <trkpt lat="42.189453" lon="-2.806285">
        <ele>856.4</ele>
        <time>2021-07-04T08:32:12.000Z</time>
      </trkpt>
      <trkpt lat="42.189453" lon="-2.806285">
        <ele>856.1</ele>
        <time>2021-07-04T08:32:13.000Z</time>
      </trkpt>
      <trkpt lat="42.189452" lon="-2.806287">
        <ele>856.3</ele>
        <time>2021-07-04T08:32:20.000Z</time>
      </trkpt>
      <trkpt lat="42.189452" lon="-2.806287">
        <ele>856.1</ele>
        <time>2021-07-04T08:32:21.000Z</time>
      </trkpt>
      <trkpt lat="42.189450" lon="-2.806288">
        <ele>856.2</ele>
        <time>2021-07-04T08:32:30.000Z</time>
      </trkpt>
      <trkpt lat="42.189448" lon="-2.806288">
        <ele>856.1</ele>
        <time>2021-07-04T08:32:32.000Z</time>
      </trkpt>
      <trkpt lat="42.189448" lon="-2.806295">
        <ele>854.4</ele>
        <time>2021-07-04T08:33:13.000Z</time>
      </trkpt>
      <trkpt lat="42.189448" lon="-2.806297">
        <ele>854.3</ele>
        <time>2021-07-04T08:33:14.000Z</time>
      </trkpt>
      <trkpt lat="42.189447" lon="-2.806297">
        <ele>854.0</ele>
        <time>2021-07-04T08:33:24.000Z</time>
      </trkpt>
      <trkpt lat="42.189445" lon="-2.806293">
        <ele>854.1</ele>
        <time>2021-07-04T08:33:26.000Z</time>
      </trkpt>
      <trkpt lat="42.189443" lon="-2.806287">
        <ele>853.9</ele>
        <time>2021-07-04T08:33:29.000Z</time>
      </trkpt>
      <trkpt lat="42.189442" lon="-2.806283">
        <ele>854.1</ele>
        <time>2021-07-04T08:33:31.000Z</time>
      </trkpt>
      <trkpt lat="42.189443" lon="-2.806287">
        <ele>853.8</ele>
        <time>2021-07-04T08:33:34.000Z</time>
      </trkpt>
      <trkpt lat="42.189450" lon="-2.806297">
        <ele>854.1</ele>
        <time>2021-07-04T08:33:38.000Z</time>
      </trkpt>
      <trkpt lat="42.189452" lon="-2.806300">
        <ele>854.1</ele>
        <time>2021-07-04T08:33:39.000Z</time>
      </trkpt>
      <trkpt lat="42.189452" lon="-2.806302">
        <ele>854.2</ele>
        <time>2021-07-04T08:33:40.000Z</time>
      </trkpt>
      <trkpt lat="42.189453" lon="-2.806303">
        <ele>854.3</ele>
        <time>2021-07-04T08:33:41.000Z</time>
      </trkpt>
      <trkpt lat="42.189453" lon="-2.806303">
        <ele>854.3</ele>
        <time>2021-07-04T08:33:42.000Z</time>
      </trkpt>
      <trkpt lat="42.189455" lon="-2.806305">
        <ele>854.3</ele>
        <time>2021-07-04T08:33:43.000Z</time>
      </trkpt>
      <trkpt lat="42.189463" lon="-2.806332">
        <ele>854.1</ele>
        <time>2021-07-04T08:33:48.000Z</time>
      </trkpt>
      <trkpt lat="42.189465" lon="-2.806333">
        <ele>854.0</ele>
        <time>2021-07-04T08:33:49.000Z</time>
      </trkpt>
      <trkpt lat="42.189467" lon="-2.806332">
        <ele>853.7</ele>
        <time>2021-07-04T08:33:51.000Z</time>
      </trkpt>
      <trkpt lat="42.189468" lon="-2.806328">
        <ele>853.7</ele>
        <time>2021-07-04T08:33:52.000Z</time>
      </trkpt>
      <trkpt lat="42.189473" lon="-2.806323">
        <ele>853.4</ele>
        <time>2021-07-04T08:33:55.000Z</time>
      </trkpt>
      <trkpt lat="42.189470" lon="-2.806325">
        <ele>853.4</ele>
        <time>2021-07-04T08:33:56.000Z</time>
      </trkpt>
      <trkpt lat="42.189468" lon="-2.806325">
        <ele>853.6</ele>
        <time>2021-07-04T08:33:58.000Z</time>
      </trkpt>
      <trkpt lat="42.189470" lon="-2.806328">
        <ele>853.5</ele>
        <time>2021-07-04T08:34:00.000Z</time>
      </trkpt>
      <trkpt lat="42.189472" lon="-2.806343">
        <ele>853.5</ele>
        <time>2021-07-04T08:34:07.000Z</time>
      </trkpt>
      <trkpt lat="42.189475" lon="-2.806347">
        <ele>852.2</ele>
        <time>2021-07-04T08:34:44.000Z</time>
      </trkpt>
      <trkpt lat="42.189470" lon="-2.806345">
        <ele>852.5</ele>
        <time>2021-07-04T08:34:49.000Z</time>
      </trkpt>
      <trkpt lat="42.189467" lon="-2.806340">
        <ele>852.2</ele>
        <time>2021-07-04T08:34:50.000Z</time>
      </trkpt>
      <trkpt lat="42.189468" lon="-2.806340">
        <ele>851.8</ele>
        <time>2021-07-04T08:34:52.000Z</time>
      </trkpt>
      <trkpt lat="42.189467" lon="-2.806340">
        <ele>851.7</ele>
        <time>2021-07-04T08:34:54.000Z</time>
      </trkpt>
      <trkpt lat="42.189467" lon="-2.806338">
        <ele>851.8</ele>
        <time>2021-07-04T08:34:55.000Z</time>
      </trkpt>
      <trkpt lat="42.189463" lon="-2.806338">
        <ele>851.8</ele>
        <time>2021-07-04T08:34:56.000Z</time>
      </trkpt>
      <trkpt lat="42.189462" lon="-2.806342">
        <ele>851.8</ele>
        <time>2021-07-04T08:34:58.000Z</time>
      </trkpt>
      <trkpt lat="42.189460" lon="-2.806345">
        <ele>850.8</ele>
        <time>2021-07-04T08:35:30.000Z</time>
      </trkpt>
      <trkpt lat="42.189453" lon="-2.806368">
        <ele>850.2</ele>
        <time>2021-07-04T08:35:42.000Z</time>
      </trkpt>
      <trkpt lat="42.189453" lon="-2.806372">
        <ele>850.1</ele>
        <time>2021-07-04T08:35:43.000Z</time>
      </trkpt>
      <trkpt lat="42.189445" lon="-2.806382">
        <ele>850.3</ele>
        <time>2021-07-04T08:35:46.000Z</time>
      </trkpt>
      <trkpt lat="42.189447" lon="-2.806380">
        <ele>849.1</ele>
        <time>2021-07-04T08:36:28.000Z</time>
      </trkpt>
      <trkpt lat="42.189447" lon="-2.806380">
        <ele>849.1</ele>
        <time>2021-07-04T08:36:29.000Z</time>
      </trkpt>
      <trkpt lat="42.189450" lon="-2.806377">
        <ele>849.2</ele>
        <time>2021-07-04T08:36:31.000Z</time>
      </trkpt>
      <trkpt lat="42.189450" lon="-2.806377">
        <ele>849.1</ele>
        <time>2021-07-04T08:36:32.000Z</time>
      </trkpt>
      <trkpt lat="42.189452" lon="-2.806375">
        <ele>848.9</ele>
        <time>2021-07-04T08:36:43.000Z</time>
      </trkpt>
      <trkpt lat="42.189452" lon="-2.806375">
        <ele>848.8</ele>
        <time>2021-07-04T08:36:44.000Z</time>
      </trkpt>
      <trkpt lat="42.189453" lon="-2.806373">
        <ele>847.9</ele>
        <time>2021-07-04T08:37:14.000Z</time>
      </trkpt>
      <trkpt lat="42.189453" lon="-2.806373">
        <ele>847.8</ele>
        <time>2021-07-04T08:37:15.000Z</time>
      </trkpt>
      <trkpt lat="42.189455" lon="-2.806368">
        <ele>847.5</ele>
        <time>2021-07-04T08:37:46.000Z</time>
      </trkpt>
      <trkpt lat="42.189455" lon="-2.806368">
        <ele>847.5</ele>
        <time>2021-07-04T08:37:47.000Z</time>
      </trkpt>
      <trkpt lat="42.189457" lon="-2.806367">
        <ele>847.3</ele>
        <time>2021-07-04T08:38:04.000Z</time>
      </trkpt>
      <trkpt lat="42.189482" lon="-2.806370">
        <ele>847.3</ele>
        <time>2021-07-04T08:38:10.000Z</time>
      </trkpt>
      <trkpt lat="42.189485" lon="-2.806372">
        <ele>847.3</ele>
        <time>2021-07-04T08:38:14.000Z</time>
      </trkpt>
      <trkpt lat="42.189477" lon="-2.806387">
        <ele>847.1</ele>
        <time>2021-07-04T08:38:21.000Z</time>
      </trkpt>
      <trkpt lat="42.189475" lon="-2.806387">
        <ele>846.9</ele>
        <time>2021-07-04T08:38:29.000Z</time>
      </trkpt>
      <trkpt lat="42.189475" lon="-2.806387">
        <ele>847.0</ele>
        <time>2021-07-04T08:38:30.000Z</time>
      </trkpt>
      <trkpt lat="42.189478" lon="-2.806375">
        <ele>847.2</ele>
        <time>2021-07-04T08:38:35.000Z</time>
      </trkpt>
      <trkpt lat="42.189478" lon="-2.806375">
        <ele>847.4</ele>
        <time>2021-07-04T08:38:36.000Z</time>
      </trkpt>
      <trkpt lat="42.189478" lon="-2.806365">
        <ele>847.5</ele>
        <time>2021-07-04T08:38:42.000Z</time>
      </trkpt>
      <trkpt lat="42.189490" lon="-2.806348">
        <ele>847.1</ele>
        <time>2021-07-04T08:38:46.000Z</time>
      </trkpt>
      <trkpt lat="42.189488" lon="-2.806345">
        <ele>847.2</ele>
        <time>2021-07-04T08:38:51.000Z</time>
      </trkpt>
      <trkpt lat="42.189488" lon="-2.806345">
        <ele>847.1</ele>
        <time>2021-07-04T08:38:52.000Z</time>
      </trkpt>
      <trkpt lat="42.189490" lon="-2.806345">
        <ele>847.3</ele>
        <time>2021-07-04T08:38:54.000Z</time>
      </trkpt>
      <trkpt lat="42.189500" lon="-2.806347">
        <ele>847.2</ele>
        <time>2021-07-04T08:38:59.000Z</time>
      </trkpt>
      <trkpt lat="42.189502" lon="-2.806345">
        <ele>847.1</ele>
        <time>2021-07-04T08:39:08.000Z</time>
      </trkpt>
      <trkpt lat="42.189502" lon="-2.806345">
        <ele>847.4</ele>
        <time>2021-07-04T08:39:09.000Z</time>
      </trkpt>
      <trkpt lat="42.189503" lon="-2.806338">
        <ele>847.2</ele>
        <time>2021-07-04T08:39:26.000Z</time>
      </trkpt>
      <trkpt lat="42.189503" lon="-2.806338">
        <ele>847.2</ele>
        <time>2021-07-04T08:39:27.000Z</time>
      </trkpt>
      <trkpt lat="42.189505" lon="-2.806337">
        <ele>847.3</ele>
        <time>2021-07-04T08:39:28.000Z</time>
      </trkpt>
      <trkpt lat="42.189505" lon="-2.806337">
        <ele>847.2</ele>
        <time>2021-07-04T08:39:29.000Z</time>
      </trkpt>
      <trkpt lat="42.189503" lon="-2.806337">
        <ele>847.3</ele>
        <time>2021-07-04T08:39:49.000Z</time>
      </trkpt>
      <trkpt lat="42.189503" lon="-2.806337">
        <ele>847.5</ele>
        <time>2021-07-04T08:39:50.000Z</time>
      </trkpt>
      <trkpt lat="42.189503" lon="-2.806333">
        <ele>847.0</ele>
        <time>2021-07-04T08:40:43.000Z</time>
      </trkpt>
      <trkpt lat="42.189507" lon="-2.806327">
        <ele>847.2</ele>
        <time>2021-07-04T08:40:45.000Z</time>
      </trkpt>
      <trkpt lat="42.189503" lon="-2.806327">
        <ele>840.6</ele>
        <time>2021-07-04T08:40:48.000Z</time>
      </trkpt>
      <trkpt lat="42.189498" lon="-2.806327">
        <ele>848.0</ele>
        <time>2021-07-04T08:40:55.000Z</time>
      </trkpt>
      <trkpt lat="42.189497" lon="-2.806327">
        <ele>848.9</ele>
        <time>2021-07-04T08:41:03.000Z</time>
      </trkpt>
      <trkpt lat="42.189497" lon="-2.806327">
        <ele>848.8</ele>
        <time>2021-07-04T08:41:04.000Z</time>
      </trkpt>
      <trkpt lat="42.189497" lon="-2.806320">
        <ele>848.9</ele>
        <time>2021-07-04T08:41:07.000Z</time>
      </trkpt>
      <trkpt lat="42.189497" lon="-2.806318">
        <ele>848.8</ele>
        <time>2021-07-04T08:41:08.000Z</time>
      </trkpt>
      <trkpt lat="42.189498" lon="-2.806317">
        <ele>848.9</ele>
        <time>2021-07-04T08:41:09.000Z</time>
      </trkpt>
      <trkpt lat="42.189498" lon="-2.806317">
        <ele>849.1</ele>
        <time>2021-07-04T08:41:10.000Z</time>
      </trkpt>
      <trkpt lat="42.189498" lon="-2.806322">
        <ele>849.4</ele>
        <time>2021-07-04T08:41:21.000Z</time>
      </trkpt>
      <trkpt lat="42.189510" lon="-2.806357">
        <ele>846.0</ele>
        <time>2021-07-04T08:41:28.000Z</time>
      </trkpt>
      <trkpt lat="42.189515" lon="-2.806363">
        <ele>848.4</ele>
        <time>2021-07-04T08:41:30.000Z</time>
      </trkpt>
      <trkpt lat="42.189437" lon="-2.806440">
        <ele>849.2</ele>
        <time>2021-07-04T08:41:37.000Z</time>
      </trkpt>
      <trkpt lat="42.189327" lon="-2.806420">
        <ele>850.0</ele>
        <time>2021-07-04T08:41:42.000Z</time>
      </trkpt>
      <trkpt lat="42.189238" lon="-2.806387">
        <ele>850.1</ele>
        <time>2021-07-04T08:41:46.000Z</time>
      </trkpt>
      <trkpt lat="42.189157" lon="-2.806323">
        <ele>849.7</ele>
        <time>2021-07-04T08:41:50.000Z</time>
      </trkpt>
      <trkpt lat="42.189077" lon="-2.806233">
        <ele>850.4</ele>
        <time>2021-07-04T08:41:55.000Z</time>
      </trkpt>
      <trkpt lat="42.189018" lon="-2.806138">
        <ele>851.0</ele>
        <time>2021-07-04T08:41:59.000Z</time>
      </trkpt>
      <trkpt lat="42.188945" lon="-2.806027">
        <ele>850.4</ele>
        <time>2021-07-04T08:42:04.000Z</time>
      </trkpt>
      <trkpt lat="42.188902" lon="-2.805915">
        <ele>852.2</ele>
        <time>2021-07-04T08:42:08.000Z</time>
      </trkpt>
      <trkpt lat="42.188852" lon="-2.805790">
        <ele>852.9</ele>
        <time>2021-07-04T08:42:13.000Z</time>
      </trkpt>
      <trkpt lat="42.188835" lon="-2.805650">
        <ele>851.3</ele>
        <time>2021-07-04T08:42:19.000Z</time>
      </trkpt>
      <trkpt lat="42.188827" lon="-2.805525">
        <ele>853.9</ele>
        <time>2021-07-04T08:42:24.000Z</time>
      </trkpt>
      <trkpt lat="42.188810" lon="-2.805390">
        <ele>854.2</ele>
        <time>2021-07-04T08:42:30.000Z</time>
      </trkpt>
      <trkpt lat="42.188795" lon="-2.805265">
        <ele>855.3</ele>
        <time>2021-07-04T08:42:36.000Z</time>
      </trkpt>
      <trkpt lat="42.188785" lon="-2.805128">
        <ele>855.4</ele>
        <time>2021-07-04T08:42:42.000Z</time>
      </trkpt>
      <trkpt lat="42.188788" lon="-2.805007">
        <ele>857.0</ele>
        <time>2021-07-04T08:42:48.000Z</time>
      </trkpt>
      <trkpt lat="42.188773" lon="-2.804877">
        <ele>856.9</ele>
        <time>2021-07-04T08:42:55.000Z</time>
      </trkpt>
      <trkpt lat="42.188757" lon="-2.804743">
        <ele>857.2</ele>
        <time>2021-07-04T08:43:02.000Z</time>
      </trkpt>
      <trkpt lat="42.188718" lon="-2.804628">
        <ele>858.5</ele>
        <time>2021-07-04T08:43:08.000Z</time>
      </trkpt>
      <trkpt lat="42.188680" lon="-2.804517">
        <ele>859.4</ele>
        <time>2021-07-04T08:43:14.000Z</time>
      </trkpt>
      <trkpt lat="42.188587" lon="-2.804470">
        <ele>859.7</ele>
        <time>2021-07-04T08:43:19.000Z</time>
      </trkpt>
      <trkpt lat="42.188483" lon="-2.804412">
        <ele>860.1</ele>
        <time>2021-07-04T08:43:23.000Z</time>
      </trkpt>
      <trkpt lat="42.188383" lon="-2.804383">
        <ele>859.5</ele>
        <time>2021-07-04T08:43:26.000Z</time>
      </trkpt>
      <trkpt lat="42.188273" lon="-2.804387">
        <ele>860.2</ele>
        <time>2021-07-04T08:43:30.000Z</time>
      </trkpt>
      <trkpt lat="42.188173" lon="-2.804410">
        <ele>861.0</ele>
        <time>2021-07-04T08:43:34.000Z</time>
      </trkpt>
      <trkpt lat="42.188082" lon="-2.804413">
        <ele>862.2</ele>
        <time>2021-07-04T08:43:38.000Z</time>
      </trkpt>
      <trkpt lat="42.187978" lon="-2.804415">
        <ele>862.0</ele>
        <time>2021-07-04T08:43:43.000Z</time>
      </trkpt>
      <trkpt lat="42.187870" lon="-2.804397">
        <ele>862.2</ele>
        <time>2021-07-04T08:43:48.000Z</time>
      </trkpt>
      <trkpt lat="42.187772" lon="-2.804397">
        <ele>862.0</ele>
        <time>2021-07-04T08:43:52.000Z</time>
      </trkpt>
      <trkpt lat="42.187675" lon="-2.804377">
        <ele>862.2</ele>
        <time>2021-07-04T08:43:56.000Z</time>
      </trkpt>
      <trkpt lat="42.187583" lon="-2.804357">
        <ele>862.6</ele>
        <time>2021-07-04T08:44:00.000Z</time>
      </trkpt>
      <trkpt lat="42.187485" lon="-2.804357">
        <ele>862.0</ele>
        <time>2021-07-04T08:44:03.000Z</time>
      </trkpt>
      <trkpt lat="42.187370" lon="-2.804345">
        <ele>861.4</ele>
        <time>2021-07-04T08:44:07.000Z</time>
      </trkpt>
      <trkpt lat="42.187272" lon="-2.804365">
        <ele>862.7</ele>
        <time>2021-07-04T08:44:11.000Z</time>
      </trkpt>
      <trkpt lat="42.187187" lon="-2.804445">
        <ele>863.0</ele>
        <time>2021-07-04T08:44:16.000Z</time>
      </trkpt>
      <trkpt lat="42.187165" lon="-2.804572">
        <ele>863.6</ele>
        <time>2021-07-04T08:44:21.000Z</time>
      </trkpt>
      <trkpt lat="42.187168" lon="-2.804705">
        <ele>865.1</ele>
        <time>2021-07-04T08:44:26.000Z</time>
      </trkpt>
      <trkpt lat="42.187190" lon="-2.804842">
        <ele>865.4</ele>
        <time>2021-07-04T08:44:31.000Z</time>
      </trkpt>
      <trkpt lat="42.187207" lon="-2.804965">
        <ele>866.2</ele>
        <time>2021-07-04T08:44:37.000Z</time>
      </trkpt>
      <trkpt lat="42.187192" lon="-2.805098">
        <ele>867.0</ele>
        <time>2021-07-04T08:44:43.000Z</time>
      </trkpt>
      <trkpt lat="42.187160" lon="-2.805233">
        <ele>868.2</ele>
        <time>2021-07-04T08:44:49.000Z</time>
      </trkpt>
      <trkpt lat="42.187133" lon="-2.805353">
        <ele>868.6</ele>
        <time>2021-07-04T08:44:54.000Z</time>
      </trkpt>
      <trkpt lat="42.187090" lon="-2.805483">
        <ele>869.5</ele>
        <time>2021-07-04T08:45:00.000Z</time>
      </trkpt>
      <trkpt lat="42.187037" lon="-2.805592">
        <ele>870.8</ele>
        <time>2021-07-04T08:45:05.000Z</time>
      </trkpt>
      <trkpt lat="42.186970" lon="-2.805697">
        <ele>871.6</ele>
        <time>2021-07-04T08:45:10.000Z</time>
      </trkpt>
      <trkpt lat="42.186892" lon="-2.805773">
        <ele>871.1</ele>
        <time>2021-07-04T08:45:15.000Z</time>
      </trkpt>
      <trkpt lat="42.186797" lon="-2.805800">
        <ele>872.2</ele>
        <time>2021-07-04T08:45:20.000Z</time>
      </trkpt>
      <trkpt lat="42.186698" lon="-2.805797">
        <ele>873.1</ele>
        <time>2021-07-04T08:45:25.000Z</time>
      </trkpt>
      <trkpt lat="42.186597" lon="-2.805777">
        <ele>873.5</ele>
        <time>2021-07-04T08:45:30.000Z</time>
      </trkpt>
      <trkpt lat="42.186507" lon="-2.805733">
        <ele>874.2</ele>
        <time>2021-07-04T08:45:35.000Z</time>
      </trkpt>
      <trkpt lat="42.186420" lon="-2.805657">
        <ele>875.6</ele>
        <time>2021-07-04T08:45:40.000Z</time>
      </trkpt>
      <trkpt lat="42.186337" lon="-2.805573">
        <ele>875.9</ele>
        <time>2021-07-04T08:45:45.000Z</time>
      </trkpt>
      <trkpt lat="42.186247" lon="-2.805498">
        <ele>876.4</ele>
        <time>2021-07-04T08:45:50.000Z</time>
      </trkpt>
      <trkpt lat="42.186173" lon="-2.805413">
        <ele>877.0</ele>
        <time>2021-07-04T08:45:55.000Z</time>
      </trkpt>
      <trkpt lat="42.186102" lon="-2.805310">
        <ele>878.4</ele>
        <time>2021-07-04T08:46:00.000Z</time>
      </trkpt>
      <trkpt lat="42.186032" lon="-2.805210">
        <ele>879.4</ele>
        <time>2021-07-04T08:46:05.000Z</time>
      </trkpt>
      <trkpt lat="42.185978" lon="-2.805102">
        <ele>879.7</ele>
        <time>2021-07-04T08:46:10.000Z</time>
      </trkpt>
      <trkpt lat="42.185905" lon="-2.804998">
        <ele>880.6</ele>
        <time>2021-07-04T08:46:16.000Z</time>
      </trkpt>
      <trkpt lat="42.185808" lon="-2.804937">
        <ele>881.4</ele>
        <time>2021-07-04T08:46:22.000Z</time>
      </trkpt>
      <trkpt lat="42.185715" lon="-2.804905">
        <ele>882.6</ele>
        <time>2021-07-04T08:46:27.000Z</time>
      </trkpt>
      <trkpt lat="42.185617" lon="-2.804867">
        <ele>882.4</ele>
        <time>2021-07-04T08:46:32.000Z</time>
      </trkpt>
      <trkpt lat="42.185522" lon="-2.804833">
        <ele>883.0</ele>
        <time>2021-07-04T08:46:37.000Z</time>
      </trkpt>
      <trkpt lat="42.185430" lon="-2.804793">
        <ele>884.0</ele>
        <time>2021-07-04T08:46:42.000Z</time>
      </trkpt>
      <trkpt lat="42.185335" lon="-2.804748">
        <ele>885.5</ele>
        <time>2021-07-04T08:46:47.000Z</time>
      </trkpt>
      <trkpt lat="42.185240" lon="-2.804715">
        <ele>885.3</ele>
        <time>2021-07-04T08:46:52.000Z</time>
      </trkpt>
      <trkpt lat="42.185140" lon="-2.804677">
        <ele>885.7</ele>
        <time>2021-07-04T08:46:57.000Z</time>
      </trkpt>
      <trkpt lat="42.185043" lon="-2.804632">
        <ele>886.2</ele>
        <time>2021-07-04T08:47:02.000Z</time>
      </trkpt>
      <trkpt lat="42.184948" lon="-2.804597">
        <ele>886.4</ele>
        <time>2021-07-04T08:47:07.000Z</time>
      </trkpt>
      <trkpt lat="42.184850" lon="-2.804563">
        <ele>887.5</ele>
        <time>2021-07-04T08:47:12.000Z</time>
      </trkpt>
      <trkpt lat="42.184755" lon="-2.804552">
        <ele>887.4</ele>
        <time>2021-07-04T08:47:17.000Z</time>
      </trkpt>
      <trkpt lat="42.184660" lon="-2.804525">
        <ele>888.5</ele>
        <time>2021-07-04T08:47:22.000Z</time>
      </trkpt>
      <trkpt lat="42.184570" lon="-2.804502">
        <ele>890.3</ele>
        <time>2021-07-04T08:47:27.000Z</time>
      </trkpt>
      <trkpt lat="42.184485" lon="-2.804447">
        <ele>889.0</ele>
        <time>2021-07-04T08:47:32.000Z</time>
      </trkpt>
      <trkpt lat="42.184408" lon="-2.804378">
        <ele>890.5</ele>
        <time>2021-07-04T08:47:37.000Z</time>
      </trkpt>
      <trkpt lat="42.184340" lon="-2.804297">
        <ele>890.4</ele>
        <time>2021-07-04T08:47:42.000Z</time>
      </trkpt>
      <trkpt lat="42.184267" lon="-2.804218">
        <ele>891.7</ele>
        <time>2021-07-04T08:47:47.000Z</time>
      </trkpt>
      <trkpt lat="42.184198" lon="-2.804125">
        <ele>891.4</ele>
        <time>2021-07-04T08:47:52.000Z</time>
      </trkpt>
      <trkpt lat="42.184142" lon="-2.804030">
        <ele>892.4</ele>
        <time>2021-07-04T08:47:57.000Z</time>
      </trkpt>
      <trkpt lat="42.184082" lon="-2.803923">
        <ele>892.0</ele>
        <time>2021-07-04T08:48:02.000Z</time>
      </trkpt>
      <trkpt lat="42.184033" lon="-2.803810">
        <ele>892.5</ele>
        <time>2021-07-04T08:48:06.000Z</time>
      </trkpt>
      <trkpt lat="42.183972" lon="-2.803722">
        <ele>892.9</ele>
        <time>2021-07-04T08:48:10.000Z</time>
      </trkpt>
      <trkpt lat="42.183907" lon="-2.803598">
        <ele>892.9</ele>
        <time>2021-07-04T08:48:15.000Z</time>
      </trkpt>
      <trkpt lat="42.183838" lon="-2.803500">
        <ele>893.1</ele>
        <time>2021-07-04T08:48:19.000Z</time>
      </trkpt>
      <trkpt lat="42.183775" lon="-2.803405">
        <ele>893.7</ele>
        <time>2021-07-04T08:48:23.000Z</time>
      </trkpt>
      <trkpt lat="42.183693" lon="-2.803305">
        <ele>894.5</ele>
        <time>2021-07-04T08:48:28.000Z</time>
      </trkpt>
      <trkpt lat="42.183617" lon="-2.803215">
        <ele>894.8</ele>
        <time>2021-07-04T08:48:33.000Z</time>
      </trkpt>
      <trkpt lat="42.183528" lon="-2.803157">
        <ele>896.4</ele>
        <time>2021-07-04T08:48:38.000Z</time>
      </trkpt>
      <trkpt lat="42.183427" lon="-2.803122">
        <ele>896.9</ele>
        <time>2021-07-04T08:48:43.000Z</time>
      </trkpt>
      <trkpt lat="42.183323" lon="-2.803092">
        <ele>894.4</ele>
        <time>2021-07-04T08:48:48.000Z</time>
      </trkpt>
      <trkpt lat="42.183230" lon="-2.803033">
        <ele>898.1</ele>
        <time>2021-07-04T08:48:53.000Z</time>
      </trkpt>
      <trkpt lat="42.183137" lon="-2.802972">
        <ele>898.6</ele>
        <time>2021-07-04T08:48:58.000Z</time>
      </trkpt>
      <trkpt lat="42.183040" lon="-2.802920">
        <ele>897.5</ele>
        <time>2021-07-04T08:49:03.000Z</time>
      </trkpt>
      <trkpt lat="42.182945" lon="-2.802890">
        <ele>897.5</ele>
        <time>2021-07-04T08:49:07.000Z</time>
      </trkpt>
      <trkpt lat="42.182852" lon="-2.802860">
        <ele>897.5</ele>
        <time>2021-07-04T08:49:11.000Z</time>
      </trkpt>
      <trkpt lat="42.182757" lon="-2.802823">
        <ele>897.9</ele>
        <time>2021-07-04T08:49:15.000Z</time>
      </trkpt>
      <trkpt lat="42.182662" lon="-2.802783">
        <ele>898.4</ele>
        <time>2021-07-04T08:49:19.000Z</time>
      </trkpt>
      <trkpt lat="42.182567" lon="-2.802733">
        <ele>898.4</ele>
        <time>2021-07-04T08:49:23.000Z</time>
      </trkpt>
      <trkpt lat="42.182483" lon="-2.802668">
        <ele>898.3</ele>
        <time>2021-07-04T08:49:27.000Z</time>
      </trkpt>
      <trkpt lat="42.182512" lon="-2.802663">
        <ele>896.5</ele>
        <time>2021-07-04T08:49:38.000Z</time>
      </trkpt>
      <trkpt lat="42.182510" lon="-2.802667">
        <ele>896.9</ele>
        <time>2021-07-04T08:49:39.000Z</time>
      </trkpt>
      <trkpt lat="42.182510" lon="-2.802667">
        <ele>898.3</ele>
        <time>2021-07-04T08:49:40.000Z</time>
      </trkpt>
      <trkpt lat="42.182512" lon="-2.802667">
        <ele>899.1</ele>
        <time>2021-07-04T08:49:44.000Z</time>
      </trkpt>
      <trkpt lat="42.182515" lon="-2.802657">
        <ele>897.5</ele>
        <time>2021-07-04T08:49:47.000Z</time>
      </trkpt>
      <trkpt lat="42.182518" lon="-2.802655">
        <ele>897.4</ele>
        <time>2021-07-04T08:50:07.000Z</time>
      </trkpt>
      <trkpt lat="42.182435" lon="-2.802600">
        <ele>896.5</ele>
        <time>2021-07-04T08:50:16.000Z</time>
      </trkpt>
      <trkpt lat="42.182345" lon="-2.802567">
        <ele>898.3</ele>
        <time>2021-07-04T08:50:20.000Z</time>
      </trkpt>
      <trkpt lat="42.182257" lon="-2.802515">
        <ele>898.8</ele>
        <time>2021-07-04T08:50:24.000Z</time>
      </trkpt>
      <trkpt lat="42.182175" lon="-2.802458">
        <ele>898.5</ele>
        <time>2021-07-04T08:50:28.000Z</time>
      </trkpt>
      <trkpt lat="42.182093" lon="-2.802393">
        <ele>898.6</ele>
        <time>2021-07-04T08:50:32.000Z</time>
      </trkpt>
      <trkpt lat="42.182012" lon="-2.802328">
        <ele>899.0</ele>
        <time>2021-07-04T08:50:36.000Z</time>
      </trkpt>
      <trkpt lat="42.181920" lon="-2.802252">
        <ele>899.8</ele>
        <time>2021-07-04T08:50:41.000Z</time>
      </trkpt>
      <trkpt lat="42.181840" lon="-2.802192">
        <ele>899.7</ele>
        <time>2021-07-04T08:50:45.000Z</time>
      </trkpt>
      <trkpt lat="42.181742" lon="-2.802125">
        <ele>900.8</ele>
        <time>2021-07-04T08:50:50.000Z</time>
      </trkpt>
      <trkpt lat="42.181640" lon="-2.802125">
        <ele>901.4</ele>
        <time>2021-07-04T08:50:54.000Z</time>
      </trkpt>
      <trkpt lat="42.181540" lon="-2.802182">
        <ele>901.6</ele>
        <time>2021-07-04T08:50:58.000Z</time>
      </trkpt>
      <trkpt lat="42.181448" lon="-2.802248">
        <ele>901.9</ele>
        <time>2021-07-04T08:51:02.000Z</time>
      </trkpt>
      <trkpt lat="42.181368" lon="-2.802322">
        <ele>901.7</ele>
        <time>2021-07-04T08:51:06.000Z</time>
      </trkpt>
      <trkpt lat="42.181298" lon="-2.802412">
        <ele>902.1</ele>
        <time>2021-07-04T08:51:10.000Z</time>
      </trkpt>
      <trkpt lat="42.181212" lon="-2.802503">
        <ele>902.4</ele>
        <time>2021-07-04T08:51:14.000Z</time>
      </trkpt>
      <trkpt lat="42.181115" lon="-2.802563">
        <ele>903.1</ele>
        <time>2021-07-04T08:51:18.000Z</time>
      </trkpt>
      <trkpt lat="42.181008" lon="-2.802562">
        <ele>903.4</ele>
        <time>2021-07-04T08:51:22.000Z</time>
      </trkpt>
      <trkpt lat="42.180905" lon="-2.802523">
        <ele>903.7</ele>
        <time>2021-07-04T08:51:26.000Z</time>
      </trkpt>
      <trkpt lat="42.180815" lon="-2.802498">
        <ele>903.6</ele>
        <time>2021-07-04T08:51:29.000Z</time>
      </trkpt>
      <trkpt lat="42.180717" lon="-2.802497">
        <ele>903.3</ele>
        <time>2021-07-04T08:51:32.000Z</time>
      </trkpt>
      <trkpt lat="42.180618" lon="-2.802495">
        <ele>903.6</ele>
        <time>2021-07-04T08:51:35.000Z</time>
      </trkpt>
      <trkpt lat="42.180523" lon="-2.802508">
        <ele>903.5</ele>
        <time>2021-07-04T08:51:38.000Z</time>
      </trkpt>
      <trkpt lat="42.180433" lon="-2.802537">
        <ele>904.3</ele>
        <time>2021-07-04T08:51:41.000Z</time>
      </trkpt>
      <trkpt lat="42.180328" lon="-2.802593">
        <ele>903.8</ele>
        <time>2021-07-04T08:51:45.000Z</time>
      </trkpt>
      <trkpt lat="42.180232" lon="-2.802642">
        <ele>904.8</ele>
        <time>2021-07-04T08:51:49.000Z</time>
      </trkpt>
      <trkpt lat="42.180128" lon="-2.802670">
        <ele>904.8</ele>
        <time>2021-07-04T08:51:53.000Z</time>
      </trkpt>
      <trkpt lat="42.180028" lon="-2.802683">
        <ele>905.1</ele>
        <time>2021-07-04T08:51:57.000Z</time>
      </trkpt>
      <trkpt lat="42.179935" lon="-2.802697">
        <ele>906.0</ele>
        <time>2021-07-04T08:52:01.000Z</time>
      </trkpt>
      <trkpt lat="42.179840" lon="-2.802727">
        <ele>906.4</ele>
        <time>2021-07-04T08:52:05.000Z</time>
      </trkpt>
      <trkpt lat="42.179743" lon="-2.802753">
        <ele>906.3</ele>
        <time>2021-07-04T08:52:09.000Z</time>
      </trkpt>
      <trkpt lat="42.179645" lon="-2.802793">
        <ele>907.4</ele>
        <time>2021-07-04T08:52:13.000Z</time>
      </trkpt>
      <trkpt lat="42.179550" lon="-2.802835">
        <ele>907.3</ele>
        <time>2021-07-04T08:52:17.000Z</time>
      </trkpt>
      <trkpt lat="42.179462" lon="-2.802898">
        <ele>908.0</ele>
        <time>2021-07-04T08:52:21.000Z</time>
      </trkpt>
      <trkpt lat="42.179387" lon="-2.802988">
        <ele>908.5</ele>
        <time>2021-07-04T08:52:25.000Z</time>
      </trkpt>
      <trkpt lat="42.179315" lon="-2.803093">
        <ele>909.1</ele>
        <time>2021-07-04T08:52:29.000Z</time>
      </trkpt>
      <trkpt lat="42.179228" lon="-2.803172">
        <ele>908.8</ele>
        <time>2021-07-04T08:52:33.000Z</time>
      </trkpt>
      <trkpt lat="42.179130" lon="-2.803222">
        <ele>909.8</ele>
        <time>2021-07-04T08:52:37.000Z</time>
      </trkpt>
      <trkpt lat="42.179022" lon="-2.803235">
        <ele>909.7</ele>
        <time>2021-07-04T08:52:41.000Z</time>
      </trkpt>
      <trkpt lat="42.178915" lon="-2.803225">
        <ele>910.3</ele>
        <time>2021-07-04T08:52:45.000Z</time>
      </trkpt>
      <trkpt lat="42.178807" lon="-2.803210">
        <ele>910.9</ele>
        <time>2021-07-04T08:52:49.000Z</time>
      </trkpt>
      <trkpt lat="42.178700" lon="-2.803183">
        <ele>910.8</ele>
        <time>2021-07-04T08:52:53.000Z</time>
      </trkpt>
      <trkpt lat="42.178600" lon="-2.803147">
        <ele>911.6</ele>
        <time>2021-07-04T08:52:57.000Z</time>
      </trkpt>
      <trkpt lat="42.178515" lon="-2.803088">
        <ele>912.3</ele>
        <time>2021-07-04T08:53:01.000Z</time>
      </trkpt>
      <trkpt lat="42.178448" lon="-2.802997">
        <ele>913.3</ele>
        <time>2021-07-04T08:53:05.000Z</time>
      </trkpt>
      <trkpt lat="42.178390" lon="-2.802900">
        <ele>914.2</ele>
        <time>2021-07-04T08:53:09.000Z</time>
      </trkpt>
      <trkpt lat="42.178328" lon="-2.802792">
        <ele>915.3</ele>
        <time>2021-07-04T08:53:14.000Z</time>
      </trkpt>
      <trkpt lat="42.178257" lon="-2.802692">
        <ele>916.0</ele>
        <time>2021-07-04T08:53:19.000Z</time>
      </trkpt>
      <trkpt lat="42.178160" lon="-2.802637">
        <ele>916.7</ele>
        <time>2021-07-04T08:53:24.000Z</time>
      </trkpt>
      <trkpt lat="42.178058" lon="-2.802620">
        <ele>917.4</ele>
        <time>2021-07-04T08:53:29.000Z</time>
      </trkpt>
      <trkpt lat="42.177960" lon="-2.802640">
        <ele>918.5</ele>
        <time>2021-07-04T08:53:34.000Z</time>
      </trkpt>
      <trkpt lat="42.177868" lon="-2.802708">
        <ele>919.3</ele>
        <time>2021-07-04T08:53:39.000Z</time>
      </trkpt>
      <trkpt lat="42.177770" lon="-2.802780">
        <ele>920.0</ele>
        <time>2021-07-04T08:53:44.000Z</time>
      </trkpt>
      <trkpt lat="42.177678" lon="-2.802802">
        <ele>920.0</ele>
        <time>2021-07-04T08:53:48.000Z</time>
      </trkpt>
      <trkpt lat="42.177575" lon="-2.802810">
        <ele>920.3</ele>
        <time>2021-07-04T08:53:52.000Z</time>
      </trkpt>
      <trkpt lat="42.177470" lon="-2.802815">
        <ele>920.2</ele>
        <time>2021-07-04T08:53:56.000Z</time>
      </trkpt>
      <trkpt lat="42.177363" lon="-2.802803">
        <ele>919.9</ele>
        <time>2021-07-04T08:54:00.000Z</time>
      </trkpt>
      <trkpt lat="42.177243" lon="-2.802798">
        <ele>920.5</ele>
        <time>2021-07-04T08:54:04.000Z</time>
      </trkpt>
      <trkpt lat="42.177125" lon="-2.802802">
        <ele>919.9</ele>
        <time>2021-07-04T08:54:08.000Z</time>
      </trkpt>
      <trkpt lat="42.177035" lon="-2.802788">
        <ele>920.2</ele>
        <time>2021-07-04T08:54:11.000Z</time>
      </trkpt>
      <trkpt lat="42.176945" lon="-2.802773">
        <ele>920.5</ele>
        <time>2021-07-04T08:54:14.000Z</time>
      </trkpt>
      <trkpt lat="42.176853" lon="-2.802752">
        <ele>920.9</ele>
        <time>2021-07-04T08:54:17.000Z</time>
      </trkpt>
      <trkpt lat="42.176760" lon="-2.802742">
        <ele>921.0</ele>
        <time>2021-07-04T08:54:20.000Z</time>
      </trkpt>
      <trkpt lat="42.176670" lon="-2.802748">
        <ele>920.7</ele>
        <time>2021-07-04T08:54:23.000Z</time>
      </trkpt>
      <trkpt lat="42.176582" lon="-2.802825">
        <ele>921.2</ele>
        <time>2021-07-04T08:54:27.000Z</time>
      </trkpt>
      <trkpt lat="42.176558" lon="-2.802953">
        <ele>922.3</ele>
        <time>2021-07-04T08:54:31.000Z</time>
      </trkpt>
      <trkpt lat="42.176568" lon="-2.803080">
        <ele>922.6</ele>
        <time>2021-07-04T08:54:35.000Z</time>
      </trkpt>
      <trkpt lat="42.176560" lon="-2.803225">
        <ele>923.8</ele>
        <time>2021-07-04T08:54:40.000Z</time>
      </trkpt>
      <trkpt lat="42.176487" lon="-2.803303">
        <ele>923.9</ele>
        <time>2021-07-04T08:54:44.000Z</time>
      </trkpt>
      <trkpt lat="42.176387" lon="-2.803317">
        <ele>924.0</ele>
        <time>2021-07-04T08:54:48.000Z</time>
      </trkpt>
      <trkpt lat="42.176290" lon="-2.803262">
        <ele>924.7</ele>
        <time>2021-07-04T08:54:52.000Z</time>
      </trkpt>
      <trkpt lat="42.176203" lon="-2.803185">
        <ele>925.1</ele>
        <time>2021-07-04T08:54:56.000Z</time>
      </trkpt>
      <trkpt lat="42.176118" lon="-2.803100">
        <ele>924.8</ele>
        <time>2021-07-04T08:55:00.000Z</time>
      </trkpt>
      <trkpt lat="42.176033" lon="-2.803023">
        <ele>925.0</ele>
        <time>2021-07-04T08:55:04.000Z</time>
      </trkpt>
      <trkpt lat="42.175938" lon="-2.802970">
        <ele>925.6</ele>
        <time>2021-07-04T08:55:08.000Z</time>
      </trkpt>
      <trkpt lat="42.175842" lon="-2.802958">
        <ele>926.0</ele>
        <time>2021-07-04T08:55:12.000Z</time>
      </trkpt>
      <trkpt lat="42.175748" lon="-2.803002">
        <ele>927.5</ele>
        <time>2021-07-04T08:55:16.000Z</time>
      </trkpt>
      <trkpt lat="42.175670" lon="-2.803080">
        <ele>928.1</ele>
        <time>2021-07-04T08:55:20.000Z</time>
      </trkpt>
      <trkpt lat="42.175585" lon="-2.803162">
        <ele>928.5</ele>
        <time>2021-07-04T08:55:24.000Z</time>
      </trkpt>
      <trkpt lat="42.175500" lon="-2.803248">
        <ele>928.0</ele>
        <time>2021-07-04T08:55:28.000Z</time>
      </trkpt>
      <trkpt lat="42.175408" lon="-2.803328">
        <ele>928.3</ele>
        <time>2021-07-04T08:55:32.000Z</time>
      </trkpt>
      <trkpt lat="42.175315" lon="-2.803408">
        <ele>928.4</ele>
        <time>2021-07-04T08:55:36.000Z</time>
      </trkpt>
      <trkpt lat="42.175220" lon="-2.803477">
        <ele>929.3</ele>
        <time>2021-07-04T08:55:40.000Z</time>
      </trkpt>
      <trkpt lat="42.175125" lon="-2.803527">
        <ele>930.7</ele>
        <time>2021-07-04T08:55:44.000Z</time>
      </trkpt>
      <trkpt lat="42.175025" lon="-2.803545">
        <ele>930.1</ele>
        <time>2021-07-04T08:55:48.000Z</time>
      </trkpt>
      <trkpt lat="42.174927" lon="-2.803538">
        <ele>930.6</ele>
        <time>2021-07-04T08:55:52.000Z</time>
      </trkpt>
      <trkpt lat="42.174830" lon="-2.803530">
        <ele>930.4</ele>
        <time>2021-07-04T08:55:56.000Z</time>
      </trkpt>
      <trkpt lat="42.174730" lon="-2.803562">
        <ele>931.3</ele>
        <time>2021-07-04T08:56:00.000Z</time>
      </trkpt>
      <trkpt lat="42.174643" lon="-2.803633">
        <ele>931.5</ele>
        <time>2021-07-04T08:56:04.000Z</time>
      </trkpt>
      <trkpt lat="42.174558" lon="-2.803710">
        <ele>931.8</ele>
        <time>2021-07-04T08:56:08.000Z</time>
      </trkpt>
      <trkpt lat="42.174470" lon="-2.803775">
        <ele>932.3</ele>
        <time>2021-07-04T08:56:12.000Z</time>
      </trkpt>
      <trkpt lat="42.174382" lon="-2.803832">
        <ele>932.5</ele>
        <time>2021-07-04T08:56:16.000Z</time>
      </trkpt>
      <trkpt lat="42.174290" lon="-2.803892">
        <ele>932.6</ele>
        <time>2021-07-04T08:56:20.000Z</time>
      </trkpt>
      <trkpt lat="42.174202" lon="-2.803958">
        <ele>932.8</ele>
        <time>2021-07-04T08:56:24.000Z</time>
      </trkpt>
      <trkpt lat="42.174107" lon="-2.804020">
        <ele>933.4</ele>
        <time>2021-07-04T08:56:28.000Z</time>
      </trkpt>
      <trkpt lat="42.173990" lon="-2.804068">
        <ele>932.8</ele>
        <time>2021-07-04T08:56:32.000Z</time>
      </trkpt>
      <trkpt lat="42.173885" lon="-2.804055">
        <ele>933.4</ele>
        <time>2021-07-04T08:56:35.000Z</time>
      </trkpt>
      <trkpt lat="42.173773" lon="-2.804010">
        <ele>932.5</ele>
        <time>2021-07-04T08:56:38.000Z</time>
      </trkpt>
      <trkpt lat="42.173662" lon="-2.803975">
        <ele>932.7</ele>
        <time>2021-07-04T08:56:41.000Z</time>
      </trkpt>
      <trkpt lat="42.173562" lon="-2.803988">
        <ele>932.6</ele>
        <time>2021-07-04T08:56:44.000Z</time>
      </trkpt>
      <trkpt lat="42.173473" lon="-2.804038">
        <ele>933.2</ele>
        <time>2021-07-04T08:56:47.000Z</time>
      </trkpt>
      <trkpt lat="42.173390" lon="-2.804093">
        <ele>933.6</ele>
        <time>2021-07-04T08:56:50.000Z</time>
      </trkpt>
      <trkpt lat="42.173283" lon="-2.804157">
        <ele>934.8</ele>
        <time>2021-07-04T08:56:54.000Z</time>
      </trkpt>
      <trkpt lat="42.173180" lon="-2.804193">
        <ele>935.3</ele>
        <time>2021-07-04T08:56:58.000Z</time>
      </trkpt>
      <trkpt lat="42.173078" lon="-2.804217">
        <ele>935.7</ele>
        <time>2021-07-04T08:57:02.000Z</time>
      </trkpt>
      <trkpt lat="42.172985" lon="-2.804235">
        <ele>937.0</ele>
        <time>2021-07-04T08:57:06.000Z</time>
      </trkpt>
      <trkpt lat="42.172890" lon="-2.804252">
        <ele>936.7</ele>
        <time>2021-07-04T08:57:10.000Z</time>
      </trkpt>
      <trkpt lat="42.172785" lon="-2.804267">
        <ele>937.4</ele>
        <time>2021-07-04T08:57:14.000Z</time>
      </trkpt>
      <trkpt lat="42.172677" lon="-2.804268">
        <ele>937.1</ele>
        <time>2021-07-04T08:57:18.000Z</time>
      </trkpt>
      <trkpt lat="42.172573" lon="-2.804232">
        <ele>938.0</ele>
        <time>2021-07-04T08:57:22.000Z</time>
      </trkpt>
      <trkpt lat="42.172470" lon="-2.804160">
        <ele>938.4</ele>
        <time>2021-07-04T08:57:26.000Z</time>
      </trkpt>
      <trkpt lat="42.172385" lon="-2.804070">
        <ele>938.2</ele>
        <time>2021-07-04T08:57:30.000Z</time>
      </trkpt>
      <trkpt lat="42.172307" lon="-2.803975">
        <ele>937.9</ele>
        <time>2021-07-04T08:57:34.000Z</time>
      </trkpt>
      <trkpt lat="42.172223" lon="-2.803875">
        <ele>937.7</ele>
        <time>2021-07-04T08:57:38.000Z</time>
      </trkpt>
      <trkpt lat="42.172157" lon="-2.803753">
        <ele>937.8</ele>
        <time>2021-07-04T08:57:42.000Z</time>
      </trkpt>
      <trkpt lat="42.172088" lon="-2.803643">
        <ele>937.4</ele>
        <time>2021-07-04T08:57:46.000Z</time>
      </trkpt>
      <trkpt lat="42.172020" lon="-2.803522">
        <ele>937.2</ele>
        <time>2021-07-04T08:57:50.000Z</time>
      </trkpt>
      <trkpt lat="42.171968" lon="-2.803412">
        <ele>937.5</ele>
        <time>2021-07-04T08:57:54.000Z</time>
      </trkpt>
      <trkpt lat="42.171905" lon="-2.803300">
        <ele>938.0</ele>
        <time>2021-07-04T08:57:58.000Z</time>
      </trkpt>
      <trkpt lat="42.171847" lon="-2.803185">
        <ele>937.3</ele>
        <time>2021-07-04T08:58:02.000Z</time>
      </trkpt>
      <trkpt lat="42.171758" lon="-2.803090">
        <ele>937.6</ele>
        <time>2021-07-04T08:58:06.000Z</time>
      </trkpt>
      <trkpt lat="42.171642" lon="-2.803102">
        <ele>937.6</ele>
        <time>2021-07-04T08:58:09.000Z</time>
      </trkpt>
      <trkpt lat="42.171540" lon="-2.803150">
        <ele>937.5</ele>
        <time>2021-07-04T08:58:12.000Z</time>
      </trkpt>
      <trkpt lat="42.171448" lon="-2.803197">
        <ele>937.3</ele>
        <time>2021-07-04T08:58:15.000Z</time>
      </trkpt>
      <trkpt lat="42.171362" lon="-2.803243">
        <ele>937.1</ele>
        <time>2021-07-04T08:58:18.000Z</time>
      </trkpt>
      <trkpt lat="42.171267" lon="-2.803302">
        <ele>936.7</ele>
        <time>2021-07-04T08:58:21.000Z</time>
      </trkpt>
      <trkpt lat="42.171173" lon="-2.803365">
        <ele>937.6</ele>
        <time>2021-07-04T08:58:24.000Z</time>
      </trkpt>
      <trkpt lat="42.171080" lon="-2.803407">
        <ele>938.8</ele>
        <time>2021-07-04T08:58:27.000Z</time>
      </trkpt>
      <trkpt lat="42.170978" lon="-2.803412">
        <ele>938.6</ele>
        <time>2021-07-04T08:58:30.000Z</time>
      </trkpt>
      <trkpt lat="42.170877" lon="-2.803395">
        <ele>939.4</ele>
        <time>2021-07-04T08:58:33.000Z</time>
      </trkpt>
      <trkpt lat="42.170787" lon="-2.803365">
        <ele>939.8</ele>
        <time>2021-07-04T08:58:36.000Z</time>
      </trkpt>
      <trkpt lat="42.170677" lon="-2.803310">
        <ele>939.9</ele>
        <time>2021-07-04T08:58:40.000Z</time>
      </trkpt>
      <trkpt lat="42.170593" lon="-2.803252">
        <ele>940.1</ele>
        <time>2021-07-04T08:58:43.000Z</time>
      </trkpt>
      <trkpt lat="42.170512" lon="-2.803185">
        <ele>940.2</ele>
        <time>2021-07-04T08:58:46.000Z</time>
      </trkpt>
      <trkpt lat="42.170432" lon="-2.803112">
        <ele>939.7</ele>
        <time>2021-07-04T08:58:49.000Z</time>
      </trkpt>
      <trkpt lat="42.170352" lon="-2.803027">
        <ele>939.7</ele>
        <time>2021-07-04T08:58:52.000Z</time>
      </trkpt>
      <trkpt lat="42.170267" lon="-2.802953">
        <ele>939.7</ele>
        <time>2021-07-04T08:58:55.000Z</time>
      </trkpt>
      <trkpt lat="42.170155" lon="-2.802900">
        <ele>939.6</ele>
        <time>2021-07-04T08:58:58.000Z</time>
      </trkpt>
      <trkpt lat="42.170048" lon="-2.802860">
        <ele>939.5</ele>
        <time>2021-07-04T08:59:01.000Z</time>
      </trkpt>
      <trkpt lat="42.169952" lon="-2.802803">
        <ele>939.4</ele>
        <time>2021-07-04T08:59:04.000Z</time>
      </trkpt>
      <trkpt lat="42.169882" lon="-2.802725">
        <ele>939.8</ele>
        <time>2021-07-04T08:59:07.000Z</time>
      </trkpt>
      <trkpt lat="42.169830" lon="-2.802620">
        <ele>939.8</ele>
        <time>2021-07-04T08:59:10.000Z</time>
      </trkpt>
      <trkpt lat="42.169807" lon="-2.802460">
        <ele>940.2</ele>
        <time>2021-07-04T08:59:14.000Z</time>
      </trkpt>
      <trkpt lat="42.169817" lon="-2.802328">
        <ele>940.3</ele>
        <time>2021-07-04T08:59:17.000Z</time>
      </trkpt>
      <trkpt lat="42.169838" lon="-2.802198">
        <ele>940.0</ele>
        <time>2021-07-04T08:59:20.000Z</time>
      </trkpt>
      <trkpt lat="42.169857" lon="-2.802045">
        <ele>940.4</ele>
        <time>2021-07-04T08:59:24.000Z</time>
      </trkpt>
      <trkpt lat="42.169885" lon="-2.801897">
        <ele>941.2</ele>
        <time>2021-07-04T08:59:28.000Z</time>
      </trkpt>
      <trkpt lat="42.169922" lon="-2.801755">
        <ele>941.3</ele>
        <time>2021-07-04T08:59:32.000Z</time>
      </trkpt>
      <trkpt lat="42.169958" lon="-2.801613">
        <ele>941.7</ele>
        <time>2021-07-04T08:59:36.000Z</time>
      </trkpt>
      <trkpt lat="42.169975" lon="-2.801470">
        <ele>941.9</ele>
        <time>2021-07-04T08:59:40.000Z</time>
      </trkpt>
      <trkpt lat="42.169918" lon="-2.801375">
        <ele>942.3</ele>
        <time>2021-07-04T08:59:44.000Z</time>
      </trkpt>
      <trkpt lat="42.169828" lon="-2.801380">
        <ele>943.1</ele>
        <time>2021-07-04T08:59:47.000Z</time>
      </trkpt>
      <trkpt lat="42.169713" lon="-2.801412">
        <ele>943.6</ele>
        <time>2021-07-04T08:59:51.000Z</time>
      </trkpt>
      <trkpt lat="42.169597" lon="-2.801412">
        <ele>944.0</ele>
        <time>2021-07-04T08:59:55.000Z</time>
      </trkpt>
      <trkpt lat="42.169478" lon="-2.801395">
        <ele>944.4</ele>
        <time>2021-07-04T08:59:59.000Z</time>
      </trkpt>
      <trkpt lat="42.169367" lon="-2.801383">
        <ele>944.6</ele>
        <time>2021-07-04T09:00:03.000Z</time>
      </trkpt>
      <trkpt lat="42.169252" lon="-2.801375">
        <ele>944.5</ele>
        <time>2021-07-04T09:00:07.000Z</time>
      </trkpt>
      <trkpt lat="42.169137" lon="-2.801380">
        <ele>945.1</ele>
        <time>2021-07-04T09:00:11.000Z</time>
      </trkpt>
      <trkpt lat="42.169025" lon="-2.801403">
        <ele>945.1</ele>
        <time>2021-07-04T09:00:15.000Z</time>
      </trkpt>
      <trkpt lat="42.168910" lon="-2.801418">
        <ele>945.8</ele>
        <time>2021-07-04T09:00:19.000Z</time>
      </trkpt>
      <trkpt lat="42.168802" lon="-2.801437">
        <ele>946.1</ele>
        <time>2021-07-04T09:00:23.000Z</time>
      </trkpt>
      <trkpt lat="42.168698" lon="-2.801458">
        <ele>946.9</ele>
        <time>2021-07-04T09:00:27.000Z</time>
      </trkpt>
      <trkpt lat="42.168597" lon="-2.801453">
        <ele>947.1</ele>
        <time>2021-07-04T09:00:31.000Z</time>
      </trkpt>
      <trkpt lat="42.168497" lon="-2.801423">
        <ele>947.4</ele>
        <time>2021-07-04T09:00:35.000Z</time>
      </trkpt>
      <trkpt lat="42.168402" lon="-2.801377">
        <ele>948.5</ele>
        <time>2021-07-04T09:00:39.000Z</time>
      </trkpt>
      <trkpt lat="42.168320" lon="-2.801307">
        <ele>948.9</ele>
        <time>2021-07-04T09:00:43.000Z</time>
      </trkpt>
      <trkpt lat="42.168250" lon="-2.801203">
        <ele>949.5</ele>
        <time>2021-07-04T09:00:48.000Z</time>
      </trkpt>
      <trkpt lat="42.168200" lon="-2.801075">
        <ele>950.8</ele>
        <time>2021-07-04T09:00:53.000Z</time>
      </trkpt>
      <trkpt lat="42.168163" lon="-2.800933">
        <ele>951.4</ele>
        <time>2021-07-04T09:00:58.000Z</time>
      </trkpt>
      <trkpt lat="42.168147" lon="-2.800808">
        <ele>952.4</ele>
        <time>2021-07-04T09:01:02.000Z</time>
      </trkpt>
      <trkpt lat="42.168137" lon="-2.800678">
        <ele>952.7</ele>
        <time>2021-07-04T09:01:06.000Z</time>
      </trkpt>
      <trkpt lat="42.168107" lon="-2.800547">
        <ele>952.9</ele>
        <time>2021-07-04T09:01:10.000Z</time>
      </trkpt>
      <trkpt lat="42.168068" lon="-2.800413">
        <ele>952.8</ele>
        <time>2021-07-04T09:01:14.000Z</time>
      </trkpt>
      <trkpt lat="42.168002" lon="-2.800308">
        <ele>952.5</ele>
        <time>2021-07-04T09:01:18.000Z</time>
      </trkpt>
      <trkpt lat="42.167913" lon="-2.800260">
        <ele>953.5</ele>
        <time>2021-07-04T09:01:21.000Z</time>
      </trkpt>
      <trkpt lat="42.167817" lon="-2.800297">
        <ele>952.9</ele>
        <time>2021-07-04T09:01:24.000Z</time>
      </trkpt>
      <trkpt lat="42.167733" lon="-2.800355">
        <ele>952.7</ele>
        <time>2021-07-04T09:01:27.000Z</time>
      </trkpt>
      <trkpt lat="42.167643" lon="-2.800400">
        <ele>952.3</ele>
        <time>2021-07-04T09:01:30.000Z</time>
      </trkpt>
      <trkpt lat="42.167553" lon="-2.800425">
        <ele>952.4</ele>
        <time>2021-07-04T09:01:33.000Z</time>
      </trkpt>
      <trkpt lat="42.167462" lon="-2.800428">
        <ele>953.0</ele>
        <time>2021-07-04T09:01:36.000Z</time>
      </trkpt>
      <trkpt lat="42.167372" lon="-2.800420">
        <ele>952.8</ele>
        <time>2021-07-04T09:01:39.000Z</time>
      </trkpt>
      <trkpt lat="42.167263" lon="-2.800392">
        <ele>953.1</ele>
        <time>2021-07-04T09:01:43.000Z</time>
      </trkpt>
      <trkpt lat="42.167162" lon="-2.800347">
        <ele>953.1</ele>
        <time>2021-07-04T09:01:47.000Z</time>
      </trkpt>
      <trkpt lat="42.167067" lon="-2.800283">
        <ele>953.5</ele>
        <time>2021-07-04T09:01:51.000Z</time>
      </trkpt>
      <trkpt lat="42.166965" lon="-2.800227">
        <ele>953.7</ele>
        <time>2021-07-04T09:01:55.000Z</time>
      </trkpt>
      <trkpt lat="42.166870" lon="-2.800168">
        <ele>954.2</ele>
        <time>2021-07-04T09:01:59.000Z</time>
      </trkpt>
      <trkpt lat="42.166773" lon="-2.800115">
        <ele>955.1</ele>
        <time>2021-07-04T09:02:03.000Z</time>
      </trkpt>
      <trkpt lat="42.166685" lon="-2.800050">
        <ele>955.1</ele>
        <time>2021-07-04T09:02:07.000Z</time>
      </trkpt>
      <trkpt lat="42.166620" lon="-2.799952">
        <ele>956.0</ele>
        <time>2021-07-04T09:02:11.000Z</time>
      </trkpt>
      <trkpt lat="42.166567" lon="-2.799828">
        <ele>956.6</ele>
        <time>2021-07-04T09:02:16.000Z</time>
      </trkpt>
      <trkpt lat="42.166515" lon="-2.799700">
        <ele>956.9</ele>
        <time>2021-07-04T09:02:21.000Z</time>
      </trkpt>
      <trkpt lat="42.166473" lon="-2.799588">
        <ele>958.1</ele>
        <time>2021-07-04T09:02:25.000Z</time>
      </trkpt>
      <trkpt lat="42.166435" lon="-2.799467">
        <ele>958.5</ele>
        <time>2021-07-04T09:02:29.000Z</time>
      </trkpt>
      <trkpt lat="42.166383" lon="-2.799353">
        <ele>958.9</ele>
        <time>2021-07-04T09:02:33.000Z</time>
      </trkpt>
      <trkpt lat="42.166293" lon="-2.799280">
        <ele>958.8</ele>
        <time>2021-07-04T09:02:37.000Z</time>
      </trkpt>
      <trkpt lat="42.166187" lon="-2.799232">
        <ele>958.9</ele>
        <time>2021-07-04T09:02:41.000Z</time>
      </trkpt>
      <trkpt lat="42.166087" lon="-2.799182">
        <ele>959.6</ele>
        <time>2021-07-04T09:02:45.000Z</time>
      </trkpt>
      <trkpt lat="42.165995" lon="-2.799117">
        <ele>959.6</ele>
        <time>2021-07-04T09:02:49.000Z</time>
      </trkpt>
      <trkpt lat="42.165910" lon="-2.799047">
        <ele>959.6</ele>
        <time>2021-07-04T09:02:53.000Z</time>
      </trkpt>
      <trkpt lat="42.165820" lon="-2.799013">
        <ele>960.2</ele>
        <time>2021-07-04T09:02:57.000Z</time>
      </trkpt>
      <trkpt lat="42.165727" lon="-2.798995">
        <ele>960.4</ele>
        <time>2021-07-04T09:03:01.000Z</time>
      </trkpt>
      <trkpt lat="42.165618" lon="-2.798963">
        <ele>961.8</ele>
        <time>2021-07-04T09:03:06.000Z</time>
      </trkpt>
      <trkpt lat="42.165530" lon="-2.798935">
        <ele>961.8</ele>
        <time>2021-07-04T09:03:10.000Z</time>
      </trkpt>
      <trkpt lat="42.165427" lon="-2.798877">
        <ele>962.9</ele>
        <time>2021-07-04T09:03:15.000Z</time>
      </trkpt>
      <trkpt lat="42.165357" lon="-2.798800">
        <ele>963.9</ele>
        <time>2021-07-04T09:03:19.000Z</time>
      </trkpt>
      <trkpt lat="42.165282" lon="-2.798715">
        <ele>964.7</ele>
        <time>2021-07-04T09:03:23.000Z</time>
      </trkpt>
      <trkpt lat="42.165222" lon="-2.798623">
        <ele>965.0</ele>
        <time>2021-07-04T09:03:27.000Z</time>
      </trkpt>
      <trkpt lat="42.165170" lon="-2.798518">
        <ele>965.5</ele>
        <time>2021-07-04T09:03:31.000Z</time>
      </trkpt>
      <trkpt lat="42.165117" lon="-2.798410">
        <ele>966.4</ele>
        <time>2021-07-04T09:03:35.000Z</time>
      </trkpt>
      <trkpt lat="42.165072" lon="-2.798297">
        <ele>966.6</ele>
        <time>2021-07-04T09:03:39.000Z</time>
      </trkpt>
      <trkpt lat="42.165020" lon="-2.798188">
        <ele>967.0</ele>
        <time>2021-07-04T09:03:43.000Z</time>
      </trkpt>
      <trkpt lat="42.164958" lon="-2.798090">
        <ele>967.9</ele>
        <time>2021-07-04T09:03:47.000Z</time>
      </trkpt>
      <trkpt lat="42.164892" lon="-2.797998">
        <ele>968.0</ele>
        <time>2021-07-04T09:03:51.000Z</time>
      </trkpt>
      <trkpt lat="42.164822" lon="-2.797888">
        <ele>967.7</ele>
        <time>2021-07-04T09:03:56.000Z</time>
      </trkpt>
      <trkpt lat="42.164775" lon="-2.797780">
        <ele>968.3</ele>
        <time>2021-07-04T09:04:00.000Z</time>
      </trkpt>
      <trkpt lat="42.164740" lon="-2.797667">
        <ele>968.4</ele>
        <time>2021-07-04T09:04:04.000Z</time>
      </trkpt>
      <trkpt lat="42.164722" lon="-2.797538">
        <ele>968.2</ele>
        <time>2021-07-04T09:04:09.000Z</time>
      </trkpt>
      <trkpt lat="42.164685" lon="-2.797408">
        <ele>969.6</ele>
        <time>2021-07-04T09:04:15.000Z</time>
      </trkpt>
      <trkpt lat="42.164663" lon="-2.797322">
        <ele>967.7</ele>
        <time>2021-07-04T09:04:21.000Z</time>
      </trkpt>
      <trkpt lat="42.164665" lon="-2.797322">
        <ele>969.1</ele>
        <time>2021-07-04T09:04:49.000Z</time>
      </trkpt>
      <trkpt lat="42.164665" lon="-2.797322">
        <ele>969.0</ele>
        <time>2021-07-04T09:04:50.000Z</time>
      </trkpt>
      <trkpt lat="42.164667" lon="-2.797313">
        <ele>967.7</ele>
        <time>2021-07-04T09:04:58.000Z</time>
      </trkpt>
      <trkpt lat="42.164700" lon="-2.797167">
        <ele>969.5</ele>
        <time>2021-07-04T09:05:03.000Z</time>
      </trkpt>
      <trkpt lat="42.164727" lon="-2.797040">
        <ele>968.3</ele>
        <time>2021-07-04T09:05:07.000Z</time>
      </trkpt>
      <trkpt lat="42.164758" lon="-2.796912">
        <ele>968.9</ele>
        <time>2021-07-04T09:05:11.000Z</time>
      </trkpt>
      <trkpt lat="42.164785" lon="-2.796788">
        <ele>969.2</ele>
        <time>2021-07-04T09:05:15.000Z</time>
      </trkpt>
      <trkpt lat="42.164803" lon="-2.796643">
        <ele>968.7</ele>
        <time>2021-07-04T09:05:19.000Z</time>
      </trkpt>
      <trkpt lat="42.164803" lon="-2.796518">
        <ele>968.4</ele>
        <time>2021-07-04T09:05:22.000Z</time>
      </trkpt>
      <trkpt lat="42.164793" lon="-2.796380">
        <ele>968.3</ele>
        <time>2021-07-04T09:05:25.000Z</time>
      </trkpt>
      <trkpt lat="42.164782" lon="-2.796242">
        <ele>968.8</ele>
        <time>2021-07-04T09:05:28.000Z</time>
      </trkpt>
      <trkpt lat="42.164773" lon="-2.796108">
        <ele>968.0</ele>
        <time>2021-07-04T09:05:31.000Z</time>
      </trkpt>
      <trkpt lat="42.164750" lon="-2.795960">
        <ele>968.3</ele>
        <time>2021-07-04T09:05:35.000Z</time>
      </trkpt>
      <trkpt lat="42.164748" lon="-2.795837">
        <ele>969.0</ele>
        <time>2021-07-04T09:05:38.000Z</time>
      </trkpt>
      <trkpt lat="42.164743" lon="-2.795713">
        <ele>968.6</ele>
        <time>2021-07-04T09:05:41.000Z</time>
      </trkpt>
      <trkpt lat="42.164735" lon="-2.795553">
        <ele>969.3</ele>
        <time>2021-07-04T09:05:45.000Z</time>
      </trkpt>
      <trkpt lat="42.164695" lon="-2.795417">
        <ele>969.4</ele>
        <time>2021-07-04T09:05:49.000Z</time>
      </trkpt>
      <trkpt lat="42.164623" lon="-2.795308">
        <ele>969.6</ele>
        <time>2021-07-04T09:05:53.000Z</time>
      </trkpt>
      <trkpt lat="42.164558" lon="-2.795200">
        <ele>970.7</ele>
        <time>2021-07-04T09:05:57.000Z</time>
      </trkpt>
      <trkpt lat="42.164502" lon="-2.795088">
        <ele>970.5</ele>
        <time>2021-07-04T09:06:02.000Z</time>
      </trkpt>
      <trkpt lat="42.164482" lon="-2.795087">
        <ele>970.3</ele>
        <time>2021-07-04T09:06:06.000Z</time>
      </trkpt>
      <trkpt lat="42.164480" lon="-2.795088">
        <ele>970.9</ele>
        <time>2021-07-04T09:06:13.000Z</time>
      </trkpt>
      <trkpt lat="42.164478" lon="-2.795088">
        <ele>971.0</ele>
        <time>2021-07-04T09:06:15.000Z</time>
      </trkpt>
      <trkpt lat="42.164483" lon="-2.795085">
        <ele>974.5</ele>
        <time>2021-07-04T09:06:20.000Z</time>
      </trkpt>
      <trkpt lat="42.164465" lon="-2.794953">
        <ele>971.3</ele>
        <time>2021-07-04T09:06:31.000Z</time>
      </trkpt>
      <trkpt lat="42.164460" lon="-2.794855">
        <ele>970.2</ele>
        <time>2021-07-04T09:06:39.000Z</time>
      </trkpt>
      <trkpt lat="42.164458" lon="-2.794860">
        <ele>971.3</ele>
        <time>2021-07-04T09:07:11.000Z</time>
      </trkpt>
      <trkpt lat="42.164428" lon="-2.794727">
        <ele>970.4</ele>
        <time>2021-07-04T09:07:22.000Z</time>
      </trkpt>
      <trkpt lat="42.164415" lon="-2.794595">
        <ele>971.3</ele>
        <time>2021-07-04T09:07:26.000Z</time>
      </trkpt>
      <trkpt lat="42.164387" lon="-2.794468">
        <ele>971.7</ele>
        <time>2021-07-04T09:07:30.000Z</time>
      </trkpt>
      <trkpt lat="42.164368" lon="-2.794348">
        <ele>971.7</ele>
        <time>2021-07-04T09:07:34.000Z</time>
      </trkpt>
      <trkpt lat="42.164403" lon="-2.794253">
        <ele>972.7</ele>
        <time>2021-07-04T09:07:43.000Z</time>
      </trkpt>
      <trkpt lat="42.164403" lon="-2.794250">
        <ele>972.7</ele>
        <time>2021-07-04T09:07:45.000Z</time>
      </trkpt>
      <trkpt lat="42.164403" lon="-2.794250">
        <ele>972.9</ele>
        <time>2021-07-04T09:07:46.000Z</time>
      </trkpt>
      <trkpt lat="42.164405" lon="-2.794247">
        <ele>973.2</ele>
        <time>2021-07-04T09:07:48.000Z</time>
      </trkpt>
      <trkpt lat="42.164342" lon="-2.794152">
        <ele>973.2</ele>
        <time>2021-07-04T09:08:01.000Z</time>
      </trkpt>
      <trkpt lat="42.164330" lon="-2.794140">
        <ele>971.4</ele>
        <time>2021-07-04T09:08:05.000Z</time>
      </trkpt>
      <trkpt lat="42.164332" lon="-2.794140">
        <ele>971.7</ele>
        <time>2021-07-04T09:08:06.000Z</time>
      </trkpt>
      <trkpt lat="42.164333" lon="-2.794142">
        <ele>973.6</ele>
        <time>2021-07-04T09:08:10.000Z</time>
      </trkpt>
      <trkpt lat="42.164335" lon="-2.794145">
        <ele>973.4</ele>
        <time>2021-07-04T09:10:57.000Z</time>
      </trkpt>
      <trkpt lat="42.164335" lon="-2.794145">
        <ele>973.5</ele>
        <time>2021-07-04T09:10:58.000Z</time>
      </trkpt>
      <trkpt lat="42.164337" lon="-2.794145">
        <ele>973.8</ele>
        <time>2021-07-04T09:13:40.000Z</time>
      </trkpt>
      <trkpt lat="42.164337" lon="-2.794145">
        <ele>973.8</ele>
        <time>2021-07-04T09:13:41.000Z</time>
      </trkpt>
      <trkpt lat="42.164338" lon="-2.794147">
        <ele>973.2</ele>
        <time>2021-07-04T09:16:25.000Z</time>
      </trkpt>
      <trkpt lat="42.164338" lon="-2.794147">
        <ele>973.1</ele>
        <time>2021-07-04T09:16:26.000Z</time>
      </trkpt>
      <trkpt lat="42.164340" lon="-2.794150">
        <ele>972.4</ele>
        <time>2021-07-04T09:22:59.000Z</time>
      </trkpt>
      <trkpt lat="42.164340" lon="-2.794150">
        <ele>972.3</ele>
        <time>2021-07-04T09:23:00.000Z</time>
      </trkpt>
      <trkpt lat="42.164342" lon="-2.794152">
        <ele>971.2</ele>
        <time>2021-07-04T09:26:40.000Z</time>
      </trkpt>
      <trkpt lat="42.164342" lon="-2.794152">
        <ele>971.3</ele>
        <time>2021-07-04T09:26:41.000Z</time>
      </trkpt>
      <trkpt lat="42.164343" lon="-2.794160">
        <ele>971.2</ele>
        <time>2021-07-04T09:36:52.000Z</time>
      </trkpt>
      <trkpt lat="42.164343" lon="-2.794160">
        <ele>971.3</ele>
        <time>2021-07-04T09:36:53.000Z</time>
      </trkpt>
      <trkpt lat="42.164342" lon="-2.794160">
        <ele>971.6</ele>
        <time>2021-07-04T09:37:12.000Z</time>
      </trkpt>
      <trkpt lat="42.164342" lon="-2.794160">
        <ele>971.6</ele>
        <time>2021-07-04T09:37:13.000Z</time>
      </trkpt>
      <trkpt lat="42.164343" lon="-2.794165">
        <ele>971.7</ele>
        <time>2021-07-04T09:39:15.000Z</time>
      </trkpt>
      <trkpt lat="42.164343" lon="-2.794165">
        <ele>971.5</ele>
        <time>2021-07-04T09:39:16.000Z</time>
      </trkpt>
      <trkpt lat="42.164342" lon="-2.794168">
        <ele>972.0</ele>
        <time>2021-07-04T09:42:52.000Z</time>
      </trkpt>
      <trkpt lat="42.164342" lon="-2.794168">
        <ele>972.0</ele>
        <time>2021-07-04T09:42:53.000Z</time>
      </trkpt>
      <trkpt lat="42.164340" lon="-2.794168">
        <ele>972.1</ele>
        <time>2021-07-04T09:45:20.000Z</time>
      </trkpt>
      <trkpt lat="42.164340" lon="-2.794168">
        <ele>972.0</ele>
        <time>2021-07-04T09:45:21.000Z</time>
      </trkpt>
      <trkpt lat="42.164338" lon="-2.794165">
        <ele>971.0</ele>
        <time>2021-07-04T09:52:59.000Z</time>
      </trkpt>
      <trkpt lat="42.164338" lon="-2.794165">
        <ele>971.1</ele>
        <time>2021-07-04T09:53:00.000Z</time>
      </trkpt>
      <trkpt lat="42.164337" lon="-2.794163">
        <ele>970.6</ele>
        <time>2021-07-04T09:59:58.000Z</time>
      </trkpt>
      <trkpt lat="42.164337" lon="-2.794163">
        <ele>970.5</ele>
        <time>2021-07-04T09:59:59.000Z</time>
      </trkpt>
      <trkpt lat="42.164335" lon="-2.794165">
        <ele>970.3</ele>
        <time>2021-07-04T10:08:58.000Z</time>
      </trkpt>
      <trkpt lat="42.164335" lon="-2.794165">
        <ele>970.1</ele>
        <time>2021-07-04T10:08:59.000Z</time>
      </trkpt>
      <trkpt lat="42.164333" lon="-2.794168">
        <ele>971.0</ele>
        <time>2021-07-04T10:10:37.000Z</time>
      </trkpt>
      <trkpt lat="42.164333" lon="-2.794168">
        <ele>971.2</ele>
        <time>2021-07-04T10:10:38.000Z</time>
      </trkpt>
      <trkpt lat="42.164332" lon="-2.794180">
        <ele>975.9</ele>
        <time>2021-07-04T10:23:09.000Z</time>
      </trkpt>
      <trkpt lat="42.164410" lon="-2.794278">
        <ele>971.0</ele>
        <time>2021-07-04T10:23:20.000Z</time>
      </trkpt>
      <trkpt lat="42.164487" lon="-2.794348">
        <ele>970.6</ele>
        <time>2021-07-04T10:23:24.000Z</time>
      </trkpt>
      <trkpt lat="42.164567" lon="-2.794422">
        <ele>971.1</ele>
        <time>2021-07-04T10:23:28.000Z</time>
      </trkpt>
      <trkpt lat="42.164662" lon="-2.794482">
        <ele>970.8</ele>
        <time>2021-07-04T10:23:32.000Z</time>
      </trkpt>
      <trkpt lat="42.164743" lon="-2.794558">
        <ele>971.6</ele>
        <time>2021-07-04T10:23:37.000Z</time>
      </trkpt>
      <trkpt lat="42.164827" lon="-2.794628">
        <ele>971.4</ele>
        <time>2021-07-04T10:23:42.000Z</time>
      </trkpt>
      <trkpt lat="42.164908" lon="-2.794688">
        <ele>972.7</ele>
        <time>2021-07-04T10:23:48.000Z</time>
      </trkpt>
      <trkpt lat="42.164943" lon="-2.794695">
        <ele>973.5</ele>
        <time>2021-07-04T10:23:57.000Z</time>
      </trkpt>
      <trkpt lat="42.164945" lon="-2.794700">
        <ele>969.9</ele>
        <time>2021-07-04T10:23:58.000Z</time>
      </trkpt>
      <trkpt lat="42.164942" lon="-2.794705">
        <ele>971.0</ele>
        <time>2021-07-04T10:24:01.000Z</time>
      </trkpt>
      <trkpt lat="42.164943" lon="-2.794698">
        <ele>971.8</ele>
        <time>2021-07-04T10:24:03.000Z</time>
      </trkpt>
      <trkpt lat="42.164943" lon="-2.794688">
        <ele>972.3</ele>
        <time>2021-07-04T10:24:07.000Z</time>
      </trkpt>
      <trkpt lat="42.164942" lon="-2.794683">
        <ele>972.6</ele>
        <time>2021-07-04T10:24:32.000Z</time>
      </trkpt>
      <trkpt lat="42.164942" lon="-2.794683">
        <ele>972.4</ele>
        <time>2021-07-04T10:24:33.000Z</time>
      </trkpt>
      <trkpt lat="42.164940" lon="-2.794683">
        <ele>972.8</ele>
        <time>2021-07-04T10:24:42.000Z</time>
      </trkpt>
      <trkpt lat="42.164940" lon="-2.794683">
        <ele>972.9</ele>
        <time>2021-07-04T10:24:43.000Z</time>
      </trkpt>
      <trkpt lat="42.164942" lon="-2.794682">
        <ele>972.8</ele>
        <time>2021-07-04T10:24:56.000Z</time>
      </trkpt>
      <trkpt lat="42.164942" lon="-2.794683">
        <ele>972.8</ele>
        <time>2021-07-04T10:24:57.000Z</time>
      </trkpt>
      <trkpt lat="42.164940" lon="-2.794682">
        <ele>972.4</ele>
        <time>2021-07-04T10:26:33.000Z</time>
      </trkpt>
      <trkpt lat="42.164940" lon="-2.794682">
        <ele>972.6</ele>
        <time>2021-07-04T10:26:34.000Z</time>
      </trkpt>
      <trkpt lat="42.164938" lon="-2.794682">
        <ele>972.6</ele>
        <time>2021-07-04T10:27:23.000Z</time>
      </trkpt>
      <trkpt lat="42.164938" lon="-2.794682">
        <ele>972.5</ele>
        <time>2021-07-04T10:27:24.000Z</time>
      </trkpt>
      <trkpt lat="42.164937" lon="-2.794678">
        <ele>972.3</ele>
        <time>2021-07-04T10:27:38.000Z</time>
      </trkpt>
      <trkpt lat="42.164918" lon="-2.794680">
        <ele>972.2</ele>
        <time>2021-07-04T10:27:43.000Z</time>
      </trkpt>
      <trkpt lat="42.164917" lon="-2.794678">
        <ele>972.8</ele>
        <time>2021-07-04T10:27:50.000Z</time>
      </trkpt>
      <trkpt lat="42.164820" lon="-2.794682">
        <ele>972.8</ele>
        <time>2021-07-04T10:27:58.000Z</time>
      </trkpt>
      <trkpt lat="42.164730" lon="-2.794623">
        <ele>971.6</ele>
        <time>2021-07-04T10:28:05.000Z</time>
      </trkpt>
      <trkpt lat="42.164660" lon="-2.794540">
        <ele>971.7</ele>
        <time>2021-07-04T10:28:10.000Z</time>
      </trkpt>
      <trkpt lat="42.164588" lon="-2.794447">
        <ele>970.5</ele>
        <time>2021-07-04T10:28:14.000Z</time>
      </trkpt>
      <trkpt lat="42.164523" lon="-2.794353">
        <ele>971.1</ele>
        <time>2021-07-04T10:28:18.000Z</time>
      </trkpt>
      <trkpt lat="42.164438" lon="-2.794280">
        <ele>971.0</ele>
        <time>2021-07-04T10:28:24.000Z</time>
      </trkpt>
      <trkpt lat="42.164352" lon="-2.794227">
        <ele>971.3</ele>
        <time>2021-07-04T10:28:31.000Z</time>
      </trkpt>
      <trkpt lat="42.164305" lon="-2.794112">
        <ele>972.1</ele>
        <time>2021-07-04T10:28:38.000Z</time>
      </trkpt>
      <trkpt lat="42.164248" lon="-2.794008">
        <ele>973.1</ele>
        <time>2021-07-04T10:28:44.000Z</time>
      </trkpt>
      <trkpt lat="42.164182" lon="-2.793908">
        <ele>973.9</ele>
        <time>2021-07-04T10:28:50.000Z</time>
      </trkpt>
      <trkpt lat="42.164105" lon="-2.793823">
        <ele>975.2</ele>
        <time>2021-07-04T10:28:56.000Z</time>
      </trkpt>
      <trkpt lat="42.164060" lon="-2.793712">
        <ele>976.5</ele>
        <time>2021-07-04T10:29:02.000Z</time>
      </trkpt>
      <trkpt lat="42.164052" lon="-2.793585">
        <ele>977.1</ele>
        <time>2021-07-04T10:29:08.000Z</time>
      </trkpt>
      <trkpt lat="42.164033" lon="-2.793447">
        <ele>977.7</ele>
        <time>2021-07-04T10:29:14.000Z</time>
      </trkpt>
      <trkpt lat="42.164042" lon="-2.793320">
        <ele>977.7</ele>
        <time>2021-07-04T10:29:19.000Z</time>
      </trkpt>
      <trkpt lat="42.164058" lon="-2.793188">
        <ele>977.7</ele>
        <time>2021-07-04T10:29:24.000Z</time>
      </trkpt>
      <trkpt lat="42.164090" lon="-2.793058">
        <ele>978.7</ele>
        <time>2021-07-04T10:29:29.000Z</time>
      </trkpt>
      <trkpt lat="42.164115" lon="-2.792932">
        <ele>978.8</ele>
        <time>2021-07-04T10:29:34.000Z</time>
      </trkpt>
      <trkpt lat="42.164155" lon="-2.792803">
        <ele>979.3</ele>
        <time>2021-07-04T10:29:39.000Z</time>
      </trkpt>
      <trkpt lat="42.164167" lon="-2.792672">
        <ele>979.4</ele>
        <time>2021-07-04T10:29:44.000Z</time>
      </trkpt>
      <trkpt lat="42.164198" lon="-2.792532">
        <ele>980.2</ele>
        <time>2021-07-04T10:29:50.000Z</time>
      </trkpt>
      <trkpt lat="42.164227" lon="-2.792397">
        <ele>980.7</ele>
        <time>2021-07-04T10:29:56.000Z</time>
      </trkpt>
      <trkpt lat="42.164242" lon="-2.792273">
        <ele>981.5</ele>
        <time>2021-07-04T10:30:01.000Z</time>
      </trkpt>
      <trkpt lat="42.164255" lon="-2.792135">
        <ele>982.1</ele>
        <time>2021-07-04T10:30:07.000Z</time>
      </trkpt>
      <trkpt lat="42.164262" lon="-2.792005">
        <ele>983.0</ele>
        <time>2021-07-04T10:30:13.000Z</time>
      </trkpt>
      <trkpt lat="42.164272" lon="-2.791875">
        <ele>983.4</ele>
        <time>2021-07-04T10:30:19.000Z</time>
      </trkpt>
      <trkpt lat="42.164273" lon="-2.791740">
        <ele>985.2</ele>
        <time>2021-07-04T10:30:25.000Z</time>
      </trkpt>
      <trkpt lat="42.164273" lon="-2.791617">
        <ele>985.8</ele>
        <time>2021-07-04T10:30:31.000Z</time>
      </trkpt>
      <trkpt lat="42.164253" lon="-2.791498">
        <ele>986.5</ele>
        <time>2021-07-04T10:30:37.000Z</time>
      </trkpt>
      <trkpt lat="42.164250" lon="-2.791355">
        <ele>987.2</ele>
        <time>2021-07-04T10:30:43.000Z</time>
      </trkpt>
      <trkpt lat="42.164247" lon="-2.791230">
        <ele>987.7</ele>
        <time>2021-07-04T10:30:48.000Z</time>
      </trkpt>
      <trkpt lat="42.164250" lon="-2.791103">
        <ele>987.8</ele>
        <time>2021-07-04T10:30:53.000Z</time>
      </trkpt>
      <trkpt lat="42.164247" lon="-2.790967">
        <ele>988.5</ele>
        <time>2021-07-04T10:30:58.000Z</time>
      </trkpt>
      <trkpt lat="42.164252" lon="-2.790835">
        <ele>988.9</ele>
        <time>2021-07-04T10:31:03.000Z</time>
      </trkpt>
      <trkpt lat="42.164258" lon="-2.790690">
        <ele>989.3</ele>
        <time>2021-07-04T10:31:08.000Z</time>
      </trkpt>
      <trkpt lat="42.164263" lon="-2.790555">
        <ele>990.1</ele>
        <time>2021-07-04T10:31:13.000Z</time>
      </trkpt>
      <trkpt lat="42.164265" lon="-2.790433">
        <ele>990.5</ele>
        <time>2021-07-04T10:31:18.000Z</time>
      </trkpt>
      <trkpt lat="42.164277" lon="-2.790303">
        <ele>991.4</ele>
        <time>2021-07-04T10:31:24.000Z</time>
      </trkpt>
      <trkpt lat="42.164307" lon="-2.790170">
        <ele>992.3</ele>
        <time>2021-07-04T10:31:30.000Z</time>
      </trkpt>
      <trkpt lat="42.164343" lon="-2.790058">
        <ele>992.8</ele>
        <time>2021-07-04T10:31:35.000Z</time>
      </trkpt>
      <trkpt lat="42.164372" lon="-2.789925">
        <ele>993.9</ele>
        <time>2021-07-04T10:31:41.000Z</time>
      </trkpt>
      <trkpt lat="42.164405" lon="-2.789798">
        <ele>994.5</ele>
        <time>2021-07-04T10:31:48.000Z</time>
      </trkpt>
      <trkpt lat="42.164425" lon="-2.789728">
        <ele>995.0</ele>
        <time>2021-07-04T10:31:56.000Z</time>
      </trkpt>
      <trkpt lat="42.164427" lon="-2.789723">
        <ele>995.3</ele>
        <time>2021-07-04T10:32:09.000Z</time>
      </trkpt>
      <trkpt lat="42.164427" lon="-2.789718">
        <ele>995.4</ele>
        <time>2021-07-04T10:32:12.000Z</time>
      </trkpt>
      <trkpt lat="42.164428" lon="-2.789718">
        <ele>995.7</ele>
        <time>2021-07-04T10:32:14.000Z</time>
      </trkpt>
      <trkpt lat="42.164428" lon="-2.789718">
        <ele>995.7</ele>
        <time>2021-07-04T10:32:15.000Z</time>
      </trkpt>
      <trkpt lat="42.164427" lon="-2.789717">
        <ele>995.6</ele>
        <time>2021-07-04T10:32:17.000Z</time>
      </trkpt>
      <trkpt lat="42.164448" lon="-2.789588">
        <ele>995.4</ele>
        <time>2021-07-04T10:32:26.000Z</time>
      </trkpt>
      <trkpt lat="42.164450" lon="-2.789543">
        <ele>996.4</ele>
        <time>2021-07-04T10:32:30.000Z</time>
      </trkpt>
      <trkpt lat="42.164452" lon="-2.789543">
        <ele>997.3</ele>
        <time>2021-07-04T10:32:35.000Z</time>
      </trkpt>
      <trkpt lat="42.164452" lon="-2.789543">
        <ele>992.6</ele>
        <time>2021-07-04T10:32:36.000Z</time>
      </trkpt>
      <trkpt lat="42.164453" lon="-2.789543">
        <ele>996.8</ele>
        <time>2021-07-04T10:32:46.000Z</time>
      </trkpt>
      <trkpt lat="42.164497" lon="-2.789415">
        <ele>996.2</ele>
        <time>2021-07-04T10:32:56.000Z</time>
      </trkpt>
      <trkpt lat="42.164527" lon="-2.789300">
        <ele>997.5</ele>
        <time>2021-07-04T10:33:02.000Z</time>
      </trkpt>
      <trkpt lat="42.164542" lon="-2.789178">
        <ele>998.4</ele>
        <time>2021-07-04T10:33:08.000Z</time>
      </trkpt>
      <trkpt lat="42.164570" lon="-2.789060">
        <ele>999.0</ele>
        <time>2021-07-04T10:33:14.000Z</time>
      </trkpt>
      <trkpt lat="42.164602" lon="-2.788937">
        <ele>999.7</ele>
        <time>2021-07-04T10:33:20.000Z</time>
      </trkpt>
      <trkpt lat="42.164622" lon="-2.788817">
        <ele>1000.8</ele>
        <time>2021-07-04T10:33:26.000Z</time>
      </trkpt>
      <trkpt lat="42.164643" lon="-2.788695">
        <ele>1001.5</ele>
        <time>2021-07-04T10:33:32.000Z</time>
      </trkpt>
      <trkpt lat="42.164668" lon="-2.788572">
        <ele>1002.3</ele>
        <time>2021-07-04T10:33:38.000Z</time>
      </trkpt>
      <trkpt lat="42.164690" lon="-2.788450">
        <ele>1003.4</ele>
        <time>2021-07-04T10:33:44.000Z</time>
      </trkpt>
      <trkpt lat="42.164717" lon="-2.788313">
        <ele>1003.8</ele>
        <time>2021-07-04T10:33:51.000Z</time>
      </trkpt>
      <trkpt lat="42.164743" lon="-2.788178">
        <ele>1005.2</ele>
        <time>2021-07-04T10:33:58.000Z</time>
      </trkpt>
      <trkpt lat="42.164773" lon="-2.788052">
        <ele>1006.7</ele>
        <time>2021-07-04T10:34:05.000Z</time>
      </trkpt>
      <trkpt lat="42.164807" lon="-2.787925">
        <ele>1008.0</ele>
        <time>2021-07-04T10:34:12.000Z</time>
      </trkpt>
      <trkpt lat="42.164822" lon="-2.787787">
        <ele>1008.6</ele>
        <time>2021-07-04T10:34:19.000Z</time>
      </trkpt>
      <trkpt lat="42.164850" lon="-2.787662">
        <ele>1009.3</ele>
        <time>2021-07-04T10:34:26.000Z</time>
      </trkpt>
      <trkpt lat="42.164877" lon="-2.787535">
        <ele>1010.2</ele>
        <time>2021-07-04T10:34:33.000Z</time>
      </trkpt>
      <trkpt lat="42.164895" lon="-2.787403">
        <ele>1011.6</ele>
        <time>2021-07-04T10:34:40.000Z</time>
      </trkpt>
      <trkpt lat="42.164915" lon="-2.787268">
        <ele>1012.4</ele>
        <time>2021-07-04T10:34:47.000Z</time>
      </trkpt>
      <trkpt lat="42.164938" lon="-2.787142">
        <ele>1013.2</ele>
        <time>2021-07-04T10:34:54.000Z</time>
      </trkpt>
      <trkpt lat="42.164960" lon="-2.787017">
        <ele>1014.2</ele>
        <time>2021-07-04T10:35:02.000Z</time>
      </trkpt>
      <trkpt lat="42.164982" lon="-2.786883">
        <ele>1015.8</ele>
        <time>2021-07-04T10:35:11.000Z</time>
      </trkpt>
      <trkpt lat="42.165005" lon="-2.786753">
        <ele>1016.7</ele>
        <time>2021-07-04T10:35:19.000Z</time>
      </trkpt>
      <trkpt lat="42.165035" lon="-2.786623">
        <ele>1017.6</ele>
        <time>2021-07-04T10:35:27.000Z</time>
      </trkpt>
      <trkpt lat="42.165068" lon="-2.786493">
        <ele>1019.3</ele>
        <time>2021-07-04T10:35:35.000Z</time>
      </trkpt>
      <trkpt lat="42.165090" lon="-2.786372">
        <ele>1020.2</ele>
        <time>2021-07-04T10:35:42.000Z</time>
      </trkpt>
      <trkpt lat="42.165102" lon="-2.786250">
        <ele>1021.5</ele>
        <time>2021-07-04T10:35:49.000Z</time>
      </trkpt>
      <trkpt lat="42.165122" lon="-2.786123">
        <ele>1022.3</ele>
        <time>2021-07-04T10:35:57.000Z</time>
      </trkpt>
      <trkpt lat="42.165142" lon="-2.786002">
        <ele>1023.5</ele>
        <time>2021-07-04T10:36:05.000Z</time>
      </trkpt>
      <trkpt lat="42.165167" lon="-2.785878">
        <ele>1024.5</ele>
        <time>2021-07-04T10:36:13.000Z</time>
      </trkpt>
      <trkpt lat="42.165183" lon="-2.785747">
        <ele>1025.8</ele>
        <time>2021-07-04T10:36:21.000Z</time>
      </trkpt>
      <trkpt lat="42.165202" lon="-2.785613">
        <ele>1027.0</ele>
        <time>2021-07-04T10:36:29.000Z</time>
      </trkpt>
      <trkpt lat="42.165210" lon="-2.785485">
        <ele>1028.5</ele>
        <time>2021-07-04T10:36:37.000Z</time>
      </trkpt>
      <trkpt lat="42.165220" lon="-2.785353">
        <ele>1029.7</ele>
        <time>2021-07-04T10:36:45.000Z</time>
      </trkpt>
      <trkpt lat="42.165227" lon="-2.785218">
        <ele>1031.0</ele>
        <time>2021-07-04T10:36:53.000Z</time>
      </trkpt>
      <trkpt lat="42.165235" lon="-2.785088">
        <ele>1032.2</ele>
        <time>2021-07-04T10:37:01.000Z</time>
      </trkpt>
      <trkpt lat="42.165243" lon="-2.784960">
        <ele>1033.4</ele>
        <time>2021-07-04T10:37:09.000Z</time>
      </trkpt>
      <trkpt lat="42.165258" lon="-2.784833">
        <ele>1034.5</ele>
        <time>2021-07-04T10:37:17.000Z</time>
      </trkpt>
      <trkpt lat="42.165263" lon="-2.784705">
        <ele>1035.5</ele>
        <time>2021-07-04T10:37:25.000Z</time>
      </trkpt>
      <trkpt lat="42.165268" lon="-2.784583">
        <ele>1036.9</ele>
        <time>2021-07-04T10:37:33.000Z</time>
      </trkpt>
      <trkpt lat="42.165277" lon="-2.784460">
        <ele>1038.4</ele>
        <time>2021-07-04T10:37:41.000Z</time>
      </trkpt>
      <trkpt lat="42.165270" lon="-2.784337">
        <ele>1040.3</ele>
        <time>2021-07-04T10:37:49.000Z</time>
      </trkpt>
      <trkpt lat="42.165248" lon="-2.784212">
        <ele>1041.9</ele>
        <time>2021-07-04T10:37:57.000Z</time>
      </trkpt>
      <trkpt lat="42.165238" lon="-2.784082">
        <ele>1043.0</ele>
        <time>2021-07-04T10:38:05.000Z</time>
      </trkpt>
      <trkpt lat="42.165253" lon="-2.783957">
        <ele>1044.3</ele>
        <time>2021-07-04T10:38:13.000Z</time>
      </trkpt>
      <trkpt lat="42.165313" lon="-2.783850">
        <ele>1044.9</ele>
        <time>2021-07-04T10:38:21.000Z</time>
      </trkpt>
      <trkpt lat="42.165393" lon="-2.783787">
        <ele>1046.4</ele>
        <time>2021-07-04T10:38:28.000Z</time>
      </trkpt>
      <trkpt lat="42.165480" lon="-2.783730">
        <ele>1047.2</ele>
        <time>2021-07-04T10:38:35.000Z</time>
      </trkpt>
      <trkpt lat="42.165578" lon="-2.783692">
        <ele>1047.0</ele>
        <time>2021-07-04T10:38:43.000Z</time>
      </trkpt>
      <trkpt lat="42.165667" lon="-2.783662">
        <ele>1048.2</ele>
        <time>2021-07-04T10:38:50.000Z</time>
      </trkpt>
      <trkpt lat="42.165762" lon="-2.783628">
        <ele>1050.0</ele>
        <time>2021-07-04T10:38:58.000Z</time>
      </trkpt>
      <trkpt lat="42.165858" lon="-2.783605">
        <ele>1051.4</ele>
        <time>2021-07-04T10:39:06.000Z</time>
      </trkpt>
      <trkpt lat="42.165952" lon="-2.783605">
        <ele>1053.6</ele>
        <time>2021-07-04T10:39:14.000Z</time>
      </trkpt>
      <trkpt lat="42.166042" lon="-2.783557">
        <ele>1053.9</ele>
        <time>2021-07-04T10:39:22.000Z</time>
      </trkpt>
      <trkpt lat="42.166130" lon="-2.783493">
        <ele>1055.4</ele>
        <time>2021-07-04T10:39:30.000Z</time>
      </trkpt>
      <trkpt lat="42.166140" lon="-2.783368">
        <ele>1055.9</ele>
        <time>2021-07-04T10:39:38.000Z</time>
      </trkpt>
      <trkpt lat="42.166073" lon="-2.783277">
        <ele>1056.2</ele>
        <time>2021-07-04T10:39:45.000Z</time>
      </trkpt>
      <trkpt lat="42.166000" lon="-2.783188">
        <ele>1056.0</ele>
        <time>2021-07-04T10:39:53.000Z</time>
      </trkpt>
      <trkpt lat="42.165927" lon="-2.783105">
        <ele>1057.2</ele>
        <time>2021-07-04T10:40:01.000Z</time>
      </trkpt>
      <trkpt lat="42.165847" lon="-2.783047">
        <ele>1058.2</ele>
        <time>2021-07-04T10:40:08.000Z</time>
      </trkpt>
      <trkpt lat="42.165772" lon="-2.782972">
        <ele>1060.1</ele>
        <time>2021-07-04T10:40:15.000Z</time>
      </trkpt>
      <trkpt lat="42.165705" lon="-2.782872">
        <ele>1061.7</ele>
        <time>2021-07-04T10:40:23.000Z</time>
      </trkpt>
      <trkpt lat="42.165627" lon="-2.782795">
        <ele>1062.6</ele>
        <time>2021-07-04T10:40:31.000Z</time>
      </trkpt>
      <trkpt lat="42.165570" lon="-2.782687">
        <ele>1063.9</ele>
        <time>2021-07-04T10:40:39.000Z</time>
      </trkpt>
      <trkpt lat="42.165533" lon="-2.782563">
        <ele>1065.1</ele>
        <time>2021-07-04T10:40:47.000Z</time>
      </trkpt>
      <trkpt lat="42.165498" lon="-2.782442">
        <ele>1066.4</ele>
        <time>2021-07-04T10:40:55.000Z</time>
      </trkpt>
      <trkpt lat="42.165508" lon="-2.782318">
        <ele>1067.5</ele>
        <time>2021-07-04T10:41:02.000Z</time>
      </trkpt>
      <trkpt lat="42.165527" lon="-2.782185">
        <ele>1068.8</ele>
        <time>2021-07-04T10:41:10.000Z</time>
      </trkpt>
      <trkpt lat="42.165547" lon="-2.782053">
        <ele>1069.5</ele>
        <time>2021-07-04T10:41:18.000Z</time>
      </trkpt>
      <trkpt lat="42.165588" lon="-2.781933">
        <ele>1071.1</ele>
        <time>2021-07-04T10:41:26.000Z</time>
      </trkpt>
      <trkpt lat="42.165605" lon="-2.781812">
        <ele>1072.2</ele>
        <time>2021-07-04T10:41:34.000Z</time>
      </trkpt>
      <trkpt lat="42.165632" lon="-2.781687">
        <ele>1073.5</ele>
        <time>2021-07-04T10:41:42.000Z</time>
      </trkpt>
      <trkpt lat="42.165648" lon="-2.781555">
        <ele>1074.7</ele>
        <time>2021-07-04T10:41:50.000Z</time>
      </trkpt>
      <trkpt lat="42.165662" lon="-2.781425">
        <ele>1075.8</ele>
        <time>2021-07-04T10:41:58.000Z</time>
      </trkpt>
      <trkpt lat="42.165668" lon="-2.781292">
        <ele>1076.8</ele>
        <time>2021-07-04T10:42:06.000Z</time>
      </trkpt>
      <trkpt lat="42.165677" lon="-2.781163">
        <ele>1078.4</ele>
        <time>2021-07-04T10:42:14.000Z</time>
      </trkpt>
      <trkpt lat="42.165687" lon="-2.781030">
        <ele>1080.0</ele>
        <time>2021-07-04T10:42:22.000Z</time>
      </trkpt>
      <trkpt lat="42.165687" lon="-2.780900">
        <ele>1081.2</ele>
        <time>2021-07-04T10:42:30.000Z</time>
      </trkpt>
      <trkpt lat="42.165692" lon="-2.780768">
        <ele>1083.2</ele>
        <time>2021-07-04T10:42:38.000Z</time>
      </trkpt>
      <trkpt lat="42.165703" lon="-2.780643">
        <ele>1084.0</ele>
        <time>2021-07-04T10:42:46.000Z</time>
      </trkpt>
      <trkpt lat="42.165717" lon="-2.780518">
        <ele>1085.5</ele>
        <time>2021-07-04T10:42:54.000Z</time>
      </trkpt>
      <trkpt lat="42.165727" lon="-2.780390">
        <ele>1087.0</ele>
        <time>2021-07-04T10:43:02.000Z</time>
      </trkpt>
      <trkpt lat="42.165763" lon="-2.780267">
        <ele>1088.0</ele>
        <time>2021-07-04T10:43:10.000Z</time>
      </trkpt>
      <trkpt lat="42.165800" lon="-2.780147">
        <ele>1089.8</ele>
        <time>2021-07-04T10:43:18.000Z</time>
      </trkpt>
      <trkpt lat="42.165855" lon="-2.780038">
        <ele>1091.3</ele>
        <time>2021-07-04T10:43:26.000Z</time>
      </trkpt>
      <trkpt lat="42.165907" lon="-2.779930">
        <ele>1092.4</ele>
        <time>2021-07-04T10:43:34.000Z</time>
      </trkpt>
      <trkpt lat="42.165968" lon="-2.779825">
        <ele>1093.6</ele>
        <time>2021-07-04T10:43:42.000Z</time>
      </trkpt>
      <trkpt lat="42.166027" lon="-2.779718">
        <ele>1094.9</ele>
        <time>2021-07-04T10:43:50.000Z</time>
      </trkpt>
      <trkpt lat="42.166073" lon="-2.779600">
        <ele>1096.4</ele>
        <time>2021-07-04T10:43:58.000Z</time>
      </trkpt>
      <trkpt lat="42.166132" lon="-2.779495">
        <ele>1097.4</ele>
        <time>2021-07-04T10:44:06.000Z</time>
      </trkpt>
      <trkpt lat="42.166187" lon="-2.779398">
        <ele>1098.4</ele>
        <time>2021-07-04T10:44:13.000Z</time>
      </trkpt>
      <trkpt lat="42.166250" lon="-2.779302">
        <ele>1099.8</ele>
        <time>2021-07-04T10:44:21.000Z</time>
      </trkpt>
      <trkpt lat="42.166302" lon="-2.779182">
        <ele>1101.2</ele>
        <time>2021-07-04T10:44:29.000Z</time>
      </trkpt>
      <trkpt lat="42.166353" lon="-2.779080">
        <ele>1101.7</ele>
        <time>2021-07-04T10:44:36.000Z</time>
      </trkpt>
      <trkpt lat="42.166412" lon="-2.778982">
        <ele>1103.1</ele>
        <time>2021-07-04T10:44:43.000Z</time>
      </trkpt>
      <trkpt lat="42.166470" lon="-2.778873">
        <ele>1104.1</ele>
        <time>2021-07-04T10:44:51.000Z</time>
      </trkpt>
      <trkpt lat="42.166525" lon="-2.778772">
        <ele>1105.1</ele>
        <time>2021-07-04T10:44:58.000Z</time>
      </trkpt>
      <trkpt lat="42.166578" lon="-2.778673">
        <ele>1105.8</ele>
        <time>2021-07-04T10:45:05.000Z</time>
      </trkpt>
      <trkpt lat="42.166635" lon="-2.778562">
        <ele>1107.1</ele>
        <time>2021-07-04T10:45:13.000Z</time>
      </trkpt>
      <trkpt lat="42.166678" lon="-2.778453">
        <ele>1108.0</ele>
        <time>2021-07-04T10:45:21.000Z</time>
      </trkpt>
      <trkpt lat="42.166700" lon="-2.778327">
        <ele>1109.7</ele>
        <time>2021-07-04T10:45:30.000Z</time>
      </trkpt>
      <trkpt lat="42.166710" lon="-2.778198">
        <ele>1111.1</ele>
        <time>2021-07-04T10:45:39.000Z</time>
      </trkpt>
      <trkpt lat="42.166717" lon="-2.778072">
        <ele>1112.8</ele>
        <time>2021-07-04T10:45:48.000Z</time>
      </trkpt>
      <trkpt lat="42.166725" lon="-2.777942">
        <ele>1114.3</ele>
        <time>2021-07-04T10:45:58.000Z</time>
      </trkpt>
      <trkpt lat="42.166743" lon="-2.777813">
        <ele>1116.5</ele>
        <time>2021-07-04T10:46:08.000Z</time>
      </trkpt>
      <trkpt lat="42.166753" lon="-2.777680">
        <ele>1117.9</ele>
        <time>2021-07-04T10:46:18.000Z</time>
      </trkpt>
      <trkpt lat="42.166762" lon="-2.777550">
        <ele>1119.8</ele>
        <time>2021-07-04T10:46:28.000Z</time>
      </trkpt>
      <trkpt lat="42.166762" lon="-2.777420">
        <ele>1121.1</ele>
        <time>2021-07-04T10:46:38.000Z</time>
      </trkpt>
      <trkpt lat="42.166765" lon="-2.777297">
        <ele>1122.7</ele>
        <time>2021-07-04T10:46:47.000Z</time>
      </trkpt>
      <trkpt lat="42.166788" lon="-2.777172">
        <ele>1124.3</ele>
        <time>2021-07-04T10:46:57.000Z</time>
      </trkpt>
      <trkpt lat="42.166823" lon="-2.777052">
        <ele>1126.5</ele>
        <time>2021-07-04T10:47:07.000Z</time>
      </trkpt>
      <trkpt lat="42.166858" lon="-2.776927">
        <ele>1128.4</ele>
        <time>2021-07-04T10:47:17.000Z</time>
      </trkpt>
      <trkpt lat="42.166923" lon="-2.776830">
        <ele>1129.0</ele>
        <time>2021-07-04T10:47:26.000Z</time>
      </trkpt>
      <trkpt lat="42.166998" lon="-2.776747">
        <ele>1130.7</ele>
        <time>2021-07-04T10:47:35.000Z</time>
      </trkpt>
      <trkpt lat="42.167070" lon="-2.776653">
        <ele>1131.6</ele>
        <time>2021-07-04T10:47:45.000Z</time>
      </trkpt>
      <trkpt lat="42.167142" lon="-2.776567">
        <ele>1133.4</ele>
        <time>2021-07-04T10:47:55.000Z</time>
      </trkpt>
      <trkpt lat="42.167233" lon="-2.776573">
        <ele>1135.0</ele>
        <time>2021-07-04T10:48:04.000Z</time>
      </trkpt>
      <trkpt lat="42.167275" lon="-2.776685">
        <ele>1136.8</ele>
        <time>2021-07-04T10:48:13.000Z</time>
      </trkpt>
      <trkpt lat="42.167287" lon="-2.776812">
        <ele>1137.3</ele>
        <time>2021-07-04T10:48:22.000Z</time>
      </trkpt>
      <trkpt lat="42.167247" lon="-2.776922">
        <ele>1138.3</ele>
        <time>2021-07-04T10:48:31.000Z</time>
      </trkpt>
      <trkpt lat="42.167255" lon="-2.777045">
        <ele>1139.5</ele>
        <time>2021-07-04T10:48:40.000Z</time>
      </trkpt>
      <trkpt lat="42.167235" lon="-2.777165">
        <ele>1141.1</ele>
        <time>2021-07-04T10:48:49.000Z</time>
      </trkpt>
      <trkpt lat="42.167257" lon="-2.777283">
        <ele>1142.2</ele>
        <time>2021-07-04T10:48:58.000Z</time>
      </trkpt>
      <trkpt lat="42.167255" lon="-2.777408">
        <ele>1143.2</ele>
        <time>2021-07-04T10:49:08.000Z</time>
      </trkpt>
      <trkpt lat="42.167317" lon="-2.777497">
        <ele>1144.6</ele>
        <time>2021-07-04T10:49:17.000Z</time>
      </trkpt>
      <trkpt lat="42.167355" lon="-2.777608">
        <ele>1145.9</ele>
        <time>2021-07-04T10:49:26.000Z</time>
      </trkpt>
      <trkpt lat="42.167395" lon="-2.777720">
        <ele>1147.2</ele>
        <time>2021-07-04T10:49:35.000Z</time>
      </trkpt>
      <trkpt lat="42.167450" lon="-2.777827">
        <ele>1147.7</ele>
        <time>2021-07-04T10:49:44.000Z</time>
      </trkpt>
      <trkpt lat="42.167480" lon="-2.777943">
        <ele>1148.9</ele>
        <time>2021-07-04T10:49:52.000Z</time>
      </trkpt>
      <trkpt lat="42.167545" lon="-2.778040">
        <ele>1149.2</ele>
        <time>2021-07-04T10:50:01.000Z</time>
      </trkpt>
      <trkpt lat="42.167577" lon="-2.778155">
        <ele>1150.6</ele>
        <time>2021-07-04T10:50:09.000Z</time>
      </trkpt>
      <trkpt lat="42.167568" lon="-2.778287">
        <ele>1151.8</ele>
        <time>2021-07-04T10:50:18.000Z</time>
      </trkpt>
      <trkpt lat="42.167567" lon="-2.778412">
        <ele>1152.1</ele>
        <time>2021-07-04T10:50:26.000Z</time>
      </trkpt>
      <trkpt lat="42.167542" lon="-2.778530">
        <ele>1153.3</ele>
        <time>2021-07-04T10:50:34.000Z</time>
      </trkpt>
      <trkpt lat="42.167527" lon="-2.778650">
        <ele>1153.9</ele>
        <time>2021-07-04T10:50:42.000Z</time>
      </trkpt>
      <trkpt lat="42.167485" lon="-2.778758">
        <ele>1155.7</ele>
        <time>2021-07-04T10:50:51.000Z</time>
      </trkpt>
      <trkpt lat="42.167485" lon="-2.778882">
        <ele>1156.7</ele>
        <time>2021-07-04T10:51:00.000Z</time>
      </trkpt>
      <trkpt lat="42.167447" lon="-2.778995">
        <ele>1158.0</ele>
        <time>2021-07-04T10:51:09.000Z</time>
      </trkpt>
      <trkpt lat="42.167453" lon="-2.779128">
        <ele>1159.4</ele>
        <time>2021-07-04T10:51:19.000Z</time>
      </trkpt>
      <trkpt lat="42.167413" lon="-2.779248">
        <ele>1161.1</ele>
        <time>2021-07-04T10:51:29.000Z</time>
      </trkpt>
      <trkpt lat="42.167438" lon="-2.779365">
        <ele>1162.3</ele>
        <time>2021-07-04T10:51:38.000Z</time>
      </trkpt>
      <trkpt lat="42.167397" lon="-2.779478">
        <ele>1163.8</ele>
        <time>2021-07-04T10:51:47.000Z</time>
      </trkpt>
      <trkpt lat="42.167410" lon="-2.779610">
        <ele>1165.2</ele>
        <time>2021-07-04T10:51:57.000Z</time>
      </trkpt>
      <trkpt lat="42.167383" lon="-2.779728">
        <ele>1166.5</ele>
        <time>2021-07-04T10:52:06.000Z</time>
      </trkpt>
      <trkpt lat="42.167383" lon="-2.779860">
        <ele>1168.5</ele>
        <time>2021-07-04T10:52:16.000Z</time>
      </trkpt>
      <trkpt lat="42.167357" lon="-2.779965">
        <ele>1169.3</ele>
        <time>2021-07-04T10:52:28.000Z</time>
      </trkpt>
      <trkpt lat="42.167355" lon="-2.779968">
        <ele>1171.4</ele>
        <time>2021-07-04T10:52:44.000Z</time>
      </trkpt>
      <trkpt lat="42.167350" lon="-2.779968">
        <ele>1172.0</ele>
        <time>2021-07-04T10:52:47.000Z</time>
      </trkpt>
      <trkpt lat="42.167352" lon="-2.779968">
        <ele>1168.8</ele>
        <time>2021-07-04T10:53:15.000Z</time>
      </trkpt>
      <trkpt lat="42.167352" lon="-2.779968">
        <ele>1168.7</ele>
        <time>2021-07-04T10:53:16.000Z</time>
      </trkpt>
      <trkpt lat="42.167353" lon="-2.779967">
        <ele>1165.6</ele>
        <time>2021-07-04T10:53:33.000Z</time>
      </trkpt>
      <trkpt lat="42.167353" lon="-2.779967">
        <ele>1167.3</ele>
        <time>2021-07-04T10:53:34.000Z</time>
      </trkpt>
      <trkpt lat="42.167353" lon="-2.779973">
        <ele>1171.6</ele>
        <time>2021-07-04T10:53:48.000Z</time>
      </trkpt>
      <trkpt lat="42.167352" lon="-2.779985">
        <ele>1165.4</ele>
        <time>2021-07-04T10:53:52.000Z</time>
      </trkpt>
      <trkpt lat="42.167355" lon="-2.779982">
        <ele>1168.0</ele>
        <time>2021-07-04T10:53:53.000Z</time>
      </trkpt>
      <trkpt lat="42.167353" lon="-2.779982">
        <ele>1168.5</ele>
        <time>2021-07-04T10:53:55.000Z</time>
      </trkpt>
      <trkpt lat="42.167355" lon="-2.779985">
        <ele>1168.9</ele>
        <time>2021-07-04T10:53:56.000Z</time>
      </trkpt>
      <trkpt lat="42.167365" lon="-2.780113">
        <ele>1170.3</ele>
        <time>2021-07-04T10:54:05.000Z</time>
      </trkpt>
      <trkpt lat="42.167388" lon="-2.780232">
        <ele>1169.6</ele>
        <time>2021-07-04T10:54:13.000Z</time>
      </trkpt>
      <trkpt lat="42.167383" lon="-2.780353">
        <ele>1173.6</ele>
        <time>2021-07-04T10:54:21.000Z</time>
      </trkpt>
      <trkpt lat="42.167407" lon="-2.780472">
        <ele>1174.3</ele>
        <time>2021-07-04T10:54:29.000Z</time>
      </trkpt>
      <trkpt lat="42.167407" lon="-2.780602">
        <ele>1174.2</ele>
        <time>2021-07-04T10:54:38.000Z</time>
      </trkpt>
      <trkpt lat="42.167452" lon="-2.780722">
        <ele>1175.5</ele>
        <time>2021-07-04T10:54:47.000Z</time>
      </trkpt>
      <trkpt lat="42.167463" lon="-2.780850">
        <ele>1179.0</ele>
        <time>2021-07-04T10:54:56.000Z</time>
      </trkpt>
      <trkpt lat="42.167518" lon="-2.780948">
        <ele>1179.4</ele>
        <time>2021-07-04T10:55:04.000Z</time>
      </trkpt>
      <trkpt lat="42.167545" lon="-2.781068">
        <ele>1180.9</ele>
        <time>2021-07-04T10:55:12.000Z</time>
      </trkpt>
      <trkpt lat="42.167598" lon="-2.781177">
        <ele>1181.3</ele>
        <time>2021-07-04T10:55:20.000Z</time>
      </trkpt>
      <trkpt lat="42.167642" lon="-2.781292">
        <ele>1181.9</ele>
        <time>2021-07-04T10:55:28.000Z</time>
      </trkpt>
      <trkpt lat="42.167700" lon="-2.781392">
        <ele>1182.7</ele>
        <time>2021-07-04T10:55:36.000Z</time>
      </trkpt>
      <trkpt lat="42.167763" lon="-2.781483">
        <ele>1184.6</ele>
        <time>2021-07-04T10:55:44.000Z</time>
      </trkpt>
      <trkpt lat="42.167843" lon="-2.781560">
        <ele>1186.8</ele>
        <time>2021-07-04T10:55:53.000Z</time>
      </trkpt>
      <trkpt lat="42.167930" lon="-2.781603">
        <ele>1186.7</ele>
        <time>2021-07-04T10:56:01.000Z</time>
      </trkpt>
      <trkpt lat="42.168020" lon="-2.781628">
        <ele>1188.1</ele>
        <time>2021-07-04T10:56:09.000Z</time>
      </trkpt>
      <trkpt lat="42.168113" lon="-2.781633">
        <ele>1188.5</ele>
        <time>2021-07-04T10:56:17.000Z</time>
      </trkpt>
      <trkpt lat="42.168200" lon="-2.781683">
        <ele>1189.2</ele>
        <time>2021-07-04T10:56:25.000Z</time>
      </trkpt>
      <trkpt lat="42.168297" lon="-2.781698">
        <ele>1190.0</ele>
        <time>2021-07-04T10:56:34.000Z</time>
      </trkpt>
      <trkpt lat="42.168385" lon="-2.781737">
        <ele>1192.9</ele>
        <time>2021-07-04T10:56:42.000Z</time>
      </trkpt>
      <trkpt lat="42.168462" lon="-2.781803">
        <ele>1195.1</ele>
        <time>2021-07-04T10:56:50.000Z</time>
      </trkpt>
      <trkpt lat="42.168560" lon="-2.781812">
        <ele>1194.6</ele>
        <time>2021-07-04T10:56:59.000Z</time>
      </trkpt>
      <trkpt lat="42.168652" lon="-2.781852">
        <ele>1196.8</ele>
        <time>2021-07-04T10:57:08.000Z</time>
      </trkpt>
      <trkpt lat="42.168752" lon="-2.781847">
        <ele>1197.5</ele>
        <time>2021-07-04T10:57:17.000Z</time>
      </trkpt>
      <trkpt lat="42.168833" lon="-2.781785">
        <ele>1200.2</ele>
        <time>2021-07-04T10:57:26.000Z</time>
      </trkpt>
      <trkpt lat="42.168817" lon="-2.781652">
        <ele>1200.2</ele>
        <time>2021-07-04T10:57:35.000Z</time>
      </trkpt>
      <trkpt lat="42.168763" lon="-2.781548">
        <ele>1202.5</ele>
        <time>2021-07-04T10:57:43.000Z</time>
      </trkpt>
      <trkpt lat="42.168680" lon="-2.781502">
        <ele>1203.4</ele>
        <time>2021-07-04T10:57:51.000Z</time>
      </trkpt>
      <trkpt lat="42.168590" lon="-2.781453">
        <ele>1205.3</ele>
        <time>2021-07-04T10:58:00.000Z</time>
      </trkpt>
      <trkpt lat="42.168495" lon="-2.781423">
        <ele>1207.2</ele>
        <time>2021-07-04T10:58:09.000Z</time>
      </trkpt>
      <trkpt lat="42.168402" lon="-2.781380">
        <ele>1208.1</ele>
        <time>2021-07-04T10:58:18.000Z</time>
      </trkpt>
      <trkpt lat="42.168320" lon="-2.781302">
        <ele>1209.7</ele>
        <time>2021-07-04T10:58:27.000Z</time>
      </trkpt>
      <trkpt lat="42.168250" lon="-2.781213">
        <ele>1210.9</ele>
        <time>2021-07-04T10:58:36.000Z</time>
      </trkpt>
      <trkpt lat="42.168192" lon="-2.781118">
        <ele>1211.8</ele>
        <time>2021-07-04T10:58:44.000Z</time>
      </trkpt>
      <trkpt lat="42.168175" lon="-2.780992">
        <ele>1213.0</ele>
        <time>2021-07-04T10:58:52.000Z</time>
      </trkpt>
      <trkpt lat="42.168132" lon="-2.780883">
        <ele>1214.6</ele>
        <time>2021-07-04T10:59:00.000Z</time>
      </trkpt>
      <trkpt lat="42.168125" lon="-2.780758">
        <ele>1216.1</ele>
        <time>2021-07-04T10:59:08.000Z</time>
      </trkpt>
      <trkpt lat="42.168122" lon="-2.780627">
        <ele>1216.9</ele>
        <time>2021-07-04T10:59:16.000Z</time>
      </trkpt>
      <trkpt lat="42.168123" lon="-2.780498">
        <ele>1217.7</ele>
        <time>2021-07-04T10:59:24.000Z</time>
      </trkpt>
      <trkpt lat="42.168143" lon="-2.780365">
        <ele>1218.7</ele>
        <time>2021-07-04T10:59:32.000Z</time>
      </trkpt>
      <trkpt lat="42.168155" lon="-2.780243">
        <ele>1219.2</ele>
        <time>2021-07-04T10:59:39.000Z</time>
      </trkpt>
      <trkpt lat="42.168197" lon="-2.780127">
        <ele>1220.2</ele>
        <time>2021-07-04T10:59:46.000Z</time>
      </trkpt>
      <trkpt lat="42.168227" lon="-2.780002">
        <ele>1218.9</ele>
        <time>2021-07-04T10:59:53.000Z</time>
      </trkpt>
      <trkpt lat="42.168260" lon="-2.779878">
        <ele>1221.0</ele>
        <time>2021-07-04T11:00:00.000Z</time>
      </trkpt>
      <trkpt lat="42.168312" lon="-2.779777">
        <ele>1221.3</ele>
        <time>2021-07-04T11:00:07.000Z</time>
      </trkpt>
      <trkpt lat="42.168347" lon="-2.779647">
        <ele>1222.5</ele>
        <time>2021-07-04T11:00:14.000Z</time>
      </trkpt>
      <trkpt lat="42.168398" lon="-2.779532">
        <ele>1222.6</ele>
        <time>2021-07-04T11:00:20.000Z</time>
      </trkpt>
      <trkpt lat="42.168437" lon="-2.779413">
        <ele>1223.2</ele>
        <time>2021-07-04T11:00:26.000Z</time>
      </trkpt>
      <trkpt lat="42.168470" lon="-2.779292">
        <ele>1224.2</ele>
        <time>2021-07-04T11:00:33.000Z</time>
      </trkpt>
      <trkpt lat="42.168472" lon="-2.779290">
        <ele>1224.3</ele>
        <time>2021-07-04T11:00:35.000Z</time>
      </trkpt>
      <trkpt lat="42.168473" lon="-2.779288">
        <ele>1224.1</ele>
        <time>2021-07-04T11:00:49.000Z</time>
      </trkpt>
      <trkpt lat="42.168473" lon="-2.779288">
        <ele>1224.2</ele>
        <time>2021-07-04T11:00:50.000Z</time>
      </trkpt>
      <trkpt lat="42.168475" lon="-2.779290">
        <ele>1224.6</ele>
        <time>2021-07-04T11:01:06.000Z</time>
      </trkpt>
      <trkpt lat="42.168475" lon="-2.779290">
        <ele>1224.2</ele>
        <time>2021-07-04T11:01:07.000Z</time>
      </trkpt>
      <trkpt lat="42.168478" lon="-2.779298">
        <ele>1224.4</ele>
        <time>2021-07-04T11:01:09.000Z</time>
      </trkpt>
      <trkpt lat="42.168437" lon="-2.779410">
        <ele>1224.7</ele>
        <time>2021-07-04T11:01:15.000Z</time>
      </trkpt>
      <trkpt lat="42.168385" lon="-2.779532">
        <ele>1224.0</ele>
        <time>2021-07-04T11:01:20.000Z</time>
      </trkpt>
      <trkpt lat="42.168342" lon="-2.779655">
        <ele>1224.0</ele>
        <time>2021-07-04T11:01:24.000Z</time>
      </trkpt>
      <trkpt lat="42.168293" lon="-2.779782">
        <ele>1223.4</ele>
        <time>2021-07-04T11:01:28.000Z</time>
      </trkpt>
      <trkpt lat="42.168245" lon="-2.779905">
        <ele>1223.1</ele>
        <time>2021-07-04T11:01:32.000Z</time>
      </trkpt>
      <trkpt lat="42.168207" lon="-2.780022">
        <ele>1222.1</ele>
        <time>2021-07-04T11:01:36.000Z</time>
      </trkpt>
      <trkpt lat="42.168203" lon="-2.780033">
        <ele>1221.7</ele>
        <time>2021-07-04T11:01:39.000Z</time>
      </trkpt>
      <trkpt lat="42.168205" lon="-2.780035">
        <ele>1221.5</ele>
        <time>2021-07-04T11:02:33.000Z</time>
      </trkpt>
      <trkpt lat="42.168278" lon="-2.779960">
        <ele>1221.4</ele>
        <time>2021-07-04T11:02:40.000Z</time>
      </trkpt>
      <trkpt lat="42.168300" lon="-2.779825">
        <ele>1222.6</ele>
        <time>2021-07-04T11:02:46.000Z</time>
      </trkpt>
      <trkpt lat="42.168352" lon="-2.779708">
        <ele>1222.9</ele>
        <time>2021-07-04T11:02:53.000Z</time>
      </trkpt>
      <trkpt lat="42.168403" lon="-2.779605">
        <ele>1222.9</ele>
        <time>2021-07-04T11:02:59.000Z</time>
      </trkpt>
      <trkpt lat="42.168447" lon="-2.779497">
        <ele>1223.3</ele>
        <time>2021-07-04T11:03:05.000Z</time>
      </trkpt>
      <trkpt lat="42.168483" lon="-2.779382">
        <ele>1223.7</ele>
        <time>2021-07-04T11:03:11.000Z</time>
      </trkpt>
      <trkpt lat="42.168528" lon="-2.779260">
        <ele>1224.4</ele>
        <time>2021-07-04T11:03:18.000Z</time>
      </trkpt>
      <trkpt lat="42.168590" lon="-2.779165">
        <ele>1224.0</ele>
        <time>2021-07-04T11:03:24.000Z</time>
      </trkpt>
      <trkpt lat="42.168648" lon="-2.779055">
        <ele>1223.2</ele>
        <time>2021-07-04T11:03:29.000Z</time>
      </trkpt>
      <trkpt lat="42.168717" lon="-2.778963">
        <ele>1223.8</ele>
        <time>2021-07-04T11:03:33.000Z</time>
      </trkpt>
      <trkpt lat="42.168772" lon="-2.778863">
        <ele>1223.1</ele>
        <time>2021-07-04T11:03:37.000Z</time>
      </trkpt>
      <trkpt lat="42.168838" lon="-2.778775">
        <ele>1222.9</ele>
        <time>2021-07-04T11:03:41.000Z</time>
      </trkpt>
      <trkpt lat="42.168905" lon="-2.778687">
        <ele>1223.1</ele>
        <time>2021-07-04T11:03:45.000Z</time>
      </trkpt>
      <trkpt lat="42.168963" lon="-2.778560">
        <ele>1223.5</ele>
        <time>2021-07-04T11:03:50.000Z</time>
      </trkpt>
      <trkpt lat="42.169007" lon="-2.778427">
        <ele>1223.9</ele>
        <time>2021-07-04T11:03:55.000Z</time>
      </trkpt>
      <trkpt lat="42.169085" lon="-2.778345">
        <ele>1224.8</ele>
        <time>2021-07-04T11:04:00.000Z</time>
      </trkpt>
      <trkpt lat="42.169178" lon="-2.778365">
        <ele>1226.1</ele>
        <time>2021-07-04T11:04:06.000Z</time>
      </trkpt>
      <trkpt lat="42.169237" lon="-2.778478">
        <ele>1226.8</ele>
        <time>2021-07-04T11:04:13.000Z</time>
      </trkpt>
      <trkpt lat="42.169250" lon="-2.778612">
        <ele>1227.8</ele>
        <time>2021-07-04T11:04:20.000Z</time>
      </trkpt>
      <trkpt lat="42.169223" lon="-2.778735">
        <ele>1228.3</ele>
        <time>2021-07-04T11:04:26.000Z</time>
      </trkpt>
      <trkpt lat="42.169180" lon="-2.778857">
        <ele>1229.1</ele>
        <time>2021-07-04T11:04:32.000Z</time>
      </trkpt>
      <trkpt lat="42.169100" lon="-2.778940">
        <ele>1229.6</ele>
        <time>2021-07-04T11:04:38.000Z</time>
      </trkpt>
      <trkpt lat="42.169022" lon="-2.779028">
        <ele>1230.4</ele>
        <time>2021-07-04T11:04:44.000Z</time>
      </trkpt>
      <trkpt lat="42.168943" lon="-2.779107">
        <ele>1231.3</ele>
        <time>2021-07-04T11:04:50.000Z</time>
      </trkpt>
      <trkpt lat="42.168870" lon="-2.779183">
        <ele>1231.9</ele>
        <time>2021-07-04T11:04:56.000Z</time>
      </trkpt>
      <trkpt lat="42.168800" lon="-2.779283">
        <ele>1232.7</ele>
        <time>2021-07-04T11:05:02.000Z</time>
      </trkpt>
      <trkpt lat="42.168732" lon="-2.779390">
        <ele>1233.0</ele>
        <time>2021-07-04T11:05:08.000Z</time>
      </trkpt>
      <trkpt lat="42.168687" lon="-2.779512">
        <ele>1233.3</ele>
        <time>2021-07-04T11:05:14.000Z</time>
      </trkpt>
      <trkpt lat="42.168638" lon="-2.779628">
        <ele>1234.0</ele>
        <time>2021-07-04T11:05:20.000Z</time>
      </trkpt>
      <trkpt lat="42.168625" lon="-2.779755">
        <ele>1234.9</ele>
        <time>2021-07-04T11:05:26.000Z</time>
      </trkpt>
      <trkpt lat="42.168630" lon="-2.779882">
        <ele>1236.5</ele>
        <time>2021-07-04T11:05:32.000Z</time>
      </trkpt>
      <trkpt lat="42.168677" lon="-2.780007">
        <ele>1237.6</ele>
        <time>2021-07-04T11:05:39.000Z</time>
      </trkpt>
      <trkpt lat="42.168725" lon="-2.780123">
        <ele>1239.1</ele>
        <time>2021-07-04T11:05:46.000Z</time>
      </trkpt>
      <trkpt lat="42.168797" lon="-2.780220">
        <ele>1240.2</ele>
        <time>2021-07-04T11:05:53.000Z</time>
      </trkpt>
      <trkpt lat="42.168870" lon="-2.780313">
        <ele>1241.3</ele>
        <time>2021-07-04T11:06:00.000Z</time>
      </trkpt>
      <trkpt lat="42.168945" lon="-2.780410">
        <ele>1241.8</ele>
        <time>2021-07-04T11:06:07.000Z</time>
      </trkpt>
      <trkpt lat="42.169020" lon="-2.780503">
        <ele>1243.1</ele>
        <time>2021-07-04T11:06:14.000Z</time>
      </trkpt>
      <trkpt lat="42.169090" lon="-2.780595">
        <ele>1244.0</ele>
        <time>2021-07-04T11:06:21.000Z</time>
      </trkpt>
      <trkpt lat="42.169155" lon="-2.780702">
        <ele>1244.9</ele>
        <time>2021-07-04T11:06:28.000Z</time>
      </trkpt>
      <trkpt lat="42.169217" lon="-2.780793">
        <ele>1245.6</ele>
        <time>2021-07-04T11:06:34.000Z</time>
      </trkpt>
      <trkpt lat="42.169287" lon="-2.780885">
        <ele>1246.1</ele>
        <time>2021-07-04T11:06:40.000Z</time>
      </trkpt>
      <trkpt lat="42.169350" lon="-2.780995">
        <ele>1246.5</ele>
        <time>2021-07-04T11:06:46.000Z</time>
      </trkpt>
      <trkpt lat="42.169428" lon="-2.781092">
        <ele>1247.3</ele>
        <time>2021-07-04T11:06:52.000Z</time>
      </trkpt>
      <trkpt lat="42.169512" lon="-2.781183">
        <ele>1247.2</ele>
        <time>2021-07-04T11:06:58.000Z</time>
      </trkpt>
      <trkpt lat="42.169585" lon="-2.781287">
        <ele>1247.5</ele>
        <time>2021-07-04T11:07:04.000Z</time>
      </trkpt>
      <trkpt lat="42.169657" lon="-2.781393">
        <ele>1247.9</ele>
        <time>2021-07-04T11:07:10.000Z</time>
      </trkpt>
      <trkpt lat="42.169727" lon="-2.781497">
        <ele>1248.1</ele>
        <time>2021-07-04T11:07:16.000Z</time>
      </trkpt>
      <trkpt lat="42.169810" lon="-2.781585">
        <ele>1247.9</ele>
        <time>2021-07-04T11:07:22.000Z</time>
      </trkpt>
      <trkpt lat="42.169890" lon="-2.781657">
        <ele>1247.8</ele>
        <time>2021-07-04T11:07:27.000Z</time>
      </trkpt>
      <trkpt lat="42.169970" lon="-2.781737">
        <ele>1248.1</ele>
        <time>2021-07-04T11:07:32.000Z</time>
      </trkpt>
      <trkpt lat="42.170055" lon="-2.781813">
        <ele>1247.9</ele>
        <time>2021-07-04T11:07:37.000Z</time>
      </trkpt>
      <trkpt lat="42.170140" lon="-2.781872">
        <ele>1247.6</ele>
        <time>2021-07-04T11:07:42.000Z</time>
      </trkpt>
      <trkpt lat="42.170225" lon="-2.781928">
        <ele>1248.6</ele>
        <time>2021-07-04T11:07:47.000Z</time>
      </trkpt>
      <trkpt lat="42.170298" lon="-2.782013">
        <ele>1249.5</ele>
        <time>2021-07-04T11:07:53.000Z</time>
      </trkpt>
      <trkpt lat="42.170387" lon="-2.782068">
        <ele>1250.4</ele>
        <time>2021-07-04T11:07:59.000Z</time>
      </trkpt>
      <trkpt lat="42.170477" lon="-2.782032">
        <ele>1251.3</ele>
        <time>2021-07-04T11:08:05.000Z</time>
      </trkpt>
      <trkpt lat="42.170518" lon="-2.781917">
        <ele>1252.4</ele>
        <time>2021-07-04T11:08:11.000Z</time>
      </trkpt>
      <trkpt lat="42.170507" lon="-2.781788">
        <ele>1252.8</ele>
        <time>2021-07-04T11:08:17.000Z</time>
      </trkpt>
      <trkpt lat="42.170472" lon="-2.781672">
        <ele>1252.9</ele>
        <time>2021-07-04T11:08:23.000Z</time>
      </trkpt>
      <trkpt lat="42.170420" lon="-2.781565">
        <ele>1254.0</ele>
        <time>2021-07-04T11:08:29.000Z</time>
      </trkpt>
      <trkpt lat="42.170415" lon="-2.781438">
        <ele>1254.5</ele>
        <time>2021-07-04T11:08:35.000Z</time>
      </trkpt>
      <trkpt lat="42.170363" lon="-2.781315">
        <ele>1255.9</ele>
        <time>2021-07-04T11:08:42.000Z</time>
      </trkpt>
      <trkpt lat="42.170340" lon="-2.781185">
        <ele>1256.9</ele>
        <time>2021-07-04T11:08:49.000Z</time>
      </trkpt>
      <trkpt lat="42.170315" lon="-2.781057">
        <ele>1258.2</ele>
        <time>2021-07-04T11:08:56.000Z</time>
      </trkpt>
      <trkpt lat="42.170277" lon="-2.780945">
        <ele>1259.9</ele>
        <time>2021-07-04T11:09:02.000Z</time>
      </trkpt>
      <trkpt lat="42.170235" lon="-2.780835">
        <ele>1260.6</ele>
        <time>2021-07-04T11:09:08.000Z</time>
      </trkpt>
      <trkpt lat="42.170193" lon="-2.780727">
        <ele>1261.2</ele>
        <time>2021-07-04T11:09:14.000Z</time>
      </trkpt>
      <trkpt lat="42.170135" lon="-2.780633">
        <ele>1262.3</ele>
        <time>2021-07-04T11:09:20.000Z</time>
      </trkpt>
      <trkpt lat="42.170073" lon="-2.780527">
        <ele>1263.7</ele>
        <time>2021-07-04T11:09:27.000Z</time>
      </trkpt>
      <trkpt lat="42.170007" lon="-2.780422">
        <ele>1264.9</ele>
        <time>2021-07-04T11:09:34.000Z</time>
      </trkpt>
      <trkpt lat="42.169970" lon="-2.780310">
        <ele>1265.8</ele>
        <time>2021-07-04T11:09:40.000Z</time>
      </trkpt>
      <trkpt lat="42.169910" lon="-2.780217">
        <ele>1267.1</ele>
        <time>2021-07-04T11:09:46.000Z</time>
      </trkpt>
      <trkpt lat="42.169880" lon="-2.780088">
        <ele>1268.1</ele>
        <time>2021-07-04T11:09:53.000Z</time>
      </trkpt>
      <trkpt lat="42.169890" lon="-2.779948">
        <ele>1268.7</ele>
        <time>2021-07-04T11:10:00.000Z</time>
      </trkpt>
      <trkpt lat="42.169937" lon="-2.779843">
        <ele>1269.2</ele>
        <time>2021-07-04T11:10:06.000Z</time>
      </trkpt>
      <trkpt lat="42.170022" lon="-2.779785">
        <ele>1269.7</ele>
        <time>2021-07-04T11:10:12.000Z</time>
      </trkpt>
      <trkpt lat="42.170112" lon="-2.779738">
        <ele>1269.8</ele>
        <time>2021-07-04T11:10:18.000Z</time>
      </trkpt>
      <trkpt lat="42.170192" lon="-2.779668">
        <ele>1271.1</ele>
        <time>2021-07-04T11:10:24.000Z</time>
      </trkpt>
      <trkpt lat="42.170263" lon="-2.779578">
        <ele>1271.2</ele>
        <time>2021-07-04T11:10:30.000Z</time>
      </trkpt>
      <trkpt lat="42.170323" lon="-2.779467">
        <ele>1272.1</ele>
        <time>2021-07-04T11:10:37.000Z</time>
      </trkpt>
      <trkpt lat="42.170343" lon="-2.779345">
        <ele>1272.7</ele>
        <time>2021-07-04T11:10:43.000Z</time>
      </trkpt>
      <trkpt lat="42.170358" lon="-2.779218">
        <ele>1273.4</ele>
        <time>2021-07-04T11:10:49.000Z</time>
      </trkpt>
      <trkpt lat="42.170377" lon="-2.779088">
        <ele>1274.1</ele>
        <time>2021-07-04T11:10:55.000Z</time>
      </trkpt>
      <trkpt lat="42.170393" lon="-2.778957">
        <ele>1275.3</ele>
        <time>2021-07-04T11:11:01.000Z</time>
      </trkpt>
      <trkpt lat="42.170412" lon="-2.778828">
        <ele>1275.8</ele>
        <time>2021-07-04T11:11:07.000Z</time>
      </trkpt>
      <trkpt lat="42.170428" lon="-2.778700">
        <ele>1276.7</ele>
        <time>2021-07-04T11:11:13.000Z</time>
      </trkpt>
      <trkpt lat="42.170422" lon="-2.778572">
        <ele>1277.2</ele>
        <time>2021-07-04T11:11:19.000Z</time>
      </trkpt>
      <trkpt lat="42.170437" lon="-2.778447">
        <ele>1278.6</ele>
        <time>2021-07-04T11:11:25.000Z</time>
      </trkpt>
      <trkpt lat="42.170462" lon="-2.778308">
        <ele>1279.9</ele>
        <time>2021-07-04T11:11:32.000Z</time>
      </trkpt>
      <trkpt lat="42.170463" lon="-2.778178">
        <ele>1281.5</ele>
        <time>2021-07-04T11:11:38.000Z</time>
      </trkpt>
      <trkpt lat="42.170470" lon="-2.778055">
        <ele>1283.0</ele>
        <time>2021-07-04T11:11:44.000Z</time>
      </trkpt>
      <trkpt lat="42.170508" lon="-2.777930">
        <ele>1283.5</ele>
        <time>2021-07-04T11:11:50.000Z</time>
      </trkpt>
      <trkpt lat="42.170553" lon="-2.777817">
        <ele>1284.7</ele>
        <time>2021-07-04T11:11:56.000Z</time>
      </trkpt>
      <trkpt lat="42.170613" lon="-2.777715">
        <ele>1285.0</ele>
        <time>2021-07-04T11:12:02.000Z</time>
      </trkpt>
      <trkpt lat="42.170697" lon="-2.777650">
        <ele>1285.6</ele>
        <time>2021-07-04T11:12:08.000Z</time>
      </trkpt>
      <trkpt lat="42.170782" lon="-2.777588">
        <ele>1285.1</ele>
        <time>2021-07-04T11:12:13.000Z</time>
      </trkpt>
      <trkpt lat="42.170873" lon="-2.777505">
        <ele>1285.4</ele>
        <time>2021-07-04T11:12:18.000Z</time>
      </trkpt>
      <trkpt lat="42.170970" lon="-2.777442">
        <ele>1284.8</ele>
        <time>2021-07-04T11:12:22.000Z</time>
      </trkpt>
      <trkpt lat="42.171077" lon="-2.777377">
        <ele>1285.0</ele>
        <time>2021-07-04T11:12:26.000Z</time>
      </trkpt>
      <trkpt lat="42.171160" lon="-2.777318">
        <ele>1285.0</ele>
        <time>2021-07-04T11:12:29.000Z</time>
      </trkpt>
      <trkpt lat="42.171252" lon="-2.777268">
        <ele>1285.5</ele>
        <time>2021-07-04T11:12:32.000Z</time>
      </trkpt>
      <trkpt lat="42.171347" lon="-2.777230">
        <ele>1284.3</ele>
        <time>2021-07-04T11:12:35.000Z</time>
      </trkpt>
      <trkpt lat="42.171442" lon="-2.777232">
        <ele>1284.4</ele>
        <time>2021-07-04T11:12:38.000Z</time>
      </trkpt>
      <trkpt lat="42.171538" lon="-2.777250">
        <ele>1284.5</ele>
        <time>2021-07-04T11:12:41.000Z</time>
      </trkpt>
      <trkpt lat="42.171635" lon="-2.777287">
        <ele>1284.2</ele>
        <time>2021-07-04T11:12:44.000Z</time>
      </trkpt>
      <trkpt lat="42.171725" lon="-2.777327">
        <ele>1284.7</ele>
        <time>2021-07-04T11:12:47.000Z</time>
      </trkpt>
      <trkpt lat="42.171832" lon="-2.777358">
        <ele>1285.5</ele>
        <time>2021-07-04T11:12:51.000Z</time>
      </trkpt>
      <trkpt lat="42.171923" lon="-2.777382">
        <ele>1286.0</ele>
        <time>2021-07-04T11:12:55.000Z</time>
      </trkpt>
      <trkpt lat="42.172027" lon="-2.777410">
        <ele>1286.5</ele>
        <time>2021-07-04T11:13:00.000Z</time>
      </trkpt>
      <trkpt lat="42.172120" lon="-2.777442">
        <ele>1287.2</ele>
        <time>2021-07-04T11:13:05.000Z</time>
      </trkpt>
      <trkpt lat="42.172218" lon="-2.777470">
        <ele>1287.6</ele>
        <time>2021-07-04T11:13:12.000Z</time>
      </trkpt>
      <trkpt lat="42.172318" lon="-2.777505">
        <ele>1289.2</ele>
        <time>2021-07-04T11:13:19.000Z</time>
      </trkpt>
      <trkpt lat="42.172407" lon="-2.777548">
        <ele>1289.8</ele>
        <time>2021-07-04T11:13:25.000Z</time>
      </trkpt>
      <trkpt lat="42.172497" lon="-2.777577">
        <ele>1290.5</ele>
        <time>2021-07-04T11:13:31.000Z</time>
      </trkpt>
      <trkpt lat="42.172595" lon="-2.777592">
        <ele>1291.1</ele>
        <time>2021-07-04T11:13:37.000Z</time>
      </trkpt>
      <trkpt lat="42.172693" lon="-2.777582">
        <ele>1291.8</ele>
        <time>2021-07-04T11:13:43.000Z</time>
      </trkpt>
      <trkpt lat="42.172788" lon="-2.777575">
        <ele>1292.3</ele>
        <time>2021-07-04T11:13:49.000Z</time>
      </trkpt>
      <trkpt lat="42.172885" lon="-2.777573">
        <ele>1293.5</ele>
        <time>2021-07-04T11:13:55.000Z</time>
      </trkpt>
      <trkpt lat="42.172977" lon="-2.777563">
        <ele>1295.0</ele>
        <time>2021-07-04T11:14:01.000Z</time>
      </trkpt>
      <trkpt lat="42.173078" lon="-2.777535">
        <ele>1296.3</ele>
        <time>2021-07-04T11:14:08.000Z</time>
      </trkpt>
      <trkpt lat="42.173170" lon="-2.777492">
        <ele>1296.6</ele>
        <time>2021-07-04T11:14:15.000Z</time>
      </trkpt>
      <trkpt lat="42.173263" lon="-2.777452">
        <ele>1299.3</ele>
        <time>2021-07-04T11:14:22.000Z</time>
      </trkpt>
      <trkpt lat="42.173357" lon="-2.777427">
        <ele>1300.3</ele>
        <time>2021-07-04T11:14:28.000Z</time>
      </trkpt>
      <trkpt lat="42.173453" lon="-2.777397">
        <ele>1300.9</ele>
        <time>2021-07-04T11:14:34.000Z</time>
      </trkpt>
      <trkpt lat="42.173550" lon="-2.777393">
        <ele>1302.1</ele>
        <time>2021-07-04T11:14:40.000Z</time>
      </trkpt>
      <trkpt lat="42.173650" lon="-2.777397">
        <ele>1302.5</ele>
        <time>2021-07-04T11:14:46.000Z</time>
      </trkpt>
      <trkpt lat="42.173740" lon="-2.777385">
        <ele>1303.0</ele>
        <time>2021-07-04T11:14:51.000Z</time>
      </trkpt>
      <trkpt lat="42.173835" lon="-2.777330">
        <ele>1303.8</ele>
        <time>2021-07-04T11:14:57.000Z</time>
      </trkpt>
      <trkpt lat="42.173888" lon="-2.777210">
        <ele>1304.2</ele>
        <time>2021-07-04T11:15:03.000Z</time>
      </trkpt>
      <trkpt lat="42.173893" lon="-2.777087">
        <ele>1304.8</ele>
        <time>2021-07-04T11:15:08.000Z</time>
      </trkpt>
      <trkpt lat="42.173877" lon="-2.776945">
        <ele>1305.4</ele>
        <time>2021-07-04T11:15:14.000Z</time>
      </trkpt>
      <trkpt lat="42.173857" lon="-2.776810">
        <ele>1305.9</ele>
        <time>2021-07-04T11:15:20.000Z</time>
      </trkpt>
      <trkpt lat="42.173840" lon="-2.776678">
        <ele>1306.9</ele>
        <time>2021-07-04T11:15:26.000Z</time>
      </trkpt>
      <trkpt lat="42.173820" lon="-2.776547">
        <ele>1307.4</ele>
        <time>2021-07-04T11:15:32.000Z</time>
      </trkpt>
      <trkpt lat="42.173803" lon="-2.776410">
        <ele>1308.0</ele>
        <time>2021-07-04T11:15:38.000Z</time>
      </trkpt>
      <trkpt lat="42.173807" lon="-2.776268">
        <ele>1308.1</ele>
        <time>2021-07-04T11:15:44.000Z</time>
      </trkpt>
      <trkpt lat="42.173812" lon="-2.776147">
        <ele>1308.8</ele>
        <time>2021-07-04T11:15:49.000Z</time>
      </trkpt>
      <trkpt lat="42.173817" lon="-2.776003">
        <ele>1309.7</ele>
        <time>2021-07-04T11:15:55.000Z</time>
      </trkpt>
      <trkpt lat="42.173807" lon="-2.775860">
        <ele>1310.2</ele>
        <time>2021-07-04T11:16:01.000Z</time>
      </trkpt>
      <trkpt lat="42.173818" lon="-2.775722">
        <ele>1311.2</ele>
        <time>2021-07-04T11:16:07.000Z</time>
      </trkpt>
      <trkpt lat="42.173827" lon="-2.775587">
        <ele>1311.9</ele>
        <time>2021-07-04T11:16:13.000Z</time>
      </trkpt>
      <trkpt lat="42.173832" lon="-2.775460">
        <ele>1313.4</ele>
        <time>2021-07-04T11:16:19.000Z</time>
      </trkpt>
      <trkpt lat="42.173822" lon="-2.775332">
        <ele>1314.5</ele>
        <time>2021-07-04T11:16:26.000Z</time>
      </trkpt>
      <trkpt lat="42.173813" lon="-2.775193">
        <ele>1316.2</ele>
        <time>2021-07-04T11:16:34.000Z</time>
      </trkpt>
      <trkpt lat="42.173815" lon="-2.775065">
        <ele>1317.4</ele>
        <time>2021-07-04T11:16:41.000Z</time>
      </trkpt>
      <trkpt lat="42.173792" lon="-2.774945">
        <ele>1318.3</ele>
        <time>2021-07-04T11:16:48.000Z</time>
      </trkpt>
      <trkpt lat="42.173787" lon="-2.774818">
        <ele>1319.5</ele>
        <time>2021-07-04T11:16:55.000Z</time>
      </trkpt>
      <trkpt lat="42.173785" lon="-2.774695">
        <ele>1320.6</ele>
        <time>2021-07-04T11:17:02.000Z</time>
      </trkpt>
      <trkpt lat="42.173800" lon="-2.774573">
        <ele>1321.3</ele>
        <time>2021-07-04T11:17:09.000Z</time>
      </trkpt>
      <trkpt lat="42.173822" lon="-2.774442">
        <ele>1322.2</ele>
        <time>2021-07-04T11:17:16.000Z</time>
      </trkpt>
      <trkpt lat="42.173813" lon="-2.774312">
        <ele>1323.6</ele>
        <time>2021-07-04T11:17:23.000Z</time>
      </trkpt>
      <trkpt lat="42.173857" lon="-2.774185">
        <ele>1324.1</ele>
        <time>2021-07-04T11:17:30.000Z</time>
      </trkpt>
      <trkpt lat="42.173897" lon="-2.774060">
        <ele>1324.6</ele>
        <time>2021-07-04T11:17:36.000Z</time>
      </trkpt>
      <trkpt lat="42.173942" lon="-2.773935">
        <ele>1325.2</ele>
        <time>2021-07-04T11:17:42.000Z</time>
      </trkpt>
      <trkpt lat="42.173987" lon="-2.773815">
        <ele>1325.7</ele>
        <time>2021-07-04T11:17:48.000Z</time>
      </trkpt>
      <trkpt lat="42.174030" lon="-2.773707">
        <ele>1326.8</ele>
        <time>2021-07-04T11:17:54.000Z</time>
      </trkpt>
      <trkpt lat="42.174095" lon="-2.773615">
        <ele>1327.5</ele>
        <time>2021-07-04T11:18:00.000Z</time>
      </trkpt>
      <trkpt lat="42.174173" lon="-2.773547">
        <ele>1327.7</ele>
        <time>2021-07-04T11:18:06.000Z</time>
      </trkpt>
      <trkpt lat="42.174267" lon="-2.773510">
        <ele>1328.8</ele>
        <time>2021-07-04T11:18:12.000Z</time>
      </trkpt>
      <trkpt lat="42.174358" lon="-2.773513">
        <ele>1329.4</ele>
        <time>2021-07-04T11:18:18.000Z</time>
      </trkpt>
      <trkpt lat="42.174443" lon="-2.773573">
        <ele>1330.4</ele>
        <time>2021-07-04T11:18:24.000Z</time>
      </trkpt>
      <trkpt lat="42.174533" lon="-2.773607">
        <ele>1331.3</ele>
        <time>2021-07-04T11:18:30.000Z</time>
      </trkpt>
      <trkpt lat="42.174610" lon="-2.773678">
        <ele>1331.7</ele>
        <time>2021-07-04T11:18:36.000Z</time>
      </trkpt>
      <trkpt lat="42.174690" lon="-2.773742">
        <ele>1331.9</ele>
        <time>2021-07-04T11:18:42.000Z</time>
      </trkpt>
      <trkpt lat="42.174773" lon="-2.773800">
        <ele>1333.2</ele>
        <time>2021-07-04T11:18:49.000Z</time>
      </trkpt>
      <trkpt lat="42.174857" lon="-2.773850">
        <ele>1334.8</ele>
        <time>2021-07-04T11:18:56.000Z</time>
      </trkpt>
      <trkpt lat="42.174947" lon="-2.773903">
        <ele>1336.2</ele>
        <time>2021-07-04T11:19:04.000Z</time>
      </trkpt>
      <trkpt lat="42.175040" lon="-2.773935">
        <ele>1337.3</ele>
        <time>2021-07-04T11:19:12.000Z</time>
      </trkpt>
      <trkpt lat="42.175133" lon="-2.773970">
        <ele>1338.9</ele>
        <time>2021-07-04T11:19:20.000Z</time>
      </trkpt>
      <trkpt lat="42.175225" lon="-2.774013">
        <ele>1339.9</ele>
        <time>2021-07-04T11:19:28.000Z</time>
      </trkpt>
      <trkpt lat="42.175317" lon="-2.774072">
        <ele>1340.9</ele>
        <time>2021-07-04T11:19:36.000Z</time>
      </trkpt>
      <trkpt lat="42.175413" lon="-2.774103">
        <ele>1341.9</ele>
        <time>2021-07-04T11:19:44.000Z</time>
      </trkpt>
      <trkpt lat="42.175498" lon="-2.774150">
        <ele>1343.5</ele>
        <time>2021-07-04T11:19:51.000Z</time>
      </trkpt>
      <trkpt lat="42.175585" lon="-2.774207">
        <ele>1344.6</ele>
        <time>2021-07-04T11:19:59.000Z</time>
      </trkpt>
      <trkpt lat="42.175677" lon="-2.774230">
        <ele>1345.3</ele>
        <time>2021-07-04T11:20:06.000Z</time>
      </trkpt>
      <trkpt lat="42.175778" lon="-2.774238">
        <ele>1347.2</ele>
        <time>2021-07-04T11:20:14.000Z</time>
      </trkpt>
      <trkpt lat="42.175873" lon="-2.774223">
        <ele>1348.1</ele>
        <time>2021-07-04T11:20:21.000Z</time>
      </trkpt>
      <trkpt lat="42.175973" lon="-2.774240">
        <ele>1349.9</ele>
        <time>2021-07-04T11:20:29.000Z</time>
      </trkpt>
      <trkpt lat="42.176072" lon="-2.774210">
        <ele>1351.1</ele>
        <time>2021-07-04T11:20:37.000Z</time>
      </trkpt>
      <trkpt lat="42.176172" lon="-2.774203">
        <ele>1352.5</ele>
        <time>2021-07-04T11:20:45.000Z</time>
      </trkpt>
      <trkpt lat="42.176262" lon="-2.774202">
        <ele>1353.6</ele>
        <time>2021-07-04T11:20:52.000Z</time>
      </trkpt>
      <trkpt lat="42.176357" lon="-2.774198">
        <ele>1354.8</ele>
        <time>2021-07-04T11:20:59.000Z</time>
      </trkpt>
      <trkpt lat="42.176448" lon="-2.774248">
        <ele>1355.4</ele>
        <time>2021-07-04T11:21:06.000Z</time>
      </trkpt>
      <trkpt lat="42.176530" lon="-2.774327">
        <ele>1355.2</ele>
        <time>2021-07-04T11:21:13.000Z</time>
      </trkpt>
      <trkpt lat="42.176605" lon="-2.774402">
        <ele>1355.9</ele>
        <time>2021-07-04T11:21:19.000Z</time>
      </trkpt>
      <trkpt lat="42.176700" lon="-2.774373">
        <ele>1357.0</ele>
        <time>2021-07-04T11:21:26.000Z</time>
      </trkpt>
      <trkpt lat="42.176750" lon="-2.774262">
        <ele>1357.4</ele>
        <time>2021-07-04T11:21:33.000Z</time>
      </trkpt>
      <trkpt lat="42.176752" lon="-2.774138">
        <ele>1358.2</ele>
        <time>2021-07-04T11:21:39.000Z</time>
      </trkpt>
      <trkpt lat="42.176742" lon="-2.774005">
        <ele>1358.6</ele>
        <time>2021-07-04T11:21:46.000Z</time>
      </trkpt>
      <trkpt lat="42.176708" lon="-2.773887">
        <ele>1359.6</ele>
        <time>2021-07-04T11:21:53.000Z</time>
      </trkpt>
      <trkpt lat="42.176667" lon="-2.773772">
        <ele>1360.4</ele>
        <time>2021-07-04T11:22:00.000Z</time>
      </trkpt>
      <trkpt lat="42.176602" lon="-2.773667">
        <ele>1360.8</ele>
        <time>2021-07-04T11:22:07.000Z</time>
      </trkpt>
      <trkpt lat="42.176533" lon="-2.773587">
        <ele>1361.3</ele>
        <time>2021-07-04T11:22:13.000Z</time>
      </trkpt>
      <trkpt lat="42.176453" lon="-2.773497">
        <ele>1361.9</ele>
        <time>2021-07-04T11:22:20.000Z</time>
      </trkpt>
      <trkpt lat="42.176373" lon="-2.773433">
        <ele>1363.0</ele>
        <time>2021-07-04T11:22:26.000Z</time>
      </trkpt>
      <trkpt lat="42.176288" lon="-2.773360">
        <ele>1363.0</ele>
        <time>2021-07-04T11:22:33.000Z</time>
      </trkpt>
      <trkpt lat="42.176197" lon="-2.773313">
        <ele>1363.2</ele>
        <time>2021-07-04T11:22:40.000Z</time>
      </trkpt>
      <trkpt lat="42.176122" lon="-2.773238">
        <ele>1364.4</ele>
        <time>2021-07-04T11:22:47.000Z</time>
      </trkpt>
      <trkpt lat="42.176037" lon="-2.773175">
        <ele>1365.1</ele>
        <time>2021-07-04T11:22:54.000Z</time>
      </trkpt>
      <trkpt lat="42.175967" lon="-2.773082">
        <ele>1366.2</ele>
        <time>2021-07-04T11:23:01.000Z</time>
      </trkpt>
      <trkpt lat="42.175913" lon="-2.772963">
        <ele>1367.5</ele>
        <time>2021-07-04T11:23:08.000Z</time>
      </trkpt>
      <trkpt lat="42.175867" lon="-2.772842">
        <ele>1368.3</ele>
        <time>2021-07-04T11:23:15.000Z</time>
      </trkpt>
      <trkpt lat="42.175842" lon="-2.772708">
        <ele>1369.5</ele>
        <time>2021-07-04T11:23:22.000Z</time>
      </trkpt>
      <trkpt lat="42.175817" lon="-2.772573">
        <ele>1370.4</ele>
        <time>2021-07-04T11:23:29.000Z</time>
      </trkpt>
      <trkpt lat="42.175797" lon="-2.772437">
        <ele>1371.2</ele>
        <time>2021-07-04T11:23:36.000Z</time>
      </trkpt>
      <trkpt lat="42.175770" lon="-2.772313">
        <ele>1371.9</ele>
        <time>2021-07-04T11:23:42.000Z</time>
      </trkpt>
      <trkpt lat="42.175747" lon="-2.772180">
        <ele>1372.6</ele>
        <time>2021-07-04T11:23:48.000Z</time>
      </trkpt>
      <trkpt lat="42.175722" lon="-2.772047">
        <ele>1373.7</ele>
        <time>2021-07-04T11:23:54.000Z</time>
      </trkpt>
      <trkpt lat="42.175698" lon="-2.771920">
        <ele>1374.4</ele>
        <time>2021-07-04T11:24:00.000Z</time>
      </trkpt>
      <trkpt lat="42.175667" lon="-2.771792">
        <ele>1374.3</ele>
        <time>2021-07-04T11:24:06.000Z</time>
      </trkpt>
      <trkpt lat="42.175633" lon="-2.771665">
        <ele>1375.7</ele>
        <time>2021-07-04T11:24:12.000Z</time>
      </trkpt>
      <trkpt lat="42.175615" lon="-2.771542">
        <ele>1377.2</ele>
        <time>2021-07-04T11:24:18.000Z</time>
      </trkpt>
      <trkpt lat="42.175588" lon="-2.771413">
        <ele>1377.9</ele>
        <time>2021-07-04T11:24:24.000Z</time>
      </trkpt>
      <trkpt lat="42.175558" lon="-2.771292">
        <ele>1379.2</ele>
        <time>2021-07-04T11:24:30.000Z</time>
      </trkpt>
      <trkpt lat="42.175525" lon="-2.771160">
        <ele>1380.1</ele>
        <time>2021-07-04T11:24:37.000Z</time>
      </trkpt>
      <trkpt lat="42.175508" lon="-2.771027">
        <ele>1380.7</ele>
        <time>2021-07-04T11:24:44.000Z</time>
      </trkpt>
      <trkpt lat="42.175485" lon="-2.770892">
        <ele>1381.9</ele>
        <time>2021-07-04T11:24:51.000Z</time>
      </trkpt>
      <trkpt lat="42.175463" lon="-2.770758">
        <ele>1383.1</ele>
        <time>2021-07-04T11:24:58.000Z</time>
      </trkpt>
      <trkpt lat="42.175445" lon="-2.770627">
        <ele>1384.2</ele>
        <time>2021-07-04T11:25:05.000Z</time>
      </trkpt>
      <trkpt lat="42.175427" lon="-2.770495">
        <ele>1386.3</ele>
        <time>2021-07-04T11:25:12.000Z</time>
      </trkpt>
      <trkpt lat="42.175412" lon="-2.770360">
        <ele>1388.1</ele>
        <time>2021-07-04T11:25:19.000Z</time>
      </trkpt>
      <trkpt lat="42.175395" lon="-2.770223">
        <ele>1389.9</ele>
        <time>2021-07-04T11:25:26.000Z</time>
      </trkpt>
      <trkpt lat="42.175390" lon="-2.770100">
        <ele>1390.9</ele>
        <time>2021-07-04T11:25:32.000Z</time>
      </trkpt>
      <trkpt lat="42.175408" lon="-2.769977">
        <ele>1391.8</ele>
        <time>2021-07-04T11:25:38.000Z</time>
      </trkpt>
      <trkpt lat="42.175425" lon="-2.769857">
        <ele>1392.4</ele>
        <time>2021-07-04T11:25:44.000Z</time>
      </trkpt>
      <trkpt lat="42.175445" lon="-2.769718">
        <ele>1393.6</ele>
        <time>2021-07-04T11:25:50.000Z</time>
      </trkpt>
      <trkpt lat="42.175473" lon="-2.769578">
        <ele>1394.2</ele>
        <time>2021-07-04T11:25:56.000Z</time>
      </trkpt>
      <trkpt lat="42.175512" lon="-2.769443">
        <ele>1394.2</ele>
        <time>2021-07-04T11:26:02.000Z</time>
      </trkpt>
      <trkpt lat="42.175538" lon="-2.769322">
        <ele>1394.4</ele>
        <time>2021-07-04T11:26:07.000Z</time>
      </trkpt>
      <trkpt lat="42.175542" lon="-2.769192">
        <ele>1395.1</ele>
        <time>2021-07-04T11:26:12.000Z</time>
      </trkpt>
      <trkpt lat="42.175508" lon="-2.769058">
        <ele>1395.3</ele>
        <time>2021-07-04T11:26:17.000Z</time>
      </trkpt>
      <trkpt lat="42.175448" lon="-2.768937">
        <ele>1396.3</ele>
        <time>2021-07-04T11:26:22.000Z</time>
      </trkpt>
      <trkpt lat="42.175392" lon="-2.768818">
        <ele>1396.9</ele>
        <time>2021-07-04T11:26:27.000Z</time>
      </trkpt>
      <trkpt lat="42.175323" lon="-2.768710">
        <ele>1398.0</ele>
        <time>2021-07-04T11:26:32.000Z</time>
      </trkpt>
      <trkpt lat="42.175252" lon="-2.768615">
        <ele>1398.8</ele>
        <time>2021-07-04T11:26:37.000Z</time>
      </trkpt>
      <trkpt lat="42.175187" lon="-2.768518">
        <ele>1399.4</ele>
        <time>2021-07-04T11:26:42.000Z</time>
      </trkpt>
      <trkpt lat="42.175125" lon="-2.768408">
        <ele>1399.9</ele>
        <time>2021-07-04T11:26:47.000Z</time>
      </trkpt>
      <trkpt lat="42.175065" lon="-2.768293">
        <ele>1401.1</ele>
        <time>2021-07-04T11:26:52.000Z</time>
      </trkpt>
      <trkpt lat="42.175005" lon="-2.768185">
        <ele>1401.7</ele>
        <time>2021-07-04T11:26:57.000Z</time>
      </trkpt>
      <trkpt lat="42.174947" lon="-2.768072">
        <ele>1402.1</ele>
        <time>2021-07-04T11:27:02.000Z</time>
      </trkpt>
      <trkpt lat="42.174895" lon="-2.767957">
        <ele>1403.0</ele>
        <time>2021-07-04T11:27:07.000Z</time>
      </trkpt>
      <trkpt lat="42.174855" lon="-2.767838">
        <ele>1403.4</ele>
        <time>2021-07-04T11:27:12.000Z</time>
      </trkpt>
      <trkpt lat="42.174803" lon="-2.767732">
        <ele>1404.5</ele>
        <time>2021-07-04T11:27:17.000Z</time>
      </trkpt>
      <trkpt lat="42.174765" lon="-2.767617">
        <ele>1404.9</ele>
        <time>2021-07-04T11:27:22.000Z</time>
      </trkpt>
      <trkpt lat="42.174737" lon="-2.767497">
        <ele>1405.5</ele>
        <time>2021-07-04T11:27:27.000Z</time>
      </trkpt>
      <trkpt lat="42.174705" lon="-2.767362">
        <ele>1405.9</ele>
        <time>2021-07-04T11:27:33.000Z</time>
      </trkpt>
      <trkpt lat="42.174640" lon="-2.767273">
        <ele>1406.4</ele>
        <time>2021-07-04T11:27:38.000Z</time>
      </trkpt>
      <trkpt lat="42.174548" lon="-2.767247">
        <ele>1407.8</ele>
        <time>2021-07-04T11:27:43.000Z</time>
      </trkpt>
      <trkpt lat="42.174457" lon="-2.767267">
        <ele>1408.8</ele>
        <time>2021-07-04T11:27:48.000Z</time>
      </trkpt>
      <trkpt lat="42.174372" lon="-2.767320">
        <ele>1408.7</ele>
        <time>2021-07-04T11:27:53.000Z</time>
      </trkpt>
      <trkpt lat="42.174288" lon="-2.767372">
        <ele>1409.0</ele>
        <time>2021-07-04T11:27:58.000Z</time>
      </trkpt>
      <trkpt lat="42.174202" lon="-2.767420">
        <ele>1409.2</ele>
        <time>2021-07-04T11:28:03.000Z</time>
      </trkpt>
      <trkpt lat="42.174115" lon="-2.767473">
        <ele>1409.5</ele>
        <time>2021-07-04T11:28:08.000Z</time>
      </trkpt>
      <trkpt lat="42.174032" lon="-2.767555">
        <ele>1410.0</ele>
        <time>2021-07-04T11:28:13.000Z</time>
      </trkpt>
      <trkpt lat="42.173947" lon="-2.767632">
        <ele>1410.7</ele>
        <time>2021-07-04T11:28:18.000Z</time>
      </trkpt>
      <trkpt lat="42.173853" lon="-2.767695">
        <ele>1411.4</ele>
        <time>2021-07-04T11:28:23.000Z</time>
      </trkpt>
      <trkpt lat="42.173768" lon="-2.767777">
        <ele>1411.5</ele>
        <time>2021-07-04T11:28:28.000Z</time>
      </trkpt>
      <trkpt lat="42.173680" lon="-2.767853">
        <ele>1411.2</ele>
        <time>2021-07-04T11:28:33.000Z</time>
      </trkpt>
      <trkpt lat="42.173587" lon="-2.767930">
        <ele>1411.8</ele>
        <time>2021-07-04T11:28:38.000Z</time>
      </trkpt>
      <trkpt lat="42.173510" lon="-2.767995">
        <ele>1411.8</ele>
        <time>2021-07-04T11:28:42.000Z</time>
      </trkpt>
      <trkpt lat="42.173427" lon="-2.768063">
        <ele>1411.9</ele>
        <time>2021-07-04T11:28:46.000Z</time>
      </trkpt>
      <trkpt lat="42.173338" lon="-2.768135">
        <ele>1412.6</ele>
        <time>2021-07-04T11:28:50.000Z</time>
      </trkpt>
      <trkpt lat="42.173248" lon="-2.768203">
        <ele>1412.2</ele>
        <time>2021-07-04T11:28:54.000Z</time>
      </trkpt>
      <trkpt lat="42.173160" lon="-2.768260">
        <ele>1412.3</ele>
        <time>2021-07-04T11:28:58.000Z</time>
      </trkpt>
      <trkpt lat="42.173072" lon="-2.768323">
        <ele>1412.4</ele>
        <time>2021-07-04T11:29:02.000Z</time>
      </trkpt>
      <trkpt lat="42.172988" lon="-2.768398">
        <ele>1413.3</ele>
        <time>2021-07-04T11:29:06.000Z</time>
      </trkpt>
      <trkpt lat="42.172903" lon="-2.768472">
        <ele>1414.0</ele>
        <time>2021-07-04T11:29:10.000Z</time>
      </trkpt>
      <trkpt lat="42.172815" lon="-2.768535">
        <ele>1415.0</ele>
        <time>2021-07-04T11:29:14.000Z</time>
      </trkpt>
      <trkpt lat="42.172720" lon="-2.768590">
        <ele>1414.4</ele>
        <time>2021-07-04T11:29:18.000Z</time>
      </trkpt>
      <trkpt lat="42.172630" lon="-2.768658">
        <ele>1414.3</ele>
        <time>2021-07-04T11:29:22.000Z</time>
      </trkpt>
      <trkpt lat="42.172540" lon="-2.768718">
        <ele>1414.9</ele>
        <time>2021-07-04T11:29:26.000Z</time>
      </trkpt>
      <trkpt lat="42.172452" lon="-2.768787">
        <ele>1414.7</ele>
        <time>2021-07-04T11:29:30.000Z</time>
      </trkpt>
      <trkpt lat="42.172363" lon="-2.768853">
        <ele>1414.5</ele>
        <time>2021-07-04T11:29:34.000Z</time>
      </trkpt>
      <trkpt lat="42.172273" lon="-2.768918">
        <ele>1414.4</ele>
        <time>2021-07-04T11:29:38.000Z</time>
      </trkpt>
      <trkpt lat="42.172190" lon="-2.768988">
        <ele>1414.2</ele>
        <time>2021-07-04T11:29:42.000Z</time>
      </trkpt>
      <trkpt lat="42.172103" lon="-2.769043">
        <ele>1414.8</ele>
        <time>2021-07-04T11:29:46.000Z</time>
      </trkpt>
      <trkpt lat="42.172015" lon="-2.769095">
        <ele>1415.5</ele>
        <time>2021-07-04T11:29:50.000Z</time>
      </trkpt>
      <trkpt lat="42.171925" lon="-2.769142">
        <ele>1416.4</ele>
        <time>2021-07-04T11:29:54.000Z</time>
      </trkpt>
      <trkpt lat="42.171832" lon="-2.769145">
        <ele>1416.9</ele>
        <time>2021-07-04T11:29:58.000Z</time>
      </trkpt>
      <trkpt lat="42.171735" lon="-2.769098">
        <ele>1417.7</ele>
        <time>2021-07-04T11:30:03.000Z</time>
      </trkpt>
      <trkpt lat="42.171655" lon="-2.769005">
        <ele>1418.4</ele>
        <time>2021-07-04T11:30:08.000Z</time>
      </trkpt>
      <trkpt lat="42.171610" lon="-2.768907">
        <ele>1417.9</ele>
        <time>2021-07-04T11:30:15.000Z</time>
      </trkpt>
      <trkpt lat="42.171608" lon="-2.768907">
        <ele>1417.9</ele>
        <time>2021-07-04T11:30:16.000Z</time>
      </trkpt>
      <trkpt lat="42.171595" lon="-2.768903">
        <ele>1417.8</ele>
        <time>2021-07-04T11:30:21.000Z</time>
      </trkpt>
      <trkpt lat="42.171597" lon="-2.768900">
        <ele>1418.0</ele>
        <time>2021-07-04T11:30:22.000Z</time>
      </trkpt>
      <trkpt lat="42.171597" lon="-2.768900">
        <ele>1417.8</ele>
        <time>2021-07-04T11:30:23.000Z</time>
      </trkpt>
      <trkpt lat="42.171598" lon="-2.768900">
        <ele>1418.3</ele>
        <time>2021-07-04T11:30:27.000Z</time>
      </trkpt>
      <trkpt lat="42.171602" lon="-2.768900">
        <ele>1419.0</ele>
        <time>2021-07-04T11:30:30.000Z</time>
      </trkpt>
      <trkpt lat="42.171598" lon="-2.768902">
        <ele>1413.3</ele>
        <time>2021-07-04T11:31:22.000Z</time>
      </trkpt>
      <trkpt lat="42.171598" lon="-2.768903">
        <ele>1417.6</ele>
        <time>2021-07-04T11:31:25.000Z</time>
      </trkpt>
      <trkpt lat="42.171600" lon="-2.768903">
        <ele>1418.4</ele>
        <time>2021-07-04T11:31:28.000Z</time>
      </trkpt>
      <trkpt lat="42.171608" lon="-2.768903">
        <ele>1421.1</ele>
        <time>2021-07-04T11:31:31.000Z</time>
      </trkpt>
      <trkpt lat="42.171610" lon="-2.768903">
        <ele>1417.0</ele>
        <time>2021-07-04T11:33:41.000Z</time>
      </trkpt>
      <trkpt lat="42.171610" lon="-2.768903">
        <ele>1417.2</ele>
        <time>2021-07-04T11:33:42.000Z</time>
      </trkpt>
      <trkpt lat="42.171612" lon="-2.768905">
        <ele>1416.0</ele>
        <time>2021-07-04T11:38:03.000Z</time>
      </trkpt>
      <trkpt lat="42.171612" lon="-2.768905">
        <ele>1416.1</ele>
        <time>2021-07-04T11:38:04.000Z</time>
      </trkpt>
      <trkpt lat="42.171613" lon="-2.768905">
        <ele>1416.4</ele>
        <time>2021-07-04T11:41:48.000Z</time>
      </trkpt>
      <trkpt lat="42.171613" lon="-2.768905">
        <ele>1416.2</ele>
        <time>2021-07-04T11:41:49.000Z</time>
      </trkpt>
      <trkpt lat="42.171612" lon="-2.768907">
        <ele>1415.9</ele>
        <time>2021-07-04T11:43:59.000Z</time>
      </trkpt>
      <trkpt lat="42.171612" lon="-2.768907">
        <ele>1414.4</ele>
        <time>2021-07-04T11:44:00.000Z</time>
      </trkpt>
      <trkpt lat="42.171613" lon="-2.768908">
        <ele>1417.6</ele>
        <time>2021-07-04T11:45:38.000Z</time>
      </trkpt>
      <trkpt lat="42.171622" lon="-2.768873">
        <ele>1416.0</ele>
        <time>2021-07-04T11:45:44.000Z</time>
      </trkpt>
      <trkpt lat="42.171623" lon="-2.768873">
        <ele>1416.8</ele>
        <time>2021-07-04T11:45:51.000Z</time>
      </trkpt>
      <trkpt lat="42.171623" lon="-2.768873">
        <ele>1416.8</ele>
        <time>2021-07-04T11:45:52.000Z</time>
      </trkpt>
      <trkpt lat="42.171623" lon="-2.768867">
        <ele>1419.1</ele>
        <time>2021-07-04T11:46:23.000Z</time>
      </trkpt>
      <trkpt lat="42.171623" lon="-2.768793">
        <ele>1416.9</ele>
        <time>2021-07-04T11:46:29.000Z</time>
      </trkpt>
      <trkpt lat="42.171625" lon="-2.768793">
        <ele>1416.5</ele>
        <time>2021-07-04T11:47:28.000Z</time>
      </trkpt>
      <trkpt lat="42.171625" lon="-2.768793">
        <ele>1416.5</ele>
        <time>2021-07-04T11:47:29.000Z</time>
      </trkpt>
      <trkpt lat="42.171623" lon="-2.768793">
        <ele>1417.5</ele>
        <time>2021-07-04T11:47:44.000Z</time>
      </trkpt>
      <trkpt lat="42.171623" lon="-2.768793">
        <ele>1417.5</ele>
        <time>2021-07-04T11:47:45.000Z</time>
      </trkpt>
      <trkpt lat="42.171625" lon="-2.768793">
        <ele>1416.6</ele>
        <time>2021-07-04T11:48:03.000Z</time>
      </trkpt>
      <trkpt lat="42.171625" lon="-2.768793">
        <ele>1416.3</ele>
        <time>2021-07-04T11:48:04.000Z</time>
      </trkpt>
      <trkpt lat="42.171623" lon="-2.768793">
        <ele>1417.0</ele>
        <time>2021-07-04T11:48:09.000Z</time>
      </trkpt>
      <trkpt lat="42.171623" lon="-2.768793">
        <ele>1417.0</ele>
        <time>2021-07-04T11:48:10.000Z</time>
      </trkpt>
      <trkpt lat="42.171625" lon="-2.768793">
        <ele>1416.5</ele>
        <time>2021-07-04T11:48:35.000Z</time>
      </trkpt>
      <trkpt lat="42.171625" lon="-2.768793">
        <ele>1416.7</ele>
        <time>2021-07-04T11:48:36.000Z</time>
      </trkpt>
      <trkpt lat="42.171623" lon="-2.768788">
        <ele>1418.0</ele>
        <time>2021-07-04T11:48:56.000Z</time>
      </trkpt>
      <trkpt lat="42.171598" lon="-2.768662">
        <ele>1417.4</ele>
        <time>2021-07-04T11:49:03.000Z</time>
      </trkpt>
      <trkpt lat="42.171575" lon="-2.768542">
        <ele>1417.6</ele>
        <time>2021-07-04T11:49:07.000Z</time>
      </trkpt>
      <trkpt lat="42.171545" lon="-2.768388">
        <ele>1417.5</ele>
        <time>2021-07-04T11:49:11.000Z</time>
      </trkpt>
      <trkpt lat="42.171517" lon="-2.768252">
        <ele>1417.0</ele>
        <time>2021-07-04T11:49:14.000Z</time>
      </trkpt>
      <trkpt lat="42.171493" lon="-2.768105">
        <ele>1416.5</ele>
        <time>2021-07-04T11:49:17.000Z</time>
      </trkpt>
      <trkpt lat="42.171468" lon="-2.767952">
        <ele>1415.6</ele>
        <time>2021-07-04T11:49:20.000Z</time>
      </trkpt>
      <trkpt lat="42.171438" lon="-2.767802">
        <ele>1415.3</ele>
        <time>2021-07-04T11:49:23.000Z</time>
      </trkpt>
      <trkpt lat="42.171392" lon="-2.767658">
        <ele>1414.7</ele>
        <time>2021-07-04T11:49:27.000Z</time>
      </trkpt>
      <trkpt lat="42.171382" lon="-2.767618">
        <ele>1414.2</ele>
        <time>2021-07-04T11:49:30.000Z</time>
      </trkpt>
      <trkpt lat="42.171383" lon="-2.767620">
        <ele>1413.7</ele>
        <time>2021-07-04T11:49:32.000Z</time>
      </trkpt>
      <trkpt lat="42.171383" lon="-2.767618">
        <ele>1413.6</ele>
        <time>2021-07-04T11:49:33.000Z</time>
      </trkpt>
      <trkpt lat="42.171385" lon="-2.767617">
        <ele>1414.0</ele>
        <time>2021-07-04T11:49:34.000Z</time>
      </trkpt>
      <trkpt lat="42.171372" lon="-2.767487">
        <ele>1414.9</ele>
        <time>2021-07-04T11:49:39.000Z</time>
      </trkpt>
      <trkpt lat="42.171348" lon="-2.767335">
        <ele>1413.7</ele>
        <time>2021-07-04T11:49:42.000Z</time>
      </trkpt>
      <trkpt lat="42.171340" lon="-2.767307">
        <ele>1412.7</ele>
        <time>2021-07-04T11:49:47.000Z</time>
      </trkpt>
      <trkpt lat="42.171342" lon="-2.767307">
        <ele>1412.9</ele>
        <time>2021-07-04T11:49:51.000Z</time>
      </trkpt>
      <trkpt lat="42.171325" lon="-2.767162">
        <ele>1413.3</ele>
        <time>2021-07-04T11:49:56.000Z</time>
      </trkpt>
      <trkpt lat="42.171300" lon="-2.766983">
        <ele>1412.9</ele>
        <time>2021-07-04T11:49:59.000Z</time>
      </trkpt>
      <trkpt lat="42.171280" lon="-2.766843">
        <ele>1413.1</ele>
        <time>2021-07-04T11:50:01.000Z</time>
      </trkpt>
      <trkpt lat="42.171258" lon="-2.766685">
        <ele>1412.0</ele>
        <time>2021-07-04T11:50:03.000Z</time>
      </trkpt>
      <trkpt lat="42.171228" lon="-2.766503">
        <ele>1411.6</ele>
        <time>2021-07-04T11:50:05.000Z</time>
      </trkpt>
      <trkpt lat="42.171190" lon="-2.766303">
        <ele>1412.7</ele>
        <time>2021-07-04T11:50:07.000Z</time>
      </trkpt>
      <trkpt lat="42.171147" lon="-2.766088">
        <ele>1411.1</ele>
        <time>2021-07-04T11:50:09.000Z</time>
      </trkpt>
      <trkpt lat="42.171097" lon="-2.765868">
        <ele>1410.6</ele>
        <time>2021-07-04T11:50:11.000Z</time>
      </trkpt>
      <trkpt lat="42.171032" lon="-2.765648">
        <ele>1410.0</ele>
        <time>2021-07-04T11:50:13.000Z</time>
      </trkpt>
      <trkpt lat="42.170992" lon="-2.765538">
        <ele>1410.0</ele>
        <time>2021-07-04T11:50:14.000Z</time>
      </trkpt>
      <trkpt lat="42.170948" lon="-2.765425">
        <ele>1409.6</ele>
        <time>2021-07-04T11:50:15.000Z</time>
      </trkpt>
      <trkpt lat="42.170903" lon="-2.765310">
        <ele>1408.9</ele>
        <time>2021-07-04T11:50:16.000Z</time>
      </trkpt>
      <trkpt lat="42.170855" lon="-2.765195">
        <ele>1408.5</ele>
        <time>2021-07-04T11:50:17.000Z</time>
      </trkpt>
      <trkpt lat="42.170805" lon="-2.765082">
        <ele>1409.0</ele>
        <time>2021-07-04T11:50:18.000Z</time>
      </trkpt>
      <trkpt lat="42.170753" lon="-2.764970">
        <ele>1410.2</ele>
        <time>2021-07-04T11:50:19.000Z</time>
      </trkpt>
      <trkpt lat="42.170702" lon="-2.764860">
        <ele>1410.0</ele>
        <time>2021-07-04T11:50:20.000Z</time>
      </trkpt>
      <trkpt lat="42.170655" lon="-2.764752">
        <ele>1409.9</ele>
        <time>2021-07-04T11:50:21.000Z</time>
      </trkpt>
      <trkpt lat="42.170612" lon="-2.764645">
        <ele>1409.1</ele>
        <time>2021-07-04T11:50:22.000Z</time>
      </trkpt>
      <trkpt lat="42.170570" lon="-2.764537">
        <ele>1408.8</ele>
        <time>2021-07-04T11:50:23.000Z</time>
      </trkpt>
      <trkpt lat="42.170488" lon="-2.764322">
        <ele>1408.2</ele>
        <time>2021-07-04T11:50:25.000Z</time>
      </trkpt>
      <trkpt lat="42.170407" lon="-2.764110">
        <ele>1408.2</ele>
        <time>2021-07-04T11:50:27.000Z</time>
      </trkpt>
      <trkpt lat="42.170325" lon="-2.763898">
        <ele>1408.3</ele>
        <time>2021-07-04T11:50:29.000Z</time>
      </trkpt>
      <trkpt lat="42.170243" lon="-2.763690">
        <ele>1409.1</ele>
        <time>2021-07-04T11:50:31.000Z</time>
      </trkpt>
      <trkpt lat="42.170148" lon="-2.763503">
        <ele>1408.2</ele>
        <time>2021-07-04T11:50:33.000Z</time>
      </trkpt>
      <trkpt lat="42.170003" lon="-2.763412">
        <ele>1406.8</ele>
        <time>2021-07-04T11:50:35.000Z</time>
      </trkpt>
      <trkpt lat="42.169858" lon="-2.763435">
        <ele>1406.6</ele>
        <time>2021-07-04T11:50:37.000Z</time>
      </trkpt>
      <trkpt lat="42.169717" lon="-2.763467">
        <ele>1406.5</ele>
        <time>2021-07-04T11:50:39.000Z</time>
      </trkpt>
      <trkpt lat="42.169572" lon="-2.763470">
        <ele>1406.4</ele>
        <time>2021-07-04T11:50:41.000Z</time>
      </trkpt>
      <trkpt lat="42.169427" lon="-2.763413">
        <ele>1405.7</ele>
        <time>2021-07-04T11:50:43.000Z</time>
      </trkpt>
      <trkpt lat="42.169280" lon="-2.763320">
        <ele>1405.3</ele>
        <time>2021-07-04T11:50:45.000Z</time>
      </trkpt>
      <trkpt lat="42.169135" lon="-2.763202">
        <ele>1404.4</ele>
        <time>2021-07-04T11:50:47.000Z</time>
      </trkpt>
      <trkpt lat="42.168995" lon="-2.763062">
        <ele>1404.2</ele>
        <time>2021-07-04T11:50:49.000Z</time>
      </trkpt>
      <trkpt lat="42.168860" lon="-2.762903">
        <ele>1403.8</ele>
        <time>2021-07-04T11:50:51.000Z</time>
      </trkpt>
      <trkpt lat="42.168732" lon="-2.762740">
        <ele>1403.6</ele>
        <time>2021-07-04T11:50:53.000Z</time>
      </trkpt>
      <trkpt lat="42.168613" lon="-2.762572">
        <ele>1402.7</ele>
        <time>2021-07-04T11:50:55.000Z</time>
      </trkpt>
      <trkpt lat="42.168500" lon="-2.762407">
        <ele>1402.7</ele>
        <time>2021-07-04T11:50:57.000Z</time>
      </trkpt>
      <trkpt lat="42.168392" lon="-2.762242">
        <ele>1401.2</ele>
        <time>2021-07-04T11:50:59.000Z</time>
      </trkpt>
      <trkpt lat="42.168288" lon="-2.762083">
        <ele>1400.8</ele>
        <time>2021-07-04T11:51:01.000Z</time>
      </trkpt>
      <trkpt lat="42.168190" lon="-2.761933">
        <ele>1401.2</ele>
        <time>2021-07-04T11:51:03.000Z</time>
      </trkpt>
      <trkpt lat="42.168097" lon="-2.761788">
        <ele>1400.9</ele>
        <time>2021-07-04T11:51:05.000Z</time>
      </trkpt>
      <trkpt lat="42.168015" lon="-2.761658">
        <ele>1400.7</ele>
        <time>2021-07-04T11:51:07.000Z</time>
      </trkpt>
      <trkpt lat="42.167937" lon="-2.761565">
        <ele>1401.2</ele>
        <time>2021-07-04T11:51:09.000Z</time>
      </trkpt>
      <trkpt lat="42.167863" lon="-2.761490">
        <ele>1400.9</ele>
        <time>2021-07-04T11:51:11.000Z</time>
      </trkpt>
      <trkpt lat="42.167743" lon="-2.761412">
        <ele>1401.0</ele>
        <time>2021-07-04T11:51:14.000Z</time>
      </trkpt>
      <trkpt lat="42.167658" lon="-2.761360">
        <ele>1400.6</ele>
        <time>2021-07-04T11:51:16.000Z</time>
      </trkpt>
      <trkpt lat="42.167567" lon="-2.761315">
        <ele>1400.8</ele>
        <time>2021-07-04T11:51:18.000Z</time>
      </trkpt>
      <trkpt lat="42.167473" lon="-2.761270">
        <ele>1400.8</ele>
        <time>2021-07-04T11:51:20.000Z</time>
      </trkpt>
      <trkpt lat="42.167380" lon="-2.761218">
        <ele>1400.5</ele>
        <time>2021-07-04T11:51:22.000Z</time>
      </trkpt>
      <trkpt lat="42.167292" lon="-2.761162">
        <ele>1400.4</ele>
        <time>2021-07-04T11:51:24.000Z</time>
      </trkpt>
      <trkpt lat="42.167207" lon="-2.761108">
        <ele>1401.2</ele>
        <time>2021-07-04T11:51:26.000Z</time>
      </trkpt>
      <trkpt lat="42.167118" lon="-2.761070">
        <ele>1401.0</ele>
        <time>2021-07-04T11:51:28.000Z</time>
      </trkpt>
      <trkpt lat="42.167028" lon="-2.761038">
        <ele>1400.5</ele>
        <time>2021-07-04T11:51:30.000Z</time>
      </trkpt>
      <trkpt lat="42.166897" lon="-2.761018">
        <ele>1402.0</ele>
        <time>2021-07-04T11:51:33.000Z</time>
      </trkpt>
      <trkpt lat="42.166805" lon="-2.761032">
        <ele>1401.0</ele>
        <time>2021-07-04T11:51:35.000Z</time>
      </trkpt>
      <trkpt lat="42.166717" lon="-2.761068">
        <ele>1401.4</ele>
        <time>2021-07-04T11:51:37.000Z</time>
      </trkpt>
      <trkpt lat="42.166633" lon="-2.761117">
        <ele>1401.7</ele>
        <time>2021-07-04T11:51:39.000Z</time>
      </trkpt>
      <trkpt lat="42.166513" lon="-2.761197">
        <ele>1401.6</ele>
        <time>2021-07-04T11:51:42.000Z</time>
      </trkpt>
      <trkpt lat="42.166398" lon="-2.761275">
        <ele>1402.2</ele>
        <time>2021-07-04T11:51:45.000Z</time>
      </trkpt>
      <trkpt lat="42.166287" lon="-2.761352">
        <ele>1401.9</ele>
        <time>2021-07-04T11:51:48.000Z</time>
      </trkpt>
      <trkpt lat="42.166172" lon="-2.761423">
        <ele>1401.8</ele>
        <time>2021-07-04T11:51:51.000Z</time>
      </trkpt>
      <trkpt lat="42.166060" lon="-2.761487">
        <ele>1403.3</ele>
        <time>2021-07-04T11:51:54.000Z</time>
      </trkpt>
      <trkpt lat="42.165957" lon="-2.761557">
        <ele>1403.5</ele>
        <time>2021-07-04T11:51:57.000Z</time>
      </trkpt>
      <trkpt lat="42.165853" lon="-2.761622">
        <ele>1403.7</ele>
        <time>2021-07-04T11:52:00.000Z</time>
      </trkpt>
      <trkpt lat="42.165753" lon="-2.761683">
        <ele>1404.6</ele>
        <time>2021-07-04T11:52:03.000Z</time>
      </trkpt>
      <trkpt lat="42.165657" lon="-2.761738">
        <ele>1403.7</ele>
        <time>2021-07-04T11:52:06.000Z</time>
      </trkpt>
      <trkpt lat="42.165565" lon="-2.761780">
        <ele>1403.9</ele>
        <time>2021-07-04T11:52:09.000Z</time>
      </trkpt>
      <trkpt lat="42.165473" lon="-2.761795">
        <ele>1404.8</ele>
        <time>2021-07-04T11:52:12.000Z</time>
      </trkpt>
      <trkpt lat="42.165375" lon="-2.761732">
        <ele>1404.8</ele>
        <time>2021-07-04T11:52:16.000Z</time>
      </trkpt>
      <trkpt lat="42.165322" lon="-2.761612">
        <ele>1404.4</ele>
        <time>2021-07-04T11:52:19.000Z</time>
      </trkpt>
      <trkpt lat="42.165277" lon="-2.761455">
        <ele>1404.0</ele>
        <time>2021-07-04T11:52:22.000Z</time>
      </trkpt>
      <trkpt lat="42.165250" lon="-2.761338">
        <ele>1403.6</ele>
        <time>2021-07-04T11:52:24.000Z</time>
      </trkpt>
      <trkpt lat="42.165232" lon="-2.761213">
        <ele>1403.4</ele>
        <time>2021-07-04T11:52:26.000Z</time>
      </trkpt>
      <trkpt lat="42.165210" lon="-2.761088">
        <ele>1403.4</ele>
        <time>2021-07-04T11:52:28.000Z</time>
      </trkpt>
      <trkpt lat="42.165185" lon="-2.760962">
        <ele>1403.4</ele>
        <time>2021-07-04T11:52:30.000Z</time>
      </trkpt>
      <trkpt lat="42.165147" lon="-2.760842">
        <ele>1403.3</ele>
        <time>2021-07-04T11:52:32.000Z</time>
      </trkpt>
      <trkpt lat="42.165102" lon="-2.760727">
        <ele>1404.0</ele>
        <time>2021-07-04T11:52:34.000Z</time>
      </trkpt>
      <trkpt lat="42.165055" lon="-2.760620">
        <ele>1403.9</ele>
        <time>2021-07-04T11:52:36.000Z</time>
      </trkpt>
      <trkpt lat="42.164988" lon="-2.760468">
        <ele>1404.7</ele>
        <time>2021-07-04T11:52:39.000Z</time>
      </trkpt>
      <trkpt lat="42.164928" lon="-2.760330">
        <ele>1405.1</ele>
        <time>2021-07-04T11:52:42.000Z</time>
      </trkpt>
      <trkpt lat="42.164867" lon="-2.760197">
        <ele>1404.9</ele>
        <time>2021-07-04T11:52:45.000Z</time>
      </trkpt>
      <trkpt lat="42.164802" lon="-2.760058">
        <ele>1405.3</ele>
        <time>2021-07-04T11:52:48.000Z</time>
      </trkpt>
      <trkpt lat="42.164740" lon="-2.759910">
        <ele>1405.1</ele>
        <time>2021-07-04T11:52:51.000Z</time>
      </trkpt>
      <trkpt lat="42.164683" lon="-2.759753">
        <ele>1405.8</ele>
        <time>2021-07-04T11:52:54.000Z</time>
      </trkpt>
      <trkpt lat="42.164633" lon="-2.759602">
        <ele>1406.4</ele>
        <time>2021-07-04T11:52:57.000Z</time>
      </trkpt>
      <trkpt lat="42.164575" lon="-2.759475">
        <ele>1406.8</ele>
        <time>2021-07-04T11:53:00.000Z</time>
      </trkpt>
      <trkpt lat="42.164515" lon="-2.759372">
        <ele>1406.6</ele>
        <time>2021-07-04T11:53:03.000Z</time>
      </trkpt>
      <trkpt lat="42.164450" lon="-2.759275">
        <ele>1407.4</ele>
        <time>2021-07-04T11:53:06.000Z</time>
      </trkpt>
      <trkpt lat="42.164372" lon="-2.759203">
        <ele>1408.2</ele>
        <time>2021-07-04T11:53:09.000Z</time>
      </trkpt>
      <trkpt lat="42.164290" lon="-2.759152">
        <ele>1408.6</ele>
        <time>2021-07-04T11:53:12.000Z</time>
      </trkpt>
      <trkpt lat="42.164185" lon="-2.759118">
        <ele>1408.1</ele>
        <time>2021-07-04T11:53:16.000Z</time>
      </trkpt>
      <trkpt lat="42.164093" lon="-2.759105">
        <ele>1408.3</ele>
        <time>2021-07-04T11:53:19.000Z</time>
      </trkpt>
      <trkpt lat="42.163980" lon="-2.759082">
        <ele>1408.1</ele>
        <time>2021-07-04T11:53:22.000Z</time>
      </trkpt>
      <trkpt lat="42.163857" lon="-2.759063">
        <ele>1407.7</ele>
        <time>2021-07-04T11:53:25.000Z</time>
      </trkpt>
      <trkpt lat="42.163722" lon="-2.759048">
        <ele>1407.2</ele>
        <time>2021-07-04T11:53:28.000Z</time>
      </trkpt>
      <trkpt lat="42.163628" lon="-2.759027">
        <ele>1406.9</ele>
        <time>2021-07-04T11:53:30.000Z</time>
      </trkpt>
      <trkpt lat="42.163528" lon="-2.759013">
        <ele>1406.6</ele>
        <time>2021-07-04T11:53:32.000Z</time>
      </trkpt>
      <trkpt lat="42.163423" lon="-2.758992">
        <ele>1406.3</ele>
        <time>2021-07-04T11:53:34.000Z</time>
      </trkpt>
      <trkpt lat="42.163312" lon="-2.758970">
        <ele>1406.3</ele>
        <time>2021-07-04T11:53:36.000Z</time>
      </trkpt>
      <trkpt lat="42.163195" lon="-2.758935">
        <ele>1405.5</ele>
        <time>2021-07-04T11:53:38.000Z</time>
      </trkpt>
      <trkpt lat="42.163070" lon="-2.758890">
        <ele>1405.3</ele>
        <time>2021-07-04T11:53:40.000Z</time>
      </trkpt>
      <trkpt lat="42.162938" lon="-2.758838">
        <ele>1404.4</ele>
        <time>2021-07-04T11:53:42.000Z</time>
      </trkpt>
      <trkpt lat="42.162800" lon="-2.758783">
        <ele>1403.3</ele>
        <time>2021-07-04T11:53:44.000Z</time>
      </trkpt>
      <trkpt lat="42.162657" lon="-2.758725">
        <ele>1402.9</ele>
        <time>2021-07-04T11:53:46.000Z</time>
      </trkpt>
      <trkpt lat="42.162512" lon="-2.758660">
        <ele>1403.2</ele>
        <time>2021-07-04T11:53:48.000Z</time>
      </trkpt>
      <trkpt lat="42.162370" lon="-2.758585">
        <ele>1401.7</ele>
        <time>2021-07-04T11:53:50.000Z</time>
      </trkpt>
      <trkpt lat="42.162240" lon="-2.758493">
        <ele>1402.6</ele>
        <time>2021-07-04T11:53:52.000Z</time>
      </trkpt>
      <trkpt lat="42.162123" lon="-2.758393">
        <ele>1402.6</ele>
        <time>2021-07-04T11:53:54.000Z</time>
      </trkpt>
      <trkpt lat="42.162023" lon="-2.758280">
        <ele>1402.0</ele>
        <time>2021-07-04T11:53:56.000Z</time>
      </trkpt>
      <trkpt lat="42.161933" lon="-2.758163">
        <ele>1401.2</ele>
        <time>2021-07-04T11:53:58.000Z</time>
      </trkpt>
      <trkpt lat="42.161857" lon="-2.758037">
        <ele>1401.0</ele>
        <time>2021-07-04T11:54:00.000Z</time>
      </trkpt>
      <trkpt lat="42.161793" lon="-2.757903">
        <ele>1400.2</ele>
        <time>2021-07-04T11:54:02.000Z</time>
      </trkpt>
      <trkpt lat="42.161758" lon="-2.757757">
        <ele>1400.4</ele>
        <time>2021-07-04T11:54:04.000Z</time>
      </trkpt>
      <trkpt lat="42.161757" lon="-2.757612">
        <ele>1400.9</ele>
        <time>2021-07-04T11:54:06.000Z</time>
      </trkpt>
      <trkpt lat="42.161777" lon="-2.757478">
        <ele>1402.2</ele>
        <time>2021-07-04T11:54:08.000Z</time>
      </trkpt>
      <trkpt lat="42.161815" lon="-2.757318">
        <ele>1402.6</ele>
        <time>2021-07-04T11:54:11.000Z</time>
      </trkpt>
      <trkpt lat="42.161843" lon="-2.757192">
        <ele>1403.9</ele>
        <time>2021-07-04T11:54:14.000Z</time>
      </trkpt>
      <trkpt lat="42.161877" lon="-2.757078">
        <ele>1404.4</ele>
        <time>2021-07-04T11:54:17.000Z</time>
      </trkpt>
      <trkpt lat="42.161897" lon="-2.756960">
        <ele>1403.8</ele>
        <time>2021-07-04T11:54:20.000Z</time>
      </trkpt>
      <trkpt lat="42.161902" lon="-2.756950">
        <ele>1405.7</ele>
        <time>2021-07-04T11:54:26.000Z</time>
      </trkpt>
      <trkpt lat="42.161902" lon="-2.756957">
        <ele>1405.1</ele>
        <time>2021-07-04T11:54:40.000Z</time>
      </trkpt>
      <trkpt lat="42.161902" lon="-2.756957">
        <ele>1405.0</ele>
        <time>2021-07-04T11:54:41.000Z</time>
      </trkpt>
      <trkpt lat="42.161900" lon="-2.756950">
        <ele>1405.4</ele>
        <time>2021-07-04T11:54:44.000Z</time>
      </trkpt>
      <trkpt lat="42.161897" lon="-2.756948">
        <ele>1405.7</ele>
        <time>2021-07-04T11:54:47.000Z</time>
      </trkpt>
      <trkpt lat="42.161898" lon="-2.756947">
        <ele>1405.2</ele>
        <time>2021-07-04T11:54:56.000Z</time>
      </trkpt>
      <trkpt lat="42.161898" lon="-2.756947">
        <ele>1405.4</ele>
        <time>2021-07-04T11:54:57.000Z</time>
      </trkpt>
      <trkpt lat="42.161897" lon="-2.756947">
        <ele>1405.4</ele>
        <time>2021-07-04T11:55:13.000Z</time>
      </trkpt>
      <trkpt lat="42.161897" lon="-2.756947">
        <ele>1405.2</ele>
        <time>2021-07-04T11:55:14.000Z</time>
      </trkpt>
      <trkpt lat="42.161898" lon="-2.756947">
        <ele>1404.9</ele>
        <time>2021-07-04T11:56:11.000Z</time>
      </trkpt>
      <trkpt lat="42.161907" lon="-2.756920">
        <ele>1404.7</ele>
        <time>2021-07-04T11:56:16.000Z</time>
      </trkpt>
      <trkpt lat="42.161908" lon="-2.756917">
        <ele>1404.8</ele>
        <time>2021-07-04T11:56:24.000Z</time>
      </trkpt>
      <trkpt lat="42.161933" lon="-2.756840">
        <ele>1404.9</ele>
        <time>2021-07-04T11:56:31.000Z</time>
      </trkpt>
      <trkpt lat="42.161935" lon="-2.756833">
        <ele>1404.7</ele>
        <time>2021-07-04T11:56:42.000Z</time>
      </trkpt>
      <trkpt lat="42.161943" lon="-2.756705">
        <ele>1404.5</ele>
        <time>2021-07-04T11:56:51.000Z</time>
      </trkpt>
      <trkpt lat="42.161938" lon="-2.756578">
        <ele>1404.7</ele>
        <time>2021-07-04T11:56:59.000Z</time>
      </trkpt>
      <trkpt lat="42.161948" lon="-2.756717">
        <ele>1404.5</ele>
        <time>2021-07-04T11:57:09.000Z</time>
      </trkpt>
      <trkpt lat="42.161962" lon="-2.756760">
        <ele>1404.7</ele>
        <time>2021-07-04T11:57:13.000Z</time>
      </trkpt>
      <trkpt lat="42.161960" lon="-2.756765">
        <ele>1404.8</ele>
        <time>2021-07-04T11:58:01.000Z</time>
      </trkpt>
      <trkpt lat="42.161947" lon="-2.756735">
        <ele>1404.8</ele>
        <time>2021-07-04T11:58:07.000Z</time>
      </trkpt>
      <trkpt lat="42.161945" lon="-2.756727">
        <ele>1404.9</ele>
        <time>2021-07-04T11:58:09.000Z</time>
      </trkpt>
      <trkpt lat="42.161932" lon="-2.756583">
        <ele>1404.4</ele>
        <time>2021-07-04T11:58:16.000Z</time>
      </trkpt>
      <trkpt lat="42.161912" lon="-2.756453">
        <ele>1404.4</ele>
        <time>2021-07-04T11:58:19.000Z</time>
      </trkpt>
      <trkpt lat="42.161888" lon="-2.756305">
        <ele>1404.1</ele>
        <time>2021-07-04T11:58:22.000Z</time>
      </trkpt>
      <trkpt lat="42.161852" lon="-2.756137">
        <ele>1404.3</ele>
        <time>2021-07-04T11:58:25.000Z</time>
      </trkpt>
      <trkpt lat="42.161822" lon="-2.756017">
        <ele>1403.8</ele>
        <time>2021-07-04T11:58:27.000Z</time>
      </trkpt>
      <trkpt lat="42.161790" lon="-2.755850">
        <ele>1403.7</ele>
        <time>2021-07-04T11:58:30.000Z</time>
      </trkpt>
      <trkpt lat="42.161747" lon="-2.755677">
        <ele>1403.1</ele>
        <time>2021-07-04T11:58:33.000Z</time>
      </trkpt>
      <trkpt lat="42.161723" lon="-2.755558">
        <ele>1402.8</ele>
        <time>2021-07-04T11:58:35.000Z</time>
      </trkpt>
      <trkpt lat="42.161700" lon="-2.755433">
        <ele>1402.8</ele>
        <time>2021-07-04T11:58:37.000Z</time>
      </trkpt>
      <trkpt lat="42.161668" lon="-2.755307">
        <ele>1402.5</ele>
        <time>2021-07-04T11:58:39.000Z</time>
      </trkpt>
      <trkpt lat="42.161642" lon="-2.755178">
        <ele>1402.3</ele>
        <time>2021-07-04T11:58:41.000Z</time>
      </trkpt>
      <trkpt lat="42.161612" lon="-2.755058">
        <ele>1402.5</ele>
        <time>2021-07-04T11:58:43.000Z</time>
      </trkpt>
      <trkpt lat="42.161578" lon="-2.754888">
        <ele>1401.1</ele>
        <time>2021-07-04T11:58:46.000Z</time>
      </trkpt>
      <trkpt lat="42.161558" lon="-2.754730">
        <ele>1402.0</ele>
        <time>2021-07-04T11:58:49.000Z</time>
      </trkpt>
      <trkpt lat="42.161590" lon="-2.754558">
        <ele>1402.0</ele>
        <time>2021-07-04T11:58:52.000Z</time>
      </trkpt>
      <trkpt lat="42.161622" lon="-2.754443">
        <ele>1402.5</ele>
        <time>2021-07-04T11:58:54.000Z</time>
      </trkpt>
      <trkpt lat="42.161665" lon="-2.754333">
        <ele>1403.2</ele>
        <time>2021-07-04T11:58:56.000Z</time>
      </trkpt>
      <trkpt lat="42.161712" lon="-2.754217">
        <ele>1402.4</ele>
        <time>2021-07-04T11:58:58.000Z</time>
      </trkpt>
      <trkpt lat="42.161760" lon="-2.754090">
        <ele>1403.3</ele>
        <time>2021-07-04T11:59:00.000Z</time>
      </trkpt>
      <trkpt lat="42.161812" lon="-2.753962">
        <ele>1400.5</ele>
        <time>2021-07-04T11:59:02.000Z</time>
      </trkpt>
      <trkpt lat="42.161855" lon="-2.753837">
        <ele>1400.8</ele>
        <time>2021-07-04T11:59:04.000Z</time>
      </trkpt>
      <trkpt lat="42.161893" lon="-2.753713">
        <ele>1400.5</ele>
        <time>2021-07-04T11:59:06.000Z</time>
      </trkpt>
      <trkpt lat="42.161925" lon="-2.753587">
        <ele>1401.1</ele>
        <time>2021-07-04T11:59:08.000Z</time>
      </trkpt>
      <trkpt lat="42.161960" lon="-2.753462">
        <ele>1401.9</ele>
        <time>2021-07-04T11:59:10.000Z</time>
      </trkpt>
      <trkpt lat="42.161995" lon="-2.753337">
        <ele>1401.0</ele>
        <time>2021-07-04T11:59:12.000Z</time>
      </trkpt>
      <trkpt lat="42.162027" lon="-2.753217">
        <ele>1401.2</ele>
        <time>2021-07-04T11:59:14.000Z</time>
      </trkpt>
      <trkpt lat="42.162062" lon="-2.753100">
        <ele>1400.7</ele>
        <time>2021-07-04T11:59:16.000Z</time>
      </trkpt>
      <trkpt lat="42.162093" lon="-2.752983">
        <ele>1400.9</ele>
        <time>2021-07-04T11:59:18.000Z</time>
      </trkpt>
      <trkpt lat="42.162132" lon="-2.752870">
        <ele>1400.6</ele>
        <time>2021-07-04T11:59:20.000Z</time>
      </trkpt>
      <trkpt lat="42.162175" lon="-2.752758">
        <ele>1399.5</ele>
        <time>2021-07-04T11:59:22.000Z</time>
      </trkpt>
      <trkpt lat="42.162227" lon="-2.752645">
        <ele>1398.5</ele>
        <time>2021-07-04T11:59:24.000Z</time>
      </trkpt>
      <trkpt lat="42.162280" lon="-2.752527">
        <ele>1398.8</ele>
        <time>2021-07-04T11:59:26.000Z</time>
      </trkpt>
      <trkpt lat="42.162330" lon="-2.752397">
        <ele>1400.1</ele>
        <time>2021-07-04T11:59:28.000Z</time>
      </trkpt>
      <trkpt lat="42.162372" lon="-2.752260">
        <ele>1396.5</ele>
        <time>2021-07-04T11:59:30.000Z</time>
      </trkpt>
      <trkpt lat="42.162395" lon="-2.752122">
        <ele>1399.7</ele>
        <time>2021-07-04T11:59:32.000Z</time>
      </trkpt>
      <trkpt lat="42.162410" lon="-2.751982">
        <ele>1400.1</ele>
        <time>2021-07-04T11:59:34.000Z</time>
      </trkpt>
      <trkpt lat="42.162425" lon="-2.751845">
        <ele>1398.4</ele>
        <time>2021-07-04T11:59:36.000Z</time>
      </trkpt>
      <trkpt lat="42.162440" lon="-2.751712">
        <ele>1397.7</ele>
        <time>2021-07-04T11:59:38.000Z</time>
      </trkpt>
      <trkpt lat="42.162467" lon="-2.751582">
        <ele>1398.8</ele>
        <time>2021-07-04T11:59:40.000Z</time>
      </trkpt>
      <trkpt lat="42.162500" lon="-2.751455">
        <ele>1398.1</ele>
        <time>2021-07-04T11:59:42.000Z</time>
      </trkpt>
      <trkpt lat="42.162545" lon="-2.751328">
        <ele>1398.6</ele>
        <time>2021-07-04T11:59:44.000Z</time>
      </trkpt>
      <trkpt lat="42.162597" lon="-2.751203">
        <ele>1399.1</ele>
        <time>2021-07-04T11:59:46.000Z</time>
      </trkpt>
      <trkpt lat="42.162657" lon="-2.751077">
        <ele>1398.6</ele>
        <time>2021-07-04T11:59:48.000Z</time>
      </trkpt>
      <trkpt lat="42.162723" lon="-2.750953">
        <ele>1397.8</ele>
        <time>2021-07-04T11:59:50.000Z</time>
      </trkpt>
      <trkpt lat="42.162785" lon="-2.750827">
        <ele>1399.5</ele>
        <time>2021-07-04T11:59:52.000Z</time>
      </trkpt>
      <trkpt lat="42.162840" lon="-2.750695">
        <ele>1397.8</ele>
        <time>2021-07-04T11:59:54.000Z</time>
      </trkpt>
      <trkpt lat="42.162892" lon="-2.750558">
        <ele>1397.4</ele>
        <time>2021-07-04T11:59:56.000Z</time>
      </trkpt>
      <trkpt lat="42.162930" lon="-2.750420">
        <ele>1396.3</ele>
        <time>2021-07-04T11:59:58.000Z</time>
      </trkpt>
      <trkpt lat="42.162970" lon="-2.750283">
        <ele>1396.3</ele>
        <time>2021-07-04T12:00:00.000Z</time>
      </trkpt>
      <trkpt lat="42.163010" lon="-2.750148">
        <ele>1398.4</ele>
        <time>2021-07-04T12:00:02.000Z</time>
      </trkpt>
      <trkpt lat="42.163050" lon="-2.750015">
        <ele>1397.3</ele>
        <time>2021-07-04T12:00:04.000Z</time>
      </trkpt>
      <trkpt lat="42.163080" lon="-2.749880">
        <ele>1396.2</ele>
        <time>2021-07-04T12:00:06.000Z</time>
      </trkpt>
      <trkpt lat="42.163065" lon="-2.749743">
        <ele>1395.5</ele>
        <time>2021-07-04T12:00:08.000Z</time>
      </trkpt>
      <trkpt lat="42.162987" lon="-2.749642">
        <ele>1396.7</ele>
        <time>2021-07-04T12:00:10.000Z</time>
      </trkpt>
      <trkpt lat="42.162880" lon="-2.749600">
        <ele>1397.3</ele>
        <time>2021-07-04T12:00:12.000Z</time>
      </trkpt>
      <trkpt lat="42.162782" lon="-2.749595">
        <ele>1397.1</ele>
        <time>2021-07-04T12:00:14.000Z</time>
      </trkpt>
      <trkpt lat="42.162647" lon="-2.749600">
        <ele>1396.9</ele>
        <time>2021-07-04T12:00:17.000Z</time>
      </trkpt>
      <trkpt lat="42.162528" lon="-2.749625">
        <ele>1396.7</ele>
        <time>2021-07-04T12:00:20.000Z</time>
      </trkpt>
      <trkpt lat="42.162497" lon="-2.749632">
        <ele>1396.3</ele>
        <time>2021-07-04T12:00:23.000Z</time>
      </trkpt>
      <trkpt lat="42.162495" lon="-2.749633">
        <ele>1396.4</ele>
        <time>2021-07-04T12:00:31.000Z</time>
      </trkpt>
      <trkpt lat="42.162495" lon="-2.749632">
        <ele>1396.4</ele>
        <time>2021-07-04T12:00:32.000Z</time>
      </trkpt>
      <trkpt lat="42.162493" lon="-2.749633">
        <ele>1395.6</ele>
        <time>2021-07-04T12:00:47.000Z</time>
      </trkpt>
      <trkpt lat="42.162390" lon="-2.749630">
        <ele>1395.8</ele>
        <time>2021-07-04T12:00:52.000Z</time>
      </trkpt>
      <trkpt lat="42.162263" lon="-2.749642">
        <ele>1395.7</ele>
        <time>2021-07-04T12:00:55.000Z</time>
      </trkpt>
      <trkpt lat="42.162167" lon="-2.749657">
        <ele>1395.2</ele>
        <time>2021-07-04T12:00:57.000Z</time>
      </trkpt>
      <trkpt lat="42.162068" lon="-2.749678">
        <ele>1396.5</ele>
        <time>2021-07-04T12:00:59.000Z</time>
      </trkpt>
      <trkpt lat="42.161967" lon="-2.749695">
        <ele>1396.5</ele>
        <time>2021-07-04T12:01:01.000Z</time>
      </trkpt>
      <trkpt lat="42.161860" lon="-2.749707">
        <ele>1396.4</ele>
        <time>2021-07-04T12:01:03.000Z</time>
      </trkpt>
      <trkpt lat="42.161753" lon="-2.749722">
        <ele>1396.3</ele>
        <time>2021-07-04T12:01:05.000Z</time>
      </trkpt>
      <trkpt lat="42.161643" lon="-2.749733">
        <ele>1396.1</ele>
        <time>2021-07-04T12:01:07.000Z</time>
      </trkpt>
      <trkpt lat="42.161530" lon="-2.749727">
        <ele>1396.1</ele>
        <time>2021-07-04T12:01:09.000Z</time>
      </trkpt>
      <trkpt lat="42.161418" lon="-2.749690">
        <ele>1396.0</ele>
        <time>2021-07-04T12:01:11.000Z</time>
      </trkpt>
      <trkpt lat="42.161310" lon="-2.749647">
        <ele>1396.9</ele>
        <time>2021-07-04T12:01:13.000Z</time>
      </trkpt>
      <trkpt lat="42.161198" lon="-2.749600">
        <ele>1396.5</ele>
        <time>2021-07-04T12:01:15.000Z</time>
      </trkpt>
      <trkpt lat="42.161087" lon="-2.749548">
        <ele>1397.1</ele>
        <time>2021-07-04T12:01:17.000Z</time>
      </trkpt>
      <trkpt lat="42.160973" lon="-2.749495">
        <ele>1396.2</ele>
        <time>2021-07-04T12:01:19.000Z</time>
      </trkpt>
      <trkpt lat="42.160860" lon="-2.749445">
        <ele>1396.0</ele>
        <time>2021-07-04T12:01:21.000Z</time>
      </trkpt>
      <trkpt lat="42.160748" lon="-2.749402">
        <ele>1396.4</ele>
        <time>2021-07-04T12:01:23.000Z</time>
      </trkpt>
      <trkpt lat="42.160635" lon="-2.749350">
        <ele>1395.6</ele>
        <time>2021-07-04T12:01:25.000Z</time>
      </trkpt>
      <trkpt lat="42.160522" lon="-2.749295">
        <ele>1395.9</ele>
        <time>2021-07-04T12:01:27.000Z</time>
      </trkpt>
      <trkpt lat="42.160405" lon="-2.749240">
        <ele>1394.7</ele>
        <time>2021-07-04T12:01:29.000Z</time>
      </trkpt>
      <trkpt lat="42.160287" lon="-2.749188">
        <ele>1394.4</ele>
        <time>2021-07-04T12:01:31.000Z</time>
      </trkpt>
      <trkpt lat="42.160172" lon="-2.749133">
        <ele>1396.2</ele>
        <time>2021-07-04T12:01:33.000Z</time>
      </trkpt>
      <trkpt lat="42.160055" lon="-2.749078">
        <ele>1396.8</ele>
        <time>2021-07-04T12:01:35.000Z</time>
      </trkpt>
      <trkpt lat="42.159940" lon="-2.749023">
        <ele>1396.3</ele>
        <time>2021-07-04T12:01:37.000Z</time>
      </trkpt>
      <trkpt lat="42.159830" lon="-2.748960">
        <ele>1396.2</ele>
        <time>2021-07-04T12:01:39.000Z</time>
      </trkpt>
      <trkpt lat="42.159723" lon="-2.748892">
        <ele>1395.3</ele>
        <time>2021-07-04T12:01:41.000Z</time>
      </trkpt>
      <trkpt lat="42.159617" lon="-2.748830">
        <ele>1396.2</ele>
        <time>2021-07-04T12:01:43.000Z</time>
      </trkpt>
      <trkpt lat="42.159507" lon="-2.748768">
        <ele>1396.2</ele>
        <time>2021-07-04T12:01:45.000Z</time>
      </trkpt>
      <trkpt lat="42.159398" lon="-2.748702">
        <ele>1396.3</ele>
        <time>2021-07-04T12:01:47.000Z</time>
      </trkpt>
      <trkpt lat="42.159298" lon="-2.748622">
        <ele>1396.3</ele>
        <time>2021-07-04T12:01:49.000Z</time>
      </trkpt>
      <trkpt lat="42.159215" lon="-2.748527">
        <ele>1396.4</ele>
        <time>2021-07-04T12:01:51.000Z</time>
      </trkpt>
      <trkpt lat="42.159145" lon="-2.748425">
        <ele>1395.9</ele>
        <time>2021-07-04T12:01:53.000Z</time>
      </trkpt>
      <trkpt lat="42.159077" lon="-2.748325">
        <ele>1396.2</ele>
        <time>2021-07-04T12:01:55.000Z</time>
      </trkpt>
      <trkpt lat="42.159012" lon="-2.748222">
        <ele>1396.2</ele>
        <time>2021-07-04T12:01:57.000Z</time>
      </trkpt>
      <trkpt lat="42.158965" lon="-2.748107">
        <ele>1396.0</ele>
        <time>2021-07-04T12:01:59.000Z</time>
      </trkpt>
      <trkpt lat="42.158972" lon="-2.747985">
        <ele>1395.7</ele>
        <time>2021-07-04T12:02:01.000Z</time>
      </trkpt>
      <trkpt lat="42.159033" lon="-2.747825">
        <ele>1396.2</ele>
        <time>2021-07-04T12:02:04.000Z</time>
      </trkpt>
      <trkpt lat="42.159125" lon="-2.747695">
        <ele>1396.6</ele>
        <time>2021-07-04T12:02:07.000Z</time>
      </trkpt>
      <trkpt lat="42.159197" lon="-2.747618">
        <ele>1396.2</ele>
        <time>2021-07-04T12:02:09.000Z</time>
      </trkpt>
      <trkpt lat="42.159268" lon="-2.747535">
        <ele>1395.8</ele>
        <time>2021-07-04T12:02:11.000Z</time>
      </trkpt>
      <trkpt lat="42.159335" lon="-2.747440">
        <ele>1395.8</ele>
        <time>2021-07-04T12:02:13.000Z</time>
      </trkpt>
      <trkpt lat="42.159402" lon="-2.747340">
        <ele>1395.6</ele>
        <time>2021-07-04T12:02:15.000Z</time>
      </trkpt>
      <trkpt lat="42.159458" lon="-2.747240">
        <ele>1396.5</ele>
        <time>2021-07-04T12:02:17.000Z</time>
      </trkpt>
      <trkpt lat="42.159533" lon="-2.747098">
        <ele>1397.5</ele>
        <time>2021-07-04T12:02:20.000Z</time>
      </trkpt>
      <trkpt lat="42.159610" lon="-2.746962">
        <ele>1396.7</ele>
        <time>2021-07-04T12:02:23.000Z</time>
      </trkpt>
      <trkpt lat="42.159682" lon="-2.746828">
        <ele>1397.1</ele>
        <time>2021-07-04T12:02:26.000Z</time>
      </trkpt>
      <trkpt lat="42.159758" lon="-2.746695">
        <ele>1396.6</ele>
        <time>2021-07-04T12:02:29.000Z</time>
      </trkpt>
      <trkpt lat="42.159830" lon="-2.746552">
        <ele>1397.6</ele>
        <time>2021-07-04T12:02:32.000Z</time>
      </trkpt>
      <trkpt lat="42.159892" lon="-2.746395">
        <ele>1396.1</ele>
        <time>2021-07-04T12:02:35.000Z</time>
      </trkpt>
      <trkpt lat="42.159933" lon="-2.746285">
        <ele>1397.4</ele>
        <time>2021-07-04T12:02:37.000Z</time>
      </trkpt>
      <trkpt lat="42.159977" lon="-2.746173">
        <ele>1397.1</ele>
        <time>2021-07-04T12:02:39.000Z</time>
      </trkpt>
      <trkpt lat="42.160013" lon="-2.746058">
        <ele>1396.7</ele>
        <time>2021-07-04T12:02:41.000Z</time>
      </trkpt>
      <trkpt lat="42.160045" lon="-2.745942">
        <ele>1397.2</ele>
        <time>2021-07-04T12:02:43.000Z</time>
      </trkpt>
      <trkpt lat="42.160070" lon="-2.745822">
        <ele>1397.5</ele>
        <time>2021-07-04T12:02:45.000Z</time>
      </trkpt>
      <trkpt lat="42.160080" lon="-2.745700">
        <ele>1397.1</ele>
        <time>2021-07-04T12:02:47.000Z</time>
      </trkpt>
      <trkpt lat="42.160063" lon="-2.745522">
        <ele>1396.6</ele>
        <time>2021-07-04T12:02:50.000Z</time>
      </trkpt>
      <trkpt lat="42.160035" lon="-2.745347">
        <ele>1396.3</ele>
        <time>2021-07-04T12:02:53.000Z</time>
      </trkpt>
      <trkpt lat="42.160010" lon="-2.745177">
        <ele>1398.6</ele>
        <time>2021-07-04T12:02:56.000Z</time>
      </trkpt>
      <trkpt lat="42.160000" lon="-2.745010">
        <ele>1396.9</ele>
        <time>2021-07-04T12:02:59.000Z</time>
      </trkpt>
      <trkpt lat="42.159980" lon="-2.744850">
        <ele>1398.7</ele>
        <time>2021-07-04T12:03:02.000Z</time>
      </trkpt>
      <trkpt lat="42.159987" lon="-2.744685">
        <ele>1398.3</ele>
        <time>2021-07-04T12:03:05.000Z</time>
      </trkpt>
      <trkpt lat="42.160023" lon="-2.744522">
        <ele>1396.7</ele>
        <time>2021-07-04T12:03:08.000Z</time>
      </trkpt>
      <trkpt lat="42.160090" lon="-2.744365">
        <ele>1398.7</ele>
        <time>2021-07-04T12:03:11.000Z</time>
      </trkpt>
      <trkpt lat="42.160117" lon="-2.744240">
        <ele>1398.8</ele>
        <time>2021-07-04T12:03:13.000Z</time>
      </trkpt>
      <trkpt lat="42.160118" lon="-2.744113">
        <ele>1398.6</ele>
        <time>2021-07-04T12:03:15.000Z</time>
      </trkpt>
      <trkpt lat="42.160092" lon="-2.743935">
        <ele>1397.9</ele>
        <time>2021-07-04T12:03:18.000Z</time>
      </trkpt>
      <trkpt lat="42.160062" lon="-2.743820">
        <ele>1398.4</ele>
        <time>2021-07-04T12:03:20.000Z</time>
      </trkpt>
      <trkpt lat="42.160008" lon="-2.743720">
        <ele>1398.8</ele>
        <time>2021-07-04T12:03:22.000Z</time>
      </trkpt>
      <trkpt lat="42.159927" lon="-2.743588">
        <ele>1399.5</ele>
        <time>2021-07-04T12:03:25.000Z</time>
      </trkpt>
      <trkpt lat="42.159840" lon="-2.743468">
        <ele>1399.0</ele>
        <time>2021-07-04T12:03:28.000Z</time>
      </trkpt>
      <trkpt lat="42.159753" lon="-2.743343">
        <ele>1398.6</ele>
        <time>2021-07-04T12:03:31.000Z</time>
      </trkpt>
      <trkpt lat="42.159668" lon="-2.743220">
        <ele>1399.5</ele>
        <time>2021-07-04T12:03:34.000Z</time>
      </trkpt>
      <trkpt lat="42.159583" lon="-2.743105">
        <ele>1399.6</ele>
        <time>2021-07-04T12:03:37.000Z</time>
      </trkpt>
      <trkpt lat="42.159488" lon="-2.742990">
        <ele>1399.9</ele>
        <time>2021-07-04T12:03:40.000Z</time>
      </trkpt>
      <trkpt lat="42.159443" lon="-2.742837">
        <ele>1399.3</ele>
        <time>2021-07-04T12:03:43.000Z</time>
      </trkpt>
      <trkpt lat="42.159468" lon="-2.742670">
        <ele>1399.7</ele>
        <time>2021-07-04T12:03:46.000Z</time>
      </trkpt>
      <trkpt lat="42.159518" lon="-2.742507">
        <ele>1400.0</ele>
        <time>2021-07-04T12:03:49.000Z</time>
      </trkpt>
      <trkpt lat="42.159568" lon="-2.742402">
        <ele>1399.8</ele>
        <time>2021-07-04T12:03:51.000Z</time>
      </trkpt>
      <trkpt lat="42.159625" lon="-2.742303">
        <ele>1399.5</ele>
        <time>2021-07-04T12:03:53.000Z</time>
      </trkpt>
      <trkpt lat="42.159712" lon="-2.742172">
        <ele>1399.0</ele>
        <time>2021-07-04T12:03:56.000Z</time>
      </trkpt>
      <trkpt lat="42.159795" lon="-2.742033">
        <ele>1399.4</ele>
        <time>2021-07-04T12:03:59.000Z</time>
      </trkpt>
      <trkpt lat="42.159862" lon="-2.741882">
        <ele>1399.9</ele>
        <time>2021-07-04T12:04:02.000Z</time>
      </trkpt>
      <trkpt lat="42.159915" lon="-2.741720">
        <ele>1400.3</ele>
        <time>2021-07-04T12:04:05.000Z</time>
      </trkpt>
      <trkpt lat="42.159960" lon="-2.741550">
        <ele>1400.5</ele>
        <time>2021-07-04T12:04:08.000Z</time>
      </trkpt>
      <trkpt lat="42.159990" lon="-2.741377">
        <ele>1400.8</ele>
        <time>2021-07-04T12:04:11.000Z</time>
      </trkpt>
      <trkpt lat="42.160015" lon="-2.741198">
        <ele>1399.6</ele>
        <time>2021-07-04T12:04:14.000Z</time>
      </trkpt>
      <trkpt lat="42.160030" lon="-2.741078">
        <ele>1399.1</ele>
        <time>2021-07-04T12:04:16.000Z</time>
      </trkpt>
      <trkpt lat="42.160053" lon="-2.740903">
        <ele>1398.9</ele>
        <time>2021-07-04T12:04:19.000Z</time>
      </trkpt>
      <trkpt lat="42.160077" lon="-2.740727">
        <ele>1399.0</ele>
        <time>2021-07-04T12:04:22.000Z</time>
      </trkpt>
      <trkpt lat="42.160068" lon="-2.740547">
        <ele>1399.8</ele>
        <time>2021-07-04T12:04:25.000Z</time>
      </trkpt>
      <trkpt lat="42.160028" lon="-2.740373">
        <ele>1399.0</ele>
        <time>2021-07-04T12:04:28.000Z</time>
      </trkpt>
      <trkpt lat="42.159985" lon="-2.740205">
        <ele>1399.9</ele>
        <time>2021-07-04T12:04:31.000Z</time>
      </trkpt>
      <trkpt lat="42.159967" lon="-2.740037">
        <ele>1399.6</ele>
        <time>2021-07-04T12:04:34.000Z</time>
      </trkpt>
      <trkpt lat="42.159973" lon="-2.739863">
        <ele>1400.1</ele>
        <time>2021-07-04T12:04:37.000Z</time>
      </trkpt>
      <trkpt lat="42.160032" lon="-2.739703">
        <ele>1399.9</ele>
        <time>2021-07-04T12:04:40.000Z</time>
      </trkpt>
      <trkpt lat="42.160132" lon="-2.739593">
        <ele>1400.2</ele>
        <time>2021-07-04T12:04:43.000Z</time>
      </trkpt>
      <trkpt lat="42.160248" lon="-2.739512">
        <ele>1401.3</ele>
        <time>2021-07-04T12:04:46.000Z</time>
      </trkpt>
      <trkpt lat="42.160353" lon="-2.739417">
        <ele>1402.4</ele>
        <time>2021-07-04T12:04:49.000Z</time>
      </trkpt>
      <trkpt lat="42.160448" lon="-2.739322">
        <ele>1402.1</ele>
        <time>2021-07-04T12:04:52.000Z</time>
      </trkpt>
      <trkpt lat="42.160530" lon="-2.739220">
        <ele>1401.0</ele>
        <time>2021-07-04T12:04:55.000Z</time>
      </trkpt>
      <trkpt lat="42.160612" lon="-2.739110">
        <ele>1400.2</ele>
        <time>2021-07-04T12:04:58.000Z</time>
      </trkpt>
      <trkpt lat="42.160678" lon="-2.738980">
        <ele>1400.6</ele>
        <time>2021-07-04T12:05:01.000Z</time>
      </trkpt>
      <trkpt lat="42.160743" lon="-2.738847">
        <ele>1400.8</ele>
        <time>2021-07-04T12:05:04.000Z</time>
      </trkpt>
      <trkpt lat="42.160803" lon="-2.738710">
        <ele>1401.1</ele>
        <time>2021-07-04T12:05:07.000Z</time>
      </trkpt>
      <trkpt lat="42.160853" lon="-2.738565">
        <ele>1401.4</ele>
        <time>2021-07-04T12:05:10.000Z</time>
      </trkpt>
      <trkpt lat="42.160895" lon="-2.738412">
        <ele>1401.5</ele>
        <time>2021-07-04T12:05:13.000Z</time>
      </trkpt>
      <trkpt lat="42.160935" lon="-2.738250">
        <ele>1402.2</ele>
        <time>2021-07-04T12:05:16.000Z</time>
      </trkpt>
      <trkpt lat="42.160967" lon="-2.738093">
        <ele>1402.2</ele>
        <time>2021-07-04T12:05:19.000Z</time>
      </trkpt>
      <trkpt lat="42.161002" lon="-2.737938">
        <ele>1401.8</ele>
        <time>2021-07-04T12:05:22.000Z</time>
      </trkpt>
      <trkpt lat="42.161048" lon="-2.737787">
        <ele>1402.3</ele>
        <time>2021-07-04T12:05:25.000Z</time>
      </trkpt>
      <trkpt lat="42.161127" lon="-2.737652">
        <ele>1402.8</ele>
        <time>2021-07-04T12:05:28.000Z</time>
      </trkpt>
      <trkpt lat="42.161225" lon="-2.737538">
        <ele>1403.2</ele>
        <time>2021-07-04T12:05:31.000Z</time>
      </trkpt>
      <trkpt lat="42.161330" lon="-2.737437">
        <ele>1402.9</ele>
        <time>2021-07-04T12:05:34.000Z</time>
      </trkpt>
      <trkpt lat="42.161437" lon="-2.737340">
        <ele>1403.6</ele>
        <time>2021-07-04T12:05:37.000Z</time>
      </trkpt>
      <trkpt lat="42.161540" lon="-2.737237">
        <ele>1404.0</ele>
        <time>2021-07-04T12:05:40.000Z</time>
      </trkpt>
      <trkpt lat="42.161612" lon="-2.737160">
        <ele>1403.9</ele>
        <time>2021-07-04T12:05:42.000Z</time>
      </trkpt>
      <trkpt lat="42.161680" lon="-2.737072">
        <ele>1403.9</ele>
        <time>2021-07-04T12:05:44.000Z</time>
      </trkpt>
      <trkpt lat="42.161743" lon="-2.736972">
        <ele>1403.5</ele>
        <time>2021-07-04T12:05:46.000Z</time>
      </trkpt>
      <trkpt lat="42.161808" lon="-2.736878">
        <ele>1404.0</ele>
        <time>2021-07-04T12:05:48.000Z</time>
      </trkpt>
      <trkpt lat="42.161882" lon="-2.736792">
        <ele>1403.8</ele>
        <time>2021-07-04T12:05:50.000Z</time>
      </trkpt>
      <trkpt lat="42.161948" lon="-2.736700">
        <ele>1403.7</ele>
        <time>2021-07-04T12:05:52.000Z</time>
      </trkpt>
      <trkpt lat="42.162022" lon="-2.736607">
        <ele>1403.5</ele>
        <time>2021-07-04T12:05:54.000Z</time>
      </trkpt>
      <trkpt lat="42.162098" lon="-2.736523">
        <ele>1403.6</ele>
        <time>2021-07-04T12:05:56.000Z</time>
      </trkpt>
      <trkpt lat="42.162177" lon="-2.736442">
        <ele>1403.8</ele>
        <time>2021-07-04T12:05:58.000Z</time>
      </trkpt>
      <trkpt lat="42.162253" lon="-2.736357">
        <ele>1403.8</ele>
        <time>2021-07-04T12:06:00.000Z</time>
      </trkpt>
      <trkpt lat="42.162323" lon="-2.736258">
        <ele>1403.6</ele>
        <time>2021-07-04T12:06:02.000Z</time>
      </trkpt>
      <trkpt lat="42.162385" lon="-2.736160">
        <ele>1403.8</ele>
        <time>2021-07-04T12:06:04.000Z</time>
      </trkpt>
      <trkpt lat="42.162470" lon="-2.736030">
        <ele>1404.0</ele>
        <time>2021-07-04T12:06:07.000Z</time>
      </trkpt>
      <trkpt lat="42.162557" lon="-2.735912">
        <ele>1403.7</ele>
        <time>2021-07-04T12:06:10.000Z</time>
      </trkpt>
      <trkpt lat="42.162640" lon="-2.735808">
        <ele>1404.1</ele>
        <time>2021-07-04T12:06:13.000Z</time>
      </trkpt>
      <trkpt lat="42.162730" lon="-2.735708">
        <ele>1402.7</ele>
        <time>2021-07-04T12:06:16.000Z</time>
      </trkpt>
      <trkpt lat="42.162825" lon="-2.735613">
        <ele>1403.4</ele>
        <time>2021-07-04T12:06:19.000Z</time>
      </trkpt>
      <trkpt lat="42.162930" lon="-2.735533">
        <ele>1403.7</ele>
        <time>2021-07-04T12:06:22.000Z</time>
      </trkpt>
      <trkpt lat="42.163058" lon="-2.735500">
        <ele>1403.2</ele>
        <time>2021-07-04T12:06:25.000Z</time>
      </trkpt>
      <trkpt lat="42.163185" lon="-2.735532">
        <ele>1402.5</ele>
        <time>2021-07-04T12:06:28.000Z</time>
      </trkpt>
      <trkpt lat="42.163270" lon="-2.735535">
        <ele>1401.5</ele>
        <time>2021-07-04T12:06:34.000Z</time>
      </trkpt>
      <trkpt lat="42.163270" lon="-2.735532">
        <ele>1401.4</ele>
        <time>2021-07-04T12:06:35.000Z</time>
      </trkpt>
      <trkpt lat="42.163248" lon="-2.735502">
        <ele>1400.7</ele>
        <time>2021-07-04T12:06:53.000Z</time>
      </trkpt>
      <trkpt lat="42.163247" lon="-2.735502">
        <ele>1400.4</ele>
        <time>2021-07-04T12:07:08.000Z</time>
      </trkpt>
      <trkpt lat="42.163247" lon="-2.735502">
        <ele>1400.6</ele>
        <time>2021-07-04T12:07:09.000Z</time>
      </trkpt>
      <trkpt lat="42.163245" lon="-2.735502">
        <ele>1400.4</ele>
        <time>2021-07-04T12:08:11.000Z</time>
      </trkpt>
      <trkpt lat="42.163245" lon="-2.735502">
        <ele>1400.3</ele>
        <time>2021-07-04T12:08:12.000Z</time>
      </trkpt>
      <trkpt lat="42.163250" lon="-2.735505">
        <ele>1399.6</ele>
        <time>2021-07-04T12:10:14.000Z</time>
      </trkpt>
      <trkpt lat="42.163257" lon="-2.735507">
        <ele>1400.4</ele>
        <time>2021-07-04T12:10:16.000Z</time>
      </trkpt>
      <trkpt lat="42.163260" lon="-2.735513">
        <ele>1401.1</ele>
        <time>2021-07-04T12:10:17.000Z</time>
      </trkpt>
      <trkpt lat="42.163277" lon="-2.735575">
        <ele>1401.5</ele>
        <time>2021-07-04T12:10:26.000Z</time>
      </trkpt>
      <trkpt lat="42.163275" lon="-2.735577">
        <ele>1401.6</ele>
        <time>2021-07-04T12:10:38.000Z</time>
      </trkpt>
      <trkpt lat="42.163275" lon="-2.735577">
        <ele>1401.7</ele>
        <time>2021-07-04T12:10:39.000Z</time>
      </trkpt>
      <trkpt lat="42.163277" lon="-2.735578">
        <ele>1401.8</ele>
        <time>2021-07-04T12:10:40.000Z</time>
      </trkpt>
      <trkpt lat="42.163277" lon="-2.735578">
        <ele>1401.7</ele>
        <time>2021-07-04T12:10:41.000Z</time>
      </trkpt>
      <trkpt lat="42.163282" lon="-2.735582">
        <ele>1401.4</ele>
        <time>2021-07-04T12:10:50.000Z</time>
      </trkpt>
      <trkpt lat="42.163372" lon="-2.735623">
        <ele>1401.7</ele>
        <time>2021-07-04T12:10:57.000Z</time>
      </trkpt>
      <trkpt lat="42.163473" lon="-2.735567">
        <ele>1401.3</ele>
        <time>2021-07-04T12:11:02.000Z</time>
      </trkpt>
      <trkpt lat="42.163552" lon="-2.735482">
        <ele>1401.5</ele>
        <time>2021-07-04T12:11:07.000Z</time>
      </trkpt>
      <trkpt lat="42.163580" lon="-2.735348">
        <ele>1401.1</ele>
        <time>2021-07-04T12:11:11.000Z</time>
      </trkpt>
      <trkpt lat="42.163520" lon="-2.735223">
        <ele>1401.5</ele>
        <time>2021-07-04T12:11:14.000Z</time>
      </trkpt>
      <trkpt lat="42.163437" lon="-2.735130">
        <ele>1400.3</ele>
        <time>2021-07-04T12:11:16.000Z</time>
      </trkpt>
      <trkpt lat="42.163347" lon="-2.735032">
        <ele>1399.5</ele>
        <time>2021-07-04T12:11:18.000Z</time>
      </trkpt>
      <trkpt lat="42.163253" lon="-2.734935">
        <ele>1398.8</ele>
        <time>2021-07-04T12:11:20.000Z</time>
      </trkpt>
      <trkpt lat="42.163152" lon="-2.734840">
        <ele>1397.6</ele>
        <time>2021-07-04T12:11:22.000Z</time>
      </trkpt>
      <trkpt lat="42.163042" lon="-2.734752">
        <ele>1396.5</ele>
        <time>2021-07-04T12:11:24.000Z</time>
      </trkpt>
      <trkpt lat="42.162912" lon="-2.734680">
        <ele>1396.6</ele>
        <time>2021-07-04T12:11:26.000Z</time>
      </trkpt>
      <trkpt lat="42.162760" lon="-2.734622">
        <ele>1396.6</ele>
        <time>2021-07-04T12:11:28.000Z</time>
      </trkpt>
      <trkpt lat="42.162602" lon="-2.734608">
        <ele>1395.8</ele>
        <time>2021-07-04T12:11:30.000Z</time>
      </trkpt>
      <trkpt lat="42.162460" lon="-2.734602">
        <ele>1395.2</ele>
        <time>2021-07-04T12:11:32.000Z</time>
      </trkpt>
      <trkpt lat="42.162362" lon="-2.734557">
        <ele>1393.5</ele>
        <time>2021-07-04T12:11:34.000Z</time>
      </trkpt>
      <trkpt lat="42.162332" lon="-2.734442">
        <ele>1393.0</ele>
        <time>2021-07-04T12:11:36.000Z</time>
      </trkpt>
      <trkpt lat="42.162443" lon="-2.734340">
        <ele>1392.1</ele>
        <time>2021-07-04T12:11:38.000Z</time>
      </trkpt>
      <trkpt lat="42.162577" lon="-2.734370">
        <ele>1391.3</ele>
        <time>2021-07-04T12:11:40.000Z</time>
      </trkpt>
      <trkpt lat="42.162713" lon="-2.734443">
        <ele>1388.3</ele>
        <time>2021-07-04T12:11:42.000Z</time>
      </trkpt>
      <trkpt lat="42.162863" lon="-2.734493">
        <ele>1387.2</ele>
        <time>2021-07-04T12:11:44.000Z</time>
      </trkpt>
      <trkpt lat="42.163022" lon="-2.734532">
        <ele>1386.5</ele>
        <time>2021-07-04T12:11:46.000Z</time>
      </trkpt>
      <trkpt lat="42.163173" lon="-2.734560">
        <ele>1386.1</ele>
        <time>2021-07-04T12:11:48.000Z</time>
      </trkpt>
      <trkpt lat="42.163328" lon="-2.734580">
        <ele>1385.0</ele>
        <time>2021-07-04T12:11:50.000Z</time>
      </trkpt>
      <trkpt lat="42.163468" lon="-2.734598">
        <ele>1384.2</ele>
        <time>2021-07-04T12:11:52.000Z</time>
      </trkpt>
      <trkpt lat="42.163613" lon="-2.734612">
        <ele>1383.7</ele>
        <time>2021-07-04T12:11:54.000Z</time>
      </trkpt>
      <trkpt lat="42.163758" lon="-2.734612">
        <ele>1383.9</ele>
        <time>2021-07-04T12:11:56.000Z</time>
      </trkpt>
      <trkpt lat="42.163898" lon="-2.734597">
        <ele>1384.1</ele>
        <time>2021-07-04T12:11:58.000Z</time>
      </trkpt>
      <trkpt lat="42.164033" lon="-2.734542">
        <ele>1381.1</ele>
        <time>2021-07-04T12:12:00.000Z</time>
      </trkpt>
      <trkpt lat="42.164172" lon="-2.734452">
        <ele>1378.5</ele>
        <time>2021-07-04T12:12:02.000Z</time>
      </trkpt>
      <trkpt lat="42.164313" lon="-2.734342">
        <ele>1379.2</ele>
        <time>2021-07-04T12:12:04.000Z</time>
      </trkpt>
      <trkpt lat="42.164393" lon="-2.734285">
        <ele>1378.2</ele>
        <time>2021-07-04T12:12:05.000Z</time>
      </trkpt>
      <trkpt lat="42.164485" lon="-2.734227">
        <ele>1376.6</ele>
        <time>2021-07-04T12:12:06.000Z</time>
      </trkpt>
      <trkpt lat="42.164568" lon="-2.734170">
        <ele>1376.7</ele>
        <time>2021-07-04T12:12:07.000Z</time>
      </trkpt>
      <trkpt lat="42.164713" lon="-2.734092">
        <ele>1376.7</ele>
        <time>2021-07-04T12:12:09.000Z</time>
      </trkpt>
      <trkpt lat="42.164842" lon="-2.734073">
        <ele>1377.2</ele>
        <time>2021-07-04T12:12:11.000Z</time>
      </trkpt>
      <trkpt lat="42.164972" lon="-2.734117">
        <ele>1375.6</ele>
        <time>2021-07-04T12:12:13.000Z</time>
      </trkpt>
      <trkpt lat="42.165075" lon="-2.734127">
        <ele>1374.6</ele>
        <time>2021-07-04T12:12:15.000Z</time>
      </trkpt>
      <trkpt lat="42.165122" lon="-2.734018">
        <ele>1373.4</ele>
        <time>2021-07-04T12:12:17.000Z</time>
      </trkpt>
      <trkpt lat="42.165048" lon="-2.733880">
        <ele>1372.2</ele>
        <time>2021-07-04T12:12:19.000Z</time>
      </trkpt>
      <trkpt lat="42.164958" lon="-2.733835">
        <ele>1371.6</ele>
        <time>2021-07-04T12:12:20.000Z</time>
      </trkpt>
      <trkpt lat="42.164793" lon="-2.733773">
        <ele>1371.0</ele>
        <time>2021-07-04T12:12:22.000Z</time>
      </trkpt>
      <trkpt lat="42.164632" lon="-2.733775">
        <ele>1368.2</ele>
        <time>2021-07-04T12:12:24.000Z</time>
      </trkpt>
      <trkpt lat="42.164473" lon="-2.733810">
        <ele>1367.5</ele>
        <time>2021-07-04T12:12:26.000Z</time>
      </trkpt>
      <trkpt lat="42.164313" lon="-2.733848">
        <ele>1366.5</ele>
        <time>2021-07-04T12:12:28.000Z</time>
      </trkpt>
      <trkpt lat="42.164145" lon="-2.733863">
        <ele>1367.3</ele>
        <time>2021-07-04T12:12:30.000Z</time>
      </trkpt>
      <trkpt lat="42.163975" lon="-2.733857">
        <ele>1366.0</ele>
        <time>2021-07-04T12:12:32.000Z</time>
      </trkpt>
      <trkpt lat="42.163802" lon="-2.733827">
        <ele>1363.5</ele>
        <time>2021-07-04T12:12:34.000Z</time>
      </trkpt>
      <trkpt lat="42.163632" lon="-2.733815">
        <ele>1362.2</ele>
        <time>2021-07-04T12:12:36.000Z</time>
      </trkpt>
      <trkpt lat="42.163462" lon="-2.733822">
        <ele>1360.2</ele>
        <time>2021-07-04T12:12:38.000Z</time>
      </trkpt>
      <trkpt lat="42.163300" lon="-2.733818">
        <ele>1362.8</ele>
        <time>2021-07-04T12:12:40.000Z</time>
      </trkpt>
      <trkpt lat="42.163142" lon="-2.733805">
        <ele>1362.6</ele>
        <time>2021-07-04T12:12:42.000Z</time>
      </trkpt>
      <trkpt lat="42.162988" lon="-2.733835">
        <ele>1360.0</ele>
        <time>2021-07-04T12:12:44.000Z</time>
      </trkpt>
      <trkpt lat="42.162857" lon="-2.733887">
        <ele>1359.0</ele>
        <time>2021-07-04T12:12:46.000Z</time>
      </trkpt>
      <trkpt lat="42.162757" lon="-2.733860">
        <ele>1357.7</ele>
        <time>2021-07-04T12:12:48.000Z</time>
      </trkpt>
      <trkpt lat="42.162722" lon="-2.733735">
        <ele>1356.9</ele>
        <time>2021-07-04T12:12:50.000Z</time>
      </trkpt>
      <trkpt lat="42.162788" lon="-2.733603">
        <ele>1357.1</ele>
        <time>2021-07-04T12:12:52.000Z</time>
      </trkpt>
      <trkpt lat="42.162912" lon="-2.733553">
        <ele>1355.5</ele>
        <time>2021-07-04T12:12:54.000Z</time>
      </trkpt>
      <trkpt lat="42.163045" lon="-2.733558">
        <ele>1353.5</ele>
        <time>2021-07-04T12:12:56.000Z</time>
      </trkpt>
      <trkpt lat="42.163190" lon="-2.733560">
        <ele>1354.3</ele>
        <time>2021-07-04T12:12:58.000Z</time>
      </trkpt>
      <trkpt lat="42.163353" lon="-2.733520">
        <ele>1351.0</ele>
        <time>2021-07-04T12:13:00.000Z</time>
      </trkpt>
      <trkpt lat="42.163442" lon="-2.733492">
        <ele>1350.9</ele>
        <time>2021-07-04T12:13:01.000Z</time>
      </trkpt>
      <trkpt lat="42.163532" lon="-2.733462">
        <ele>1350.7</ele>
        <time>2021-07-04T12:13:02.000Z</time>
      </trkpt>
      <trkpt lat="42.163620" lon="-2.733427">
        <ele>1351.1</ele>
        <time>2021-07-04T12:13:03.000Z</time>
      </trkpt>
      <trkpt lat="42.163788" lon="-2.733358">
        <ele>1349.9</ele>
        <time>2021-07-04T12:13:05.000Z</time>
      </trkpt>
      <trkpt lat="42.163940" lon="-2.733278">
        <ele>1347.6</ele>
        <time>2021-07-04T12:13:07.000Z</time>
      </trkpt>
      <trkpt lat="42.164077" lon="-2.733172">
        <ele>1347.0</ele>
        <time>2021-07-04T12:13:09.000Z</time>
      </trkpt>
      <trkpt lat="42.164195" lon="-2.733037">
        <ele>1347.4</ele>
        <time>2021-07-04T12:13:11.000Z</time>
      </trkpt>
      <trkpt lat="42.164282" lon="-2.732867">
        <ele>1346.1</ele>
        <time>2021-07-04T12:13:13.000Z</time>
      </trkpt>
      <trkpt lat="42.164337" lon="-2.732677">
        <ele>1345.4</ele>
        <time>2021-07-04T12:13:15.000Z</time>
      </trkpt>
      <trkpt lat="42.164385" lon="-2.732487">
        <ele>1344.1</ele>
        <time>2021-07-04T12:13:17.000Z</time>
      </trkpt>
      <trkpt lat="42.164450" lon="-2.732325">
        <ele>1342.1</ele>
        <time>2021-07-04T12:13:19.000Z</time>
      </trkpt>
      <trkpt lat="42.164542" lon="-2.732205">
        <ele>1340.7</ele>
        <time>2021-07-04T12:13:21.000Z</time>
      </trkpt>
      <trkpt lat="42.164660" lon="-2.732152">
        <ele>1339.9</ele>
        <time>2021-07-04T12:13:23.000Z</time>
      </trkpt>
      <trkpt lat="42.164788" lon="-2.732163">
        <ele>1337.0</ele>
        <time>2021-07-04T12:13:25.000Z</time>
      </trkpt>
      <trkpt lat="42.164905" lon="-2.732178">
        <ele>1337.6</ele>
        <time>2021-07-04T12:13:27.000Z</time>
      </trkpt>
      <trkpt lat="42.164982" lon="-2.732093">
        <ele>1336.5</ele>
        <time>2021-07-04T12:13:29.000Z</time>
      </trkpt>
      <trkpt lat="42.164937" lon="-2.731968">
        <ele>1335.5</ele>
        <time>2021-07-04T12:13:31.000Z</time>
      </trkpt>
      <trkpt lat="42.164800" lon="-2.731915">
        <ele>1335.0</ele>
        <time>2021-07-04T12:13:33.000Z</time>
      </trkpt>
      <trkpt lat="42.164655" lon="-2.731907">
        <ele>1333.8</ele>
        <time>2021-07-04T12:13:35.000Z</time>
      </trkpt>
      <trkpt lat="42.164517" lon="-2.731917">
        <ele>1333.3</ele>
        <time>2021-07-04T12:13:37.000Z</time>
      </trkpt>
      <trkpt lat="42.164378" lon="-2.731963">
        <ele>1332.0</ele>
        <time>2021-07-04T12:13:39.000Z</time>
      </trkpt>
      <trkpt lat="42.164243" lon="-2.732020">
        <ele>1331.7</ele>
        <time>2021-07-04T12:13:41.000Z</time>
      </trkpt>
      <trkpt lat="42.164107" lon="-2.732072">
        <ele>1332.1</ele>
        <time>2021-07-04T12:13:43.000Z</time>
      </trkpt>
      <trkpt lat="42.163968" lon="-2.732123">
        <ele>1331.2</ele>
        <time>2021-07-04T12:13:45.000Z</time>
      </trkpt>
      <trkpt lat="42.163833" lon="-2.732165">
        <ele>1331.6</ele>
        <time>2021-07-04T12:13:47.000Z</time>
      </trkpt>
      <trkpt lat="42.163698" lon="-2.732202">
        <ele>1329.9</ele>
        <time>2021-07-04T12:13:49.000Z</time>
      </trkpt>
      <trkpt lat="42.163560" lon="-2.732197">
        <ele>1330.1</ele>
        <time>2021-07-04T12:13:51.000Z</time>
      </trkpt>
      <trkpt lat="42.163427" lon="-2.732150">
        <ele>1328.9</ele>
        <time>2021-07-04T12:13:53.000Z</time>
      </trkpt>
      <trkpt lat="42.163297" lon="-2.732117">
        <ele>1327.7</ele>
        <time>2021-07-04T12:13:55.000Z</time>
      </trkpt>
      <trkpt lat="42.163162" lon="-2.732142">
        <ele>1326.6</ele>
        <time>2021-07-04T12:13:57.000Z</time>
      </trkpt>
      <trkpt lat="42.163032" lon="-2.732195">
        <ele>1325.9</ele>
        <time>2021-07-04T12:13:59.000Z</time>
      </trkpt>
      <trkpt lat="42.162915" lon="-2.732187">
        <ele>1325.6</ele>
        <time>2021-07-04T12:14:01.000Z</time>
      </trkpt>
      <trkpt lat="42.162842" lon="-2.732070">
        <ele>1324.2</ele>
        <time>2021-07-04T12:14:03.000Z</time>
      </trkpt>
      <trkpt lat="42.162878" lon="-2.731917">
        <ele>1323.5</ele>
        <time>2021-07-04T12:14:05.000Z</time>
      </trkpt>
      <trkpt lat="42.163003" lon="-2.731823">
        <ele>1322.3</ele>
        <time>2021-07-04T12:14:07.000Z</time>
      </trkpt>
      <trkpt lat="42.163145" lon="-2.731767">
        <ele>1321.9</ele>
        <time>2021-07-04T12:14:09.000Z</time>
      </trkpt>
      <trkpt lat="42.163302" lon="-2.731703">
        <ele>1320.9</ele>
        <time>2021-07-04T12:14:11.000Z</time>
      </trkpt>
      <trkpt lat="42.163463" lon="-2.731615">
        <ele>1320.3</ele>
        <time>2021-07-04T12:14:13.000Z</time>
      </trkpt>
      <trkpt lat="42.163547" lon="-2.731565">
        <ele>1319.5</ele>
        <time>2021-07-04T12:14:14.000Z</time>
      </trkpt>
      <trkpt lat="42.163628" lon="-2.731513">
        <ele>1318.8</ele>
        <time>2021-07-04T12:14:15.000Z</time>
      </trkpt>
      <trkpt lat="42.163712" lon="-2.731465">
        <ele>1318.1</ele>
        <time>2021-07-04T12:14:16.000Z</time>
      </trkpt>
      <trkpt lat="42.163875" lon="-2.731373">
        <ele>1318.1</ele>
        <time>2021-07-04T12:14:18.000Z</time>
      </trkpt>
      <trkpt lat="42.164037" lon="-2.731278">
        <ele>1315.7</ele>
        <time>2021-07-04T12:14:20.000Z</time>
      </trkpt>
      <trkpt lat="42.164192" lon="-2.731180">
        <ele>1314.5</ele>
        <time>2021-07-04T12:14:22.000Z</time>
      </trkpt>
      <trkpt lat="42.164320" lon="-2.731052">
        <ele>1312.6</ele>
        <time>2021-07-04T12:14:24.000Z</time>
      </trkpt>
      <trkpt lat="42.164422" lon="-2.730885">
        <ele>1311.9</ele>
        <time>2021-07-04T12:14:26.000Z</time>
      </trkpt>
      <trkpt lat="42.164512" lon="-2.730695">
        <ele>1311.1</ele>
        <time>2021-07-04T12:14:28.000Z</time>
      </trkpt>
      <trkpt lat="42.164603" lon="-2.730498">
        <ele>1310.5</ele>
        <time>2021-07-04T12:14:30.000Z</time>
      </trkpt>
      <trkpt lat="42.164688" lon="-2.730297">
        <ele>1308.6</ele>
        <time>2021-07-04T12:14:32.000Z</time>
      </trkpt>
      <trkpt lat="42.164782" lon="-2.730102">
        <ele>1306.9</ele>
        <time>2021-07-04T12:14:34.000Z</time>
      </trkpt>
      <trkpt lat="42.164888" lon="-2.729917">
        <ele>1307.1</ele>
        <time>2021-07-04T12:14:36.000Z</time>
      </trkpt>
      <trkpt lat="42.164997" lon="-2.729738">
        <ele>1306.0</ele>
        <time>2021-07-04T12:14:38.000Z</time>
      </trkpt>
      <trkpt lat="42.165065" lon="-2.729545">
        <ele>1306.3</ele>
        <time>2021-07-04T12:14:40.000Z</time>
      </trkpt>
      <trkpt lat="42.165072" lon="-2.729330">
        <ele>1304.2</ele>
        <time>2021-07-04T12:14:42.000Z</time>
      </trkpt>
      <trkpt lat="42.165043" lon="-2.729108">
        <ele>1304.1</ele>
        <time>2021-07-04T12:14:44.000Z</time>
      </trkpt>
      <trkpt lat="42.165000" lon="-2.728887">
        <ele>1304.0</ele>
        <time>2021-07-04T12:14:46.000Z</time>
      </trkpt>
      <trkpt lat="42.164957" lon="-2.728665">
        <ele>1303.6</ele>
        <time>2021-07-04T12:14:48.000Z</time>
      </trkpt>
      <trkpt lat="42.164913" lon="-2.728437">
        <ele>1303.7</ele>
        <time>2021-07-04T12:14:50.000Z</time>
      </trkpt>
      <trkpt lat="42.164872" lon="-2.728207">
        <ele>1301.7</ele>
        <time>2021-07-04T12:14:52.000Z</time>
      </trkpt>
      <trkpt lat="42.164847" lon="-2.727978">
        <ele>1301.0</ele>
        <time>2021-07-04T12:14:54.000Z</time>
      </trkpt>
      <trkpt lat="42.164850" lon="-2.727765">
        <ele>1300.3</ele>
        <time>2021-07-04T12:14:56.000Z</time>
      </trkpt>
      <trkpt lat="42.164877" lon="-2.727572">
        <ele>1299.1</ele>
        <time>2021-07-04T12:14:58.000Z</time>
      </trkpt>
      <trkpt lat="42.164950" lon="-2.727393">
        <ele>1298.7</ele>
        <time>2021-07-04T12:15:00.000Z</time>
      </trkpt>
      <trkpt lat="42.165005" lon="-2.727233">
        <ele>1296.2</ele>
        <time>2021-07-04T12:15:02.000Z</time>
      </trkpt>
      <trkpt lat="42.164977" lon="-2.727115">
        <ele>1295.8</ele>
        <time>2021-07-04T12:15:04.000Z</time>
      </trkpt>
      <trkpt lat="42.164865" lon="-2.727107">
        <ele>1295.5</ele>
        <time>2021-07-04T12:15:06.000Z</time>
      </trkpt>
      <trkpt lat="42.164792" lon="-2.727223">
        <ele>1294.1</ele>
        <time>2021-07-04T12:15:08.000Z</time>
      </trkpt>
      <trkpt lat="42.164742" lon="-2.727372">
        <ele>1294.0</ele>
        <time>2021-07-04T12:15:10.000Z</time>
      </trkpt>
      <trkpt lat="42.164688" lon="-2.727530">
        <ele>1295.1</ele>
        <time>2021-07-04T12:15:12.000Z</time>
      </trkpt>
      <trkpt lat="42.164642" lon="-2.727702">
        <ele>1293.1</ele>
        <time>2021-07-04T12:15:14.000Z</time>
      </trkpt>
      <trkpt lat="42.164597" lon="-2.727885">
        <ele>1292.3</ele>
        <time>2021-07-04T12:15:16.000Z</time>
      </trkpt>
      <trkpt lat="42.164563" lon="-2.728080">
        <ele>1293.0</ele>
        <time>2021-07-04T12:15:18.000Z</time>
      </trkpt>
      <trkpt lat="42.164535" lon="-2.728278">
        <ele>1291.5</ele>
        <time>2021-07-04T12:15:20.000Z</time>
      </trkpt>
      <trkpt lat="42.164512" lon="-2.728475">
        <ele>1291.0</ele>
        <time>2021-07-04T12:15:22.000Z</time>
      </trkpt>
      <trkpt lat="42.164488" lon="-2.728667">
        <ele>1288.9</ele>
        <time>2021-07-04T12:15:24.000Z</time>
      </trkpt>
      <trkpt lat="42.164452" lon="-2.728853">
        <ele>1290.1</ele>
        <time>2021-07-04T12:15:26.000Z</time>
      </trkpt>
      <trkpt lat="42.164400" lon="-2.729038">
        <ele>1289.3</ele>
        <time>2021-07-04T12:15:28.000Z</time>
      </trkpt>
      <trkpt lat="42.164338" lon="-2.729220">
        <ele>1288.6</ele>
        <time>2021-07-04T12:15:30.000Z</time>
      </trkpt>
      <trkpt lat="42.164263" lon="-2.729385">
        <ele>1289.6</ele>
        <time>2021-07-04T12:15:32.000Z</time>
      </trkpt>
      <trkpt lat="42.164177" lon="-2.729535">
        <ele>1289.4</ele>
        <time>2021-07-04T12:15:34.000Z</time>
      </trkpt>
      <trkpt lat="42.164080" lon="-2.729677">
        <ele>1288.9</ele>
        <time>2021-07-04T12:15:36.000Z</time>
      </trkpt>
      <trkpt lat="42.163977" lon="-2.729812">
        <ele>1288.6</ele>
        <time>2021-07-04T12:15:38.000Z</time>
      </trkpt>
      <trkpt lat="42.163877" lon="-2.729943">
        <ele>1287.9</ele>
        <time>2021-07-04T12:15:40.000Z</time>
      </trkpt>
      <trkpt lat="42.163780" lon="-2.730072">
        <ele>1285.3</ele>
        <time>2021-07-04T12:15:42.000Z</time>
      </trkpt>
      <trkpt lat="42.163680" lon="-2.730187">
        <ele>1286.0</ele>
        <time>2021-07-04T12:15:44.000Z</time>
      </trkpt>
      <trkpt lat="42.163562" lon="-2.730265">
        <ele>1286.0</ele>
        <time>2021-07-04T12:15:46.000Z</time>
      </trkpt>
      <trkpt lat="42.163442" lon="-2.730293">
        <ele>1285.5</ele>
        <time>2021-07-04T12:15:48.000Z</time>
      </trkpt>
      <trkpt lat="42.163322" lon="-2.730273">
        <ele>1286.5</ele>
        <time>2021-07-04T12:15:50.000Z</time>
      </trkpt>
      <trkpt lat="42.163210" lon="-2.730213">
        <ele>1286.5</ele>
        <time>2021-07-04T12:15:52.000Z</time>
      </trkpt>
      <trkpt lat="42.163120" lon="-2.730122">
        <ele>1284.9</ele>
        <time>2021-07-04T12:15:54.000Z</time>
      </trkpt>
      <trkpt lat="42.163100" lon="-2.729970">
        <ele>1284.1</ele>
        <time>2021-07-04T12:15:56.000Z</time>
      </trkpt>
      <trkpt lat="42.163178" lon="-2.729850">
        <ele>1284.4</ele>
        <time>2021-07-04T12:15:58.000Z</time>
      </trkpt>
      <trkpt lat="42.163312" lon="-2.729813">
        <ele>1283.2</ele>
        <time>2021-07-04T12:16:00.000Z</time>
      </trkpt>
      <trkpt lat="42.163457" lon="-2.729802">
        <ele>1281.4</ele>
        <time>2021-07-04T12:16:02.000Z</time>
      </trkpt>
      <trkpt lat="42.163600" lon="-2.729767">
        <ele>1281.3</ele>
        <time>2021-07-04T12:16:04.000Z</time>
      </trkpt>
      <trkpt lat="42.163718" lon="-2.729682">
        <ele>1281.7</ele>
        <time>2021-07-04T12:16:06.000Z</time>
      </trkpt>
      <trkpt lat="42.163798" lon="-2.729538">
        <ele>1281.0</ele>
        <time>2021-07-04T12:16:08.000Z</time>
      </trkpt>
      <trkpt lat="42.163853" lon="-2.729363">
        <ele>1280.2</ele>
        <time>2021-07-04T12:16:10.000Z</time>
      </trkpt>
      <trkpt lat="42.163882" lon="-2.729165">
        <ele>1278.2</ele>
        <time>2021-07-04T12:16:12.000Z</time>
      </trkpt>
      <trkpt lat="42.163897" lon="-2.728953">
        <ele>1277.3</ele>
        <time>2021-07-04T12:16:14.000Z</time>
      </trkpt>
      <trkpt lat="42.163905" lon="-2.728733">
        <ele>1276.6</ele>
        <time>2021-07-04T12:16:16.000Z</time>
      </trkpt>
      <trkpt lat="42.163920" lon="-2.728520">
        <ele>1275.1</ele>
        <time>2021-07-04T12:16:18.000Z</time>
      </trkpt>
      <trkpt lat="42.163950" lon="-2.728310">
        <ele>1273.5</ele>
        <time>2021-07-04T12:16:20.000Z</time>
      </trkpt>
      <trkpt lat="42.163978" lon="-2.728103">
        <ele>1273.2</ele>
        <time>2021-07-04T12:16:22.000Z</time>
      </trkpt>
      <trkpt lat="42.163992" lon="-2.727900">
        <ele>1272.4</ele>
        <time>2021-07-04T12:16:24.000Z</time>
      </trkpt>
      <trkpt lat="42.164007" lon="-2.727705">
        <ele>1272.2</ele>
        <time>2021-07-04T12:16:26.000Z</time>
      </trkpt>
      <trkpt lat="42.164037" lon="-2.727518">
        <ele>1269.9</ele>
        <time>2021-07-04T12:16:28.000Z</time>
      </trkpt>
      <trkpt lat="42.164063" lon="-2.727330">
        <ele>1270.0</ele>
        <time>2021-07-04T12:16:30.000Z</time>
      </trkpt>
      <trkpt lat="42.164042" lon="-2.727145">
        <ele>1269.3</ele>
        <time>2021-07-04T12:16:32.000Z</time>
      </trkpt>
      <trkpt lat="42.163995" lon="-2.726965">
        <ele>1268.3</ele>
        <time>2021-07-04T12:16:34.000Z</time>
      </trkpt>
      <trkpt lat="42.163947" lon="-2.726782">
        <ele>1268.2</ele>
        <time>2021-07-04T12:16:36.000Z</time>
      </trkpt>
      <trkpt lat="42.163913" lon="-2.726592">
        <ele>1266.4</ele>
        <time>2021-07-04T12:16:38.000Z</time>
      </trkpt>
      <trkpt lat="42.163918" lon="-2.726392">
        <ele>1265.9</ele>
        <time>2021-07-04T12:16:40.000Z</time>
      </trkpt>
      <trkpt lat="42.163965" lon="-2.726190">
        <ele>1264.5</ele>
        <time>2021-07-04T12:16:42.000Z</time>
      </trkpt>
      <trkpt lat="42.164045" lon="-2.725995">
        <ele>1263.9</ele>
        <time>2021-07-04T12:16:44.000Z</time>
      </trkpt>
      <trkpt lat="42.164150" lon="-2.725817">
        <ele>1262.5</ele>
        <time>2021-07-04T12:16:46.000Z</time>
      </trkpt>
      <trkpt lat="42.164273" lon="-2.725667">
        <ele>1262.1</ele>
        <time>2021-07-04T12:16:48.000Z</time>
      </trkpt>
      <trkpt lat="42.164402" lon="-2.725537">
        <ele>1260.4</ele>
        <time>2021-07-04T12:16:50.000Z</time>
      </trkpt>
      <trkpt lat="42.164532" lon="-2.725413">
        <ele>1259.6</ele>
        <time>2021-07-04T12:16:52.000Z</time>
      </trkpt>
      <trkpt lat="42.164663" lon="-2.725303">
        <ele>1258.0</ele>
        <time>2021-07-04T12:16:54.000Z</time>
      </trkpt>
      <trkpt lat="42.164800" lon="-2.725210">
        <ele>1258.4</ele>
        <time>2021-07-04T12:16:56.000Z</time>
      </trkpt>
      <trkpt lat="42.164928" lon="-2.725108">
        <ele>1257.9</ele>
        <time>2021-07-04T12:16:58.000Z</time>
      </trkpt>
      <trkpt lat="42.165025" lon="-2.724968">
        <ele>1256.4</ele>
        <time>2021-07-04T12:17:00.000Z</time>
      </trkpt>
      <trkpt lat="42.165090" lon="-2.724785">
        <ele>1255.8</ele>
        <time>2021-07-04T12:17:02.000Z</time>
      </trkpt>
      <trkpt lat="42.165150" lon="-2.724582">
        <ele>1254.3</ele>
        <time>2021-07-04T12:17:04.000Z</time>
      </trkpt>
      <trkpt lat="42.165212" lon="-2.724355">
        <ele>1254.0</ele>
        <time>2021-07-04T12:17:06.000Z</time>
      </trkpt>
      <trkpt lat="42.165242" lon="-2.724235">
        <ele>1253.0</ele>
        <time>2021-07-04T12:17:07.000Z</time>
      </trkpt>
      <trkpt lat="42.165272" lon="-2.724110">
        <ele>1252.3</ele>
        <time>2021-07-04T12:17:08.000Z</time>
      </trkpt>
      <trkpt lat="42.165300" lon="-2.723988">
        <ele>1252.2</ele>
        <time>2021-07-04T12:17:09.000Z</time>
      </trkpt>
      <trkpt lat="42.165330" lon="-2.723873">
        <ele>1252.2</ele>
        <time>2021-07-04T12:17:10.000Z</time>
      </trkpt>
      <trkpt lat="42.165400" lon="-2.723663">
        <ele>1251.8</ele>
        <time>2021-07-04T12:17:12.000Z</time>
      </trkpt>
      <trkpt lat="42.165497" lon="-2.723467">
        <ele>1248.6</ele>
        <time>2021-07-04T12:17:14.000Z</time>
      </trkpt>
      <trkpt lat="42.165557" lon="-2.723375">
        <ele>1248.6</ele>
        <time>2021-07-04T12:17:15.000Z</time>
      </trkpt>
      <trkpt lat="42.165617" lon="-2.723283">
        <ele>1248.0</ele>
        <time>2021-07-04T12:17:16.000Z</time>
      </trkpt>
      <trkpt lat="42.165675" lon="-2.723187">
        <ele>1247.6</ele>
        <time>2021-07-04T12:17:17.000Z</time>
      </trkpt>
      <trkpt lat="42.165730" lon="-2.723085">
        <ele>1246.7</ele>
        <time>2021-07-04T12:17:18.000Z</time>
      </trkpt>
      <trkpt lat="42.165783" lon="-2.722978">
        <ele>1245.8</ele>
        <time>2021-07-04T12:17:19.000Z</time>
      </trkpt>
      <trkpt lat="42.165835" lon="-2.722877">
        <ele>1245.4</ele>
        <time>2021-07-04T12:17:20.000Z</time>
      </trkpt>
      <trkpt lat="42.165943" lon="-2.722697">
        <ele>1243.8</ele>
        <time>2021-07-04T12:17:22.000Z</time>
      </trkpt>
      <trkpt lat="42.166065" lon="-2.722545">
        <ele>1243.2</ele>
        <time>2021-07-04T12:17:24.000Z</time>
      </trkpt>
      <trkpt lat="42.166165" lon="-2.722382">
        <ele>1242.5</ele>
        <time>2021-07-04T12:17:26.000Z</time>
      </trkpt>
      <trkpt lat="42.166225" lon="-2.722193">
        <ele>1241.7</ele>
        <time>2021-07-04T12:17:28.000Z</time>
      </trkpt>
      <trkpt lat="42.166275" lon="-2.721982">
        <ele>1241.3</ele>
        <time>2021-07-04T12:17:30.000Z</time>
      </trkpt>
      <trkpt lat="42.166315" lon="-2.721753">
        <ele>1240.3</ele>
        <time>2021-07-04T12:17:32.000Z</time>
      </trkpt>
      <trkpt lat="42.166352" lon="-2.721537">
        <ele>1238.3</ele>
        <time>2021-07-04T12:17:34.000Z</time>
      </trkpt>
      <trkpt lat="42.166402" lon="-2.721330">
        <ele>1237.7</ele>
        <time>2021-07-04T12:17:36.000Z</time>
      </trkpt>
      <trkpt lat="42.166480" lon="-2.721133">
        <ele>1236.7</ele>
        <time>2021-07-04T12:17:38.000Z</time>
      </trkpt>
      <trkpt lat="42.166570" lon="-2.720940">
        <ele>1234.8</ele>
        <time>2021-07-04T12:17:40.000Z</time>
      </trkpt>
      <trkpt lat="42.166647" lon="-2.720740">
        <ele>1234.5</ele>
        <time>2021-07-04T12:17:42.000Z</time>
      </trkpt>
      <trkpt lat="42.166715" lon="-2.720545">
        <ele>1233.4</ele>
        <time>2021-07-04T12:17:44.000Z</time>
      </trkpt>
      <trkpt lat="42.166773" lon="-2.720338">
        <ele>1233.2</ele>
        <time>2021-07-04T12:17:46.000Z</time>
      </trkpt>
      <trkpt lat="42.166828" lon="-2.720120">
        <ele>1232.4</ele>
        <time>2021-07-04T12:17:48.000Z</time>
      </trkpt>
      <trkpt lat="42.166855" lon="-2.720003">
        <ele>1231.5</ele>
        <time>2021-07-04T12:17:49.000Z</time>
      </trkpt>
      <trkpt lat="42.166878" lon="-2.719885">
        <ele>1231.6</ele>
        <time>2021-07-04T12:17:50.000Z</time>
      </trkpt>
      <trkpt lat="42.166898" lon="-2.719762">
        <ele>1231.7</ele>
        <time>2021-07-04T12:17:51.000Z</time>
      </trkpt>
      <trkpt lat="42.166920" lon="-2.719640">
        <ele>1231.3</ele>
        <time>2021-07-04T12:17:52.000Z</time>
      </trkpt>
      <trkpt lat="42.166942" lon="-2.719518">
        <ele>1230.5</ele>
        <time>2021-07-04T12:17:53.000Z</time>
      </trkpt>
      <trkpt lat="42.166965" lon="-2.719398">
        <ele>1229.1</ele>
        <time>2021-07-04T12:17:54.000Z</time>
      </trkpt>
      <trkpt lat="42.167017" lon="-2.719167">
        <ele>1227.8</ele>
        <time>2021-07-04T12:17:56.000Z</time>
      </trkpt>
      <trkpt lat="42.167085" lon="-2.718950">
        <ele>1228.4</ele>
        <time>2021-07-04T12:17:58.000Z</time>
      </trkpt>
      <trkpt lat="42.167167" lon="-2.718735">
        <ele>1228.3</ele>
        <time>2021-07-04T12:18:00.000Z</time>
      </trkpt>
      <trkpt lat="42.167237" lon="-2.718517">
        <ele>1225.5</ele>
        <time>2021-07-04T12:18:02.000Z</time>
      </trkpt>
      <trkpt lat="42.167288" lon="-2.718302">
        <ele>1223.5</ele>
        <time>2021-07-04T12:18:04.000Z</time>
      </trkpt>
      <trkpt lat="42.167325" lon="-2.718087">
        <ele>1222.6</ele>
        <time>2021-07-04T12:18:06.000Z</time>
      </trkpt>
      <trkpt lat="42.167353" lon="-2.717867">
        <ele>1221.6</ele>
        <time>2021-07-04T12:18:08.000Z</time>
      </trkpt>
      <trkpt lat="42.167392" lon="-2.717645">
        <ele>1220.5</ele>
        <time>2021-07-04T12:18:10.000Z</time>
      </trkpt>
      <trkpt lat="42.167438" lon="-2.717422">
        <ele>1220.5</ele>
        <time>2021-07-04T12:18:12.000Z</time>
      </trkpt>
      <trkpt lat="42.167495" lon="-2.717202">
        <ele>1218.9</ele>
        <time>2021-07-04T12:18:14.000Z</time>
      </trkpt>
      <trkpt lat="42.167570" lon="-2.716992">
        <ele>1217.7</ele>
        <time>2021-07-04T12:18:16.000Z</time>
      </trkpt>
      <trkpt lat="42.167658" lon="-2.716793">
        <ele>1217.5</ele>
        <time>2021-07-04T12:18:18.000Z</time>
      </trkpt>
      <trkpt lat="42.167758" lon="-2.716600">
        <ele>1216.8</ele>
        <time>2021-07-04T12:18:20.000Z</time>
      </trkpt>
      <trkpt lat="42.167845" lon="-2.716408">
        <ele>1216.1</ele>
        <time>2021-07-04T12:18:22.000Z</time>
      </trkpt>
      <trkpt lat="42.167930" lon="-2.716223">
        <ele>1214.3</ele>
        <time>2021-07-04T12:18:24.000Z</time>
      </trkpt>
      <trkpt lat="42.168032" lon="-2.716047">
        <ele>1213.5</ele>
        <time>2021-07-04T12:18:26.000Z</time>
      </trkpt>
      <trkpt lat="42.168140" lon="-2.715872">
        <ele>1213.0</ele>
        <time>2021-07-04T12:18:28.000Z</time>
      </trkpt>
      <trkpt lat="42.168248" lon="-2.715698">
        <ele>1212.0</ele>
        <time>2021-07-04T12:18:30.000Z</time>
      </trkpt>
      <trkpt lat="42.168347" lon="-2.715512">
        <ele>1212.2</ele>
        <time>2021-07-04T12:18:32.000Z</time>
      </trkpt>
      <trkpt lat="42.168423" lon="-2.715313">
        <ele>1211.2</ele>
        <time>2021-07-04T12:18:34.000Z</time>
      </trkpt>
      <trkpt lat="42.168468" lon="-2.715108">
        <ele>1209.9</ele>
        <time>2021-07-04T12:18:36.000Z</time>
      </trkpt>
      <trkpt lat="42.168467" lon="-2.714895">
        <ele>1209.9</ele>
        <time>2021-07-04T12:18:38.000Z</time>
      </trkpt>
      <trkpt lat="42.168427" lon="-2.714695">
        <ele>1207.4</ele>
        <time>2021-07-04T12:18:40.000Z</time>
      </trkpt>
      <trkpt lat="42.168408" lon="-2.714500">
        <ele>1206.5</ele>
        <time>2021-07-04T12:18:42.000Z</time>
      </trkpt>
      <trkpt lat="42.168438" lon="-2.714302">
        <ele>1204.6</ele>
        <time>2021-07-04T12:18:44.000Z</time>
      </trkpt>
      <trkpt lat="42.168505" lon="-2.714097">
        <ele>1204.1</ele>
        <time>2021-07-04T12:18:46.000Z</time>
      </trkpt>
      <trkpt lat="42.168587" lon="-2.713883">
        <ele>1204.0</ele>
        <time>2021-07-04T12:18:48.000Z</time>
      </trkpt>
      <trkpt lat="42.168675" lon="-2.713687">
        <ele>1201.4</ele>
        <time>2021-07-04T12:18:50.000Z</time>
      </trkpt>
      <trkpt lat="42.168787" lon="-2.713518">
        <ele>1201.4</ele>
        <time>2021-07-04T12:18:52.000Z</time>
      </trkpt>
      <trkpt lat="42.168890" lon="-2.713350">
        <ele>1200.5</ele>
        <time>2021-07-04T12:18:54.000Z</time>
      </trkpt>
      <trkpt lat="42.168952" lon="-2.713157">
        <ele>1199.2</ele>
        <time>2021-07-04T12:18:56.000Z</time>
      </trkpt>
      <trkpt lat="42.168988" lon="-2.712950">
        <ele>1198.2</ele>
        <time>2021-07-04T12:18:58.000Z</time>
      </trkpt>
      <trkpt lat="42.169037" lon="-2.712738">
        <ele>1197.6</ele>
        <time>2021-07-04T12:19:00.000Z</time>
      </trkpt>
      <trkpt lat="42.169105" lon="-2.712530">
        <ele>1196.3</ele>
        <time>2021-07-04T12:19:02.000Z</time>
      </trkpt>
      <trkpt lat="42.169172" lon="-2.712318">
        <ele>1194.6</ele>
        <time>2021-07-04T12:19:04.000Z</time>
      </trkpt>
      <trkpt lat="42.169242" lon="-2.712108">
        <ele>1194.0</ele>
        <time>2021-07-04T12:19:06.000Z</time>
      </trkpt>
      <trkpt lat="42.169323" lon="-2.711898">
        <ele>1191.6</ele>
        <time>2021-07-04T12:19:08.000Z</time>
      </trkpt>
      <trkpt lat="42.169410" lon="-2.711688">
        <ele>1191.9</ele>
        <time>2021-07-04T12:19:10.000Z</time>
      </trkpt>
      <trkpt lat="42.169495" lon="-2.711485">
        <ele>1189.8</ele>
        <time>2021-07-04T12:19:12.000Z</time>
      </trkpt>
      <trkpt lat="42.169577" lon="-2.711295">
        <ele>1189.6</ele>
        <time>2021-07-04T12:19:14.000Z</time>
      </trkpt>
      <trkpt lat="42.169665" lon="-2.711132">
        <ele>1189.4</ele>
        <time>2021-07-04T12:19:16.000Z</time>
      </trkpt>
      <trkpt lat="42.169770" lon="-2.710987">
        <ele>1188.1</ele>
        <time>2021-07-04T12:19:18.000Z</time>
      </trkpt>
      <trkpt lat="42.169892" lon="-2.710848">
        <ele>1187.0</ele>
        <time>2021-07-04T12:19:20.000Z</time>
      </trkpt>
      <trkpt lat="42.170023" lon="-2.710717">
        <ele>1186.3</ele>
        <time>2021-07-04T12:19:22.000Z</time>
      </trkpt>
      <trkpt lat="42.170165" lon="-2.710613">
        <ele>1185.3</ele>
        <time>2021-07-04T12:19:24.000Z</time>
      </trkpt>
      <trkpt lat="42.170303" lon="-2.710533">
        <ele>1184.5</ele>
        <time>2021-07-04T12:19:26.000Z</time>
      </trkpt>
      <trkpt lat="42.170393" lon="-2.710423">
        <ele>1184.3</ele>
        <time>2021-07-04T12:19:28.000Z</time>
      </trkpt>
      <trkpt lat="42.170373" lon="-2.710300">
        <ele>1183.7</ele>
        <time>2021-07-04T12:19:30.000Z</time>
      </trkpt>
      <trkpt lat="42.170258" lon="-2.710270">
        <ele>1183.3</ele>
        <time>2021-07-04T12:19:32.000Z</time>
      </trkpt>
      <trkpt lat="42.170143" lon="-2.710365">
        <ele>1183.5</ele>
        <time>2021-07-04T12:19:34.000Z</time>
      </trkpt>
      <trkpt lat="42.170037" lon="-2.710472">
        <ele>1183.0</ele>
        <time>2021-07-04T12:19:36.000Z</time>
      </trkpt>
      <trkpt lat="42.169933" lon="-2.710582">
        <ele>1181.3</ele>
        <time>2021-07-04T12:19:38.000Z</time>
      </trkpt>
      <trkpt lat="42.169820" lon="-2.710678">
        <ele>1181.4</ele>
        <time>2021-07-04T12:19:40.000Z</time>
      </trkpt>
      <trkpt lat="42.169688" lon="-2.710758">
        <ele>1180.4</ele>
        <time>2021-07-04T12:19:42.000Z</time>
      </trkpt>
      <trkpt lat="42.169547" lon="-2.710825">
        <ele>1179.6</ele>
        <time>2021-07-04T12:19:44.000Z</time>
      </trkpt>
      <trkpt lat="42.169408" lon="-2.710903">
        <ele>1179.2</ele>
        <time>2021-07-04T12:19:46.000Z</time>
      </trkpt>
      <trkpt lat="42.169283" lon="-2.711018">
        <ele>1179.8</ele>
        <time>2021-07-04T12:19:48.000Z</time>
      </trkpt>
      <trkpt lat="42.169175" lon="-2.711163">
        <ele>1178.6</ele>
        <time>2021-07-04T12:19:50.000Z</time>
      </trkpt>
      <trkpt lat="42.169073" lon="-2.711328">
        <ele>1177.5</ele>
        <time>2021-07-04T12:19:52.000Z</time>
      </trkpt>
      <trkpt lat="42.168973" lon="-2.711508">
        <ele>1176.6</ele>
        <time>2021-07-04T12:19:54.000Z</time>
      </trkpt>
      <trkpt lat="42.168873" lon="-2.711697">
        <ele>1176.4</ele>
        <time>2021-07-04T12:19:56.000Z</time>
      </trkpt>
      <trkpt lat="42.168772" lon="-2.711877">
        <ele>1174.7</ele>
        <time>2021-07-04T12:19:58.000Z</time>
      </trkpt>
      <trkpt lat="42.168675" lon="-2.712047">
        <ele>1174.8</ele>
        <time>2021-07-04T12:20:00.000Z</time>
      </trkpt>
      <trkpt lat="42.168578" lon="-2.712212">
        <ele>1174.1</ele>
        <time>2021-07-04T12:20:02.000Z</time>
      </trkpt>
      <trkpt lat="42.168478" lon="-2.712378">
        <ele>1172.8</ele>
        <time>2021-07-04T12:20:04.000Z</time>
      </trkpt>
      <trkpt lat="42.168368" lon="-2.712530">
        <ele>1171.7</ele>
        <time>2021-07-04T12:20:06.000Z</time>
      </trkpt>
      <trkpt lat="42.168252" lon="-2.712668">
        <ele>1170.0</ele>
        <time>2021-07-04T12:20:08.000Z</time>
      </trkpt>
      <trkpt lat="42.168125" lon="-2.712788">
        <ele>1170.0</ele>
        <time>2021-07-04T12:20:10.000Z</time>
      </trkpt>
      <trkpt lat="42.167990" lon="-2.712887">
        <ele>1168.6</ele>
        <time>2021-07-04T12:20:12.000Z</time>
      </trkpt>
      <trkpt lat="42.167860" lon="-2.712990">
        <ele>1169.1</ele>
        <time>2021-07-04T12:20:14.000Z</time>
      </trkpt>
      <trkpt lat="42.167743" lon="-2.713115">
        <ele>1167.8</ele>
        <time>2021-07-04T12:20:16.000Z</time>
      </trkpt>
      <trkpt lat="42.167643" lon="-2.713250">
        <ele>1166.5</ele>
        <time>2021-07-04T12:20:18.000Z</time>
      </trkpt>
      <trkpt lat="42.167563" lon="-2.713415">
        <ele>1167.4</ele>
        <time>2021-07-04T12:20:20.000Z</time>
      </trkpt>
      <trkpt lat="42.167487" lon="-2.713595">
        <ele>1166.6</ele>
        <time>2021-07-04T12:20:22.000Z</time>
      </trkpt>
      <trkpt lat="42.167408" lon="-2.713787">
        <ele>1165.5</ele>
        <time>2021-07-04T12:20:24.000Z</time>
      </trkpt>
      <trkpt lat="42.167327" lon="-2.713980">
        <ele>1164.3</ele>
        <time>2021-07-04T12:20:26.000Z</time>
      </trkpt>
      <trkpt lat="42.167242" lon="-2.714157">
        <ele>1162.7</ele>
        <time>2021-07-04T12:20:28.000Z</time>
      </trkpt>
      <trkpt lat="42.167163" lon="-2.714320">
        <ele>1162.1</ele>
        <time>2021-07-04T12:20:30.000Z</time>
      </trkpt>
      <trkpt lat="42.167085" lon="-2.714477">
        <ele>1160.4</ele>
        <time>2021-07-04T12:20:32.000Z</time>
      </trkpt>
      <trkpt lat="42.167005" lon="-2.714645">
        <ele>1160.1</ele>
        <time>2021-07-04T12:20:34.000Z</time>
      </trkpt>
      <trkpt lat="42.166923" lon="-2.714820">
        <ele>1158.5</ele>
        <time>2021-07-04T12:20:36.000Z</time>
      </trkpt>
      <trkpt lat="42.166842" lon="-2.714977">
        <ele>1157.5</ele>
        <time>2021-07-04T12:20:38.000Z</time>
      </trkpt>
      <trkpt lat="42.166743" lon="-2.715097">
        <ele>1155.8</ele>
        <time>2021-07-04T12:20:40.000Z</time>
      </trkpt>
      <trkpt lat="42.166613" lon="-2.715165">
        <ele>1155.4</ele>
        <time>2021-07-04T12:20:42.000Z</time>
      </trkpt>
      <trkpt lat="42.166470" lon="-2.715215">
        <ele>1154.6</ele>
        <time>2021-07-04T12:20:44.000Z</time>
      </trkpt>
      <trkpt lat="42.166335" lon="-2.715243">
        <ele>1153.3</ele>
        <time>2021-07-04T12:20:46.000Z</time>
      </trkpt>
      <trkpt lat="42.166238" lon="-2.715178">
        <ele>1151.9</ele>
        <time>2021-07-04T12:20:48.000Z</time>
      </trkpt>
      <trkpt lat="42.166227" lon="-2.715023">
        <ele>1152.3</ele>
        <time>2021-07-04T12:20:50.000Z</time>
      </trkpt>
      <trkpt lat="42.166272" lon="-2.714862">
        <ele>1150.9</ele>
        <time>2021-07-04T12:20:52.000Z</time>
      </trkpt>
      <trkpt lat="42.166353" lon="-2.714697">
        <ele>1148.8</ele>
        <time>2021-07-04T12:20:54.000Z</time>
      </trkpt>
      <trkpt lat="42.166445" lon="-2.714517">
        <ele>1148.1</ele>
        <time>2021-07-04T12:20:56.000Z</time>
      </trkpt>
      <trkpt lat="42.166523" lon="-2.714312">
        <ele>1147.3</ele>
        <time>2021-07-04T12:20:58.000Z</time>
      </trkpt>
      <trkpt lat="42.166585" lon="-2.714092">
        <ele>1147.2</ele>
        <time>2021-07-04T12:21:00.000Z</time>
      </trkpt>
      <trkpt lat="42.166635" lon="-2.713878">
        <ele>1146.1</ele>
        <time>2021-07-04T12:21:02.000Z</time>
      </trkpt>
      <trkpt lat="42.166680" lon="-2.713672">
        <ele>1144.8</ele>
        <time>2021-07-04T12:21:04.000Z</time>
      </trkpt>
      <trkpt lat="42.166728" lon="-2.713477">
        <ele>1144.7</ele>
        <time>2021-07-04T12:21:06.000Z</time>
      </trkpt>
      <trkpt lat="42.166785" lon="-2.713295">
        <ele>1143.6</ele>
        <time>2021-07-04T12:21:08.000Z</time>
      </trkpt>
      <trkpt lat="42.166857" lon="-2.713125">
        <ele>1142.2</ele>
        <time>2021-07-04T12:21:10.000Z</time>
      </trkpt>
      <trkpt lat="42.166955" lon="-2.712968">
        <ele>1141.7</ele>
        <time>2021-07-04T12:21:12.000Z</time>
      </trkpt>
      <trkpt lat="42.167070" lon="-2.712815">
        <ele>1141.9</ele>
        <time>2021-07-04T12:21:14.000Z</time>
      </trkpt>
      <trkpt lat="42.167175" lon="-2.712650">
        <ele>1141.2</ele>
        <time>2021-07-04T12:21:16.000Z</time>
      </trkpt>
      <trkpt lat="42.167273" lon="-2.712478">
        <ele>1140.4</ele>
        <time>2021-07-04T12:21:18.000Z</time>
      </trkpt>
      <trkpt lat="42.167352" lon="-2.712302">
        <ele>1139.9</ele>
        <time>2021-07-04T12:21:20.000Z</time>
      </trkpt>
      <trkpt lat="42.167403" lon="-2.712122">
        <ele>1138.8</ele>
        <time>2021-07-04T12:21:22.000Z</time>
      </trkpt>
      <trkpt lat="42.167455" lon="-2.711948">
        <ele>1137.2</ele>
        <time>2021-07-04T12:21:24.000Z</time>
      </trkpt>
      <trkpt lat="42.167537" lon="-2.711790">
        <ele>1136.3</ele>
        <time>2021-07-04T12:21:26.000Z</time>
      </trkpt>
      <trkpt lat="42.167642" lon="-2.711653">
        <ele>1136.6</ele>
        <time>2021-07-04T12:21:28.000Z</time>
      </trkpt>
      <trkpt lat="42.167758" lon="-2.711525">
        <ele>1135.2</ele>
        <time>2021-07-04T12:21:30.000Z</time>
      </trkpt>
      <trkpt lat="42.167863" lon="-2.711383">
        <ele>1135.9</ele>
        <time>2021-07-04T12:21:32.000Z</time>
      </trkpt>
      <trkpt lat="42.167932" lon="-2.711200">
        <ele>1133.5</ele>
        <time>2021-07-04T12:21:34.000Z</time>
      </trkpt>
      <trkpt lat="42.167968" lon="-2.711000">
        <ele>1133.5</ele>
        <time>2021-07-04T12:21:36.000Z</time>
      </trkpt>
      <trkpt lat="42.168017" lon="-2.710807">
        <ele>1132.9</ele>
        <time>2021-07-04T12:21:38.000Z</time>
      </trkpt>
      <trkpt lat="42.168090" lon="-2.710623">
        <ele>1132.4</ele>
        <time>2021-07-04T12:21:40.000Z</time>
      </trkpt>
      <trkpt lat="42.168180" lon="-2.710447">
        <ele>1132.8</ele>
        <time>2021-07-04T12:21:42.000Z</time>
      </trkpt>
      <trkpt lat="42.168250" lon="-2.710262">
        <ele>1131.3</ele>
        <time>2021-07-04T12:21:44.000Z</time>
      </trkpt>
      <trkpt lat="42.168278" lon="-2.710062">
        <ele>1131.0</ele>
        <time>2021-07-04T12:21:46.000Z</time>
      </trkpt>
      <trkpt lat="42.168298" lon="-2.709873">
        <ele>1128.9</ele>
        <time>2021-07-04T12:21:48.000Z</time>
      </trkpt>
      <trkpt lat="42.168357" lon="-2.709710">
        <ele>1129.5</ele>
        <time>2021-07-04T12:21:50.000Z</time>
      </trkpt>
      <trkpt lat="42.168440" lon="-2.709563">
        <ele>1129.2</ele>
        <time>2021-07-04T12:21:52.000Z</time>
      </trkpt>
      <trkpt lat="42.168540" lon="-2.709427">
        <ele>1127.8</ele>
        <time>2021-07-04T12:21:54.000Z</time>
      </trkpt>
      <trkpt lat="42.168643" lon="-2.709295">
        <ele>1128.4</ele>
        <time>2021-07-04T12:21:56.000Z</time>
      </trkpt>
      <trkpt lat="42.168752" lon="-2.709178">
        <ele>1129.0</ele>
        <time>2021-07-04T12:21:58.000Z</time>
      </trkpt>
      <trkpt lat="42.168868" lon="-2.709083">
        <ele>1127.0</ele>
        <time>2021-07-04T12:22:00.000Z</time>
      </trkpt>
      <trkpt lat="42.168993" lon="-2.709002">
        <ele>1127.4</ele>
        <time>2021-07-04T12:22:02.000Z</time>
      </trkpt>
      <trkpt lat="42.169123" lon="-2.708918">
        <ele>1125.6</ele>
        <time>2021-07-04T12:22:04.000Z</time>
      </trkpt>
      <trkpt lat="42.169252" lon="-2.708820">
        <ele>1124.7</ele>
        <time>2021-07-04T12:22:06.000Z</time>
      </trkpt>
      <trkpt lat="42.169358" lon="-2.708698">
        <ele>1123.8</ele>
        <time>2021-07-04T12:22:08.000Z</time>
      </trkpt>
      <trkpt lat="42.169450" lon="-2.708593">
        <ele>1123.3</ele>
        <time>2021-07-04T12:22:10.000Z</time>
      </trkpt>
      <trkpt lat="42.169550" lon="-2.708535">
        <ele>1123.4</ele>
        <time>2021-07-04T12:22:12.000Z</time>
      </trkpt>
      <trkpt lat="42.169665" lon="-2.708510">
        <ele>1122.2</ele>
        <time>2021-07-04T12:22:14.000Z</time>
      </trkpt>
      <trkpt lat="42.169797" lon="-2.708480">
        <ele>1120.1</ele>
        <time>2021-07-04T12:22:16.000Z</time>
      </trkpt>
      <trkpt lat="42.169927" lon="-2.708422">
        <ele>1121.2</ele>
        <time>2021-07-04T12:22:18.000Z</time>
      </trkpt>
      <trkpt lat="42.170035" lon="-2.708342">
        <ele>1120.0</ele>
        <time>2021-07-04T12:22:20.000Z</time>
      </trkpt>
      <trkpt lat="42.170140" lon="-2.708250">
        <ele>1119.3</ele>
        <time>2021-07-04T12:22:22.000Z</time>
      </trkpt>
      <trkpt lat="42.170252" lon="-2.708145">
        <ele>1118.4</ele>
        <time>2021-07-04T12:22:24.000Z</time>
      </trkpt>
      <trkpt lat="42.170372" lon="-2.708042">
        <ele>1117.2</ele>
        <time>2021-07-04T12:22:26.000Z</time>
      </trkpt>
      <trkpt lat="42.170495" lon="-2.707943">
        <ele>1116.5</ele>
        <time>2021-07-04T12:22:28.000Z</time>
      </trkpt>
      <trkpt lat="42.170610" lon="-2.707843">
        <ele>1115.2</ele>
        <time>2021-07-04T12:22:30.000Z</time>
      </trkpt>
      <trkpt lat="42.170720" lon="-2.707743">
        <ele>1115.9</ele>
        <time>2021-07-04T12:22:32.000Z</time>
      </trkpt>
      <trkpt lat="42.170843" lon="-2.707670">
        <ele>1114.0</ele>
        <time>2021-07-04T12:22:34.000Z</time>
      </trkpt>
      <trkpt lat="42.170992" lon="-2.707652">
        <ele>1112.3</ele>
        <time>2021-07-04T12:22:36.000Z</time>
      </trkpt>
      <trkpt lat="42.171143" lon="-2.707652">
        <ele>1112.4</ele>
        <time>2021-07-04T12:22:38.000Z</time>
      </trkpt>
      <trkpt lat="42.171300" lon="-2.707625">
        <ele>1111.5</ele>
        <time>2021-07-04T12:22:40.000Z</time>
      </trkpt>
      <trkpt lat="42.171452" lon="-2.707578">
        <ele>1111.9</ele>
        <time>2021-07-04T12:22:42.000Z</time>
      </trkpt>
      <trkpt lat="42.171595" lon="-2.707505">
        <ele>1111.2</ele>
        <time>2021-07-04T12:22:44.000Z</time>
      </trkpt>
      <trkpt lat="42.171723" lon="-2.707412">
        <ele>1108.9</ele>
        <time>2021-07-04T12:22:46.000Z</time>
      </trkpt>
      <trkpt lat="42.171847" lon="-2.707348">
        <ele>1108.4</ele>
        <time>2021-07-04T12:22:48.000Z</time>
      </trkpt>
      <trkpt lat="42.171968" lon="-2.707310">
        <ele>1108.1</ele>
        <time>2021-07-04T12:22:50.000Z</time>
      </trkpt>
      <trkpt lat="42.172078" lon="-2.707283">
        <ele>1107.4</ele>
        <time>2021-07-04T12:22:52.000Z</time>
      </trkpt>
      <trkpt lat="42.172177" lon="-2.707202">
        <ele>1105.5</ele>
        <time>2021-07-04T12:22:55.000Z</time>
      </trkpt>
      <trkpt lat="42.172140" lon="-2.707060">
        <ele>1104.1</ele>
        <time>2021-07-04T12:22:58.000Z</time>
      </trkpt>
      <trkpt lat="42.172042" lon="-2.706972">
        <ele>1102.5</ele>
        <time>2021-07-04T12:23:01.000Z</time>
      </trkpt>
      <trkpt lat="42.171940" lon="-2.706923">
        <ele>1103.3</ele>
        <time>2021-07-04T12:23:04.000Z</time>
      </trkpt>
      <trkpt lat="42.171847" lon="-2.706932">
        <ele>1102.6</ele>
        <time>2021-07-04T12:23:06.000Z</time>
      </trkpt>
      <trkpt lat="42.171740" lon="-2.706972">
        <ele>1102.1</ele>
        <time>2021-07-04T12:23:08.000Z</time>
      </trkpt>
      <trkpt lat="42.171622" lon="-2.707008">
        <ele>1102.5</ele>
        <time>2021-07-04T12:23:10.000Z</time>
      </trkpt>
      <trkpt lat="42.171488" lon="-2.707013">
        <ele>1102.9</ele>
        <time>2021-07-04T12:23:12.000Z</time>
      </trkpt>
      <trkpt lat="42.171357" lon="-2.707018">
        <ele>1100.9</ele>
        <time>2021-07-04T12:23:14.000Z</time>
      </trkpt>
      <trkpt lat="42.171217" lon="-2.707058">
        <ele>1099.0</ele>
        <time>2021-07-04T12:23:16.000Z</time>
      </trkpt>
      <trkpt lat="42.171077" lon="-2.707135">
        <ele>1097.5</ele>
        <time>2021-07-04T12:23:18.000Z</time>
      </trkpt>
      <trkpt lat="42.170942" lon="-2.707197">
        <ele>1097.2</ele>
        <time>2021-07-04T12:23:20.000Z</time>
      </trkpt>
      <trkpt lat="42.170793" lon="-2.707207">
        <ele>1097.2</ele>
        <time>2021-07-04T12:23:22.000Z</time>
      </trkpt>
      <trkpt lat="42.170637" lon="-2.707197">
        <ele>1095.3</ele>
        <time>2021-07-04T12:23:24.000Z</time>
      </trkpt>
      <trkpt lat="42.170480" lon="-2.707213">
        <ele>1093.6</ele>
        <time>2021-07-04T12:23:26.000Z</time>
      </trkpt>
      <trkpt lat="42.170328" lon="-2.707250">
        <ele>1092.6</ele>
        <time>2021-07-04T12:23:28.000Z</time>
      </trkpt>
      <trkpt lat="42.170183" lon="-2.707288">
        <ele>1091.3</ele>
        <time>2021-07-04T12:23:30.000Z</time>
      </trkpt>
      <trkpt lat="42.170055" lon="-2.707308">
        <ele>1089.7</ele>
        <time>2021-07-04T12:23:32.000Z</time>
      </trkpt>
      <trkpt lat="42.169943" lon="-2.707260">
        <ele>1088.5</ele>
        <time>2021-07-04T12:23:34.000Z</time>
      </trkpt>
      <trkpt lat="42.169878" lon="-2.707137">
        <ele>1088.4</ele>
        <time>2021-07-04T12:23:36.000Z</time>
      </trkpt>
      <trkpt lat="42.169865" lon="-2.706987">
        <ele>1088.6</ele>
        <time>2021-07-04T12:23:38.000Z</time>
      </trkpt>
      <trkpt lat="42.169897" lon="-2.706855">
        <ele>1088.9</ele>
        <time>2021-07-04T12:23:40.000Z</time>
      </trkpt>
      <trkpt lat="42.169990" lon="-2.706740">
        <ele>1089.3</ele>
        <time>2021-07-04T12:23:43.000Z</time>
      </trkpt>
      <trkpt lat="42.170097" lon="-2.706668">
        <ele>1089.6</ele>
        <time>2021-07-04T12:23:46.000Z</time>
      </trkpt>
      <trkpt lat="42.170212" lon="-2.706597">
        <ele>1089.6</ele>
        <time>2021-07-04T12:23:49.000Z</time>
      </trkpt>
      <trkpt lat="42.170332" lon="-2.706513">
        <ele>1089.8</ele>
        <time>2021-07-04T12:23:52.000Z</time>
      </trkpt>
      <trkpt lat="42.170422" lon="-2.706445">
        <ele>1089.8</ele>
        <time>2021-07-04T12:23:54.000Z</time>
      </trkpt>
      <trkpt lat="42.170522" lon="-2.706363">
        <ele>1090.2</ele>
        <time>2021-07-04T12:23:56.000Z</time>
      </trkpt>
      <trkpt lat="42.170633" lon="-2.706270">
        <ele>1088.7</ele>
        <time>2021-07-04T12:23:58.000Z</time>
      </trkpt>
      <trkpt lat="42.170760" lon="-2.706180">
        <ele>1088.3</ele>
        <time>2021-07-04T12:24:00.000Z</time>
      </trkpt>
      <trkpt lat="42.170900" lon="-2.706090">
        <ele>1086.3</ele>
        <time>2021-07-04T12:24:02.000Z</time>
      </trkpt>
      <trkpt lat="42.171043" lon="-2.705990">
        <ele>1085.4</ele>
        <time>2021-07-04T12:24:04.000Z</time>
      </trkpt>
      <trkpt lat="42.171188" lon="-2.705912">
        <ele>1085.2</ele>
        <time>2021-07-04T12:24:06.000Z</time>
      </trkpt>
      <trkpt lat="42.171338" lon="-2.705850">
        <ele>1084.1</ele>
        <time>2021-07-04T12:24:08.000Z</time>
      </trkpt>
      <trkpt lat="42.171497" lon="-2.705795">
        <ele>1082.9</ele>
        <time>2021-07-04T12:24:10.000Z</time>
      </trkpt>
      <trkpt lat="42.171653" lon="-2.705732">
        <ele>1082.1</ele>
        <time>2021-07-04T12:24:12.000Z</time>
      </trkpt>
      <trkpt lat="42.171812" lon="-2.705677">
        <ele>1081.0</ele>
        <time>2021-07-04T12:24:14.000Z</time>
      </trkpt>
      <trkpt lat="42.171960" lon="-2.705653">
        <ele>1081.0</ele>
        <time>2021-07-04T12:24:16.000Z</time>
      </trkpt>
      <trkpt lat="42.172092" lon="-2.705673">
        <ele>1080.3</ele>
        <time>2021-07-04T12:24:18.000Z</time>
      </trkpt>
      <trkpt lat="42.172198" lon="-2.705707">
        <ele>1079.8</ele>
        <time>2021-07-04T12:24:20.000Z</time>
      </trkpt>
      <trkpt lat="42.172312" lon="-2.705713">
        <ele>1079.7</ele>
        <time>2021-07-04T12:24:23.000Z</time>
      </trkpt>
      <trkpt lat="42.172350" lon="-2.705713">
        <ele>1080.1</ele>
        <time>2021-07-04T12:24:28.000Z</time>
      </trkpt>
      <trkpt lat="42.172353" lon="-2.705715">
        <ele>1080.1</ele>
        <time>2021-07-04T12:25:03.000Z</time>
      </trkpt>
      <trkpt lat="42.172358" lon="-2.705717">
        <ele>1080.3</ele>
        <time>2021-07-04T12:25:05.000Z</time>
      </trkpt>
      <trkpt lat="42.172360" lon="-2.705717">
        <ele>1080.4</ele>
        <time>2021-07-04T12:25:06.000Z</time>
      </trkpt>
      <trkpt lat="42.172360" lon="-2.705717">
        <ele>1080.5</ele>
        <time>2021-07-04T12:25:07.000Z</time>
      </trkpt>
      <trkpt lat="42.172358" lon="-2.705717">
        <ele>1080.6</ele>
        <time>2021-07-04T12:25:40.000Z</time>
      </trkpt>
      <trkpt lat="42.172358" lon="-2.705717">
        <ele>1080.6</ele>
        <time>2021-07-04T12:25:41.000Z</time>
      </trkpt>
      <trkpt lat="42.172360" lon="-2.705720">
        <ele>1081.3</ele>
        <time>2021-07-04T12:26:03.000Z</time>
      </trkpt>
      <trkpt lat="42.172360" lon="-2.705720">
        <ele>1081.1</ele>
        <time>2021-07-04T12:26:04.000Z</time>
      </trkpt>
      <trkpt lat="42.172362" lon="-2.705722">
        <ele>1081.0</ele>
        <time>2021-07-04T12:26:05.000Z</time>
      </trkpt>
      <trkpt lat="42.172472" lon="-2.705740">
        <ele>1081.0</ele>
        <time>2021-07-04T12:26:11.000Z</time>
      </trkpt>
      <trkpt lat="42.172602" lon="-2.705730">
        <ele>1079.1</ele>
        <time>2021-07-04T12:26:14.000Z</time>
      </trkpt>
      <trkpt lat="42.172710" lon="-2.705657">
        <ele>1077.5</ele>
        <time>2021-07-04T12:26:16.000Z</time>
      </trkpt>
      <trkpt lat="42.172823" lon="-2.705562">
        <ele>1075.5</ele>
        <time>2021-07-04T12:26:18.000Z</time>
      </trkpt>
      <trkpt lat="42.172943" lon="-2.705498">
        <ele>1074.0</ele>
        <time>2021-07-04T12:26:20.000Z</time>
      </trkpt>
      <trkpt lat="42.173073" lon="-2.705487">
        <ele>1072.4</ele>
        <time>2021-07-04T12:26:22.000Z</time>
      </trkpt>
      <trkpt lat="42.173213" lon="-2.705512">
        <ele>1069.5</ele>
        <time>2021-07-04T12:26:24.000Z</time>
      </trkpt>
      <trkpt lat="42.173347" lon="-2.705560">
        <ele>1067.6</ele>
        <time>2021-07-04T12:26:26.000Z</time>
      </trkpt>
      <trkpt lat="42.173458" lon="-2.705582">
        <ele>1066.4</ele>
        <time>2021-07-04T12:26:28.000Z</time>
      </trkpt>
      <trkpt lat="42.173568" lon="-2.705583">
        <ele>1065.8</ele>
        <time>2021-07-04T12:26:30.000Z</time>
      </trkpt>
      <trkpt lat="42.173690" lon="-2.705657">
        <ele>1063.0</ele>
        <time>2021-07-04T12:26:33.000Z</time>
      </trkpt>
      <trkpt lat="42.173817" lon="-2.705698">
        <ele>1062.3</ele>
        <time>2021-07-04T12:26:36.000Z</time>
      </trkpt>
      <trkpt lat="42.173943" lon="-2.705655">
        <ele>1062.4</ele>
        <time>2021-07-04T12:26:39.000Z</time>
      </trkpt>
      <trkpt lat="42.174040" lon="-2.705607">
        <ele>1062.2</ele>
        <time>2021-07-04T12:26:41.000Z</time>
      </trkpt>
      <trkpt lat="42.174160" lon="-2.705627">
        <ele>1061.5</ele>
        <time>2021-07-04T12:26:44.000Z</time>
      </trkpt>
      <trkpt lat="42.174268" lon="-2.705602">
        <ele>1060.8</ele>
        <time>2021-07-04T12:26:47.000Z</time>
      </trkpt>
      <trkpt lat="42.174345" lon="-2.705530">
        <ele>1060.0</ele>
        <time>2021-07-04T12:26:50.000Z</time>
      </trkpt>
      <trkpt lat="42.174433" lon="-2.705453">
        <ele>1059.0</ele>
        <time>2021-07-04T12:26:54.000Z</time>
      </trkpt>
      <trkpt lat="42.174503" lon="-2.705350">
        <ele>1058.7</ele>
        <time>2021-07-04T12:26:59.000Z</time>
      </trkpt>
      <trkpt lat="42.174563" lon="-2.705242">
        <ele>1058.0</ele>
        <time>2021-07-04T12:27:03.000Z</time>
      </trkpt>
      <trkpt lat="42.174638" lon="-2.705123">
        <ele>1057.4</ele>
        <time>2021-07-04T12:27:07.000Z</time>
      </trkpt>
      <trkpt lat="42.174705" lon="-2.705020">
        <ele>1057.3</ele>
        <time>2021-07-04T12:27:10.000Z</time>
      </trkpt>
      <trkpt lat="42.174777" lon="-2.704920">
        <ele>1056.4</ele>
        <time>2021-07-04T12:27:13.000Z</time>
      </trkpt>
      <trkpt lat="42.174880" lon="-2.704857">
        <ele>1056.8</ele>
        <time>2021-07-04T12:27:16.000Z</time>
      </trkpt>
      <trkpt lat="42.174998" lon="-2.704885">
        <ele>1055.7</ele>
        <time>2021-07-04T12:27:19.000Z</time>
      </trkpt>
      <trkpt lat="42.175108" lon="-2.704953">
        <ele>1056.0</ele>
        <time>2021-07-04T12:27:22.000Z</time>
      </trkpt>
      <trkpt lat="42.175217" lon="-2.704993">
        <ele>1055.0</ele>
        <time>2021-07-04T12:27:25.000Z</time>
      </trkpt>
      <trkpt lat="42.175318" lon="-2.704983">
        <ele>1054.3</ele>
        <time>2021-07-04T12:27:28.000Z</time>
      </trkpt>
      <trkpt lat="42.175410" lon="-2.704965">
        <ele>1053.4</ele>
        <time>2021-07-04T12:27:31.000Z</time>
      </trkpt>
      <trkpt lat="42.175502" lon="-2.704947">
        <ele>1053.2</ele>
        <time>2021-07-04T12:27:35.000Z</time>
      </trkpt>
      <trkpt lat="42.175590" lon="-2.704912">
        <ele>1052.2</ele>
        <time>2021-07-04T12:27:41.000Z</time>
      </trkpt>
      <trkpt lat="42.175635" lon="-2.704892">
        <ele>1052.0</ele>
        <time>2021-07-04T12:27:53.000Z</time>
      </trkpt>
      <trkpt lat="42.175633" lon="-2.704892">
        <ele>1052.6</ele>
        <time>2021-07-04T12:28:03.000Z</time>
      </trkpt>
      <trkpt lat="42.175633" lon="-2.704892">
        <ele>1052.8</ele>
        <time>2021-07-04T12:28:04.000Z</time>
      </trkpt>
      <trkpt lat="42.175632" lon="-2.704892">
        <ele>1052.6</ele>
        <time>2021-07-04T12:28:42.000Z</time>
      </trkpt>
      <trkpt lat="42.175632" lon="-2.704892">
        <ele>1052.5</ele>
        <time>2021-07-04T12:28:43.000Z</time>
      </trkpt>
      <trkpt lat="42.175630" lon="-2.704892">
        <ele>1052.3</ele>
        <time>2021-07-04T12:29:10.000Z</time>
      </trkpt>
      <trkpt lat="42.175630" lon="-2.704892">
        <ele>1052.3</ele>
        <time>2021-07-04T12:29:11.000Z</time>
      </trkpt>
      <trkpt lat="42.175628" lon="-2.704892">
        <ele>1052.6</ele>
        <time>2021-07-04T12:29:57.000Z</time>
      </trkpt>
      <trkpt lat="42.175628" lon="-2.704892">
        <ele>1052.5</ele>
        <time>2021-07-04T12:29:58.000Z</time>
      </trkpt>
      <trkpt lat="42.175627" lon="-2.704892">
        <ele>1053.8</ele>
        <time>2021-07-04T12:30:38.000Z</time>
      </trkpt>
      <trkpt lat="42.175627" lon="-2.704892">
        <ele>1053.6</ele>
        <time>2021-07-04T12:30:39.000Z</time>
      </trkpt>
      <trkpt lat="42.175625" lon="-2.704892">
        <ele>1052.7</ele>
        <time>2021-07-04T12:31:32.000Z</time>
      </trkpt>
      <trkpt lat="42.175625" lon="-2.704892">
        <ele>1052.8</ele>
        <time>2021-07-04T12:31:33.000Z</time>
      </trkpt>
      <trkpt lat="42.175623" lon="-2.704893">
        <ele>1053.2</ele>
        <time>2021-07-04T12:32:48.000Z</time>
      </trkpt>
      <trkpt lat="42.175623" lon="-2.704893">
        <ele>1053.1</ele>
        <time>2021-07-04T12:32:49.000Z</time>
      </trkpt>
      <trkpt lat="42.175622" lon="-2.704895">
        <ele>1053.1</ele>
        <time>2021-07-04T12:34:09.000Z</time>
      </trkpt>
      <trkpt lat="42.175622" lon="-2.704895">
        <ele>1053.0</ele>
        <time>2021-07-04T12:34:10.000Z</time>
      </trkpt>
      <trkpt lat="42.175620" lon="-2.704898">
        <ele>1053.1</ele>
        <time>2021-07-04T12:35:16.000Z</time>
      </trkpt>
      <trkpt lat="42.175605" lon="-2.704912">
        <ele>1053.3</ele>
        <time>2021-07-04T12:35:22.000Z</time>
      </trkpt>
      <trkpt lat="42.175603" lon="-2.704913">
        <ele>1053.3</ele>
        <time>2021-07-04T12:35:23.000Z</time>
      </trkpt>
      <trkpt lat="42.175603" lon="-2.704913">
        <ele>1053.5</ele>
        <time>2021-07-04T12:35:24.000Z</time>
      </trkpt>
      <trkpt lat="42.175598" lon="-2.704915">
        <ele>1053.3</ele>
        <time>2021-07-04T12:35:29.000Z</time>
      </trkpt>
      <trkpt lat="42.175617" lon="-2.704915">
        <ele>1053.5</ele>
        <time>2021-07-04T12:35:39.000Z</time>
      </trkpt>
      <trkpt lat="42.175615" lon="-2.704915">
        <ele>1053.8</ele>
        <time>2021-07-04T12:36:31.000Z</time>
      </trkpt>
      <trkpt lat="42.175615" lon="-2.704915">
        <ele>1053.9</ele>
        <time>2021-07-04T12:36:32.000Z</time>
      </trkpt>
      <trkpt lat="42.175613" lon="-2.704917">
        <ele>1053.0</ele>
        <time>2021-07-04T12:41:02.000Z</time>
      </trkpt>
      <trkpt lat="42.175613" lon="-2.704917">
        <ele>1053.1</ele>
        <time>2021-07-04T12:41:03.000Z</time>
      </trkpt>
      <trkpt lat="42.175612" lon="-2.704922">
        <ele>1053.4</ele>
        <time>2021-07-04T12:44:20.000Z</time>
      </trkpt>
      <trkpt lat="42.175612" lon="-2.704922">
        <ele>1053.3</ele>
        <time>2021-07-04T12:44:21.000Z</time>
      </trkpt>
      <trkpt lat="42.175613" lon="-2.704922">
        <ele>1053.3</ele>
        <time>2021-07-04T12:45:03.000Z</time>
      </trkpt>
      <trkpt lat="42.175613" lon="-2.704922">
        <ele>1053.4</ele>
        <time>2021-07-04T12:45:04.000Z</time>
      </trkpt>
      <trkpt lat="42.175612" lon="-2.704922">
        <ele>1053.2</ele>
        <time>2021-07-04T12:45:17.000Z</time>
      </trkpt>
      <trkpt lat="42.175612" lon="-2.704922">
        <ele>1053.1</ele>
        <time>2021-07-04T12:45:18.000Z</time>
      </trkpt>
      <trkpt lat="42.175613" lon="-2.704923">
        <ele>1054.2</ele>
        <time>2021-07-04T12:46:41.000Z</time>
      </trkpt>
      <trkpt lat="42.175613" lon="-2.704923">
        <ele>1054.2</ele>
        <time>2021-07-04T12:46:42.000Z</time>
      </trkpt>
      <trkpt lat="42.175612" lon="-2.704923">
        <ele>1054.0</ele>
        <time>2021-07-04T12:46:55.000Z</time>
      </trkpt>
      <trkpt lat="42.175612" lon="-2.704923">
        <ele>1053.9</ele>
        <time>2021-07-04T12:46:56.000Z</time>
      </trkpt>
      <trkpt lat="42.175613" lon="-2.704925">
        <ele>1053.3</ele>
        <time>2021-07-04T12:47:57.000Z</time>
      </trkpt>
      <trkpt lat="42.175613" lon="-2.704925">
        <ele>1053.2</ele>
        <time>2021-07-04T12:47:58.000Z</time>
      </trkpt>
      <trkpt lat="42.175612" lon="-2.704927">
        <ele>1054.1</ele>
        <time>2021-07-04T12:48:47.000Z</time>
      </trkpt>
      <trkpt lat="42.175612" lon="-2.704927">
        <ele>1054.3</ele>
        <time>2021-07-04T12:48:48.000Z</time>
      </trkpt>
      <trkpt lat="42.175613" lon="-2.704930">
        <ele>1054.5</ele>
        <time>2021-07-04T12:50:48.000Z</time>
      </trkpt>
      <trkpt lat="42.175613" lon="-2.704930">
        <ele>1054.5</ele>
        <time>2021-07-04T12:50:49.000Z</time>
      </trkpt>
      <trkpt lat="42.175612" lon="-2.704930">
        <ele>1055.0</ele>
        <time>2021-07-04T12:51:26.000Z</time>
      </trkpt>
      <trkpt lat="42.175612" lon="-2.704930">
        <ele>1055.0</ele>
        <time>2021-07-04T12:51:27.000Z</time>
      </trkpt>
      <trkpt lat="42.175610" lon="-2.704930">
        <ele>1056.5</ele>
        <time>2021-07-04T12:53:13.000Z</time>
      </trkpt>
      <trkpt lat="42.175610" lon="-2.704930">
        <ele>1056.3</ele>
        <time>2021-07-04T12:53:14.000Z</time>
      </trkpt>
      <trkpt lat="42.175612" lon="-2.704935">
        <ele>1055.0</ele>
        <time>2021-07-04T12:57:42.000Z</time>
      </trkpt>
      <trkpt lat="42.175612" lon="-2.704935">
        <ele>1055.1</ele>
        <time>2021-07-04T12:57:43.000Z</time>
      </trkpt>
      <trkpt lat="42.175610" lon="-2.704935">
        <ele>1054.8</ele>
        <time>2021-07-04T12:57:51.000Z</time>
      </trkpt>
      <trkpt lat="42.175610" lon="-2.704935">
        <ele>1054.8</ele>
        <time>2021-07-04T12:57:52.000Z</time>
      </trkpt>
      <trkpt lat="42.175608" lon="-2.704942">
        <ele>1054.1</ele>
        <time>2021-07-04T12:59:49.000Z</time>
      </trkpt>
      <trkpt lat="42.175608" lon="-2.704942">
        <ele>1054.1</ele>
        <time>2021-07-04T12:59:50.000Z</time>
      </trkpt>
      <trkpt lat="42.175610" lon="-2.704943">
        <ele>1054.3</ele>
        <time>2021-07-04T13:01:43.000Z</time>
      </trkpt>
      <trkpt lat="42.175610" lon="-2.704943">
        <ele>1054.4</ele>
        <time>2021-07-04T13:01:44.000Z</time>
      </trkpt>
      <trkpt lat="42.175612" lon="-2.704945">
        <ele>1054.7</ele>
        <time>2021-07-04T13:03:34.000Z</time>
      </trkpt>
      <trkpt lat="42.175612" lon="-2.704945">
        <ele>1054.6</ele>
        <time>2021-07-04T13:03:35.000Z</time>
      </trkpt>
      <trkpt lat="42.175613" lon="-2.704948">
        <ele>1054.5</ele>
        <time>2021-07-04T13:04:10.000Z</time>
      </trkpt>
      <trkpt lat="42.175613" lon="-2.704948">
        <ele>1054.4</ele>
        <time>2021-07-04T13:04:11.000Z</time>
      </trkpt>
      <trkpt lat="42.175615" lon="-2.704955">
        <ele>1054.1</ele>
        <time>2021-07-04T13:04:40.000Z</time>
      </trkpt>
      <trkpt lat="42.175615" lon="-2.704955">
        <ele>1054.1</ele>
        <time>2021-07-04T13:04:41.000Z</time>
      </trkpt>
      <trkpt lat="42.175617" lon="-2.704958">
        <ele>1054.2</ele>
        <time>2021-07-04T13:05:13.000Z</time>
      </trkpt>
      <trkpt lat="42.175617" lon="-2.704958">
        <ele>1054.2</ele>
        <time>2021-07-04T13:05:14.000Z</time>
      </trkpt>
      <trkpt lat="42.175618" lon="-2.704965">
        <ele>1054.1</ele>
        <time>2021-07-04T13:05:45.000Z</time>
      </trkpt>
      <trkpt lat="42.175618" lon="-2.704965">
        <ele>1054.3</ele>
        <time>2021-07-04T13:05:46.000Z</time>
      </trkpt>
      <trkpt lat="42.175620" lon="-2.704970">
        <ele>1054.9</ele>
        <time>2021-07-04T13:06:14.000Z</time>
      </trkpt>
      <trkpt lat="42.175620" lon="-2.704970">
        <ele>1055.0</ele>
        <time>2021-07-04T13:06:15.000Z</time>
      </trkpt>
      <trkpt lat="42.175622" lon="-2.704978">
        <ele>1055.1</ele>
        <time>2021-07-04T13:06:46.000Z</time>
      </trkpt>
      <trkpt lat="42.175622" lon="-2.704978">
        <ele>1055.2</ele>
        <time>2021-07-04T13:06:47.000Z</time>
      </trkpt>
      <trkpt lat="42.175623" lon="-2.704978">
        <ele>1055.3</ele>
        <time>2021-07-04T13:07:28.000Z</time>
      </trkpt>
      <trkpt lat="42.175623" lon="-2.704978">
        <ele>1055.2</ele>
        <time>2021-07-04T13:07:29.000Z</time>
      </trkpt>
      <trkpt lat="42.175625" lon="-2.704977">
        <ele>1055.4</ele>
        <time>2021-07-04T13:08:09.000Z</time>
      </trkpt>
      <trkpt lat="42.175625" lon="-2.704977">
        <ele>1055.4</ele>
        <time>2021-07-04T13:08:10.000Z</time>
      </trkpt>
      <trkpt lat="42.175627" lon="-2.704978">
        <ele>1055.3</ele>
        <time>2021-07-04T13:09:12.000Z</time>
      </trkpt>
      <trkpt lat="42.175627" lon="-2.704978">
        <ele>1055.5</ele>
        <time>2021-07-04T13:09:13.000Z</time>
      </trkpt>
      <trkpt lat="42.175625" lon="-2.704978">
        <ele>1055.5</ele>
        <time>2021-07-04T13:09:14.000Z</time>
      </trkpt>
      <trkpt lat="42.175625" lon="-2.704978">
        <ele>1055.4</ele>
        <time>2021-07-04T13:09:15.000Z</time>
      </trkpt>
      <trkpt lat="42.175623" lon="-2.704978">
        <ele>1055.3</ele>
        <time>2021-07-04T13:09:34.000Z</time>
      </trkpt>
      <trkpt lat="42.175623" lon="-2.704978">
        <ele>1055.4</ele>
        <time>2021-07-04T13:09:35.000Z</time>
      </trkpt>
      <trkpt lat="42.175622" lon="-2.704982">
        <ele>1055.6</ele>
        <time>2021-07-04T13:09:46.000Z</time>
      </trkpt>
      <trkpt lat="42.175622" lon="-2.704982">
        <ele>1055.5</ele>
        <time>2021-07-04T13:09:47.000Z</time>
      </trkpt>
      <trkpt lat="42.175620" lon="-2.704983">
        <ele>1055.0</ele>
        <time>2021-07-04T13:09:53.000Z</time>
      </trkpt>
      <trkpt lat="42.175620" lon="-2.704985">
        <ele>1055.2</ele>
        <time>2021-07-04T13:09:54.000Z</time>
      </trkpt>
      <trkpt lat="42.175615" lon="-2.704993">
        <ele>1055.3</ele>
        <time>2021-07-04T13:09:55.000Z</time>
      </trkpt>
      <trkpt lat="42.175615" lon="-2.704993">
        <ele>1055.2</ele>
        <time>2021-07-04T13:09:56.000Z</time>
      </trkpt>
      <trkpt lat="42.175613" lon="-2.704993">
        <ele>1055.2</ele>
        <time>2021-07-04T13:10:17.000Z</time>
      </trkpt>
      <trkpt lat="42.175613" lon="-2.704993">
        <ele>1055.4</ele>
        <time>2021-07-04T13:10:18.000Z</time>
      </trkpt>
      <trkpt lat="42.175612" lon="-2.704998">
        <ele>1055.8</ele>
        <time>2021-07-04T13:12:03.000Z</time>
      </trkpt>
      <trkpt lat="42.175612" lon="-2.704998">
        <ele>1055.8</ele>
        <time>2021-07-04T13:12:04.000Z</time>
      </trkpt>
      <trkpt lat="42.175610" lon="-2.704998">
        <ele>1055.7</ele>
        <time>2021-07-04T13:12:32.000Z</time>
      </trkpt>
      <trkpt lat="42.175610" lon="-2.704998">
        <ele>1055.7</ele>
        <time>2021-07-04T13:12:33.000Z</time>
      </trkpt>
      <trkpt lat="42.175608" lon="-2.704998">
        <ele>1055.6</ele>
        <time>2021-07-04T13:12:39.000Z</time>
      </trkpt>
      <trkpt lat="42.175608" lon="-2.704998">
        <ele>1055.8</ele>
        <time>2021-07-04T13:12:40.000Z</time>
      </trkpt>
      <trkpt lat="42.175607" lon="-2.705002">
        <ele>1057.6</ele>
        <time>2021-07-04T13:14:02.000Z</time>
      </trkpt>
      <trkpt lat="42.175607" lon="-2.705002">
        <ele>1057.4</ele>
        <time>2021-07-04T13:14:03.000Z</time>
      </trkpt>
      <trkpt lat="42.175605" lon="-2.705005">
        <ele>1057.3</ele>
        <time>2021-07-04T13:14:35.000Z</time>
      </trkpt>
      <trkpt lat="42.175605" lon="-2.705005">
        <ele>1057.4</ele>
        <time>2021-07-04T13:14:36.000Z</time>
      </trkpt>
      <trkpt lat="42.175607" lon="-2.705005">
        <ele>1057.4</ele>
        <time>2021-07-04T13:14:39.000Z</time>
      </trkpt>
      <trkpt lat="42.175607" lon="-2.705005">
        <ele>1057.5</ele>
        <time>2021-07-04T13:14:40.000Z</time>
      </trkpt>
      <trkpt lat="42.175608" lon="-2.705005">
        <ele>1057.1</ele>
        <time>2021-07-04T13:15:46.000Z</time>
      </trkpt>
      <trkpt lat="42.175608" lon="-2.705005">
        <ele>1057.2</ele>
        <time>2021-07-04T13:15:47.000Z</time>
      </trkpt>
      <trkpt lat="42.175607" lon="-2.705007">
        <ele>1057.4</ele>
        <time>2021-07-04T13:16:26.000Z</time>
      </trkpt>
      <trkpt lat="42.175607" lon="-2.705007">
        <ele>1057.4</ele>
        <time>2021-07-04T13:16:27.000Z</time>
      </trkpt>
      <trkpt lat="42.175608" lon="-2.705012">
        <ele>1057.3</ele>
        <time>2021-07-04T13:18:36.000Z</time>
      </trkpt>
      <trkpt lat="42.175608" lon="-2.705012">
        <ele>1057.3</ele>
        <time>2021-07-04T13:18:37.000Z</time>
      </trkpt>
      <trkpt lat="42.175610" lon="-2.705013">
        <ele>1057.0</ele>
        <time>2021-07-04T13:19:02.000Z</time>
      </trkpt>
      <trkpt lat="42.175610" lon="-2.705013">
        <ele>1057.0</ele>
        <time>2021-07-04T13:19:03.000Z</time>
      </trkpt>
      <trkpt lat="42.175612" lon="-2.705013">
        <ele>1057.1</ele>
        <time>2021-07-04T13:19:27.000Z</time>
      </trkpt>
      <trkpt lat="42.175612" lon="-2.705013">
        <ele>1057.1</ele>
        <time>2021-07-04T13:19:28.000Z</time>
      </trkpt>
      <trkpt lat="42.175613" lon="-2.705013">
        <ele>1056.9</ele>
        <time>2021-07-04T13:19:50.000Z</time>
      </trkpt>
      <trkpt lat="42.175613" lon="-2.705013">
        <ele>1057.2</ele>
        <time>2021-07-04T13:19:51.000Z</time>
      </trkpt>
      <trkpt lat="42.175615" lon="-2.705015">
        <ele>1057.5</ele>
        <time>2021-07-04T13:20:16.000Z</time>
      </trkpt>
      <trkpt lat="42.175615" lon="-2.705015">
        <ele>1057.6</ele>
        <time>2021-07-04T13:20:17.000Z</time>
      </trkpt>
      <trkpt lat="42.175617" lon="-2.705018">
        <ele>1057.5</ele>
        <time>2021-07-04T13:20:38.000Z</time>
      </trkpt>
      <trkpt lat="42.175617" lon="-2.705018">
        <ele>1057.5</ele>
        <time>2021-07-04T13:20:39.000Z</time>
      </trkpt>
      <trkpt lat="42.175618" lon="-2.705018">
        <ele>1057.7</ele>
        <time>2021-07-04T13:21:03.000Z</time>
      </trkpt>
      <trkpt lat="42.175618" lon="-2.705018">
        <ele>1057.5</ele>
        <time>2021-07-04T13:21:04.000Z</time>
      </trkpt>
      <trkpt lat="42.175620" lon="-2.705020">
        <ele>1057.1</ele>
        <time>2021-07-04T13:21:35.000Z</time>
      </trkpt>
      <trkpt lat="42.175620" lon="-2.705020">
        <ele>1057.3</ele>
        <time>2021-07-04T13:21:36.000Z</time>
      </trkpt>
      <trkpt lat="42.175622" lon="-2.705020">
        <ele>1057.7</ele>
        <time>2021-07-04T13:22:30.000Z</time>
      </trkpt>
      <trkpt lat="42.175622" lon="-2.705020">
        <ele>1057.6</ele>
        <time>2021-07-04T13:22:31.000Z</time>
      </trkpt>
      <trkpt lat="42.175625" lon="-2.705023">
        <ele>1060.2</ele>
        <time>2021-07-04T13:23:20.000Z</time>
      </trkpt>
      <trkpt lat="42.175625" lon="-2.705023">
        <ele>1059.4</ele>
        <time>2021-07-04T13:23:21.000Z</time>
      </trkpt>
      <trkpt lat="42.175622" lon="-2.705023">
        <ele>1058.6</ele>
        <time>2021-07-04T13:23:36.000Z</time>
      </trkpt>
      <trkpt lat="42.175592" lon="-2.705008">
        <ele>1057.5</ele>
        <time>2021-07-04T13:23:55.000Z</time>
      </trkpt>
      <trkpt lat="42.175593" lon="-2.705007">
        <ele>1057.4</ele>
        <time>2021-07-04T13:23:57.000Z</time>
      </trkpt>
      <trkpt lat="42.175617" lon="-2.704995">
        <ele>1057.4</ele>
        <time>2021-07-04T13:24:01.000Z</time>
      </trkpt>
      <trkpt lat="42.175618" lon="-2.704993">
        <ele>1057.6</ele>
        <time>2021-07-04T13:24:03.000Z</time>
      </trkpt>
      <trkpt lat="42.175620" lon="-2.704988">
        <ele>1057.3</ele>
        <time>2021-07-04T13:24:05.000Z</time>
      </trkpt>
      <trkpt lat="42.175622" lon="-2.704985">
        <ele>1057.1</ele>
        <time>2021-07-04T13:24:31.000Z</time>
      </trkpt>
      <trkpt lat="42.175622" lon="-2.704985">
        <ele>1057.0</ele>
        <time>2021-07-04T13:24:32.000Z</time>
      </trkpt>
      <trkpt lat="42.175620" lon="-2.704985">
        <ele>1057.0</ele>
        <time>2021-07-04T13:24:36.000Z</time>
      </trkpt>
      <trkpt lat="42.175620" lon="-2.704985">
        <ele>1057.1</ele>
        <time>2021-07-04T13:24:37.000Z</time>
      </trkpt>
      <trkpt lat="42.175618" lon="-2.704980">
        <ele>1057.1</ele>
        <time>2021-07-04T13:24:39.000Z</time>
      </trkpt>
      <trkpt lat="42.175632" lon="-2.704972">
        <ele>1056.9</ele>
        <time>2021-07-04T13:24:46.000Z</time>
      </trkpt>
      <trkpt lat="42.175628" lon="-2.704973">
        <ele>1057.8</ele>
        <time>2021-07-04T13:25:02.000Z</time>
      </trkpt>
      <trkpt lat="42.175630" lon="-2.704973">
        <ele>1057.8</ele>
        <time>2021-07-04T13:25:04.000Z</time>
      </trkpt>
      <trkpt lat="42.175628" lon="-2.704973">
        <ele>1058.0</ele>
        <time>2021-07-04T13:25:11.000Z</time>
      </trkpt>
      <trkpt lat="42.175628" lon="-2.704973">
        <ele>1058.0</ele>
        <time>2021-07-04T13:25:12.000Z</time>
      </trkpt>
      <trkpt lat="42.175627" lon="-2.704975">
        <ele>1057.6</ele>
        <time>2021-07-04T13:25:38.000Z</time>
      </trkpt>
      <trkpt lat="42.175627" lon="-2.704973">
        <ele>1057.7</ele>
        <time>2021-07-04T13:25:39.000Z</time>
      </trkpt>
      <trkpt lat="42.175628" lon="-2.704972">
        <ele>1057.5</ele>
        <time>2021-07-04T13:25:44.000Z</time>
      </trkpt>
      <trkpt lat="42.175630" lon="-2.704968">
        <ele>1057.6</ele>
        <time>2021-07-04T13:25:46.000Z</time>
      </trkpt>
      <trkpt lat="42.175632" lon="-2.704963">
        <ele>1057.4</ele>
        <time>2021-07-04T13:26:29.000Z</time>
      </trkpt>
      <trkpt lat="42.175632" lon="-2.704957">
        <ele>1057.5</ele>
        <time>2021-07-04T13:26:31.000Z</time>
      </trkpt>
      <trkpt lat="42.175630" lon="-2.704955">
        <ele>1057.3</ele>
        <time>2021-07-04T13:26:42.000Z</time>
      </trkpt>
      <trkpt lat="42.175633" lon="-2.704953">
        <ele>1057.4</ele>
        <time>2021-07-04T13:26:46.000Z</time>
      </trkpt>
      <trkpt lat="42.175635" lon="-2.704953">
        <ele>1057.0</ele>
        <time>2021-07-04T13:26:50.000Z</time>
      </trkpt>
      <trkpt lat="42.175635" lon="-2.704953">
        <ele>1057.0</ele>
        <time>2021-07-04T13:26:51.000Z</time>
      </trkpt>
      <trkpt lat="42.175633" lon="-2.704948">
        <ele>1057.2</ele>
        <time>2021-07-04T13:26:56.000Z</time>
      </trkpt>
      <trkpt lat="42.175630" lon="-2.704942">
        <ele>1057.1</ele>
        <time>2021-07-04T13:26:58.000Z</time>
      </trkpt>
      <trkpt lat="42.175632" lon="-2.704942">
        <ele>1057.1</ele>
        <time>2021-07-04T13:27:06.000Z</time>
      </trkpt>
      <trkpt lat="42.175632" lon="-2.704940">
        <ele>1057.2</ele>
        <time>2021-07-04T13:27:07.000Z</time>
      </trkpt>
      <trkpt lat="42.175633" lon="-2.704925">
        <ele>1055.0</ele>
        <time>2021-07-04T13:29:19.000Z</time>
      </trkpt>
      <trkpt lat="42.175633" lon="-2.704925">
        <ele>1055.1</ele>
        <time>2021-07-04T13:29:22.000Z</time>
      </trkpt>
      <trkpt lat="42.175632" lon="-2.704925">
        <ele>1055.1</ele>
        <time>2021-07-04T13:29:26.000Z</time>
      </trkpt>
      <trkpt lat="42.175632" lon="-2.704925">
        <ele>1055.2</ele>
        <time>2021-07-04T13:29:27.000Z</time>
      </trkpt>
      <trkpt lat="42.175630" lon="-2.704927">
        <ele>1054.6</ele>
        <time>2021-07-04T13:29:58.000Z</time>
      </trkpt>
      <trkpt lat="42.175630" lon="-2.704930">
        <ele>1054.4</ele>
        <time>2021-07-04T13:30:00.000Z</time>
      </trkpt>
      <trkpt lat="42.175632" lon="-2.704930">
        <ele>1054.3</ele>
        <time>2021-07-04T13:30:06.000Z</time>
      </trkpt>
      <trkpt lat="42.175632" lon="-2.704930">
        <ele>1054.4</ele>
        <time>2021-07-04T13:30:07.000Z</time>
      </trkpt>
      <trkpt lat="42.175637" lon="-2.704925">
        <ele>1054.4</ele>
        <time>2021-07-04T13:30:15.000Z</time>
      </trkpt>
      <trkpt lat="42.175637" lon="-2.704927">
        <ele>1054.5</ele>
        <time>2021-07-04T13:30:16.000Z</time>
      </trkpt>
      <trkpt lat="42.175638" lon="-2.704920">
        <ele>1054.3</ele>
        <time>2021-07-04T13:30:20.000Z</time>
      </trkpt>
      <trkpt lat="42.175638" lon="-2.704920">
        <ele>1054.3</ele>
        <time>2021-07-04T13:30:21.000Z</time>
      </trkpt>
      <trkpt lat="42.175638" lon="-2.704917">
        <ele>1054.6</ele>
        <time>2021-07-04T13:30:27.000Z</time>
      </trkpt>
      <trkpt lat="42.175638" lon="-2.704917">
        <ele>1054.5</ele>
        <time>2021-07-04T13:30:28.000Z</time>
      </trkpt>
      <trkpt lat="42.175640" lon="-2.704917">
        <ele>1054.5</ele>
        <time>2021-07-04T13:30:30.000Z</time>
      </trkpt>
      <trkpt lat="42.175640" lon="-2.704917">
        <ele>1054.5</ele>
        <time>2021-07-04T13:30:31.000Z</time>
      </trkpt>
      <trkpt lat="42.175643" lon="-2.704917">
        <ele>1054.9</ele>
        <time>2021-07-04T13:31:00.000Z</time>
      </trkpt>
      <trkpt lat="42.175643" lon="-2.704917">
        <ele>1054.9</ele>
        <time>2021-07-04T13:31:01.000Z</time>
      </trkpt>
      <trkpt lat="42.175643" lon="-2.704920">
        <ele>1054.8</ele>
        <time>2021-07-04T13:31:06.000Z</time>
      </trkpt>
      <trkpt lat="42.175643" lon="-2.704918">
        <ele>1054.8</ele>
        <time>2021-07-04T13:31:07.000Z</time>
      </trkpt>
      <trkpt lat="42.175642" lon="-2.704917">
        <ele>1054.8</ele>
        <time>2021-07-04T13:31:23.000Z</time>
      </trkpt>
      <trkpt lat="42.175638" lon="-2.704912">
        <ele>1054.7</ele>
        <time>2021-07-04T13:31:28.000Z</time>
      </trkpt>
      <trkpt lat="42.175637" lon="-2.704912">
        <ele>1054.8</ele>
        <time>2021-07-04T13:31:30.000Z</time>
      </trkpt>
      <trkpt lat="42.175637" lon="-2.704912">
        <ele>1054.7</ele>
        <time>2021-07-04T13:31:31.000Z</time>
      </trkpt>
      <trkpt lat="42.175637" lon="-2.704908">
        <ele>1054.6</ele>
        <time>2021-07-04T13:31:46.000Z</time>
      </trkpt>
      <trkpt lat="42.175637" lon="-2.704908">
        <ele>1054.8</ele>
        <time>2021-07-04T13:31:47.000Z</time>
      </trkpt>
      <trkpt lat="42.175635" lon="-2.704907">
        <ele>1054.8</ele>
        <time>2021-07-04T13:31:52.000Z</time>
      </trkpt>
      <trkpt lat="42.175637" lon="-2.704907">
        <ele>1054.8</ele>
        <time>2021-07-04T13:31:54.000Z</time>
      </trkpt>
      <trkpt lat="42.175635" lon="-2.704908">
        <ele>1054.8</ele>
        <time>2021-07-04T13:31:55.000Z</time>
      </trkpt>
      <trkpt lat="42.175637" lon="-2.704910">
        <ele>1054.7</ele>
        <time>2021-07-04T13:31:57.000Z</time>
      </trkpt>
      <trkpt lat="42.175635" lon="-2.704912">
        <ele>1055.1</ele>
        <time>2021-07-04T13:32:43.000Z</time>
      </trkpt>
      <trkpt lat="42.175635" lon="-2.704915">
        <ele>1054.9</ele>
        <time>2021-07-04T13:32:45.000Z</time>
      </trkpt>
      <trkpt lat="42.175633" lon="-2.704915">
        <ele>1054.8</ele>
        <time>2021-07-04T13:33:22.000Z</time>
      </trkpt>
      <trkpt lat="42.175633" lon="-2.704915">
        <ele>1054.8</ele>
        <time>2021-07-04T13:33:23.000Z</time>
      </trkpt>
      <trkpt lat="42.175632" lon="-2.704910">
        <ele>1054.9</ele>
        <time>2021-07-04T13:34:48.000Z</time>
      </trkpt>
      <trkpt lat="42.175632" lon="-2.704910">
        <ele>1054.9</ele>
        <time>2021-07-04T13:34:49.000Z</time>
      </trkpt>
      <trkpt lat="42.175633" lon="-2.704908">
        <ele>1054.8</ele>
        <time>2021-07-04T13:35:20.000Z</time>
      </trkpt>
      <trkpt lat="42.175633" lon="-2.704908">
        <ele>1054.9</ele>
        <time>2021-07-04T13:35:21.000Z</time>
      </trkpt>
      <trkpt lat="42.175632" lon="-2.704908">
        <ele>1054.9</ele>
        <time>2021-07-04T13:35:33.000Z</time>
      </trkpt>
      <trkpt lat="42.175632" lon="-2.704908">
        <ele>1054.9</ele>
        <time>2021-07-04T13:35:34.000Z</time>
      </trkpt>
      <trkpt lat="42.175630" lon="-2.704908">
        <ele>1055.1</ele>
        <time>2021-07-04T13:35:50.000Z</time>
      </trkpt>
      <trkpt lat="42.175630" lon="-2.704915">
        <ele>1055.2</ele>
        <time>2021-07-04T13:35:52.000Z</time>
      </trkpt>
      <trkpt lat="42.175632" lon="-2.704922">
        <ele>1056.0</ele>
        <time>2021-07-04T13:35:56.000Z</time>
      </trkpt>
      <trkpt lat="42.175632" lon="-2.704928">
        <ele>1054.7</ele>
        <time>2021-07-04T13:35:58.000Z</time>
      </trkpt>
      <trkpt lat="42.175630" lon="-2.704923">
        <ele>1054.8</ele>
        <time>2021-07-04T13:35:59.000Z</time>
      </trkpt>
      <trkpt lat="42.175630" lon="-2.704922">
        <ele>1055.0</ele>
        <time>2021-07-04T13:36:00.000Z</time>
      </trkpt>
      <trkpt lat="42.175628" lon="-2.704917">
        <ele>1055.3</ele>
        <time>2021-07-04T13:36:01.000Z</time>
      </trkpt>
      <trkpt lat="42.175625" lon="-2.704920">
        <ele>1055.2</ele>
        <time>2021-07-04T13:36:04.000Z</time>
      </trkpt>
      <trkpt lat="42.175628" lon="-2.704923">
        <ele>1055.3</ele>
        <time>2021-07-04T13:36:10.000Z</time>
      </trkpt>
      <trkpt lat="42.175628" lon="-2.704928">
        <ele>1055.0</ele>
        <time>2021-07-04T13:36:12.000Z</time>
      </trkpt>
      <trkpt lat="42.175625" lon="-2.704930">
        <ele>1055.2</ele>
        <time>2021-07-04T13:36:15.000Z</time>
      </trkpt>
      <trkpt lat="42.175618" lon="-2.704937">
        <ele>1055.1</ele>
        <time>2021-07-04T13:36:19.000Z</time>
      </trkpt>
      <trkpt lat="42.175617" lon="-2.704927">
        <ele>1054.9</ele>
        <time>2021-07-04T13:36:25.000Z</time>
      </trkpt>
      <trkpt lat="42.175625" lon="-2.704895">
        <ele>1055.3</ele>
        <time>2021-07-04T13:36:31.000Z</time>
      </trkpt>
      <trkpt lat="42.175627" lon="-2.704895">
        <ele>1054.6</ele>
        <time>2021-07-04T13:36:59.000Z</time>
      </trkpt>
      <trkpt lat="42.175627" lon="-2.704895">
        <ele>1054.6</ele>
        <time>2021-07-04T13:37:00.000Z</time>
      </trkpt>
      <trkpt lat="42.175627" lon="-2.704910">
        <ele>1054.8</ele>
        <time>2021-07-04T13:37:04.000Z</time>
      </trkpt>
      <trkpt lat="42.175627" lon="-2.704910">
        <ele>1054.5</ele>
        <time>2021-07-04T13:37:05.000Z</time>
      </trkpt>
      <trkpt lat="42.175628" lon="-2.704910">
        <ele>1053.7</ele>
        <time>2021-07-04T13:37:06.000Z</time>
      </trkpt>
      <trkpt lat="42.175628" lon="-2.704917">
        <ele>1054.8</ele>
        <time>2021-07-04T13:37:09.000Z</time>
      </trkpt>
      <trkpt lat="42.175632" lon="-2.704915">
        <ele>1055.0</ele>
        <time>2021-07-04T13:37:20.000Z</time>
      </trkpt>
      <trkpt lat="42.175637" lon="-2.704910">
        <ele>1055.0</ele>
        <time>2021-07-04T13:37:24.000Z</time>
      </trkpt>
      <trkpt lat="42.175637" lon="-2.704905">
        <ele>1055.1</ele>
        <time>2021-07-04T13:37:25.000Z</time>
      </trkpt>
      <trkpt lat="42.175640" lon="-2.704910">
        <ele>1055.1</ele>
        <time>2021-07-04T13:37:30.000Z</time>
      </trkpt>
      <trkpt lat="42.175638" lon="-2.704910">
        <ele>1055.1</ele>
        <time>2021-07-04T13:37:31.000Z</time>
      </trkpt>
      <trkpt lat="42.175628" lon="-2.704888">
        <ele>1054.9</ele>
        <time>2021-07-04T13:37:36.000Z</time>
      </trkpt>
      <trkpt lat="42.175625" lon="-2.704883">
        <ele>1055.1</ele>
        <time>2021-07-04T13:37:38.000Z</time>
      </trkpt>
      <trkpt lat="42.175625" lon="-2.704883">
        <ele>1055.2</ele>
        <time>2021-07-04T13:37:39.000Z</time>
      </trkpt>
      <trkpt lat="42.175627" lon="-2.704888">
        <ele>1055.4</ele>
        <time>2021-07-04T13:37:54.000Z</time>
      </trkpt>
      <trkpt lat="42.175627" lon="-2.704890">
        <ele>1055.4</ele>
        <time>2021-07-04T13:37:55.000Z</time>
      </trkpt>
      <trkpt lat="42.175627" lon="-2.704893">
        <ele>1055.4</ele>
        <time>2021-07-04T13:38:01.000Z</time>
      </trkpt>
      <trkpt lat="42.175627" lon="-2.704895">
        <ele>1055.4</ele>
        <time>2021-07-04T13:38:02.000Z</time>
      </trkpt>
      <trkpt lat="42.175625" lon="-2.704898">
        <ele>1055.2</ele>
        <time>2021-07-04T13:38:04.000Z</time>
      </trkpt>
      <trkpt lat="42.175622" lon="-2.704900">
        <ele>1055.2</ele>
        <time>2021-07-04T13:38:07.000Z</time>
      </trkpt>
      <trkpt lat="42.175620" lon="-2.704898">
        <ele>1056.4</ele>
        <time>2021-07-04T13:38:15.000Z</time>
      </trkpt>
      <trkpt lat="42.175620" lon="-2.704905">
        <ele>1055.0</ele>
        <time>2021-07-04T13:38:18.000Z</time>
      </trkpt>
      <trkpt lat="42.175618" lon="-2.704903">
        <ele>1053.7</ele>
        <time>2021-07-04T13:38:21.000Z</time>
      </trkpt>
      <trkpt lat="42.175618" lon="-2.704902">
        <ele>1054.2</ele>
        <time>2021-07-04T13:38:22.000Z</time>
      </trkpt>
      <trkpt lat="42.175615" lon="-2.704900">
        <ele>1054.7</ele>
        <time>2021-07-04T13:38:23.000Z</time>
      </trkpt>
      <trkpt lat="42.175613" lon="-2.704892">
        <ele>1054.8</ele>
        <time>2021-07-04T13:38:27.000Z</time>
      </trkpt>
      <trkpt lat="42.175615" lon="-2.704888">
        <ele>1054.8</ele>
        <time>2021-07-04T13:38:31.000Z</time>
      </trkpt>
      <trkpt lat="42.175615" lon="-2.704883">
        <ele>1054.2</ele>
        <time>2021-07-04T13:38:34.000Z</time>
      </trkpt>
      <trkpt lat="42.175617" lon="-2.704880">
        <ele>1054.5</ele>
        <time>2021-07-04T13:38:38.000Z</time>
      </trkpt>
      <trkpt lat="42.175617" lon="-2.704878">
        <ele>1054.5</ele>
        <time>2021-07-04T13:38:39.000Z</time>
      </trkpt>
      <trkpt lat="42.175617" lon="-2.704875">
        <ele>1054.5</ele>
        <time>2021-07-04T13:38:43.000Z</time>
      </trkpt>
      <trkpt lat="42.175617" lon="-2.704875">
        <ele>1054.7</ele>
        <time>2021-07-04T13:38:44.000Z</time>
      </trkpt>
      <trkpt lat="42.175617" lon="-2.704870">
        <ele>1054.5</ele>
        <time>2021-07-04T13:39:02.000Z</time>
      </trkpt>
      <trkpt lat="42.175617" lon="-2.704868">
        <ele>1054.6</ele>
        <time>2021-07-04T13:39:03.000Z</time>
      </trkpt>
      <trkpt lat="42.175618" lon="-2.704863">
        <ele>1054.6</ele>
        <time>2021-07-04T13:39:06.000Z</time>
      </trkpt>
      <trkpt lat="42.175627" lon="-2.704877">
        <ele>1054.6</ele>
        <time>2021-07-04T13:39:14.000Z</time>
      </trkpt>
      <trkpt lat="42.175628" lon="-2.704880">
        <ele>1054.6</ele>
        <time>2021-07-04T13:39:16.000Z</time>
      </trkpt>
      <trkpt lat="42.175640" lon="-2.704903">
        <ele>1054.7</ele>
        <time>2021-07-04T13:39:23.000Z</time>
      </trkpt>
      <trkpt lat="42.175642" lon="-2.704898">
        <ele>1054.7</ele>
        <time>2021-07-04T13:39:25.000Z</time>
      </trkpt>
      <trkpt lat="42.175640" lon="-2.704885">
        <ele>1054.5</ele>
        <time>2021-07-04T13:39:28.000Z</time>
      </trkpt>
      <trkpt lat="42.175638" lon="-2.704887">
        <ele>1054.5</ele>
        <time>2021-07-04T13:39:29.000Z</time>
      </trkpt>
      <trkpt lat="42.175655" lon="-2.704883">
        <ele>1054.5</ele>
        <time>2021-07-04T13:39:37.000Z</time>
      </trkpt>
      <trkpt lat="42.175650" lon="-2.704883">
        <ele>1054.6</ele>
        <time>2021-07-04T13:39:38.000Z</time>
      </trkpt>
      <trkpt lat="42.175648" lon="-2.704883">
        <ele>1054.5</ele>
        <time>2021-07-04T13:39:40.000Z</time>
      </trkpt>
      <trkpt lat="42.175650" lon="-2.704883">
        <ele>1054.4</ele>
        <time>2021-07-04T13:39:41.000Z</time>
      </trkpt>
      <trkpt lat="42.175618" lon="-2.704877">
        <ele>1054.4</ele>
        <time>2021-07-04T13:39:47.000Z</time>
      </trkpt>
      <trkpt lat="42.175622" lon="-2.704878">
        <ele>1054.4</ele>
        <time>2021-07-04T13:39:48.000Z</time>
      </trkpt>
      <trkpt lat="42.175620" lon="-2.704905">
        <ele>1054.9</ele>
        <time>2021-07-04T13:39:55.000Z</time>
      </trkpt>
      <trkpt lat="42.175622" lon="-2.704907">
        <ele>1054.8</ele>
        <time>2021-07-04T13:39:56.000Z</time>
      </trkpt>
      <trkpt lat="42.175615" lon="-2.704918">
        <ele>1053.5</ele>
        <time>2021-07-04T13:40:03.000Z</time>
      </trkpt>
      <trkpt lat="42.175613" lon="-2.704913">
        <ele>1055.2</ele>
        <time>2021-07-04T13:40:15.000Z</time>
      </trkpt>
      <trkpt lat="42.175613" lon="-2.704913">
        <ele>1055.2</ele>
        <time>2021-07-04T13:40:16.000Z</time>
      </trkpt>
      <trkpt lat="42.175612" lon="-2.704915">
        <ele>1054.8</ele>
        <time>2021-07-04T13:40:26.000Z</time>
      </trkpt>
      <trkpt lat="42.175607" lon="-2.704915">
        <ele>1054.7</ele>
        <time>2021-07-04T13:40:29.000Z</time>
      </trkpt>
      <trkpt lat="42.175607" lon="-2.704920">
        <ele>1054.7</ele>
        <time>2021-07-04T13:40:51.000Z</time>
      </trkpt>
      <trkpt lat="42.175607" lon="-2.704918">
        <ele>1054.5</ele>
        <time>2021-07-04T13:40:52.000Z</time>
      </trkpt>
      <trkpt lat="42.175605" lon="-2.704920">
        <ele>1054.7</ele>
        <time>2021-07-04T13:41:00.000Z</time>
      </trkpt>
      <trkpt lat="42.175605" lon="-2.704918">
        <ele>1054.8</ele>
        <time>2021-07-04T13:41:01.000Z</time>
      </trkpt>
      <trkpt lat="42.175605" lon="-2.704910">
        <ele>1054.6</ele>
        <time>2021-07-04T13:41:47.000Z</time>
      </trkpt>
      <trkpt lat="42.175603" lon="-2.704903">
        <ele>1054.3</ele>
        <time>2021-07-04T13:41:50.000Z</time>
      </trkpt>
      <trkpt lat="42.175605" lon="-2.704902">
        <ele>1054.2</ele>
        <time>2021-07-04T13:41:51.000Z</time>
      </trkpt>
      <trkpt lat="42.175605" lon="-2.704892">
        <ele>1054.4</ele>
        <time>2021-07-04T13:41:54.000Z</time>
      </trkpt>
      <trkpt lat="42.175603" lon="-2.704898">
        <ele>1054.1</ele>
        <time>2021-07-04T13:41:58.000Z</time>
      </trkpt>
      <trkpt lat="42.175593" lon="-2.704900">
        <ele>1054.2</ele>
        <time>2021-07-04T13:42:04.000Z</time>
      </trkpt>
      <trkpt lat="42.175592" lon="-2.704892">
        <ele>1054.5</ele>
        <time>2021-07-04T13:42:13.000Z</time>
      </trkpt>
      <trkpt lat="42.175592" lon="-2.704890">
        <ele>1054.5</ele>
        <time>2021-07-04T13:42:14.000Z</time>
      </trkpt>
      <trkpt lat="42.175590" lon="-2.704888">
        <ele>1054.4</ele>
        <time>2021-07-04T13:42:15.000Z</time>
      </trkpt>
      <trkpt lat="42.175588" lon="-2.704887">
        <ele>1054.5</ele>
        <time>2021-07-04T13:42:17.000Z</time>
      </trkpt>
      <trkpt lat="42.175590" lon="-2.704888">
        <ele>1054.4</ele>
        <time>2021-07-04T13:42:33.000Z</time>
      </trkpt>
      <trkpt lat="42.175590" lon="-2.704888">
        <ele>1054.3</ele>
        <time>2021-07-04T13:42:34.000Z</time>
      </trkpt>
      <trkpt lat="42.175588" lon="-2.704888">
        <ele>1055.3</ele>
        <time>2021-07-04T13:42:50.000Z</time>
      </trkpt>
      <trkpt lat="42.175585" lon="-2.704878">
        <ele>1052.8</ele>
        <time>2021-07-04T13:42:56.000Z</time>
      </trkpt>
      <trkpt lat="42.175585" lon="-2.704882">
        <ele>1054.6</ele>
        <time>2021-07-04T13:43:45.000Z</time>
      </trkpt>
      <trkpt lat="42.175585" lon="-2.704882">
        <ele>1054.7</ele>
        <time>2021-07-04T13:43:46.000Z</time>
      </trkpt>
      <trkpt lat="42.175583" lon="-2.704885">
        <ele>1054.1</ele>
        <time>2021-07-04T13:44:44.000Z</time>
      </trkpt>
      <trkpt lat="42.175583" lon="-2.704885">
        <ele>1054.2</ele>
        <time>2021-07-04T13:44:45.000Z</time>
      </trkpt>
      <trkpt lat="42.175585" lon="-2.704885">
        <ele>1054.1</ele>
        <time>2021-07-04T13:44:58.000Z</time>
      </trkpt>
      <trkpt lat="42.175585" lon="-2.704883">
        <ele>1053.9</ele>
        <time>2021-07-04T13:44:59.000Z</time>
      </trkpt>
      <trkpt lat="42.175585" lon="-2.704888">
        <ele>1054.5</ele>
        <time>2021-07-04T13:45:44.000Z</time>
      </trkpt>
      <trkpt lat="42.175585" lon="-2.704888">
        <ele>1054.4</ele>
        <time>2021-07-04T13:45:45.000Z</time>
      </trkpt>
      <trkpt lat="42.175587" lon="-2.704890">
        <ele>1054.8</ele>
        <time>2021-07-04T13:46:02.000Z</time>
      </trkpt>
      <trkpt lat="42.175587" lon="-2.704890">
        <ele>1054.6</ele>
        <time>2021-07-04T13:46:03.000Z</time>
      </trkpt>
      <trkpt lat="42.175585" lon="-2.704892">
        <ele>1054.0</ele>
        <time>2021-07-04T13:46:08.000Z</time>
      </trkpt>
      <trkpt lat="42.175585" lon="-2.704893">
        <ele>1054.1</ele>
        <time>2021-07-04T13:46:09.000Z</time>
      </trkpt>
      <trkpt lat="42.175587" lon="-2.704895">
        <ele>1054.3</ele>
        <time>2021-07-04T13:46:13.000Z</time>
      </trkpt>
      <trkpt lat="42.175587" lon="-2.704895">
        <ele>1054.2</ele>
        <time>2021-07-04T13:46:14.000Z</time>
      </trkpt>
      <trkpt lat="42.175585" lon="-2.704895">
        <ele>1053.8</ele>
        <time>2021-07-04T13:46:24.000Z</time>
      </trkpt>
      <trkpt lat="42.175585" lon="-2.704895">
        <ele>1053.9</ele>
        <time>2021-07-04T13:46:25.000Z</time>
      </trkpt>
      <trkpt lat="42.175587" lon="-2.704895">
        <ele>1054.0</ele>
        <time>2021-07-04T13:46:36.000Z</time>
      </trkpt>
      <trkpt lat="42.175587" lon="-2.704897">
        <ele>1053.9</ele>
        <time>2021-07-04T13:46:37.000Z</time>
      </trkpt>
      <trkpt lat="42.175587" lon="-2.704902">
        <ele>1054.1</ele>
        <time>2021-07-04T13:47:53.000Z</time>
      </trkpt>
      <trkpt lat="42.175587" lon="-2.704902">
        <ele>1054.3</ele>
        <time>2021-07-04T13:47:54.000Z</time>
      </trkpt>
      <trkpt lat="42.175585" lon="-2.704902">
        <ele>1054.2</ele>
        <time>2021-07-04T13:48:37.000Z</time>
      </trkpt>
      <trkpt lat="42.175585" lon="-2.704902">
        <ele>1054.1</ele>
        <time>2021-07-04T13:48:38.000Z</time>
      </trkpt>
      <trkpt lat="42.175583" lon="-2.704903">
        <ele>1054.2</ele>
        <time>2021-07-04T13:48:41.000Z</time>
      </trkpt>
      <trkpt lat="42.175583" lon="-2.704903">
        <ele>1054.2</ele>
        <time>2021-07-04T13:48:42.000Z</time>
      </trkpt>
      <trkpt lat="42.175585" lon="-2.704907">
        <ele>1054.1</ele>
        <time>2021-07-04T13:49:03.000Z</time>
      </trkpt>
      <trkpt lat="42.175585" lon="-2.704907">
        <ele>1053.9</ele>
        <time>2021-07-04T13:49:04.000Z</time>
      </trkpt>
      <trkpt lat="42.175587" lon="-2.704908">
        <ele>1055.0</ele>
        <time>2021-07-04T13:49:59.000Z</time>
      </trkpt>
      <trkpt lat="42.175585" lon="-2.704908">
        <ele>1055.1</ele>
        <time>2021-07-04T13:50:01.000Z</time>
      </trkpt>
      <trkpt lat="42.175587" lon="-2.704908">
        <ele>1054.6</ele>
        <time>2021-07-04T13:50:34.000Z</time>
      </trkpt>
      <trkpt lat="42.175587" lon="-2.704907">
        <ele>1054.6</ele>
        <time>2021-07-04T13:50:35.000Z</time>
      </trkpt>
      <trkpt lat="42.175585" lon="-2.704908">
        <ele>1054.9</ele>
        <time>2021-07-04T13:50:45.000Z</time>
      </trkpt>
      <trkpt lat="42.175585" lon="-2.704908">
        <ele>1054.9</ele>
        <time>2021-07-04T13:50:46.000Z</time>
      </trkpt>
      <trkpt lat="42.175583" lon="-2.704908">
        <ele>1054.6</ele>
        <time>2021-07-04T13:51:53.000Z</time>
      </trkpt>
      <trkpt lat="42.175583" lon="-2.704908">
        <ele>1054.6</ele>
        <time>2021-07-04T13:51:54.000Z</time>
      </trkpt>
      <trkpt lat="42.175582" lon="-2.704907">
        <ele>1054.7</ele>
        <time>2021-07-04T13:54:06.000Z</time>
      </trkpt>
      <trkpt lat="42.175580" lon="-2.704908">
        <ele>1054.7</ele>
        <time>2021-07-04T13:54:08.000Z</time>
      </trkpt>
      <trkpt lat="42.175580" lon="-2.704913">
        <ele>1054.8</ele>
        <time>2021-07-04T13:54:18.000Z</time>
      </trkpt>
      <trkpt lat="42.175580" lon="-2.704912">
        <ele>1054.8</ele>
        <time>2021-07-04T13:54:19.000Z</time>
      </trkpt>
      <trkpt lat="42.175578" lon="-2.704910">
        <ele>1054.9</ele>
        <time>2021-07-04T13:55:27.000Z</time>
      </trkpt>
      <trkpt lat="42.175578" lon="-2.704910">
        <ele>1054.8</ele>
        <time>2021-07-04T13:55:28.000Z</time>
      </trkpt>
      <trkpt lat="42.175578" lon="-2.704907">
        <ele>1054.8</ele>
        <time>2021-07-04T13:55:30.000Z</time>
      </trkpt>
      <trkpt lat="42.175578" lon="-2.704907">
        <ele>1054.9</ele>
        <time>2021-07-04T13:55:31.000Z</time>
      </trkpt>
      <trkpt lat="42.175582" lon="-2.704903">
        <ele>1054.7</ele>
        <time>2021-07-04T13:56:11.000Z</time>
      </trkpt>
      <trkpt lat="42.175582" lon="-2.704903">
        <ele>1054.8</ele>
        <time>2021-07-04T13:56:14.000Z</time>
      </trkpt>
      <trkpt lat="42.175580" lon="-2.704903">
        <ele>1054.6</ele>
        <time>2021-07-04T13:56:24.000Z</time>
      </trkpt>
      <trkpt lat="42.175578" lon="-2.704902">
        <ele>1054.7</ele>
        <time>2021-07-04T13:56:26.000Z</time>
      </trkpt>
      <trkpt lat="42.175577" lon="-2.704902">
        <ele>1054.7</ele>
        <time>2021-07-04T13:57:03.000Z</time>
      </trkpt>
      <trkpt lat="42.175577" lon="-2.704900">
        <ele>1054.7</ele>
        <time>2021-07-04T13:57:04.000Z</time>
      </trkpt>
      <trkpt lat="42.175575" lon="-2.704902">
        <ele>1054.7</ele>
        <time>2021-07-04T13:57:05.000Z</time>
      </trkpt>
      <trkpt lat="42.175575" lon="-2.704903">
        <ele>1054.5</ele>
        <time>2021-07-04T13:57:06.000Z</time>
      </trkpt>
      <trkpt lat="42.175577" lon="-2.704908">
        <ele>1054.4</ele>
        <time>2021-07-04T13:57:08.000Z</time>
      </trkpt>
      <trkpt lat="42.175565" lon="-2.704903">
        <ele>1054.8</ele>
        <time>2021-07-04T13:57:14.000Z</time>
      </trkpt>
      <trkpt lat="42.175567" lon="-2.704902">
        <ele>1054.5</ele>
        <time>2021-07-04T13:57:17.000Z</time>
      </trkpt>
      <trkpt lat="42.175567" lon="-2.704903">
        <ele>1054.7</ele>
        <time>2021-07-04T13:57:18.000Z</time>
      </trkpt>
      <trkpt lat="42.175570" lon="-2.704908">
        <ele>1054.8</ele>
        <time>2021-07-04T13:57:24.000Z</time>
      </trkpt>
      <trkpt lat="42.175570" lon="-2.704907">
        <ele>1054.9</ele>
        <time>2021-07-04T13:57:25.000Z</time>
      </trkpt>
      <trkpt lat="42.175572" lon="-2.704907">
        <ele>1055.0</ele>
        <time>2021-07-04T13:57:29.000Z</time>
      </trkpt>
      <trkpt lat="42.175572" lon="-2.704907">
        <ele>1054.9</ele>
        <time>2021-07-04T13:57:30.000Z</time>
      </trkpt>
      <trkpt lat="42.175570" lon="-2.704907">
        <ele>1054.5</ele>
        <time>2021-07-04T13:57:46.000Z</time>
      </trkpt>
      <trkpt lat="42.175528" lon="-2.705022">
        <ele>1054.9</ele>
        <time>2021-07-04T13:58:15.000Z</time>
      </trkpt>
      <trkpt lat="42.175597" lon="-2.704938">
        <ele>1054.8</ele>
        <time>2021-07-04T13:58:49.000Z</time>
      </trkpt>
      <trkpt lat="42.175610" lon="-2.704883">
        <ele>1054.4</ele>
        <time>2021-07-04T13:59:12.000Z</time>
      </trkpt>
      <trkpt lat="42.175612" lon="-2.704883">
        <ele>1054.2</ele>
        <time>2021-07-04T13:59:13.000Z</time>
      </trkpt>
      <trkpt lat="42.175618" lon="-2.704882">
        <ele>1054.4</ele>
        <time>2021-07-04T13:59:15.000Z</time>
      </trkpt>
      <trkpt lat="42.175620" lon="-2.704878">
        <ele>1054.6</ele>
        <time>2021-07-04T13:59:17.000Z</time>
      </trkpt>
      <trkpt lat="42.175625" lon="-2.704875">
        <ele>1054.6</ele>
        <time>2021-07-04T13:59:19.000Z</time>
      </trkpt>
      <trkpt lat="42.175627" lon="-2.704877">
        <ele>1054.3</ele>
        <time>2021-07-04T13:59:22.000Z</time>
      </trkpt>
      <trkpt lat="42.175630" lon="-2.704875">
        <ele>1054.7</ele>
        <time>2021-07-04T13:59:24.000Z</time>
      </trkpt>
      <trkpt lat="42.175633" lon="-2.704877">
        <ele>1054.6</ele>
        <time>2021-07-04T13:59:27.000Z</time>
      </trkpt>
      <trkpt lat="42.175633" lon="-2.704878">
        <ele>1054.4</ele>
        <time>2021-07-04T13:59:28.000Z</time>
      </trkpt>
      <trkpt lat="42.175630" lon="-2.704883">
        <ele>1054.7</ele>
        <time>2021-07-04T13:59:30.000Z</time>
      </trkpt>
      <trkpt lat="42.175613" lon="-2.704877">
        <ele>1054.8</ele>
        <time>2021-07-04T13:59:35.000Z</time>
      </trkpt>
      <trkpt lat="42.175605" lon="-2.704865">
        <ele>1054.8</ele>
        <time>2021-07-04T13:59:36.000Z</time>
      </trkpt>
      <trkpt lat="42.175607" lon="-2.704865">
        <ele>1054.7</ele>
        <time>2021-07-04T13:59:38.000Z</time>
      </trkpt>
      <trkpt lat="42.175605" lon="-2.704863">
        <ele>1054.8</ele>
        <time>2021-07-04T13:59:40.000Z</time>
      </trkpt>
      <trkpt lat="42.175605" lon="-2.704832">
        <ele>1054.8</ele>
        <time>2021-07-04T13:59:48.000Z</time>
      </trkpt>
      <trkpt lat="42.175607" lon="-2.704832">
        <ele>1054.7</ele>
        <time>2021-07-04T13:59:49.000Z</time>
      </trkpt>
      <trkpt lat="42.175635" lon="-2.704915">
        <ele>1054.0</ele>
        <time>2021-07-04T14:00:53.000Z</time>
      </trkpt>
      <trkpt lat="42.175633" lon="-2.704918">
        <ele>1054.2</ele>
        <time>2021-07-04T14:01:01.000Z</time>
      </trkpt>
      <trkpt lat="42.175618" lon="-2.704930">
        <ele>1054.4</ele>
        <time>2021-07-04T14:01:13.000Z</time>
      </trkpt>
      <trkpt lat="42.175610" lon="-2.704928">
        <ele>1054.1</ele>
        <time>2021-07-04T14:01:16.000Z</time>
      </trkpt>
      <trkpt lat="42.175602" lon="-2.704915">
        <ele>1054.3</ele>
        <time>2021-07-04T14:01:20.000Z</time>
      </trkpt>
      <trkpt lat="42.175600" lon="-2.704917">
        <ele>1054.2</ele>
        <time>2021-07-04T14:01:32.000Z</time>
      </trkpt>
      <trkpt lat="42.175600" lon="-2.704917">
        <ele>1054.1</ele>
        <time>2021-07-04T14:01:33.000Z</time>
      </trkpt>
      <trkpt lat="42.175598" lon="-2.704920">
        <ele>1054.5</ele>
        <time>2021-07-04T14:01:49.000Z</time>
      </trkpt>
      <trkpt lat="42.175598" lon="-2.704920">
        <ele>1054.5</ele>
        <time>2021-07-04T14:01:50.000Z</time>
      </trkpt>
      <trkpt lat="42.175597" lon="-2.704923">
        <ele>1054.3</ele>
        <time>2021-07-04T14:01:51.000Z</time>
      </trkpt>
      <trkpt lat="42.175592" lon="-2.704925">
        <ele>1054.2</ele>
        <time>2021-07-04T14:01:56.000Z</time>
      </trkpt>
      <trkpt lat="42.175588" lon="-2.704923">
        <ele>1054.3</ele>
        <time>2021-07-04T14:01:57.000Z</time>
      </trkpt>
      <trkpt lat="42.175582" lon="-2.704915">
        <ele>1054.2</ele>
        <time>2021-07-04T14:02:00.000Z</time>
      </trkpt>
      <trkpt lat="42.175580" lon="-2.704915">
        <ele>1054.2</ele>
        <time>2021-07-04T14:02:02.000Z</time>
      </trkpt>
      <trkpt lat="42.175552" lon="-2.704937">
        <ele>1054.2</ele>
        <time>2021-07-04T14:02:09.000Z</time>
      </trkpt>
      <trkpt lat="42.175550" lon="-2.704937">
        <ele>1053.9</ele>
        <time>2021-07-04T14:02:13.000Z</time>
      </trkpt>
      <trkpt lat="42.175550" lon="-2.704937">
        <ele>1054.2</ele>
        <time>2021-07-04T14:02:14.000Z</time>
      </trkpt>
      <trkpt lat="42.175552" lon="-2.704937">
        <ele>1053.9</ele>
        <time>2021-07-04T14:02:18.000Z</time>
      </trkpt>
      <trkpt lat="42.175552" lon="-2.704937">
        <ele>1054.0</ele>
        <time>2021-07-04T14:02:19.000Z</time>
      </trkpt>
      <trkpt lat="42.175555" lon="-2.704940">
        <ele>1054.1</ele>
        <time>2021-07-04T14:02:27.000Z</time>
      </trkpt>
      <trkpt lat="42.175565" lon="-2.704952">
        <ele>1054.5</ele>
        <time>2021-07-04T14:02:31.000Z</time>
      </trkpt>
      <trkpt lat="42.175567" lon="-2.704952">
        <ele>1054.5</ele>
        <time>2021-07-04T14:02:33.000Z</time>
      </trkpt>
      <trkpt lat="42.175558" lon="-2.704950">
        <ele>1054.3</ele>
        <time>2021-07-04T14:02:36.000Z</time>
      </trkpt>
      <trkpt lat="42.175562" lon="-2.704955">
        <ele>1054.4</ele>
        <time>2021-07-04T14:02:41.000Z</time>
      </trkpt>
      <trkpt lat="42.175560" lon="-2.704955">
        <ele>1054.3</ele>
        <time>2021-07-04T14:02:43.000Z</time>
      </trkpt>
      <trkpt lat="42.175562" lon="-2.704955">
        <ele>1054.1</ele>
        <time>2021-07-04T14:02:49.000Z</time>
      </trkpt>
      <trkpt lat="42.175555" lon="-2.704960">
        <ele>1054.3</ele>
        <time>2021-07-04T14:03:06.000Z</time>
      </trkpt>
      <trkpt lat="42.175557" lon="-2.704963">
        <ele>1054.4</ele>
        <time>2021-07-04T14:03:07.000Z</time>
      </trkpt>
      <trkpt lat="42.175557" lon="-2.704962">
        <ele>1054.3</ele>
        <time>2021-07-04T14:03:08.000Z</time>
      </trkpt>
      <trkpt lat="42.175558" lon="-2.704957">
        <ele>1054.1</ele>
        <time>2021-07-04T14:03:09.000Z</time>
      </trkpt>
      <trkpt lat="42.175558" lon="-2.704955">
        <ele>1054.1</ele>
        <time>2021-07-04T14:03:10.000Z</time>
      </trkpt>
      <trkpt lat="42.175558" lon="-2.704952">
        <ele>1054.2</ele>
        <time>2021-07-04T14:03:11.000Z</time>
      </trkpt>
      <trkpt lat="42.175542" lon="-2.704827">
        <ele>1054.3</ele>
        <time>2021-07-04T14:03:28.000Z</time>
      </trkpt>
      <trkpt lat="42.175542" lon="-2.704827">
        <ele>1054.4</ele>
        <time>2021-07-04T14:03:29.000Z</time>
      </trkpt>
      <trkpt lat="42.175542" lon="-2.704830">
        <ele>1053.9</ele>
        <time>2021-07-04T14:03:42.000Z</time>
      </trkpt>
      <trkpt lat="42.175542" lon="-2.704830">
        <ele>1054.0</ele>
        <time>2021-07-04T14:03:43.000Z</time>
      </trkpt>
      <trkpt lat="42.175543" lon="-2.704832">
        <ele>1053.8</ele>
        <time>2021-07-04T14:04:24.000Z</time>
      </trkpt>
      <trkpt lat="42.175543" lon="-2.704832">
        <ele>1053.8</ele>
        <time>2021-07-04T14:04:25.000Z</time>
      </trkpt>
      <trkpt lat="42.175542" lon="-2.704837">
        <ele>1054.4</ele>
        <time>2021-07-04T14:04:57.000Z</time>
      </trkpt>
      <trkpt lat="42.175533" lon="-2.704837">
        <ele>1054.4</ele>
        <time>2021-07-04T14:05:01.000Z</time>
      </trkpt>
      <trkpt lat="42.175532" lon="-2.704833">
        <ele>1054.5</ele>
        <time>2021-07-04T14:05:02.000Z</time>
      </trkpt>
      <trkpt lat="42.175510" lon="-2.704882">
        <ele>1054.2</ele>
        <time>2021-07-04T14:05:18.000Z</time>
      </trkpt>
      <trkpt lat="42.175508" lon="-2.704880">
        <ele>1054.3</ele>
        <time>2021-07-04T14:05:19.000Z</time>
      </trkpt>
      <trkpt lat="42.175503" lon="-2.704867">
        <ele>1054.2</ele>
        <time>2021-07-04T14:05:22.000Z</time>
      </trkpt>
      <trkpt lat="42.175505" lon="-2.704865">
        <ele>1054.2</ele>
        <time>2021-07-04T14:05:23.000Z</time>
      </trkpt>
      <trkpt lat="42.175523" lon="-2.704870">
        <ele>1054.3</ele>
        <time>2021-07-04T14:05:40.000Z</time>
      </trkpt>
      <trkpt lat="42.175522" lon="-2.704867">
        <ele>1054.3</ele>
        <time>2021-07-04T14:05:41.000Z</time>
      </trkpt>
      <trkpt lat="42.175523" lon="-2.704863">
        <ele>1054.1</ele>
        <time>2021-07-04T14:05:47.000Z</time>
      </trkpt>
      <trkpt lat="42.175525" lon="-2.704860">
        <ele>1054.4</ele>
        <time>2021-07-04T14:06:09.000Z</time>
      </trkpt>
      <trkpt lat="42.175525" lon="-2.704858">
        <ele>1054.2</ele>
        <time>2021-07-04T14:06:10.000Z</time>
      </trkpt>
      <trkpt lat="42.175525" lon="-2.704853">
        <ele>1054.1</ele>
        <time>2021-07-04T14:06:11.000Z</time>
      </trkpt>
      <trkpt lat="42.175527" lon="-2.704847">
        <ele>1054.2</ele>
        <time>2021-07-04T14:06:30.000Z</time>
      </trkpt>
      <trkpt lat="42.175522" lon="-2.704862">
        <ele>1054.4</ele>
        <time>2021-07-04T14:06:32.000Z</time>
      </trkpt>
      <trkpt lat="42.175520" lon="-2.704893">
        <ele>1054.5</ele>
        <time>2021-07-04T14:06:38.000Z</time>
      </trkpt>
      <trkpt lat="42.175522" lon="-2.704898">
        <ele>1054.6</ele>
        <time>2021-07-04T14:06:47.000Z</time>
      </trkpt>
      <trkpt lat="42.175522" lon="-2.704898">
        <ele>1054.5</ele>
        <time>2021-07-04T14:06:48.000Z</time>
      </trkpt>
      <trkpt lat="42.175523" lon="-2.704898">
        <ele>1054.3</ele>
        <time>2021-07-04T14:06:49.000Z</time>
      </trkpt>
      <trkpt lat="42.175528" lon="-2.704895">
        <ele>1054.4</ele>
        <time>2021-07-04T14:06:54.000Z</time>
      </trkpt>
      <trkpt lat="42.175530" lon="-2.704898">
        <ele>1054.3</ele>
        <time>2021-07-04T14:06:58.000Z</time>
      </trkpt>
      <trkpt lat="42.175532" lon="-2.704900">
        <ele>1054.2</ele>
        <time>2021-07-04T14:07:00.000Z</time>
      </trkpt>
      <trkpt lat="42.175530" lon="-2.704892">
        <ele>1053.9</ele>
        <time>2021-07-04T14:07:07.000Z</time>
      </trkpt>
      <trkpt lat="42.175530" lon="-2.704863">
        <ele>1054.0</ele>
        <time>2021-07-04T14:07:15.000Z</time>
      </trkpt>
      <trkpt lat="42.175530" lon="-2.704853">
        <ele>1054.1</ele>
        <time>2021-07-04T14:07:16.000Z</time>
      </trkpt>
      <trkpt lat="42.175505" lon="-2.704825">
        <ele>1054.1</ele>
        <time>2021-07-04T14:07:27.000Z</time>
      </trkpt>
      <trkpt lat="42.175505" lon="-2.704828">
        <ele>1054.0</ele>
        <time>2021-07-04T14:07:29.000Z</time>
      </trkpt>
      <trkpt lat="42.175512" lon="-2.704832">
        <ele>1054.0</ele>
        <time>2021-07-04T14:07:34.000Z</time>
      </trkpt>
      <trkpt lat="42.175513" lon="-2.704832">
        <ele>1053.8</ele>
        <time>2021-07-04T14:07:35.000Z</time>
      </trkpt>
      <trkpt lat="42.175513" lon="-2.704832">
        <ele>1053.8</ele>
        <time>2021-07-04T14:07:36.000Z</time>
      </trkpt>
      <trkpt lat="42.175512" lon="-2.704843">
        <ele>1053.6</ele>
        <time>2021-07-04T14:07:52.000Z</time>
      </trkpt>
      <trkpt lat="42.175512" lon="-2.704843">
        <ele>1053.6</ele>
        <time>2021-07-04T14:07:53.000Z</time>
      </trkpt>
      <trkpt lat="42.175513" lon="-2.704843">
        <ele>1054.2</ele>
        <time>2021-07-04T14:07:57.000Z</time>
      </trkpt>
      <trkpt lat="42.175513" lon="-2.704843">
        <ele>1053.9</ele>
        <time>2021-07-04T14:07:58.000Z</time>
      </trkpt>
      <trkpt lat="42.175517" lon="-2.704840">
        <ele>1053.8</ele>
        <time>2021-07-04T14:08:01.000Z</time>
      </trkpt>
      <trkpt lat="42.175527" lon="-2.704838">
        <ele>1053.6</ele>
        <time>2021-07-04T14:08:06.000Z</time>
      </trkpt>
      <trkpt lat="42.175525" lon="-2.704837">
        <ele>1053.8</ele>
        <time>2021-07-04T14:08:09.000Z</time>
      </trkpt>
      <trkpt lat="42.175525" lon="-2.704837">
        <ele>1053.8</ele>
        <time>2021-07-04T14:08:10.000Z</time>
      </trkpt>
      <trkpt lat="42.175525" lon="-2.704832">
        <ele>1055.6</ele>
        <time>2021-07-04T14:08:19.000Z</time>
      </trkpt>
      <trkpt lat="42.175533" lon="-2.704820">
        <ele>1054.4</ele>
        <time>2021-07-04T14:08:23.000Z</time>
      </trkpt>
      <trkpt lat="42.175533" lon="-2.704827">
        <ele>1054.0</ele>
        <time>2021-07-04T14:08:24.000Z</time>
      </trkpt>
      <trkpt lat="42.175538" lon="-2.704888">
        <ele>1054.9</ele>
        <time>2021-07-04T14:08:33.000Z</time>
      </trkpt>
      <trkpt lat="42.175542" lon="-2.704895">
        <ele>1054.3</ele>
        <time>2021-07-04T14:08:35.000Z</time>
      </trkpt>
      <trkpt lat="42.175562" lon="-2.704890">
        <ele>1054.6</ele>
        <time>2021-07-04T14:08:45.000Z</time>
      </trkpt>
      <trkpt lat="42.175558" lon="-2.704887">
        <ele>1054.4</ele>
        <time>2021-07-04T14:08:46.000Z</time>
      </trkpt>
      <trkpt lat="42.175600" lon="-2.704915">
        <ele>1063.0</ele>
        <time>2021-07-04T14:09:13.000Z</time>
      </trkpt>
      <trkpt lat="42.175598" lon="-2.704917">
        <ele>1053.5</ele>
        <time>2021-07-04T14:09:18.000Z</time>
      </trkpt>
      <trkpt lat="42.175598" lon="-2.704917">
        <ele>1053.3</ele>
        <time>2021-07-04T14:09:19.000Z</time>
      </trkpt>
      <trkpt lat="42.175598" lon="-2.704927">
        <ele>1053.3</ele>
        <time>2021-07-04T14:09:37.000Z</time>
      </trkpt>
      <trkpt lat="42.175598" lon="-2.704927">
        <ele>1053.4</ele>
        <time>2021-07-04T14:09:38.000Z</time>
      </trkpt>
      <trkpt lat="42.175597" lon="-2.704928">
        <ele>1053.3</ele>
        <time>2021-07-04T14:09:41.000Z</time>
      </trkpt>
      <trkpt lat="42.175597" lon="-2.704930">
        <ele>1053.4</ele>
        <time>2021-07-04T14:09:42.000Z</time>
      </trkpt>
      <trkpt lat="42.175595" lon="-2.704932">
        <ele>1053.4</ele>
        <time>2021-07-04T14:09:47.000Z</time>
      </trkpt>
      <trkpt lat="42.175595" lon="-2.704932">
        <ele>1053.4</ele>
        <time>2021-07-04T14:09:48.000Z</time>
      </trkpt>
      <trkpt lat="42.175592" lon="-2.704940">
        <ele>1053.2</ele>
        <time>2021-07-04T14:09:50.000Z</time>
      </trkpt>
      <trkpt lat="42.175592" lon="-2.704940">
        <ele>1053.0</ele>
        <time>2021-07-04T14:09:51.000Z</time>
      </trkpt>
      <trkpt lat="42.175590" lon="-2.704945">
        <ele>1054.6</ele>
        <time>2021-07-04T14:09:54.000Z</time>
      </trkpt>
      <trkpt lat="42.175590" lon="-2.704945">
        <ele>1056.2</ele>
        <time>2021-07-04T14:09:55.000Z</time>
      </trkpt>
      <trkpt lat="42.175588" lon="-2.704952">
        <ele>1050.9</ele>
        <time>2021-07-04T14:10:00.000Z</time>
      </trkpt>
      <trkpt lat="42.175582" lon="-2.704982">
        <ele>1053.5</ele>
        <time>2021-07-04T14:10:05.000Z</time>
      </trkpt>
      <trkpt lat="42.175583" lon="-2.704980">
        <ele>1053.3</ele>
        <time>2021-07-04T14:10:08.000Z</time>
      </trkpt>
      <trkpt lat="42.175590" lon="-2.705010">
        <ele>1053.5</ele>
        <time>2021-07-04T14:10:14.000Z</time>
      </trkpt>
      <trkpt lat="42.175590" lon="-2.705007">
        <ele>1053.3</ele>
        <time>2021-07-04T14:10:29.000Z</time>
      </trkpt>
      <trkpt lat="42.175590" lon="-2.705007">
        <ele>1053.3</ele>
        <time>2021-07-04T14:10:30.000Z</time>
      </trkpt>
      <trkpt lat="42.175588" lon="-2.705023">
        <ele>1053.6</ele>
        <time>2021-07-04T14:10:59.000Z</time>
      </trkpt>
      <trkpt lat="42.175588" lon="-2.705023">
        <ele>1053.6</ele>
        <time>2021-07-04T14:11:00.000Z</time>
      </trkpt>
      <trkpt lat="42.175588" lon="-2.705028">
        <ele>1053.5</ele>
        <time>2021-07-04T14:11:01.000Z</time>
      </trkpt>
      <trkpt lat="42.175588" lon="-2.705037">
        <ele>1053.7</ele>
        <time>2021-07-04T14:11:03.000Z</time>
      </trkpt>
      <trkpt lat="42.175590" lon="-2.705042">
        <ele>1053.1</ele>
        <time>2021-07-04T14:11:35.000Z</time>
      </trkpt>
      <trkpt lat="42.175590" lon="-2.705042">
        <ele>1053.2</ele>
        <time>2021-07-04T14:11:36.000Z</time>
      </trkpt>
      <trkpt lat="42.175593" lon="-2.705050">
        <ele>1053.5</ele>
        <time>2021-07-04T14:11:53.000Z</time>
      </trkpt>
      <trkpt lat="42.175630" lon="-2.705070">
        <ele>1053.7</ele>
        <time>2021-07-04T14:12:00.000Z</time>
      </trkpt>
      <trkpt lat="42.175628" lon="-2.705063">
        <ele>1054.2</ele>
        <time>2021-07-04T14:14:04.000Z</time>
      </trkpt>
      <trkpt lat="42.175630" lon="-2.705063">
        <ele>1054.3</ele>
        <time>2021-07-04T14:14:06.000Z</time>
      </trkpt>
      <trkpt lat="42.175628" lon="-2.705063">
        <ele>1054.2</ele>
        <time>2021-07-04T14:14:09.000Z</time>
      </trkpt>
      <trkpt lat="42.175620" lon="-2.705080">
        <ele>1054.2</ele>
        <time>2021-07-04T14:14:13.000Z</time>
      </trkpt>
      <trkpt lat="42.175622" lon="-2.705085">
        <ele>1054.5</ele>
        <time>2021-07-04T14:14:16.000Z</time>
      </trkpt>
      <trkpt lat="42.175718" lon="-2.705118">
        <ele>1054.1</ele>
        <time>2021-07-04T14:14:28.000Z</time>
      </trkpt>
      <trkpt lat="42.175815" lon="-2.705092">
        <ele>1054.6</ele>
        <time>2021-07-04T14:14:36.000Z</time>
      </trkpt>
      <trkpt lat="42.175902" lon="-2.705085">
        <ele>1053.3</ele>
        <time>2021-07-04T14:14:49.000Z</time>
      </trkpt>
      <trkpt lat="42.175900" lon="-2.705087">
        <ele>1053.7</ele>
        <time>2021-07-04T14:16:34.000Z</time>
      </trkpt>
      <trkpt lat="42.175900" lon="-2.705087">
        <ele>1054.0</ele>
        <time>2021-07-04T14:16:35.000Z</time>
      </trkpt>
      <trkpt lat="42.175898" lon="-2.705090">
        <ele>1053.2</ele>
        <time>2021-07-04T14:17:30.000Z</time>
      </trkpt>
      <trkpt lat="42.175898" lon="-2.705092">
        <ele>1053.2</ele>
        <time>2021-07-04T14:17:31.000Z</time>
      </trkpt>
      <trkpt lat="42.175897" lon="-2.705093">
        <ele>1052.6</ele>
        <time>2021-07-04T14:18:24.000Z</time>
      </trkpt>
      <trkpt lat="42.175897" lon="-2.705093">
        <ele>1052.6</ele>
        <time>2021-07-04T14:18:25.000Z</time>
      </trkpt>
      <trkpt lat="42.175895" lon="-2.705095">
        <ele>1052.7</ele>
        <time>2021-07-04T14:20:05.000Z</time>
      </trkpt>
      <trkpt lat="42.175895" lon="-2.705095">
        <ele>1052.7</ele>
        <time>2021-07-04T14:20:06.000Z</time>
      </trkpt>
      <trkpt lat="42.175893" lon="-2.705093">
        <ele>1052.1</ele>
        <time>2021-07-04T14:21:06.000Z</time>
      </trkpt>
      <trkpt lat="42.175893" lon="-2.705093">
        <ele>1052.1</ele>
        <time>2021-07-04T14:21:07.000Z</time>
      </trkpt>
      <trkpt lat="42.175888" lon="-2.705090">
        <ele>1052.2</ele>
        <time>2021-07-04T14:21:12.000Z</time>
      </trkpt>
      <trkpt lat="42.175820" lon="-2.705087">
        <ele>1052.6</ele>
        <time>2021-07-04T14:21:20.000Z</time>
      </trkpt>
      <trkpt lat="42.175818" lon="-2.705097">
        <ele>1052.5</ele>
        <time>2021-07-04T14:21:22.000Z</time>
      </trkpt>
      <trkpt lat="42.175822" lon="-2.704950">
        <ele>1051.8</ele>
        <time>2021-07-04T14:21:38.000Z</time>
      </trkpt>
      <trkpt lat="42.175865" lon="-2.704843">
        <ele>1052.4</ele>
        <time>2021-07-04T14:21:42.000Z</time>
      </trkpt>
      <trkpt lat="42.175948" lon="-2.704768">
        <ele>1053.7</ele>
        <time>2021-07-04T14:21:47.000Z</time>
      </trkpt>
      <trkpt lat="42.176017" lon="-2.704668">
        <ele>1055.0</ele>
        <time>2021-07-04T14:21:54.000Z</time>
      </trkpt>
      <trkpt lat="42.176103" lon="-2.704598">
        <ele>1055.4</ele>
        <time>2021-07-04T14:22:02.000Z</time>
      </trkpt>
      <trkpt lat="42.176198" lon="-2.704633">
        <ele>1056.4</ele>
        <time>2021-07-04T14:22:07.000Z</time>
      </trkpt>
      <trkpt lat="42.176293" lon="-2.704617">
        <ele>1055.9</ele>
        <time>2021-07-04T14:22:15.000Z</time>
      </trkpt>
      <trkpt lat="42.176373" lon="-2.704552">
        <ele>1056.5</ele>
        <time>2021-07-04T14:22:24.000Z</time>
      </trkpt>
      <trkpt lat="42.176467" lon="-2.704523">
        <ele>1057.2</ele>
        <time>2021-07-04T14:22:33.000Z</time>
      </trkpt>
      <trkpt lat="42.176548" lon="-2.704447">
        <ele>1058.6</ele>
        <time>2021-07-04T14:22:45.000Z</time>
      </trkpt>
      <trkpt lat="42.176645" lon="-2.704418">
        <ele>1060.6</ele>
        <time>2021-07-04T14:22:57.000Z</time>
      </trkpt>
      <trkpt lat="42.176730" lon="-2.704375">
        <ele>1061.8</ele>
        <time>2021-07-04T14:23:09.000Z</time>
      </trkpt>
      <trkpt lat="42.176820" lon="-2.704388">
        <ele>1062.6</ele>
        <time>2021-07-04T14:23:16.000Z</time>
      </trkpt>
      <trkpt lat="42.176913" lon="-2.704397">
        <ele>1064.4</ele>
        <time>2021-07-04T14:23:26.000Z</time>
      </trkpt>
      <trkpt lat="42.177003" lon="-2.704348">
        <ele>1066.1</ele>
        <time>2021-07-04T14:23:36.000Z</time>
      </trkpt>
      <trkpt lat="42.177085" lon="-2.704292">
        <ele>1066.8</ele>
        <time>2021-07-04T14:23:44.000Z</time>
      </trkpt>
      <trkpt lat="42.177167" lon="-2.704240">
        <ele>1067.7</ele>
        <time>2021-07-04T14:23:51.000Z</time>
      </trkpt>
      <trkpt lat="42.177250" lon="-2.704190">
        <ele>1068.2</ele>
        <time>2021-07-04T14:23:59.000Z</time>
      </trkpt>
      <trkpt lat="42.177328" lon="-2.704112">
        <ele>1069.9</ele>
        <time>2021-07-04T14:24:08.000Z</time>
      </trkpt>
      <trkpt lat="42.177388" lon="-2.704017">
        <ele>1071.2</ele>
        <time>2021-07-04T14:24:17.000Z</time>
      </trkpt>
      <trkpt lat="42.177377" lon="-2.703970">
        <ele>1072.6</ele>
        <time>2021-07-04T14:24:29.000Z</time>
      </trkpt>
      <trkpt lat="42.177382" lon="-2.703972">
        <ele>1072.6</ele>
        <time>2021-07-04T14:24:30.000Z</time>
      </trkpt>
      <trkpt lat="42.177382" lon="-2.703972">
        <ele>1072.7</ele>
        <time>2021-07-04T14:24:31.000Z</time>
      </trkpt>
      <trkpt lat="42.177382" lon="-2.703968">
        <ele>1072.8</ele>
        <time>2021-07-04T14:24:32.000Z</time>
      </trkpt>
      <trkpt lat="42.177303" lon="-2.703907">
        <ele>1072.8</ele>
        <time>2021-07-04T14:24:49.000Z</time>
      </trkpt>
      <trkpt lat="42.177295" lon="-2.703917">
        <ele>1073.0</ele>
        <time>2021-07-04T14:24:51.000Z</time>
      </trkpt>
      <trkpt lat="42.177290" lon="-2.703923">
        <ele>1073.1</ele>
        <time>2021-07-04T14:24:52.000Z</time>
      </trkpt>
      <trkpt lat="42.177288" lon="-2.703935">
        <ele>1073.1</ele>
        <time>2021-07-04T14:24:57.000Z</time>
      </trkpt>
      <trkpt lat="42.177287" lon="-2.703938">
        <ele>1072.9</ele>
        <time>2021-07-04T14:24:58.000Z</time>
      </trkpt>
      <trkpt lat="42.177282" lon="-2.703945">
        <ele>1072.7</ele>
        <time>2021-07-04T14:25:00.000Z</time>
      </trkpt>
      <trkpt lat="42.177280" lon="-2.703943">
        <ele>1072.6</ele>
        <time>2021-07-04T14:25:03.000Z</time>
      </trkpt>
      <trkpt lat="42.177272" lon="-2.703943">
        <ele>1072.9</ele>
        <time>2021-07-04T14:25:08.000Z</time>
      </trkpt>
      <trkpt lat="42.177273" lon="-2.703948">
        <ele>1073.7</ele>
        <time>2021-07-04T14:25:35.000Z</time>
      </trkpt>
      <trkpt lat="42.177273" lon="-2.703948">
        <ele>1073.7</ele>
        <time>2021-07-04T14:25:36.000Z</time>
      </trkpt>
      <trkpt lat="42.177277" lon="-2.703948">
        <ele>1073.7</ele>
        <time>2021-07-04T14:25:44.000Z</time>
      </trkpt>
      <trkpt lat="42.177383" lon="-2.703925">
        <ele>1073.0</ele>
        <time>2021-07-04T14:25:53.000Z</time>
      </trkpt>
      <trkpt lat="42.177457" lon="-2.703845">
        <ele>1074.5</ele>
        <time>2021-07-04T14:25:59.000Z</time>
      </trkpt>
      <trkpt lat="42.177548" lon="-2.703812">
        <ele>1075.5</ele>
        <time>2021-07-04T14:26:04.000Z</time>
      </trkpt>
      <trkpt lat="42.177607" lon="-2.703698">
        <ele>1075.5</ele>
        <time>2021-07-04T14:26:11.000Z</time>
      </trkpt>
      <trkpt lat="42.177653" lon="-2.703587">
        <ele>1075.7</ele>
        <time>2021-07-04T14:26:17.000Z</time>
      </trkpt>
      <trkpt lat="42.177677" lon="-2.703455">
        <ele>1077.0</ele>
        <time>2021-07-04T14:26:23.000Z</time>
      </trkpt>
      <trkpt lat="42.177725" lon="-2.703335">
        <ele>1077.3</ele>
        <time>2021-07-04T14:26:30.000Z</time>
      </trkpt>
      <trkpt lat="42.177770" lon="-2.703215">
        <ele>1077.7</ele>
        <time>2021-07-04T14:26:37.000Z</time>
      </trkpt>
      <trkpt lat="42.177805" lon="-2.703095">
        <ele>1078.3</ele>
        <time>2021-07-04T14:26:43.000Z</time>
      </trkpt>
      <trkpt lat="42.177867" lon="-2.702992">
        <ele>1078.8</ele>
        <time>2021-07-04T14:26:49.000Z</time>
      </trkpt>
      <trkpt lat="42.177908" lon="-2.702862">
        <ele>1078.8</ele>
        <time>2021-07-04T14:26:56.000Z</time>
      </trkpt>
      <trkpt lat="42.177938" lon="-2.702738">
        <ele>1079.4</ele>
        <time>2021-07-04T14:27:03.000Z</time>
      </trkpt>
      <trkpt lat="42.177952" lon="-2.702702">
        <ele>1080.1</ele>
        <time>2021-07-04T14:27:07.000Z</time>
      </trkpt>
      <trkpt lat="42.177953" lon="-2.702702">
        <ele>1080.1</ele>
        <time>2021-07-04T14:28:06.000Z</time>
      </trkpt>
      <trkpt lat="42.177953" lon="-2.702702">
        <ele>1080.0</ele>
        <time>2021-07-04T14:28:07.000Z</time>
      </trkpt>
      <trkpt lat="42.177952" lon="-2.702702">
        <ele>1080.5</ele>
        <time>2021-07-04T14:28:09.000Z</time>
      </trkpt>
      <trkpt lat="42.177952" lon="-2.702702">
        <ele>1080.5</ele>
        <time>2021-07-04T14:28:10.000Z</time>
      </trkpt>
      <trkpt lat="42.177953" lon="-2.702698">
        <ele>1080.1</ele>
        <time>2021-07-04T14:28:17.000Z</time>
      </trkpt>
      <trkpt lat="42.177965" lon="-2.702650">
        <ele>1079.4</ele>
        <time>2021-07-04T14:28:24.000Z</time>
      </trkpt>
      <trkpt lat="42.177968" lon="-2.702650">
        <ele>1080.1</ele>
        <time>2021-07-04T14:28:59.000Z</time>
      </trkpt>
      <trkpt lat="42.177980" lon="-2.702640">
        <ele>1079.8</ele>
        <time>2021-07-04T14:29:04.000Z</time>
      </trkpt>
      <trkpt lat="42.177980" lon="-2.702645">
        <ele>1080.2</ele>
        <time>2021-07-04T14:29:20.000Z</time>
      </trkpt>
      <trkpt lat="42.177980" lon="-2.702642">
        <ele>1080.2</ele>
        <time>2021-07-04T14:29:28.000Z</time>
      </trkpt>
      <trkpt lat="42.177977" lon="-2.702647">
        <ele>1080.3</ele>
        <time>2021-07-04T14:29:29.000Z</time>
      </trkpt>
      <trkpt lat="42.177977" lon="-2.702647">
        <ele>1080.5</ele>
        <time>2021-07-04T14:29:30.000Z</time>
      </trkpt>
      <trkpt lat="42.177975" lon="-2.702647">
        <ele>1080.1</ele>
        <time>2021-07-04T14:29:58.000Z</time>
      </trkpt>
      <trkpt lat="42.177975" lon="-2.702647">
        <ele>1080.1</ele>
        <time>2021-07-04T14:29:59.000Z</time>
      </trkpt>
      <trkpt lat="42.177973" lon="-2.702647">
        <ele>1080.2</ele>
        <time>2021-07-04T14:30:27.000Z</time>
      </trkpt>
      <trkpt lat="42.177973" lon="-2.702647">
        <ele>1080.1</ele>
        <time>2021-07-04T14:30:28.000Z</time>
      </trkpt>
      <trkpt lat="42.177972" lon="-2.702647">
        <ele>1080.2</ele>
        <time>2021-07-04T14:31:25.000Z</time>
      </trkpt>
      <trkpt lat="42.177972" lon="-2.702647">
        <ele>1080.1</ele>
        <time>2021-07-04T14:31:26.000Z</time>
      </trkpt>
      <trkpt lat="42.177963" lon="-2.702640">
        <ele>1080.4</ele>
        <time>2021-07-04T14:32:00.000Z</time>
      </trkpt>
      <trkpt lat="42.177873" lon="-2.702718">
        <ele>1080.5</ele>
        <time>2021-07-04T14:32:12.000Z</time>
      </trkpt>
      <trkpt lat="42.177812" lon="-2.702840">
        <ele>1081.3</ele>
        <time>2021-07-04T14:32:17.000Z</time>
      </trkpt>
      <trkpt lat="42.177730" lon="-2.702940">
        <ele>1081.8</ele>
        <time>2021-07-04T14:32:22.000Z</time>
      </trkpt>
      <trkpt lat="42.177652" lon="-2.703023">
        <ele>1083.0</ele>
        <time>2021-07-04T14:32:27.000Z</time>
      </trkpt>
      <trkpt lat="42.177578" lon="-2.703095">
        <ele>1083.7</ele>
        <time>2021-07-04T14:32:32.000Z</time>
      </trkpt>
      <trkpt lat="42.177480" lon="-2.703155">
        <ele>1084.3</ele>
        <time>2021-07-04T14:32:38.000Z</time>
      </trkpt>
      <trkpt lat="42.177403" lon="-2.703230">
        <ele>1085.3</ele>
        <time>2021-07-04T14:32:43.000Z</time>
      </trkpt>
      <trkpt lat="42.177328" lon="-2.703315">
        <ele>1086.0</ele>
        <time>2021-07-04T14:32:48.000Z</time>
      </trkpt>
      <trkpt lat="42.177253" lon="-2.703400">
        <ele>1086.0</ele>
        <time>2021-07-04T14:32:53.000Z</time>
      </trkpt>
      <trkpt lat="42.177187" lon="-2.703512">
        <ele>1086.2</ele>
        <time>2021-07-04T14:32:58.000Z</time>
      </trkpt>
      <trkpt lat="42.177097" lon="-2.703597">
        <ele>1086.7</ele>
        <time>2021-07-04T14:33:03.000Z</time>
      </trkpt>
      <trkpt lat="42.177013" lon="-2.703655">
        <ele>1086.6</ele>
        <time>2021-07-04T14:33:07.000Z</time>
      </trkpt>
      <trkpt lat="42.176910" lon="-2.703703">
        <ele>1085.8</ele>
        <time>2021-07-04T14:33:12.000Z</time>
      </trkpt>
      <trkpt lat="42.176817" lon="-2.703712">
        <ele>1086.5</ele>
        <time>2021-07-04T14:33:17.000Z</time>
      </trkpt>
      <trkpt lat="42.176723" lon="-2.703727">
        <ele>1086.7</ele>
        <time>2021-07-04T14:33:25.000Z</time>
      </trkpt>
      <trkpt lat="42.176632" lon="-2.703768">
        <ele>1086.7</ele>
        <time>2021-07-04T14:33:31.000Z</time>
      </trkpt>
      <trkpt lat="42.176537" lon="-2.703783">
        <ele>1086.7</ele>
        <time>2021-07-04T14:33:37.000Z</time>
      </trkpt>
      <trkpt lat="42.176443" lon="-2.703802">
        <ele>1087.0</ele>
        <time>2021-07-04T14:33:41.000Z</time>
      </trkpt>
      <trkpt lat="42.176347" lon="-2.703833">
        <ele>1087.1</ele>
        <time>2021-07-04T14:33:45.000Z</time>
      </trkpt>
      <trkpt lat="42.176240" lon="-2.703840">
        <ele>1085.8</ele>
        <time>2021-07-04T14:33:49.000Z</time>
      </trkpt>
      <trkpt lat="42.176132" lon="-2.703860">
        <ele>1086.4</ele>
        <time>2021-07-04T14:33:53.000Z</time>
      </trkpt>
      <trkpt lat="42.176020" lon="-2.703898">
        <ele>1085.8</ele>
        <time>2021-07-04T14:33:57.000Z</time>
      </trkpt>
      <trkpt lat="42.175930" lon="-2.703900">
        <ele>1086.3</ele>
        <time>2021-07-04T14:34:01.000Z</time>
      </trkpt>
      <trkpt lat="42.176003" lon="-2.703813">
        <ele>1086.3</ele>
        <time>2021-07-04T14:34:08.000Z</time>
      </trkpt>
      <trkpt lat="42.176105" lon="-2.703777">
        <ele>1087.1</ele>
        <time>2021-07-04T14:34:14.000Z</time>
      </trkpt>
      <trkpt lat="42.176205" lon="-2.703750">
        <ele>1088.1</ele>
        <time>2021-07-04T14:34:20.000Z</time>
      </trkpt>
      <trkpt lat="42.176297" lon="-2.703718">
        <ele>1089.3</ele>
        <time>2021-07-04T14:34:26.000Z</time>
      </trkpt>
      <trkpt lat="42.176387" lon="-2.703682">
        <ele>1089.5</ele>
        <time>2021-07-04T14:34:33.000Z</time>
      </trkpt>
      <trkpt lat="42.176472" lon="-2.703615">
        <ele>1092.5</ele>
        <time>2021-07-04T14:34:41.000Z</time>
      </trkpt>
      <trkpt lat="42.176553" lon="-2.703547">
        <ele>1094.2</ele>
        <time>2021-07-04T14:34:49.000Z</time>
      </trkpt>
      <trkpt lat="42.176630" lon="-2.703462">
        <ele>1094.4</ele>
        <time>2021-07-04T14:34:57.000Z</time>
      </trkpt>
      <trkpt lat="42.176688" lon="-2.703355">
        <ele>1096.4</ele>
        <time>2021-07-04T14:35:05.000Z</time>
      </trkpt>
      <trkpt lat="42.176728" lon="-2.703235">
        <ele>1097.6</ele>
        <time>2021-07-04T14:35:13.000Z</time>
      </trkpt>
      <trkpt lat="42.176760" lon="-2.703105">
        <ele>1099.1</ele>
        <time>2021-07-04T14:35:22.000Z</time>
      </trkpt>
      <trkpt lat="42.176800" lon="-2.702978">
        <ele>1101.5</ele>
        <time>2021-07-04T14:35:31.000Z</time>
      </trkpt>
      <trkpt lat="42.176830" lon="-2.702862">
        <ele>1103.4</ele>
        <time>2021-07-04T14:35:39.000Z</time>
      </trkpt>
      <trkpt lat="42.176847" lon="-2.702740">
        <ele>1104.9</ele>
        <time>2021-07-04T14:35:47.000Z</time>
      </trkpt>
      <trkpt lat="42.176840" lon="-2.702603">
        <ele>1105.8</ele>
        <time>2021-07-04T14:35:55.000Z</time>
      </trkpt>
      <trkpt lat="42.176837" lon="-2.702477">
        <ele>1107.5</ele>
        <time>2021-07-04T14:36:03.000Z</time>
      </trkpt>
      <trkpt lat="42.176825" lon="-2.702352">
        <ele>1108.8</ele>
        <time>2021-07-04T14:36:11.000Z</time>
      </trkpt>
      <trkpt lat="42.176815" lon="-2.702230">
        <ele>1111.5</ele>
        <time>2021-07-04T14:36:19.000Z</time>
      </trkpt>
      <trkpt lat="42.176795" lon="-2.702098">
        <ele>1111.8</ele>
        <time>2021-07-04T14:36:27.000Z</time>
      </trkpt>
      <trkpt lat="42.176768" lon="-2.701982">
        <ele>1112.8</ele>
        <time>2021-07-04T14:36:34.000Z</time>
      </trkpt>
      <trkpt lat="42.176747" lon="-2.701860">
        <ele>1114.4</ele>
        <time>2021-07-04T14:36:41.000Z</time>
      </trkpt>
      <trkpt lat="42.176718" lon="-2.701742">
        <ele>1115.5</ele>
        <time>2021-07-04T14:36:48.000Z</time>
      </trkpt>
      <trkpt lat="42.176677" lon="-2.701622">
        <ele>1116.7</ele>
        <time>2021-07-04T14:36:56.000Z</time>
      </trkpt>
      <trkpt lat="42.176657" lon="-2.701488">
        <ele>1117.8</ele>
        <time>2021-07-04T14:37:04.000Z</time>
      </trkpt>
      <trkpt lat="42.176630" lon="-2.701358">
        <ele>1118.6</ele>
        <time>2021-07-04T14:37:11.000Z</time>
      </trkpt>
      <trkpt lat="42.176587" lon="-2.701247">
        <ele>1119.1</ele>
        <time>2021-07-04T14:37:16.000Z</time>
      </trkpt>
      <trkpt lat="42.176550" lon="-2.701135">
        <ele>1119.6</ele>
        <time>2021-07-04T14:37:20.000Z</time>
      </trkpt>
      <trkpt lat="42.176512" lon="-2.701003">
        <ele>1119.2</ele>
        <time>2021-07-04T14:37:25.000Z</time>
      </trkpt>
      <trkpt lat="42.176475" lon="-2.700890">
        <ele>1119.8</ele>
        <time>2021-07-04T14:37:29.000Z</time>
      </trkpt>
      <trkpt lat="42.176442" lon="-2.700767">
        <ele>1119.3</ele>
        <time>2021-07-04T14:37:33.000Z</time>
      </trkpt>
      <trkpt lat="42.176395" lon="-2.700627">
        <ele>1118.8</ele>
        <time>2021-07-04T14:37:37.000Z</time>
      </trkpt>
      <trkpt lat="42.176358" lon="-2.700508">
        <ele>1119.1</ele>
        <time>2021-07-04T14:37:40.000Z</time>
      </trkpt>
      <trkpt lat="42.176310" lon="-2.700368">
        <ele>1119.6</ele>
        <time>2021-07-04T14:37:44.000Z</time>
      </trkpt>
      <trkpt lat="42.176245" lon="-2.700270">
        <ele>1120.3</ele>
        <time>2021-07-04T14:37:48.000Z</time>
      </trkpt>
      <trkpt lat="42.176155" lon="-2.700175">
        <ele>1121.0</ele>
        <time>2021-07-04T14:37:53.000Z</time>
      </trkpt>
      <trkpt lat="42.176085" lon="-2.700090">
        <ele>1121.5</ele>
        <time>2021-07-04T14:37:57.000Z</time>
      </trkpt>
      <trkpt lat="42.175993" lon="-2.700000">
        <ele>1122.4</ele>
        <time>2021-07-04T14:38:02.000Z</time>
      </trkpt>
      <trkpt lat="42.175917" lon="-2.699932">
        <ele>1123.3</ele>
        <time>2021-07-04T14:38:06.000Z</time>
      </trkpt>
      <trkpt lat="42.175843" lon="-2.699848">
        <ele>1123.5</ele>
        <time>2021-07-04T14:38:10.000Z</time>
      </trkpt>
      <trkpt lat="42.175790" lon="-2.699748">
        <ele>1124.2</ele>
        <time>2021-07-04T14:38:14.000Z</time>
      </trkpt>
      <trkpt lat="42.175753" lon="-2.699627">
        <ele>1124.7</ele>
        <time>2021-07-04T14:38:18.000Z</time>
      </trkpt>
      <trkpt lat="42.175722" lon="-2.699502">
        <ele>1125.1</ele>
        <time>2021-07-04T14:38:22.000Z</time>
      </trkpt>
      <trkpt lat="42.175682" lon="-2.699360">
        <ele>1126.2</ele>
        <time>2021-07-04T14:38:27.000Z</time>
      </trkpt>
      <trkpt lat="42.175643" lon="-2.699240">
        <ele>1126.0</ele>
        <time>2021-07-04T14:38:31.000Z</time>
      </trkpt>
      <trkpt lat="42.175593" lon="-2.699127">
        <ele>1126.6</ele>
        <time>2021-07-04T14:38:35.000Z</time>
      </trkpt>
      <trkpt lat="42.175540" lon="-2.699017">
        <ele>1127.0</ele>
        <time>2021-07-04T14:38:39.000Z</time>
      </trkpt>
      <trkpt lat="42.175488" lon="-2.698907">
        <ele>1127.8</ele>
        <time>2021-07-04T14:38:43.000Z</time>
      </trkpt>
      <trkpt lat="42.175445" lon="-2.698797">
        <ele>1128.1</ele>
        <time>2021-07-04T14:38:47.000Z</time>
      </trkpt>
      <trkpt lat="42.175413" lon="-2.698682">
        <ele>1128.3</ele>
        <time>2021-07-04T14:38:51.000Z</time>
      </trkpt>
      <trkpt lat="42.175385" lon="-2.698558">
        <ele>1129.6</ele>
        <time>2021-07-04T14:38:55.000Z</time>
      </trkpt>
      <trkpt lat="42.175358" lon="-2.698437">
        <ele>1129.7</ele>
        <time>2021-07-04T14:38:59.000Z</time>
      </trkpt>
      <trkpt lat="42.175338" lon="-2.698313">
        <ele>1129.9</ele>
        <time>2021-07-04T14:39:03.000Z</time>
      </trkpt>
      <trkpt lat="42.175320" lon="-2.698177">
        <ele>1130.7</ele>
        <time>2021-07-04T14:39:08.000Z</time>
      </trkpt>
      <trkpt lat="42.175305" lon="-2.698040">
        <ele>1131.9</ele>
        <time>2021-07-04T14:39:13.000Z</time>
      </trkpt>
      <trkpt lat="42.175303" lon="-2.697902">
        <ele>1132.9</ele>
        <time>2021-07-04T14:39:18.000Z</time>
      </trkpt>
      <trkpt lat="42.175287" lon="-2.697755">
        <ele>1133.6</ele>
        <time>2021-07-04T14:39:23.000Z</time>
      </trkpt>
      <trkpt lat="42.175282" lon="-2.697613">
        <ele>1134.7</ele>
        <time>2021-07-04T14:39:28.000Z</time>
      </trkpt>
      <trkpt lat="42.175275" lon="-2.697470">
        <ele>1135.2</ele>
        <time>2021-07-04T14:39:33.000Z</time>
      </trkpt>
      <trkpt lat="42.175277" lon="-2.697333">
        <ele>1136.7</ele>
        <time>2021-07-04T14:39:38.000Z</time>
      </trkpt>
      <trkpt lat="42.175272" lon="-2.697185">
        <ele>1137.1</ele>
        <time>2021-07-04T14:39:44.000Z</time>
      </trkpt>
      <trkpt lat="42.175263" lon="-2.697057">
        <ele>1137.9</ele>
        <time>2021-07-04T14:39:48.000Z</time>
      </trkpt>
      <trkpt lat="42.175243" lon="-2.696938">
        <ele>1138.5</ele>
        <time>2021-07-04T14:39:52.000Z</time>
      </trkpt>
      <trkpt lat="42.175212" lon="-2.696820">
        <ele>1138.3</ele>
        <time>2021-07-04T14:39:56.000Z</time>
      </trkpt>
      <trkpt lat="42.175155" lon="-2.696717">
        <ele>1138.8</ele>
        <time>2021-07-04T14:40:00.000Z</time>
      </trkpt>
      <trkpt lat="42.175070" lon="-2.696622">
        <ele>1139.8</ele>
        <time>2021-07-04T14:40:04.000Z</time>
      </trkpt>
      <trkpt lat="42.174983" lon="-2.696530">
        <ele>1139.6</ele>
        <time>2021-07-04T14:40:08.000Z</time>
      </trkpt>
      <trkpt lat="42.174893" lon="-2.696452">
        <ele>1139.6</ele>
        <time>2021-07-04T14:40:12.000Z</time>
      </trkpt>
      <trkpt lat="42.174795" lon="-2.696390">
        <ele>1140.9</ele>
        <time>2021-07-04T14:40:16.000Z</time>
      </trkpt>
      <trkpt lat="42.174705" lon="-2.696333">
        <ele>1141.3</ele>
        <time>2021-07-04T14:40:20.000Z</time>
      </trkpt>
      <trkpt lat="42.174598" lon="-2.696298">
        <ele>1140.4</ele>
        <time>2021-07-04T14:40:25.000Z</time>
      </trkpt>
      <trkpt lat="42.174498" lon="-2.696272">
        <ele>1143.1</ele>
        <time>2021-07-04T14:40:30.000Z</time>
      </trkpt>
      <trkpt lat="42.174405" lon="-2.696230">
        <ele>1142.8</ele>
        <time>2021-07-04T14:40:34.000Z</time>
      </trkpt>
      <trkpt lat="42.174302" lon="-2.696192">
        <ele>1143.7</ele>
        <time>2021-07-04T14:40:38.000Z</time>
      </trkpt>
      <trkpt lat="42.174195" lon="-2.696170">
        <ele>1143.5</ele>
        <time>2021-07-04T14:40:42.000Z</time>
      </trkpt>
      <trkpt lat="42.174090" lon="-2.696138">
        <ele>1144.1</ele>
        <time>2021-07-04T14:40:46.000Z</time>
      </trkpt>
      <trkpt lat="42.173990" lon="-2.696115">
        <ele>1144.4</ele>
        <time>2021-07-04T14:40:50.000Z</time>
      </trkpt>
      <trkpt lat="42.173890" lon="-2.696070">
        <ele>1145.0</ele>
        <time>2021-07-04T14:40:54.000Z</time>
      </trkpt>
      <trkpt lat="42.173790" lon="-2.696048">
        <ele>1145.5</ele>
        <time>2021-07-04T14:40:58.000Z</time>
      </trkpt>
      <trkpt lat="42.173682" lon="-2.696007">
        <ele>1145.7</ele>
        <time>2021-07-04T14:41:03.000Z</time>
      </trkpt>
      <trkpt lat="42.173575" lon="-2.695968">
        <ele>1146.9</ele>
        <time>2021-07-04T14:41:08.000Z</time>
      </trkpt>
      <trkpt lat="42.173467" lon="-2.695935">
        <ele>1146.9</ele>
        <time>2021-07-04T14:41:13.000Z</time>
      </trkpt>
      <trkpt lat="42.173373" lon="-2.695908">
        <ele>1147.7</ele>
        <time>2021-07-04T14:41:17.000Z</time>
      </trkpt>
      <trkpt lat="42.173278" lon="-2.695882">
        <ele>1148.1</ele>
        <time>2021-07-04T14:41:21.000Z</time>
      </trkpt>
      <trkpt lat="42.173182" lon="-2.695873">
        <ele>1148.8</ele>
        <time>2021-07-04T14:41:25.000Z</time>
      </trkpt>
      <trkpt lat="42.173075" lon="-2.695858">
        <ele>1149.6</ele>
        <time>2021-07-04T14:41:30.000Z</time>
      </trkpt>
      <trkpt lat="42.172963" lon="-2.695852">
        <ele>1150.2</ele>
        <time>2021-07-04T14:41:35.000Z</time>
      </trkpt>
      <trkpt lat="42.172853" lon="-2.695818">
        <ele>1151.3</ele>
        <time>2021-07-04T14:41:40.000Z</time>
      </trkpt>
      <trkpt lat="42.172765" lon="-2.695742">
        <ele>1152.1</ele>
        <time>2021-07-04T14:41:45.000Z</time>
      </trkpt>
      <trkpt lat="42.172705" lon="-2.695627">
        <ele>1153.0</ele>
        <time>2021-07-04T14:41:50.000Z</time>
      </trkpt>
      <trkpt lat="42.172650" lon="-2.695518">
        <ele>1153.4</ele>
        <time>2021-07-04T14:41:55.000Z</time>
      </trkpt>
      <trkpt lat="42.172573" lon="-2.695453">
        <ele>1154.0</ele>
        <time>2021-07-04T14:41:59.000Z</time>
      </trkpt>
      <trkpt lat="42.172470" lon="-2.695403">
        <ele>1154.6</ele>
        <time>2021-07-04T14:42:04.000Z</time>
      </trkpt>
      <trkpt lat="42.172367" lon="-2.695348">
        <ele>1155.0</ele>
        <time>2021-07-04T14:42:09.000Z</time>
      </trkpt>
      <trkpt lat="42.172287" lon="-2.695287">
        <ele>1155.6</ele>
        <time>2021-07-04T14:42:13.000Z</time>
      </trkpt>
      <trkpt lat="42.172222" lon="-2.695168">
        <ele>1156.3</ele>
        <time>2021-07-04T14:42:18.000Z</time>
      </trkpt>
      <trkpt lat="42.172175" lon="-2.695047">
        <ele>1156.5</ele>
        <time>2021-07-04T14:42:23.000Z</time>
      </trkpt>
      <trkpt lat="42.172100" lon="-2.694938">
        <ele>1157.6</ele>
        <time>2021-07-04T14:42:29.000Z</time>
      </trkpt>
      <trkpt lat="42.172025" lon="-2.694835">
        <ele>1157.3</ele>
        <time>2021-07-04T14:42:33.000Z</time>
      </trkpt>
      <trkpt lat="42.171940" lon="-2.694785">
        <ele>1158.8</ele>
        <time>2021-07-04T14:42:37.000Z</time>
      </trkpt>
      <trkpt lat="42.171845" lon="-2.694752">
        <ele>1158.6</ele>
        <time>2021-07-04T14:42:41.000Z</time>
      </trkpt>
      <trkpt lat="42.171743" lon="-2.694725">
        <ele>1159.3</ele>
        <time>2021-07-04T14:42:45.000Z</time>
      </trkpt>
      <trkpt lat="42.171633" lon="-2.694698">
        <ele>1159.4</ele>
        <time>2021-07-04T14:42:49.000Z</time>
      </trkpt>
      <trkpt lat="42.171525" lon="-2.694667">
        <ele>1159.7</ele>
        <time>2021-07-04T14:42:53.000Z</time>
      </trkpt>
      <trkpt lat="42.171410" lon="-2.694630">
        <ele>1159.5</ele>
        <time>2021-07-04T14:42:57.000Z</time>
      </trkpt>
      <trkpt lat="42.171320" lon="-2.694602">
        <ele>1160.3</ele>
        <time>2021-07-04T14:43:00.000Z</time>
      </trkpt>
      <trkpt lat="42.171232" lon="-2.694577">
        <ele>1160.0</ele>
        <time>2021-07-04T14:43:03.000Z</time>
      </trkpt>
      <trkpt lat="42.171143" lon="-2.694550">
        <ele>1161.0</ele>
        <time>2021-07-04T14:43:06.000Z</time>
      </trkpt>
      <trkpt lat="42.171037" lon="-2.694490">
        <ele>1160.9</ele>
        <time>2021-07-04T14:43:10.000Z</time>
      </trkpt>
      <trkpt lat="42.170935" lon="-2.694410">
        <ele>1161.7</ele>
        <time>2021-07-04T14:43:14.000Z</time>
      </trkpt>
      <trkpt lat="42.170842" lon="-2.694310">
        <ele>1162.0</ele>
        <time>2021-07-04T14:43:18.000Z</time>
      </trkpt>
      <trkpt lat="42.170767" lon="-2.694228">
        <ele>1162.3</ele>
        <time>2021-07-04T14:43:22.000Z</time>
      </trkpt>
      <trkpt lat="42.170678" lon="-2.694128">
        <ele>1162.6</ele>
        <time>2021-07-04T14:43:26.000Z</time>
      </trkpt>
      <trkpt lat="42.170590" lon="-2.694023">
        <ele>1163.0</ele>
        <time>2021-07-04T14:43:30.000Z</time>
      </trkpt>
      <trkpt lat="42.170512" lon="-2.693903">
        <ele>1163.7</ele>
        <time>2021-07-04T14:43:34.000Z</time>
      </trkpt>
      <trkpt lat="42.170457" lon="-2.693805">
        <ele>1164.2</ele>
        <time>2021-07-04T14:43:37.000Z</time>
      </trkpt>
      <trkpt lat="42.170418" lon="-2.693693">
        <ele>1164.4</ele>
        <time>2021-07-04T14:43:40.000Z</time>
      </trkpt>
      <trkpt lat="42.170378" lon="-2.693545">
        <ele>1164.7</ele>
        <time>2021-07-04T14:43:44.000Z</time>
      </trkpt>
      <trkpt lat="42.170315" lon="-2.693420">
        <ele>1165.3</ele>
        <time>2021-07-04T14:43:48.000Z</time>
      </trkpt>
      <trkpt lat="42.170240" lon="-2.693322">
        <ele>1165.6</ele>
        <time>2021-07-04T14:43:52.000Z</time>
      </trkpt>
      <trkpt lat="42.170143" lon="-2.693245">
        <ele>1163.3</ele>
        <time>2021-07-04T14:43:56.000Z</time>
      </trkpt>
      <trkpt lat="42.170047" lon="-2.693180">
        <ele>1167.4</ele>
        <time>2021-07-04T14:44:00.000Z</time>
      </trkpt>
      <trkpt lat="42.169953" lon="-2.693097">
        <ele>1167.1</ele>
        <time>2021-07-04T14:44:04.000Z</time>
      </trkpt>
      <trkpt lat="42.169858" lon="-2.693017">
        <ele>1168.5</ele>
        <time>2021-07-04T14:44:08.000Z</time>
      </trkpt>
      <trkpt lat="42.169763" lon="-2.692932">
        <ele>1168.6</ele>
        <time>2021-07-04T14:44:12.000Z</time>
      </trkpt>
      <trkpt lat="42.169660" lon="-2.692850">
        <ele>1169.0</ele>
        <time>2021-07-04T14:44:16.000Z</time>
      </trkpt>
      <trkpt lat="42.169552" lon="-2.692793">
        <ele>1169.2</ele>
        <time>2021-07-04T14:44:20.000Z</time>
      </trkpt>
      <trkpt lat="42.169447" lon="-2.692772">
        <ele>1169.9</ele>
        <time>2021-07-04T14:44:24.000Z</time>
      </trkpt>
      <trkpt lat="42.169357" lon="-2.692783">
        <ele>1169.1</ele>
        <time>2021-07-04T14:44:28.000Z</time>
      </trkpt>
      <trkpt lat="42.169267" lon="-2.692775">
        <ele>1170.4</ele>
        <time>2021-07-04T14:44:33.000Z</time>
      </trkpt>
      <trkpt lat="42.169160" lon="-2.692763">
        <ele>1169.7</ele>
        <time>2021-07-04T14:44:37.000Z</time>
      </trkpt>
      <trkpt lat="42.169045" lon="-2.692745">
        <ele>1170.6</ele>
        <time>2021-07-04T14:44:41.000Z</time>
      </trkpt>
      <trkpt lat="42.168957" lon="-2.692722">
        <ele>1171.6</ele>
        <time>2021-07-04T14:44:44.000Z</time>
      </trkpt>
      <trkpt lat="42.168865" lon="-2.692693">
        <ele>1171.6</ele>
        <time>2021-07-04T14:44:47.000Z</time>
      </trkpt>
      <trkpt lat="42.168765" lon="-2.692647">
        <ele>1171.2</ele>
        <time>2021-07-04T14:44:50.000Z</time>
      </trkpt>
      <trkpt lat="42.168653" lon="-2.692598">
        <ele>1171.1</ele>
        <time>2021-07-04T14:44:53.000Z</time>
      </trkpt>
      <trkpt lat="42.168538" lon="-2.692550">
        <ele>1170.5</ele>
        <time>2021-07-04T14:44:56.000Z</time>
      </trkpt>
      <trkpt lat="42.168428" lon="-2.692512">
        <ele>1170.8</ele>
        <time>2021-07-04T14:44:59.000Z</time>
      </trkpt>
      <trkpt lat="42.168315" lon="-2.692467">
        <ele>1170.0</ele>
        <time>2021-07-04T14:45:02.000Z</time>
      </trkpt>
      <trkpt lat="42.168208" lon="-2.692402">
        <ele>1170.3</ele>
        <time>2021-07-04T14:45:05.000Z</time>
      </trkpt>
      <trkpt lat="42.168113" lon="-2.692325">
        <ele>1169.2</ele>
        <time>2021-07-04T14:45:08.000Z</time>
      </trkpt>
      <trkpt lat="42.168020" lon="-2.692225">
        <ele>1168.6</ele>
        <time>2021-07-04T14:45:11.000Z</time>
      </trkpt>
      <trkpt lat="42.167933" lon="-2.692115">
        <ele>1169.9</ele>
        <time>2021-07-04T14:45:14.000Z</time>
      </trkpt>
      <trkpt lat="42.167837" lon="-2.692002">
        <ele>1169.2</ele>
        <time>2021-07-04T14:45:17.000Z</time>
      </trkpt>
      <trkpt lat="42.167770" lon="-2.691907">
        <ele>1169.4</ele>
        <time>2021-07-04T14:45:20.000Z</time>
      </trkpt>
      <trkpt lat="42.167702" lon="-2.691813">
        <ele>1169.0</ele>
        <time>2021-07-04T14:45:26.000Z</time>
      </trkpt>
      <trkpt lat="42.167642" lon="-2.691713">
        <ele>1168.9</ele>
        <time>2021-07-04T14:45:33.000Z</time>
      </trkpt>
      <trkpt lat="42.167567" lon="-2.691592">
        <ele>1169.0</ele>
        <time>2021-07-04T14:45:37.000Z</time>
      </trkpt>
      <trkpt lat="42.167500" lon="-2.691510">
        <ele>1168.9</ele>
        <time>2021-07-04T14:45:40.000Z</time>
      </trkpt>
      <trkpt lat="42.167413" lon="-2.691405">
        <ele>1168.9</ele>
        <time>2021-07-04T14:45:44.000Z</time>
      </trkpt>
      <trkpt lat="42.167330" lon="-2.691305">
        <ele>1169.3</ele>
        <time>2021-07-04T14:45:48.000Z</time>
      </trkpt>
      <trkpt lat="42.167267" lon="-2.691212">
        <ele>1169.5</ele>
        <time>2021-07-04T14:45:51.000Z</time>
      </trkpt>
      <trkpt lat="42.167200" lon="-2.691117">
        <ele>1169.4</ele>
        <time>2021-07-04T14:45:54.000Z</time>
      </trkpt>
      <trkpt lat="42.167140" lon="-2.691025">
        <ele>1169.7</ele>
        <time>2021-07-04T14:45:57.000Z</time>
      </trkpt>
      <trkpt lat="42.167073" lon="-2.690907">
        <ele>1170.7</ele>
        <time>2021-07-04T14:46:01.000Z</time>
      </trkpt>
      <trkpt lat="42.167007" lon="-2.690795">
        <ele>1171.1</ele>
        <time>2021-07-04T14:46:04.000Z</time>
      </trkpt>
      <trkpt lat="42.166938" lon="-2.690698">
        <ele>1171.1</ele>
        <time>2021-07-04T14:46:07.000Z</time>
      </trkpt>
      <trkpt lat="42.166852" lon="-2.690652">
        <ele>1172.0</ele>
        <time>2021-07-04T14:46:10.000Z</time>
      </trkpt>
      <trkpt lat="42.166765" lon="-2.690615">
        <ele>1172.1</ele>
        <time>2021-07-04T14:46:13.000Z</time>
      </trkpt>
      <trkpt lat="42.166652" lon="-2.690598">
        <ele>1172.5</ele>
        <time>2021-07-04T14:46:17.000Z</time>
      </trkpt>
      <trkpt lat="42.166537" lon="-2.690595">
        <ele>1173.0</ele>
        <time>2021-07-04T14:46:21.000Z</time>
      </trkpt>
      <trkpt lat="42.166445" lon="-2.690600">
        <ele>1173.6</ele>
        <time>2021-07-04T14:46:25.000Z</time>
      </trkpt>
      <trkpt lat="42.166352" lon="-2.690607">
        <ele>1175.5</ele>
        <time>2021-07-04T14:46:29.000Z</time>
      </trkpt>
      <trkpt lat="42.166253" lon="-2.690600">
        <ele>1175.4</ele>
        <time>2021-07-04T14:46:33.000Z</time>
      </trkpt>
      <trkpt lat="42.166158" lon="-2.690615">
        <ele>1175.9</ele>
        <time>2021-07-04T14:46:37.000Z</time>
      </trkpt>
      <trkpt lat="42.166047" lon="-2.690627">
        <ele>1176.6</ele>
        <time>2021-07-04T14:46:41.000Z</time>
      </trkpt>
      <trkpt lat="42.165955" lon="-2.690633">
        <ele>1176.4</ele>
        <time>2021-07-04T14:46:44.000Z</time>
      </trkpt>
      <trkpt lat="42.165843" lon="-2.690640">
        <ele>1177.2</ele>
        <time>2021-07-04T14:46:49.000Z</time>
      </trkpt>
      <trkpt lat="42.165733" lon="-2.690637">
        <ele>1177.3</ele>
        <time>2021-07-04T14:46:53.000Z</time>
      </trkpt>
      <trkpt lat="42.165625" lon="-2.690605">
        <ele>1178.3</ele>
        <time>2021-07-04T14:46:57.000Z</time>
      </trkpt>
      <trkpt lat="42.165520" lon="-2.690590">
        <ele>1178.9</ele>
        <time>2021-07-04T14:47:01.000Z</time>
      </trkpt>
      <trkpt lat="42.165413" lon="-2.690547">
        <ele>1178.9</ele>
        <time>2021-07-04T14:47:05.000Z</time>
      </trkpt>
      <trkpt lat="42.165315" lon="-2.690487">
        <ele>1179.2</ele>
        <time>2021-07-04T14:47:09.000Z</time>
      </trkpt>
      <trkpt lat="42.165210" lon="-2.690450">
        <ele>1180.0</ele>
        <time>2021-07-04T14:47:13.000Z</time>
      </trkpt>
      <trkpt lat="42.165108" lon="-2.690415">
        <ele>1178.3</ele>
        <time>2021-07-04T14:47:17.000Z</time>
      </trkpt>
      <trkpt lat="42.165020" lon="-2.690348">
        <ele>1181.3</ele>
        <time>2021-07-04T14:47:21.000Z</time>
      </trkpt>
      <trkpt lat="42.164998" lon="-2.690222">
        <ele>1181.6</ele>
        <time>2021-07-04T14:47:25.000Z</time>
      </trkpt>
      <trkpt lat="42.165068" lon="-2.690120">
        <ele>1182.3</ele>
        <time>2021-07-04T14:47:29.000Z</time>
      </trkpt>
      <trkpt lat="42.165163" lon="-2.690035">
        <ele>1182.6</ele>
        <time>2021-07-04T14:47:33.000Z</time>
      </trkpt>
      <trkpt lat="42.165262" lon="-2.689958">
        <ele>1182.0</ele>
        <time>2021-07-04T14:47:37.000Z</time>
      </trkpt>
      <trkpt lat="42.165363" lon="-2.689880">
        <ele>1182.7</ele>
        <time>2021-07-04T14:47:41.000Z</time>
      </trkpt>
      <trkpt lat="42.165453" lon="-2.689793">
        <ele>1183.8</ele>
        <time>2021-07-04T14:47:45.000Z</time>
      </trkpt>
      <trkpt lat="42.165542" lon="-2.689692">
        <ele>1184.0</ele>
        <time>2021-07-04T14:47:49.000Z</time>
      </trkpt>
      <trkpt lat="42.165627" lon="-2.689580">
        <ele>1184.6</ele>
        <time>2021-07-04T14:47:53.000Z</time>
      </trkpt>
      <trkpt lat="42.165718" lon="-2.689477">
        <ele>1185.1</ele>
        <time>2021-07-04T14:47:57.000Z</time>
      </trkpt>
      <trkpt lat="42.165798" lon="-2.689362">
        <ele>1186.0</ele>
        <time>2021-07-04T14:48:01.000Z</time>
      </trkpt>
      <trkpt lat="42.165862" lon="-2.689275">
        <ele>1185.9</ele>
        <time>2021-07-04T14:48:04.000Z</time>
      </trkpt>
      <trkpt lat="42.165928" lon="-2.689152">
        <ele>1186.7</ele>
        <time>2021-07-04T14:48:08.000Z</time>
      </trkpt>
      <trkpt lat="42.166002" lon="-2.689028">
        <ele>1187.3</ele>
        <time>2021-07-04T14:48:12.000Z</time>
      </trkpt>
      <trkpt lat="42.166060" lon="-2.688900">
        <ele>1186.3</ele>
        <time>2021-07-04T14:48:16.000Z</time>
      </trkpt>
      <trkpt lat="42.166122" lon="-2.688782">
        <ele>1187.8</ele>
        <time>2021-07-04T14:48:20.000Z</time>
      </trkpt>
      <trkpt lat="42.166180" lon="-2.688652">
        <ele>1188.2</ele>
        <time>2021-07-04T14:48:24.000Z</time>
      </trkpt>
      <trkpt lat="42.166245" lon="-2.688517">
        <ele>1188.7</ele>
        <time>2021-07-04T14:48:28.000Z</time>
      </trkpt>
      <trkpt lat="42.166303" lon="-2.688415">
        <ele>1188.7</ele>
        <time>2021-07-04T14:48:31.000Z</time>
      </trkpt>
      <trkpt lat="42.166360" lon="-2.688315">
        <ele>1188.3</ele>
        <time>2021-07-04T14:48:34.000Z</time>
      </trkpt>
      <trkpt lat="42.166422" lon="-2.688220">
        <ele>1189.1</ele>
        <time>2021-07-04T14:48:37.000Z</time>
      </trkpt>
      <trkpt lat="42.166490" lon="-2.688133">
        <ele>1189.3</ele>
        <time>2021-07-04T14:48:40.000Z</time>
      </trkpt>
      <trkpt lat="42.166560" lon="-2.688042">
        <ele>1189.3</ele>
        <time>2021-07-04T14:48:43.000Z</time>
      </trkpt>
      <trkpt lat="42.166617" lon="-2.687938">
        <ele>1190.0</ele>
        <time>2021-07-04T14:48:46.000Z</time>
      </trkpt>
      <trkpt lat="42.166648" lon="-2.687795">
        <ele>1190.8</ele>
        <time>2021-07-04T14:48:50.000Z</time>
      </trkpt>
      <trkpt lat="42.166632" lon="-2.687653">
        <ele>1191.8</ele>
        <time>2021-07-04T14:48:54.000Z</time>
      </trkpt>
      <trkpt lat="42.166613" lon="-2.687508">
        <ele>1191.6</ele>
        <time>2021-07-04T14:48:58.000Z</time>
      </trkpt>
      <trkpt lat="42.166617" lon="-2.687347">
        <ele>1192.6</ele>
        <time>2021-07-04T14:49:02.000Z</time>
      </trkpt>
      <trkpt lat="42.166617" lon="-2.687223">
        <ele>1193.6</ele>
        <time>2021-07-04T14:49:05.000Z</time>
      </trkpt>
      <trkpt lat="42.166615" lon="-2.687068">
        <ele>1193.7</ele>
        <time>2021-07-04T14:49:09.000Z</time>
      </trkpt>
      <trkpt lat="42.166608" lon="-2.686942">
        <ele>1193.6</ele>
        <time>2021-07-04T14:49:12.000Z</time>
      </trkpt>
      <trkpt lat="42.166590" lon="-2.686815">
        <ele>1194.8</ele>
        <time>2021-07-04T14:49:15.000Z</time>
      </trkpt>
      <trkpt lat="42.166567" lon="-2.686685">
        <ele>1194.5</ele>
        <time>2021-07-04T14:49:18.000Z</time>
      </trkpt>
      <trkpt lat="42.166515" lon="-2.686563">
        <ele>1195.2</ele>
        <time>2021-07-04T14:49:21.000Z</time>
      </trkpt>
      <trkpt lat="42.166445" lon="-2.686457">
        <ele>1195.5</ele>
        <time>2021-07-04T14:49:24.000Z</time>
      </trkpt>
      <trkpt lat="42.166368" lon="-2.686367">
        <ele>1195.6</ele>
        <time>2021-07-04T14:49:27.000Z</time>
      </trkpt>
      <trkpt lat="42.166293" lon="-2.686280">
        <ele>1197.2</ele>
        <time>2021-07-04T14:49:30.000Z</time>
      </trkpt>
      <trkpt lat="42.166215" lon="-2.686207">
        <ele>1196.9</ele>
        <time>2021-07-04T14:49:33.000Z</time>
      </trkpt>
      <trkpt lat="42.166138" lon="-2.686128">
        <ele>1196.5</ele>
        <time>2021-07-04T14:49:36.000Z</time>
      </trkpt>
      <trkpt lat="42.166068" lon="-2.686033">
        <ele>1197.7</ele>
        <time>2021-07-04T14:49:39.000Z</time>
      </trkpt>
      <trkpt lat="42.166005" lon="-2.685942">
        <ele>1197.6</ele>
        <time>2021-07-04T14:49:42.000Z</time>
      </trkpt>
      <trkpt lat="42.165947" lon="-2.685837">
        <ele>1199.2</ele>
        <time>2021-07-04T14:49:45.000Z</time>
      </trkpt>
      <trkpt lat="42.165892" lon="-2.685720">
        <ele>1197.6</ele>
        <time>2021-07-04T14:49:48.000Z</time>
      </trkpt>
      <trkpt lat="42.165848" lon="-2.685590">
        <ele>1198.7</ele>
        <time>2021-07-04T14:49:51.000Z</time>
      </trkpt>
      <trkpt lat="42.165807" lon="-2.685453">
        <ele>1198.8</ele>
        <time>2021-07-04T14:49:54.000Z</time>
      </trkpt>
      <trkpt lat="42.165768" lon="-2.685315">
        <ele>1198.6</ele>
        <time>2021-07-04T14:49:57.000Z</time>
      </trkpt>
      <trkpt lat="42.165723" lon="-2.685182">
        <ele>1198.4</ele>
        <time>2021-07-04T14:50:00.000Z</time>
      </trkpt>
      <trkpt lat="42.165670" lon="-2.685057">
        <ele>1198.3</ele>
        <time>2021-07-04T14:50:03.000Z</time>
      </trkpt>
      <trkpt lat="42.165610" lon="-2.684938">
        <ele>1198.4</ele>
        <time>2021-07-04T14:50:06.000Z</time>
      </trkpt>
      <trkpt lat="42.165540" lon="-2.684837">
        <ele>1199.0</ele>
        <time>2021-07-04T14:50:09.000Z</time>
      </trkpt>
      <trkpt lat="42.165467" lon="-2.684732">
        <ele>1199.2</ele>
        <time>2021-07-04T14:50:12.000Z</time>
      </trkpt>
      <trkpt lat="42.165397" lon="-2.684640">
        <ele>1199.6</ele>
        <time>2021-07-04T14:50:15.000Z</time>
      </trkpt>
      <trkpt lat="42.165327" lon="-2.684548">
        <ele>1199.7</ele>
        <time>2021-07-04T14:50:18.000Z</time>
      </trkpt>
      <trkpt lat="42.165262" lon="-2.684453">
        <ele>1200.9</ele>
        <time>2021-07-04T14:50:21.000Z</time>
      </trkpt>
      <trkpt lat="42.165192" lon="-2.684347">
        <ele>1200.6</ele>
        <time>2021-07-04T14:50:24.000Z</time>
      </trkpt>
      <trkpt lat="42.165130" lon="-2.684237">
        <ele>1200.4</ele>
        <time>2021-07-04T14:50:27.000Z</time>
      </trkpt>
      <trkpt lat="42.165065" lon="-2.684138">
        <ele>1201.6</ele>
        <time>2021-07-04T14:50:30.000Z</time>
      </trkpt>
      <trkpt lat="42.165002" lon="-2.684035">
        <ele>1201.5</ele>
        <time>2021-07-04T14:50:33.000Z</time>
      </trkpt>
      <trkpt lat="42.164942" lon="-2.683940">
        <ele>1202.1</ele>
        <time>2021-07-04T14:50:36.000Z</time>
      </trkpt>
      <trkpt lat="42.164883" lon="-2.683835">
        <ele>1201.6</ele>
        <time>2021-07-04T14:50:39.000Z</time>
      </trkpt>
      <trkpt lat="42.164825" lon="-2.683728">
        <ele>1202.8</ele>
        <time>2021-07-04T14:50:42.000Z</time>
      </trkpt>
      <trkpt lat="42.164772" lon="-2.683610">
        <ele>1202.4</ele>
        <time>2021-07-04T14:50:45.000Z</time>
      </trkpt>
      <trkpt lat="42.164707" lon="-2.683495">
        <ele>1203.4</ele>
        <time>2021-07-04T14:50:48.000Z</time>
      </trkpt>
      <trkpt lat="42.164645" lon="-2.683390">
        <ele>1204.2</ele>
        <time>2021-07-04T14:50:51.000Z</time>
      </trkpt>
      <trkpt lat="42.164578" lon="-2.683300">
        <ele>1203.2</ele>
        <time>2021-07-04T14:50:54.000Z</time>
      </trkpt>
      <trkpt lat="42.164503" lon="-2.683217">
        <ele>1204.6</ele>
        <time>2021-07-04T14:50:57.000Z</time>
      </trkpt>
      <trkpt lat="42.164437" lon="-2.683133">
        <ele>1205.0</ele>
        <time>2021-07-04T14:51:00.000Z</time>
      </trkpt>
      <trkpt lat="42.164375" lon="-2.683030">
        <ele>1205.3</ele>
        <time>2021-07-04T14:51:03.000Z</time>
      </trkpt>
      <trkpt lat="42.164318" lon="-2.682925">
        <ele>1205.3</ele>
        <time>2021-07-04T14:51:06.000Z</time>
      </trkpt>
      <trkpt lat="42.164253" lon="-2.682823">
        <ele>1204.9</ele>
        <time>2021-07-04T14:51:09.000Z</time>
      </trkpt>
      <trkpt lat="42.164182" lon="-2.682742">
        <ele>1205.3</ele>
        <time>2021-07-04T14:51:12.000Z</time>
      </trkpt>
      <trkpt lat="42.164112" lon="-2.682657">
        <ele>1206.1</ele>
        <time>2021-07-04T14:51:15.000Z</time>
      </trkpt>
      <trkpt lat="42.164042" lon="-2.682568">
        <ele>1207.3</ele>
        <time>2021-07-04T14:51:18.000Z</time>
      </trkpt>
      <trkpt lat="42.163978" lon="-2.682470">
        <ele>1206.4</ele>
        <time>2021-07-04T14:51:21.000Z</time>
      </trkpt>
      <trkpt lat="42.163930" lon="-2.682363">
        <ele>1207.4</ele>
        <time>2021-07-04T14:51:24.000Z</time>
      </trkpt>
      <trkpt lat="42.163880" lon="-2.682220">
        <ele>1208.5</ele>
        <time>2021-07-04T14:51:28.000Z</time>
      </trkpt>
      <trkpt lat="42.163825" lon="-2.682072">
        <ele>1208.7</ele>
        <time>2021-07-04T14:51:32.000Z</time>
      </trkpt>
      <trkpt lat="42.163788" lon="-2.681957">
        <ele>1208.7</ele>
        <time>2021-07-04T14:51:35.000Z</time>
      </trkpt>
      <trkpt lat="42.163733" lon="-2.681823">
        <ele>1209.0</ele>
        <time>2021-07-04T14:51:39.000Z</time>
      </trkpt>
      <trkpt lat="42.163683" lon="-2.681692">
        <ele>1209.9</ele>
        <time>2021-07-04T14:51:43.000Z</time>
      </trkpt>
      <trkpt lat="42.163638" lon="-2.681580">
        <ele>1210.8</ele>
        <time>2021-07-04T14:51:47.000Z</time>
      </trkpt>
      <trkpt lat="42.163593" lon="-2.681462">
        <ele>1211.8</ele>
        <time>2021-07-04T14:51:51.000Z</time>
      </trkpt>
      <trkpt lat="42.163542" lon="-2.681340">
        <ele>1211.5</ele>
        <time>2021-07-04T14:51:55.000Z</time>
      </trkpt>
      <trkpt lat="42.163478" lon="-2.681215">
        <ele>1212.2</ele>
        <time>2021-07-04T14:51:59.000Z</time>
      </trkpt>
      <trkpt lat="42.163450" lon="-2.681130">
        <ele>1212.6</ele>
        <time>2021-07-04T14:52:05.000Z</time>
      </trkpt>
      <trkpt lat="42.163457" lon="-2.681130">
        <ele>1212.5</ele>
        <time>2021-07-04T14:52:06.000Z</time>
      </trkpt>
      <trkpt lat="42.163457" lon="-2.681130">
        <ele>1212.6</ele>
        <time>2021-07-04T14:52:07.000Z</time>
      </trkpt>
      <trkpt lat="42.163458" lon="-2.681130">
        <ele>1212.3</ele>
        <time>2021-07-04T14:52:08.000Z</time>
      </trkpt>
      <trkpt lat="42.163458" lon="-2.681130">
        <ele>1212.4</ele>
        <time>2021-07-04T14:52:09.000Z</time>
      </trkpt>
      <trkpt lat="42.163460" lon="-2.681132">
        <ele>1212.5</ele>
        <time>2021-07-04T14:52:46.000Z</time>
      </trkpt>
      <trkpt lat="42.163460" lon="-2.681132">
        <ele>1212.6</ele>
        <time>2021-07-04T14:52:47.000Z</time>
      </trkpt>
      <trkpt lat="42.163463" lon="-2.681137">
        <ele>1212.7</ele>
        <time>2021-07-04T14:52:52.000Z</time>
      </trkpt>
      <trkpt lat="42.163470" lon="-2.681160">
        <ele>1212.5</ele>
        <time>2021-07-04T14:52:54.000Z</time>
      </trkpt>
      <trkpt lat="42.163468" lon="-2.681158">
        <ele>1212.7</ele>
        <time>2021-07-04T14:53:10.000Z</time>
      </trkpt>
      <trkpt lat="42.163468" lon="-2.681158">
        <ele>1212.5</ele>
        <time>2021-07-04T14:53:11.000Z</time>
      </trkpt>
      <trkpt lat="42.163468" lon="-2.681153">
        <ele>1212.5</ele>
        <time>2021-07-04T14:53:25.000Z</time>
      </trkpt>
      <trkpt lat="42.163395" lon="-2.681082">
        <ele>1212.9</ele>
        <time>2021-07-04T14:53:32.000Z</time>
      </trkpt>
      <trkpt lat="42.163317" lon="-2.680982">
        <ele>1212.8</ele>
        <time>2021-07-04T14:53:38.000Z</time>
      </trkpt>
      <trkpt lat="42.163228" lon="-2.680902">
        <ele>1214.1</ele>
        <time>2021-07-04T14:53:42.000Z</time>
      </trkpt>
      <trkpt lat="42.163145" lon="-2.680818">
        <ele>1214.2</ele>
        <time>2021-07-04T14:53:46.000Z</time>
      </trkpt>
      <trkpt lat="42.163060" lon="-2.680733">
        <ele>1214.9</ele>
        <time>2021-07-04T14:53:50.000Z</time>
      </trkpt>
      <trkpt lat="42.162968" lon="-2.680657">
        <ele>1215.7</ele>
        <time>2021-07-04T14:53:54.000Z</time>
      </trkpt>
      <trkpt lat="42.162873" lon="-2.680588">
        <ele>1215.6</ele>
        <time>2021-07-04T14:53:58.000Z</time>
      </trkpt>
      <trkpt lat="42.162765" lon="-2.680530">
        <ele>1216.7</ele>
        <time>2021-07-04T14:54:02.000Z</time>
      </trkpt>
      <trkpt lat="42.162653" lon="-2.680488">
        <ele>1216.8</ele>
        <time>2021-07-04T14:54:06.000Z</time>
      </trkpt>
      <trkpt lat="42.162538" lon="-2.680470">
        <ele>1217.3</ele>
        <time>2021-07-04T14:54:10.000Z</time>
      </trkpt>
      <trkpt lat="42.162425" lon="-2.680492">
        <ele>1218.0</ele>
        <time>2021-07-04T14:54:14.000Z</time>
      </trkpt>
      <trkpt lat="42.162337" lon="-2.680558">
        <ele>1218.3</ele>
        <time>2021-07-04T14:54:18.000Z</time>
      </trkpt>
      <trkpt lat="42.162257" lon="-2.680640">
        <ele>1219.0</ele>
        <time>2021-07-04T14:54:22.000Z</time>
      </trkpt>
      <trkpt lat="42.162173" lon="-2.680728">
        <ele>1219.7</ele>
        <time>2021-07-04T14:54:26.000Z</time>
      </trkpt>
      <trkpt lat="42.162087" lon="-2.680818">
        <ele>1219.8</ele>
        <time>2021-07-04T14:54:30.000Z</time>
      </trkpt>
      <trkpt lat="42.162002" lon="-2.680907">
        <ele>1220.8</ele>
        <time>2021-07-04T14:54:34.000Z</time>
      </trkpt>
      <trkpt lat="42.161913" lon="-2.680992">
        <ele>1221.5</ele>
        <time>2021-07-04T14:54:38.000Z</time>
      </trkpt>
      <trkpt lat="42.161825" lon="-2.681067">
        <ele>1221.1</ele>
        <time>2021-07-04T14:54:42.000Z</time>
      </trkpt>
      <trkpt lat="42.161737" lon="-2.681148">
        <ele>1222.5</ele>
        <time>2021-07-04T14:54:46.000Z</time>
      </trkpt>
      <trkpt lat="42.161640" lon="-2.681223">
        <ele>1222.5</ele>
        <time>2021-07-04T14:54:50.000Z</time>
      </trkpt>
      <trkpt lat="42.161535" lon="-2.681307">
        <ele>1223.0</ele>
        <time>2021-07-04T14:54:54.000Z</time>
      </trkpt>
      <trkpt lat="42.161458" lon="-2.681370">
        <ele>1223.3</ele>
        <time>2021-07-04T14:54:57.000Z</time>
      </trkpt>
      <trkpt lat="42.161360" lon="-2.681438">
        <ele>1224.0</ele>
        <time>2021-07-04T14:55:01.000Z</time>
      </trkpt>
      <trkpt lat="42.161258" lon="-2.681480">
        <ele>1223.5</ele>
        <time>2021-07-04T14:55:05.000Z</time>
      </trkpt>
      <trkpt lat="42.161152" lon="-2.681513">
        <ele>1225.2</ele>
        <time>2021-07-04T14:55:09.000Z</time>
      </trkpt>
      <trkpt lat="42.161052" lon="-2.681548">
        <ele>1225.5</ele>
        <time>2021-07-04T14:55:13.000Z</time>
      </trkpt>
      <trkpt lat="42.160957" lon="-2.681577">
        <ele>1226.6</ele>
        <time>2021-07-04T14:55:17.000Z</time>
      </trkpt>
      <trkpt lat="42.160863" lon="-2.681615">
        <ele>1226.6</ele>
        <time>2021-07-04T14:55:21.000Z</time>
      </trkpt>
      <trkpt lat="42.160762" lon="-2.681650">
        <ele>1226.7</ele>
        <time>2021-07-04T14:55:25.000Z</time>
      </trkpt>
      <trkpt lat="42.160673" lon="-2.681690">
        <ele>1226.6</ele>
        <time>2021-07-04T14:55:28.000Z</time>
      </trkpt>
      <trkpt lat="42.160570" lon="-2.681743">
        <ele>1227.0</ele>
        <time>2021-07-04T14:55:32.000Z</time>
      </trkpt>
      <trkpt lat="42.160478" lon="-2.681753">
        <ele>1227.1</ele>
        <time>2021-07-04T14:55:35.000Z</time>
      </trkpt>
      <trkpt lat="42.160382" lon="-2.681752">
        <ele>1226.5</ele>
        <time>2021-07-04T14:55:38.000Z</time>
      </trkpt>
      <trkpt lat="42.160278" lon="-2.681703">
        <ele>1227.9</ele>
        <time>2021-07-04T14:55:42.000Z</time>
      </trkpt>
      <trkpt lat="42.160197" lon="-2.681633">
        <ele>1227.9</ele>
        <time>2021-07-04T14:55:46.000Z</time>
      </trkpt>
      <trkpt lat="42.160105" lon="-2.681535">
        <ele>1228.2</ele>
        <time>2021-07-04T14:55:50.000Z</time>
      </trkpt>
      <trkpt lat="42.160035" lon="-2.681452">
        <ele>1228.4</ele>
        <time>2021-07-04T14:55:53.000Z</time>
      </trkpt>
      <trkpt lat="42.159958" lon="-2.681368">
        <ele>1228.9</ele>
        <time>2021-07-04T14:55:56.000Z</time>
      </trkpt>
      <trkpt lat="42.159867" lon="-2.681285">
        <ele>1228.3</ele>
        <time>2021-07-04T14:56:00.000Z</time>
      </trkpt>
      <trkpt lat="42.159788" lon="-2.681220">
        <ele>1229.2</ele>
        <time>2021-07-04T14:56:03.000Z</time>
      </trkpt>
      <trkpt lat="42.159710" lon="-2.681160">
        <ele>1229.4</ele>
        <time>2021-07-04T14:56:06.000Z</time>
      </trkpt>
      <trkpt lat="42.159610" lon="-2.681075">
        <ele>1228.8</ele>
        <time>2021-07-04T14:56:10.000Z</time>
      </trkpt>
      <trkpt lat="42.159510" lon="-2.680982">
        <ele>1228.6</ele>
        <time>2021-07-04T14:56:14.000Z</time>
      </trkpt>
      <trkpt lat="42.159393" lon="-2.680957">
        <ele>1229.9</ele>
        <time>2021-07-04T14:56:18.000Z</time>
      </trkpt>
      <trkpt lat="42.159292" lon="-2.680980">
        <ele>1229.0</ele>
        <time>2021-07-04T14:56:22.000Z</time>
      </trkpt>
      <trkpt lat="42.159178" lon="-2.681012">
        <ele>1233.4</ele>
        <time>2021-07-04T14:56:26.000Z</time>
      </trkpt>
      <trkpt lat="42.159070" lon="-2.681028">
        <ele>1230.5</ele>
        <time>2021-07-04T14:56:30.000Z</time>
      </trkpt>
      <trkpt lat="42.158963" lon="-2.681050">
        <ele>1230.3</ele>
        <time>2021-07-04T14:56:34.000Z</time>
      </trkpt>
      <trkpt lat="42.158875" lon="-2.681078">
        <ele>1230.9</ele>
        <time>2021-07-04T14:56:37.000Z</time>
      </trkpt>
      <trkpt lat="42.158782" lon="-2.681117">
        <ele>1231.0</ele>
        <time>2021-07-04T14:56:40.000Z</time>
      </trkpt>
      <trkpt lat="42.158687" lon="-2.681153">
        <ele>1232.1</ele>
        <time>2021-07-04T14:56:43.000Z</time>
      </trkpt>
      <trkpt lat="42.158600" lon="-2.681197">
        <ele>1231.8</ele>
        <time>2021-07-04T14:56:46.000Z</time>
      </trkpt>
      <trkpt lat="42.158510" lon="-2.681218">
        <ele>1232.8</ele>
        <time>2021-07-04T14:56:49.000Z</time>
      </trkpt>
      <trkpt lat="42.158393" lon="-2.681240">
        <ele>1232.3</ele>
        <time>2021-07-04T14:56:53.000Z</time>
      </trkpt>
      <trkpt lat="42.158297" lon="-2.681250">
        <ele>1232.7</ele>
        <time>2021-07-04T14:56:56.000Z</time>
      </trkpt>
      <trkpt lat="42.158205" lon="-2.681263">
        <ele>1233.4</ele>
        <time>2021-07-04T14:56:59.000Z</time>
      </trkpt>
      <trkpt lat="42.158088" lon="-2.681280">
        <ele>1233.9</ele>
        <time>2021-07-04T14:57:03.000Z</time>
      </trkpt>
      <trkpt lat="42.157968" lon="-2.681305">
        <ele>1233.2</ele>
        <time>2021-07-04T14:57:07.000Z</time>
      </trkpt>
      <trkpt lat="42.157877" lon="-2.681340">
        <ele>1232.6</ele>
        <time>2021-07-04T14:57:10.000Z</time>
      </trkpt>
      <trkpt lat="42.157788" lon="-2.681385">
        <ele>1233.6</ele>
        <time>2021-07-04T14:57:13.000Z</time>
      </trkpt>
      <trkpt lat="42.157687" lon="-2.681448">
        <ele>1233.4</ele>
        <time>2021-07-04T14:57:17.000Z</time>
      </trkpt>
      <trkpt lat="42.157587" lon="-2.681513">
        <ele>1233.3</ele>
        <time>2021-07-04T14:57:21.000Z</time>
      </trkpt>
      <trkpt lat="42.157508" lon="-2.681577">
        <ele>1233.3</ele>
        <time>2021-07-04T14:57:24.000Z</time>
      </trkpt>
      <trkpt lat="42.157432" lon="-2.681662">
        <ele>1233.8</ele>
        <time>2021-07-04T14:57:27.000Z</time>
      </trkpt>
      <trkpt lat="42.157362" lon="-2.681750">
        <ele>1233.3</ele>
        <time>2021-07-04T14:57:30.000Z</time>
      </trkpt>
      <trkpt lat="42.157297" lon="-2.681845">
        <ele>1234.0</ele>
        <time>2021-07-04T14:57:33.000Z</time>
      </trkpt>
      <trkpt lat="42.157232" lon="-2.681930">
        <ele>1233.7</ele>
        <time>2021-07-04T14:57:36.000Z</time>
      </trkpt>
      <trkpt lat="42.157147" lon="-2.682033">
        <ele>1235.6</ele>
        <time>2021-07-04T14:57:40.000Z</time>
      </trkpt>
      <trkpt lat="42.157060" lon="-2.682132">
        <ele>1235.9</ele>
        <time>2021-07-04T14:57:44.000Z</time>
      </trkpt>
      <trkpt lat="42.156958" lon="-2.682195">
        <ele>1236.6</ele>
        <time>2021-07-04T14:57:48.000Z</time>
      </trkpt>
      <trkpt lat="42.156860" lon="-2.682243">
        <ele>1237.0</ele>
        <time>2021-07-04T14:57:52.000Z</time>
      </trkpt>
      <trkpt lat="42.156745" lon="-2.682270">
        <ele>1237.7</ele>
        <time>2021-07-04T14:57:56.000Z</time>
      </trkpt>
      <trkpt lat="42.156643" lon="-2.682272">
        <ele>1238.2</ele>
        <time>2021-07-04T14:57:59.000Z</time>
      </trkpt>
      <trkpt lat="42.156543" lon="-2.682250">
        <ele>1238.7</ele>
        <time>2021-07-04T14:58:02.000Z</time>
      </trkpt>
      <trkpt lat="42.156447" lon="-2.682227">
        <ele>1238.5</ele>
        <time>2021-07-04T14:58:05.000Z</time>
      </trkpt>
      <trkpt lat="42.156350" lon="-2.682208">
        <ele>1238.4</ele>
        <time>2021-07-04T14:58:08.000Z</time>
      </trkpt>
      <trkpt lat="42.156252" lon="-2.682213">
        <ele>1238.8</ele>
        <time>2021-07-04T14:58:11.000Z</time>
      </trkpt>
      <trkpt lat="42.156158" lon="-2.682217">
        <ele>1239.3</ele>
        <time>2021-07-04T14:58:14.000Z</time>
      </trkpt>
      <trkpt lat="42.156065" lon="-2.682218">
        <ele>1240.5</ele>
        <time>2021-07-04T14:58:17.000Z</time>
      </trkpt>
      <trkpt lat="42.155947" lon="-2.682205">
        <ele>1240.3</ele>
        <time>2021-07-04T14:58:21.000Z</time>
      </trkpt>
      <trkpt lat="42.155858" lon="-2.682177">
        <ele>1241.0</ele>
        <time>2021-07-04T14:58:24.000Z</time>
      </trkpt>
      <trkpt lat="42.155743" lon="-2.682132">
        <ele>1241.3</ele>
        <time>2021-07-04T14:58:28.000Z</time>
      </trkpt>
      <trkpt lat="42.155652" lon="-2.682100">
        <ele>1241.8</ele>
        <time>2021-07-04T14:58:31.000Z</time>
      </trkpt>
      <trkpt lat="42.155555" lon="-2.682097">
        <ele>1240.9</ele>
        <time>2021-07-04T14:58:34.000Z</time>
      </trkpt>
      <trkpt lat="42.155462" lon="-2.682115">
        <ele>1241.3</ele>
        <time>2021-07-04T14:58:37.000Z</time>
      </trkpt>
      <trkpt lat="42.155372" lon="-2.682157">
        <ele>1242.0</ele>
        <time>2021-07-04T14:58:40.000Z</time>
      </trkpt>
      <trkpt lat="42.155285" lon="-2.682212">
        <ele>1241.7</ele>
        <time>2021-07-04T14:58:43.000Z</time>
      </trkpt>
      <trkpt lat="42.155205" lon="-2.682270">
        <ele>1241.7</ele>
        <time>2021-07-04T14:58:46.000Z</time>
      </trkpt>
      <trkpt lat="42.155107" lon="-2.682355">
        <ele>1243.7</ele>
        <time>2021-07-04T14:58:50.000Z</time>
      </trkpt>
      <trkpt lat="42.155027" lon="-2.682420">
        <ele>1244.0</ele>
        <time>2021-07-04T14:58:53.000Z</time>
      </trkpt>
      <trkpt lat="42.154948" lon="-2.682490">
        <ele>1244.9</ele>
        <time>2021-07-04T14:58:56.000Z</time>
      </trkpt>
      <trkpt lat="42.154868" lon="-2.682552">
        <ele>1244.6</ele>
        <time>2021-07-04T14:58:59.000Z</time>
      </trkpt>
      <trkpt lat="42.154768" lon="-2.682642">
        <ele>1244.3</ele>
        <time>2021-07-04T14:59:03.000Z</time>
      </trkpt>
      <trkpt lat="42.154693" lon="-2.682710">
        <ele>1245.1</ele>
        <time>2021-07-04T14:59:06.000Z</time>
      </trkpt>
      <trkpt lat="42.154605" lon="-2.682782">
        <ele>1245.5</ele>
        <time>2021-07-04T14:59:09.000Z</time>
      </trkpt>
      <trkpt lat="42.154522" lon="-2.682847">
        <ele>1245.0</ele>
        <time>2021-07-04T14:59:12.000Z</time>
      </trkpt>
      <trkpt lat="42.154448" lon="-2.682918">
        <ele>1246.0</ele>
        <time>2021-07-04T14:59:15.000Z</time>
      </trkpt>
      <trkpt lat="42.154355" lon="-2.683015">
        <ele>1246.0</ele>
        <time>2021-07-04T14:59:19.000Z</time>
      </trkpt>
      <trkpt lat="42.154268" lon="-2.683085">
        <ele>1246.3</ele>
        <time>2021-07-04T14:59:22.000Z</time>
      </trkpt>
      <trkpt lat="42.154182" lon="-2.683155">
        <ele>1247.0</ele>
        <time>2021-07-04T14:59:25.000Z</time>
      </trkpt>
      <trkpt lat="42.154100" lon="-2.683217">
        <ele>1246.8</ele>
        <time>2021-07-04T14:59:28.000Z</time>
      </trkpt>
      <trkpt lat="42.154017" lon="-2.683273">
        <ele>1247.4</ele>
        <time>2021-07-04T14:59:31.000Z</time>
      </trkpt>
      <trkpt lat="42.153925" lon="-2.683330">
        <ele>1246.6</ele>
        <time>2021-07-04T14:59:34.000Z</time>
      </trkpt>
      <trkpt lat="42.153832" lon="-2.683378">
        <ele>1247.9</ele>
        <time>2021-07-04T14:59:37.000Z</time>
      </trkpt>
      <trkpt lat="42.153735" lon="-2.683422">
        <ele>1247.2</ele>
        <time>2021-07-04T14:59:40.000Z</time>
      </trkpt>
      <trkpt lat="42.153640" lon="-2.683468">
        <ele>1248.3</ele>
        <time>2021-07-04T14:59:43.000Z</time>
      </trkpt>
      <trkpt lat="42.153538" lon="-2.683493">
        <ele>1247.9</ele>
        <time>2021-07-04T14:59:46.000Z</time>
      </trkpt>
      <trkpt lat="42.153433" lon="-2.683490">
        <ele>1248.3</ele>
        <time>2021-07-04T14:59:49.000Z</time>
      </trkpt>
      <trkpt lat="42.153335" lon="-2.683487">
        <ele>1248.8</ele>
        <time>2021-07-04T14:59:52.000Z</time>
      </trkpt>
      <trkpt lat="42.153240" lon="-2.683467">
        <ele>1248.1</ele>
        <time>2021-07-04T14:59:55.000Z</time>
      </trkpt>
      <trkpt lat="42.153145" lon="-2.683450">
        <ele>1249.4</ele>
        <time>2021-07-04T14:59:58.000Z</time>
      </trkpt>
      <trkpt lat="42.153048" lon="-2.683468">
        <ele>1249.3</ele>
        <time>2021-07-04T15:00:01.000Z</time>
      </trkpt>
      <trkpt lat="42.152943" lon="-2.683537">
        <ele>1250.7</ele>
        <time>2021-07-04T15:00:05.000Z</time>
      </trkpt>
      <trkpt lat="42.152865" lon="-2.683635">
        <ele>1250.9</ele>
        <time>2021-07-04T15:00:09.000Z</time>
      </trkpt>
      <trkpt lat="42.152787" lon="-2.683695">
        <ele>1250.8</ele>
        <time>2021-07-04T15:00:12.000Z</time>
      </trkpt>
      <trkpt lat="42.152677" lon="-2.683720">
        <ele>1250.9</ele>
        <time>2021-07-04T15:00:16.000Z</time>
      </trkpt>
      <trkpt lat="42.152558" lon="-2.683715">
        <ele>1251.9</ele>
        <time>2021-07-04T15:00:20.000Z</time>
      </trkpt>
      <trkpt lat="42.152465" lon="-2.683678">
        <ele>1252.4</ele>
        <time>2021-07-04T15:00:23.000Z</time>
      </trkpt>
      <trkpt lat="42.152373" lon="-2.683638">
        <ele>1253.0</ele>
        <time>2021-07-04T15:00:26.000Z</time>
      </trkpt>
      <trkpt lat="42.152283" lon="-2.683600">
        <ele>1253.2</ele>
        <time>2021-07-04T15:00:29.000Z</time>
      </trkpt>
      <trkpt lat="42.152167" lon="-2.683595">
        <ele>1253.3</ele>
        <time>2021-07-04T15:00:33.000Z</time>
      </trkpt>
      <trkpt lat="42.152052" lon="-2.683617">
        <ele>1254.4</ele>
        <time>2021-07-04T15:00:37.000Z</time>
      </trkpt>
      <trkpt lat="42.151947" lon="-2.683655">
        <ele>1254.4</ele>
        <time>2021-07-04T15:00:41.000Z</time>
      </trkpt>
      <trkpt lat="42.151862" lon="-2.683710">
        <ele>1254.7</ele>
        <time>2021-07-04T15:00:44.000Z</time>
      </trkpt>
      <trkpt lat="42.151773" lon="-2.683768">
        <ele>1254.0</ele>
        <time>2021-07-04T15:00:47.000Z</time>
      </trkpt>
      <trkpt lat="42.151693" lon="-2.683828">
        <ele>1255.1</ele>
        <time>2021-07-04T15:00:50.000Z</time>
      </trkpt>
      <trkpt lat="42.151610" lon="-2.683878">
        <ele>1253.9</ele>
        <time>2021-07-04T15:00:53.000Z</time>
      </trkpt>
      <trkpt lat="42.151497" lon="-2.683880">
        <ele>1254.0</ele>
        <time>2021-07-04T15:00:56.000Z</time>
      </trkpt>
      <trkpt lat="42.151408" lon="-2.683840">
        <ele>1254.0</ele>
        <time>2021-07-04T15:00:58.000Z</time>
      </trkpt>
      <trkpt lat="42.151338" lon="-2.683760">
        <ele>1253.8</ele>
        <time>2021-07-04T15:01:00.000Z</time>
      </trkpt>
      <trkpt lat="42.151295" lon="-2.683648">
        <ele>1253.9</ele>
        <time>2021-07-04T15:01:02.000Z</time>
      </trkpt>
      <trkpt lat="42.151260" lon="-2.683492">
        <ele>1254.6</ele>
        <time>2021-07-04T15:01:05.000Z</time>
      </trkpt>
      <trkpt lat="42.151213" lon="-2.683350">
        <ele>1253.7</ele>
        <time>2021-07-04T15:01:08.000Z</time>
      </trkpt>
      <trkpt lat="42.151158" lon="-2.683215">
        <ele>1255.5</ele>
        <time>2021-07-04T15:01:11.000Z</time>
      </trkpt>
      <trkpt lat="42.151077" lon="-2.683115">
        <ele>1254.7</ele>
        <time>2021-07-04T15:01:14.000Z</time>
      </trkpt>
      <trkpt lat="42.150972" lon="-2.683040">
        <ele>1255.2</ele>
        <time>2021-07-04T15:01:17.000Z</time>
      </trkpt>
      <trkpt lat="42.150868" lon="-2.682967">
        <ele>1255.4</ele>
        <time>2021-07-04T15:01:20.000Z</time>
      </trkpt>
      <trkpt lat="42.150763" lon="-2.682907">
        <ele>1256.0</ele>
        <time>2021-07-04T15:01:23.000Z</time>
      </trkpt>
      <trkpt lat="42.150653" lon="-2.682853">
        <ele>1256.0</ele>
        <time>2021-07-04T15:01:26.000Z</time>
      </trkpt>
      <trkpt lat="42.150555" lon="-2.682790">
        <ele>1256.2</ele>
        <time>2021-07-04T15:01:29.000Z</time>
      </trkpt>
      <trkpt lat="42.150460" lon="-2.682717">
        <ele>1255.7</ele>
        <time>2021-07-04T15:01:32.000Z</time>
      </trkpt>
      <trkpt lat="42.150385" lon="-2.682635">
        <ele>1369.9</ele>
        <time>2021-07-04T15:01:35.000Z</time>
      </trkpt>
      <trkpt lat="42.150305" lon="-2.682558">
        <ele>1257.0</ele>
        <time>2021-07-04T15:01:38.000Z</time>
      </trkpt>
      <trkpt lat="42.150230" lon="-2.682482">
        <ele>1258.9</ele>
        <time>2021-07-04T15:01:41.000Z</time>
      </trkpt>
      <trkpt lat="42.150158" lon="-2.682407">
        <ele>1258.4</ele>
        <time>2021-07-04T15:01:44.000Z</time>
      </trkpt>
      <trkpt lat="42.150087" lon="-2.682327">
        <ele>1259.1</ele>
        <time>2021-07-04T15:01:47.000Z</time>
      </trkpt>
      <trkpt lat="42.150018" lon="-2.682240">
        <ele>1259.6</ele>
        <time>2021-07-04T15:01:50.000Z</time>
      </trkpt>
      <trkpt lat="42.149938" lon="-2.682135">
        <ele>1260.8</ele>
        <time>2021-07-04T15:01:54.000Z</time>
      </trkpt>
      <trkpt lat="42.149860" lon="-2.682028">
        <ele>1260.8</ele>
        <time>2021-07-04T15:01:58.000Z</time>
      </trkpt>
      <trkpt lat="42.149792" lon="-2.681942">
        <ele>1261.1</ele>
        <time>2021-07-04T15:02:01.000Z</time>
      </trkpt>
      <trkpt lat="42.149717" lon="-2.681860">
        <ele>1261.8</ele>
        <time>2021-07-04T15:02:04.000Z</time>
      </trkpt>
      <trkpt lat="42.149647" lon="-2.681773">
        <ele>1262.0</ele>
        <time>2021-07-04T15:02:07.000Z</time>
      </trkpt>
      <trkpt lat="42.149578" lon="-2.681685">
        <ele>1262.2</ele>
        <time>2021-07-04T15:02:10.000Z</time>
      </trkpt>
      <trkpt lat="42.149508" lon="-2.681598">
        <ele>1262.4</ele>
        <time>2021-07-04T15:02:13.000Z</time>
      </trkpt>
      <trkpt lat="42.149437" lon="-2.681508">
        <ele>1262.8</ele>
        <time>2021-07-04T15:02:16.000Z</time>
      </trkpt>
      <trkpt lat="42.149360" lon="-2.681413">
        <ele>1263.4</ele>
        <time>2021-07-04T15:02:19.000Z</time>
      </trkpt>
      <trkpt lat="42.149283" lon="-2.681317">
        <ele>1262.7</ele>
        <time>2021-07-04T15:02:22.000Z</time>
      </trkpt>
      <trkpt lat="42.149210" lon="-2.681232">
        <ele>1263.0</ele>
        <time>2021-07-04T15:02:25.000Z</time>
      </trkpt>
      <trkpt lat="42.149147" lon="-2.681128">
        <ele>1263.6</ele>
        <time>2021-07-04T15:02:28.000Z</time>
      </trkpt>
      <trkpt lat="42.149082" lon="-2.681035">
        <ele>1264.1</ele>
        <time>2021-07-04T15:02:31.000Z</time>
      </trkpt>
      <trkpt lat="42.149008" lon="-2.680925">
        <ele>1263.0</ele>
        <time>2021-07-04T15:02:34.000Z</time>
      </trkpt>
      <trkpt lat="42.148932" lon="-2.680823">
        <ele>1264.0</ele>
        <time>2021-07-04T15:02:37.000Z</time>
      </trkpt>
      <trkpt lat="42.148855" lon="-2.680750">
        <ele>1264.2</ele>
        <time>2021-07-04T15:02:40.000Z</time>
      </trkpt>
      <trkpt lat="42.148775" lon="-2.680652">
        <ele>1264.0</ele>
        <time>2021-07-04T15:02:43.000Z</time>
      </trkpt>
      <trkpt lat="42.148703" lon="-2.680525">
        <ele>1264.3</ele>
        <time>2021-07-04T15:02:46.000Z</time>
      </trkpt>
      <trkpt lat="42.148632" lon="-2.680403">
        <ele>1264.7</ele>
        <time>2021-07-04T15:02:49.000Z</time>
      </trkpt>
      <trkpt lat="42.148570" lon="-2.680305">
        <ele>1265.1</ele>
        <time>2021-07-04T15:02:52.000Z</time>
      </trkpt>
      <trkpt lat="42.148505" lon="-2.680210">
        <ele>1265.5</ele>
        <time>2021-07-04T15:02:55.000Z</time>
      </trkpt>
      <trkpt lat="42.148428" lon="-2.680105">
        <ele>1267.3</ele>
        <time>2021-07-04T15:02:58.000Z</time>
      </trkpt>
      <trkpt lat="42.148358" lon="-2.680013">
        <ele>1266.7</ele>
        <time>2021-07-04T15:03:01.000Z</time>
      </trkpt>
      <trkpt lat="42.148293" lon="-2.679927">
        <ele>1266.8</ele>
        <time>2021-07-04T15:03:04.000Z</time>
      </trkpt>
      <trkpt lat="42.148230" lon="-2.679832">
        <ele>1267.7</ele>
        <time>2021-07-04T15:03:07.000Z</time>
      </trkpt>
      <trkpt lat="42.148162" lon="-2.679737">
        <ele>1268.4</ele>
        <time>2021-07-04T15:03:10.000Z</time>
      </trkpt>
      <trkpt lat="42.148083" lon="-2.679613">
        <ele>1269.3</ele>
        <time>2021-07-04T15:03:14.000Z</time>
      </trkpt>
      <trkpt lat="42.148013" lon="-2.679530">
        <ele>1269.7</ele>
        <time>2021-07-04T15:03:17.000Z</time>
      </trkpt>
      <trkpt lat="42.147945" lon="-2.679403">
        <ele>1270.3</ele>
        <time>2021-07-04T15:03:21.000Z</time>
      </trkpt>
      <trkpt lat="42.147888" lon="-2.679295">
        <ele>1271.0</ele>
        <time>2021-07-04T15:03:25.000Z</time>
      </trkpt>
      <trkpt lat="42.147823" lon="-2.679193">
        <ele>1271.5</ele>
        <time>2021-07-04T15:03:28.000Z</time>
      </trkpt>
      <trkpt lat="42.147760" lon="-2.679098">
        <ele>1271.4</ele>
        <time>2021-07-04T15:03:31.000Z</time>
      </trkpt>
      <trkpt lat="42.147693" lon="-2.678990">
        <ele>1272.0</ele>
        <time>2021-07-04T15:03:34.000Z</time>
      </trkpt>
      <trkpt lat="42.147628" lon="-2.678885">
        <ele>1272.5</ele>
        <time>2021-07-04T15:03:37.000Z</time>
      </trkpt>
      <trkpt lat="42.147572" lon="-2.678790">
        <ele>1272.2</ele>
        <time>2021-07-04T15:03:40.000Z</time>
      </trkpt>
      <trkpt lat="42.147525" lon="-2.678685">
        <ele>1272.5</ele>
        <time>2021-07-04T15:03:43.000Z</time>
      </trkpt>
      <trkpt lat="42.147477" lon="-2.678580">
        <ele>1273.1</ele>
        <time>2021-07-04T15:03:46.000Z</time>
      </trkpt>
      <trkpt lat="42.147418" lon="-2.678467">
        <ele>1273.7</ele>
        <time>2021-07-04T15:03:50.000Z</time>
      </trkpt>
      <trkpt lat="42.147362" lon="-2.678372">
        <ele>1273.7</ele>
        <time>2021-07-04T15:03:53.000Z</time>
      </trkpt>
      <trkpt lat="42.147293" lon="-2.678270">
        <ele>1273.4</ele>
        <time>2021-07-04T15:03:56.000Z</time>
      </trkpt>
      <trkpt lat="42.147225" lon="-2.678153">
        <ele>1274.1</ele>
        <time>2021-07-04T15:03:59.000Z</time>
      </trkpt>
      <trkpt lat="42.147172" lon="-2.678043">
        <ele>1274.4</ele>
        <time>2021-07-04T15:04:02.000Z</time>
      </trkpt>
      <trkpt lat="42.147118" lon="-2.677938">
        <ele>1275.2</ele>
        <time>2021-07-04T15:04:05.000Z</time>
      </trkpt>
      <trkpt lat="42.147062" lon="-2.677813">
        <ele>1275.3</ele>
        <time>2021-07-04T15:04:09.000Z</time>
      </trkpt>
      <trkpt lat="42.146998" lon="-2.677710">
        <ele>1276.3</ele>
        <time>2021-07-04T15:04:12.000Z</time>
      </trkpt>
      <trkpt lat="42.146922" lon="-2.677605">
        <ele>1277.3</ele>
        <time>2021-07-04T15:04:15.000Z</time>
      </trkpt>
      <trkpt lat="42.146842" lon="-2.677463">
        <ele>1277.2</ele>
        <time>2021-07-04T15:04:18.000Z</time>
      </trkpt>
      <trkpt lat="42.146765" lon="-2.677385">
        <ele>1277.4</ele>
        <time>2021-07-04T15:04:21.000Z</time>
      </trkpt>
      <trkpt lat="42.146700" lon="-2.677255">
        <ele>1277.5</ele>
        <time>2021-07-04T15:04:24.000Z</time>
      </trkpt>
      <trkpt lat="42.146640" lon="-2.677153">
        <ele>1278.3</ele>
        <time>2021-07-04T15:04:27.000Z</time>
      </trkpt>
      <trkpt lat="42.146572" lon="-2.677035">
        <ele>1278.3</ele>
        <time>2021-07-04T15:04:31.000Z</time>
      </trkpt>
      <trkpt lat="42.146482" lon="-2.676942">
        <ele>1278.1</ele>
        <time>2021-07-04T15:04:34.000Z</time>
      </trkpt>
      <trkpt lat="42.146392" lon="-2.676850">
        <ele>1278.0</ele>
        <time>2021-07-04T15:04:37.000Z</time>
      </trkpt>
      <trkpt lat="42.146305" lon="-2.676782">
        <ele>1277.7</ele>
        <time>2021-07-04T15:04:40.000Z</time>
      </trkpt>
      <trkpt lat="42.146257" lon="-2.676753">
        <ele>1277.3</ele>
        <time>2021-07-04T15:04:45.000Z</time>
      </trkpt>
      <trkpt lat="42.146255" lon="-2.676755">
        <ele>1277.7</ele>
        <time>2021-07-04T15:05:17.000Z</time>
      </trkpt>
      <trkpt lat="42.146255" lon="-2.676755">
        <ele>1277.7</ele>
        <time>2021-07-04T15:05:18.000Z</time>
      </trkpt>
      <trkpt lat="42.146252" lon="-2.676750">
        <ele>1277.5</ele>
        <time>2021-07-04T15:05:19.000Z</time>
      </trkpt>
      <trkpt lat="42.146163" lon="-2.676675">
        <ele>1277.2</ele>
        <time>2021-07-04T15:05:25.000Z</time>
      </trkpt>
      <trkpt lat="42.146152" lon="-2.676672">
        <ele>1276.8</ele>
        <time>2021-07-04T15:05:28.000Z</time>
      </trkpt>
      <trkpt lat="42.146148" lon="-2.676672">
        <ele>1276.9</ele>
        <time>2021-07-04T15:05:29.000Z</time>
      </trkpt>
      <trkpt lat="42.146145" lon="-2.676668">
        <ele>1276.6</ele>
        <time>2021-07-04T15:05:32.000Z</time>
      </trkpt>
      <trkpt lat="42.146143" lon="-2.676668">
        <ele>1277.6</ele>
        <time>2021-07-04T15:05:41.000Z</time>
      </trkpt>
      <trkpt lat="42.146143" lon="-2.676670">
        <ele>1277.0</ele>
        <time>2021-07-04T15:05:42.000Z</time>
      </trkpt>
      <trkpt lat="42.146145" lon="-2.676668">
        <ele>1276.7</ele>
        <time>2021-07-04T15:05:43.000Z</time>
      </trkpt>
      <trkpt lat="42.146062" lon="-2.676562">
        <ele>1275.5</ele>
        <time>2021-07-04T15:05:49.000Z</time>
      </trkpt>
      <trkpt lat="42.145962" lon="-2.676502">
        <ele>1276.2</ele>
        <time>2021-07-04T15:05:52.000Z</time>
      </trkpt>
      <trkpt lat="42.145842" lon="-2.676422">
        <ele>1276.2</ele>
        <time>2021-07-04T15:05:55.000Z</time>
      </trkpt>
      <trkpt lat="42.145747" lon="-2.676377">
        <ele>1276.4</ele>
        <time>2021-07-04T15:05:57.000Z</time>
      </trkpt>
      <trkpt lat="42.145640" lon="-2.676338">
        <ele>1274.9</ele>
        <time>2021-07-04T15:05:59.000Z</time>
      </trkpt>
      <trkpt lat="42.145523" lon="-2.676312">
        <ele>1274.7</ele>
        <time>2021-07-04T15:06:01.000Z</time>
      </trkpt>
      <trkpt lat="42.145405" lon="-2.676278">
        <ele>1274.0</ele>
        <time>2021-07-04T15:06:03.000Z</time>
      </trkpt>
      <trkpt lat="42.145292" lon="-2.676238">
        <ele>1273.5</ele>
        <time>2021-07-04T15:06:05.000Z</time>
      </trkpt>
      <trkpt lat="42.145188" lon="-2.676197">
        <ele>1274.1</ele>
        <time>2021-07-04T15:06:07.000Z</time>
      </trkpt>
      <trkpt lat="42.145098" lon="-2.676158">
        <ele>1274.9</ele>
        <time>2021-07-04T15:06:09.000Z</time>
      </trkpt>
      <trkpt lat="42.145010" lon="-2.676130">
        <ele>1275.4</ele>
        <time>2021-07-04T15:06:11.000Z</time>
      </trkpt>
      <trkpt lat="42.144883" lon="-2.676100">
        <ele>1275.5</ele>
        <time>2021-07-04T15:06:14.000Z</time>
      </trkpt>
      <trkpt lat="42.144757" lon="-2.676088">
        <ele>1275.9</ele>
        <time>2021-07-04T15:06:17.000Z</time>
      </trkpt>
      <trkpt lat="42.144625" lon="-2.676102">
        <ele>1275.6</ele>
        <time>2021-07-04T15:06:20.000Z</time>
      </trkpt>
      <trkpt lat="42.144502" lon="-2.676118">
        <ele>1274.8</ele>
        <time>2021-07-04T15:06:23.000Z</time>
      </trkpt>
      <trkpt lat="42.144382" lon="-2.676143">
        <ele>1274.6</ele>
        <time>2021-07-04T15:06:26.000Z</time>
      </trkpt>
      <trkpt lat="42.144275" lon="-2.676183">
        <ele>1275.4</ele>
        <time>2021-07-04T15:06:29.000Z</time>
      </trkpt>
      <trkpt lat="42.144165" lon="-2.676217">
        <ele>1275.2</ele>
        <time>2021-07-04T15:06:32.000Z</time>
      </trkpt>
      <trkpt lat="42.144065" lon="-2.676267">
        <ele>1275.5</ele>
        <time>2021-07-04T15:06:35.000Z</time>
      </trkpt>
      <trkpt lat="42.143952" lon="-2.676323">
        <ele>1275.3</ele>
        <time>2021-07-04T15:06:38.000Z</time>
      </trkpt>
      <trkpt lat="42.143848" lon="-2.676355">
        <ele>1275.5</ele>
        <time>2021-07-04T15:06:41.000Z</time>
      </trkpt>
      <trkpt lat="42.143740" lon="-2.676375">
        <ele>1274.6</ele>
        <time>2021-07-04T15:06:44.000Z</time>
      </trkpt>
      <trkpt lat="42.143648" lon="-2.676408">
        <ele>1274.9</ele>
        <time>2021-07-04T15:06:47.000Z</time>
      </trkpt>
      <trkpt lat="42.143560" lon="-2.676433">
        <ele>1275.8</ele>
        <time>2021-07-04T15:06:50.000Z</time>
      </trkpt>
      <trkpt lat="42.143467" lon="-2.676447">
        <ele>1276.2</ele>
        <time>2021-07-04T15:06:53.000Z</time>
      </trkpt>
      <trkpt lat="42.143370" lon="-2.676472">
        <ele>1276.1</ele>
        <time>2021-07-04T15:06:56.000Z</time>
      </trkpt>
      <trkpt lat="42.143267" lon="-2.676498">
        <ele>1276.6</ele>
        <time>2021-07-04T15:06:59.000Z</time>
      </trkpt>
      <trkpt lat="42.143173" lon="-2.676532">
        <ele>1276.7</ele>
        <time>2021-07-04T15:07:02.000Z</time>
      </trkpt>
      <trkpt lat="42.143072" lon="-2.676558">
        <ele>1277.1</ele>
        <time>2021-07-04T15:07:05.000Z</time>
      </trkpt>
      <trkpt lat="42.142963" lon="-2.676577">
        <ele>1277.2</ele>
        <time>2021-07-04T15:07:08.000Z</time>
      </trkpt>
      <trkpt lat="42.142855" lon="-2.676593">
        <ele>1277.8</ele>
        <time>2021-07-04T15:07:11.000Z</time>
      </trkpt>
      <trkpt lat="42.142757" lon="-2.676608">
        <ele>1277.0</ele>
        <time>2021-07-04T15:07:14.000Z</time>
      </trkpt>
      <trkpt lat="42.142648" lon="-2.676638">
        <ele>1278.0</ele>
        <time>2021-07-04T15:07:17.000Z</time>
      </trkpt>
      <trkpt lat="42.142540" lon="-2.676655">
        <ele>1278.5</ele>
        <time>2021-07-04T15:07:20.000Z</time>
      </trkpt>
      <trkpt lat="42.142447" lon="-2.676680">
        <ele>1277.7</ele>
        <time>2021-07-04T15:07:23.000Z</time>
      </trkpt>
      <trkpt lat="42.142325" lon="-2.676717">
        <ele>1278.5</ele>
        <time>2021-07-04T15:07:26.000Z</time>
      </trkpt>
      <trkpt lat="42.142233" lon="-2.676730">
        <ele>1278.3</ele>
        <time>2021-07-04T15:07:28.000Z</time>
      </trkpt>
      <trkpt lat="42.142130" lon="-2.676752">
        <ele>1278.7</ele>
        <time>2021-07-04T15:07:31.000Z</time>
      </trkpt>
      <trkpt lat="42.142033" lon="-2.676775">
        <ele>1279.1</ele>
        <time>2021-07-04T15:07:34.000Z</time>
      </trkpt>
      <trkpt lat="42.141930" lon="-2.676780">
        <ele>1280.1</ele>
        <time>2021-07-04T15:07:37.000Z</time>
      </trkpt>
      <trkpt lat="42.141827" lon="-2.676828">
        <ele>1278.4</ele>
        <time>2021-07-04T15:07:40.000Z</time>
      </trkpt>
      <trkpt lat="42.141717" lon="-2.676860">
        <ele>1279.0</ele>
        <time>2021-07-04T15:07:44.000Z</time>
      </trkpt>
      <trkpt lat="42.141615" lon="-2.676842">
        <ele>1278.3</ele>
        <time>2021-07-04T15:07:48.000Z</time>
      </trkpt>
      <trkpt lat="42.141505" lon="-2.676782">
        <ele>1278.6</ele>
        <time>2021-07-04T15:07:52.000Z</time>
      </trkpt>
      <trkpt lat="42.141405" lon="-2.676718">
        <ele>1278.0</ele>
        <time>2021-07-04T15:07:55.000Z</time>
      </trkpt>
      <trkpt lat="42.141285" lon="-2.676667">
        <ele>1277.9</ele>
        <time>2021-07-04T15:07:58.000Z</time>
      </trkpt>
      <trkpt lat="42.141198" lon="-2.676633">
        <ele>1277.4</ele>
        <time>2021-07-04T15:08:00.000Z</time>
      </trkpt>
      <trkpt lat="42.141067" lon="-2.676590">
        <ele>1276.5</ele>
        <time>2021-07-04T15:08:03.000Z</time>
      </trkpt>
      <trkpt lat="42.140968" lon="-2.676565">
        <ele>1276.4</ele>
        <time>2021-07-04T15:08:05.000Z</time>
      </trkpt>
      <trkpt lat="42.140855" lon="-2.676528">
        <ele>1275.9</ele>
        <time>2021-07-04T15:08:07.000Z</time>
      </trkpt>
      <trkpt lat="42.140742" lon="-2.676492">
        <ele>1275.9</ele>
        <time>2021-07-04T15:08:09.000Z</time>
      </trkpt>
      <trkpt lat="42.140627" lon="-2.676455">
        <ele>1276.0</ele>
        <time>2021-07-04T15:08:11.000Z</time>
      </trkpt>
      <trkpt lat="42.140508" lon="-2.676418">
        <ele>1275.2</ele>
        <time>2021-07-04T15:08:13.000Z</time>
      </trkpt>
      <trkpt lat="42.140387" lon="-2.676375">
        <ele>1275.2</ele>
        <time>2021-07-04T15:08:15.000Z</time>
      </trkpt>
      <trkpt lat="42.140267" lon="-2.676333">
        <ele>1274.5</ele>
        <time>2021-07-04T15:08:17.000Z</time>
      </trkpt>
      <trkpt lat="42.140148" lon="-2.676297">
        <ele>1274.5</ele>
        <time>2021-07-04T15:08:19.000Z</time>
      </trkpt>
      <trkpt lat="42.140027" lon="-2.676263">
        <ele>1275.0</ele>
        <time>2021-07-04T15:08:21.000Z</time>
      </trkpt>
      <trkpt lat="42.139903" lon="-2.676237">
        <ele>1274.3</ele>
        <time>2021-07-04T15:08:23.000Z</time>
      </trkpt>
      <trkpt lat="42.139778" lon="-2.676225">
        <ele>1274.2</ele>
        <time>2021-07-04T15:08:25.000Z</time>
      </trkpt>
      <trkpt lat="42.139652" lon="-2.676212">
        <ele>1273.3</ele>
        <time>2021-07-04T15:08:27.000Z</time>
      </trkpt>
      <trkpt lat="42.139523" lon="-2.676220">
        <ele>1273.3</ele>
        <time>2021-07-04T15:08:29.000Z</time>
      </trkpt>
      <trkpt lat="42.139402" lon="-2.676240">
        <ele>1273.0</ele>
        <time>2021-07-04T15:08:31.000Z</time>
      </trkpt>
      <trkpt lat="42.139285" lon="-2.676283">
        <ele>1271.3</ele>
        <time>2021-07-04T15:08:33.000Z</time>
      </trkpt>
      <trkpt lat="42.139182" lon="-2.676360">
        <ele>1272.0</ele>
        <time>2021-07-04T15:08:35.000Z</time>
      </trkpt>
      <trkpt lat="42.139100" lon="-2.676467">
        <ele>1272.1</ele>
        <time>2021-07-04T15:08:37.000Z</time>
      </trkpt>
      <trkpt lat="42.139045" lon="-2.676600">
        <ele>1272.1</ele>
        <time>2021-07-04T15:08:39.000Z</time>
      </trkpt>
      <trkpt lat="42.139012" lon="-2.676738">
        <ele>1272.3</ele>
        <time>2021-07-04T15:08:41.000Z</time>
      </trkpt>
      <trkpt lat="42.138960" lon="-2.676843">
        <ele>1272.5</ele>
        <time>2021-07-04T15:08:43.000Z</time>
      </trkpt>
      <trkpt lat="42.138855" lon="-2.676820">
        <ele>1272.0</ele>
        <time>2021-07-04T15:08:46.000Z</time>
      </trkpt>
      <trkpt lat="42.138792" lon="-2.676707">
        <ele>1272.7</ele>
        <time>2021-07-04T15:08:48.000Z</time>
      </trkpt>
      <trkpt lat="42.138725" lon="-2.676563">
        <ele>1272.0</ele>
        <time>2021-07-04T15:08:50.000Z</time>
      </trkpt>
      <trkpt lat="42.138645" lon="-2.676417">
        <ele>1270.8</ele>
        <time>2021-07-04T15:08:52.000Z</time>
      </trkpt>
      <trkpt lat="42.138555" lon="-2.676270">
        <ele>1270.2</ele>
        <time>2021-07-04T15:08:54.000Z</time>
      </trkpt>
      <trkpt lat="42.138473" lon="-2.676133">
        <ele>1270.6</ele>
        <time>2021-07-04T15:08:56.000Z</time>
      </trkpt>
      <trkpt lat="42.138387" lon="-2.675997">
        <ele>1270.4</ele>
        <time>2021-07-04T15:08:58.000Z</time>
      </trkpt>
      <trkpt lat="42.138307" lon="-2.675863">
        <ele>1269.3</ele>
        <time>2021-07-04T15:09:00.000Z</time>
      </trkpt>
      <trkpt lat="42.138237" lon="-2.675730">
        <ele>1269.7</ele>
        <time>2021-07-04T15:09:02.000Z</time>
      </trkpt>
      <trkpt lat="42.138177" lon="-2.675598">
        <ele>1268.2</ele>
        <time>2021-07-04T15:09:04.000Z</time>
      </trkpt>
      <trkpt lat="42.138137" lon="-2.675437">
        <ele>1268.6</ele>
        <time>2021-07-04T15:09:06.000Z</time>
      </trkpt>
      <trkpt lat="42.138108" lon="-2.675277">
        <ele>1267.5</ele>
        <time>2021-07-04T15:09:08.000Z</time>
      </trkpt>
      <trkpt lat="42.138070" lon="-2.675110">
        <ele>1267.2</ele>
        <time>2021-07-04T15:09:10.000Z</time>
      </trkpt>
      <trkpt lat="42.138023" lon="-2.674937">
        <ele>1266.6</ele>
        <time>2021-07-04T15:09:12.000Z</time>
      </trkpt>
      <trkpt lat="42.137970" lon="-2.674762">
        <ele>1267.8</ele>
        <time>2021-07-04T15:09:14.000Z</time>
      </trkpt>
      <trkpt lat="42.137905" lon="-2.674592">
        <ele>1267.9</ele>
        <time>2021-07-04T15:09:16.000Z</time>
      </trkpt>
      <trkpt lat="42.137838" lon="-2.674433">
        <ele>1266.7</ele>
        <time>2021-07-04T15:09:18.000Z</time>
      </trkpt>
      <trkpt lat="42.137768" lon="-2.674293">
        <ele>1266.0</ele>
        <time>2021-07-04T15:09:20.000Z</time>
      </trkpt>
      <trkpt lat="42.137688" lon="-2.674158">
        <ele>1265.6</ele>
        <time>2021-07-04T15:09:22.000Z</time>
      </trkpt>
      <trkpt lat="42.137583" lon="-2.674040">
        <ele>1265.1</ele>
        <time>2021-07-04T15:09:24.000Z</time>
      </trkpt>
      <trkpt lat="42.137498" lon="-2.673982">
        <ele>1264.6</ele>
        <time>2021-07-04T15:09:25.000Z</time>
      </trkpt>
      <trkpt lat="42.137345" lon="-2.673895">
        <ele>1264.2</ele>
        <time>2021-07-04T15:09:27.000Z</time>
      </trkpt>
      <trkpt lat="42.137202" lon="-2.673833">
        <ele>1263.7</ele>
        <time>2021-07-04T15:09:29.000Z</time>
      </trkpt>
      <trkpt lat="42.137102" lon="-2.673727">
        <ele>1262.6</ele>
        <time>2021-07-04T15:09:31.000Z</time>
      </trkpt>
      <trkpt lat="42.137047" lon="-2.673565">
        <ele>1262.8</ele>
        <time>2021-07-04T15:09:33.000Z</time>
      </trkpt>
      <trkpt lat="42.137010" lon="-2.673390">
        <ele>1263.1</ele>
        <time>2021-07-04T15:09:35.000Z</time>
      </trkpt>
      <trkpt lat="42.136947" lon="-2.673228">
        <ele>1262.0</ele>
        <time>2021-07-04T15:09:37.000Z</time>
      </trkpt>
      <trkpt lat="42.136845" lon="-2.673098">
        <ele>1261.0</ele>
        <time>2021-07-04T15:09:39.000Z</time>
      </trkpt>
      <trkpt lat="42.136727" lon="-2.673003">
        <ele>1260.6</ele>
        <time>2021-07-04T15:09:41.000Z</time>
      </trkpt>
      <trkpt lat="42.136602" lon="-2.672930">
        <ele>1260.1</ele>
        <time>2021-07-04T15:09:43.000Z</time>
      </trkpt>
      <trkpt lat="42.136475" lon="-2.672843">
        <ele>1260.0</ele>
        <time>2021-07-04T15:09:45.000Z</time>
      </trkpt>
      <trkpt lat="42.136348" lon="-2.672762">
        <ele>1260.0</ele>
        <time>2021-07-04T15:09:47.000Z</time>
      </trkpt>
      <trkpt lat="42.136227" lon="-2.672678">
        <ele>1259.8</ele>
        <time>2021-07-04T15:09:49.000Z</time>
      </trkpt>
      <trkpt lat="42.136115" lon="-2.672598">
        <ele>1259.1</ele>
        <time>2021-07-04T15:09:51.000Z</time>
      </trkpt>
      <trkpt lat="42.136023" lon="-2.672477">
        <ele>1260.0</ele>
        <time>2021-07-04T15:09:53.000Z</time>
      </trkpt>
      <trkpt lat="42.135942" lon="-2.672340">
        <ele>1259.3</ele>
        <time>2021-07-04T15:09:55.000Z</time>
      </trkpt>
      <trkpt lat="42.135853" lon="-2.672205">
        <ele>1259.6</ele>
        <time>2021-07-04T15:09:57.000Z</time>
      </trkpt>
      <trkpt lat="42.135758" lon="-2.672073">
        <ele>1259.3</ele>
        <time>2021-07-04T15:09:59.000Z</time>
      </trkpt>
      <trkpt lat="42.135633" lon="-2.671940">
        <ele>1258.4</ele>
        <time>2021-07-04T15:10:01.000Z</time>
      </trkpt>
      <trkpt lat="42.135498" lon="-2.671820">
        <ele>1256.8</ele>
        <time>2021-07-04T15:10:03.000Z</time>
      </trkpt>
      <trkpt lat="42.135368" lon="-2.671700">
        <ele>1256.8</ele>
        <time>2021-07-04T15:10:05.000Z</time>
      </trkpt>
      <trkpt lat="42.135237" lon="-2.671595">
        <ele>1256.8</ele>
        <time>2021-07-04T15:10:07.000Z</time>
      </trkpt>
      <trkpt lat="42.135103" lon="-2.671493">
        <ele>1256.2</ele>
        <time>2021-07-04T15:10:09.000Z</time>
      </trkpt>
      <trkpt lat="42.134978" lon="-2.671393">
        <ele>1256.2</ele>
        <time>2021-07-04T15:10:11.000Z</time>
      </trkpt>
      <trkpt lat="42.134845" lon="-2.671297">
        <ele>1255.6</ele>
        <time>2021-07-04T15:10:13.000Z</time>
      </trkpt>
      <trkpt lat="42.134718" lon="-2.671203">
        <ele>1254.7</ele>
        <time>2021-07-04T15:10:15.000Z</time>
      </trkpt>
      <trkpt lat="42.134593" lon="-2.671108">
        <ele>1254.6</ele>
        <time>2021-07-04T15:10:17.000Z</time>
      </trkpt>
      <trkpt lat="42.134467" lon="-2.671022">
        <ele>1253.9</ele>
        <time>2021-07-04T15:10:19.000Z</time>
      </trkpt>
      <trkpt lat="42.134337" lon="-2.670933">
        <ele>1253.9</ele>
        <time>2021-07-04T15:10:21.000Z</time>
      </trkpt>
      <trkpt lat="42.134210" lon="-2.670843">
        <ele>1252.9</ele>
        <time>2021-07-04T15:10:23.000Z</time>
      </trkpt>
      <trkpt lat="42.134087" lon="-2.670748">
        <ele>1253.0</ele>
        <time>2021-07-04T15:10:25.000Z</time>
      </trkpt>
      <trkpt lat="42.133965" lon="-2.670668">
        <ele>1252.6</ele>
        <time>2021-07-04T15:10:27.000Z</time>
      </trkpt>
      <trkpt lat="42.133847" lon="-2.670575">
        <ele>1252.0</ele>
        <time>2021-07-04T15:10:29.000Z</time>
      </trkpt>
      <trkpt lat="42.133732" lon="-2.670467">
        <ele>1252.3</ele>
        <time>2021-07-04T15:10:31.000Z</time>
      </trkpt>
      <trkpt lat="42.133617" lon="-2.670355">
        <ele>1251.5</ele>
        <time>2021-07-04T15:10:33.000Z</time>
      </trkpt>
      <trkpt lat="42.133502" lon="-2.670247">
        <ele>1250.6</ele>
        <time>2021-07-04T15:10:35.000Z</time>
      </trkpt>
      <trkpt lat="42.133388" lon="-2.670145">
        <ele>1250.3</ele>
        <time>2021-07-04T15:10:37.000Z</time>
      </trkpt>
      <trkpt lat="42.133275" lon="-2.670048">
        <ele>1250.3</ele>
        <time>2021-07-04T15:10:39.000Z</time>
      </trkpt>
      <trkpt lat="42.133153" lon="-2.669960">
        <ele>1249.7</ele>
        <time>2021-07-04T15:10:41.000Z</time>
      </trkpt>
      <trkpt lat="42.133027" lon="-2.669875">
        <ele>1249.7</ele>
        <time>2021-07-04T15:10:43.000Z</time>
      </trkpt>
      <trkpt lat="42.132895" lon="-2.669790">
        <ele>1249.4</ele>
        <time>2021-07-04T15:10:45.000Z</time>
      </trkpt>
      <trkpt lat="42.132762" lon="-2.669705">
        <ele>1248.3</ele>
        <time>2021-07-04T15:10:47.000Z</time>
      </trkpt>
      <trkpt lat="42.132623" lon="-2.669620">
        <ele>1247.2</ele>
        <time>2021-07-04T15:10:49.000Z</time>
      </trkpt>
      <trkpt lat="42.132482" lon="-2.669540">
        <ele>1246.6</ele>
        <time>2021-07-04T15:10:51.000Z</time>
      </trkpt>
      <trkpt lat="42.132340" lon="-2.669478">
        <ele>1246.9</ele>
        <time>2021-07-04T15:10:53.000Z</time>
      </trkpt>
      <trkpt lat="42.132195" lon="-2.669440">
        <ele>1246.3</ele>
        <time>2021-07-04T15:10:55.000Z</time>
      </trkpt>
      <trkpt lat="42.132055" lon="-2.669392">
        <ele>1246.4</ele>
        <time>2021-07-04T15:10:57.000Z</time>
      </trkpt>
      <trkpt lat="42.131932" lon="-2.669305">
        <ele>1245.7</ele>
        <time>2021-07-04T15:10:59.000Z</time>
      </trkpt>
      <trkpt lat="42.131845" lon="-2.669170">
        <ele>1245.4</ele>
        <time>2021-07-04T15:11:01.000Z</time>
      </trkpt>
      <trkpt lat="42.131765" lon="-2.669022">
        <ele>1244.9</ele>
        <time>2021-07-04T15:11:03.000Z</time>
      </trkpt>
      <trkpt lat="42.131668" lon="-2.668888">
        <ele>1244.2</ele>
        <time>2021-07-04T15:11:05.000Z</time>
      </trkpt>
      <trkpt lat="42.131562" lon="-2.668775">
        <ele>1243.5</ele>
        <time>2021-07-04T15:11:07.000Z</time>
      </trkpt>
      <trkpt lat="42.131448" lon="-2.668680">
        <ele>1243.0</ele>
        <time>2021-07-04T15:11:09.000Z</time>
      </trkpt>
      <trkpt lat="42.131325" lon="-2.668588">
        <ele>1242.7</ele>
        <time>2021-07-04T15:11:11.000Z</time>
      </trkpt>
      <trkpt lat="42.131207" lon="-2.668502">
        <ele>1242.9</ele>
        <time>2021-07-04T15:11:13.000Z</time>
      </trkpt>
      <trkpt lat="42.131093" lon="-2.668417">
        <ele>1242.9</ele>
        <time>2021-07-04T15:11:15.000Z</time>
      </trkpt>
      <trkpt lat="42.130978" lon="-2.668337">
        <ele>1241.8</ele>
        <time>2021-07-04T15:11:17.000Z</time>
      </trkpt>
      <trkpt lat="42.130870" lon="-2.668253">
        <ele>1241.4</ele>
        <time>2021-07-04T15:11:19.000Z</time>
      </trkpt>
      <trkpt lat="42.130767" lon="-2.668170">
        <ele>1241.2</ele>
        <time>2021-07-04T15:11:21.000Z</time>
      </trkpt>
      <trkpt lat="42.130648" lon="-2.668098">
        <ele>1240.3</ele>
        <time>2021-07-04T15:11:23.000Z</time>
      </trkpt>
      <trkpt lat="42.130518" lon="-2.668050">
        <ele>1240.0</ele>
        <time>2021-07-04T15:11:25.000Z</time>
      </trkpt>
      <trkpt lat="42.130380" lon="-2.668018">
        <ele>1240.1</ele>
        <time>2021-07-04T15:11:27.000Z</time>
      </trkpt>
      <trkpt lat="42.130240" lon="-2.668005">
        <ele>1239.3</ele>
        <time>2021-07-04T15:11:29.000Z</time>
      </trkpt>
      <trkpt lat="42.130100" lon="-2.668008">
        <ele>1239.2</ele>
        <time>2021-07-04T15:11:31.000Z</time>
      </trkpt>
      <trkpt lat="42.129960" lon="-2.668015">
        <ele>1238.6</ele>
        <time>2021-07-04T15:11:33.000Z</time>
      </trkpt>
      <trkpt lat="42.129822" lon="-2.668037">
        <ele>1238.2</ele>
        <time>2021-07-04T15:11:35.000Z</time>
      </trkpt>
      <trkpt lat="42.129682" lon="-2.668055">
        <ele>1238.1</ele>
        <time>2021-07-04T15:11:37.000Z</time>
      </trkpt>
      <trkpt lat="42.129542" lon="-2.668080">
        <ele>1237.1</ele>
        <time>2021-07-04T15:11:39.000Z</time>
      </trkpt>
      <trkpt lat="42.129410" lon="-2.668118">
        <ele>1236.5</ele>
        <time>2021-07-04T15:11:41.000Z</time>
      </trkpt>
      <trkpt lat="42.129283" lon="-2.668180">
        <ele>1236.0</ele>
        <time>2021-07-04T15:11:43.000Z</time>
      </trkpt>
      <trkpt lat="42.129158" lon="-2.668248">
        <ele>1235.8</ele>
        <time>2021-07-04T15:11:45.000Z</time>
      </trkpt>
      <trkpt lat="42.129027" lon="-2.668295">
        <ele>1235.3</ele>
        <time>2021-07-04T15:11:47.000Z</time>
      </trkpt>
      <trkpt lat="42.128883" lon="-2.668295">
        <ele>1234.0</ele>
        <time>2021-07-04T15:11:49.000Z</time>
      </trkpt>
      <trkpt lat="42.128763" lon="-2.668227">
        <ele>1234.9</ele>
        <time>2021-07-04T15:11:51.000Z</time>
      </trkpt>
      <trkpt lat="42.128670" lon="-2.668098">
        <ele>1234.9</ele>
        <time>2021-07-04T15:11:53.000Z</time>
      </trkpt>
      <trkpt lat="42.128580" lon="-2.667953">
        <ele>1233.7</ele>
        <time>2021-07-04T15:11:55.000Z</time>
      </trkpt>
      <trkpt lat="42.128495" lon="-2.667803">
        <ele>1233.0</ele>
        <time>2021-07-04T15:11:57.000Z</time>
      </trkpt>
      <trkpt lat="42.128393" lon="-2.667662">
        <ele>1232.7</ele>
        <time>2021-07-04T15:11:59.000Z</time>
      </trkpt>
      <trkpt lat="42.128278" lon="-2.667532">
        <ele>1232.8</ele>
        <time>2021-07-04T15:12:01.000Z</time>
      </trkpt>
      <trkpt lat="42.128148" lon="-2.667413">
        <ele>1231.9</ele>
        <time>2021-07-04T15:12:03.000Z</time>
      </trkpt>
      <trkpt lat="42.128015" lon="-2.667313">
        <ele>1231.4</ele>
        <time>2021-07-04T15:12:05.000Z</time>
      </trkpt>
      <trkpt lat="42.127905" lon="-2.667200">
        <ele>1231.6</ele>
        <time>2021-07-04T15:12:07.000Z</time>
      </trkpt>
      <trkpt lat="42.127812" lon="-2.667058">
        <ele>1230.3</ele>
        <time>2021-07-04T15:12:09.000Z</time>
      </trkpt>
      <trkpt lat="42.127728" lon="-2.666917">
        <ele>1230.0</ele>
        <time>2021-07-04T15:12:11.000Z</time>
      </trkpt>
      <trkpt lat="42.127610" lon="-2.666807">
        <ele>1229.3</ele>
        <time>2021-07-04T15:12:13.000Z</time>
      </trkpt>
      <trkpt lat="42.127473" lon="-2.666738">
        <ele>1228.6</ele>
        <time>2021-07-04T15:12:15.000Z</time>
      </trkpt>
      <trkpt lat="42.127337" lon="-2.666688">
        <ele>1229.3</ele>
        <time>2021-07-04T15:12:17.000Z</time>
      </trkpt>
      <trkpt lat="42.127197" lon="-2.666642">
        <ele>1228.5</ele>
        <time>2021-07-04T15:12:19.000Z</time>
      </trkpt>
      <trkpt lat="42.127067" lon="-2.666557">
        <ele>1227.9</ele>
        <time>2021-07-04T15:12:21.000Z</time>
      </trkpt>
      <trkpt lat="42.126957" lon="-2.666433">
        <ele>1227.9</ele>
        <time>2021-07-04T15:12:23.000Z</time>
      </trkpt>
      <trkpt lat="42.126847" lon="-2.666310">
        <ele>1227.3</ele>
        <time>2021-07-04T15:12:25.000Z</time>
      </trkpt>
      <trkpt lat="42.126735" lon="-2.666198">
        <ele>1226.8</ele>
        <time>2021-07-04T15:12:27.000Z</time>
      </trkpt>
      <trkpt lat="42.126615" lon="-2.666092">
        <ele>1226.3</ele>
        <time>2021-07-04T15:12:29.000Z</time>
      </trkpt>
      <trkpt lat="42.126502" lon="-2.665980">
        <ele>1226.4</ele>
        <time>2021-07-04T15:12:31.000Z</time>
      </trkpt>
      <trkpt lat="42.126388" lon="-2.665873">
        <ele>1225.6</ele>
        <time>2021-07-04T15:12:33.000Z</time>
      </trkpt>
      <trkpt lat="42.126263" lon="-2.665785">
        <ele>1224.5</ele>
        <time>2021-07-04T15:12:35.000Z</time>
      </trkpt>
      <trkpt lat="42.126132" lon="-2.665673">
        <ele>1223.8</ele>
        <time>2021-07-04T15:12:37.000Z</time>
      </trkpt>
      <trkpt lat="42.126013" lon="-2.665550">
        <ele>1224.1</ele>
        <time>2021-07-04T15:12:39.000Z</time>
      </trkpt>
      <trkpt lat="42.125887" lon="-2.665435">
        <ele>1223.6</ele>
        <time>2021-07-04T15:12:41.000Z</time>
      </trkpt>
      <trkpt lat="42.125783" lon="-2.665293">
        <ele>1222.5</ele>
        <time>2021-07-04T15:12:43.000Z</time>
      </trkpt>
      <trkpt lat="42.125705" lon="-2.665150">
        <ele>1221.9</ele>
        <time>2021-07-04T15:12:45.000Z</time>
      </trkpt>
      <trkpt lat="42.125608" lon="-2.665008">
        <ele>1221.0</ele>
        <time>2021-07-04T15:12:47.000Z</time>
      </trkpt>
      <trkpt lat="42.125488" lon="-2.664872">
        <ele>1220.1</ele>
        <time>2021-07-04T15:12:49.000Z</time>
      </trkpt>
      <trkpt lat="42.125358" lon="-2.664737">
        <ele>1219.9</ele>
        <time>2021-07-04T15:12:51.000Z</time>
      </trkpt>
      <trkpt lat="42.125227" lon="-2.664612">
        <ele>1219.7</ele>
        <time>2021-07-04T15:12:53.000Z</time>
      </trkpt>
      <trkpt lat="42.125107" lon="-2.664485">
        <ele>1218.6</ele>
        <time>2021-07-04T15:12:55.000Z</time>
      </trkpt>
      <trkpt lat="42.125002" lon="-2.664345">
        <ele>1218.1</ele>
        <time>2021-07-04T15:12:57.000Z</time>
      </trkpt>
      <trkpt lat="42.124912" lon="-2.664213">
        <ele>1217.7</ele>
        <time>2021-07-04T15:12:59.000Z</time>
      </trkpt>
      <trkpt lat="42.124842" lon="-2.664085">
        <ele>1217.1</ele>
        <time>2021-07-04T15:13:01.000Z</time>
      </trkpt>
      <trkpt lat="42.124780" lon="-2.663943">
        <ele>1215.9</ele>
        <time>2021-07-04T15:13:03.000Z</time>
      </trkpt>
      <trkpt lat="42.124732" lon="-2.663785">
        <ele>1216.0</ele>
        <time>2021-07-04T15:13:05.000Z</time>
      </trkpt>
      <trkpt lat="42.124683" lon="-2.663615">
        <ele>1216.3</ele>
        <time>2021-07-04T15:13:07.000Z</time>
      </trkpt>
      <trkpt lat="42.124653" lon="-2.663432">
        <ele>1216.2</ele>
        <time>2021-07-04T15:13:09.000Z</time>
      </trkpt>
      <trkpt lat="42.124642" lon="-2.663250">
        <ele>1215.7</ele>
        <time>2021-07-04T15:13:11.000Z</time>
      </trkpt>
      <trkpt lat="42.124635" lon="-2.663062">
        <ele>1214.4</ele>
        <time>2021-07-04T15:13:13.000Z</time>
      </trkpt>
      <trkpt lat="42.124587" lon="-2.662897">
        <ele>1214.3</ele>
        <time>2021-07-04T15:13:15.000Z</time>
      </trkpt>
      <trkpt lat="42.124472" lon="-2.662765">
        <ele>1213.5</ele>
        <time>2021-07-04T15:13:17.000Z</time>
      </trkpt>
      <trkpt lat="42.124355" lon="-2.662662">
        <ele>1212.5</ele>
        <time>2021-07-04T15:13:19.000Z</time>
      </trkpt>
      <trkpt lat="42.124307" lon="-2.662542">
        <ele>1211.6</ele>
        <time>2021-07-04T15:13:21.000Z</time>
      </trkpt>
      <trkpt lat="42.124378" lon="-2.662450">
        <ele>1211.9</ele>
        <time>2021-07-04T15:13:23.000Z</time>
      </trkpt>
      <trkpt lat="42.124478" lon="-2.662402">
        <ele>1211.2</ele>
        <time>2021-07-04T15:13:25.000Z</time>
      </trkpt>
      <trkpt lat="42.124593" lon="-2.662377">
        <ele>1210.6</ele>
        <time>2021-07-04T15:13:27.000Z</time>
      </trkpt>
      <trkpt lat="42.124708" lon="-2.662360">
        <ele>1210.2</ele>
        <time>2021-07-04T15:13:29.000Z</time>
      </trkpt>
      <trkpt lat="42.124848" lon="-2.662418">
        <ele>1209.4</ele>
        <time>2021-07-04T15:13:31.000Z</time>
      </trkpt>
      <trkpt lat="42.124975" lon="-2.662502">
        <ele>1209.6</ele>
        <time>2021-07-04T15:13:33.000Z</time>
      </trkpt>
      <trkpt lat="42.125093" lon="-2.662612">
        <ele>1209.6</ele>
        <time>2021-07-04T15:13:35.000Z</time>
      </trkpt>
      <trkpt lat="42.125187" lon="-2.662757">
        <ele>1208.6</ele>
        <time>2021-07-04T15:13:37.000Z</time>
      </trkpt>
      <trkpt lat="42.125245" lon="-2.662942">
        <ele>1208.0</ele>
        <time>2021-07-04T15:13:39.000Z</time>
      </trkpt>
      <trkpt lat="42.125288" lon="-2.663140">
        <ele>1207.5</ele>
        <time>2021-07-04T15:13:41.000Z</time>
      </trkpt>
      <trkpt lat="42.125333" lon="-2.663342">
        <ele>1207.2</ele>
        <time>2021-07-04T15:13:43.000Z</time>
      </trkpt>
      <trkpt lat="42.125397" lon="-2.663533">
        <ele>1206.5</ele>
        <time>2021-07-04T15:13:45.000Z</time>
      </trkpt>
      <trkpt lat="42.125485" lon="-2.663722">
        <ele>1205.8</ele>
        <time>2021-07-04T15:13:47.000Z</time>
      </trkpt>
      <trkpt lat="42.125588" lon="-2.663892">
        <ele>1205.6</ele>
        <time>2021-07-04T15:13:49.000Z</time>
      </trkpt>
      <trkpt lat="42.125705" lon="-2.664022">
        <ele>1205.1</ele>
        <time>2021-07-04T15:13:51.000Z</time>
      </trkpt>
      <trkpt lat="42.125835" lon="-2.664088">
        <ele>1205.2</ele>
        <time>2021-07-04T15:13:53.000Z</time>
      </trkpt>
      <trkpt lat="42.125975" lon="-2.664088">
        <ele>1202.9</ele>
        <time>2021-07-04T15:13:55.000Z</time>
      </trkpt>
      <trkpt lat="42.126123" lon="-2.664090">
        <ele>1202.2</ele>
        <time>2021-07-04T15:13:57.000Z</time>
      </trkpt>
      <trkpt lat="42.126278" lon="-2.664113">
        <ele>1201.2</ele>
        <time>2021-07-04T15:13:59.000Z</time>
      </trkpt>
      <trkpt lat="42.126440" lon="-2.664143">
        <ele>1200.0</ele>
        <time>2021-07-04T15:14:01.000Z</time>
      </trkpt>
      <trkpt lat="42.126598" lon="-2.664157">
        <ele>1200.7</ele>
        <time>2021-07-04T15:14:03.000Z</time>
      </trkpt>
      <trkpt lat="42.126757" lon="-2.664172">
        <ele>1199.6</ele>
        <time>2021-07-04T15:14:05.000Z</time>
      </trkpt>
      <trkpt lat="42.126917" lon="-2.664195">
        <ele>1199.1</ele>
        <time>2021-07-04T15:14:07.000Z</time>
      </trkpt>
      <trkpt lat="42.127070" lon="-2.664225">
        <ele>1198.2</ele>
        <time>2021-07-04T15:14:09.000Z</time>
      </trkpt>
      <trkpt lat="42.127223" lon="-2.664268">
        <ele>1197.7</ele>
        <time>2021-07-04T15:14:11.000Z</time>
      </trkpt>
      <trkpt lat="42.127372" lon="-2.664312">
        <ele>1197.2</ele>
        <time>2021-07-04T15:14:13.000Z</time>
      </trkpt>
      <trkpt lat="42.127523" lon="-2.664348">
        <ele>1196.6</ele>
        <time>2021-07-04T15:14:15.000Z</time>
      </trkpt>
      <trkpt lat="42.127675" lon="-2.664388">
        <ele>1196.4</ele>
        <time>2021-07-04T15:14:17.000Z</time>
      </trkpt>
      <trkpt lat="42.127812" lon="-2.664415">
        <ele>1194.6</ele>
        <time>2021-07-04T15:14:19.000Z</time>
      </trkpt>
      <trkpt lat="42.127935" lon="-2.664385">
        <ele>1194.3</ele>
        <time>2021-07-04T15:14:21.000Z</time>
      </trkpt>
      <trkpt lat="42.128048" lon="-2.664270">
        <ele>1193.1</ele>
        <time>2021-07-04T15:14:23.000Z</time>
      </trkpt>
      <trkpt lat="42.128155" lon="-2.664137">
        <ele>1193.0</ele>
        <time>2021-07-04T15:14:25.000Z</time>
      </trkpt>
      <trkpt lat="42.128280" lon="-2.664017">
        <ele>1192.3</ele>
        <time>2021-07-04T15:14:27.000Z</time>
      </trkpt>
      <trkpt lat="42.128417" lon="-2.663910">
        <ele>1191.4</ele>
        <time>2021-07-04T15:14:29.000Z</time>
      </trkpt>
      <trkpt lat="42.128557" lon="-2.663825">
        <ele>1191.0</ele>
        <time>2021-07-04T15:14:31.000Z</time>
      </trkpt>
      <trkpt lat="42.128697" lon="-2.663757">
        <ele>1189.5</ele>
        <time>2021-07-04T15:14:33.000Z</time>
      </trkpt>
      <trkpt lat="42.128842" lon="-2.663745">
        <ele>1189.5</ele>
        <time>2021-07-04T15:14:35.000Z</time>
      </trkpt>
      <trkpt lat="42.128982" lon="-2.663800">
        <ele>1188.3</ele>
        <time>2021-07-04T15:14:37.000Z</time>
      </trkpt>
      <trkpt lat="42.129120" lon="-2.663863">
        <ele>1187.4</ele>
        <time>2021-07-04T15:14:39.000Z</time>
      </trkpt>
      <trkpt lat="42.129268" lon="-2.663930">
        <ele>1187.2</ele>
        <time>2021-07-04T15:14:41.000Z</time>
      </trkpt>
      <trkpt lat="42.129423" lon="-2.664003">
        <ele>1186.0</ele>
        <time>2021-07-04T15:14:43.000Z</time>
      </trkpt>
      <trkpt lat="42.129580" lon="-2.664035">
        <ele>1186.3</ele>
        <time>2021-07-04T15:14:45.000Z</time>
      </trkpt>
      <trkpt lat="42.129728" lon="-2.663998">
        <ele>1185.2</ele>
        <time>2021-07-04T15:14:47.000Z</time>
      </trkpt>
      <trkpt lat="42.129878" lon="-2.663932">
        <ele>1184.4</ele>
        <time>2021-07-04T15:14:49.000Z</time>
      </trkpt>
      <trkpt lat="42.130025" lon="-2.663853">
        <ele>1183.6</ele>
        <time>2021-07-04T15:14:51.000Z</time>
      </trkpt>
      <trkpt lat="42.130165" lon="-2.663775">
        <ele>1183.3</ele>
        <time>2021-07-04T15:14:53.000Z</time>
      </trkpt>
      <trkpt lat="42.130315" lon="-2.663697">
        <ele>1182.4</ele>
        <time>2021-07-04T15:14:55.000Z</time>
      </trkpt>
      <trkpt lat="42.130458" lon="-2.663620">
        <ele>1182.0</ele>
        <time>2021-07-04T15:14:57.000Z</time>
      </trkpt>
      <trkpt lat="42.130585" lon="-2.663538">
        <ele>1180.7</ele>
        <time>2021-07-04T15:14:59.000Z</time>
      </trkpt>
      <trkpt lat="42.130685" lon="-2.663453">
        <ele>1180.6</ele>
        <time>2021-07-04T15:15:01.000Z</time>
      </trkpt>
      <trkpt lat="42.130703" lon="-2.663282">
        <ele>1179.5</ele>
        <time>2021-07-04T15:15:04.000Z</time>
      </trkpt>
      <trkpt lat="42.130593" lon="-2.663177">
        <ele>1178.8</ele>
        <time>2021-07-04T15:15:06.000Z</time>
      </trkpt>
      <trkpt lat="42.130462" lon="-2.663092">
        <ele>1177.6</ele>
        <time>2021-07-04T15:15:08.000Z</time>
      </trkpt>
      <trkpt lat="42.130332" lon="-2.663018">
        <ele>1176.0</ele>
        <time>2021-07-04T15:15:10.000Z</time>
      </trkpt>
      <trkpt lat="42.130203" lon="-2.662957">
        <ele>1176.1</ele>
        <time>2021-07-04T15:15:12.000Z</time>
      </trkpt>
      <trkpt lat="42.130070" lon="-2.662918">
        <ele>1174.9</ele>
        <time>2021-07-04T15:15:14.000Z</time>
      </trkpt>
      <trkpt lat="42.129940" lon="-2.662875">
        <ele>1174.7</ele>
        <time>2021-07-04T15:15:16.000Z</time>
      </trkpt>
      <trkpt lat="42.129828" lon="-2.662785">
        <ele>1174.1</ele>
        <time>2021-07-04T15:15:18.000Z</time>
      </trkpt>
      <trkpt lat="42.129733" lon="-2.662670">
        <ele>1173.4</ele>
        <time>2021-07-04T15:15:20.000Z</time>
      </trkpt>
      <trkpt lat="42.129657" lon="-2.662567">
        <ele>1172.8</ele>
        <time>2021-07-04T15:15:22.000Z</time>
      </trkpt>
      <trkpt lat="42.129622" lon="-2.662510">
        <ele>1171.9</ele>
        <time>2021-07-04T15:15:26.000Z</time>
      </trkpt>
      <trkpt lat="42.129617" lon="-2.662498">
        <ele>1172.0</ele>
        <time>2021-07-04T15:15:29.000Z</time>
      </trkpt>
      <trkpt lat="42.129560" lon="-2.662352">
        <ele>1172.1</ele>
        <time>2021-07-04T15:15:33.000Z</time>
      </trkpt>
      <trkpt lat="42.129520" lon="-2.662218">
        <ele>1172.3</ele>
        <time>2021-07-04T15:15:35.000Z</time>
      </trkpt>
      <trkpt lat="42.129468" lon="-2.662062">
        <ele>1172.0</ele>
        <time>2021-07-04T15:15:37.000Z</time>
      </trkpt>
      <trkpt lat="42.129427" lon="-2.661885">
        <ele>1171.0</ele>
        <time>2021-07-04T15:15:39.000Z</time>
      </trkpt>
      <trkpt lat="42.129398" lon="-2.661700">
        <ele>1171.2</ele>
        <time>2021-07-04T15:15:41.000Z</time>
      </trkpt>
      <trkpt lat="42.129367" lon="-2.661508">
        <ele>1170.6</ele>
        <time>2021-07-04T15:15:43.000Z</time>
      </trkpt>
      <trkpt lat="42.129332" lon="-2.661308">
        <ele>1169.4</ele>
        <time>2021-07-04T15:15:45.000Z</time>
      </trkpt>
      <trkpt lat="42.129288" lon="-2.661112">
        <ele>1168.8</ele>
        <time>2021-07-04T15:15:47.000Z</time>
      </trkpt>
      <trkpt lat="42.129232" lon="-2.660920">
        <ele>1168.7</ele>
        <time>2021-07-04T15:15:49.000Z</time>
      </trkpt>
      <trkpt lat="42.129157" lon="-2.660740">
        <ele>1167.1</ele>
        <time>2021-07-04T15:15:51.000Z</time>
      </trkpt>
      <trkpt lat="42.129058" lon="-2.660580">
        <ele>1167.0</ele>
        <time>2021-07-04T15:15:53.000Z</time>
      </trkpt>
      <trkpt lat="42.128933" lon="-2.660448">
        <ele>1167.0</ele>
        <time>2021-07-04T15:15:55.000Z</time>
      </trkpt>
      <trkpt lat="42.128798" lon="-2.660337">
        <ele>1166.4</ele>
        <time>2021-07-04T15:15:57.000Z</time>
      </trkpt>
      <trkpt lat="42.128660" lon="-2.660240">
        <ele>1165.3</ele>
        <time>2021-07-04T15:15:59.000Z</time>
      </trkpt>
      <trkpt lat="42.128522" lon="-2.660152">
        <ele>1164.5</ele>
        <time>2021-07-04T15:16:01.000Z</time>
      </trkpt>
      <trkpt lat="42.128378" lon="-2.660063">
        <ele>1164.0</ele>
        <time>2021-07-04T15:16:03.000Z</time>
      </trkpt>
      <trkpt lat="42.128233" lon="-2.659973">
        <ele>1163.5</ele>
        <time>2021-07-04T15:16:05.000Z</time>
      </trkpt>
      <trkpt lat="42.128085" lon="-2.659873">
        <ele>1163.1</ele>
        <time>2021-07-04T15:16:07.000Z</time>
      </trkpt>
      <trkpt lat="42.127945" lon="-2.659778">
        <ele>1163.1</ele>
        <time>2021-07-04T15:16:09.000Z</time>
      </trkpt>
      <trkpt lat="42.127828" lon="-2.659692">
        <ele>1161.3</ele>
        <time>2021-07-04T15:16:11.000Z</time>
      </trkpt>
      <trkpt lat="42.127710" lon="-2.659607">
        <ele>1159.6</ele>
        <time>2021-07-04T15:16:13.000Z</time>
      </trkpt>
      <trkpt lat="42.127583" lon="-2.659557">
        <ele>1158.8</ele>
        <time>2021-07-04T15:16:15.000Z</time>
      </trkpt>
      <trkpt lat="42.127452" lon="-2.659553">
        <ele>1158.7</ele>
        <time>2021-07-04T15:16:17.000Z</time>
      </trkpt>
      <trkpt lat="42.127310" lon="-2.659570">
        <ele>1158.6</ele>
        <time>2021-07-04T15:16:19.000Z</time>
      </trkpt>
      <trkpt lat="42.127177" lon="-2.659585">
        <ele>1158.2</ele>
        <time>2021-07-04T15:16:21.000Z</time>
      </trkpt>
      <trkpt lat="42.127075" lon="-2.659562">
        <ele>1157.9</ele>
        <time>2021-07-04T15:16:23.000Z</time>
      </trkpt>
      <trkpt lat="42.126985" lon="-2.659443">
        <ele>1156.6</ele>
        <time>2021-07-04T15:16:26.000Z</time>
      </trkpt>
      <trkpt lat="42.126960" lon="-2.659307">
        <ele>1156.7</ele>
        <time>2021-07-04T15:16:28.000Z</time>
      </trkpt>
      <trkpt lat="42.126932" lon="-2.659145">
        <ele>1155.6</ele>
        <time>2021-07-04T15:16:30.000Z</time>
      </trkpt>
      <trkpt lat="42.126882" lon="-2.658978">
        <ele>1155.1</ele>
        <time>2021-07-04T15:16:32.000Z</time>
      </trkpt>
      <trkpt lat="42.126777" lon="-2.658858">
        <ele>1153.9</ele>
        <time>2021-07-04T15:16:34.000Z</time>
      </trkpt>
      <trkpt lat="42.126640" lon="-2.658835">
        <ele>1152.7</ele>
        <time>2021-07-04T15:16:36.000Z</time>
      </trkpt>
      <trkpt lat="42.126505" lon="-2.658843">
        <ele>1152.0</ele>
        <time>2021-07-04T15:16:38.000Z</time>
      </trkpt>
      <trkpt lat="42.126375" lon="-2.658847">
        <ele>1152.1</ele>
        <time>2021-07-04T15:16:40.000Z</time>
      </trkpt>
      <trkpt lat="42.126240" lon="-2.658847">
        <ele>1151.7</ele>
        <time>2021-07-04T15:16:42.000Z</time>
      </trkpt>
      <trkpt lat="42.126102" lon="-2.658835">
        <ele>1150.4</ele>
        <time>2021-07-04T15:16:44.000Z</time>
      </trkpt>
      <trkpt lat="42.125958" lon="-2.658825">
        <ele>1148.3</ele>
        <time>2021-07-04T15:16:46.000Z</time>
      </trkpt>
      <trkpt lat="42.125827" lon="-2.658818">
        <ele>1149.2</ele>
        <time>2021-07-04T15:16:48.000Z</time>
      </trkpt>
      <trkpt lat="42.125712" lon="-2.658815">
        <ele>1149.1</ele>
        <time>2021-07-04T15:16:50.000Z</time>
      </trkpt>
      <trkpt lat="42.125592" lon="-2.658817">
        <ele>1148.5</ele>
        <time>2021-07-04T15:16:52.000Z</time>
      </trkpt>
      <trkpt lat="42.125453" lon="-2.658827">
        <ele>1148.4</ele>
        <time>2021-07-04T15:16:54.000Z</time>
      </trkpt>
      <trkpt lat="42.125302" lon="-2.658832">
        <ele>1146.8</ele>
        <time>2021-07-04T15:16:56.000Z</time>
      </trkpt>
      <trkpt lat="42.125140" lon="-2.658833">
        <ele>1146.5</ele>
        <time>2021-07-04T15:16:58.000Z</time>
      </trkpt>
      <trkpt lat="42.124987" lon="-2.658842">
        <ele>1145.7</ele>
        <time>2021-07-04T15:17:00.000Z</time>
      </trkpt>
      <trkpt lat="42.124827" lon="-2.658857">
        <ele>1144.8</ele>
        <time>2021-07-04T15:17:02.000Z</time>
      </trkpt>
      <trkpt lat="42.124658" lon="-2.658877">
        <ele>1143.6</ele>
        <time>2021-07-04T15:17:04.000Z</time>
      </trkpt>
      <trkpt lat="42.124485" lon="-2.658905">
        <ele>1142.5</ele>
        <time>2021-07-04T15:17:06.000Z</time>
      </trkpt>
      <trkpt lat="42.124313" lon="-2.658930">
        <ele>1141.5</ele>
        <time>2021-07-04T15:17:08.000Z</time>
      </trkpt>
      <trkpt lat="42.124148" lon="-2.658953">
        <ele>1141.3</ele>
        <time>2021-07-04T15:17:10.000Z</time>
      </trkpt>
      <trkpt lat="42.123977" lon="-2.658973">
        <ele>1139.6</ele>
        <time>2021-07-04T15:17:12.000Z</time>
      </trkpt>
      <trkpt lat="42.123808" lon="-2.659000">
        <ele>1139.5</ele>
        <time>2021-07-04T15:17:14.000Z</time>
      </trkpt>
      <trkpt lat="42.123643" lon="-2.659058">
        <ele>1138.6</ele>
        <time>2021-07-04T15:17:16.000Z</time>
      </trkpt>
      <trkpt lat="42.123487" lon="-2.659157">
        <ele>1138.0</ele>
        <time>2021-07-04T15:17:18.000Z</time>
      </trkpt>
      <trkpt lat="42.123343" lon="-2.659283">
        <ele>1137.5</ele>
        <time>2021-07-04T15:17:20.000Z</time>
      </trkpt>
      <trkpt lat="42.123217" lon="-2.659432">
        <ele>1136.5</ele>
        <time>2021-07-04T15:17:22.000Z</time>
      </trkpt>
      <trkpt lat="42.123095" lon="-2.659588">
        <ele>1135.0</ele>
        <time>2021-07-04T15:17:24.000Z</time>
      </trkpt>
      <trkpt lat="42.122982" lon="-2.659737">
        <ele>1134.5</ele>
        <time>2021-07-04T15:17:26.000Z</time>
      </trkpt>
      <trkpt lat="42.122883" lon="-2.659890">
        <ele>1133.3</ele>
        <time>2021-07-04T15:17:28.000Z</time>
      </trkpt>
      <trkpt lat="42.122803" lon="-2.660023">
        <ele>1132.1</ele>
        <time>2021-07-04T15:17:30.000Z</time>
      </trkpt>
      <trkpt lat="42.122713" lon="-2.660048">
        <ele>1131.5</ele>
        <time>2021-07-04T15:17:32.000Z</time>
      </trkpt>
      <trkpt lat="42.122682" lon="-2.659930">
        <ele>1130.7</ele>
        <time>2021-07-04T15:17:34.000Z</time>
      </trkpt>
      <trkpt lat="42.122753" lon="-2.659750">
        <ele>1130.3</ele>
        <time>2021-07-04T15:17:36.000Z</time>
      </trkpt>
      <trkpt lat="42.122807" lon="-2.659652">
        <ele>1129.3</ele>
        <time>2021-07-04T15:17:37.000Z</time>
      </trkpt>
      <trkpt lat="42.122913" lon="-2.659457">
        <ele>1127.0</ele>
        <time>2021-07-04T15:17:39.000Z</time>
      </trkpt>
      <trkpt lat="42.122968" lon="-2.659358">
        <ele>1126.5</ele>
        <time>2021-07-04T15:17:40.000Z</time>
      </trkpt>
      <trkpt lat="42.123077" lon="-2.659165">
        <ele>1126.7</ele>
        <time>2021-07-04T15:17:42.000Z</time>
      </trkpt>
      <trkpt lat="42.123135" lon="-2.659072">
        <ele>1125.8</ele>
        <time>2021-07-04T15:17:43.000Z</time>
      </trkpt>
      <trkpt lat="42.123197" lon="-2.658983">
        <ele>1124.9</ele>
        <time>2021-07-04T15:17:44.000Z</time>
      </trkpt>
      <trkpt lat="42.123320" lon="-2.658823">
        <ele>1125.3</ele>
        <time>2021-07-04T15:17:46.000Z</time>
      </trkpt>
      <trkpt lat="42.123453" lon="-2.658687">
        <ele>1124.1</ele>
        <time>2021-07-04T15:17:48.000Z</time>
      </trkpt>
      <trkpt lat="42.123598" lon="-2.658582">
        <ele>1123.3</ele>
        <time>2021-07-04T15:17:50.000Z</time>
      </trkpt>
      <trkpt lat="42.123750" lon="-2.658507">
        <ele>1123.2</ele>
        <time>2021-07-04T15:17:52.000Z</time>
      </trkpt>
      <trkpt lat="42.123902" lon="-2.658455">
        <ele>1121.5</ele>
        <time>2021-07-04T15:17:54.000Z</time>
      </trkpt>
      <trkpt lat="42.124068" lon="-2.658427">
        <ele>1120.1</ele>
        <time>2021-07-04T15:17:56.000Z</time>
      </trkpt>
      <trkpt lat="42.124240" lon="-2.658398">
        <ele>1120.5</ele>
        <time>2021-07-04T15:17:58.000Z</time>
      </trkpt>
      <trkpt lat="42.124413" lon="-2.658357">
        <ele>1119.9</ele>
        <time>2021-07-04T15:18:00.000Z</time>
      </trkpt>
      <trkpt lat="42.124502" lon="-2.658333">
        <ele>1119.6</ele>
        <time>2021-07-04T15:18:01.000Z</time>
      </trkpt>
      <trkpt lat="42.124668" lon="-2.658278">
        <ele>1118.8</ele>
        <time>2021-07-04T15:18:03.000Z</time>
      </trkpt>
      <trkpt lat="42.124818" lon="-2.658213">
        <ele>1118.4</ele>
        <time>2021-07-04T15:18:05.000Z</time>
      </trkpt>
      <trkpt lat="42.124960" lon="-2.658137">
        <ele>1117.8</ele>
        <time>2021-07-04T15:18:07.000Z</time>
      </trkpt>
      <trkpt lat="42.125098" lon="-2.658047">
        <ele>1116.4</ele>
        <time>2021-07-04T15:18:09.000Z</time>
      </trkpt>
      <trkpt lat="42.125237" lon="-2.657952">
        <ele>1115.4</ele>
        <time>2021-07-04T15:18:11.000Z</time>
      </trkpt>
      <trkpt lat="42.125370" lon="-2.657848">
        <ele>1116.1</ele>
        <time>2021-07-04T15:18:13.000Z</time>
      </trkpt>
      <trkpt lat="42.125500" lon="-2.657738">
        <ele>1114.7</ele>
        <time>2021-07-04T15:18:15.000Z</time>
      </trkpt>
      <trkpt lat="42.125613" lon="-2.657627">
        <ele>1113.8</ele>
        <time>2021-07-04T15:18:17.000Z</time>
      </trkpt>
      <trkpt lat="42.125722" lon="-2.657508">
        <ele>1112.1</ele>
        <time>2021-07-04T15:18:19.000Z</time>
      </trkpt>
      <trkpt lat="42.125790" lon="-2.657387">
        <ele>1111.7</ele>
        <time>2021-07-04T15:18:21.000Z</time>
      </trkpt>
      <trkpt lat="42.125762" lon="-2.657267">
        <ele>1110.7</ele>
        <time>2021-07-04T15:18:23.000Z</time>
      </trkpt>
      <trkpt lat="42.125643" lon="-2.657247">
        <ele>1109.0</ele>
        <time>2021-07-04T15:18:25.000Z</time>
      </trkpt>
      <trkpt lat="42.125507" lon="-2.657332">
        <ele>1107.9</ele>
        <time>2021-07-04T15:18:27.000Z</time>
      </trkpt>
      <trkpt lat="42.125355" lon="-2.657438">
        <ele>1105.8</ele>
        <time>2021-07-04T15:18:29.000Z</time>
      </trkpt>
      <trkpt lat="42.125270" lon="-2.657492">
        <ele>1104.7</ele>
        <time>2021-07-04T15:18:30.000Z</time>
      </trkpt>
      <trkpt lat="42.125182" lon="-2.657537">
        <ele>1103.6</ele>
        <time>2021-07-04T15:18:31.000Z</time>
      </trkpt>
      <trkpt lat="42.125095" lon="-2.657577">
        <ele>1103.2</ele>
        <time>2021-07-04T15:18:32.000Z</time>
      </trkpt>
      <trkpt lat="42.125008" lon="-2.657617">
        <ele>1103.2</ele>
        <time>2021-07-04T15:18:33.000Z</time>
      </trkpt>
      <trkpt lat="42.124922" lon="-2.657653">
        <ele>1103.5</ele>
        <time>2021-07-04T15:18:34.000Z</time>
      </trkpt>
      <trkpt lat="42.124835" lon="-2.657688">
        <ele>1103.1</ele>
        <time>2021-07-04T15:18:35.000Z</time>
      </trkpt>
      <trkpt lat="42.124667" lon="-2.657763">
        <ele>1101.3</ele>
        <time>2021-07-04T15:18:37.000Z</time>
      </trkpt>
      <trkpt lat="42.124580" lon="-2.657798">
        <ele>1100.6</ele>
        <time>2021-07-04T15:18:38.000Z</time>
      </trkpt>
      <trkpt lat="42.124492" lon="-2.657830">
        <ele>1100.1</ele>
        <time>2021-07-04T15:18:39.000Z</time>
      </trkpt>
      <trkpt lat="42.124320" lon="-2.657873">
        <ele>1099.1</ele>
        <time>2021-07-04T15:18:41.000Z</time>
      </trkpt>
      <trkpt lat="42.124143" lon="-2.657892">
        <ele>1098.3</ele>
        <time>2021-07-04T15:18:43.000Z</time>
      </trkpt>
      <trkpt lat="42.123967" lon="-2.657897">
        <ele>1096.8</ele>
        <time>2021-07-04T15:18:45.000Z</time>
      </trkpt>
      <trkpt lat="42.123875" lon="-2.657892">
        <ele>1096.7</ele>
        <time>2021-07-04T15:18:46.000Z</time>
      </trkpt>
      <trkpt lat="42.123783" lon="-2.657883">
        <ele>1096.2</ele>
        <time>2021-07-04T15:18:47.000Z</time>
      </trkpt>
      <trkpt lat="42.123690" lon="-2.657872">
        <ele>1095.5</ele>
        <time>2021-07-04T15:18:48.000Z</time>
      </trkpt>
      <trkpt lat="42.123600" lon="-2.657853">
        <ele>1095.2</ele>
        <time>2021-07-04T15:18:49.000Z</time>
      </trkpt>
      <trkpt lat="42.123510" lon="-2.657833">
        <ele>1095.0</ele>
        <time>2021-07-04T15:18:50.000Z</time>
      </trkpt>
      <trkpt lat="42.123350" lon="-2.657800">
        <ele>1093.8</ele>
        <time>2021-07-04T15:18:52.000Z</time>
      </trkpt>
      <trkpt lat="42.123195" lon="-2.657797">
        <ele>1093.0</ele>
        <time>2021-07-04T15:18:54.000Z</time>
      </trkpt>
      <trkpt lat="42.123050" lon="-2.657835">
        <ele>1092.7</ele>
        <time>2021-07-04T15:18:56.000Z</time>
      </trkpt>
      <trkpt lat="42.122915" lon="-2.657902">
        <ele>1092.8</ele>
        <time>2021-07-04T15:18:58.000Z</time>
      </trkpt>
      <trkpt lat="42.122792" lon="-2.657977">
        <ele>1092.1</ele>
        <time>2021-07-04T15:19:00.000Z</time>
      </trkpt>
      <trkpt lat="42.122663" lon="-2.658062">
        <ele>1091.8</ele>
        <time>2021-07-04T15:19:02.000Z</time>
      </trkpt>
      <trkpt lat="42.122532" lon="-2.658170">
        <ele>1090.5</ele>
        <time>2021-07-04T15:19:04.000Z</time>
      </trkpt>
      <trkpt lat="42.122400" lon="-2.658298">
        <ele>1089.7</ele>
        <time>2021-07-04T15:19:06.000Z</time>
      </trkpt>
      <trkpt lat="42.122275" lon="-2.658447">
        <ele>1088.6</ele>
        <time>2021-07-04T15:19:08.000Z</time>
      </trkpt>
      <trkpt lat="42.122165" lon="-2.658617">
        <ele>1087.5</ele>
        <time>2021-07-04T15:19:10.000Z</time>
      </trkpt>
      <trkpt lat="42.122068" lon="-2.658810">
        <ele>1086.7</ele>
        <time>2021-07-04T15:19:12.000Z</time>
      </trkpt>
      <trkpt lat="42.121978" lon="-2.659018">
        <ele>1087.0</ele>
        <time>2021-07-04T15:19:14.000Z</time>
      </trkpt>
      <trkpt lat="42.121882" lon="-2.659217">
        <ele>1086.1</ele>
        <time>2021-07-04T15:19:16.000Z</time>
      </trkpt>
      <trkpt lat="42.121787" lon="-2.659410">
        <ele>1083.8</ele>
        <time>2021-07-04T15:19:18.000Z</time>
      </trkpt>
      <trkpt lat="42.121717" lon="-2.659595">
        <ele>1082.1</ele>
        <time>2021-07-04T15:19:20.000Z</time>
      </trkpt>
      <trkpt lat="42.121652" lon="-2.659747">
        <ele>1080.1</ele>
        <time>2021-07-04T15:19:22.000Z</time>
      </trkpt>
      <trkpt lat="42.121557" lon="-2.659812">
        <ele>1078.2</ele>
        <time>2021-07-04T15:19:24.000Z</time>
      </trkpt>
      <trkpt lat="42.121490" lon="-2.659657">
        <ele>1076.3</ele>
        <time>2021-07-04T15:19:27.000Z</time>
      </trkpt>
      <trkpt lat="42.121535" lon="-2.659477">
        <ele>1075.0</ele>
        <time>2021-07-04T15:19:29.000Z</time>
      </trkpt>
      <trkpt lat="42.121597" lon="-2.659277">
        <ele>1073.7</ele>
        <time>2021-07-04T15:19:31.000Z</time>
      </trkpt>
      <trkpt lat="42.121670" lon="-2.659083">
        <ele>1072.2</ele>
        <time>2021-07-04T15:19:33.000Z</time>
      </trkpt>
      <trkpt lat="42.121723" lon="-2.658917">
        <ele>1070.4</ele>
        <time>2021-07-04T15:19:35.000Z</time>
      </trkpt>
      <trkpt lat="42.121655" lon="-2.658800">
        <ele>1068.1</ele>
        <time>2021-07-04T15:19:38.000Z</time>
      </trkpt>
      <trkpt lat="42.121557" lon="-2.658890">
        <ele>1066.1</ele>
        <time>2021-07-04T15:19:40.000Z</time>
      </trkpt>
      <trkpt lat="42.121450" lon="-2.659043">
        <ele>1064.0</ele>
        <time>2021-07-04T15:19:42.000Z</time>
      </trkpt>
      <trkpt lat="42.121320" lon="-2.659198">
        <ele>1061.9</ele>
        <time>2021-07-04T15:19:44.000Z</time>
      </trkpt>
      <trkpt lat="42.121173" lon="-2.659322">
        <ele>1059.6</ele>
        <time>2021-07-04T15:19:46.000Z</time>
      </trkpt>
      <trkpt lat="42.121008" lon="-2.659418">
        <ele>1057.9</ele>
        <time>2021-07-04T15:19:48.000Z</time>
      </trkpt>
      <trkpt lat="42.120922" lon="-2.659460">
        <ele>1056.1</ele>
        <time>2021-07-04T15:19:49.000Z</time>
      </trkpt>
      <trkpt lat="42.120837" lon="-2.659503">
        <ele>1055.6</ele>
        <time>2021-07-04T15:19:50.000Z</time>
      </trkpt>
      <trkpt lat="42.120750" lon="-2.659542">
        <ele>1054.5</ele>
        <time>2021-07-04T15:19:51.000Z</time>
      </trkpt>
      <trkpt lat="42.120593" lon="-2.659615">
        <ele>1052.1</ele>
        <time>2021-07-04T15:19:53.000Z</time>
      </trkpt>
      <trkpt lat="42.120452" lon="-2.659725">
        <ele>1051.1</ele>
        <time>2021-07-04T15:19:55.000Z</time>
      </trkpt>
      <trkpt lat="42.120320" lon="-2.659865">
        <ele>1049.4</ele>
        <time>2021-07-04T15:19:57.000Z</time>
      </trkpt>
      <trkpt lat="42.120210" lon="-2.660017">
        <ele>1049.0</ele>
        <time>2021-07-04T15:19:59.000Z</time>
      </trkpt>
      <trkpt lat="42.120140" lon="-2.660198">
        <ele>1048.2</ele>
        <time>2021-07-04T15:20:01.000Z</time>
      </trkpt>
      <trkpt lat="42.120118" lon="-2.660403">
        <ele>1046.5</ele>
        <time>2021-07-04T15:20:03.000Z</time>
      </trkpt>
      <trkpt lat="42.120088" lon="-2.660603">
        <ele>1045.2</ele>
        <time>2021-07-04T15:20:05.000Z</time>
      </trkpt>
      <trkpt lat="42.120033" lon="-2.660778">
        <ele>1043.5</ele>
        <time>2021-07-04T15:20:07.000Z</time>
      </trkpt>
      <trkpt lat="42.119988" lon="-2.660915">
        <ele>1042.2</ele>
        <time>2021-07-04T15:20:09.000Z</time>
      </trkpt>
      <trkpt lat="42.119955" lon="-2.660958">
        <ele>1041.8</ele>
        <time>2021-07-04T15:20:13.000Z</time>
      </trkpt>
      <trkpt lat="42.119953" lon="-2.660970">
        <ele>1041.8</ele>
        <time>2021-07-04T15:20:38.000Z</time>
      </trkpt>
      <trkpt lat="42.119982" lon="-2.661097">
        <ele>1042.1</ele>
        <time>2021-07-04T15:21:05.000Z</time>
      </trkpt>
      <trkpt lat="42.120007" lon="-2.661230">
        <ele>1043.2</ele>
        <time>2021-07-04T15:21:13.000Z</time>
      </trkpt>
      <trkpt lat="42.120032" lon="-2.661357">
        <ele>1044.5</ele>
        <time>2021-07-04T15:21:19.000Z</time>
      </trkpt>
      <trkpt lat="42.120042" lon="-2.661502">
        <ele>1045.2</ele>
        <time>2021-07-04T15:21:25.000Z</time>
      </trkpt>
      <trkpt lat="42.120045" lon="-2.661628">
        <ele>1045.4</ele>
        <time>2021-07-04T15:21:30.000Z</time>
      </trkpt>
      <trkpt lat="42.120025" lon="-2.661758">
        <ele>1046.3</ele>
        <time>2021-07-04T15:21:35.000Z</time>
      </trkpt>
      <trkpt lat="42.119977" lon="-2.661883">
        <ele>1046.7</ele>
        <time>2021-07-04T15:21:40.000Z</time>
      </trkpt>
      <trkpt lat="42.119917" lon="-2.662008">
        <ele>1046.7</ele>
        <time>2021-07-04T15:21:45.000Z</time>
      </trkpt>
      <trkpt lat="42.119865" lon="-2.662112">
        <ele>1047.2</ele>
        <time>2021-07-04T15:21:49.000Z</time>
      </trkpt>
      <trkpt lat="42.119808" lon="-2.662213">
        <ele>1047.4</ele>
        <time>2021-07-04T15:21:53.000Z</time>
      </trkpt>
      <trkpt lat="42.119745" lon="-2.662323">
        <ele>1048.1</ele>
        <time>2021-07-04T15:21:58.000Z</time>
      </trkpt>
      <trkpt lat="42.119683" lon="-2.662412">
        <ele>1049.2</ele>
        <time>2021-07-04T15:22:03.000Z</time>
      </trkpt>
      <trkpt lat="42.119618" lon="-2.662525">
        <ele>1049.7</ele>
        <time>2021-07-04T15:22:09.000Z</time>
      </trkpt>
      <trkpt lat="42.119527" lon="-2.662592">
        <ele>1051.4</ele>
        <time>2021-07-04T15:22:15.000Z</time>
      </trkpt>
      <trkpt lat="42.119475" lon="-2.662705">
        <ele>1052.0</ele>
        <time>2021-07-04T15:22:21.000Z</time>
      </trkpt>
      <trkpt lat="42.119433" lon="-2.662833">
        <ele>1053.7</ele>
        <time>2021-07-04T15:22:27.000Z</time>
      </trkpt>
      <trkpt lat="42.119392" lon="-2.662957">
        <ele>1054.9</ele>
        <time>2021-07-04T15:22:33.000Z</time>
      </trkpt>
      <trkpt lat="42.119355" lon="-2.663083">
        <ele>1056.0</ele>
        <time>2021-07-04T15:22:39.000Z</time>
      </trkpt>
      <trkpt lat="42.119317" lon="-2.663215">
        <ele>1056.1</ele>
        <time>2021-07-04T15:22:45.000Z</time>
      </trkpt>
      <trkpt lat="42.119293" lon="-2.663337">
        <ele>1057.0</ele>
        <time>2021-07-04T15:22:50.000Z</time>
      </trkpt>
      <trkpt lat="42.119260" lon="-2.663470">
        <ele>1057.7</ele>
        <time>2021-07-04T15:22:56.000Z</time>
      </trkpt>
      <trkpt lat="42.119233" lon="-2.663605">
        <ele>1058.8</ele>
        <time>2021-07-04T15:23:02.000Z</time>
      </trkpt>
      <trkpt lat="42.119198" lon="-2.663735">
        <ele>1059.4</ele>
        <time>2021-07-04T15:23:08.000Z</time>
      </trkpt>
      <trkpt lat="42.119175" lon="-2.663872">
        <ele>1060.8</ele>
        <time>2021-07-04T15:23:14.000Z</time>
      </trkpt>
      <trkpt lat="42.119148" lon="-2.664012">
        <ele>1061.1</ele>
        <time>2021-07-04T15:23:20.000Z</time>
      </trkpt>
      <trkpt lat="42.119125" lon="-2.664153">
        <ele>1062.6</ele>
        <time>2021-07-04T15:23:26.000Z</time>
      </trkpt>
      <trkpt lat="42.119092" lon="-2.664287">
        <ele>1062.9</ele>
        <time>2021-07-04T15:23:32.000Z</time>
      </trkpt>
      <trkpt lat="42.119032" lon="-2.664387">
        <ele>1063.8</ele>
        <time>2021-07-04T15:23:37.000Z</time>
      </trkpt>
      <trkpt lat="42.118945" lon="-2.664472">
        <ele>1064.8</ele>
        <time>2021-07-04T15:23:43.000Z</time>
      </trkpt>
      <trkpt lat="42.118853" lon="-2.664547">
        <ele>1065.8</ele>
        <time>2021-07-04T15:23:49.000Z</time>
      </trkpt>
      <trkpt lat="42.118765" lon="-2.664620">
        <ele>1066.5</ele>
        <time>2021-07-04T15:23:55.000Z</time>
      </trkpt>
      <trkpt lat="42.118678" lon="-2.664690">
        <ele>1067.8</ele>
        <time>2021-07-04T15:24:01.000Z</time>
      </trkpt>
      <trkpt lat="42.118595" lon="-2.664770">
        <ele>1068.7</ele>
        <time>2021-07-04T15:24:07.000Z</time>
      </trkpt>
      <trkpt lat="42.118507" lon="-2.664850">
        <ele>1070.2</ele>
        <time>2021-07-04T15:24:13.000Z</time>
      </trkpt>
      <trkpt lat="42.118452" lon="-2.664957">
        <ele>1071.2</ele>
        <time>2021-07-04T15:24:18.000Z</time>
      </trkpt>
      <trkpt lat="42.118390" lon="-2.665065">
        <ele>1071.9</ele>
        <time>2021-07-04T15:24:23.000Z</time>
      </trkpt>
      <trkpt lat="42.118328" lon="-2.665180">
        <ele>1073.7</ele>
        <time>2021-07-04T15:24:28.000Z</time>
      </trkpt>
      <trkpt lat="42.118272" lon="-2.665297">
        <ele>1074.7</ele>
        <time>2021-07-04T15:24:33.000Z</time>
      </trkpt>
      <trkpt lat="42.118205" lon="-2.665397">
        <ele>1076.0</ele>
        <time>2021-07-04T15:24:38.000Z</time>
      </trkpt>
      <trkpt lat="42.118132" lon="-2.665503">
        <ele>1077.3</ele>
        <time>2021-07-04T15:24:43.000Z</time>
      </trkpt>
      <trkpt lat="42.118057" lon="-2.665605">
        <ele>1077.5</ele>
        <time>2021-07-04T15:24:48.000Z</time>
      </trkpt>
      <trkpt lat="42.117983" lon="-2.665702">
        <ele>1078.2</ele>
        <time>2021-07-04T15:24:53.000Z</time>
      </trkpt>
      <trkpt lat="42.117900" lon="-2.665778">
        <ele>1079.2</ele>
        <time>2021-07-04T15:24:58.000Z</time>
      </trkpt>
      <trkpt lat="42.117807" lon="-2.665842">
        <ele>1079.7</ele>
        <time>2021-07-04T15:25:03.000Z</time>
      </trkpt>
      <trkpt lat="42.117728" lon="-2.665903">
        <ele>1079.6</ele>
        <time>2021-07-04T15:25:07.000Z</time>
      </trkpt>
      <trkpt lat="42.117638" lon="-2.665973">
        <ele>1080.2</ele>
        <time>2021-07-04T15:25:11.000Z</time>
      </trkpt>
      <trkpt lat="42.117545" lon="-2.666042">
        <ele>1080.9</ele>
        <time>2021-07-04T15:25:15.000Z</time>
      </trkpt>
      <trkpt lat="42.117452" lon="-2.666112">
        <ele>1080.7</ele>
        <time>2021-07-04T15:25:19.000Z</time>
      </trkpt>
      <trkpt lat="42.117358" lon="-2.666197">
        <ele>1080.8</ele>
        <time>2021-07-04T15:25:23.000Z</time>
      </trkpt>
      <trkpt lat="42.117265" lon="-2.666292">
        <ele>1081.4</ele>
        <time>2021-07-04T15:25:27.000Z</time>
      </trkpt>
      <trkpt lat="42.117185" lon="-2.666373">
        <ele>1081.4</ele>
        <time>2021-07-04T15:25:30.000Z</time>
      </trkpt>
      <trkpt lat="42.117108" lon="-2.666447">
        <ele>1081.6</ele>
        <time>2021-07-04T15:25:33.000Z</time>
      </trkpt>
      <trkpt lat="42.117023" lon="-2.666533">
        <ele>1082.0</ele>
        <time>2021-07-04T15:25:37.000Z</time>
      </trkpt>
      <trkpt lat="42.116945" lon="-2.666617">
        <ele>1083.3</ele>
        <time>2021-07-04T15:25:41.000Z</time>
      </trkpt>
      <trkpt lat="42.116865" lon="-2.666702">
        <ele>1083.5</ele>
        <time>2021-07-04T15:25:45.000Z</time>
      </trkpt>
      <trkpt lat="42.116762" lon="-2.666773">
        <ele>1083.9</ele>
        <time>2021-07-04T15:25:49.000Z</time>
      </trkpt>
      <trkpt lat="42.116648" lon="-2.666848">
        <ele>1082.7</ele>
        <time>2021-07-04T15:25:52.000Z</time>
      </trkpt>
      <trkpt lat="42.116567" lon="-2.666932">
        <ele>1081.7</ele>
        <time>2021-07-04T15:25:54.000Z</time>
      </trkpt>
      <trkpt lat="42.116490" lon="-2.667010">
        <ele>1082.3</ele>
        <time>2021-07-04T15:25:56.000Z</time>
      </trkpt>
      <trkpt lat="42.116395" lon="-2.667135">
        <ele>1082.2</ele>
        <time>2021-07-04T15:25:59.000Z</time>
      </trkpt>
      <trkpt lat="42.116332" lon="-2.667230">
        <ele>1081.4</ele>
        <time>2021-07-04T15:26:01.000Z</time>
      </trkpt>
      <trkpt lat="42.116268" lon="-2.667340">
        <ele>1081.2</ele>
        <time>2021-07-04T15:26:03.000Z</time>
      </trkpt>
      <trkpt lat="42.116203" lon="-2.667463">
        <ele>1080.9</ele>
        <time>2021-07-04T15:26:05.000Z</time>
      </trkpt>
      <trkpt lat="42.116138" lon="-2.667612">
        <ele>1080.2</ele>
        <time>2021-07-04T15:26:07.000Z</time>
      </trkpt>
      <trkpt lat="42.116082" lon="-2.667772">
        <ele>1079.3</ele>
        <time>2021-07-04T15:26:09.000Z</time>
      </trkpt>
      <trkpt lat="42.116048" lon="-2.667937">
        <ele>1079.6</ele>
        <time>2021-07-04T15:26:11.000Z</time>
      </trkpt>
      <trkpt lat="42.116022" lon="-2.668087">
        <ele>1079.8</ele>
        <time>2021-07-04T15:26:13.000Z</time>
      </trkpt>
      <trkpt lat="42.116002" lon="-2.668213">
        <ele>1079.6</ele>
        <time>2021-07-04T15:26:15.000Z</time>
      </trkpt>
      <trkpt lat="42.115982" lon="-2.668362">
        <ele>1080.3</ele>
        <time>2021-07-04T15:26:18.000Z</time>
      </trkpt>
      <trkpt lat="42.115968" lon="-2.668492">
        <ele>1080.5</ele>
        <time>2021-07-04T15:26:21.000Z</time>
      </trkpt>
      <trkpt lat="42.115955" lon="-2.668612">
        <ele>1080.1</ele>
        <time>2021-07-04T15:26:24.000Z</time>
      </trkpt>
      <trkpt lat="42.115938" lon="-2.668772">
        <ele>1081.5</ele>
        <time>2021-07-04T15:26:28.000Z</time>
      </trkpt>
      <trkpt lat="42.115922" lon="-2.668930">
        <ele>1081.9</ele>
        <time>2021-07-04T15:26:32.000Z</time>
      </trkpt>
      <trkpt lat="42.115902" lon="-2.669055">
        <ele>1083.1</ele>
        <time>2021-07-04T15:26:35.000Z</time>
      </trkpt>
      <trkpt lat="42.115890" lon="-2.669190">
        <ele>1084.0</ele>
        <time>2021-07-04T15:26:38.000Z</time>
      </trkpt>
      <trkpt lat="42.115873" lon="-2.669320">
        <ele>1084.4</ele>
        <time>2021-07-04T15:26:41.000Z</time>
      </trkpt>
      <trkpt lat="42.115853" lon="-2.669447">
        <ele>1084.7</ele>
        <time>2021-07-04T15:26:44.000Z</time>
      </trkpt>
      <trkpt lat="42.115830" lon="-2.669575">
        <ele>1085.6</ele>
        <time>2021-07-04T15:26:47.000Z</time>
      </trkpt>
      <trkpt lat="42.115793" lon="-2.669693">
        <ele>1085.8</ele>
        <time>2021-07-04T15:26:50.000Z</time>
      </trkpt>
      <trkpt lat="42.115763" lon="-2.669815">
        <ele>1087.4</ele>
        <time>2021-07-04T15:26:53.000Z</time>
      </trkpt>
      <trkpt lat="42.115745" lon="-2.669940">
        <ele>1086.6</ele>
        <time>2021-07-04T15:26:56.000Z</time>
      </trkpt>
      <trkpt lat="42.115713" lon="-2.670058">
        <ele>1087.3</ele>
        <time>2021-07-04T15:26:59.000Z</time>
      </trkpt>
      <trkpt lat="42.115690" lon="-2.670178">
        <ele>1087.3</ele>
        <time>2021-07-04T15:27:02.000Z</time>
      </trkpt>
      <trkpt lat="42.115652" lon="-2.670332">
        <ele>1088.0</ele>
        <time>2021-07-04T15:27:06.000Z</time>
      </trkpt>
      <trkpt lat="42.115618" lon="-2.670452">
        <ele>1088.5</ele>
        <time>2021-07-04T15:27:09.000Z</time>
      </trkpt>
      <trkpt lat="42.115580" lon="-2.670593">
        <ele>1089.6</ele>
        <time>2021-07-04T15:27:13.000Z</time>
      </trkpt>
      <trkpt lat="42.115535" lon="-2.670722">
        <ele>1089.0</ele>
        <time>2021-07-04T15:27:18.000Z</time>
      </trkpt>
      <trkpt lat="42.115492" lon="-2.670833">
        <ele>1090.8</ele>
        <time>2021-07-04T15:27:23.000Z</time>
      </trkpt>
      <trkpt lat="42.115463" lon="-2.670963">
        <ele>1091.5</ele>
        <time>2021-07-04T15:27:29.000Z</time>
      </trkpt>
      <trkpt lat="42.115420" lon="-2.671023">
        <ele>1091.0</ele>
        <time>2021-07-04T15:27:35.000Z</time>
      </trkpt>
      <trkpt lat="42.115418" lon="-2.671022">
        <ele>1091.2</ele>
        <time>2021-07-04T15:28:03.000Z</time>
      </trkpt>
      <trkpt lat="42.115347" lon="-2.671107">
        <ele>1091.2</ele>
        <time>2021-07-04T15:28:09.000Z</time>
      </trkpt>
      <trkpt lat="42.115265" lon="-2.671215">
        <ele>1089.6</ele>
        <time>2021-07-04T15:28:12.000Z</time>
      </trkpt>
      <trkpt lat="42.115182" lon="-2.671320">
        <ele>1088.4</ele>
        <time>2021-07-04T15:28:15.000Z</time>
      </trkpt>
      <trkpt lat="42.115110" lon="-2.671395">
        <ele>1087.3</ele>
        <time>2021-07-04T15:28:21.000Z</time>
      </trkpt>
      <trkpt lat="42.115030" lon="-2.671510">
        <ele>1086.7</ele>
        <time>2021-07-04T15:28:24.000Z</time>
      </trkpt>
      <trkpt lat="42.114922" lon="-2.671622">
        <ele>1085.3</ele>
        <time>2021-07-04T15:28:27.000Z</time>
      </trkpt>
      <trkpt lat="42.114845" lon="-2.671707">
        <ele>1084.1</ele>
        <time>2021-07-04T15:28:29.000Z</time>
      </trkpt>
      <trkpt lat="42.114773" lon="-2.671798">
        <ele>1083.3</ele>
        <time>2021-07-04T15:28:31.000Z</time>
      </trkpt>
      <trkpt lat="42.114708" lon="-2.671892">
        <ele>1081.3</ele>
        <time>2021-07-04T15:28:33.000Z</time>
      </trkpt>
      <trkpt lat="42.114655" lon="-2.672002">
        <ele>1080.7</ele>
        <time>2021-07-04T15:28:35.000Z</time>
      </trkpt>
      <trkpt lat="42.114608" lon="-2.672113">
        <ele>1079.7</ele>
        <time>2021-07-04T15:28:37.000Z</time>
      </trkpt>
      <trkpt lat="42.114557" lon="-2.672218">
        <ele>1077.9</ele>
        <time>2021-07-04T15:28:39.000Z</time>
      </trkpt>
      <trkpt lat="42.114487" lon="-2.672323">
        <ele>1074.5</ele>
        <time>2021-07-04T15:28:41.000Z</time>
      </trkpt>
      <trkpt lat="42.114412" lon="-2.672422">
        <ele>1072.7</ele>
        <time>2021-07-04T15:28:43.000Z</time>
      </trkpt>
      <trkpt lat="42.114338" lon="-2.672495">
        <ele>1072.4</ele>
        <time>2021-07-04T15:28:46.000Z</time>
      </trkpt>
      <trkpt lat="42.114232" lon="-2.672453">
        <ele>1073.8</ele>
        <time>2021-07-04T15:28:51.000Z</time>
      </trkpt>
      <trkpt lat="42.114137" lon="-2.672457">
        <ele>1073.4</ele>
        <time>2021-07-04T15:28:57.000Z</time>
      </trkpt>
      <trkpt lat="42.114048" lon="-2.672493">
        <ele>1074.7</ele>
        <time>2021-07-04T15:29:03.000Z</time>
      </trkpt>
      <trkpt lat="42.113943" lon="-2.672560">
        <ele>1076.2</ele>
        <time>2021-07-04T15:29:07.000Z</time>
      </trkpt>
      <trkpt lat="42.113862" lon="-2.672625">
        <ele>1075.8</ele>
        <time>2021-07-04T15:29:09.000Z</time>
      </trkpt>
      <trkpt lat="42.113762" lon="-2.672667">
        <ele>1074.5</ele>
        <time>2021-07-04T15:29:12.000Z</time>
      </trkpt>
      <trkpt lat="42.113673" lon="-2.672750">
        <ele>1075.5</ele>
        <time>2021-07-04T15:29:16.000Z</time>
      </trkpt>
      <trkpt lat="42.113622" lon="-2.672877">
        <ele>1076.4</ele>
        <time>2021-07-04T15:29:20.000Z</time>
      </trkpt>
      <trkpt lat="42.113607" lon="-2.673000">
        <ele>1077.2</ele>
        <time>2021-07-04T15:29:24.000Z</time>
      </trkpt>
      <trkpt lat="42.113652" lon="-2.673120">
        <ele>1078.6</ele>
        <time>2021-07-04T15:29:32.000Z</time>
      </trkpt>
      <trkpt lat="42.113732" lon="-2.673178">
        <ele>1079.0</ele>
        <time>2021-07-04T15:29:38.000Z</time>
      </trkpt>
      <trkpt lat="42.113820" lon="-2.673250">
        <ele>1079.5</ele>
        <time>2021-07-04T15:29:44.000Z</time>
      </trkpt>
      <trkpt lat="42.113895" lon="-2.673337">
        <ele>1080.7</ele>
        <time>2021-07-04T15:29:49.000Z</time>
      </trkpt>
      <trkpt lat="42.113940" lon="-2.673448">
        <ele>1081.8</ele>
        <time>2021-07-04T15:29:54.000Z</time>
      </trkpt>
      <trkpt lat="42.113980" lon="-2.673568">
        <ele>1083.5</ele>
        <time>2021-07-04T15:30:00.000Z</time>
      </trkpt>
      <trkpt lat="42.114025" lon="-2.673685">
        <ele>1084.6</ele>
        <time>2021-07-04T15:30:06.000Z</time>
      </trkpt>
      <trkpt lat="42.114067" lon="-2.673800">
        <ele>1084.5</ele>
        <time>2021-07-04T15:30:11.000Z</time>
      </trkpt>
      <trkpt lat="42.114107" lon="-2.673930">
        <ele>1085.5</ele>
        <time>2021-07-04T15:30:16.000Z</time>
      </trkpt>
      <trkpt lat="42.114133" lon="-2.674062">
        <ele>1086.3</ele>
        <time>2021-07-04T15:30:22.000Z</time>
      </trkpt>
      <trkpt lat="42.114177" lon="-2.674168">
        <ele>1088.0</ele>
        <time>2021-07-04T15:30:27.000Z</time>
      </trkpt>
      <trkpt lat="42.114242" lon="-2.674265">
        <ele>1088.6</ele>
        <time>2021-07-04T15:30:32.000Z</time>
      </trkpt>
      <trkpt lat="42.114295" lon="-2.674367">
        <ele>1089.3</ele>
        <time>2021-07-04T15:30:38.000Z</time>
      </trkpt>
      <trkpt lat="42.114322" lon="-2.674492">
        <ele>1090.8</ele>
        <time>2021-07-04T15:30:43.000Z</time>
      </trkpt>
      <trkpt lat="42.114323" lon="-2.674617">
        <ele>1088.1</ele>
        <time>2021-07-04T15:30:46.000Z</time>
      </trkpt>
      <trkpt lat="42.114307" lon="-2.674767">
        <ele>1088.0</ele>
        <time>2021-07-04T15:30:49.000Z</time>
      </trkpt>
      <trkpt lat="42.114282" lon="-2.674922">
        <ele>1084.1</ele>
        <time>2021-07-04T15:30:52.000Z</time>
      </trkpt>
      <trkpt lat="42.114258" lon="-2.675092">
        <ele>1084.3</ele>
        <time>2021-07-04T15:30:55.000Z</time>
      </trkpt>
      <trkpt lat="42.114235" lon="-2.675265">
        <ele>1083.0</ele>
        <time>2021-07-04T15:30:58.000Z</time>
      </trkpt>
      <trkpt lat="42.114200" lon="-2.675438">
        <ele>1079.9</ele>
        <time>2021-07-04T15:31:01.000Z</time>
      </trkpt>
      <trkpt lat="42.114168" lon="-2.675555">
        <ele>1077.9</ele>
        <time>2021-07-04T15:31:03.000Z</time>
      </trkpt>
      <trkpt lat="42.114118" lon="-2.675667">
        <ele>1077.1</ele>
        <time>2021-07-04T15:31:05.000Z</time>
      </trkpt>
      <trkpt lat="42.114063" lon="-2.675830">
        <ele>1077.8</ele>
        <time>2021-07-04T15:31:08.000Z</time>
      </trkpt>
      <trkpt lat="42.114025" lon="-2.675987">
        <ele>1076.3</ele>
        <time>2021-07-04T15:31:11.000Z</time>
      </trkpt>
      <trkpt lat="42.113960" lon="-2.676098">
        <ele>1073.7</ele>
        <time>2021-07-04T15:31:14.000Z</time>
      </trkpt>
      <trkpt lat="42.113880" lon="-2.676040">
        <ele>1072.4</ele>
        <time>2021-07-04T15:31:17.000Z</time>
      </trkpt>
      <trkpt lat="42.113833" lon="-2.675925">
        <ele>1071.1</ele>
        <time>2021-07-04T15:31:19.000Z</time>
      </trkpt>
      <trkpt lat="42.113812" lon="-2.675772">
        <ele>1070.1</ele>
        <time>2021-07-04T15:31:21.000Z</time>
      </trkpt>
      <trkpt lat="42.113802" lon="-2.675605">
        <ele>1069.5</ele>
        <time>2021-07-04T15:31:23.000Z</time>
      </trkpt>
      <trkpt lat="42.113800" lon="-2.675445">
        <ele>1067.9</ele>
        <time>2021-07-04T15:31:25.000Z</time>
      </trkpt>
      <trkpt lat="42.113798" lon="-2.675288">
        <ele>1067.4</ele>
        <time>2021-07-04T15:31:27.000Z</time>
      </trkpt>
      <trkpt lat="42.113800" lon="-2.675130">
        <ele>1066.2</ele>
        <time>2021-07-04T15:31:29.000Z</time>
      </trkpt>
      <trkpt lat="42.113797" lon="-2.674983">
        <ele>1065.9</ele>
        <time>2021-07-04T15:31:31.000Z</time>
      </trkpt>
      <trkpt lat="42.113793" lon="-2.674837">
        <ele>1063.7</ele>
        <time>2021-07-04T15:31:33.000Z</time>
      </trkpt>
      <trkpt lat="42.113787" lon="-2.674688">
        <ele>1062.4</ele>
        <time>2021-07-04T15:31:35.000Z</time>
      </trkpt>
      <trkpt lat="42.113760" lon="-2.674542">
        <ele>1060.9</ele>
        <time>2021-07-04T15:31:37.000Z</time>
      </trkpt>
      <trkpt lat="42.113695" lon="-2.674415">
        <ele>1059.6</ele>
        <time>2021-07-04T15:31:39.000Z</time>
      </trkpt>
      <trkpt lat="42.113610" lon="-2.674303">
        <ele>1058.4</ele>
        <time>2021-07-04T15:31:41.000Z</time>
      </trkpt>
      <trkpt lat="42.113550" lon="-2.674175">
        <ele>1056.2</ele>
        <time>2021-07-04T15:31:43.000Z</time>
      </trkpt>
      <trkpt lat="42.113518" lon="-2.674022">
        <ele>1056.0</ele>
        <time>2021-07-04T15:31:45.000Z</time>
      </trkpt>
      <trkpt lat="42.113502" lon="-2.673862">
        <ele>1054.9</ele>
        <time>2021-07-04T15:31:47.000Z</time>
      </trkpt>
      <trkpt lat="42.113483" lon="-2.673703">
        <ele>1054.3</ele>
        <time>2021-07-04T15:31:49.000Z</time>
      </trkpt>
      <trkpt lat="42.113417" lon="-2.673567">
        <ele>1053.4</ele>
        <time>2021-07-04T15:31:51.000Z</time>
      </trkpt>
      <trkpt lat="42.113273" lon="-2.673473">
        <ele>1052.9</ele>
        <time>2021-07-04T15:31:53.000Z</time>
      </trkpt>
      <trkpt lat="42.113130" lon="-2.673425">
        <ele>1052.1</ele>
        <time>2021-07-04T15:31:55.000Z</time>
      </trkpt>
      <trkpt lat="42.113005" lon="-2.673378">
        <ele>1050.6</ele>
        <time>2021-07-04T15:31:57.000Z</time>
      </trkpt>
      <trkpt lat="42.112902" lon="-2.673300">
        <ele>1049.6</ele>
        <time>2021-07-04T15:31:59.000Z</time>
      </trkpt>
      <trkpt lat="42.112803" lon="-2.673202">
        <ele>1049.6</ele>
        <time>2021-07-04T15:32:01.000Z</time>
      </trkpt>
      <trkpt lat="42.112698" lon="-2.673140">
        <ele>1048.5</ele>
        <time>2021-07-04T15:32:03.000Z</time>
      </trkpt>
      <trkpt lat="42.112610" lon="-2.673093">
        <ele>1049.8</ele>
        <time>2021-07-04T15:32:05.000Z</time>
      </trkpt>
      <trkpt lat="42.112515" lon="-2.672998">
        <ele>1050.2</ele>
        <time>2021-07-04T15:32:08.000Z</time>
      </trkpt>
      <trkpt lat="42.112430" lon="-2.672933">
        <ele>1047.6</ele>
        <time>2021-07-04T15:32:10.000Z</time>
      </trkpt>
      <trkpt lat="42.112327" lon="-2.672878">
        <ele>1047.0</ele>
        <time>2021-07-04T15:32:12.000Z</time>
      </trkpt>
      <trkpt lat="42.112238" lon="-2.672803">
        <ele>1047.3</ele>
        <time>2021-07-04T15:32:14.000Z</time>
      </trkpt>
      <trkpt lat="42.112167" lon="-2.672698">
        <ele>1047.8</ele>
        <time>2021-07-04T15:32:16.000Z</time>
      </trkpt>
      <trkpt lat="42.112112" lon="-2.672598">
        <ele>1046.2</ele>
        <time>2021-07-04T15:32:18.000Z</time>
      </trkpt>
      <trkpt lat="42.112080" lon="-2.672483">
        <ele>1046.9</ele>
        <time>2021-07-04T15:32:21.000Z</time>
      </trkpt>
      <trkpt lat="42.112032" lon="-2.672350">
        <ele>1047.4</ele>
        <time>2021-07-04T15:32:26.000Z</time>
      </trkpt>
      <trkpt lat="42.111978" lon="-2.672230">
        <ele>1048.6</ele>
        <time>2021-07-04T15:32:31.000Z</time>
      </trkpt>
      <trkpt lat="42.111917" lon="-2.672342">
        <ele>1049.3</ele>
        <time>2021-07-04T15:32:36.000Z</time>
      </trkpt>
      <trkpt lat="42.111883" lon="-2.672470">
        <ele>1050.2</ele>
        <time>2021-07-04T15:32:40.000Z</time>
      </trkpt>
      <trkpt lat="42.111848" lon="-2.672597">
        <ele>1050.6</ele>
        <time>2021-07-04T15:32:44.000Z</time>
      </trkpt>
      <trkpt lat="42.111788" lon="-2.672717">
        <ele>1050.9</ele>
        <time>2021-07-04T15:32:48.000Z</time>
      </trkpt>
      <trkpt lat="42.111700" lon="-2.672818">
        <ele>1050.4</ele>
        <time>2021-07-04T15:32:52.000Z</time>
      </trkpt>
      <trkpt lat="42.111623" lon="-2.672922">
        <ele>1050.6</ele>
        <time>2021-07-04T15:32:55.000Z</time>
      </trkpt>
      <trkpt lat="42.111558" lon="-2.673007">
        <ele>1050.0</ele>
        <time>2021-07-04T15:32:57.000Z</time>
      </trkpt>
      <trkpt lat="42.111488" lon="-2.673112">
        <ele>1049.4</ele>
        <time>2021-07-04T15:32:59.000Z</time>
      </trkpt>
      <trkpt lat="42.111410" lon="-2.673223">
        <ele>1049.4</ele>
        <time>2021-07-04T15:33:01.000Z</time>
      </trkpt>
      <trkpt lat="42.111333" lon="-2.673330">
        <ele>1049.1</ele>
        <time>2021-07-04T15:33:03.000Z</time>
      </trkpt>
      <trkpt lat="42.111257" lon="-2.673418">
        <ele>1048.7</ele>
        <time>2021-07-04T15:33:05.000Z</time>
      </trkpt>
      <trkpt lat="42.111183" lon="-2.673497">
        <ele>1048.8</ele>
        <time>2021-07-04T15:33:07.000Z</time>
      </trkpt>
      <trkpt lat="42.111110" lon="-2.673572">
        <ele>1049.1</ele>
        <time>2021-07-04T15:33:09.000Z</time>
      </trkpt>
      <trkpt lat="42.111035" lon="-2.673640">
        <ele>1049.4</ele>
        <time>2021-07-04T15:33:11.000Z</time>
      </trkpt>
      <trkpt lat="42.110960" lon="-2.673707">
        <ele>1049.6</ele>
        <time>2021-07-04T15:33:13.000Z</time>
      </trkpt>
      <trkpt lat="42.110883" lon="-2.673772">
        <ele>1049.0</ele>
        <time>2021-07-04T15:33:15.000Z</time>
      </trkpt>
      <trkpt lat="42.110810" lon="-2.673842">
        <ele>1049.3</ele>
        <time>2021-07-04T15:33:17.000Z</time>
      </trkpt>
      <trkpt lat="42.110730" lon="-2.673910">
        <ele>1049.5</ele>
        <time>2021-07-04T15:33:19.000Z</time>
      </trkpt>
      <trkpt lat="42.110652" lon="-2.673977">
        <ele>1049.7</ele>
        <time>2021-07-04T15:33:21.000Z</time>
      </trkpt>
      <trkpt lat="42.110572" lon="-2.674045">
        <ele>1049.6</ele>
        <time>2021-07-04T15:33:23.000Z</time>
      </trkpt>
      <trkpt lat="42.110487" lon="-2.674095">
        <ele>1049.4</ele>
        <time>2021-07-04T15:33:25.000Z</time>
      </trkpt>
      <trkpt lat="42.110397" lon="-2.674132">
        <ele>1049.8</ele>
        <time>2021-07-04T15:33:27.000Z</time>
      </trkpt>
      <trkpt lat="42.110272" lon="-2.674162">
        <ele>1049.5</ele>
        <time>2021-07-04T15:33:30.000Z</time>
      </trkpt>
      <trkpt lat="42.110158" lon="-2.674178">
        <ele>1049.7</ele>
        <time>2021-07-04T15:33:33.000Z</time>
      </trkpt>
      <trkpt lat="42.110093" lon="-2.674302">
        <ele>1049.3</ele>
        <time>2021-07-04T15:33:36.000Z</time>
      </trkpt>
      <trkpt lat="42.110018" lon="-2.674435">
        <ele>1048.1</ele>
        <time>2021-07-04T15:33:39.000Z</time>
      </trkpt>
      <trkpt lat="42.109937" lon="-2.674537">
        <ele>1049.5</ele>
        <time>2021-07-04T15:33:42.000Z</time>
      </trkpt>
      <trkpt lat="42.109843" lon="-2.674603">
        <ele>1050.3</ele>
        <time>2021-07-04T15:33:45.000Z</time>
      </trkpt>
      <trkpt lat="42.109825" lon="-2.674607">
        <ele>1050.1</ele>
        <time>2021-07-04T15:33:48.000Z</time>
      </trkpt>
      <trkpt lat="42.109825" lon="-2.674603">
        <ele>1049.9</ele>
        <time>2021-07-04T15:33:49.000Z</time>
      </trkpt>
      <trkpt lat="42.109793" lon="-2.674508">
        <ele>1049.8</ele>
        <time>2021-07-04T15:34:00.000Z</time>
      </trkpt>
      <trkpt lat="42.109793" lon="-2.674508">
        <ele>1049.6</ele>
        <time>2021-07-04T15:34:10.000Z</time>
      </trkpt>
      <trkpt lat="42.109793" lon="-2.674508">
        <ele>1049.7</ele>
        <time>2021-07-04T15:34:11.000Z</time>
      </trkpt>
      <trkpt lat="42.109793" lon="-2.674508">
        <ele>1049.7</ele>
        <time>2021-07-04T15:34:11.000Z</time>
      </trkpt>
    </trkseg>
  </trk>
</gpx>
